<?xml version="1.0" encoding="UTF-8" standalone="no" ?>
<gpx xmlns="http://www.topografix.com/GPX/1/1" xmlns:xsi="http://www.w3.org/2001/XMLSchema-instance" xsi:schemaLocation="http://www.topografix.com/GPX/1/1 http://www.topografix.com/GPX/1/1/gpx.xsd" version="1.1" creator="VisuGPX - https://www.visugpx.com">
  <metadata>
    <name>Rando de la Ravoire (73)</name>
    <desc><![CDATA[Très belle rando. Monté lohgue mais les descente velent le coup, surtout la dernière.]]></desc>
  </metadata>
  <trk>
    <name><![CDATA[Rando des diots (oregon 400)]]></name>
    <trkseg>
      <trkpt lat="45.56211" lon="5.96555">
        <ele>291.79998779297</ele>
        <time>2013-08-25T06:24:15.000Z</time>
      </trkpt>
      <trkpt lat="45.56223" lon="5.96549">
        <ele>291.79998779297</ele>
        <time>2013-08-25T06:24:31.000Z</time>
      </trkpt>
      <trkpt lat="45.56225" lon="5.96548">
        <ele>291.79998779297</ele>
        <time>2013-08-25T06:24:33.000Z</time>
      </trkpt>
      <trkpt lat="45.56227" lon="5.96547">
        <ele>291.60000610352</ele>
        <time>2013-08-25T06:24:43.000Z</time>
      </trkpt>
      <trkpt lat="45.56228" lon="5.96546">
        <ele>291.60000610352</ele>
        <time>2013-08-25T06:24:56.000Z</time>
      </trkpt>
      <trkpt lat="45.56226" lon="5.96546">
        <ele>291.60000610352</ele>
        <time>2013-08-25T06:25:06.000Z</time>
      </trkpt>
      <trkpt lat="45.56223" lon="5.96544">
        <ele>291.60000610352</ele>
        <time>2013-08-25T06:25:13.000Z</time>
      </trkpt>
      <trkpt lat="45.56223" lon="5.96532">
        <ele>291.39999389648</ele>
        <time>2013-08-25T06:25:27.000Z</time>
      </trkpt>
      <trkpt lat="45.56223" lon="5.96537">
        <ele>291.39999389648</ele>
        <time>2013-08-25T06:26:04.000Z</time>
      </trkpt>
      <trkpt lat="45.56224" lon="5.96537">
        <ele>291.39999389648</ele>
        <time>2013-08-25T06:26:42.000Z</time>
      </trkpt>
      <trkpt lat="45.5622" lon="5.96536">
        <ele>291.39999389648</ele>
        <time>2013-08-25T06:26:48.000Z</time>
      </trkpt>
      <trkpt lat="45.56202" lon="5.96541">
        <ele>291.60000610352</ele>
        <time>2013-08-25T06:26:56.000Z</time>
      </trkpt>
      <trkpt lat="45.56162" lon="5.96562">
        <ele>291.79998779297</ele>
        <time>2013-08-25T06:27:08.000Z</time>
      </trkpt>
      <trkpt lat="45.56164" lon="5.96592">
        <ele>291.79998779297</ele>
        <time>2013-08-25T06:27:14.000Z</time>
      </trkpt>
      <trkpt lat="45.56166" lon="5.96597">
        <ele>291.79998779297</ele>
        <time>2013-08-25T06:27:15.000Z</time>
      </trkpt>
      <trkpt lat="45.5618" lon="5.96663">
        <ele>292</ele>
        <time>2013-08-25T06:27:29.000Z</time>
      </trkpt>
      <trkpt lat="45.56196" lon="5.96738">
        <ele>293.39999389648</ele>
        <time>2013-08-25T06:27:43.000Z</time>
      </trkpt>
      <trkpt lat="45.56197" lon="5.96744">
        <ele>293.39999389648</ele>
        <time>2013-08-25T06:27:44.000Z</time>
      </trkpt>
      <trkpt lat="45.56198" lon="5.96749">
        <ele>293.60000610352</ele>
        <time>2013-08-25T06:27:45.000Z</time>
      </trkpt>
      <trkpt lat="45.56204" lon="5.96764">
        <ele>293.60000610352</ele>
        <time>2013-08-25T06:27:48.000Z</time>
      </trkpt>
      <trkpt lat="45.56206" lon="5.9677">
        <ele>293.60000610352</ele>
        <time>2013-08-25T06:27:49.000Z</time>
      </trkpt>
      <trkpt lat="45.56208" lon="5.96774">
        <ele>293.60000610352</ele>
        <time>2013-08-25T06:27:50.000Z</time>
      </trkpt>
      <trkpt lat="45.56211" lon="5.96778">
        <ele>293.60000610352</ele>
        <time>2013-08-25T06:27:51.000Z</time>
      </trkpt>
      <trkpt lat="45.56214" lon="5.96782">
        <ele>293.60000610352</ele>
        <time>2013-08-25T06:27:52.000Z</time>
      </trkpt>
      <trkpt lat="45.56219" lon="5.96804">
        <ele>293.60000610352</ele>
        <time>2013-08-25T06:27:57.000Z</time>
      </trkpt>
      <trkpt lat="45.56217" lon="5.96807">
        <ele>293.79998779297</ele>
        <time>2013-08-25T06:27:58.000Z</time>
      </trkpt>
      <trkpt lat="45.56214" lon="5.9681">
        <ele>293.79998779297</ele>
        <time>2013-08-25T06:27:59.000Z</time>
      </trkpt>
      <trkpt lat="45.56163" lon="5.96854">
        <ele>293.60000610352</ele>
        <time>2013-08-25T06:28:12.000Z</time>
      </trkpt>
      <trkpt lat="45.56142" lon="5.96862">
        <ele>292.79998779297</ele>
        <time>2013-08-25T06:28:17.000Z</time>
      </trkpt>
      <trkpt lat="45.56137" lon="5.9686">
        <ele>292.60000610352</ele>
        <time>2013-08-25T06:28:18.000Z</time>
      </trkpt>
      <trkpt lat="45.56133" lon="5.96857">
        <ele>292.60000610352</ele>
        <time>2013-08-25T06:28:19.000Z</time>
      </trkpt>
      <trkpt lat="45.56128" lon="5.96854">
        <ele>292.39999389648</ele>
        <time>2013-08-25T06:28:20.000Z</time>
      </trkpt>
      <trkpt lat="45.56125" lon="5.96849">
        <ele>292.20001220703</ele>
        <time>2013-08-25T06:28:21.000Z</time>
      </trkpt>
      <trkpt lat="45.56109" lon="5.9683">
        <ele>291.79998779297</ele>
        <time>2013-08-25T06:28:25.000Z</time>
      </trkpt>
      <trkpt lat="45.56105" lon="5.96826">
        <ele>291.79998779297</ele>
        <time>2013-08-25T06:28:26.000Z</time>
      </trkpt>
      <trkpt lat="45.56045" lon="5.96751">
        <ele>291.79998779297</ele>
        <time>2013-08-25T06:28:41.000Z</time>
      </trkpt>
      <trkpt lat="45.56028" lon="5.96725">
        <ele>291.39999389648</ele>
        <time>2013-08-25T06:28:46.000Z</time>
      </trkpt>
      <trkpt lat="45.56025" lon="5.96721">
        <ele>291.39999389648</ele>
        <time>2013-08-25T06:28:47.000Z</time>
      </trkpt>
      <trkpt lat="45.56021" lon="5.96719">
        <ele>291.20001220703</ele>
        <time>2013-08-25T06:28:48.000Z</time>
      </trkpt>
      <trkpt lat="45.56016" lon="5.96719">
        <ele>291.20001220703</ele>
        <time>2013-08-25T06:28:49.000Z</time>
      </trkpt>
      <trkpt lat="45.56011" lon="5.9672">
        <ele>291.20001220703</ele>
        <time>2013-08-25T06:28:50.000Z</time>
      </trkpt>
      <trkpt lat="45.56006" lon="5.96722">
        <ele>291.20001220703</ele>
        <time>2013-08-25T06:28:51.000Z</time>
      </trkpt>
      <trkpt lat="45.56002" lon="5.96725">
        <ele>291.39999389648</ele>
        <time>2013-08-25T06:28:52.000Z</time>
      </trkpt>
      <trkpt lat="45.55946" lon="5.96771">
        <ele>290.60000610352</ele>
        <time>2013-08-25T06:29:04.000Z</time>
      </trkpt>
      <trkpt lat="45.55882" lon="5.96809">
        <ele>290.60000610352</ele>
        <time>2013-08-25T06:29:18.000Z</time>
      </trkpt>
      <trkpt lat="45.55811" lon="5.96857">
        <ele>290.39999389648</ele>
        <time>2013-08-25T06:29:34.000Z</time>
      </trkpt>
      <trkpt lat="45.55808" lon="5.96862">
        <ele>290.60000610352</ele>
        <time>2013-08-25T06:29:35.000Z</time>
      </trkpt>
      <trkpt lat="45.55806" lon="5.96867">
        <ele>290.39999389648</ele>
        <time>2013-08-25T06:29:36.000Z</time>
      </trkpt>
      <trkpt lat="45.55805" lon="5.96873">
        <ele>290.39999389648</ele>
        <time>2013-08-25T06:29:37.000Z</time>
      </trkpt>
      <trkpt lat="45.55805" lon="5.96879">
        <ele>290.39999389648</ele>
        <time>2013-08-25T06:29:38.000Z</time>
      </trkpt>
      <trkpt lat="45.55806" lon="5.96886">
        <ele>290.20001220703</ele>
        <time>2013-08-25T06:29:39.000Z</time>
      </trkpt>
      <trkpt lat="45.55806" lon="5.96893">
        <ele>290.20001220703</ele>
        <time>2013-08-25T06:29:40.000Z</time>
      </trkpt>
      <trkpt lat="45.55809" lon="5.96912">
        <ele>290</ele>
        <time>2013-08-25T06:29:43.000Z</time>
      </trkpt>
      <trkpt lat="45.5581" lon="5.96917">
        <ele>290</ele>
        <time>2013-08-25T06:29:44.000Z</time>
      </trkpt>
      <trkpt lat="45.5581" lon="5.96923">
        <ele>290</ele>
        <time>2013-08-25T06:29:45.000Z</time>
      </trkpt>
      <trkpt lat="45.5581" lon="5.96928">
        <ele>290</ele>
        <time>2013-08-25T06:29:46.000Z</time>
      </trkpt>
      <trkpt lat="45.55809" lon="5.96933">
        <ele>290</ele>
        <time>2013-08-25T06:29:47.000Z</time>
      </trkpt>
      <trkpt lat="45.55807" lon="5.96938">
        <ele>290.20001220703</ele>
        <time>2013-08-25T06:29:48.000Z</time>
      </trkpt>
      <trkpt lat="45.55779" lon="5.97043">
        <ele>291.39999389648</ele>
        <time>2013-08-25T06:30:04.000Z</time>
      </trkpt>
      <trkpt lat="45.55751" lon="5.97144">
        <ele>292</ele>
        <time>2013-08-25T06:30:20.000Z</time>
      </trkpt>
      <trkpt lat="45.55735" lon="5.97196">
        <ele>292.20001220703</ele>
        <time>2013-08-25T06:30:28.000Z</time>
      </trkpt>
      <trkpt lat="45.55713" lon="5.97278">
        <ele>293.20001220703</ele>
        <time>2013-08-25T06:30:42.000Z</time>
      </trkpt>
      <trkpt lat="45.5571" lon="5.97298">
        <ele>293.39999389648</ele>
        <time>2013-08-25T06:30:45.000Z</time>
      </trkpt>
      <trkpt lat="45.55691" lon="5.97366">
        <ele>293.39999389648</ele>
        <time>2013-08-25T06:30:54.000Z</time>
      </trkpt>
      <trkpt lat="45.55689" lon="5.97372">
        <ele>293.39999389648</ele>
        <time>2013-08-25T06:30:55.000Z</time>
      </trkpt>
      <trkpt lat="45.55687" lon="5.97379">
        <ele>293.20001220703</ele>
        <time>2013-08-25T06:30:56.000Z</time>
      </trkpt>
      <trkpt lat="45.55681" lon="5.97398">
        <ele>293</ele>
        <time>2013-08-25T06:30:59.000Z</time>
      </trkpt>
      <trkpt lat="45.55666" lon="5.97464">
        <ele>293.39999389648</ele>
        <time>2013-08-25T06:31:09.000Z</time>
      </trkpt>
      <trkpt lat="45.55665" lon="5.97471">
        <ele>293.60000610352</ele>
        <time>2013-08-25T06:31:10.000Z</time>
      </trkpt>
      <trkpt lat="45.55652" lon="5.97541">
        <ele>293.39999389648</ele>
        <time>2013-08-25T06:31:22.000Z</time>
      </trkpt>
      <trkpt lat="45.55637" lon="5.976">
        <ele>292.79998779297</ele>
        <time>2013-08-25T06:31:33.000Z</time>
      </trkpt>
      <trkpt lat="45.55627" lon="5.97641">
        <ele>292.60000610352</ele>
        <time>2013-08-25T06:31:41.000Z</time>
      </trkpt>
      <trkpt lat="45.55627" lon="5.97645">
        <ele>292.60000610352</ele>
        <time>2013-08-25T06:31:42.000Z</time>
      </trkpt>
      <trkpt lat="45.55626" lon="5.9768">
        <ele>292.20001220703</ele>
        <time>2013-08-25T06:31:52.000Z</time>
      </trkpt>
      <trkpt lat="45.55625" lon="5.97678">
        <ele>292.20001220703</ele>
        <time>2013-08-25T06:31:53.000Z</time>
      </trkpt>
      <trkpt lat="45.55625" lon="5.97676">
        <ele>292.20001220703</ele>
        <time>2013-08-25T06:31:54.000Z</time>
      </trkpt>
      <trkpt lat="45.55626" lon="5.97675">
        <ele>292.20001220703</ele>
        <time>2013-08-25T06:31:55.000Z</time>
      </trkpt>
      <trkpt lat="45.55631" lon="5.97673">
        <ele>292.20001220703</ele>
        <time>2013-08-25T06:32:02.000Z</time>
      </trkpt>
      <trkpt lat="45.55631" lon="5.97675">
        <ele>292.20001220703</ele>
        <time>2013-08-25T06:32:04.000Z</time>
      </trkpt>
      <trkpt lat="45.55631" lon="5.97677">
        <ele>292.20001220703</ele>
        <time>2013-08-25T06:32:05.000Z</time>
      </trkpt>
      <trkpt lat="45.5563" lon="5.97679">
        <ele>292.20001220703</ele>
        <time>2013-08-25T06:32:06.000Z</time>
      </trkpt>
      <trkpt lat="45.55627" lon="5.97682">
        <ele>292.20001220703</ele>
        <time>2013-08-25T06:32:07.000Z</time>
      </trkpt>
      <trkpt lat="45.55624" lon="5.97685">
        <ele>292.20001220703</ele>
        <time>2013-08-25T06:32:08.000Z</time>
      </trkpt>
      <trkpt lat="45.5562" lon="5.97687">
        <ele>292.20001220703</ele>
        <time>2013-08-25T06:32:09.000Z</time>
      </trkpt>
      <trkpt lat="45.55616" lon="5.9769">
        <ele>292.20001220703</ele>
        <time>2013-08-25T06:32:10.000Z</time>
      </trkpt>
      <trkpt lat="45.55584" lon="5.97734">
        <ele>292.79998779297</ele>
        <time>2013-08-25T06:32:20.000Z</time>
      </trkpt>
      <trkpt lat="45.55581" lon="5.97738">
        <ele>293</ele>
        <time>2013-08-25T06:32:21.000Z</time>
      </trkpt>
      <trkpt lat="45.55577" lon="5.9774">
        <ele>293</ele>
        <time>2013-08-25T06:32:22.000Z</time>
      </trkpt>
      <trkpt lat="45.55572" lon="5.97742">
        <ele>293.20001220703</ele>
        <time>2013-08-25T06:32:23.000Z</time>
      </trkpt>
      <trkpt lat="45.55568" lon="5.97742">
        <ele>293.20001220703</ele>
        <time>2013-08-25T06:32:24.000Z</time>
      </trkpt>
      <trkpt lat="45.55564" lon="5.97744">
        <ele>293.39999389648</ele>
        <time>2013-08-25T06:32:25.000Z</time>
      </trkpt>
      <trkpt lat="45.5556" lon="5.97747">
        <ele>293.39999389648</ele>
        <time>2013-08-25T06:32:26.000Z</time>
      </trkpt>
      <trkpt lat="45.55556" lon="5.97751">
        <ele>293.60000610352</ele>
        <time>2013-08-25T06:32:27.000Z</time>
      </trkpt>
      <trkpt lat="45.55554" lon="5.97756">
        <ele>293.60000610352</ele>
        <time>2013-08-25T06:32:28.000Z</time>
      </trkpt>
      <trkpt lat="45.55552" lon="5.97762">
        <ele>293.60000610352</ele>
        <time>2013-08-25T06:32:29.000Z</time>
      </trkpt>
      <trkpt lat="45.55552" lon="5.97768">
        <ele>293.79998779297</ele>
        <time>2013-08-25T06:32:30.000Z</time>
      </trkpt>
      <trkpt lat="45.55552" lon="5.97774">
        <ele>293.79998779297</ele>
        <time>2013-08-25T06:32:31.000Z</time>
      </trkpt>
      <trkpt lat="45.55553" lon="5.9778">
        <ele>293.79998779297</ele>
        <time>2013-08-25T06:32:32.000Z</time>
      </trkpt>
      <trkpt lat="45.55555" lon="5.97786">
        <ele>293.79998779297</ele>
        <time>2013-08-25T06:32:33.000Z</time>
      </trkpt>
      <trkpt lat="45.55558" lon="5.97791">
        <ele>293.79998779297</ele>
        <time>2013-08-25T06:32:34.000Z</time>
      </trkpt>
      <trkpt lat="45.5556" lon="5.97795">
        <ele>293.60000610352</ele>
        <time>2013-08-25T06:32:35.000Z</time>
      </trkpt>
      <trkpt lat="45.55564" lon="5.97798">
        <ele>293.60000610352</ele>
        <time>2013-08-25T06:32:36.000Z</time>
      </trkpt>
      <trkpt lat="45.55568" lon="5.978">
        <ele>293.60000610352</ele>
        <time>2013-08-25T06:32:37.000Z</time>
      </trkpt>
      <trkpt lat="45.55573" lon="5.978">
        <ele>293.60000610352</ele>
        <time>2013-08-25T06:32:38.000Z</time>
      </trkpt>
      <trkpt lat="45.55578" lon="5.97801">
        <ele>293.60000610352</ele>
        <time>2013-08-25T06:32:39.000Z</time>
      </trkpt>
      <trkpt lat="45.55582" lon="5.97801">
        <ele>293.60000610352</ele>
        <time>2013-08-25T06:32:40.000Z</time>
      </trkpt>
      <trkpt lat="45.55587" lon="5.97804">
        <ele>293.39999389648</ele>
        <time>2013-08-25T06:32:41.000Z</time>
      </trkpt>
      <trkpt lat="45.55592" lon="5.97808">
        <ele>293.20001220703</ele>
        <time>2013-08-25T06:32:42.000Z</time>
      </trkpt>
      <trkpt lat="45.55596" lon="5.97812">
        <ele>293</ele>
        <time>2013-08-25T06:32:43.000Z</time>
      </trkpt>
      <trkpt lat="45.55599" lon="5.97817">
        <ele>293</ele>
        <time>2013-08-25T06:32:44.000Z</time>
      </trkpt>
      <trkpt lat="45.55612" lon="5.97835">
        <ele>292.60000610352</ele>
        <time>2013-08-25T06:32:48.000Z</time>
      </trkpt>
      <trkpt lat="45.55613" lon="5.97842">
        <ele>292.39999389648</ele>
        <time>2013-08-25T06:32:49.000Z</time>
      </trkpt>
      <trkpt lat="45.55612" lon="5.97848">
        <ele>292.39999389648</ele>
        <time>2013-08-25T06:32:50.000Z</time>
      </trkpt>
      <trkpt lat="45.55591" lon="5.97908">
        <ele>292.79998779297</ele>
        <time>2013-08-25T06:33:00.000Z</time>
      </trkpt>
      <trkpt lat="45.55577" lon="5.97951">
        <ele>292.20001220703</ele>
        <time>2013-08-25T06:33:07.000Z</time>
      </trkpt>
      <trkpt lat="45.55574" lon="5.97956">
        <ele>292.20001220703</ele>
        <time>2013-08-25T06:33:08.000Z</time>
      </trkpt>
      <trkpt lat="45.55569" lon="5.97966">
        <ele>292.20001220703</ele>
        <time>2013-08-25T06:33:10.000Z</time>
      </trkpt>
      <trkpt lat="45.55563" lon="5.97972">
        <ele>292.20001220703</ele>
        <time>2013-08-25T06:33:12.000Z</time>
      </trkpt>
      <trkpt lat="45.55562" lon="5.97976">
        <ele>292.20001220703</ele>
        <time>2013-08-25T06:33:13.000Z</time>
      </trkpt>
      <trkpt lat="45.55559" lon="5.97987">
        <ele>292.20001220703</ele>
        <time>2013-08-25T06:33:15.000Z</time>
      </trkpt>
      <trkpt lat="45.55557" lon="5.97993">
        <ele>292.20001220703</ele>
        <time>2013-08-25T06:33:16.000Z</time>
      </trkpt>
      <trkpt lat="45.55522" lon="5.98067">
        <ele>292.79998779297</ele>
        <time>2013-08-25T06:33:30.000Z</time>
      </trkpt>
      <trkpt lat="45.55518" lon="5.98077">
        <ele>292.79998779297</ele>
        <time>2013-08-25T06:33:32.000Z</time>
      </trkpt>
      <trkpt lat="45.5551" lon="5.98094">
        <ele>292.60000610352</ele>
        <time>2013-08-25T06:33:35.000Z</time>
      </trkpt>
      <trkpt lat="45.55505" lon="5.98105">
        <ele>292.39999389648</ele>
        <time>2013-08-25T06:33:37.000Z</time>
      </trkpt>
      <trkpt lat="45.55495" lon="5.98127">
        <ele>291.79998779297</ele>
        <time>2013-08-25T06:33:41.000Z</time>
      </trkpt>
      <trkpt lat="45.5548" lon="5.98158">
        <ele>291.20001220703</ele>
        <time>2013-08-25T06:33:47.000Z</time>
      </trkpt>
      <trkpt lat="45.55469" lon="5.98178">
        <ele>291.39999389648</ele>
        <time>2013-08-25T06:33:51.000Z</time>
      </trkpt>
      <trkpt lat="45.55465" lon="5.98182">
        <ele>291.39999389648</ele>
        <time>2013-08-25T06:33:52.000Z</time>
      </trkpt>
      <trkpt lat="45.55453" lon="5.98198">
        <ele>291.79998779297</ele>
        <time>2013-08-25T06:33:56.000Z</time>
      </trkpt>
      <trkpt lat="45.5545" lon="5.98202">
        <ele>292</ele>
        <time>2013-08-25T06:33:57.000Z</time>
      </trkpt>
      <trkpt lat="45.55442" lon="5.98213">
        <ele>292.20001220703</ele>
        <time>2013-08-25T06:34:00.000Z</time>
      </trkpt>
      <trkpt lat="45.55438" lon="5.98219">
        <ele>292.20001220703</ele>
        <time>2013-08-25T06:34:02.000Z</time>
      </trkpt>
      <trkpt lat="45.55436" lon="5.98222">
        <ele>292.39999389648</ele>
        <time>2013-08-25T06:34:03.000Z</time>
      </trkpt>
      <trkpt lat="45.55433" lon="5.98226">
        <ele>292.39999389648</ele>
        <time>2013-08-25T06:34:04.000Z</time>
      </trkpt>
      <trkpt lat="45.55424" lon="5.98237">
        <ele>292.60000610352</ele>
        <time>2013-08-25T06:34:07.000Z</time>
      </trkpt>
      <trkpt lat="45.55421" lon="5.98241">
        <ele>292.79998779297</ele>
        <time>2013-08-25T06:34:08.000Z</time>
      </trkpt>
      <trkpt lat="45.55418" lon="5.98245">
        <ele>292.79998779297</ele>
        <time>2013-08-25T06:34:09.000Z</time>
      </trkpt>
      <trkpt lat="45.55413" lon="5.98254">
        <ele>293</ele>
        <time>2013-08-25T06:34:11.000Z</time>
      </trkpt>
      <trkpt lat="45.55409" lon="5.98258">
        <ele>293</ele>
        <time>2013-08-25T06:34:12.000Z</time>
      </trkpt>
      <trkpt lat="45.554" lon="5.98271">
        <ele>293</ele>
        <time>2013-08-25T06:34:15.000Z</time>
      </trkpt>
      <trkpt lat="45.55391" lon="5.98285">
        <ele>293.20001220703</ele>
        <time>2013-08-25T06:34:18.000Z</time>
      </trkpt>
      <trkpt lat="45.55351" lon="5.98369">
        <ele>295</ele>
        <time>2013-08-25T06:34:33.000Z</time>
      </trkpt>
      <trkpt lat="45.55336" lon="5.98401">
        <ele>295.60000610352</ele>
        <time>2013-08-25T06:34:39.000Z</time>
      </trkpt>
      <trkpt lat="45.55321" lon="5.98432">
        <ele>296</ele>
        <time>2013-08-25T06:34:45.000Z</time>
      </trkpt>
      <trkpt lat="45.55291" lon="5.98493">
        <ele>296.39999389648</ele>
        <time>2013-08-25T06:34:57.000Z</time>
      </trkpt>
      <trkpt lat="45.55288" lon="5.98494">
        <ele>296.60000610352</ele>
        <time>2013-08-25T06:34:58.000Z</time>
      </trkpt>
      <trkpt lat="45.55285" lon="5.98494">
        <ele>296.60000610352</ele>
        <time>2013-08-25T06:34:59.000Z</time>
      </trkpt>
      <trkpt lat="45.55282" lon="5.98492">
        <ele>296.79998779297</ele>
        <time>2013-08-25T06:35:00.000Z</time>
      </trkpt>
      <trkpt lat="45.55279" lon="5.9849">
        <ele>296.79998779297</ele>
        <time>2013-08-25T06:35:01.000Z</time>
      </trkpt>
      <trkpt lat="45.55273" lon="5.98488">
        <ele>297.20001220703</ele>
        <time>2013-08-25T06:35:03.000Z</time>
      </trkpt>
      <trkpt lat="45.55269" lon="5.98491">
        <ele>297.20001220703</ele>
        <time>2013-08-25T06:35:04.000Z</time>
      </trkpt>
      <trkpt lat="45.55265" lon="5.98494">
        <ele>297.39999389648</ele>
        <time>2013-08-25T06:35:05.000Z</time>
      </trkpt>
      <trkpt lat="45.55262" lon="5.98497">
        <ele>297.39999389648</ele>
        <time>2013-08-25T06:35:06.000Z</time>
      </trkpt>
      <trkpt lat="45.55259" lon="5.98502">
        <ele>297.60000610352</ele>
        <time>2013-08-25T06:35:07.000Z</time>
      </trkpt>
      <trkpt lat="45.55257" lon="5.98507">
        <ele>297.60000610352</ele>
        <time>2013-08-25T06:35:08.000Z</time>
      </trkpt>
      <trkpt lat="45.55254" lon="5.98512">
        <ele>297.79998779297</ele>
        <time>2013-08-25T06:35:09.000Z</time>
      </trkpt>
      <trkpt lat="45.55239" lon="5.98538">
        <ele>297.79998779297</ele>
        <time>2013-08-25T06:35:14.000Z</time>
      </trkpt>
      <trkpt lat="45.55233" lon="5.98548">
        <ele>297.79998779297</ele>
        <time>2013-08-25T06:35:16.000Z</time>
      </trkpt>
      <trkpt lat="45.5523" lon="5.98552">
        <ele>297.79998779297</ele>
        <time>2013-08-25T06:35:17.000Z</time>
      </trkpt>
      <trkpt lat="45.55187" lon="5.98585">
        <ele>297.20001220703</ele>
        <time>2013-08-25T06:35:28.000Z</time>
      </trkpt>
      <trkpt lat="45.55181" lon="5.9859">
        <ele>297</ele>
        <time>2013-08-25T06:35:30.000Z</time>
      </trkpt>
      <trkpt lat="45.55178" lon="5.98591">
        <ele>297</ele>
        <time>2013-08-25T06:35:31.000Z</time>
      </trkpt>
      <trkpt lat="45.55176" lon="5.98592">
        <ele>297</ele>
        <time>2013-08-25T06:35:32.000Z</time>
      </trkpt>
      <trkpt lat="45.55176" lon="5.98596">
        <ele>297</ele>
        <time>2013-08-25T06:35:33.000Z</time>
      </trkpt>
      <trkpt lat="45.55177" lon="5.98599">
        <ele>297</ele>
        <time>2013-08-25T06:35:34.000Z</time>
      </trkpt>
      <trkpt lat="45.55178" lon="5.98603">
        <ele>297</ele>
        <time>2013-08-25T06:35:35.000Z</time>
      </trkpt>
      <trkpt lat="45.55179" lon="5.98607">
        <ele>297</ele>
        <time>2013-08-25T06:35:36.000Z</time>
      </trkpt>
      <trkpt lat="45.5518" lon="5.98612">
        <ele>297.20001220703</ele>
        <time>2013-08-25T06:35:37.000Z</time>
      </trkpt>
      <trkpt lat="45.55201" lon="5.98666">
        <ele>297.79998779297</ele>
        <time>2013-08-25T06:35:48.000Z</time>
      </trkpt>
      <trkpt lat="45.55213" lon="5.98739">
        <ele>302</ele>
        <time>2013-08-25T06:36:01.000Z</time>
      </trkpt>
      <trkpt lat="45.55209" lon="5.98779">
        <ele>303.39999389648</ele>
        <time>2013-08-25T06:36:10.000Z</time>
      </trkpt>
      <trkpt lat="45.55211" lon="5.98782">
        <ele>303.39999389648</ele>
        <time>2013-08-25T06:36:11.000Z</time>
      </trkpt>
      <trkpt lat="45.55213" lon="5.98782">
        <ele>303.60000610352</ele>
        <time>2013-08-25T06:36:12.000Z</time>
      </trkpt>
      <trkpt lat="45.55216" lon="5.98783">
        <ele>303.79998779297</ele>
        <time>2013-08-25T06:36:13.000Z</time>
      </trkpt>
      <trkpt lat="45.55219" lon="5.98783">
        <ele>304</ele>
        <time>2013-08-25T06:36:14.000Z</time>
      </trkpt>
      <trkpt lat="45.55222" lon="5.98784">
        <ele>304.20001220703</ele>
        <time>2013-08-25T06:36:15.000Z</time>
      </trkpt>
      <trkpt lat="45.55225" lon="5.98784">
        <ele>304.39999389648</ele>
        <time>2013-08-25T06:36:16.000Z</time>
      </trkpt>
      <trkpt lat="45.55227" lon="5.98784">
        <ele>304.39999389648</ele>
        <time>2013-08-25T06:36:17.000Z</time>
      </trkpt>
      <trkpt lat="45.55255" lon="5.98777">
        <ele>306</ele>
        <time>2013-08-25T06:36:28.000Z</time>
      </trkpt>
      <trkpt lat="45.55283" lon="5.98788">
        <ele>308.39999389648</ele>
        <time>2013-08-25T06:36:41.000Z</time>
      </trkpt>
      <trkpt lat="45.55311" lon="5.98794">
        <ele>310.79998779297</ele>
        <time>2013-08-25T06:36:55.000Z</time>
      </trkpt>
      <trkpt lat="45.55334" lon="5.98796">
        <ele>312.39999389648</ele>
        <time>2013-08-25T06:37:07.000Z</time>
      </trkpt>
      <trkpt lat="45.55359" lon="5.98801">
        <ele>315</ele>
        <time>2013-08-25T06:37:22.000Z</time>
      </trkpt>
      <trkpt lat="45.55384" lon="5.988">
        <ele>317.39999389648</ele>
        <time>2013-08-25T06:37:36.000Z</time>
      </trkpt>
      <trkpt lat="45.55412" lon="5.988">
        <ele>320</ele>
        <time>2013-08-25T06:37:52.000Z</time>
      </trkpt>
      <trkpt lat="45.55443" lon="5.98796">
        <ele>321.60000610352</ele>
        <time>2013-08-25T06:38:06.000Z</time>
      </trkpt>
      <trkpt lat="45.55483" lon="5.98789">
        <ele>323</ele>
        <time>2013-08-25T06:38:25.000Z</time>
      </trkpt>
      <trkpt lat="45.55509" lon="5.98791">
        <ele>325.20001220703</ele>
        <time>2013-08-25T06:38:38.000Z</time>
      </trkpt>
      <trkpt lat="45.55528" lon="5.98802">
        <ele>329</ele>
        <time>2013-08-25T06:38:50.000Z</time>
      </trkpt>
      <trkpt lat="45.55543" lon="5.9881">
        <ele>331.79998779297</ele>
        <time>2013-08-25T06:38:59.000Z</time>
      </trkpt>
      <trkpt lat="45.55545" lon="5.9881">
        <ele>332.20001220703</ele>
        <time>2013-08-25T06:39:00.000Z</time>
      </trkpt>
      <trkpt lat="45.55547" lon="5.98811">
        <ele>332.39999389648</ele>
        <time>2013-08-25T06:39:01.000Z</time>
      </trkpt>
      <trkpt lat="45.55548" lon="5.98812">
        <ele>332.79998779297</ele>
        <time>2013-08-25T06:39:02.000Z</time>
      </trkpt>
      <trkpt lat="45.55551" lon="5.98812">
        <ele>333.20001220703</ele>
        <time>2013-08-25T06:39:03.000Z</time>
      </trkpt>
      <trkpt lat="45.55558" lon="5.98815">
        <ele>334.60000610352</ele>
        <time>2013-08-25T06:39:07.000Z</time>
      </trkpt>
      <trkpt lat="45.5556" lon="5.98817">
        <ele>335</ele>
        <time>2013-08-25T06:39:08.000Z</time>
      </trkpt>
      <trkpt lat="45.55563" lon="5.98821">
        <ele>335.60000610352</ele>
        <time>2013-08-25T06:39:11.000Z</time>
      </trkpt>
      <trkpt lat="45.55564" lon="5.98822">
        <ele>336</ele>
        <time>2013-08-25T06:39:12.000Z</time>
      </trkpt>
      <trkpt lat="45.55566" lon="5.98823">
        <ele>336.39999389648</ele>
        <time>2013-08-25T06:39:13.000Z</time>
      </trkpt>
      <trkpt lat="45.55568" lon="5.98823">
        <ele>336.79998779297</ele>
        <time>2013-08-25T06:39:14.000Z</time>
      </trkpt>
      <trkpt lat="45.5557" lon="5.98824">
        <ele>337</ele>
        <time>2013-08-25T06:39:15.000Z</time>
      </trkpt>
      <trkpt lat="45.55572" lon="5.98825">
        <ele>337.39999389648</ele>
        <time>2013-08-25T06:39:16.000Z</time>
      </trkpt>
      <trkpt lat="45.55584" lon="5.98828">
        <ele>339.39999389648</ele>
        <time>2013-08-25T06:39:22.000Z</time>
      </trkpt>
      <trkpt lat="45.55587" lon="5.9883">
        <ele>339.79998779297</ele>
        <time>2013-08-25T06:39:24.000Z</time>
      </trkpt>
      <trkpt lat="45.55598" lon="5.98831">
        <ele>341.20001220703</ele>
        <time>2013-08-25T06:39:30.000Z</time>
      </trkpt>
      <trkpt lat="45.556" lon="5.98832">
        <ele>341.39999389648</ele>
        <time>2013-08-25T06:39:31.000Z</time>
      </trkpt>
      <trkpt lat="45.55604" lon="5.98831">
        <ele>341.60000610352</ele>
        <time>2013-08-25T06:39:33.000Z</time>
      </trkpt>
      <trkpt lat="45.55605" lon="5.9883">
        <ele>341.60000610352</ele>
        <time>2013-08-25T06:39:34.000Z</time>
      </trkpt>
      <trkpt lat="45.55607" lon="5.9883">
        <ele>341.79998779297</ele>
        <time>2013-08-25T06:39:35.000Z</time>
      </trkpt>
      <trkpt lat="45.55627" lon="5.98833">
        <ele>344</ele>
        <time>2013-08-25T06:39:44.000Z</time>
      </trkpt>
      <trkpt lat="45.55648" lon="5.98837">
        <ele>346.20001220703</ele>
        <time>2013-08-25T06:39:54.000Z</time>
      </trkpt>
      <trkpt lat="45.55667" lon="5.98842">
        <ele>347.79998779297</ele>
        <time>2013-08-25T06:40:03.000Z</time>
      </trkpt>
      <trkpt lat="45.55669" lon="5.98843">
        <ele>348</ele>
        <time>2013-08-25T06:40:04.000Z</time>
      </trkpt>
      <trkpt lat="45.55671" lon="5.98844">
        <ele>348</ele>
        <time>2013-08-25T06:40:05.000Z</time>
      </trkpt>
      <trkpt lat="45.55689" lon="5.98849">
        <ele>349</ele>
        <time>2013-08-25T06:40:16.000Z</time>
      </trkpt>
      <trkpt lat="45.55706" lon="5.98842">
        <ele>350</ele>
        <time>2013-08-25T06:40:25.000Z</time>
      </trkpt>
      <trkpt lat="45.5571" lon="5.98841">
        <ele>350.20001220703</ele>
        <time>2013-08-25T06:40:28.000Z</time>
      </trkpt>
      <trkpt lat="45.55714" lon="5.98838">
        <ele>350.39999389648</ele>
        <time>2013-08-25T06:40:31.000Z</time>
      </trkpt>
      <trkpt lat="45.55715" lon="5.98836">
        <ele>350.39999389648</ele>
        <time>2013-08-25T06:40:32.000Z</time>
      </trkpt>
      <trkpt lat="45.55717" lon="5.98835">
        <ele>350.39999389648</ele>
        <time>2013-08-25T06:40:33.000Z</time>
      </trkpt>
      <trkpt lat="45.55718" lon="5.98834">
        <ele>350.39999389648</ele>
        <time>2013-08-25T06:40:34.000Z</time>
      </trkpt>
      <trkpt lat="45.5572" lon="5.98833">
        <ele>350.39999389648</ele>
        <time>2013-08-25T06:40:35.000Z</time>
      </trkpt>
      <trkpt lat="45.55735" lon="5.98835">
        <ele>351.20001220703</ele>
        <time>2013-08-25T06:40:43.000Z</time>
      </trkpt>
      <trkpt lat="45.55737" lon="5.98835">
        <ele>351.39999389648</ele>
        <time>2013-08-25T06:40:44.000Z</time>
      </trkpt>
      <trkpt lat="45.55739" lon="5.98836">
        <ele>351.60000610352</ele>
        <time>2013-08-25T06:40:45.000Z</time>
      </trkpt>
      <trkpt lat="45.55741" lon="5.98836">
        <ele>351.60000610352</ele>
        <time>2013-08-25T06:40:46.000Z</time>
      </trkpt>
      <trkpt lat="45.55743" lon="5.98837">
        <ele>351.79998779297</ele>
        <time>2013-08-25T06:40:47.000Z</time>
      </trkpt>
      <trkpt lat="45.55745" lon="5.98838">
        <ele>351.79998779297</ele>
        <time>2013-08-25T06:40:48.000Z</time>
      </trkpt>
      <trkpt lat="45.55746" lon="5.98839">
        <ele>352</ele>
        <time>2013-08-25T06:40:49.000Z</time>
      </trkpt>
      <trkpt lat="45.55747" lon="5.9884">
        <ele>352.20001220703</ele>
        <time>2013-08-25T06:40:50.000Z</time>
      </trkpt>
      <trkpt lat="45.55748" lon="5.98841">
        <ele>352.20001220703</ele>
        <time>2013-08-25T06:40:51.000Z</time>
      </trkpt>
      <trkpt lat="45.5575" lon="5.98842">
        <ele>352.39999389648</ele>
        <time>2013-08-25T06:40:52.000Z</time>
      </trkpt>
      <trkpt lat="45.55752" lon="5.98844">
        <ele>352.79998779297</ele>
        <time>2013-08-25T06:40:54.000Z</time>
      </trkpt>
      <trkpt lat="45.55754" lon="5.98845">
        <ele>353</ele>
        <time>2013-08-25T06:40:55.000Z</time>
      </trkpt>
      <trkpt lat="45.55755" lon="5.98846">
        <ele>353.20001220703</ele>
        <time>2013-08-25T06:40:56.000Z</time>
      </trkpt>
      <trkpt lat="45.55757" lon="5.98847">
        <ele>353.39999389648</ele>
        <time>2013-08-25T06:40:57.000Z</time>
      </trkpt>
      <trkpt lat="45.55757" lon="5.98849">
        <ele>353.39999389648</ele>
        <time>2013-08-25T06:40:58.000Z</time>
      </trkpt>
      <trkpt lat="45.55757" lon="5.98851">
        <ele>353.60000610352</ele>
        <time>2013-08-25T06:40:59.000Z</time>
      </trkpt>
      <trkpt lat="45.5576" lon="5.98851">
        <ele>354</ele>
        <time>2013-08-25T06:41:00.000Z</time>
      </trkpt>
      <trkpt lat="45.55762" lon="5.98852">
        <ele>354.20001220703</ele>
        <time>2013-08-25T06:41:01.000Z</time>
      </trkpt>
      <trkpt lat="45.55777" lon="5.98862">
        <ele>356.60000610352</ele>
        <time>2013-08-25T06:41:12.000Z</time>
      </trkpt>
      <trkpt lat="45.55777" lon="5.98863">
        <ele>356.60000610352</ele>
        <time>2013-08-25T06:41:13.000Z</time>
      </trkpt>
      <trkpt lat="45.55777" lon="5.98865">
        <ele>356.79998779297</ele>
        <time>2013-08-25T06:41:14.000Z</time>
      </trkpt>
      <trkpt lat="45.55777" lon="5.98868">
        <ele>357</ele>
        <time>2013-08-25T06:41:15.000Z</time>
      </trkpt>
      <trkpt lat="45.55776" lon="5.9887">
        <ele>357.20001220703</ele>
        <time>2013-08-25T06:41:16.000Z</time>
      </trkpt>
      <trkpt lat="45.55776" lon="5.98872">
        <ele>357.20001220703</ele>
        <time>2013-08-25T06:41:17.000Z</time>
      </trkpt>
      <trkpt lat="45.55776" lon="5.98874">
        <ele>357.39999389648</ele>
        <time>2013-08-25T06:41:18.000Z</time>
      </trkpt>
      <trkpt lat="45.55775" lon="5.98876">
        <ele>357.60000610352</ele>
        <time>2013-08-25T06:41:19.000Z</time>
      </trkpt>
      <trkpt lat="45.55775" lon="5.98879">
        <ele>357.60000610352</ele>
        <time>2013-08-25T06:41:20.000Z</time>
      </trkpt>
      <trkpt lat="45.55774" lon="5.98881">
        <ele>357.79998779297</ele>
        <time>2013-08-25T06:41:21.000Z</time>
      </trkpt>
      <trkpt lat="45.55774" lon="5.98884">
        <ele>358</ele>
        <time>2013-08-25T06:41:22.000Z</time>
      </trkpt>
      <trkpt lat="45.55773" lon="5.98887">
        <ele>358.20001220703</ele>
        <time>2013-08-25T06:41:23.000Z</time>
      </trkpt>
      <trkpt lat="45.55773" lon="5.9889">
        <ele>358.39999389648</ele>
        <time>2013-08-25T06:41:24.000Z</time>
      </trkpt>
      <trkpt lat="45.5577" lon="5.98925">
        <ele>361</ele>
        <time>2013-08-25T06:41:36.000Z</time>
      </trkpt>
      <trkpt lat="45.5576" lon="5.98951">
        <ele>363</ele>
        <time>2013-08-25T06:41:48.000Z</time>
      </trkpt>
      <trkpt lat="45.5576" lon="5.98951">
        <ele>363</ele>
        <time>2013-08-25T06:41:54.000Z</time>
      </trkpt>
      <trkpt lat="45.55759" lon="5.98951">
        <ele>363</ele>
        <time>2013-08-25T06:42:29.000Z</time>
      </trkpt>
      <trkpt lat="45.55759" lon="5.9895">
        <ele>362.79998779297</ele>
        <time>2013-08-25T06:42:52.000Z</time>
      </trkpt>
      <trkpt lat="45.5576" lon="5.98951">
        <ele>363</ele>
        <time>2013-08-25T06:43:26.000Z</time>
      </trkpt>
      <trkpt lat="45.5576" lon="5.98951">
        <ele>363</ele>
        <time>2013-08-25T06:43:28.000Z</time>
      </trkpt>
      <trkpt lat="45.5576" lon="5.9895">
        <ele>363</ele>
        <time>2013-08-25T06:43:40.000Z</time>
      </trkpt>
      <trkpt lat="45.5576" lon="5.9895">
        <ele>363</ele>
        <time>2013-08-25T06:43:43.000Z</time>
      </trkpt>
      <trkpt lat="45.5576" lon="5.9895">
        <ele>363</ele>
        <time>2013-08-25T06:43:55.000Z</time>
      </trkpt>
      <trkpt lat="45.55759" lon="5.98951">
        <ele>363</ele>
        <time>2013-08-25T06:43:56.000Z</time>
      </trkpt>
      <trkpt lat="45.5574" lon="5.98977">
        <ele>363.20001220703</ele>
        <time>2013-08-25T06:44:11.000Z</time>
      </trkpt>
      <trkpt lat="45.55723" lon="5.98994">
        <ele>362.60000610352</ele>
        <time>2013-08-25T06:44:24.000Z</time>
      </trkpt>
      <trkpt lat="45.55717" lon="5.99028">
        <ele>366.79998779297</ele>
        <time>2013-08-25T06:44:39.000Z</time>
      </trkpt>
      <trkpt lat="45.55711" lon="5.99067">
        <ele>372.39999389648</ele>
        <time>2013-08-25T06:44:53.000Z</time>
      </trkpt>
      <trkpt lat="45.55688" lon="5.99097">
        <ele>377.20001220703</ele>
        <time>2013-08-25T06:45:07.000Z</time>
      </trkpt>
      <trkpt lat="45.55682" lon="5.99108">
        <ele>380.20001220703</ele>
        <time>2013-08-25T06:45:13.000Z</time>
      </trkpt>
      <trkpt lat="45.55681" lon="5.99111">
        <ele>380.79998779297</ele>
        <time>2013-08-25T06:45:14.000Z</time>
      </trkpt>
      <trkpt lat="45.55679" lon="5.99114">
        <ele>381.79998779297</ele>
        <time>2013-08-25T06:45:17.000Z</time>
      </trkpt>
      <trkpt lat="45.55678" lon="5.99115">
        <ele>382.20001220703</ele>
        <time>2013-08-25T06:45:18.000Z</time>
      </trkpt>
      <trkpt lat="45.55678" lon="5.99117">
        <ele>382.60000610352</ele>
        <time>2013-08-25T06:45:19.000Z</time>
      </trkpt>
      <trkpt lat="45.55677" lon="5.99119">
        <ele>383.20001220703</ele>
        <time>2013-08-25T06:45:20.000Z</time>
      </trkpt>
      <trkpt lat="45.55676" lon="5.9912">
        <ele>383.60000610352</ele>
        <time>2013-08-25T06:45:21.000Z</time>
      </trkpt>
      <trkpt lat="45.55674" lon="5.99122">
        <ele>384</ele>
        <time>2013-08-25T06:45:22.000Z</time>
      </trkpt>
      <trkpt lat="45.5567" lon="5.99124">
        <ele>384.60000610352</ele>
        <time>2013-08-25T06:45:25.000Z</time>
      </trkpt>
      <trkpt lat="45.55668" lon="5.99124">
        <ele>384.60000610352</ele>
        <time>2013-08-25T06:45:26.000Z</time>
      </trkpt>
      <trkpt lat="45.55659" lon="5.99123">
        <ele>384.39999389648</ele>
        <time>2013-08-25T06:45:31.000Z</time>
      </trkpt>
      <trkpt lat="45.55656" lon="5.99124">
        <ele>385</ele>
        <time>2013-08-25T06:45:33.000Z</time>
      </trkpt>
      <trkpt lat="45.55655" lon="5.99125">
        <ele>385.39999389648</ele>
        <time>2013-08-25T06:45:34.000Z</time>
      </trkpt>
      <trkpt lat="45.55653" lon="5.99125">
        <ele>385.39999389648</ele>
        <time>2013-08-25T06:45:35.000Z</time>
      </trkpt>
      <trkpt lat="45.55652" lon="5.99124">
        <ele>385.20001220703</ele>
        <time>2013-08-25T06:45:36.000Z</time>
      </trkpt>
      <trkpt lat="45.5565" lon="5.99124">
        <ele>385</ele>
        <time>2013-08-25T06:45:37.000Z</time>
      </trkpt>
      <trkpt lat="45.55649" lon="5.99123">
        <ele>384.79998779297</ele>
        <time>2013-08-25T06:45:38.000Z</time>
      </trkpt>
      <trkpt lat="45.55644" lon="5.99127">
        <ele>386.20001220703</ele>
        <time>2013-08-25T06:45:46.000Z</time>
      </trkpt>
      <trkpt lat="45.55646" lon="5.99128">
        <ele>386.60000610352</ele>
        <time>2013-08-25T06:45:48.000Z</time>
      </trkpt>
      <trkpt lat="45.55647" lon="5.99129">
        <ele>386.60000610352</ele>
        <time>2013-08-25T06:45:49.000Z</time>
      </trkpt>
      <trkpt lat="45.55648" lon="5.99129">
        <ele>386.60000610352</ele>
        <time>2013-08-25T06:45:50.000Z</time>
      </trkpt>
      <trkpt lat="45.55649" lon="5.99128">
        <ele>386.39999389648</ele>
        <time>2013-08-25T06:45:51.000Z</time>
      </trkpt>
      <trkpt lat="45.5565" lon="5.99128">
        <ele>386.20001220703</ele>
        <time>2013-08-25T06:45:52.000Z</time>
      </trkpt>
      <trkpt lat="45.55661" lon="5.99134">
        <ele>388</ele>
        <time>2013-08-25T06:46:01.000Z</time>
      </trkpt>
      <trkpt lat="45.55662" lon="5.99135">
        <ele>388.39999389648</ele>
        <time>2013-08-25T06:46:02.000Z</time>
      </trkpt>
      <trkpt lat="45.55663" lon="5.99137">
        <ele>388.79998779297</ele>
        <time>2013-08-25T06:46:03.000Z</time>
      </trkpt>
      <trkpt lat="45.55665" lon="5.99138">
        <ele>389.20001220703</ele>
        <time>2013-08-25T06:46:04.000Z</time>
      </trkpt>
      <trkpt lat="45.55666" lon="5.9914">
        <ele>389.79998779297</ele>
        <time>2013-08-25T06:46:05.000Z</time>
      </trkpt>
      <trkpt lat="45.55666" lon="5.99142">
        <ele>390.20001220703</ele>
        <time>2013-08-25T06:46:06.000Z</time>
      </trkpt>
      <trkpt lat="45.55668" lon="5.99144">
        <ele>390.79998779297</ele>
        <time>2013-08-25T06:46:07.000Z</time>
      </trkpt>
      <trkpt lat="45.5568" lon="5.99158">
        <ele>394.60000610352</ele>
        <time>2013-08-25T06:46:19.000Z</time>
      </trkpt>
      <trkpt lat="45.55681" lon="5.99162">
        <ele>395.79998779297</ele>
        <time>2013-08-25T06:46:22.000Z</time>
      </trkpt>
      <trkpt lat="45.55676" lon="5.99167">
        <ele>397.60000610352</ele>
        <time>2013-08-25T06:46:28.000Z</time>
      </trkpt>
      <trkpt lat="45.55666" lon="5.9917">
        <ele>398.79998779297</ele>
        <time>2013-08-25T06:46:37.000Z</time>
      </trkpt>
      <trkpt lat="45.55652" lon="5.99163">
        <ele>397.79998779297</ele>
        <time>2013-08-25T06:46:49.000Z</time>
      </trkpt>
      <trkpt lat="45.55645" lon="5.9916">
        <ele>397.39999389648</ele>
        <time>2013-08-25T06:46:55.000Z</time>
      </trkpt>
      <trkpt lat="45.55627" lon="5.9916">
        <ele>398.60000610352</ele>
        <time>2013-08-25T06:47:07.000Z</time>
      </trkpt>
      <trkpt lat="45.55617" lon="5.99163">
        <ele>400</ele>
        <time>2013-08-25T06:47:14.000Z</time>
      </trkpt>
      <trkpt lat="45.55607" lon="5.99164">
        <ele>401.20001220703</ele>
        <time>2013-08-25T06:47:21.000Z</time>
      </trkpt>
      <trkpt lat="45.55606" lon="5.99164">
        <ele>401.39999389648</ele>
        <time>2013-08-25T06:47:22.000Z</time>
      </trkpt>
      <trkpt lat="45.55604" lon="5.99165">
        <ele>401.60000610352</ele>
        <time>2013-08-25T06:47:23.000Z</time>
      </trkpt>
      <trkpt lat="45.55603" lon="5.99165">
        <ele>401.79998779297</ele>
        <time>2013-08-25T06:47:24.000Z</time>
      </trkpt>
      <trkpt lat="45.55601" lon="5.99165">
        <ele>402</ele>
        <time>2013-08-25T06:47:25.000Z</time>
      </trkpt>
      <trkpt lat="45.556" lon="5.99166">
        <ele>402.20001220703</ele>
        <time>2013-08-25T06:47:26.000Z</time>
      </trkpt>
      <trkpt lat="45.55598" lon="5.99165">
        <ele>402.20001220703</ele>
        <time>2013-08-25T06:47:27.000Z</time>
      </trkpt>
      <trkpt lat="45.55597" lon="5.99165">
        <ele>402.20001220703</ele>
        <time>2013-08-25T06:47:28.000Z</time>
      </trkpt>
      <trkpt lat="45.55595" lon="5.99165">
        <ele>402.60000610352</ele>
        <time>2013-08-25T06:47:29.000Z</time>
      </trkpt>
      <trkpt lat="45.55594" lon="5.99166">
        <ele>402.79998779297</ele>
        <time>2013-08-25T06:47:30.000Z</time>
      </trkpt>
      <trkpt lat="45.5559" lon="5.99165">
        <ele>402.79998779297</ele>
        <time>2013-08-25T06:47:33.000Z</time>
      </trkpt>
      <trkpt lat="45.55588" lon="5.99166">
        <ele>403</ele>
        <time>2013-08-25T06:47:34.000Z</time>
      </trkpt>
      <trkpt lat="45.55586" lon="5.99166">
        <ele>403.39999389648</ele>
        <time>2013-08-25T06:47:35.000Z</time>
      </trkpt>
      <trkpt lat="45.55584" lon="5.99167">
        <ele>404</ele>
        <time>2013-08-25T06:47:36.000Z</time>
      </trkpt>
      <trkpt lat="45.55581" lon="5.99167">
        <ele>404</ele>
        <time>2013-08-25T06:47:37.000Z</time>
      </trkpt>
      <trkpt lat="45.55574" lon="5.99168">
        <ele>404</ele>
        <time>2013-08-25T06:47:42.000Z</time>
      </trkpt>
      <trkpt lat="45.55558" lon="5.9917">
        <ele>404</ele>
        <time>2013-08-25T06:47:54.000Z</time>
      </trkpt>
      <trkpt lat="45.55557" lon="5.9917">
        <ele>404.20001220703</ele>
        <time>2013-08-25T06:47:55.000Z</time>
      </trkpt>
      <trkpt lat="45.55548" lon="5.99176">
        <ele>405.20001220703</ele>
        <time>2013-08-25T06:48:01.000Z</time>
      </trkpt>
      <trkpt lat="45.55547" lon="5.99177">
        <ele>405.60000610352</ele>
        <time>2013-08-25T06:48:02.000Z</time>
      </trkpt>
      <trkpt lat="45.55547" lon="5.99179">
        <ele>406</ele>
        <time>2013-08-25T06:48:03.000Z</time>
      </trkpt>
      <trkpt lat="45.55546" lon="5.99181">
        <ele>406.39999389648</ele>
        <time>2013-08-25T06:48:04.000Z</time>
      </trkpt>
      <trkpt lat="45.55544" lon="5.99183">
        <ele>407</ele>
        <time>2013-08-25T06:48:05.000Z</time>
      </trkpt>
      <trkpt lat="45.55544" lon="5.99185">
        <ele>407.20001220703</ele>
        <time>2013-08-25T06:48:06.000Z</time>
      </trkpt>
      <trkpt lat="45.55542" lon="5.99186">
        <ele>407.60000610352</ele>
        <time>2013-08-25T06:48:07.000Z</time>
      </trkpt>
      <trkpt lat="45.55535" lon="5.99193">
        <ele>409.20001220703</ele>
        <time>2013-08-25T06:48:15.000Z</time>
      </trkpt>
      <trkpt lat="45.55534" lon="5.99195">
        <ele>409.60000610352</ele>
        <time>2013-08-25T06:48:16.000Z</time>
      </trkpt>
      <trkpt lat="45.55533" lon="5.99196">
        <ele>410</ele>
        <time>2013-08-25T06:48:17.000Z</time>
      </trkpt>
      <trkpt lat="45.55531" lon="5.99198">
        <ele>410.39999389648</ele>
        <time>2013-08-25T06:48:18.000Z</time>
      </trkpt>
      <trkpt lat="45.5553" lon="5.992">
        <ele>410.79998779297</ele>
        <time>2013-08-25T06:48:19.000Z</time>
      </trkpt>
      <trkpt lat="45.55518" lon="5.9921">
        <ele>413.39999389648</ele>
        <time>2013-08-25T06:48:30.000Z</time>
      </trkpt>
      <trkpt lat="45.55503" lon="5.99227">
        <ele>417.79998779297</ele>
        <time>2013-08-25T06:48:45.000Z</time>
      </trkpt>
      <trkpt lat="45.55502" lon="5.99228">
        <ele>418</ele>
        <time>2013-08-25T06:48:46.000Z</time>
      </trkpt>
      <trkpt lat="45.55489" lon="5.9924">
        <ele>420.60000610352</ele>
        <time>2013-08-25T06:48:57.000Z</time>
      </trkpt>
      <trkpt lat="45.55491" lon="5.9925">
        <ele>423.39999389648</ele>
        <time>2013-08-25T06:49:03.000Z</time>
      </trkpt>
      <trkpt lat="45.55492" lon="5.99251">
        <ele>423.60000610352</ele>
        <time>2013-08-25T06:49:04.000Z</time>
      </trkpt>
      <trkpt lat="45.55493" lon="5.99251">
        <ele>423.79998779297</ele>
        <time>2013-08-25T06:49:05.000Z</time>
      </trkpt>
      <trkpt lat="45.55494" lon="5.99252">
        <ele>424</ele>
        <time>2013-08-25T06:49:06.000Z</time>
      </trkpt>
      <trkpt lat="45.55495" lon="5.99252">
        <ele>424.20001220703</ele>
        <time>2013-08-25T06:49:07.000Z</time>
      </trkpt>
      <trkpt lat="45.55497" lon="5.99253">
        <ele>424.60000610352</ele>
        <time>2013-08-25T06:49:08.000Z</time>
      </trkpt>
      <trkpt lat="45.55501" lon="5.99254">
        <ele>425.20001220703</ele>
        <time>2013-08-25T06:49:12.000Z</time>
      </trkpt>
      <trkpt lat="45.55502" lon="5.99255">
        <ele>425.20001220703</ele>
        <time>2013-08-25T06:49:14.000Z</time>
      </trkpt>
      <trkpt lat="45.55503" lon="5.99256">
        <ele>425.39999389648</ele>
        <time>2013-08-25T06:49:15.000Z</time>
      </trkpt>
      <trkpt lat="45.55504" lon="5.99257">
        <ele>425.79998779297</ele>
        <time>2013-08-25T06:49:16.000Z</time>
      </trkpt>
      <trkpt lat="45.55508" lon="5.99259">
        <ele>426.39999389648</ele>
        <time>2013-08-25T06:49:20.000Z</time>
      </trkpt>
      <trkpt lat="45.55509" lon="5.99259">
        <ele>426.39999389648</ele>
        <time>2013-08-25T06:49:21.000Z</time>
      </trkpt>
      <trkpt lat="45.55513" lon="5.99261">
        <ele>426.79998779297</ele>
        <time>2013-08-25T06:49:25.000Z</time>
      </trkpt>
      <trkpt lat="45.55528" lon="5.99265">
        <ele>427.79998779297</ele>
        <time>2013-08-25T06:49:36.000Z</time>
      </trkpt>
      <trkpt lat="45.55543" lon="5.9927">
        <ele>429.60000610352</ele>
        <time>2013-08-25T06:49:48.000Z</time>
      </trkpt>
      <trkpt lat="45.55544" lon="5.9927">
        <ele>429.79998779297</ele>
        <time>2013-08-25T06:49:49.000Z</time>
      </trkpt>
      <trkpt lat="45.55545" lon="5.99271">
        <ele>430</ele>
        <time>2013-08-25T06:49:50.000Z</time>
      </trkpt>
      <trkpt lat="45.55546" lon="5.99272">
        <ele>430.20001220703</ele>
        <time>2013-08-25T06:49:51.000Z</time>
      </trkpt>
      <trkpt lat="45.55548" lon="5.99272">
        <ele>430.39999389648</ele>
        <time>2013-08-25T06:49:52.000Z</time>
      </trkpt>
      <trkpt lat="45.55549" lon="5.99273">
        <ele>430.60000610352</ele>
        <time>2013-08-25T06:49:54.000Z</time>
      </trkpt>
      <trkpt lat="45.55559" lon="5.99278">
        <ele>432.60000610352</ele>
        <time>2013-08-25T06:50:02.000Z</time>
      </trkpt>
      <trkpt lat="45.5556" lon="5.99279">
        <ele>432.79998779297</ele>
        <time>2013-08-25T06:50:03.000Z</time>
      </trkpt>
      <trkpt lat="45.5556" lon="5.9928">
        <ele>433.20001220703</ele>
        <time>2013-08-25T06:50:04.000Z</time>
      </trkpt>
      <trkpt lat="45.55562" lon="5.99282">
        <ele>433.79998779297</ele>
        <time>2013-08-25T06:50:05.000Z</time>
      </trkpt>
      <trkpt lat="45.55563" lon="5.99283">
        <ele>434.20001220703</ele>
        <time>2013-08-25T06:50:06.000Z</time>
      </trkpt>
      <trkpt lat="45.55576" lon="5.99296">
        <ele>439.20001220703</ele>
        <time>2013-08-25T06:50:17.000Z</time>
      </trkpt>
      <trkpt lat="45.55588" lon="5.99302">
        <ele>442</ele>
        <time>2013-08-25T06:50:25.000Z</time>
      </trkpt>
      <trkpt lat="45.55589" lon="5.99303">
        <ele>442.39999389648</ele>
        <time>2013-08-25T06:50:26.000Z</time>
      </trkpt>
      <trkpt lat="45.5559" lon="5.99303">
        <ele>442.60000610352</ele>
        <time>2013-08-25T06:50:27.000Z</time>
      </trkpt>
      <trkpt lat="45.55592" lon="5.99303">
        <ele>442.60000610352</ele>
        <time>2013-08-25T06:50:28.000Z</time>
      </trkpt>
      <trkpt lat="45.55593" lon="5.99303">
        <ele>442.60000610352</ele>
        <time>2013-08-25T06:50:29.000Z</time>
      </trkpt>
      <trkpt lat="45.55594" lon="5.99303">
        <ele>442.60000610352</ele>
        <time>2013-08-25T06:50:30.000Z</time>
      </trkpt>
      <trkpt lat="45.55596" lon="5.99303">
        <ele>442.60000610352</ele>
        <time>2013-08-25T06:50:31.000Z</time>
      </trkpt>
      <trkpt lat="45.55604" lon="5.99303">
        <ele>443</ele>
        <time>2013-08-25T06:50:38.000Z</time>
      </trkpt>
      <trkpt lat="45.55622" lon="5.99309">
        <ele>445.79998779297</ele>
        <time>2013-08-25T06:50:52.000Z</time>
      </trkpt>
      <trkpt lat="45.55636" lon="5.99313">
        <ele>448</ele>
        <time>2013-08-25T06:51:01.000Z</time>
      </trkpt>
      <trkpt lat="45.55637" lon="5.99314">
        <ele>448.20001220703</ele>
        <time>2013-08-25T06:51:02.000Z</time>
      </trkpt>
      <trkpt lat="45.55638" lon="5.99315">
        <ele>448.39999389648</ele>
        <time>2013-08-25T06:51:03.000Z</time>
      </trkpt>
      <trkpt lat="45.55639" lon="5.99315">
        <ele>448.60000610352</ele>
        <time>2013-08-25T06:51:04.000Z</time>
      </trkpt>
      <trkpt lat="45.55641" lon="5.99315">
        <ele>448.60000610352</ele>
        <time>2013-08-25T06:51:05.000Z</time>
      </trkpt>
      <trkpt lat="45.55642" lon="5.99315">
        <ele>448.60000610352</ele>
        <time>2013-08-25T06:51:06.000Z</time>
      </trkpt>
      <trkpt lat="45.55643" lon="5.99315">
        <ele>449</ele>
        <time>2013-08-25T06:51:07.000Z</time>
      </trkpt>
      <trkpt lat="45.55645" lon="5.99316">
        <ele>449.20001220703</ele>
        <time>2013-08-25T06:51:08.000Z</time>
      </trkpt>
      <trkpt lat="45.55646" lon="5.99316">
        <ele>449.39999389648</ele>
        <time>2013-08-25T06:51:09.000Z</time>
      </trkpt>
      <trkpt lat="45.55648" lon="5.99316">
        <ele>449.60000610352</ele>
        <time>2013-08-25T06:51:10.000Z</time>
      </trkpt>
      <trkpt lat="45.5565" lon="5.99317">
        <ele>450</ele>
        <time>2013-08-25T06:51:11.000Z</time>
      </trkpt>
      <trkpt lat="45.55651" lon="5.99318">
        <ele>450.20001220703</ele>
        <time>2013-08-25T06:51:12.000Z</time>
      </trkpt>
      <trkpt lat="45.55653" lon="5.99318">
        <ele>450.39999389648</ele>
        <time>2013-08-25T06:51:13.000Z</time>
      </trkpt>
      <trkpt lat="45.55655" lon="5.99318">
        <ele>450.60000610352</ele>
        <time>2013-08-25T06:51:14.000Z</time>
      </trkpt>
      <trkpt lat="45.55656" lon="5.99318">
        <ele>450.60000610352</ele>
        <time>2013-08-25T06:51:15.000Z</time>
      </trkpt>
      <trkpt lat="45.55657" lon="5.99319">
        <ele>450.79998779297</ele>
        <time>2013-08-25T06:51:16.000Z</time>
      </trkpt>
      <trkpt lat="45.55659" lon="5.9932">
        <ele>451.20001220703</ele>
        <time>2013-08-25T06:51:17.000Z</time>
      </trkpt>
      <trkpt lat="45.5566" lon="5.9932">
        <ele>451.60000610352</ele>
        <time>2013-08-25T06:51:18.000Z</time>
      </trkpt>
      <trkpt lat="45.55661" lon="5.99321">
        <ele>451.79998779297</ele>
        <time>2013-08-25T06:51:19.000Z</time>
      </trkpt>
      <trkpt lat="45.55664" lon="5.9932">
        <ele>451.60000610352</ele>
        <time>2013-08-25T06:51:21.000Z</time>
      </trkpt>
      <trkpt lat="45.55669" lon="5.9932">
        <ele>451.39999389648</ele>
        <time>2013-08-25T06:51:24.000Z</time>
      </trkpt>
      <trkpt lat="45.5567" lon="5.99321">
        <ele>451.79998779297</ele>
        <time>2013-08-25T06:51:25.000Z</time>
      </trkpt>
      <trkpt lat="45.55684" lon="5.99327">
        <ele>454</ele>
        <time>2013-08-25T06:51:36.000Z</time>
      </trkpt>
      <trkpt lat="45.55687" lon="5.99327">
        <ele>453.79998779297</ele>
        <time>2013-08-25T06:51:38.000Z</time>
      </trkpt>
      <trkpt lat="45.55688" lon="5.99327">
        <ele>453.79998779297</ele>
        <time>2013-08-25T06:51:39.000Z</time>
      </trkpt>
      <trkpt lat="45.5569" lon="5.99328">
        <ele>454</ele>
        <time>2013-08-25T06:51:40.000Z</time>
      </trkpt>
      <trkpt lat="45.55692" lon="5.99328">
        <ele>454</ele>
        <time>2013-08-25T06:51:41.000Z</time>
      </trkpt>
      <trkpt lat="45.55693" lon="5.9933">
        <ele>454.39999389648</ele>
        <time>2013-08-25T06:51:42.000Z</time>
      </trkpt>
      <trkpt lat="45.55694" lon="5.9933">
        <ele>454.60000610352</ele>
        <time>2013-08-25T06:51:43.000Z</time>
      </trkpt>
      <trkpt lat="45.55696" lon="5.9933">
        <ele>454.60000610352</ele>
        <time>2013-08-25T06:51:44.000Z</time>
      </trkpt>
      <trkpt lat="45.55711" lon="5.99327">
        <ele>452.79998779297</ele>
        <time>2013-08-25T06:51:54.000Z</time>
      </trkpt>
      <trkpt lat="45.55713" lon="5.99327">
        <ele>453</ele>
        <time>2013-08-25T06:51:55.000Z</time>
      </trkpt>
      <trkpt lat="45.55716" lon="5.99328">
        <ele>453.20001220703</ele>
        <time>2013-08-25T06:51:56.000Z</time>
      </trkpt>
      <trkpt lat="45.55718" lon="5.99329">
        <ele>453.60000610352</ele>
        <time>2013-08-25T06:51:57.000Z</time>
      </trkpt>
      <trkpt lat="45.5572" lon="5.9933">
        <ele>453.60000610352</ele>
        <time>2013-08-25T06:51:58.000Z</time>
      </trkpt>
      <trkpt lat="45.55723" lon="5.99331">
        <ele>454</ele>
        <time>2013-08-25T06:51:59.000Z</time>
      </trkpt>
      <trkpt lat="45.55725" lon="5.99331">
        <ele>454</ele>
        <time>2013-08-25T06:52:00.000Z</time>
      </trkpt>
      <trkpt lat="45.55753" lon="5.99338">
        <ele>456.79998779297</ele>
        <time>2013-08-25T06:52:11.000Z</time>
      </trkpt>
      <trkpt lat="45.55773" lon="5.99342">
        <ele>460</ele>
        <time>2013-08-25T06:52:20.000Z</time>
      </trkpt>
      <trkpt lat="45.55796" lon="5.99346">
        <ele>462.79998779297</ele>
        <time>2013-08-25T06:52:31.000Z</time>
      </trkpt>
      <trkpt lat="45.55803" lon="5.99349">
        <ele>464.79998779297</ele>
        <time>2013-08-25T06:52:34.000Z</time>
      </trkpt>
      <trkpt lat="45.55805" lon="5.99349">
        <ele>464.79998779297</ele>
        <time>2013-08-25T06:52:35.000Z</time>
      </trkpt>
      <trkpt lat="45.55807" lon="5.99349">
        <ele>464.60000610352</ele>
        <time>2013-08-25T06:52:36.000Z</time>
      </trkpt>
      <trkpt lat="45.5581" lon="5.99349">
        <ele>464.39999389648</ele>
        <time>2013-08-25T06:52:37.000Z</time>
      </trkpt>
      <trkpt lat="45.55812" lon="5.99349">
        <ele>464.79998779297</ele>
        <time>2013-08-25T06:52:38.000Z</time>
      </trkpt>
      <trkpt lat="45.55814" lon="5.9935">
        <ele>465.20001220703</ele>
        <time>2013-08-25T06:52:39.000Z</time>
      </trkpt>
      <trkpt lat="45.55817" lon="5.99351">
        <ele>465.60000610352</ele>
        <time>2013-08-25T06:52:40.000Z</time>
      </trkpt>
      <trkpt lat="45.55818" lon="5.99351">
        <ele>466</ele>
        <time>2013-08-25T06:52:41.000Z</time>
      </trkpt>
      <trkpt lat="45.5582" lon="5.99352">
        <ele>466.39999389648</ele>
        <time>2013-08-25T06:52:42.000Z</time>
      </trkpt>
      <trkpt lat="45.5583" lon="5.99352">
        <ele>466.60000610352</ele>
        <time>2013-08-25T06:52:48.000Z</time>
      </trkpt>
      <trkpt lat="45.55831" lon="5.99352">
        <ele>466.60000610352</ele>
        <time>2013-08-25T06:52:49.000Z</time>
      </trkpt>
      <trkpt lat="45.55833" lon="5.99352">
        <ele>467</ele>
        <time>2013-08-25T06:52:50.000Z</time>
      </trkpt>
      <trkpt lat="45.55848" lon="5.99353">
        <ele>468.39999389648</ele>
        <time>2013-08-25T06:53:00.000Z</time>
      </trkpt>
      <trkpt lat="45.55853" lon="5.99353">
        <ele>468.60000610352</ele>
        <time>2013-08-25T06:53:03.000Z</time>
      </trkpt>
      <trkpt lat="45.55855" lon="5.99353">
        <ele>468.79998779297</ele>
        <time>2013-08-25T06:53:04.000Z</time>
      </trkpt>
      <trkpt lat="45.55864" lon="5.99353">
        <ele>469.79998779297</ele>
        <time>2013-08-25T06:53:09.000Z</time>
      </trkpt>
      <trkpt lat="45.55867" lon="5.99354">
        <ele>470.39999389648</ele>
        <time>2013-08-25T06:53:11.000Z</time>
      </trkpt>
      <trkpt lat="45.55868" lon="5.99354">
        <ele>470.39999389648</ele>
        <time>2013-08-25T06:53:12.000Z</time>
      </trkpt>
      <trkpt lat="45.5587" lon="5.99354">
        <ele>470.60000610352</ele>
        <time>2013-08-25T06:53:13.000Z</time>
      </trkpt>
      <trkpt lat="45.5588" lon="5.99357">
        <ele>472.79998779297</ele>
        <time>2013-08-25T06:53:19.000Z</time>
      </trkpt>
      <trkpt lat="45.55882" lon="5.99358">
        <ele>473.20001220703</ele>
        <time>2013-08-25T06:53:20.000Z</time>
      </trkpt>
      <trkpt lat="45.55883" lon="5.99359">
        <ele>473.39999389648</ele>
        <time>2013-08-25T06:53:21.000Z</time>
      </trkpt>
      <trkpt lat="45.55885" lon="5.9936">
        <ele>474</ele>
        <time>2013-08-25T06:53:22.000Z</time>
      </trkpt>
      <trkpt lat="45.55887" lon="5.99361">
        <ele>474.60000610352</ele>
        <time>2013-08-25T06:53:23.000Z</time>
      </trkpt>
      <trkpt lat="45.55891" lon="5.99363">
        <ele>475.60000610352</ele>
        <time>2013-08-25T06:53:25.000Z</time>
      </trkpt>
      <trkpt lat="45.55893" lon="5.99363">
        <ele>475.79998779297</ele>
        <time>2013-08-25T06:53:26.000Z</time>
      </trkpt>
      <trkpt lat="45.55895" lon="5.99362">
        <ele>475.79998779297</ele>
        <time>2013-08-25T06:53:27.000Z</time>
      </trkpt>
      <trkpt lat="45.55896" lon="5.99362">
        <ele>475.79998779297</ele>
        <time>2013-08-25T06:53:28.000Z</time>
      </trkpt>
      <trkpt lat="45.55898" lon="5.99363">
        <ele>476</ele>
        <time>2013-08-25T06:53:29.000Z</time>
      </trkpt>
      <trkpt lat="45.55899" lon="5.99363">
        <ele>476</ele>
        <time>2013-08-25T06:53:30.000Z</time>
      </trkpt>
      <trkpt lat="45.55917" lon="5.99353">
        <ele>474</ele>
        <time>2013-08-25T06:53:39.000Z</time>
      </trkpt>
      <trkpt lat="45.55932" lon="5.99331">
        <ele>471.39999389648</ele>
        <time>2013-08-25T06:53:51.000Z</time>
      </trkpt>
      <trkpt lat="45.55936" lon="5.99313">
        <ele>468.79998779297</ele>
        <time>2013-08-25T06:54:02.000Z</time>
      </trkpt>
      <trkpt lat="45.55943" lon="5.993">
        <ele>468.60000610352</ele>
        <time>2013-08-25T06:54:09.000Z</time>
      </trkpt>
      <trkpt lat="45.55945" lon="5.99298">
        <ele>468.79998779297</ele>
        <time>2013-08-25T06:54:11.000Z</time>
      </trkpt>
      <trkpt lat="45.55946" lon="5.99298">
        <ele>469.39999389648</ele>
        <time>2013-08-25T06:54:12.000Z</time>
      </trkpt>
      <trkpt lat="45.55948" lon="5.99297">
        <ele>469.79998779297</ele>
        <time>2013-08-25T06:54:13.000Z</time>
      </trkpt>
      <trkpt lat="45.55949" lon="5.99298">
        <ele>470.39999389648</ele>
        <time>2013-08-25T06:54:14.000Z</time>
      </trkpt>
      <trkpt lat="45.55952" lon="5.993">
        <ele>471.60000610352</ele>
        <time>2013-08-25T06:54:16.000Z</time>
      </trkpt>
      <trkpt lat="45.55952" lon="5.99302">
        <ele>472.20001220703</ele>
        <time>2013-08-25T06:54:17.000Z</time>
      </trkpt>
      <trkpt lat="45.55954" lon="5.99306">
        <ele>473.60000610352</ele>
        <time>2013-08-25T06:54:20.000Z</time>
      </trkpt>
      <trkpt lat="45.55955" lon="5.99306">
        <ele>474.20001220703</ele>
        <time>2013-08-25T06:54:21.000Z</time>
      </trkpt>
      <trkpt lat="45.55958" lon="5.99308">
        <ele>475.39999389648</ele>
        <time>2013-08-25T06:54:26.000Z</time>
      </trkpt>
      <trkpt lat="45.55959" lon="5.99308">
        <ele>475.79998779297</ele>
        <time>2013-08-25T06:54:27.000Z</time>
      </trkpt>
      <trkpt lat="45.5596" lon="5.9931">
        <ele>476.20001220703</ele>
        <time>2013-08-25T06:54:28.000Z</time>
      </trkpt>
      <trkpt lat="45.55961" lon="5.99311">
        <ele>476.79998779297</ele>
        <time>2013-08-25T06:54:29.000Z</time>
      </trkpt>
      <trkpt lat="45.55962" lon="5.99312">
        <ele>477.20001220703</ele>
        <time>2013-08-25T06:54:30.000Z</time>
      </trkpt>
      <trkpt lat="45.55965" lon="5.99317">
        <ele>479.39999389648</ele>
        <time>2013-08-25T06:54:34.000Z</time>
      </trkpt>
      <trkpt lat="45.55969" lon="5.99322">
        <ele>481.20001220703</ele>
        <time>2013-08-25T06:54:39.000Z</time>
      </trkpt>
      <trkpt lat="45.5597" lon="5.99323">
        <ele>482</ele>
        <time>2013-08-25T06:54:40.000Z</time>
      </trkpt>
      <trkpt lat="45.55973" lon="5.99328">
        <ele>483.79998779297</ele>
        <time>2013-08-25T06:54:44.000Z</time>
      </trkpt>
      <trkpt lat="45.55974" lon="5.99329">
        <ele>484.20001220703</ele>
        <time>2013-08-25T06:54:45.000Z</time>
      </trkpt>
      <trkpt lat="45.55975" lon="5.9933">
        <ele>484.79998779297</ele>
        <time>2013-08-25T06:54:46.000Z</time>
      </trkpt>
      <trkpt lat="45.55977" lon="5.99332">
        <ele>485.39999389648</ele>
        <time>2013-08-25T06:54:47.000Z</time>
      </trkpt>
      <trkpt lat="45.55979" lon="5.99335">
        <ele>486.79998779297</ele>
        <time>2013-08-25T06:54:50.000Z</time>
      </trkpt>
      <trkpt lat="45.55985" lon="5.99341">
        <ele>489.79998779297</ele>
        <time>2013-08-25T06:54:58.000Z</time>
      </trkpt>
      <trkpt lat="45.5599" lon="5.99352">
        <ele>492.60000610352</ele>
        <time>2013-08-25T06:55:09.000Z</time>
      </trkpt>
      <trkpt lat="45.55989" lon="5.99355">
        <ele>492.79998779297</ele>
        <time>2013-08-25T06:55:10.000Z</time>
      </trkpt>
      <trkpt lat="45.55983" lon="5.99379">
        <ele>495.60000610352</ele>
        <time>2013-08-25T06:55:23.000Z</time>
      </trkpt>
      <trkpt lat="45.5598" lon="5.99394">
        <ele>497.79998779297</ele>
        <time>2013-08-25T06:55:36.000Z</time>
      </trkpt>
      <trkpt lat="45.5597" lon="5.99413">
        <ele>500.20001220703</ele>
        <time>2013-08-25T06:55:49.000Z</time>
      </trkpt>
      <trkpt lat="45.55969" lon="5.99415">
        <ele>500.39999389648</ele>
        <time>2013-08-25T06:55:50.000Z</time>
      </trkpt>
      <trkpt lat="45.55965" lon="5.99419">
        <ele>501.79998779297</ele>
        <time>2013-08-25T06:55:53.000Z</time>
      </trkpt>
      <trkpt lat="45.55957" lon="5.99428">
        <ele>505</ele>
        <time>2013-08-25T06:56:01.000Z</time>
      </trkpt>
      <trkpt lat="45.5596" lon="5.99433">
        <ele>507.79998779297</ele>
        <time>2013-08-25T06:56:06.000Z</time>
      </trkpt>
      <trkpt lat="45.55972" lon="5.99439">
        <ele>511</ele>
        <time>2013-08-25T06:56:19.000Z</time>
      </trkpt>
      <trkpt lat="45.55972" lon="5.9944">
        <ele>511</ele>
        <time>2013-08-25T06:56:20.000Z</time>
      </trkpt>
      <trkpt lat="45.55984" lon="5.9944">
        <ele>511.60000610352</ele>
        <time>2013-08-25T06:56:32.000Z</time>
      </trkpt>
      <trkpt lat="45.55988" lon="5.99439">
        <ele>511.20001220703</ele>
        <time>2013-08-25T06:56:35.000Z</time>
      </trkpt>
      <trkpt lat="45.55998" lon="5.9943">
        <ele>508.39999389648</ele>
        <time>2013-08-25T06:56:48.000Z</time>
      </trkpt>
      <trkpt lat="45.56004" lon="5.99426">
        <ele>509.60000610352</ele>
        <time>2013-08-25T06:56:54.000Z</time>
      </trkpt>
      <trkpt lat="45.5601" lon="5.99428">
        <ele>513.59997558594</ele>
        <time>2013-08-25T06:57:00.000Z</time>
      </trkpt>
      <trkpt lat="45.56004" lon="5.99444">
        <ele>515.59997558594</ele>
        <time>2013-08-25T06:57:11.000Z</time>
      </trkpt>
      <trkpt lat="45.55997" lon="5.99455">
        <ele>517.40002441406</ele>
        <time>2013-08-25T06:57:21.000Z</time>
      </trkpt>
      <trkpt lat="45.56002" lon="5.99458">
        <ele>519.40002441406</ele>
        <time>2013-08-25T06:57:25.000Z</time>
      </trkpt>
      <trkpt lat="45.56007" lon="5.99456">
        <ele>521.40002441406</ele>
        <time>2013-08-25T06:57:31.000Z</time>
      </trkpt>
      <trkpt lat="45.56009" lon="5.99454">
        <ele>521.79998779297</ele>
        <time>2013-08-25T06:57:34.000Z</time>
      </trkpt>
      <trkpt lat="45.56014" lon="5.99452">
        <ele>523.79998779297</ele>
        <time>2013-08-25T06:57:39.000Z</time>
      </trkpt>
      <trkpt lat="45.5602" lon="5.99439">
        <ele>522.79998779297</ele>
        <time>2013-08-25T06:57:49.000Z</time>
      </trkpt>
      <trkpt lat="45.56021" lon="5.99434">
        <ele>522</ele>
        <time>2013-08-25T06:57:53.000Z</time>
      </trkpt>
      <trkpt lat="45.56024" lon="5.99413">
        <ele>518.59997558594</ele>
        <time>2013-08-25T06:58:08.000Z</time>
      </trkpt>
      <trkpt lat="45.5603" lon="5.99395">
        <ele>519.40002441406</ele>
        <time>2013-08-25T06:58:18.000Z</time>
      </trkpt>
      <trkpt lat="45.56034" lon="5.99374">
        <ele>519.20001220703</ele>
        <time>2013-08-25T06:58:31.000Z</time>
      </trkpt>
      <trkpt lat="45.56034" lon="5.99373">
        <ele>518.79998779297</ele>
        <time>2013-08-25T06:58:34.000Z</time>
      </trkpt>
      <trkpt lat="45.56032" lon="5.99372">
        <ele>517.59997558594</ele>
        <time>2013-08-25T06:58:41.000Z</time>
      </trkpt>
      <trkpt lat="45.56034" lon="5.9935">
        <ele>515.59997558594</ele>
        <time>2013-08-25T06:58:53.000Z</time>
      </trkpt>
      <trkpt lat="45.5604" lon="5.99336">
        <ele>516.79998779297</ele>
        <time>2013-08-25T06:59:00.000Z</time>
      </trkpt>
      <trkpt lat="45.56042" lon="5.99323">
        <ele>515.79998779297</ele>
        <time>2013-08-25T06:59:08.000Z</time>
      </trkpt>
      <trkpt lat="45.56045" lon="5.99315">
        <ele>516.20001220703</ele>
        <time>2013-08-25T06:59:13.000Z</time>
      </trkpt>
      <trkpt lat="45.56046" lon="5.99303">
        <ele>514.79998779297</ele>
        <time>2013-08-25T06:59:22.000Z</time>
      </trkpt>
      <trkpt lat="45.56056" lon="5.99283">
        <ele>516.79998779297</ele>
        <time>2013-08-25T06:59:34.000Z</time>
      </trkpt>
      <trkpt lat="45.56061" lon="5.99272">
        <ele>517.79998779297</ele>
        <time>2013-08-25T06:59:48.000Z</time>
      </trkpt>
      <trkpt lat="45.56063" lon="5.9927">
        <ele>518.20001220703</ele>
        <time>2013-08-25T06:59:54.000Z</time>
      </trkpt>
      <trkpt lat="45.56063" lon="5.9927">
        <ele>518.59997558594</ele>
        <time>2013-08-25T07:00:09.000Z</time>
      </trkpt>
      <trkpt lat="45.56063" lon="5.9927">
        <ele>518.59997558594</ele>
        <time>2013-08-25T07:00:14.000Z</time>
      </trkpt>
      <trkpt lat="45.56063" lon="5.9927">
        <ele>518.59997558594</ele>
        <time>2013-08-25T07:00:34.000Z</time>
      </trkpt>
      <trkpt lat="45.56063" lon="5.9927">
        <ele>518.59997558594</ele>
        <time>2013-08-25T07:01:05.000Z</time>
      </trkpt>
      <trkpt lat="45.56063" lon="5.9927">
        <ele>518.59997558594</ele>
        <time>2013-08-25T07:01:10.000Z</time>
      </trkpt>
      <trkpt lat="45.56063" lon="5.9927">
        <ele>518.59997558594</ele>
        <time>2013-08-25T07:01:12.000Z</time>
      </trkpt>
      <trkpt lat="45.56063" lon="5.9927">
        <ele>518.59997558594</ele>
        <time>2013-08-25T07:01:13.000Z</time>
      </trkpt>
      <trkpt lat="45.56063" lon="5.99271">
        <ele>518.79998779297</ele>
        <time>2013-08-25T07:01:40.000Z</time>
      </trkpt>
      <trkpt lat="45.56063" lon="5.99272">
        <ele>518.79998779297</ele>
        <time>2013-08-25T07:02:05.000Z</time>
      </trkpt>
      <trkpt lat="45.56063" lon="5.99272">
        <ele>518.79998779297</ele>
        <time>2013-08-25T07:02:13.000Z</time>
      </trkpt>
      <trkpt lat="45.56065" lon="5.99271">
        <ele>519.59997558594</ele>
        <time>2013-08-25T07:02:14.000Z</time>
      </trkpt>
      <trkpt lat="45.56068" lon="5.99272">
        <ele>521.40002441406</ele>
        <time>2013-08-25T07:02:17.000Z</time>
      </trkpt>
      <trkpt lat="45.56069" lon="5.99273">
        <ele>522</ele>
        <time>2013-08-25T07:02:18.000Z</time>
      </trkpt>
      <trkpt lat="45.56069" lon="5.99281">
        <ele>523.40002441406</ele>
        <time>2013-08-25T07:02:40.000Z</time>
      </trkpt>
      <trkpt lat="45.56069" lon="5.99278">
        <ele>523.20001220703</ele>
        <time>2013-08-25T07:02:57.000Z</time>
      </trkpt>
      <trkpt lat="45.56065" lon="5.99277">
        <ele>520.59997558594</ele>
        <time>2013-08-25T07:03:18.000Z</time>
      </trkpt>
      <trkpt lat="45.56065" lon="5.99277">
        <ele>520.59997558594</ele>
        <time>2013-08-25T07:03:31.000Z</time>
      </trkpt>
      <trkpt lat="45.56065" lon="5.99277">
        <ele>520.59997558594</ele>
        <time>2013-08-25T07:03:32.000Z</time>
      </trkpt>
      <trkpt lat="45.56062" lon="5.99287">
        <ele>520.79998779297</ele>
        <time>2013-08-25T07:03:38.000Z</time>
      </trkpt>
      <trkpt lat="45.56063" lon="5.99294">
        <ele>522.79998779297</ele>
        <time>2013-08-25T07:03:41.000Z</time>
      </trkpt>
      <trkpt lat="45.56064" lon="5.99296">
        <ele>523.40002441406</ele>
        <time>2013-08-25T07:03:42.000Z</time>
      </trkpt>
      <trkpt lat="45.56065" lon="5.99298">
        <ele>524.59997558594</ele>
        <time>2013-08-25T07:03:44.000Z</time>
      </trkpt>
      <trkpt lat="45.56066" lon="5.99301">
        <ele>526</ele>
        <time>2013-08-25T07:03:47.000Z</time>
      </trkpt>
      <trkpt lat="45.56068" lon="5.99306">
        <ele>527.79998779297</ele>
        <time>2013-08-25T07:03:53.000Z</time>
      </trkpt>
      <trkpt lat="45.56069" lon="5.99307">
        <ele>528.20001220703</ele>
        <time>2013-08-25T07:03:54.000Z</time>
      </trkpt>
      <trkpt lat="45.56069" lon="5.99308">
        <ele>528.40002441406</ele>
        <time>2013-08-25T07:03:55.000Z</time>
      </trkpt>
      <trkpt lat="45.56075" lon="5.99329">
        <ele>536.20001220703</ele>
        <time>2013-08-25T07:03:59.000Z</time>
      </trkpt>
      <trkpt lat="45.56076" lon="5.99334">
        <ele>537.59997558594</ele>
        <time>2013-08-25T07:04:00.000Z</time>
      </trkpt>
      <trkpt lat="45.56075" lon="5.99351">
        <ele>539.79998779297</ele>
        <time>2013-08-25T07:04:04.000Z</time>
      </trkpt>
      <trkpt lat="45.56075" lon="5.9937">
        <ele>543.40002441406</ele>
        <time>2013-08-25T07:04:13.000Z</time>
      </trkpt>
      <trkpt lat="45.56079" lon="5.99386">
        <ele>548.59997558594</ele>
        <time>2013-08-25T07:04:22.000Z</time>
      </trkpt>
      <trkpt lat="45.5608" lon="5.9939">
        <ele>550.20001220703</ele>
        <time>2013-08-25T07:04:26.000Z</time>
      </trkpt>
      <trkpt lat="45.56082" lon="5.99393">
        <ele>551.40002441406</ele>
        <time>2013-08-25T07:04:28.000Z</time>
      </trkpt>
      <trkpt lat="45.56084" lon="5.99397">
        <ele>553.79998779297</ele>
        <time>2013-08-25T07:04:31.000Z</time>
      </trkpt>
      <trkpt lat="45.56085" lon="5.99398">
        <ele>554.59997558594</ele>
        <time>2013-08-25T07:04:32.000Z</time>
      </trkpt>
      <trkpt lat="45.56086" lon="5.994">
        <ele>555.40002441406</ele>
        <time>2013-08-25T07:04:33.000Z</time>
      </trkpt>
      <trkpt lat="45.56087" lon="5.99401">
        <ele>556.20001220703</ele>
        <time>2013-08-25T07:04:34.000Z</time>
      </trkpt>
      <trkpt lat="45.56089" lon="5.99407">
        <ele>558.40002441406</ele>
        <time>2013-08-25T07:04:38.000Z</time>
      </trkpt>
      <trkpt lat="45.56089" lon="5.99408">
        <ele>558.79998779297</ele>
        <time>2013-08-25T07:04:39.000Z</time>
      </trkpt>
      <trkpt lat="45.56089" lon="5.99409">
        <ele>559</ele>
        <time>2013-08-25T07:04:40.000Z</time>
      </trkpt>
      <trkpt lat="45.5609" lon="5.99416">
        <ele>560.79998779297</ele>
        <time>2013-08-25T07:04:44.000Z</time>
      </trkpt>
      <trkpt lat="45.5609" lon="5.99417">
        <ele>561</ele>
        <time>2013-08-25T07:04:45.000Z</time>
      </trkpt>
      <trkpt lat="45.56091" lon="5.99422">
        <ele>562.20001220703</ele>
        <time>2013-08-25T07:04:48.000Z</time>
      </trkpt>
      <trkpt lat="45.56091" lon="5.99423">
        <ele>562.40002441406</ele>
        <time>2013-08-25T07:04:49.000Z</time>
      </trkpt>
      <trkpt lat="45.56092" lon="5.99427">
        <ele>563.40002441406</ele>
        <time>2013-08-25T07:04:52.000Z</time>
      </trkpt>
      <trkpt lat="45.56094" lon="5.99435">
        <ele>565.59997558594</ele>
        <time>2013-08-25T07:04:57.000Z</time>
      </trkpt>
      <trkpt lat="45.56094" lon="5.99437">
        <ele>565.79998779297</ele>
        <time>2013-08-25T07:04:58.000Z</time>
      </trkpt>
      <trkpt lat="45.56093" lon="5.99445">
        <ele>565.79998779297</ele>
        <time>2013-08-25T07:05:03.000Z</time>
      </trkpt>
      <trkpt lat="45.56092" lon="5.99446">
        <ele>565.59997558594</ele>
        <time>2013-08-25T07:05:04.000Z</time>
      </trkpt>
      <trkpt lat="45.5609" lon="5.99451">
        <ele>564.79998779297</ele>
        <time>2013-08-25T07:05:07.000Z</time>
      </trkpt>
      <trkpt lat="45.56089" lon="5.99453">
        <ele>564.40002441406</ele>
        <time>2013-08-25T07:05:08.000Z</time>
      </trkpt>
      <trkpt lat="45.56088" lon="5.99457">
        <ele>563.59997558594</ele>
        <time>2013-08-25T07:05:10.000Z</time>
      </trkpt>
      <trkpt lat="45.56086" lon="5.99459">
        <ele>563</ele>
        <time>2013-08-25T07:05:11.000Z</time>
      </trkpt>
      <trkpt lat="45.56075" lon="5.99478">
        <ele>559</ele>
        <time>2013-08-25T07:05:25.000Z</time>
      </trkpt>
      <trkpt lat="45.56078" lon="5.99498">
        <ele>562.79998779297</ele>
        <time>2013-08-25T07:05:35.000Z</time>
      </trkpt>
      <trkpt lat="45.56079" lon="5.995">
        <ele>563</ele>
        <time>2013-08-25T07:05:36.000Z</time>
      </trkpt>
      <trkpt lat="45.56079" lon="5.99501">
        <ele>563.59997558594</ele>
        <time>2013-08-25T07:05:37.000Z</time>
      </trkpt>
      <trkpt lat="45.56081" lon="5.99505">
        <ele>565.20001220703</ele>
        <time>2013-08-25T07:05:40.000Z</time>
      </trkpt>
      <trkpt lat="45.56083" lon="5.99509">
        <ele>567</ele>
        <time>2013-08-25T07:05:43.000Z</time>
      </trkpt>
      <trkpt lat="45.56084" lon="5.99512">
        <ele>568.59997558594</ele>
        <time>2013-08-25T07:05:45.000Z</time>
      </trkpt>
      <trkpt lat="45.56084" lon="5.99514">
        <ele>569</ele>
        <time>2013-08-25T07:05:46.000Z</time>
      </trkpt>
      <trkpt lat="45.56085" lon="5.99516">
        <ele>569.79998779297</ele>
        <time>2013-08-25T07:05:47.000Z</time>
      </trkpt>
      <trkpt lat="45.56086" lon="5.99526">
        <ele>573.20001220703</ele>
        <time>2013-08-25T07:05:53.000Z</time>
      </trkpt>
      <trkpt lat="45.56086" lon="5.99528">
        <ele>573.79998779297</ele>
        <time>2013-08-25T07:05:54.000Z</time>
      </trkpt>
      <trkpt lat="45.56087" lon="5.9953">
        <ele>574.40002441406</ele>
        <time>2013-08-25T07:05:55.000Z</time>
      </trkpt>
      <trkpt lat="45.56087" lon="5.99532">
        <ele>575</ele>
        <time>2013-08-25T07:05:56.000Z</time>
      </trkpt>
      <trkpt lat="45.56088" lon="5.99537">
        <ele>576.79998779297</ele>
        <time>2013-08-25T07:05:59.000Z</time>
      </trkpt>
      <trkpt lat="45.56088" lon="5.99541">
        <ele>578</ele>
        <time>2013-08-25T07:06:01.000Z</time>
      </trkpt>
      <trkpt lat="45.56089" lon="5.99544">
        <ele>579.20001220703</ele>
        <time>2013-08-25T07:06:03.000Z</time>
      </trkpt>
      <trkpt lat="45.56089" lon="5.99548">
        <ele>580.20001220703</ele>
        <time>2013-08-25T07:06:05.000Z</time>
      </trkpt>
      <trkpt lat="45.56095" lon="5.99537">
        <ele>581.59997558594</ele>
        <time>2013-08-25T07:06:08.000Z</time>
      </trkpt>
      <trkpt lat="45.56094" lon="5.9954">
        <ele>581.59997558594</ele>
        <time>2013-08-25T07:06:15.000Z</time>
      </trkpt>
      <trkpt lat="45.56094" lon="5.9954">
        <ele>581.59997558594</ele>
        <time>2013-08-25T07:06:16.000Z</time>
      </trkpt>
      <trkpt lat="45.56094" lon="5.9954">
        <ele>581.59997558594</ele>
        <time>2013-08-25T07:06:17.000Z</time>
      </trkpt>
      <trkpt lat="45.56094" lon="5.99542">
        <ele>582.20001220703</ele>
        <time>2013-08-25T07:06:18.000Z</time>
      </trkpt>
      <trkpt lat="45.56095" lon="5.99548">
        <ele>583.79998779297</ele>
        <time>2013-08-25T07:06:23.000Z</time>
      </trkpt>
      <trkpt lat="45.56094" lon="5.99549">
        <ele>584</ele>
        <time>2013-08-25T07:06:24.000Z</time>
      </trkpt>
      <trkpt lat="45.56094" lon="5.99552">
        <ele>584.20001220703</ele>
        <time>2013-08-25T07:06:26.000Z</time>
      </trkpt>
      <trkpt lat="45.56094" lon="5.99553">
        <ele>584.59997558594</ele>
        <time>2013-08-25T07:06:27.000Z</time>
      </trkpt>
      <trkpt lat="45.56095" lon="5.99574">
        <ele>589.59997558594</ele>
        <time>2013-08-25T07:06:36.000Z</time>
      </trkpt>
      <trkpt lat="45.56094" lon="5.99579">
        <ele>590.40002441406</ele>
        <time>2013-08-25T07:06:38.000Z</time>
      </trkpt>
      <trkpt lat="45.56093" lon="5.99583">
        <ele>591</ele>
        <time>2013-08-25T07:06:39.000Z</time>
      </trkpt>
      <trkpt lat="45.56093" lon="5.99611">
        <ele>600.59997558594</ele>
        <time>2013-08-25T07:06:47.000Z</time>
      </trkpt>
      <trkpt lat="45.56096" lon="5.99613">
        <ele>602.59997558594</ele>
        <time>2013-08-25T07:06:49.000Z</time>
      </trkpt>
      <trkpt lat="45.561" lon="5.9961">
        <ele>603.79998779297</ele>
        <time>2013-08-25T07:06:53.000Z</time>
      </trkpt>
      <trkpt lat="45.561" lon="5.99607">
        <ele>603</ele>
        <time>2013-08-25T07:06:57.000Z</time>
      </trkpt>
      <trkpt lat="45.56095" lon="5.99594">
        <ele>596</ele>
        <time>2013-08-25T07:07:01.000Z</time>
      </trkpt>
      <trkpt lat="45.56096" lon="5.99591">
        <ele>595.20001220703</ele>
        <time>2013-08-25T07:07:02.000Z</time>
      </trkpt>
      <trkpt lat="45.56097" lon="5.99587">
        <ele>594.79998779297</ele>
        <time>2013-08-25T07:07:04.000Z</time>
      </trkpt>
      <trkpt lat="45.56099" lon="5.99583">
        <ele>594.79998779297</ele>
        <time>2013-08-25T07:07:06.000Z</time>
      </trkpt>
      <trkpt lat="45.56103" lon="5.99578">
        <ele>595.79998779297</ele>
        <time>2013-08-25T07:07:09.000Z</time>
      </trkpt>
      <trkpt lat="45.56105" lon="5.99576">
        <ele>596.40002441406</ele>
        <time>2013-08-25T07:07:10.000Z</time>
      </trkpt>
      <trkpt lat="45.56116" lon="5.9956">
        <ele>600.79998779297</ele>
        <time>2013-08-25T07:07:17.000Z</time>
      </trkpt>
      <trkpt lat="45.56117" lon="5.99558">
        <ele>601</ele>
        <time>2013-08-25T07:07:18.000Z</time>
      </trkpt>
      <trkpt lat="45.56119" lon="5.99555">
        <ele>601.79998779297</ele>
        <time>2013-08-25T07:07:20.000Z</time>
      </trkpt>
      <trkpt lat="45.56122" lon="5.9955">
        <ele>602.59997558594</ele>
        <time>2013-08-25T07:07:23.000Z</time>
      </trkpt>
      <trkpt lat="45.56125" lon="5.99543">
        <ele>603.40002441406</ele>
        <time>2013-08-25T07:07:27.000Z</time>
      </trkpt>
      <trkpt lat="45.5613" lon="5.9954">
        <ele>605.79998779297</ele>
        <time>2013-08-25T07:07:31.000Z</time>
      </trkpt>
      <trkpt lat="45.56133" lon="5.9954">
        <ele>607.59997558594</ele>
        <time>2013-08-25T07:07:33.000Z</time>
      </trkpt>
      <trkpt lat="45.56134" lon="5.99542">
        <ele>609.20001220703</ele>
        <time>2013-08-25T07:07:35.000Z</time>
      </trkpt>
      <trkpt lat="45.56135" lon="5.99545">
        <ele>610.40002441406</ele>
        <time>2013-08-25T07:07:37.000Z</time>
      </trkpt>
      <trkpt lat="45.56136" lon="5.99548">
        <ele>611.59997558594</ele>
        <time>2013-08-25T07:07:39.000Z</time>
      </trkpt>
      <trkpt lat="45.56136" lon="5.99549">
        <ele>612</ele>
        <time>2013-08-25T07:07:40.000Z</time>
      </trkpt>
      <trkpt lat="45.56137" lon="5.9955">
        <ele>612.20001220703</ele>
        <time>2013-08-25T07:07:41.000Z</time>
      </trkpt>
      <trkpt lat="45.56137" lon="5.99552">
        <ele>612.59997558594</ele>
        <time>2013-08-25T07:07:42.000Z</time>
      </trkpt>
      <trkpt lat="45.56137" lon="5.99553">
        <ele>612.59997558594</ele>
        <time>2013-08-25T07:07:43.000Z</time>
      </trkpt>
      <trkpt lat="45.56136" lon="5.99557">
        <ele>613.40002441406</ele>
        <time>2013-08-25T07:07:47.000Z</time>
      </trkpt>
      <trkpt lat="45.56136" lon="5.99562">
        <ele>613.79998779297</ele>
        <time>2013-08-25T07:07:52.000Z</time>
      </trkpt>
      <trkpt lat="45.56132" lon="5.99566">
        <ele>611.79998779297</ele>
        <time>2013-08-25T07:07:55.000Z</time>
      </trkpt>
      <trkpt lat="45.56129" lon="5.99567">
        <ele>610.59997558594</ele>
        <time>2013-08-25T07:07:57.000Z</time>
      </trkpt>
      <trkpt lat="45.56127" lon="5.99568">
        <ele>609.40002441406</ele>
        <time>2013-08-25T07:07:59.000Z</time>
      </trkpt>
      <trkpt lat="45.56126" lon="5.99569">
        <ele>608.79998779297</ele>
        <time>2013-08-25T07:08:00.000Z</time>
      </trkpt>
      <trkpt lat="45.56124" lon="5.99571">
        <ele>608</ele>
        <time>2013-08-25T07:08:02.000Z</time>
      </trkpt>
      <trkpt lat="45.56123" lon="5.99581">
        <ele>609.20001220703</ele>
        <time>2013-08-25T07:08:07.000Z</time>
      </trkpt>
      <trkpt lat="45.56123" lon="5.99582">
        <ele>609.40002441406</ele>
        <time>2013-08-25T07:08:08.000Z</time>
      </trkpt>
      <trkpt lat="45.56123" lon="5.99583">
        <ele>609.40002441406</ele>
        <time>2013-08-25T07:08:09.000Z</time>
      </trkpt>
      <trkpt lat="45.56123" lon="5.99586">
        <ele>610</ele>
        <time>2013-08-25T07:08:11.000Z</time>
      </trkpt>
      <trkpt lat="45.56124" lon="5.99592">
        <ele>612.40002441406</ele>
        <time>2013-08-25T07:08:17.000Z</time>
      </trkpt>
      <trkpt lat="45.56124" lon="5.99594">
        <ele>613</ele>
        <time>2013-08-25T07:08:18.000Z</time>
      </trkpt>
      <trkpt lat="45.56124" lon="5.99597">
        <ele>614.20001220703</ele>
        <time>2013-08-25T07:08:21.000Z</time>
      </trkpt>
      <trkpt lat="45.56126" lon="5.99607">
        <ele>617.79998779297</ele>
        <time>2013-08-25T07:08:30.000Z</time>
      </trkpt>
      <trkpt lat="45.56126" lon="5.99608">
        <ele>618.20001220703</ele>
        <time>2013-08-25T07:08:31.000Z</time>
      </trkpt>
      <trkpt lat="45.56127" lon="5.99613">
        <ele>619.79998779297</ele>
        <time>2013-08-25T07:08:35.000Z</time>
      </trkpt>
      <trkpt lat="45.56127" lon="5.99614">
        <ele>620.20001220703</ele>
        <time>2013-08-25T07:08:36.000Z</time>
      </trkpt>
      <trkpt lat="45.56128" lon="5.99617">
        <ele>621.20001220703</ele>
        <time>2013-08-25T07:08:39.000Z</time>
      </trkpt>
      <trkpt lat="45.56128" lon="5.99618">
        <ele>621.79998779297</ele>
        <time>2013-08-25T07:08:40.000Z</time>
      </trkpt>
      <trkpt lat="45.56128" lon="5.99619">
        <ele>622</ele>
        <time>2013-08-25T07:08:42.000Z</time>
      </trkpt>
      <trkpt lat="45.56128" lon="5.99619">
        <ele>622</ele>
        <time>2013-08-25T07:08:43.000Z</time>
      </trkpt>
      <trkpt lat="45.56128" lon="5.99619">
        <ele>622</ele>
        <time>2013-08-25T07:08:47.000Z</time>
      </trkpt>
      <trkpt lat="45.56128" lon="5.99619">
        <ele>622</ele>
        <time>2013-08-25T07:08:52.000Z</time>
      </trkpt>
      <trkpt lat="45.56128" lon="5.99619">
        <ele>622</ele>
        <time>2013-08-25T07:08:55.000Z</time>
      </trkpt>
      <trkpt lat="45.56128" lon="5.99619">
        <ele>622</ele>
        <time>2013-08-25T07:08:56.000Z</time>
      </trkpt>
      <trkpt lat="45.56128" lon="5.99619">
        <ele>622</ele>
        <time>2013-08-25T07:08:57.000Z</time>
      </trkpt>
      <trkpt lat="45.56128" lon="5.99619">
        <ele>622</ele>
        <time>2013-08-25T07:08:58.000Z</time>
      </trkpt>
      <trkpt lat="45.56128" lon="5.99619">
        <ele>622</ele>
        <time>2013-08-25T07:08:59.000Z</time>
      </trkpt>
      <trkpt lat="45.56128" lon="5.99619">
        <ele>622</ele>
        <time>2013-08-25T07:09:00.000Z</time>
      </trkpt>
      <trkpt lat="45.56128" lon="5.99619">
        <ele>622</ele>
        <time>2013-08-25T07:09:02.000Z</time>
      </trkpt>
      <trkpt lat="45.56128" lon="5.99619">
        <ele>622</ele>
        <time>2013-08-25T07:09:03.000Z</time>
      </trkpt>
      <trkpt lat="45.56128" lon="5.99619">
        <ele>622</ele>
        <time>2013-08-25T07:09:04.000Z</time>
      </trkpt>
      <trkpt lat="45.56128" lon="5.99619">
        <ele>622</ele>
        <time>2013-08-25T07:09:05.000Z</time>
      </trkpt>
      <trkpt lat="45.56128" lon="5.99619">
        <ele>622</ele>
        <time>2013-08-25T07:09:06.000Z</time>
      </trkpt>
      <trkpt lat="45.56128" lon="5.99619">
        <ele>622</ele>
        <time>2013-08-25T07:09:07.000Z</time>
      </trkpt>
      <trkpt lat="45.56128" lon="5.99619">
        <ele>622</ele>
        <time>2013-08-25T07:09:08.000Z</time>
      </trkpt>
      <trkpt lat="45.56128" lon="5.99619">
        <ele>622</ele>
        <time>2013-08-25T07:09:09.000Z</time>
      </trkpt>
      <trkpt lat="45.56128" lon="5.99619">
        <ele>622</ele>
        <time>2013-08-25T07:09:10.000Z</time>
      </trkpt>
      <trkpt lat="45.56128" lon="5.99619">
        <ele>622</ele>
        <time>2013-08-25T07:09:11.000Z</time>
      </trkpt>
      <trkpt lat="45.56128" lon="5.99619">
        <ele>622</ele>
        <time>2013-08-25T07:09:12.000Z</time>
      </trkpt>
      <trkpt lat="45.56128" lon="5.99619">
        <ele>622</ele>
        <time>2013-08-25T07:09:13.000Z</time>
      </trkpt>
      <trkpt lat="45.56128" lon="5.99619">
        <ele>622</ele>
        <time>2013-08-25T07:09:14.000Z</time>
      </trkpt>
      <trkpt lat="45.56128" lon="5.99619">
        <ele>622</ele>
        <time>2013-08-25T07:09:15.000Z</time>
      </trkpt>
      <trkpt lat="45.56128" lon="5.99619">
        <ele>622</ele>
        <time>2013-08-25T07:09:16.000Z</time>
      </trkpt>
      <trkpt lat="45.56128" lon="5.99619">
        <ele>622</ele>
        <time>2013-08-25T07:09:17.000Z</time>
      </trkpt>
      <trkpt lat="45.56128" lon="5.99619">
        <ele>622</ele>
        <time>2013-08-25T07:09:18.000Z</time>
      </trkpt>
      <trkpt lat="45.56128" lon="5.99619">
        <ele>622</ele>
        <time>2013-08-25T07:09:19.000Z</time>
      </trkpt>
      <trkpt lat="45.56128" lon="5.99619">
        <ele>622</ele>
        <time>2013-08-25T07:09:20.000Z</time>
      </trkpt>
      <trkpt lat="45.56128" lon="5.99619">
        <ele>622</ele>
        <time>2013-08-25T07:09:23.000Z</time>
      </trkpt>
      <trkpt lat="45.56128" lon="5.99619">
        <ele>622</ele>
        <time>2013-08-25T07:09:24.000Z</time>
      </trkpt>
      <trkpt lat="45.56128" lon="5.99619">
        <ele>622</ele>
        <time>2013-08-25T07:09:25.000Z</time>
      </trkpt>
      <trkpt lat="45.56128" lon="5.99619">
        <ele>622</ele>
        <time>2013-08-25T07:09:26.000Z</time>
      </trkpt>
      <trkpt lat="45.56128" lon="5.99619">
        <ele>622</ele>
        <time>2013-08-25T07:09:27.000Z</time>
      </trkpt>
      <trkpt lat="45.56128" lon="5.99619">
        <ele>622</ele>
        <time>2013-08-25T07:09:29.000Z</time>
      </trkpt>
      <trkpt lat="45.56128" lon="5.99619">
        <ele>622</ele>
        <time>2013-08-25T07:09:30.000Z</time>
      </trkpt>
      <trkpt lat="45.56128" lon="5.99619">
        <ele>622</ele>
        <time>2013-08-25T07:09:33.000Z</time>
      </trkpt>
      <trkpt lat="45.56128" lon="5.99619">
        <ele>622</ele>
        <time>2013-08-25T07:09:34.000Z</time>
      </trkpt>
      <trkpt lat="45.56128" lon="5.99619">
        <ele>622</ele>
        <time>2013-08-25T07:09:35.000Z</time>
      </trkpt>
      <trkpt lat="45.56128" lon="5.99619">
        <ele>622</ele>
        <time>2013-08-25T07:09:36.000Z</time>
      </trkpt>
      <trkpt lat="45.56128" lon="5.99619">
        <ele>622</ele>
        <time>2013-08-25T07:09:38.000Z</time>
      </trkpt>
      <trkpt lat="45.56128" lon="5.99619">
        <ele>622</ele>
        <time>2013-08-25T07:09:41.000Z</time>
      </trkpt>
      <trkpt lat="45.56022" lon="5.99659">
        <ele>607.59997558594</ele>
        <time>2013-08-25T07:09:45.000Z</time>
      </trkpt>
      <trkpt lat="45.5601" lon="5.99642">
        <ele>600</ele>
        <time>2013-08-25T07:10:05.000Z</time>
      </trkpt>
      <trkpt lat="45.56001" lon="5.99643">
        <ele>599.59997558594</ele>
        <time>2013-08-25T07:10:26.000Z</time>
      </trkpt>
      <trkpt lat="45.55997" lon="5.99649">
        <ele>602</ele>
        <time>2013-08-25T07:10:35.000Z</time>
      </trkpt>
      <trkpt lat="45.55995" lon="5.99652">
        <ele>603.20001220703</ele>
        <time>2013-08-25T07:10:38.000Z</time>
      </trkpt>
      <trkpt lat="45.55994" lon="5.99652">
        <ele>603.20001220703</ele>
        <time>2013-08-25T07:10:39.000Z</time>
      </trkpt>
      <trkpt lat="45.55993" lon="5.99653">
        <ele>603.59997558594</ele>
        <time>2013-08-25T07:10:41.000Z</time>
      </trkpt>
      <trkpt lat="45.55992" lon="5.99653">
        <ele>603.59997558594</ele>
        <time>2013-08-25T07:10:42.000Z</time>
      </trkpt>
      <trkpt lat="45.55992" lon="5.99653">
        <ele>603.59997558594</ele>
        <time>2013-08-25T07:10:43.000Z</time>
      </trkpt>
      <trkpt lat="45.55991" lon="5.99653">
        <ele>603.59997558594</ele>
        <time>2013-08-25T07:10:44.000Z</time>
      </trkpt>
      <trkpt lat="45.5599" lon="5.99653">
        <ele>603.40002441406</ele>
        <time>2013-08-25T07:10:45.000Z</time>
      </trkpt>
      <trkpt lat="45.55989" lon="5.99655">
        <ele>604.20001220703</ele>
        <time>2013-08-25T07:10:46.000Z</time>
      </trkpt>
      <trkpt lat="45.55977" lon="5.99669">
        <ele>609</ele>
        <time>2013-08-25T07:10:53.000Z</time>
      </trkpt>
      <trkpt lat="45.55975" lon="5.9967">
        <ele>609</ele>
        <time>2013-08-25T07:10:54.000Z</time>
      </trkpt>
      <trkpt lat="45.55965" lon="5.99683">
        <ele>611.79998779297</ele>
        <time>2013-08-25T07:11:07.000Z</time>
      </trkpt>
      <trkpt lat="45.55964" lon="5.99684">
        <ele>612</ele>
        <time>2013-08-25T07:11:08.000Z</time>
      </trkpt>
      <trkpt lat="45.55962" lon="5.99685">
        <ele>612.20001220703</ele>
        <time>2013-08-25T07:11:09.000Z</time>
      </trkpt>
      <trkpt lat="45.55961" lon="5.99686">
        <ele>612.20001220703</ele>
        <time>2013-08-25T07:11:10.000Z</time>
      </trkpt>
      <trkpt lat="45.55955" lon="5.9969">
        <ele>613.20001220703</ele>
        <time>2013-08-25T07:11:14.000Z</time>
      </trkpt>
      <trkpt lat="45.55953" lon="5.99691">
        <ele>613.20001220703</ele>
        <time>2013-08-25T07:11:15.000Z</time>
      </trkpt>
      <trkpt lat="45.55949" lon="5.99692">
        <ele>613.20001220703</ele>
        <time>2013-08-25T07:11:17.000Z</time>
      </trkpt>
      <trkpt lat="45.55945" lon="5.99693">
        <ele>613.40002441406</ele>
        <time>2013-08-25T07:11:19.000Z</time>
      </trkpt>
      <trkpt lat="45.55939" lon="5.99693">
        <ele>613.20001220703</ele>
        <time>2013-08-25T07:11:22.000Z</time>
      </trkpt>
      <trkpt lat="45.55938" lon="5.99693">
        <ele>613</ele>
        <time>2013-08-25T07:11:23.000Z</time>
      </trkpt>
      <trkpt lat="45.55934" lon="5.99694">
        <ele>613</ele>
        <time>2013-08-25T07:11:25.000Z</time>
      </trkpt>
      <trkpt lat="45.55929" lon="5.99695">
        <ele>613</ele>
        <time>2013-08-25T07:11:28.000Z</time>
      </trkpt>
      <trkpt lat="45.55927" lon="5.99694">
        <ele>613</ele>
        <time>2013-08-25T07:11:29.000Z</time>
      </trkpt>
      <trkpt lat="45.55919" lon="5.99697">
        <ele>613.20001220703</ele>
        <time>2013-08-25T07:11:33.000Z</time>
      </trkpt>
      <trkpt lat="45.55909" lon="5.99701">
        <ele>614</ele>
        <time>2013-08-25T07:11:40.000Z</time>
      </trkpt>
      <trkpt lat="45.55908" lon="5.99701">
        <ele>614</ele>
        <time>2013-08-25T07:11:41.000Z</time>
      </trkpt>
      <trkpt lat="45.55899" lon="5.99707">
        <ele>615.20001220703</ele>
        <time>2013-08-25T07:11:48.000Z</time>
      </trkpt>
      <trkpt lat="45.55897" lon="5.99708">
        <ele>615.40002441406</ele>
        <time>2013-08-25T07:11:49.000Z</time>
      </trkpt>
      <trkpt lat="45.55891" lon="5.9971">
        <ele>615.79998779297</ele>
        <time>2013-08-25T07:11:53.000Z</time>
      </trkpt>
      <trkpt lat="45.55883" lon="5.99713">
        <ele>616.40002441406</ele>
        <time>2013-08-25T07:12:00.000Z</time>
      </trkpt>
      <trkpt lat="45.5588" lon="5.99715">
        <ele>616.59997558594</ele>
        <time>2013-08-25T07:12:03.000Z</time>
      </trkpt>
      <trkpt lat="45.55877" lon="5.99718">
        <ele>617</ele>
        <time>2013-08-25T07:12:06.000Z</time>
      </trkpt>
      <trkpt lat="45.55877" lon="5.99719">
        <ele>617.20001220703</ele>
        <time>2013-08-25T07:12:07.000Z</time>
      </trkpt>
      <trkpt lat="45.55876" lon="5.99721">
        <ele>617.59997558594</ele>
        <time>2013-08-25T07:12:08.000Z</time>
      </trkpt>
      <trkpt lat="45.55875" lon="5.99724">
        <ele>618</ele>
        <time>2013-08-25T07:12:12.000Z</time>
      </trkpt>
      <trkpt lat="45.55874" lon="5.99725">
        <ele>618.20001220703</ele>
        <time>2013-08-25T07:12:13.000Z</time>
      </trkpt>
      <trkpt lat="45.55872" lon="5.99728">
        <ele>618.59997558594</ele>
        <time>2013-08-25T07:12:20.000Z</time>
      </trkpt>
      <trkpt lat="45.55872" lon="5.99728">
        <ele>618.59997558594</ele>
        <time>2013-08-25T07:12:37.000Z</time>
      </trkpt>
      <trkpt lat="45.55872" lon="5.99728">
        <ele>618.59997558594</ele>
        <time>2013-08-25T07:12:38.000Z</time>
      </trkpt>
      <trkpt lat="45.55872" lon="5.99727">
        <ele>618.40002441406</ele>
        <time>2013-08-25T07:12:39.000Z</time>
      </trkpt>
      <trkpt lat="45.55872" lon="5.99727">
        <ele>618.40002441406</ele>
        <time>2013-08-25T07:12:40.000Z</time>
      </trkpt>
      <trkpt lat="45.55872" lon="5.99727">
        <ele>618.40002441406</ele>
        <time>2013-08-25T07:12:41.000Z</time>
      </trkpt>
      <trkpt lat="45.55872" lon="5.99727">
        <ele>618.40002441406</ele>
        <time>2013-08-25T07:12:43.000Z</time>
      </trkpt>
      <trkpt lat="45.55864" lon="5.99729">
        <ele>618.40002441406</ele>
        <time>2013-08-25T07:12:50.000Z</time>
      </trkpt>
      <trkpt lat="45.55862" lon="5.99729">
        <ele>618.59997558594</ele>
        <time>2013-08-25T07:12:51.000Z</time>
      </trkpt>
      <trkpt lat="45.55858" lon="5.99729">
        <ele>618.40002441406</ele>
        <time>2013-08-25T07:12:53.000Z</time>
      </trkpt>
      <trkpt lat="45.55856" lon="5.99729">
        <ele>618.40002441406</ele>
        <time>2013-08-25T07:12:54.000Z</time>
      </trkpt>
      <trkpt lat="45.55851" lon="5.99728">
        <ele>618.20001220703</ele>
        <time>2013-08-25T07:12:57.000Z</time>
      </trkpt>
      <trkpt lat="45.55849" lon="5.99728">
        <ele>618.20001220703</ele>
        <time>2013-08-25T07:12:58.000Z</time>
      </trkpt>
      <trkpt lat="45.55843" lon="5.99729">
        <ele>618</ele>
        <time>2013-08-25T07:13:01.000Z</time>
      </trkpt>
      <trkpt lat="45.55841" lon="5.99729">
        <ele>618</ele>
        <time>2013-08-25T07:13:02.000Z</time>
      </trkpt>
      <trkpt lat="45.55839" lon="5.99728">
        <ele>618</ele>
        <time>2013-08-25T07:13:03.000Z</time>
      </trkpt>
      <trkpt lat="45.55833" lon="5.99728">
        <ele>617.79998779297</ele>
        <time>2013-08-25T07:13:06.000Z</time>
      </trkpt>
      <trkpt lat="45.55831" lon="5.99728">
        <ele>617.79998779297</ele>
        <time>2013-08-25T07:13:07.000Z</time>
      </trkpt>
      <trkpt lat="45.55824" lon="5.99727">
        <ele>617.79998779297</ele>
        <time>2013-08-25T07:13:10.000Z</time>
      </trkpt>
      <trkpt lat="45.55822" lon="5.99727">
        <ele>618</ele>
        <time>2013-08-25T07:13:11.000Z</time>
      </trkpt>
      <trkpt lat="45.55818" lon="5.99725">
        <ele>617.79998779297</ele>
        <time>2013-08-25T07:13:14.000Z</time>
      </trkpt>
      <trkpt lat="45.55816" lon="5.99724">
        <ele>617.79998779297</ele>
        <time>2013-08-25T07:13:15.000Z</time>
      </trkpt>
      <trkpt lat="45.55815" lon="5.99723">
        <ele>617.79998779297</ele>
        <time>2013-08-25T07:13:16.000Z</time>
      </trkpt>
      <trkpt lat="45.55813" lon="5.99723">
        <ele>617.79998779297</ele>
        <time>2013-08-25T07:13:17.000Z</time>
      </trkpt>
      <trkpt lat="45.55812" lon="5.99723">
        <ele>617.79998779297</ele>
        <time>2013-08-25T07:13:18.000Z</time>
      </trkpt>
      <trkpt lat="45.5581" lon="5.99722">
        <ele>617.79998779297</ele>
        <time>2013-08-25T07:13:19.000Z</time>
      </trkpt>
      <trkpt lat="45.55809" lon="5.99723">
        <ele>618</ele>
        <time>2013-08-25T07:13:20.000Z</time>
      </trkpt>
      <trkpt lat="45.55807" lon="5.99724">
        <ele>618</ele>
        <time>2013-08-25T07:13:22.000Z</time>
      </trkpt>
      <trkpt lat="45.55806" lon="5.99724">
        <ele>618.20001220703</ele>
        <time>2013-08-25T07:13:23.000Z</time>
      </trkpt>
      <trkpt lat="45.55802" lon="5.99726">
        <ele>618.40002441406</ele>
        <time>2013-08-25T07:13:25.000Z</time>
      </trkpt>
      <trkpt lat="45.55797" lon="5.99728">
        <ele>618.59997558594</ele>
        <time>2013-08-25T07:13:27.000Z</time>
      </trkpt>
      <trkpt lat="45.55795" lon="5.99729">
        <ele>618.59997558594</ele>
        <time>2013-08-25T07:13:28.000Z</time>
      </trkpt>
      <trkpt lat="45.55788" lon="5.9973">
        <ele>618.79998779297</ele>
        <time>2013-08-25T07:13:31.000Z</time>
      </trkpt>
      <trkpt lat="45.55787" lon="5.99731">
        <ele>619</ele>
        <time>2013-08-25T07:13:32.000Z</time>
      </trkpt>
      <trkpt lat="45.55786" lon="5.99731">
        <ele>619</ele>
        <time>2013-08-25T07:13:33.000Z</time>
      </trkpt>
      <trkpt lat="45.55782" lon="5.99733">
        <ele>619.20001220703</ele>
        <time>2013-08-25T07:13:36.000Z</time>
      </trkpt>
      <trkpt lat="45.55781" lon="5.99733">
        <ele>619.20001220703</ele>
        <time>2013-08-25T07:13:37.000Z</time>
      </trkpt>
      <trkpt lat="45.5578" lon="5.99734">
        <ele>619.20001220703</ele>
        <time>2013-08-25T07:13:39.000Z</time>
      </trkpt>
      <trkpt lat="45.55778" lon="5.99735">
        <ele>619.20001220703</ele>
        <time>2013-08-25T07:13:41.000Z</time>
      </trkpt>
      <trkpt lat="45.55776" lon="5.99736">
        <ele>619.40002441406</ele>
        <time>2013-08-25T07:13:42.000Z</time>
      </trkpt>
      <trkpt lat="45.55774" lon="5.99737">
        <ele>619.40002441406</ele>
        <time>2013-08-25T07:13:43.000Z</time>
      </trkpt>
      <trkpt lat="45.55758" lon="5.99752">
        <ele>620.40002441406</ele>
        <time>2013-08-25T07:13:50.000Z</time>
      </trkpt>
      <trkpt lat="45.55756" lon="5.99755">
        <ele>620.79998779297</ele>
        <time>2013-08-25T07:13:52.000Z</time>
      </trkpt>
      <trkpt lat="45.55756" lon="5.99756">
        <ele>621</ele>
        <time>2013-08-25T07:13:53.000Z</time>
      </trkpt>
      <trkpt lat="45.55754" lon="5.99759">
        <ele>621.79998779297</ele>
        <time>2013-08-25T07:13:56.000Z</time>
      </trkpt>
      <trkpt lat="45.55754" lon="5.99768">
        <ele>623.40002441406</ele>
        <time>2013-08-25T07:14:02.000Z</time>
      </trkpt>
      <trkpt lat="45.55763" lon="5.99785">
        <ele>627</ele>
        <time>2013-08-25T07:14:14.000Z</time>
      </trkpt>
      <trkpt lat="45.55763" lon="5.99789">
        <ele>627.59997558594</ele>
        <time>2013-08-25T07:14:16.000Z</time>
      </trkpt>
      <trkpt lat="45.55762" lon="5.9979">
        <ele>627.79998779297</ele>
        <time>2013-08-25T07:14:17.000Z</time>
      </trkpt>
      <trkpt lat="45.55759" lon="5.99797">
        <ele>629.40002441406</ele>
        <time>2013-08-25T07:14:22.000Z</time>
      </trkpt>
      <trkpt lat="45.55753" lon="5.99805">
        <ele>631</ele>
        <time>2013-08-25T07:14:28.000Z</time>
      </trkpt>
      <trkpt lat="45.55746" lon="5.99824">
        <ele>635</ele>
        <time>2013-08-25T07:14:34.000Z</time>
      </trkpt>
      <trkpt lat="45.55744" lon="5.99827">
        <ele>636</ele>
        <time>2013-08-25T07:14:37.000Z</time>
      </trkpt>
      <trkpt lat="45.55737" lon="5.99834">
        <ele>637.79998779297</ele>
        <time>2013-08-25T07:14:44.000Z</time>
      </trkpt>
      <trkpt lat="45.55735" lon="5.99838">
        <ele>639.20001220703</ele>
        <time>2013-08-25T07:14:46.000Z</time>
      </trkpt>
      <trkpt lat="45.55733" lon="5.9984">
        <ele>640</ele>
        <time>2013-08-25T07:14:47.000Z</time>
      </trkpt>
      <trkpt lat="45.55728" lon="5.99845">
        <ele>642</ele>
        <time>2013-08-25T07:14:50.000Z</time>
      </trkpt>
      <trkpt lat="45.55726" lon="5.99846">
        <ele>642.79998779297</ele>
        <time>2013-08-25T07:14:52.000Z</time>
      </trkpt>
      <trkpt lat="45.55724" lon="5.99847">
        <ele>643</ele>
        <time>2013-08-25T07:14:53.000Z</time>
      </trkpt>
      <trkpt lat="45.55723" lon="5.99847">
        <ele>643.20001220703</ele>
        <time>2013-08-25T07:14:54.000Z</time>
      </trkpt>
      <trkpt lat="45.55721" lon="5.99848">
        <ele>643.40002441406</ele>
        <time>2013-08-25T07:14:55.000Z</time>
      </trkpt>
      <trkpt lat="45.55719" lon="5.99848">
        <ele>643.59997558594</ele>
        <time>2013-08-25T07:14:56.000Z</time>
      </trkpt>
      <trkpt lat="45.55718" lon="5.99849">
        <ele>643.79998779297</ele>
        <time>2013-08-25T07:14:57.000Z</time>
      </trkpt>
      <trkpt lat="45.55715" lon="5.99849">
        <ele>644.20001220703</ele>
        <time>2013-08-25T07:14:59.000Z</time>
      </trkpt>
      <trkpt lat="45.55712" lon="5.99847">
        <ele>643.79998779297</ele>
        <time>2013-08-25T07:15:02.000Z</time>
      </trkpt>
      <trkpt lat="45.55701" lon="5.9985">
        <ele>645.20001220703</ele>
        <time>2013-08-25T07:15:09.000Z</time>
      </trkpt>
      <trkpt lat="45.55688" lon="5.99848">
        <ele>645.40002441406</ele>
        <time>2013-08-25T07:15:17.000Z</time>
      </trkpt>
      <trkpt lat="45.5568" lon="5.99849">
        <ele>645.79998779297</ele>
        <time>2013-08-25T07:15:21.000Z</time>
      </trkpt>
      <trkpt lat="45.55678" lon="5.99848">
        <ele>645.79998779297</ele>
        <time>2013-08-25T07:15:22.000Z</time>
      </trkpt>
      <trkpt lat="45.55676" lon="5.99847">
        <ele>645.40002441406</ele>
        <time>2013-08-25T07:15:23.000Z</time>
      </trkpt>
      <trkpt lat="45.55675" lon="5.99845">
        <ele>645</ele>
        <time>2013-08-25T07:15:24.000Z</time>
      </trkpt>
      <trkpt lat="45.55671" lon="5.99842">
        <ele>644</ele>
        <time>2013-08-25T07:15:26.000Z</time>
      </trkpt>
      <trkpt lat="45.55665" lon="5.9984">
        <ele>643.40002441406</ele>
        <time>2013-08-25T07:15:30.000Z</time>
      </trkpt>
      <trkpt lat="45.5566" lon="5.99842">
        <ele>644</ele>
        <time>2013-08-25T07:15:33.000Z</time>
      </trkpt>
      <trkpt lat="45.55661" lon="5.9985">
        <ele>647</ele>
        <time>2013-08-25T07:15:40.000Z</time>
      </trkpt>
      <trkpt lat="45.55663" lon="5.99853">
        <ele>648.20001220703</ele>
        <time>2013-08-25T07:15:42.000Z</time>
      </trkpt>
      <trkpt lat="45.55666" lon="5.99856">
        <ele>649.40002441406</ele>
        <time>2013-08-25T07:15:45.000Z</time>
      </trkpt>
      <trkpt lat="45.55669" lon="5.9986">
        <ele>650.79998779297</ele>
        <time>2013-08-25T07:15:48.000Z</time>
      </trkpt>
      <trkpt lat="45.5567" lon="5.99861">
        <ele>651</ele>
        <time>2013-08-25T07:15:49.000Z</time>
      </trkpt>
      <trkpt lat="45.55673" lon="5.99865">
        <ele>652.20001220703</ele>
        <time>2013-08-25T07:15:52.000Z</time>
      </trkpt>
      <trkpt lat="45.55676" lon="5.99864">
        <ele>651.59997558594</ele>
        <time>2013-08-25T07:16:18.000Z</time>
      </trkpt>
      <trkpt lat="45.55676" lon="5.99864">
        <ele>651.59997558594</ele>
        <time>2013-08-25T07:16:27.000Z</time>
      </trkpt>
      <trkpt lat="45.55676" lon="5.99864">
        <ele>651.59997558594</ele>
        <time>2013-08-25T07:16:29.000Z</time>
      </trkpt>
      <trkpt lat="45.55676" lon="5.99862">
        <ele>651</ele>
        <time>2013-08-25T07:16:41.000Z</time>
      </trkpt>
      <trkpt lat="45.55676" lon="5.99863">
        <ele>651.40002441406</ele>
        <time>2013-08-25T07:16:42.000Z</time>
      </trkpt>
      <trkpt lat="45.55678" lon="5.99863">
        <ele>651.40002441406</ele>
        <time>2013-08-25T07:16:43.000Z</time>
      </trkpt>
      <trkpt lat="45.55684" lon="5.99864">
        <ele>651.40002441406</ele>
        <time>2013-08-25T07:16:47.000Z</time>
      </trkpt>
      <trkpt lat="45.55686" lon="5.99865">
        <ele>651.40002441406</ele>
        <time>2013-08-25T07:16:48.000Z</time>
      </trkpt>
      <trkpt lat="45.55691" lon="5.99868">
        <ele>652.20001220703</ele>
        <time>2013-08-25T07:16:51.000Z</time>
      </trkpt>
      <trkpt lat="45.55693" lon="5.99869">
        <ele>652.79998779297</ele>
        <time>2013-08-25T07:16:52.000Z</time>
      </trkpt>
      <trkpt lat="45.55695" lon="5.99872">
        <ele>653.40002441406</ele>
        <time>2013-08-25T07:16:53.000Z</time>
      </trkpt>
      <trkpt lat="45.55699" lon="5.99876">
        <ele>654.59997558594</ele>
        <time>2013-08-25T07:16:56.000Z</time>
      </trkpt>
      <trkpt lat="45.55701" lon="5.99876">
        <ele>654.79998779297</ele>
        <time>2013-08-25T07:16:57.000Z</time>
      </trkpt>
      <trkpt lat="45.55705" lon="5.99881">
        <ele>656.20001220703</ele>
        <time>2013-08-25T07:17:00.000Z</time>
      </trkpt>
      <trkpt lat="45.55706" lon="5.99883">
        <ele>656.79998779297</ele>
        <time>2013-08-25T07:17:01.000Z</time>
      </trkpt>
      <trkpt lat="45.55708" lon="5.99884">
        <ele>657.20001220703</ele>
        <time>2013-08-25T07:17:02.000Z</time>
      </trkpt>
      <trkpt lat="45.55712" lon="5.99887">
        <ele>658</ele>
        <time>2013-08-25T07:17:05.000Z</time>
      </trkpt>
      <trkpt lat="45.55713" lon="5.99888">
        <ele>658.20001220703</ele>
        <time>2013-08-25T07:17:06.000Z</time>
      </trkpt>
      <trkpt lat="45.55714" lon="5.99888">
        <ele>658.20001220703</ele>
        <time>2013-08-25T07:17:07.000Z</time>
      </trkpt>
      <trkpt lat="45.55715" lon="5.99889">
        <ele>658.40002441406</ele>
        <time>2013-08-25T07:17:08.000Z</time>
      </trkpt>
      <trkpt lat="45.55716" lon="5.99889">
        <ele>658.40002441406</ele>
        <time>2013-08-25T07:17:09.000Z</time>
      </trkpt>
      <trkpt lat="45.55718" lon="5.99889">
        <ele>658.40002441406</ele>
        <time>2013-08-25T07:17:11.000Z</time>
      </trkpt>
      <trkpt lat="45.5572" lon="5.99892">
        <ele>659.20001220703</ele>
        <time>2013-08-25T07:17:14.000Z</time>
      </trkpt>
      <trkpt lat="45.5572" lon="5.99892">
        <ele>659.40002441406</ele>
        <time>2013-08-25T07:17:16.000Z</time>
      </trkpt>
      <trkpt lat="45.55731" lon="5.99907">
        <ele>663.79998779297</ele>
        <time>2013-08-25T07:17:27.000Z</time>
      </trkpt>
      <trkpt lat="45.55733" lon="5.99909">
        <ele>664.59997558594</ele>
        <time>2013-08-25T07:17:28.000Z</time>
      </trkpt>
      <trkpt lat="45.55736" lon="5.99913">
        <ele>665.59997558594</ele>
        <time>2013-08-25T07:17:30.000Z</time>
      </trkpt>
      <trkpt lat="45.55739" lon="5.99917">
        <ele>667</ele>
        <time>2013-08-25T07:17:32.000Z</time>
      </trkpt>
      <trkpt lat="45.55742" lon="5.99921">
        <ele>668.40002441406</ele>
        <time>2013-08-25T07:17:34.000Z</time>
      </trkpt>
      <trkpt lat="45.55745" lon="5.99924">
        <ele>669.40002441406</ele>
        <time>2013-08-25T07:17:36.000Z</time>
      </trkpt>
      <trkpt lat="45.55746" lon="5.99925">
        <ele>669.79998779297</ele>
        <time>2013-08-25T07:17:37.000Z</time>
      </trkpt>
      <trkpt lat="45.5575" lon="5.99929">
        <ele>671</ele>
        <time>2013-08-25T07:17:40.000Z</time>
      </trkpt>
      <trkpt lat="45.55756" lon="5.99931">
        <ele>671.79998779297</ele>
        <time>2013-08-25T07:17:43.000Z</time>
      </trkpt>
      <trkpt lat="45.55767" lon="5.99932">
        <ele>671.40002441406</ele>
        <time>2013-08-25T07:17:49.000Z</time>
      </trkpt>
      <trkpt lat="45.55777" lon="5.99934">
        <ele>671.40002441406</ele>
        <time>2013-08-25T07:17:54.000Z</time>
      </trkpt>
      <trkpt lat="45.55778" lon="5.99935">
        <ele>671.79998779297</ele>
        <time>2013-08-25T07:17:55.000Z</time>
      </trkpt>
      <trkpt lat="45.55781" lon="5.99936">
        <ele>672.40002441406</ele>
        <time>2013-08-25T07:17:57.000Z</time>
      </trkpt>
      <trkpt lat="45.55783" lon="5.99936">
        <ele>672</ele>
        <time>2013-08-25T07:17:59.000Z</time>
      </trkpt>
      <trkpt lat="45.55783" lon="5.99936">
        <ele>672</ele>
        <time>2013-08-25T07:18:00.000Z</time>
      </trkpt>
      <trkpt lat="45.55783" lon="5.99936">
        <ele>672</ele>
        <time>2013-08-25T07:18:01.000Z</time>
      </trkpt>
      <trkpt lat="45.55784" lon="5.99936">
        <ele>672</ele>
        <time>2013-08-25T07:18:02.000Z</time>
      </trkpt>
      <trkpt lat="45.55789" lon="5.99937">
        <ele>671.79998779297</ele>
        <time>2013-08-25T07:18:05.000Z</time>
      </trkpt>
      <trkpt lat="45.55795" lon="5.99937">
        <ele>671.40002441406</ele>
        <time>2013-08-25T07:18:08.000Z</time>
      </trkpt>
      <trkpt lat="45.558" lon="5.99938">
        <ele>671.79998779297</ele>
        <time>2013-08-25T07:18:10.000Z</time>
      </trkpt>
      <trkpt lat="45.55805" lon="5.9994">
        <ele>672.20001220703</ele>
        <time>2013-08-25T07:18:13.000Z</time>
      </trkpt>
      <trkpt lat="45.5581" lon="5.99939">
        <ele>671.59997558594</ele>
        <time>2013-08-25T07:18:15.000Z</time>
      </trkpt>
      <trkpt lat="45.55815" lon="5.99938">
        <ele>670.40002441406</ele>
        <time>2013-08-25T07:18:18.000Z</time>
      </trkpt>
      <trkpt lat="45.5582" lon="5.99938">
        <ele>670.20001220703</ele>
        <time>2013-08-25T07:18:20.000Z</time>
      </trkpt>
      <trkpt lat="45.55822" lon="5.99939">
        <ele>670.40002441406</ele>
        <time>2013-08-25T07:18:21.000Z</time>
      </trkpt>
      <trkpt lat="45.55825" lon="5.99941">
        <ele>671.20001220703</ele>
        <time>2013-08-25T07:18:22.000Z</time>
      </trkpt>
      <trkpt lat="45.55831" lon="5.99945">
        <ele>672.20001220703</ele>
        <time>2013-08-25T07:18:25.000Z</time>
      </trkpt>
      <trkpt lat="45.55834" lon="5.99948">
        <ele>673.20001220703</ele>
        <time>2013-08-25T07:18:27.000Z</time>
      </trkpt>
      <trkpt lat="45.55836" lon="5.99949">
        <ele>673.79998779297</ele>
        <time>2013-08-25T07:18:28.000Z</time>
      </trkpt>
      <trkpt lat="45.5584" lon="5.99952">
        <ele>674.40002441406</ele>
        <time>2013-08-25T07:18:30.000Z</time>
      </trkpt>
      <trkpt lat="45.55845" lon="5.99954">
        <ele>675</ele>
        <time>2013-08-25T07:18:34.000Z</time>
      </trkpt>
      <trkpt lat="45.55846" lon="5.99955">
        <ele>675.20001220703</ele>
        <time>2013-08-25T07:18:35.000Z</time>
      </trkpt>
      <trkpt lat="45.55848" lon="5.99956">
        <ele>675.59997558594</ele>
        <time>2013-08-25T07:18:37.000Z</time>
      </trkpt>
      <trkpt lat="45.55849" lon="5.99957">
        <ele>676</ele>
        <time>2013-08-25T07:18:38.000Z</time>
      </trkpt>
      <trkpt lat="45.5585" lon="5.99958">
        <ele>676.40002441406</ele>
        <time>2013-08-25T07:18:39.000Z</time>
      </trkpt>
      <trkpt lat="45.55851" lon="5.99959">
        <ele>676.59997558594</ele>
        <time>2013-08-25T07:18:40.000Z</time>
      </trkpt>
      <trkpt lat="45.55852" lon="5.99959">
        <ele>676.79998779297</ele>
        <time>2013-08-25T07:18:41.000Z</time>
      </trkpt>
      <trkpt lat="45.55854" lon="5.99962">
        <ele>677.59997558594</ele>
        <time>2013-08-25T07:18:43.000Z</time>
      </trkpt>
      <trkpt lat="45.55856" lon="5.99965">
        <ele>679</ele>
        <time>2013-08-25T07:18:45.000Z</time>
      </trkpt>
      <trkpt lat="45.55859" lon="5.99967">
        <ele>679.40002441406</ele>
        <time>2013-08-25T07:18:47.000Z</time>
      </trkpt>
      <trkpt lat="45.55868" lon="5.99974">
        <ele>681.59997558594</ele>
        <time>2013-08-25T07:18:52.000Z</time>
      </trkpt>
      <trkpt lat="45.55869" lon="5.99975">
        <ele>681.79998779297</ele>
        <time>2013-08-25T07:18:53.000Z</time>
      </trkpt>
      <trkpt lat="45.55871" lon="5.99977">
        <ele>682.40002441406</ele>
        <time>2013-08-25T07:18:55.000Z</time>
      </trkpt>
      <trkpt lat="45.55872" lon="5.99978">
        <ele>682.79998779297</ele>
        <time>2013-08-25T07:18:56.000Z</time>
      </trkpt>
      <trkpt lat="45.55873" lon="5.99979">
        <ele>683.20001220703</ele>
        <time>2013-08-25T07:18:57.000Z</time>
      </trkpt>
      <trkpt lat="45.55874" lon="5.9998">
        <ele>683.40002441406</ele>
        <time>2013-08-25T07:18:58.000Z</time>
      </trkpt>
      <trkpt lat="45.55878" lon="5.99981">
        <ele>683.40002441406</ele>
        <time>2013-08-25T07:19:00.000Z</time>
      </trkpt>
      <trkpt lat="45.55883" lon="5.99982">
        <ele>683.40002441406</ele>
        <time>2013-08-25T07:19:02.000Z</time>
      </trkpt>
      <trkpt lat="45.55893" lon="5.99985">
        <ele>684.20001220703</ele>
        <time>2013-08-25T07:19:05.000Z</time>
      </trkpt>
      <trkpt lat="45.55895" lon="5.99986">
        <ele>684.20001220703</ele>
        <time>2013-08-25T07:19:06.000Z</time>
      </trkpt>
      <trkpt lat="45.55899" lon="5.99986">
        <ele>684.20001220703</ele>
        <time>2013-08-25T07:19:08.000Z</time>
      </trkpt>
      <trkpt lat="45.55916" lon="5.99991">
        <ele>684.79998779297</ele>
        <time>2013-08-25T07:19:17.000Z</time>
      </trkpt>
      <trkpt lat="45.55918" lon="5.99991">
        <ele>684.79998779297</ele>
        <time>2013-08-25T07:19:18.000Z</time>
      </trkpt>
      <trkpt lat="45.5592" lon="5.99992">
        <ele>685.20001220703</ele>
        <time>2013-08-25T07:19:20.000Z</time>
      </trkpt>
      <trkpt lat="45.55931" lon="5.99992">
        <ele>686</ele>
        <time>2013-08-25T07:19:27.000Z</time>
      </trkpt>
      <trkpt lat="45.55942" lon="5.99992">
        <ele>686.59997558594</ele>
        <time>2013-08-25T07:19:34.000Z</time>
      </trkpt>
      <trkpt lat="45.55947" lon="5.99991">
        <ele>687</ele>
        <time>2013-08-25T07:19:37.000Z</time>
      </trkpt>
      <trkpt lat="45.5595" lon="5.99992">
        <ele>687.40002441406</ele>
        <time>2013-08-25T07:19:39.000Z</time>
      </trkpt>
      <trkpt lat="45.55955" lon="5.99991">
        <ele>687.40002441406</ele>
        <time>2013-08-25T07:19:41.000Z</time>
      </trkpt>
      <trkpt lat="45.55957" lon="5.99991">
        <ele>687.59997558594</ele>
        <time>2013-08-25T07:19:42.000Z</time>
      </trkpt>
      <trkpt lat="45.55967" lon="5.99992">
        <ele>688.40002441406</ele>
        <time>2013-08-25T07:19:48.000Z</time>
      </trkpt>
      <trkpt lat="45.55984" lon="5.99979">
        <ele>686</ele>
        <time>2013-08-25T07:19:59.000Z</time>
      </trkpt>
      <trkpt lat="45.55985" lon="5.99977">
        <ele>685.59997558594</ele>
        <time>2013-08-25T07:20:00.000Z</time>
      </trkpt>
      <trkpt lat="45.55987" lon="5.99975">
        <ele>685.20001220703</ele>
        <time>2013-08-25T07:20:01.000Z</time>
      </trkpt>
      <trkpt lat="45.55989" lon="5.99973">
        <ele>684.79998779297</ele>
        <time>2013-08-25T07:20:03.000Z</time>
      </trkpt>
      <trkpt lat="45.55991" lon="5.99973">
        <ele>685</ele>
        <time>2013-08-25T07:20:04.000Z</time>
      </trkpt>
      <trkpt lat="45.56001" lon="5.99973">
        <ele>686.20001220703</ele>
        <time>2013-08-25T07:20:10.000Z</time>
      </trkpt>
      <trkpt lat="45.56005" lon="5.99972">
        <ele>686.79998779297</ele>
        <time>2013-08-25T07:20:13.000Z</time>
      </trkpt>
      <trkpt lat="45.56006" lon="5.99971">
        <ele>687</ele>
        <time>2013-08-25T07:20:14.000Z</time>
      </trkpt>
      <trkpt lat="45.56009" lon="5.9997">
        <ele>687.40002441406</ele>
        <time>2013-08-25T07:20:16.000Z</time>
      </trkpt>
      <trkpt lat="45.56012" lon="5.99969">
        <ele>687.79998779297</ele>
        <time>2013-08-25T07:20:18.000Z</time>
      </trkpt>
      <trkpt lat="45.56015" lon="5.99968">
        <ele>688.20001220703</ele>
        <time>2013-08-25T07:20:20.000Z</time>
      </trkpt>
      <trkpt lat="45.56017" lon="5.99968">
        <ele>688.79998779297</ele>
        <time>2013-08-25T07:20:21.000Z</time>
      </trkpt>
      <trkpt lat="45.56018" lon="5.99967">
        <ele>689</ele>
        <time>2013-08-25T07:20:22.000Z</time>
      </trkpt>
      <trkpt lat="45.5602" lon="5.99966">
        <ele>689.20001220703</ele>
        <time>2013-08-25T07:20:23.000Z</time>
      </trkpt>
      <trkpt lat="45.56026" lon="5.99963">
        <ele>690</ele>
        <time>2013-08-25T07:20:26.000Z</time>
      </trkpt>
      <trkpt lat="45.5604" lon="5.99959">
        <ele>692.40002441406</ele>
        <time>2013-08-25T07:20:34.000Z</time>
      </trkpt>
      <trkpt lat="45.56043" lon="5.99959">
        <ele>693.40002441406</ele>
        <time>2013-08-25T07:20:36.000Z</time>
      </trkpt>
      <trkpt lat="45.56047" lon="5.99959">
        <ele>694</ele>
        <time>2013-08-25T07:20:38.000Z</time>
      </trkpt>
      <trkpt lat="45.56049" lon="5.99958">
        <ele>694.40002441406</ele>
        <time>2013-08-25T07:20:39.000Z</time>
      </trkpt>
      <trkpt lat="45.56055" lon="5.99956">
        <ele>695.20001220703</ele>
        <time>2013-08-25T07:20:43.000Z</time>
      </trkpt>
      <trkpt lat="45.56056" lon="5.99956">
        <ele>695.59997558594</ele>
        <time>2013-08-25T07:20:44.000Z</time>
      </trkpt>
      <trkpt lat="45.56063" lon="5.9995">
        <ele>695.79998779297</ele>
        <time>2013-08-25T07:20:49.000Z</time>
      </trkpt>
      <trkpt lat="45.56067" lon="5.99947">
        <ele>696</ele>
        <time>2013-08-25T07:20:52.000Z</time>
      </trkpt>
      <trkpt lat="45.56069" lon="5.99944">
        <ele>696</ele>
        <time>2013-08-25T07:20:54.000Z</time>
      </trkpt>
      <trkpt lat="45.56072" lon="5.99942">
        <ele>696.20001220703</ele>
        <time>2013-08-25T07:20:56.000Z</time>
      </trkpt>
      <trkpt lat="45.56074" lon="5.99941">
        <ele>696.20001220703</ele>
        <time>2013-08-25T07:20:57.000Z</time>
      </trkpt>
      <trkpt lat="45.5608" lon="5.99939">
        <ele>697</ele>
        <time>2013-08-25T07:21:01.000Z</time>
      </trkpt>
      <trkpt lat="45.56081" lon="5.99939">
        <ele>697.40002441406</ele>
        <time>2013-08-25T07:21:02.000Z</time>
      </trkpt>
      <trkpt lat="45.56085" lon="5.99942">
        <ele>699.40002441406</ele>
        <time>2013-08-25T07:21:06.000Z</time>
      </trkpt>
      <trkpt lat="45.56084" lon="5.99945">
        <ele>700</ele>
        <time>2013-08-25T07:21:09.000Z</time>
      </trkpt>
      <trkpt lat="45.56083" lon="5.99946">
        <ele>700.20001220703</ele>
        <time>2013-08-25T07:21:11.000Z</time>
      </trkpt>
      <trkpt lat="45.56082" lon="5.99947">
        <ele>700</ele>
        <time>2013-08-25T07:21:13.000Z</time>
      </trkpt>
      <trkpt lat="45.5608" lon="5.99948">
        <ele>699.59997558594</ele>
        <time>2013-08-25T07:21:17.000Z</time>
      </trkpt>
      <trkpt lat="45.56079" lon="5.99948">
        <ele>699.59997558594</ele>
        <time>2013-08-25T07:21:18.000Z</time>
      </trkpt>
      <trkpt lat="45.56076" lon="5.99952">
        <ele>699.59997558594</ele>
        <time>2013-08-25T07:21:24.000Z</time>
      </trkpt>
      <trkpt lat="45.5607" lon="5.99961">
        <ele>700.59997558594</ele>
        <time>2013-08-25T07:21:27.000Z</time>
      </trkpt>
      <trkpt lat="45.56069" lon="5.99963">
        <ele>700.79998779297</ele>
        <time>2013-08-25T07:21:28.000Z</time>
      </trkpt>
      <trkpt lat="45.56064" lon="5.99968">
        <ele>700.79998779297</ele>
        <time>2013-08-25T07:21:31.000Z</time>
      </trkpt>
      <trkpt lat="45.56061" lon="5.99976">
        <ele>702.20001220703</ele>
        <time>2013-08-25T07:21:34.000Z</time>
      </trkpt>
      <trkpt lat="45.56056" lon="5.99984">
        <ele>703.40002441406</ele>
        <time>2013-08-25T07:21:37.000Z</time>
      </trkpt>
      <trkpt lat="45.56054" lon="5.99988">
        <ele>703.79998779297</ele>
        <time>2013-08-25T07:21:39.000Z</time>
      </trkpt>
      <trkpt lat="45.56051" lon="5.99993">
        <ele>704.40002441406</ele>
        <time>2013-08-25T07:21:41.000Z</time>
      </trkpt>
      <trkpt lat="45.56049" lon="5.99995">
        <ele>704.59997558594</ele>
        <time>2013-08-25T07:21:42.000Z</time>
      </trkpt>
      <trkpt lat="45.56041" lon="6.00001">
        <ele>703.79998779297</ele>
        <time>2013-08-25T07:21:47.000Z</time>
      </trkpt>
      <trkpt lat="45.5604" lon="6.00003">
        <ele>703.40002441406</ele>
        <time>2013-08-25T07:21:48.000Z</time>
      </trkpt>
      <trkpt lat="45.56026" lon="6.00019">
        <ele>699.79998779297</ele>
        <time>2013-08-25T07:21:58.000Z</time>
      </trkpt>
      <trkpt lat="45.56024" lon="6.00019">
        <ele>699.20001220703</ele>
        <time>2013-08-25T07:21:59.000Z</time>
      </trkpt>
      <trkpt lat="45.56018" lon="6.00025">
        <ele>697.79998779297</ele>
        <time>2013-08-25T07:22:04.000Z</time>
      </trkpt>
      <trkpt lat="45.56011" lon="6.00035">
        <ele>696</ele>
        <time>2013-08-25T07:22:12.000Z</time>
      </trkpt>
      <trkpt lat="45.56011" lon="6.00036">
        <ele>695.79998779297</ele>
        <time>2013-08-25T07:22:13.000Z</time>
      </trkpt>
      <trkpt lat="45.56009" lon="6.00039">
        <ele>695.20001220703</ele>
        <time>2013-08-25T07:22:15.000Z</time>
      </trkpt>
      <trkpt lat="45.56008" lon="6.0004">
        <ele>695</ele>
        <time>2013-08-25T07:22:16.000Z</time>
      </trkpt>
      <trkpt lat="45.56003" lon="6.00045">
        <ele>710.40002441406</ele>
        <time>2013-08-25T07:22:21.000Z</time>
      </trkpt>
      <trkpt lat="45.55998" lon="6.00047">
        <ele>710.20001220703</ele>
        <time>2013-08-25T07:22:26.000Z</time>
      </trkpt>
      <trkpt lat="45.55994" lon="6.0005">
        <ele>711</ele>
        <time>2013-08-25T07:22:30.000Z</time>
      </trkpt>
      <trkpt lat="45.55981" lon="6.0007">
        <ele>717.40002441406</ele>
        <time>2013-08-25T07:22:51.000Z</time>
      </trkpt>
      <trkpt lat="45.55981" lon="6.00073">
        <ele>718.59997558594</ele>
        <time>2013-08-25T07:23:12.000Z</time>
      </trkpt>
      <trkpt lat="45.55976" lon="6.00075">
        <ele>719</ele>
        <time>2013-08-25T07:23:25.000Z</time>
      </trkpt>
      <trkpt lat="45.55974" lon="6.00076">
        <ele>719.40002441406</ele>
        <time>2013-08-25T07:23:27.000Z</time>
      </trkpt>
      <trkpt lat="45.55973" lon="6.00077">
        <ele>719.59997558594</ele>
        <time>2013-08-25T07:23:28.000Z</time>
      </trkpt>
      <trkpt lat="45.55969" lon="6.00081">
        <ele>720.79998779297</ele>
        <time>2013-08-25T07:23:32.000Z</time>
      </trkpt>
      <trkpt lat="45.55969" lon="6.00085">
        <ele>722.59997558594</ele>
        <time>2013-08-25T07:23:52.000Z</time>
      </trkpt>
      <trkpt lat="45.55973" lon="6.00082">
        <ele>721.59997558594</ele>
        <time>2013-08-25T07:23:55.000Z</time>
      </trkpt>
      <trkpt lat="45.55981" lon="6.0008">
        <ele>721.40002441406</ele>
        <time>2013-08-25T07:24:00.000Z</time>
      </trkpt>
      <trkpt lat="45.5599" lon="6.00083">
        <ele>722.79998779297</ele>
        <time>2013-08-25T07:24:05.000Z</time>
      </trkpt>
      <trkpt lat="45.55995" lon="6.00081">
        <ele>722.79998779297</ele>
        <time>2013-08-25T07:24:09.000Z</time>
      </trkpt>
      <trkpt lat="45.55997" lon="6.0008">
        <ele>722.59997558594</ele>
        <time>2013-08-25T07:24:10.000Z</time>
      </trkpt>
      <trkpt lat="45.56013" lon="6.00075">
        <ele>723</ele>
        <time>2013-08-25T07:24:22.000Z</time>
      </trkpt>
      <trkpt lat="45.56021" lon="6.00072">
        <ele>723.40002441406</ele>
        <time>2013-08-25T07:24:28.000Z</time>
      </trkpt>
      <trkpt lat="45.56023" lon="6.00072">
        <ele>723.59997558594</ele>
        <time>2013-08-25T07:24:29.000Z</time>
      </trkpt>
      <trkpt lat="45.5604" lon="6.00061">
        <ele>722.79998779297</ele>
        <time>2013-08-25T07:24:39.000Z</time>
      </trkpt>
      <trkpt lat="45.56042" lon="6.00057">
        <ele>722.20001220703</ele>
        <time>2013-08-25T07:24:42.000Z</time>
      </trkpt>
      <trkpt lat="45.56043" lon="6.00056">
        <ele>722</ele>
        <time>2013-08-25T07:24:43.000Z</time>
      </trkpt>
      <trkpt lat="45.56048" lon="6.00047">
        <ele>720</ele>
        <time>2013-08-25T07:24:49.000Z</time>
      </trkpt>
      <trkpt lat="45.56052" lon="6.00039">
        <ele>718.59997558594</ele>
        <time>2013-08-25T07:24:53.000Z</time>
      </trkpt>
      <trkpt lat="45.56056" lon="6.00037">
        <ele>718.59997558594</ele>
        <time>2013-08-25T07:24:55.000Z</time>
      </trkpt>
      <trkpt lat="45.56062" lon="6.00032">
        <ele>718.59997558594</ele>
        <time>2013-08-25T07:24:59.000Z</time>
      </trkpt>
      <trkpt lat="45.56065" lon="6.00029">
        <ele>718.20001220703</ele>
        <time>2013-08-25T07:25:01.000Z</time>
      </trkpt>
      <trkpt lat="45.56067" lon="6.00026">
        <ele>718</ele>
        <time>2013-08-25T07:25:03.000Z</time>
      </trkpt>
      <trkpt lat="45.5607" lon="6.00024">
        <ele>718</ele>
        <time>2013-08-25T07:25:05.000Z</time>
      </trkpt>
      <trkpt lat="45.56072" lon="6.00021">
        <ele>717.59997558594</ele>
        <time>2013-08-25T07:25:07.000Z</time>
      </trkpt>
      <trkpt lat="45.56082" lon="6.00016">
        <ele>718.59997558594</ele>
        <time>2013-08-25T07:25:16.000Z</time>
      </trkpt>
      <trkpt lat="45.56113" lon="6.00011">
        <ele>728</ele>
        <time>2013-08-25T07:25:35.000Z</time>
      </trkpt>
      <trkpt lat="45.56126" lon="6.00005">
        <ele>731.40002441406</ele>
        <time>2013-08-25T07:25:45.000Z</time>
      </trkpt>
      <trkpt lat="45.56128" lon="6.00004">
        <ele>731.79998779297</ele>
        <time>2013-08-25T07:25:46.000Z</time>
      </trkpt>
      <trkpt lat="45.56142" lon="5.99996">
        <ele>736</ele>
        <time>2013-08-25T07:25:57.000Z</time>
      </trkpt>
      <trkpt lat="45.56156" lon="5.99979">
        <ele>741.20001220703</ele>
        <time>2013-08-25T07:26:08.000Z</time>
      </trkpt>
      <trkpt lat="45.56158" lon="5.99976">
        <ele>741.79998779297</ele>
        <time>2013-08-25T07:26:10.000Z</time>
      </trkpt>
      <trkpt lat="45.56159" lon="5.99974">
        <ele>742.20001220703</ele>
        <time>2013-08-25T07:26:12.000Z</time>
      </trkpt>
      <trkpt lat="45.5616" lon="5.99972">
        <ele>742.40002441406</ele>
        <time>2013-08-25T07:26:13.000Z</time>
      </trkpt>
      <trkpt lat="45.56162" lon="5.99967">
        <ele>743</ele>
        <time>2013-08-25T07:26:15.000Z</time>
      </trkpt>
      <trkpt lat="45.56164" lon="5.99962">
        <ele>744</ele>
        <time>2013-08-25T07:26:18.000Z</time>
      </trkpt>
      <trkpt lat="45.56166" lon="5.99959">
        <ele>744.59997558594</ele>
        <time>2013-08-25T07:26:20.000Z</time>
      </trkpt>
      <trkpt lat="45.5617" lon="5.99956">
        <ele>735.40002441406</ele>
        <time>2013-08-25T07:26:23.000Z</time>
      </trkpt>
      <trkpt lat="45.56176" lon="5.99946">
        <ele>735.59997558594</ele>
        <time>2013-08-25T07:26:30.000Z</time>
      </trkpt>
      <trkpt lat="45.56178" lon="5.99942">
        <ele>735.40002441406</ele>
        <time>2013-08-25T07:26:32.000Z</time>
      </trkpt>
      <trkpt lat="45.56191" lon="5.9992">
        <ele>736.20001220703</ele>
        <time>2013-08-25T07:26:46.000Z</time>
      </trkpt>
      <trkpt lat="45.56191" lon="5.99918">
        <ele>736.20001220703</ele>
        <time>2013-08-25T07:26:47.000Z</time>
      </trkpt>
      <trkpt lat="45.56194" lon="5.99911">
        <ele>735.40002441406</ele>
        <time>2013-08-25T07:26:50.000Z</time>
      </trkpt>
      <trkpt lat="45.56195" lon="5.9991">
        <ele>735.40002441406</ele>
        <time>2013-08-25T07:26:51.000Z</time>
      </trkpt>
      <trkpt lat="45.56198" lon="5.99904">
        <ele>735.59997558594</ele>
        <time>2013-08-25T07:26:54.000Z</time>
      </trkpt>
      <trkpt lat="45.562" lon="5.99902">
        <ele>735.59997558594</ele>
        <time>2013-08-25T07:26:55.000Z</time>
      </trkpt>
      <trkpt lat="45.56201" lon="5.999">
        <ele>735.79998779297</ele>
        <time>2013-08-25T07:26:56.000Z</time>
      </trkpt>
      <trkpt lat="45.56202" lon="5.99898">
        <ele>736</ele>
        <time>2013-08-25T07:26:57.000Z</time>
      </trkpt>
      <trkpt lat="45.56204" lon="5.99897">
        <ele>736.20001220703</ele>
        <time>2013-08-25T07:26:58.000Z</time>
      </trkpt>
      <trkpt lat="45.56205" lon="5.99896">
        <ele>736.59997558594</ele>
        <time>2013-08-25T07:26:59.000Z</time>
      </trkpt>
      <trkpt lat="45.5621" lon="5.99891">
        <ele>737.59997558594</ele>
        <time>2013-08-25T07:27:03.000Z</time>
      </trkpt>
      <trkpt lat="45.56216" lon="5.99886">
        <ele>739.40002441406</ele>
        <time>2013-08-25T07:27:08.000Z</time>
      </trkpt>
      <trkpt lat="45.56217" lon="5.99884">
        <ele>739.40002441406</ele>
        <time>2013-08-25T07:27:10.000Z</time>
      </trkpt>
      <trkpt lat="45.56219" lon="5.9988">
        <ele>739.40002441406</ele>
        <time>2013-08-25T07:27:12.000Z</time>
      </trkpt>
      <trkpt lat="45.5622" lon="5.99879">
        <ele>739.59997558594</ele>
        <time>2013-08-25T07:27:13.000Z</time>
      </trkpt>
      <trkpt lat="45.56223" lon="5.99876">
        <ele>740.40002441406</ele>
        <time>2013-08-25T07:27:15.000Z</time>
      </trkpt>
      <trkpt lat="45.56224" lon="5.99875">
        <ele>740.79998779297</ele>
        <time>2013-08-25T07:27:16.000Z</time>
      </trkpt>
      <trkpt lat="45.56235" lon="5.99861">
        <ele>742.79998779297</ele>
        <time>2013-08-25T07:27:25.000Z</time>
      </trkpt>
      <trkpt lat="45.56236" lon="5.9986">
        <ele>743</ele>
        <time>2013-08-25T07:27:26.000Z</time>
      </trkpt>
      <trkpt lat="45.56245" lon="5.99835">
        <ele>741.59997558594</ele>
        <time>2013-08-25T07:27:38.000Z</time>
      </trkpt>
      <trkpt lat="45.56245" lon="5.99833">
        <ele>741.20001220703</ele>
        <time>2013-08-25T07:27:39.000Z</time>
      </trkpt>
      <trkpt lat="45.56246" lon="5.99829">
        <ele>740.40002441406</ele>
        <time>2013-08-25T07:27:41.000Z</time>
      </trkpt>
      <trkpt lat="45.56247" lon="5.99827">
        <ele>740</ele>
        <time>2013-08-25T07:27:42.000Z</time>
      </trkpt>
      <trkpt lat="45.56247" lon="5.99822">
        <ele>739</ele>
        <time>2013-08-25T07:27:44.000Z</time>
      </trkpt>
      <trkpt lat="45.56247" lon="5.9982">
        <ele>738.40002441406</ele>
        <time>2013-08-25T07:27:45.000Z</time>
      </trkpt>
      <trkpt lat="45.56248" lon="5.99818">
        <ele>738</ele>
        <time>2013-08-25T07:27:46.000Z</time>
      </trkpt>
      <trkpt lat="45.56248" lon="5.99817">
        <ele>737.79998779297</ele>
        <time>2013-08-25T07:27:47.000Z</time>
      </trkpt>
      <trkpt lat="45.56248" lon="5.99816">
        <ele>737.40002441406</ele>
        <time>2013-08-25T07:27:48.000Z</time>
      </trkpt>
      <trkpt lat="45.56248" lon="5.99814">
        <ele>737</ele>
        <time>2013-08-25T07:27:49.000Z</time>
      </trkpt>
      <trkpt lat="45.56249" lon="5.99813">
        <ele>737</ele>
        <time>2013-08-25T07:27:50.000Z</time>
      </trkpt>
      <trkpt lat="45.56257" lon="5.99801">
        <ele>735.20001220703</ele>
        <time>2013-08-25T07:27:58.000Z</time>
      </trkpt>
      <trkpt lat="45.56258" lon="5.99799">
        <ele>735</ele>
        <time>2013-08-25T07:27:59.000Z</time>
      </trkpt>
      <trkpt lat="45.56264" lon="5.99793">
        <ele>734.40002441406</ele>
        <time>2013-08-25T07:28:05.000Z</time>
      </trkpt>
      <trkpt lat="45.56276" lon="5.99791">
        <ele>736.40002441406</ele>
        <time>2013-08-25T07:28:12.000Z</time>
      </trkpt>
      <trkpt lat="45.56287" lon="5.99796">
        <ele>740.59997558594</ele>
        <time>2013-08-25T07:28:23.000Z</time>
      </trkpt>
      <trkpt lat="45.56292" lon="5.99801">
        <ele>743</ele>
        <time>2013-08-25T07:28:27.000Z</time>
      </trkpt>
      <trkpt lat="45.56295" lon="5.99803">
        <ele>744</ele>
        <time>2013-08-25T07:28:29.000Z</time>
      </trkpt>
      <trkpt lat="45.56297" lon="5.99804">
        <ele>744.79998779297</ele>
        <time>2013-08-25T07:28:30.000Z</time>
      </trkpt>
      <trkpt lat="45.56306" lon="5.9981">
        <ele>748</ele>
        <time>2013-08-25T07:28:35.000Z</time>
      </trkpt>
      <trkpt lat="45.56308" lon="5.99813">
        <ele>749</ele>
        <time>2013-08-25T07:28:37.000Z</time>
      </trkpt>
      <trkpt lat="45.5631" lon="5.99814">
        <ele>749.59997558594</ele>
        <time>2013-08-25T07:28:38.000Z</time>
      </trkpt>
      <trkpt lat="45.56311" lon="5.99816">
        <ele>750</ele>
        <time>2013-08-25T07:28:39.000Z</time>
      </trkpt>
      <trkpt lat="45.56313" lon="5.99821">
        <ele>751.59997558594</ele>
        <time>2013-08-25T07:28:42.000Z</time>
      </trkpt>
      <trkpt lat="45.56316" lon="5.99825">
        <ele>753.20001220703</ele>
        <time>2013-08-25T07:28:45.000Z</time>
      </trkpt>
      <trkpt lat="45.5633" lon="5.99835">
        <ele>757.79998779297</ele>
        <time>2013-08-25T07:28:54.000Z</time>
      </trkpt>
      <trkpt lat="45.56332" lon="5.99836">
        <ele>758.20001220703</ele>
        <time>2013-08-25T07:28:55.000Z</time>
      </trkpt>
      <trkpt lat="45.56333" lon="5.99837">
        <ele>758.79998779297</ele>
        <time>2013-08-25T07:28:56.000Z</time>
      </trkpt>
      <trkpt lat="45.56337" lon="5.99839">
        <ele>759.40002441406</ele>
        <time>2013-08-25T07:28:58.000Z</time>
      </trkpt>
      <trkpt lat="45.56339" lon="5.9984">
        <ele>759.59997558594</ele>
        <time>2013-08-25T07:28:59.000Z</time>
      </trkpt>
      <trkpt lat="45.56375" lon="5.99843">
        <ele>760</ele>
        <time>2013-08-25T07:29:16.000Z</time>
      </trkpt>
      <trkpt lat="45.56376" lon="5.99852">
        <ele>761.59997558594</ele>
        <time>2013-08-25T07:29:20.000Z</time>
      </trkpt>
      <trkpt lat="45.56373" lon="5.9986">
        <ele>763.40002441406</ele>
        <time>2013-08-25T07:29:23.000Z</time>
      </trkpt>
      <trkpt lat="45.5637" lon="5.99867">
        <ele>764.59997558594</ele>
        <time>2013-08-25T07:29:26.000Z</time>
      </trkpt>
      <trkpt lat="45.56369" lon="5.99869">
        <ele>765.20001220703</ele>
        <time>2013-08-25T07:29:27.000Z</time>
      </trkpt>
      <trkpt lat="45.56368" lon="5.99871">
        <ele>765.59997558594</ele>
        <time>2013-08-25T07:29:28.000Z</time>
      </trkpt>
      <trkpt lat="45.56366" lon="5.99873">
        <ele>766.20001220703</ele>
        <time>2013-08-25T07:29:29.000Z</time>
      </trkpt>
      <trkpt lat="45.56352" lon="5.99877">
        <ele>768</ele>
        <time>2013-08-25T07:29:38.000Z</time>
      </trkpt>
      <trkpt lat="45.5635" lon="5.99877">
        <ele>768.20001220703</ele>
        <time>2013-08-25T07:29:39.000Z</time>
      </trkpt>
      <trkpt lat="45.56341" lon="5.99878">
        <ele>769.20001220703</ele>
        <time>2013-08-25T07:29:43.000Z</time>
      </trkpt>
      <trkpt lat="45.56337" lon="5.99878">
        <ele>769.40002441406</ele>
        <time>2013-08-25T07:29:45.000Z</time>
      </trkpt>
      <trkpt lat="45.56335" lon="5.99877">
        <ele>769.40002441406</ele>
        <time>2013-08-25T07:29:46.000Z</time>
      </trkpt>
      <trkpt lat="45.5633" lon="5.99876">
        <ele>768.59997558594</ele>
        <time>2013-08-25T07:29:48.000Z</time>
      </trkpt>
      <trkpt lat="45.56328" lon="5.99874">
        <ele>767.79998779297</ele>
        <time>2013-08-25T07:29:49.000Z</time>
      </trkpt>
      <trkpt lat="45.56327" lon="5.99873">
        <ele>767.40002441406</ele>
        <time>2013-08-25T07:29:50.000Z</time>
      </trkpt>
      <trkpt lat="45.56324" lon="5.99872">
        <ele>766.40002441406</ele>
        <time>2013-08-25T07:29:52.000Z</time>
      </trkpt>
      <trkpt lat="45.56323" lon="5.99871">
        <ele>766</ele>
        <time>2013-08-25T07:29:53.000Z</time>
      </trkpt>
      <trkpt lat="45.56322" lon="5.99872">
        <ele>766</ele>
        <time>2013-08-25T07:29:54.000Z</time>
      </trkpt>
      <trkpt lat="45.5632" lon="5.99871">
        <ele>765.59997558594</ele>
        <time>2013-08-25T07:29:55.000Z</time>
      </trkpt>
      <trkpt lat="45.56305" lon="5.99868">
        <ele>762</ele>
        <time>2013-08-25T07:30:02.000Z</time>
      </trkpt>
      <trkpt lat="45.56299" lon="5.99868">
        <ele>760.79998779297</ele>
        <time>2013-08-25T07:30:05.000Z</time>
      </trkpt>
      <trkpt lat="45.56294" lon="5.99872">
        <ele>761.20001220703</ele>
        <time>2013-08-25T07:30:08.000Z</time>
      </trkpt>
      <trkpt lat="45.56293" lon="5.99876">
        <ele>762</ele>
        <time>2013-08-25T07:30:10.000Z</time>
      </trkpt>
      <trkpt lat="45.56296" lon="5.99879">
        <ele>763.40002441406</ele>
        <time>2013-08-25T07:30:15.000Z</time>
      </trkpt>
      <trkpt lat="45.56298" lon="5.9988">
        <ele>763.79998779297</ele>
        <time>2013-08-25T07:30:16.000Z</time>
      </trkpt>
      <trkpt lat="45.563" lon="5.9988">
        <ele>764.20001220703</ele>
        <time>2013-08-25T07:30:17.000Z</time>
      </trkpt>
      <trkpt lat="45.56303" lon="5.99883">
        <ele>765.40002441406</ele>
        <time>2013-08-25T07:30:19.000Z</time>
      </trkpt>
      <trkpt lat="45.56305" lon="5.99883">
        <ele>766</ele>
        <time>2013-08-25T07:30:20.000Z</time>
      </trkpt>
      <trkpt lat="45.56306" lon="5.99884">
        <ele>766.40002441406</ele>
        <time>2013-08-25T07:30:21.000Z</time>
      </trkpt>
      <trkpt lat="45.56312" lon="5.99885">
        <ele>767.79998779297</ele>
        <time>2013-08-25T07:30:24.000Z</time>
      </trkpt>
      <trkpt lat="45.56315" lon="5.99885">
        <ele>768.20001220703</ele>
        <time>2013-08-25T07:30:25.000Z</time>
      </trkpt>
      <trkpt lat="45.56322" lon="5.99886">
        <ele>769.59997558594</ele>
        <time>2013-08-25T07:30:28.000Z</time>
      </trkpt>
      <trkpt lat="45.56324" lon="5.99886">
        <ele>770.20001220703</ele>
        <time>2013-08-25T07:30:29.000Z</time>
      </trkpt>
      <trkpt lat="45.56326" lon="5.99887">
        <ele>770.59997558594</ele>
        <time>2013-08-25T07:30:30.000Z</time>
      </trkpt>
      <trkpt lat="45.56335" lon="5.99891">
        <ele>772.79998779297</ele>
        <time>2013-08-25T07:30:35.000Z</time>
      </trkpt>
      <trkpt lat="45.56338" lon="5.99893">
        <ele>773.20001220703</ele>
        <time>2013-08-25T07:30:37.000Z</time>
      </trkpt>
      <trkpt lat="45.56339" lon="5.99893">
        <ele>773.20001220703</ele>
        <time>2013-08-25T07:30:38.000Z</time>
      </trkpt>
      <trkpt lat="45.56341" lon="5.99894">
        <ele>773.20001220703</ele>
        <time>2013-08-25T07:30:39.000Z</time>
      </trkpt>
      <trkpt lat="45.56344" lon="5.99895">
        <ele>773</ele>
        <time>2013-08-25T07:30:40.000Z</time>
      </trkpt>
      <trkpt lat="45.5635" lon="5.99896">
        <ele>772.59997558594</ele>
        <time>2013-08-25T07:30:42.000Z</time>
      </trkpt>
      <trkpt lat="45.56353" lon="5.99896">
        <ele>772.40002441406</ele>
        <time>2013-08-25T07:30:43.000Z</time>
      </trkpt>
      <trkpt lat="45.56357" lon="5.99899">
        <ele>772.40002441406</ele>
        <time>2013-08-25T07:30:45.000Z</time>
      </trkpt>
      <trkpt lat="45.5636" lon="5.999">
        <ele>772.20001220703</ele>
        <time>2013-08-25T07:30:46.000Z</time>
      </trkpt>
      <trkpt lat="45.56362" lon="5.99903">
        <ele>772.59997558594</ele>
        <time>2013-08-25T07:30:47.000Z</time>
      </trkpt>
      <trkpt lat="45.56368" lon="5.99906">
        <ele>772.59997558594</ele>
        <time>2013-08-25T07:30:49.000Z</time>
      </trkpt>
      <trkpt lat="45.5637" lon="5.99908">
        <ele>772.40002441406</ele>
        <time>2013-08-25T07:30:50.000Z</time>
      </trkpt>
      <trkpt lat="45.56374" lon="5.99912">
        <ele>772.79998779297</ele>
        <time>2013-08-25T07:30:52.000Z</time>
      </trkpt>
      <trkpt lat="45.56375" lon="5.99913">
        <ele>772.59997558594</ele>
        <time>2013-08-25T07:30:53.000Z</time>
      </trkpt>
      <trkpt lat="45.5638" lon="5.99916">
        <ele>772.40002441406</ele>
        <time>2013-08-25T07:30:55.000Z</time>
      </trkpt>
      <trkpt lat="45.56384" lon="5.9992">
        <ele>772.79998779297</ele>
        <time>2013-08-25T07:30:57.000Z</time>
      </trkpt>
      <trkpt lat="45.56386" lon="5.99924">
        <ele>773.20001220703</ele>
        <time>2013-08-25T07:30:58.000Z</time>
      </trkpt>
      <trkpt lat="45.56388" lon="5.99927">
        <ele>773.59997558594</ele>
        <time>2013-08-25T07:30:59.000Z</time>
      </trkpt>
      <trkpt lat="45.56395" lon="5.99936">
        <ele>774.59997558594</ele>
        <time>2013-08-25T07:31:01.000Z</time>
      </trkpt>
      <trkpt lat="45.56421" lon="5.99961">
        <ele>776.79998779297</ele>
        <time>2013-08-25T07:31:07.000Z</time>
      </trkpt>
      <trkpt lat="45.56425" lon="5.99966">
        <ele>777.59997558594</ele>
        <time>2013-08-25T07:31:09.000Z</time>
      </trkpt>
      <trkpt lat="45.5643" lon="5.99972">
        <ele>778.40002441406</ele>
        <time>2013-08-25T07:31:12.000Z</time>
      </trkpt>
      <trkpt lat="45.5644" lon="5.99996">
        <ele>782.40002441406</ele>
        <time>2013-08-25T07:31:22.000Z</time>
      </trkpt>
      <trkpt lat="45.56441" lon="6.00001">
        <ele>783</ele>
        <time>2013-08-25T07:31:24.000Z</time>
      </trkpt>
      <trkpt lat="45.56444" lon="6.00013">
        <ele>782.59997558594</ele>
        <time>2013-08-25T07:31:29.000Z</time>
      </trkpt>
      <trkpt lat="45.56443" lon="6.00016">
        <ele>782.59997558594</ele>
        <time>2013-08-25T07:31:30.000Z</time>
      </trkpt>
      <trkpt lat="45.56443" lon="6.00033">
        <ele>782.79998779297</ele>
        <time>2013-08-25T07:31:37.000Z</time>
      </trkpt>
      <trkpt lat="45.56443" lon="6.00035">
        <ele>782.79998779297</ele>
        <time>2013-08-25T07:31:38.000Z</time>
      </trkpt>
      <trkpt lat="45.56443" lon="6.00037">
        <ele>782.79998779297</ele>
        <time>2013-08-25T07:31:39.000Z</time>
      </trkpt>
      <trkpt lat="45.56443" lon="6.0004">
        <ele>782.79998779297</ele>
        <time>2013-08-25T07:31:40.000Z</time>
      </trkpt>
      <trkpt lat="45.56443" lon="6.00043">
        <ele>787.40002441406</ele>
        <time>2013-08-25T07:31:41.000Z</time>
      </trkpt>
      <trkpt lat="45.56442" lon="6.00048">
        <ele>788</ele>
        <time>2013-08-25T07:31:43.000Z</time>
      </trkpt>
      <trkpt lat="45.56442" lon="6.00051">
        <ele>788.40002441406</ele>
        <time>2013-08-25T07:31:44.000Z</time>
      </trkpt>
      <trkpt lat="45.5644" lon="6.00056">
        <ele>789.20001220703</ele>
        <time>2013-08-25T07:31:46.000Z</time>
      </trkpt>
      <trkpt lat="45.56439" lon="6.00058">
        <ele>789.59997558594</ele>
        <time>2013-08-25T07:31:47.000Z</time>
      </trkpt>
      <trkpt lat="45.56439" lon="6.00061">
        <ele>790</ele>
        <time>2013-08-25T07:31:48.000Z</time>
      </trkpt>
      <trkpt lat="45.56438" lon="6.00066">
        <ele>790.59997558594</ele>
        <time>2013-08-25T07:31:50.000Z</time>
      </trkpt>
      <trkpt lat="45.56435" lon="6.00086">
        <ele>793</ele>
        <time>2013-08-25T07:31:58.000Z</time>
      </trkpt>
      <trkpt lat="45.56435" lon="6.00089">
        <ele>792.79998779297</ele>
        <time>2013-08-25T07:31:59.000Z</time>
      </trkpt>
      <trkpt lat="45.56434" lon="6.00094">
        <ele>792.40002441406</ele>
        <time>2013-08-25T07:32:01.000Z</time>
      </trkpt>
      <trkpt lat="45.56435" lon="6.00101">
        <ele>791.79998779297</ele>
        <time>2013-08-25T07:32:04.000Z</time>
      </trkpt>
      <trkpt lat="45.56437" lon="6.00107">
        <ele>791</ele>
        <time>2013-08-25T07:32:06.000Z</time>
      </trkpt>
      <trkpt lat="45.56439" lon="6.0011">
        <ele>790.79998779297</ele>
        <time>2013-08-25T07:32:07.000Z</time>
      </trkpt>
      <trkpt lat="45.5644" lon="6.00113">
        <ele>790.40002441406</ele>
        <time>2013-08-25T07:32:08.000Z</time>
      </trkpt>
      <trkpt lat="45.56443" lon="6.00119">
        <ele>789.79998779297</ele>
        <time>2013-08-25T07:32:10.000Z</time>
      </trkpt>
      <trkpt lat="45.56449" lon="6.00122">
        <ele>789.20001220703</ele>
        <time>2013-08-25T07:32:12.000Z</time>
      </trkpt>
      <trkpt lat="45.56462" lon="6.00124">
        <ele>788.20001220703</ele>
        <time>2013-08-25T07:32:15.000Z</time>
      </trkpt>
      <trkpt lat="45.56473" lon="6.00127">
        <ele>787.40002441406</ele>
        <time>2013-08-25T07:32:19.000Z</time>
      </trkpt>
      <trkpt lat="45.56476" lon="6.00128">
        <ele>787.20001220703</ele>
        <time>2013-08-25T07:32:20.000Z</time>
      </trkpt>
      <trkpt lat="45.56478" lon="6.00129">
        <ele>787</ele>
        <time>2013-08-25T07:32:21.000Z</time>
      </trkpt>
      <trkpt lat="45.56484" lon="6.00133">
        <ele>786.79998779297</ele>
        <time>2013-08-25T07:32:24.000Z</time>
      </trkpt>
      <trkpt lat="45.56487" lon="6.00135">
        <ele>786.79998779297</ele>
        <time>2013-08-25T07:32:26.000Z</time>
      </trkpt>
      <trkpt lat="45.56488" lon="6.00137">
        <ele>786.79998779297</ele>
        <time>2013-08-25T07:32:27.000Z</time>
      </trkpt>
      <trkpt lat="45.56505" lon="6.00159">
        <ele>787.59997558594</ele>
        <time>2013-08-25T07:32:41.000Z</time>
      </trkpt>
      <trkpt lat="45.56506" lon="6.00159">
        <ele>787.59997558594</ele>
        <time>2013-08-25T07:33:01.000Z</time>
      </trkpt>
      <trkpt lat="45.56514" lon="6.00166">
        <ele>788</ele>
        <time>2013-08-25T07:33:23.000Z</time>
      </trkpt>
      <trkpt lat="45.56514" lon="6.00168">
        <ele>788</ele>
        <time>2013-08-25T07:33:24.000Z</time>
      </trkpt>
      <trkpt lat="45.5652" lon="6.00181">
        <ele>787.79998779297</ele>
        <time>2013-08-25T07:33:39.000Z</time>
      </trkpt>
      <trkpt lat="45.56521" lon="6.00182">
        <ele>787.79998779297</ele>
        <time>2013-08-25T07:33:42.000Z</time>
      </trkpt>
      <trkpt lat="45.56521" lon="6.00183">
        <ele>787.79998779297</ele>
        <time>2013-08-25T07:33:43.000Z</time>
      </trkpt>
      <trkpt lat="45.56521" lon="6.00185">
        <ele>787.79998779297</ele>
        <time>2013-08-25T07:33:44.000Z</time>
      </trkpt>
      <trkpt lat="45.5652" lon="6.00187">
        <ele>787.59997558594</ele>
        <time>2013-08-25T07:33:45.000Z</time>
      </trkpt>
      <trkpt lat="45.56518" lon="6.00193">
        <ele>787.40002441406</ele>
        <time>2013-08-25T07:33:48.000Z</time>
      </trkpt>
      <trkpt lat="45.56517" lon="6.00195">
        <ele>787.40002441406</ele>
        <time>2013-08-25T07:33:49.000Z</time>
      </trkpt>
      <trkpt lat="45.56516" lon="6.00198">
        <ele>787.20001220703</ele>
        <time>2013-08-25T07:33:51.000Z</time>
      </trkpt>
      <trkpt lat="45.56516" lon="6.00199">
        <ele>787.20001220703</ele>
        <time>2013-08-25T07:33:52.000Z</time>
      </trkpt>
      <trkpt lat="45.56515" lon="6.002">
        <ele>787.20001220703</ele>
        <time>2013-08-25T07:33:53.000Z</time>
      </trkpt>
      <trkpt lat="45.56529" lon="6.00223">
        <ele>787.20001220703</ele>
        <time>2013-08-25T07:34:10.000Z</time>
      </trkpt>
      <trkpt lat="45.56531" lon="6.00224">
        <ele>787.20001220703</ele>
        <time>2013-08-25T07:34:30.000Z</time>
      </trkpt>
      <trkpt lat="45.56531" lon="6.00224">
        <ele>787.20001220703</ele>
        <time>2013-08-25T07:34:31.000Z</time>
      </trkpt>
      <trkpt lat="45.56539" lon="6.00237">
        <ele>787.40002441406</ele>
        <time>2013-08-25T07:34:47.000Z</time>
      </trkpt>
      <trkpt lat="45.56547" lon="6.0025">
        <ele>787.79998779297</ele>
        <time>2013-08-25T07:34:53.000Z</time>
      </trkpt>
      <trkpt lat="45.56562" lon="6.00264">
        <ele>786.59997558594</ele>
        <time>2013-08-25T07:35:03.000Z</time>
      </trkpt>
      <trkpt lat="45.56576" lon="6.00283">
        <ele>785.40002441406</ele>
        <time>2013-08-25T07:35:13.000Z</time>
      </trkpt>
      <trkpt lat="45.56601" lon="6.00291">
        <ele>784.59997558594</ele>
        <time>2013-08-25T07:35:20.000Z</time>
      </trkpt>
      <trkpt lat="45.5661" lon="6.00292">
        <ele>784.20001220703</ele>
        <time>2013-08-25T07:35:22.000Z</time>
      </trkpt>
      <trkpt lat="45.56663" lon="6.00272">
        <ele>784.40002441406</ele>
        <time>2013-08-25T07:35:33.000Z</time>
      </trkpt>
      <trkpt lat="45.56688" lon="6.00275">
        <ele>782</ele>
        <time>2013-08-25T07:35:39.000Z</time>
      </trkpt>
      <trkpt lat="45.56708" lon="6.00278">
        <ele>779.59997558594</ele>
        <time>2013-08-25T07:35:43.000Z</time>
      </trkpt>
      <trkpt lat="45.56728" lon="6.00286">
        <ele>776.59997558594</ele>
        <time>2013-08-25T07:35:47.000Z</time>
      </trkpt>
      <trkpt lat="45.5673" lon="6.0029">
        <ele>775.79998779297</ele>
        <time>2013-08-25T07:35:48.000Z</time>
      </trkpt>
      <trkpt lat="45.56732" lon="6.00294">
        <ele>775.20001220703</ele>
        <time>2013-08-25T07:35:49.000Z</time>
      </trkpt>
      <trkpt lat="45.56733" lon="6.00298">
        <ele>774.59997558594</ele>
        <time>2013-08-25T07:35:50.000Z</time>
      </trkpt>
      <trkpt lat="45.56739" lon="6.00298">
        <ele>773.79998779297</ele>
        <time>2013-08-25T07:35:51.000Z</time>
      </trkpt>
      <trkpt lat="45.56741" lon="6.00301">
        <ele>773.40002441406</ele>
        <time>2013-08-25T07:35:52.000Z</time>
      </trkpt>
      <trkpt lat="45.56741" lon="6.00304">
        <ele>773</ele>
        <time>2013-08-25T07:35:53.000Z</time>
      </trkpt>
      <trkpt lat="45.56741" lon="6.00313">
        <ele>771.79998779297</ele>
        <time>2013-08-25T07:35:56.000Z</time>
      </trkpt>
      <trkpt lat="45.56743" lon="6.00316">
        <ele>771.20001220703</ele>
        <time>2013-08-25T07:35:57.000Z</time>
      </trkpt>
      <trkpt lat="45.56743" lon="6.00319">
        <ele>770.59997558594</ele>
        <time>2013-08-25T07:35:58.000Z</time>
      </trkpt>
      <trkpt lat="45.56744" lon="6.00322">
        <ele>770.20001220703</ele>
        <time>2013-08-25T07:35:59.000Z</time>
      </trkpt>
      <trkpt lat="45.56744" lon="6.00325">
        <ele>769.79998779297</ele>
        <time>2013-08-25T07:36:00.000Z</time>
      </trkpt>
      <trkpt lat="45.56748" lon="6.00345">
        <ele>766.40002441406</ele>
        <time>2013-08-25T07:36:05.000Z</time>
      </trkpt>
      <trkpt lat="45.56751" lon="6.00354">
        <ele>764.59997558594</ele>
        <time>2013-08-25T07:36:07.000Z</time>
      </trkpt>
      <trkpt lat="45.56766" lon="6.0035">
        <ele>761.59997558594</ele>
        <time>2013-08-25T07:36:11.000Z</time>
      </trkpt>
      <trkpt lat="45.56772" lon="6.00351">
        <ele>760.20001220703</ele>
        <time>2013-08-25T07:36:13.000Z</time>
      </trkpt>
      <trkpt lat="45.56774" lon="6.00353">
        <ele>759.59997558594</ele>
        <time>2013-08-25T07:36:14.000Z</time>
      </trkpt>
      <trkpt lat="45.56785" lon="6.00365">
        <ele>755.79998779297</ele>
        <time>2013-08-25T07:36:18.000Z</time>
      </trkpt>
      <trkpt lat="45.5679" lon="6.00374">
        <ele>753.59997558594</ele>
        <time>2013-08-25T07:36:20.000Z</time>
      </trkpt>
      <trkpt lat="45.56793" lon="6.00381">
        <ele>752.40002441406</ele>
        <time>2013-08-25T07:36:21.000Z</time>
      </trkpt>
      <trkpt lat="45.56796" lon="6.00388">
        <ele>751</ele>
        <time>2013-08-25T07:36:22.000Z</time>
      </trkpt>
      <trkpt lat="45.56798" lon="6.00396">
        <ele>749.79998779297</ele>
        <time>2013-08-25T07:36:23.000Z</time>
      </trkpt>
      <trkpt lat="45.56801" lon="6.00421">
        <ele>746.79998779297</ele>
        <time>2013-08-25T07:36:26.000Z</time>
      </trkpt>
      <trkpt lat="45.56801" lon="6.0043">
        <ele>745.79998779297</ele>
        <time>2013-08-25T07:36:27.000Z</time>
      </trkpt>
      <trkpt lat="45.56799" lon="6.00454">
        <ele>743</ele>
        <time>2013-08-25T07:36:30.000Z</time>
      </trkpt>
      <trkpt lat="45.56799" lon="6.00461">
        <ele>742.20001220703</ele>
        <time>2013-08-25T07:36:31.000Z</time>
      </trkpt>
      <trkpt lat="45.56797" lon="6.00487">
        <ele>739</ele>
        <time>2013-08-25T07:36:35.000Z</time>
      </trkpt>
      <trkpt lat="45.56798" lon="6.0051">
        <ele>736.20001220703</ele>
        <time>2013-08-25T07:36:38.000Z</time>
      </trkpt>
      <trkpt lat="45.56801" lon="6.00548">
        <ele>731.59997558594</ele>
        <time>2013-08-25T07:36:42.000Z</time>
      </trkpt>
      <trkpt lat="45.56805" lon="6.00553">
        <ele>731</ele>
        <time>2013-08-25T07:36:43.000Z</time>
      </trkpt>
      <trkpt lat="45.5681" lon="6.00556">
        <ele>730.79998779297</ele>
        <time>2013-08-25T07:36:44.000Z</time>
      </trkpt>
      <trkpt lat="45.56869" lon="6.00559">
        <ele>731.79998779297</ele>
        <time>2013-08-25T07:36:53.000Z</time>
      </trkpt>
      <trkpt lat="45.56874" lon="6.0056">
        <ele>732</ele>
        <time>2013-08-25T07:37:04.000Z</time>
      </trkpt>
      <trkpt lat="45.56874" lon="6.0056">
        <ele>732</ele>
        <time>2013-08-25T07:37:08.000Z</time>
      </trkpt>
      <trkpt lat="45.56874" lon="6.0056">
        <ele>732</ele>
        <time>2013-08-25T07:37:10.000Z</time>
      </trkpt>
      <trkpt lat="45.56874" lon="6.0056">
        <ele>732</ele>
        <time>2013-08-25T07:37:11.000Z</time>
      </trkpt>
      <trkpt lat="45.56874" lon="6.0056">
        <ele>732</ele>
        <time>2013-08-25T07:37:13.000Z</time>
      </trkpt>
      <trkpt lat="45.56874" lon="6.0056">
        <ele>732</ele>
        <time>2013-08-25T07:37:14.000Z</time>
      </trkpt>
      <trkpt lat="45.5688" lon="6.00559">
        <ele>732.20001220703</ele>
        <time>2013-08-25T07:37:40.000Z</time>
      </trkpt>
      <trkpt lat="45.56885" lon="6.00558">
        <ele>732.59997558594</ele>
        <time>2013-08-25T07:37:41.000Z</time>
      </trkpt>
      <trkpt lat="45.56886" lon="6.00559">
        <ele>732.40002441406</ele>
        <time>2013-08-25T07:37:42.000Z</time>
      </trkpt>
      <trkpt lat="45.56885" lon="6.00561">
        <ele>732.40002441406</ele>
        <time>2013-08-25T07:37:43.000Z</time>
      </trkpt>
      <trkpt lat="45.56884" lon="6.00564">
        <ele>732</ele>
        <time>2013-08-25T07:37:44.000Z</time>
      </trkpt>
      <trkpt lat="45.56881" lon="6.00567">
        <ele>731.59997558594</ele>
        <time>2013-08-25T07:37:45.000Z</time>
      </trkpt>
      <trkpt lat="45.56854" lon="6.00592">
        <ele>728.40002441406</ele>
        <time>2013-08-25T07:37:53.000Z</time>
      </trkpt>
      <trkpt lat="45.56851" lon="6.00595">
        <ele>728</ele>
        <time>2013-08-25T07:37:54.000Z</time>
      </trkpt>
      <trkpt lat="45.56841" lon="6.00608">
        <ele>726.59997558594</ele>
        <time>2013-08-25T07:37:57.000Z</time>
      </trkpt>
      <trkpt lat="45.56825" lon="6.00639">
        <ele>724.40002441406</ele>
        <time>2013-08-25T07:38:02.000Z</time>
      </trkpt>
      <trkpt lat="45.5681" lon="6.0067">
        <ele>722.40002441406</ele>
        <time>2013-08-25T07:38:06.000Z</time>
      </trkpt>
      <trkpt lat="45.56802" lon="6.00696">
        <ele>720</ele>
        <time>2013-08-25T07:38:09.000Z</time>
      </trkpt>
      <trkpt lat="45.56795" lon="6.00731">
        <ele>717</ele>
        <time>2013-08-25T07:38:13.000Z</time>
      </trkpt>
      <trkpt lat="45.56792" lon="6.00745">
        <ele>715.79998779297</ele>
        <time>2013-08-25T07:38:15.000Z</time>
      </trkpt>
      <trkpt lat="45.56779" lon="6.00771">
        <ele>714.20001220703</ele>
        <time>2013-08-25T07:38:23.000Z</time>
      </trkpt>
      <trkpt lat="45.56774" lon="6.00774">
        <ele>714.20001220703</ele>
        <time>2013-08-25T07:38:24.000Z</time>
      </trkpt>
      <trkpt lat="45.5677" lon="6.00776">
        <ele>714.20001220703</ele>
        <time>2013-08-25T07:38:25.000Z</time>
      </trkpt>
      <trkpt lat="45.56767" lon="6.00777">
        <ele>714.20001220703</ele>
        <time>2013-08-25T07:38:26.000Z</time>
      </trkpt>
      <trkpt lat="45.56763" lon="6.00778">
        <ele>714.20001220703</ele>
        <time>2013-08-25T07:38:27.000Z</time>
      </trkpt>
      <trkpt lat="45.56749" lon="6.00785">
        <ele>714.20001220703</ele>
        <time>2013-08-25T07:38:36.000Z</time>
      </trkpt>
      <trkpt lat="45.56752" lon="6.00785">
        <ele>714.20001220703</ele>
        <time>2013-08-25T07:38:41.000Z</time>
      </trkpt>
      <trkpt lat="45.56754" lon="6.00784">
        <ele>714.20001220703</ele>
        <time>2013-08-25T07:38:42.000Z</time>
      </trkpt>
      <trkpt lat="45.56756" lon="6.00784">
        <ele>714.20001220703</ele>
        <time>2013-08-25T07:38:43.000Z</time>
      </trkpt>
      <trkpt lat="45.56759" lon="6.00783">
        <ele>714</ele>
        <time>2013-08-25T07:38:44.000Z</time>
      </trkpt>
      <trkpt lat="45.56761" lon="6.00783">
        <ele>714</ele>
        <time>2013-08-25T07:38:45.000Z</time>
      </trkpt>
      <trkpt lat="45.56763" lon="6.00782">
        <ele>714</ele>
        <time>2013-08-25T07:38:46.000Z</time>
      </trkpt>
      <trkpt lat="45.56766" lon="6.00778">
        <ele>714.20001220703</ele>
        <time>2013-08-25T07:38:58.000Z</time>
      </trkpt>
      <trkpt lat="45.56766" lon="6.00778">
        <ele>714.20001220703</ele>
        <time>2013-08-25T07:39:09.000Z</time>
      </trkpt>
      <trkpt lat="45.56766" lon="6.00774">
        <ele>714.40002441406</ele>
        <time>2013-08-25T07:40:15.000Z</time>
      </trkpt>
      <trkpt lat="45.56766" lon="6.00774">
        <ele>714.40002441406</ele>
        <time>2013-08-25T07:40:57.000Z</time>
      </trkpt>
      <trkpt lat="45.56765" lon="6.00774">
        <ele>714.40002441406</ele>
        <time>2013-08-25T07:41:16.000Z</time>
      </trkpt>
      <trkpt lat="45.56765" lon="6.00774">
        <ele>714.40002441406</ele>
        <time>2013-08-25T07:41:49.000Z</time>
      </trkpt>
      <trkpt lat="45.56765" lon="6.00775">
        <ele>714.40002441406</ele>
        <time>2013-08-25T07:42:17.000Z</time>
      </trkpt>
      <trkpt lat="45.56767" lon="6.00772">
        <ele>714.40002441406</ele>
        <time>2013-08-25T07:42:51.000Z</time>
      </trkpt>
      <trkpt lat="45.56768" lon="6.0077">
        <ele>714.59997558594</ele>
        <time>2013-08-25T07:43:13.000Z</time>
      </trkpt>
      <trkpt lat="45.56763" lon="6.00772">
        <ele>714.59997558594</ele>
        <time>2013-08-25T07:43:38.000Z</time>
      </trkpt>
      <trkpt lat="45.56763" lon="6.00772">
        <ele>714.59997558594</ele>
        <time>2013-08-25T07:44:15.000Z</time>
      </trkpt>
      <trkpt lat="45.56763" lon="6.00772">
        <ele>714.59997558594</ele>
        <time>2013-08-25T07:44:37.000Z</time>
      </trkpt>
      <trkpt lat="45.56764" lon="6.00773">
        <ele>714.40002441406</ele>
        <time>2013-08-25T07:44:57.000Z</time>
      </trkpt>
      <trkpt lat="45.56769" lon="6.00777">
        <ele>714.20001220703</ele>
        <time>2013-08-25T07:45:11.000Z</time>
      </trkpt>
      <trkpt lat="45.56769" lon="6.00777">
        <ele>714.20001220703</ele>
        <time>2013-08-25T07:45:39.000Z</time>
      </trkpt>
      <trkpt lat="45.56769" lon="6.00777">
        <ele>714.20001220703</ele>
        <time>2013-08-25T07:46:21.000Z</time>
      </trkpt>
      <trkpt lat="45.56767" lon="6.00778">
        <ele>714.20001220703</ele>
        <time>2013-08-25T07:46:35.000Z</time>
      </trkpt>
      <trkpt lat="45.56765" lon="6.00777">
        <ele>714.20001220703</ele>
        <time>2013-08-25T07:46:36.000Z</time>
      </trkpt>
      <trkpt lat="45.56761" lon="6.00777">
        <ele>714.40002441406</ele>
        <time>2013-08-25T07:46:48.000Z</time>
      </trkpt>
      <trkpt lat="45.56764" lon="6.00777">
        <ele>714.20001220703</ele>
        <time>2013-08-25T07:46:53.000Z</time>
      </trkpt>
      <trkpt lat="45.56765" lon="6.00778">
        <ele>714.20001220703</ele>
        <time>2013-08-25T07:46:54.000Z</time>
      </trkpt>
      <trkpt lat="45.56767" lon="6.00778">
        <ele>714.20001220703</ele>
        <time>2013-08-25T07:46:57.000Z</time>
      </trkpt>
      <trkpt lat="45.56768" lon="6.0078">
        <ele>714</ele>
        <time>2013-08-25T07:47:23.000Z</time>
      </trkpt>
      <trkpt lat="45.56771" lon="6.00777">
        <ele>714.20001220703</ele>
        <time>2013-08-25T07:47:26.000Z</time>
      </trkpt>
      <trkpt lat="45.56771" lon="6.00776">
        <ele>714.20001220703</ele>
        <time>2013-08-25T07:47:27.000Z</time>
      </trkpt>
      <trkpt lat="45.56774" lon="6.00774">
        <ele>714.20001220703</ele>
        <time>2013-08-25T07:47:44.000Z</time>
      </trkpt>
      <trkpt lat="45.56774" lon="6.00774">
        <ele>714.20001220703</ele>
        <time>2013-08-25T07:47:45.000Z</time>
      </trkpt>
      <trkpt lat="45.5677" lon="6.00774">
        <ele>714.20001220703</ele>
        <time>2013-08-25T07:47:48.000Z</time>
      </trkpt>
      <trkpt lat="45.56768" lon="6.00774">
        <ele>714.40002441406</ele>
        <time>2013-08-25T07:47:49.000Z</time>
      </trkpt>
      <trkpt lat="45.56766" lon="6.00774">
        <ele>714.40002441406</ele>
        <time>2013-08-25T07:47:50.000Z</time>
      </trkpt>
      <trkpt lat="45.56755" lon="6.00769">
        <ele>714.79998779297</ele>
        <time>2013-08-25T07:47:54.000Z</time>
      </trkpt>
      <trkpt lat="45.56732" lon="6.00771">
        <ele>715.20001220703</ele>
        <time>2013-08-25T07:48:04.000Z</time>
      </trkpt>
      <trkpt lat="45.56729" lon="6.00771">
        <ele>715.20001220703</ele>
        <time>2013-08-25T07:48:05.000Z</time>
      </trkpt>
      <trkpt lat="45.56691" lon="6.00792">
        <ele>714.59997558594</ele>
        <time>2013-08-25T07:48:16.000Z</time>
      </trkpt>
      <trkpt lat="45.56684" lon="6.00794">
        <ele>714.59997558594</ele>
        <time>2013-08-25T07:48:18.000Z</time>
      </trkpt>
      <trkpt lat="45.56662" lon="6.00808">
        <ele>714</ele>
        <time>2013-08-25T07:48:26.000Z</time>
      </trkpt>
      <trkpt lat="45.56661" lon="6.00809">
        <ele>714</ele>
        <time>2013-08-25T07:48:27.000Z</time>
      </trkpt>
      <trkpt lat="45.56659" lon="6.00818">
        <ele>713.59997558594</ele>
        <time>2013-08-25T07:48:28.000Z</time>
      </trkpt>
      <trkpt lat="45.56658" lon="6.00823">
        <ele>713.20001220703</ele>
        <time>2013-08-25T07:48:29.000Z</time>
      </trkpt>
      <trkpt lat="45.56657" lon="6.00826">
        <ele>713</ele>
        <time>2013-08-25T07:48:30.000Z</time>
      </trkpt>
      <trkpt lat="45.56657" lon="6.0083">
        <ele>712.79998779297</ele>
        <time>2013-08-25T07:48:31.000Z</time>
      </trkpt>
      <trkpt lat="45.56658" lon="6.00834">
        <ele>712.59997558594</ele>
        <time>2013-08-25T07:48:32.000Z</time>
      </trkpt>
      <trkpt lat="45.56658" lon="6.00843">
        <ele>712.20001220703</ele>
        <time>2013-08-25T07:48:34.000Z</time>
      </trkpt>
      <trkpt lat="45.56717" lon="6.00827">
        <ele>712.59997558594</ele>
        <time>2013-08-25T07:48:41.000Z</time>
      </trkpt>
      <trkpt lat="45.56732" lon="6.00838">
        <ele>711.79998779297</ele>
        <time>2013-08-25T07:48:52.000Z</time>
      </trkpt>
      <trkpt lat="45.56741" lon="6.00867">
        <ele>709.59997558594</ele>
        <time>2013-08-25T07:49:00.000Z</time>
      </trkpt>
      <trkpt lat="45.56746" lon="6.0092">
        <ele>705.79998779297</ele>
        <time>2013-08-25T07:49:11.000Z</time>
      </trkpt>
      <trkpt lat="45.56745" lon="6.00928">
        <ele>705</ele>
        <time>2013-08-25T07:49:13.000Z</time>
      </trkpt>
      <trkpt lat="45.56744" lon="6.00939">
        <ele>704.20001220703</ele>
        <time>2013-08-25T07:49:15.000Z</time>
      </trkpt>
      <trkpt lat="45.56747" lon="6.00982">
        <ele>700.59997558594</ele>
        <time>2013-08-25T07:49:21.000Z</time>
      </trkpt>
      <trkpt lat="45.56744" lon="6.01003">
        <ele>699</ele>
        <time>2013-08-25T07:49:22.000Z</time>
      </trkpt>
      <trkpt lat="45.5675" lon="6.01199">
        <ele>698.40002441406</ele>
        <time>2013-08-25T07:49:37.000Z</time>
      </trkpt>
      <trkpt lat="45.56753" lon="6.01233">
        <ele>697.79998779297</ele>
        <time>2013-08-25T07:49:43.000Z</time>
      </trkpt>
      <trkpt lat="45.56753" lon="6.01237">
        <ele>697.79998779297</ele>
        <time>2013-08-25T07:49:44.000Z</time>
      </trkpt>
      <trkpt lat="45.56754" lon="6.01262">
        <ele>697.79998779297</ele>
        <time>2013-08-25T07:49:51.000Z</time>
      </trkpt>
      <trkpt lat="45.56779" lon="6.01293">
        <ele>695.79998779297</ele>
        <time>2013-08-25T07:50:04.000Z</time>
      </trkpt>
      <trkpt lat="45.56783" lon="6.01294">
        <ele>695.40002441406</ele>
        <time>2013-08-25T07:50:05.000Z</time>
      </trkpt>
      <trkpt lat="45.56787" lon="6.01295">
        <ele>695</ele>
        <time>2013-08-25T07:50:06.000Z</time>
      </trkpt>
      <trkpt lat="45.56795" lon="6.01298">
        <ele>694.40002441406</ele>
        <time>2013-08-25T07:50:08.000Z</time>
      </trkpt>
      <trkpt lat="45.56914" lon="6.01247">
        <ele>683.40002441406</ele>
        <time>2013-08-25T07:50:18.000Z</time>
      </trkpt>
      <trkpt lat="45.56916" lon="6.01249">
        <ele>683</ele>
        <time>2013-08-25T07:50:19.000Z</time>
      </trkpt>
      <trkpt lat="45.56918" lon="6.01251">
        <ele>682.40002441406</ele>
        <time>2013-08-25T07:50:20.000Z</time>
      </trkpt>
      <trkpt lat="45.5692" lon="6.01252">
        <ele>681.79998779297</ele>
        <time>2013-08-25T07:50:21.000Z</time>
      </trkpt>
      <trkpt lat="45.56922" lon="6.01253">
        <ele>681</ele>
        <time>2013-08-25T07:50:22.000Z</time>
      </trkpt>
      <trkpt lat="45.56929" lon="6.01267">
        <ele>676.79998779297</ele>
        <time>2013-08-25T07:50:26.000Z</time>
      </trkpt>
      <trkpt lat="45.56936" lon="6.01279">
        <ele>673.20001220703</ele>
        <time>2013-08-25T07:50:29.000Z</time>
      </trkpt>
      <trkpt lat="45.5694" lon="6.01285">
        <ele>671.20001220703</ele>
        <time>2013-08-25T07:50:31.000Z</time>
      </trkpt>
      <trkpt lat="45.56941" lon="6.01288">
        <ele>670.59997558594</ele>
        <time>2013-08-25T07:50:32.000Z</time>
      </trkpt>
      <trkpt lat="45.56946" lon="6.01299">
        <ele>668</ele>
        <time>2013-08-25T07:50:37.000Z</time>
      </trkpt>
      <trkpt lat="45.56947" lon="6.01301">
        <ele>667.40002441406</ele>
        <time>2013-08-25T07:50:38.000Z</time>
      </trkpt>
      <trkpt lat="45.5695" lon="6.01311">
        <ele>665.40002441406</ele>
        <time>2013-08-25T07:50:41.000Z</time>
      </trkpt>
      <trkpt lat="45.56956" lon="6.01325">
        <ele>662.40002441406</ele>
        <time>2013-08-25T07:50:44.000Z</time>
      </trkpt>
      <trkpt lat="45.56966" lon="6.01342">
        <ele>658.59997558594</ele>
        <time>2013-08-25T07:50:48.000Z</time>
      </trkpt>
      <trkpt lat="45.56972" lon="6.01351">
        <ele>656.20001220703</ele>
        <time>2013-08-25T07:50:51.000Z</time>
      </trkpt>
      <trkpt lat="45.56974" lon="6.01352">
        <ele>655.59997558594</ele>
        <time>2013-08-25T07:50:52.000Z</time>
      </trkpt>
      <trkpt lat="45.56978" lon="6.01353">
        <ele>655</ele>
        <time>2013-08-25T07:50:57.000Z</time>
      </trkpt>
      <trkpt lat="45.56979" lon="6.01352">
        <ele>655.20001220703</ele>
        <time>2013-08-25T07:50:58.000Z</time>
      </trkpt>
      <trkpt lat="45.56977" lon="6.0135">
        <ele>655.79998779297</ele>
        <time>2013-08-25T07:51:01.000Z</time>
      </trkpt>
      <trkpt lat="45.56972" lon="6.01349">
        <ele>656.59997558594</ele>
        <time>2013-08-25T07:51:04.000Z</time>
      </trkpt>
      <trkpt lat="45.56968" lon="6.01348">
        <ele>657.20001220703</ele>
        <time>2013-08-25T07:51:06.000Z</time>
      </trkpt>
      <trkpt lat="45.56966" lon="6.01347">
        <ele>657.40002441406</ele>
        <time>2013-08-25T07:51:07.000Z</time>
      </trkpt>
      <trkpt lat="45.56964" lon="6.01347">
        <ele>657.79998779297</ele>
        <time>2013-08-25T07:51:08.000Z</time>
      </trkpt>
      <trkpt lat="45.56956" lon="6.01345">
        <ele>659</ele>
        <time>2013-08-25T07:51:12.000Z</time>
      </trkpt>
      <trkpt lat="45.56955" lon="6.01344">
        <ele>659.20001220703</ele>
        <time>2013-08-25T07:51:13.000Z</time>
      </trkpt>
      <trkpt lat="45.56949" lon="6.01343">
        <ele>660.20001220703</ele>
        <time>2013-08-25T07:51:16.000Z</time>
      </trkpt>
      <trkpt lat="45.56945" lon="6.01342">
        <ele>660.79998779297</ele>
        <time>2013-08-25T07:51:18.000Z</time>
      </trkpt>
      <trkpt lat="45.56932" lon="6.01338">
        <ele>662.59997558594</ele>
        <time>2013-08-25T07:51:25.000Z</time>
      </trkpt>
      <trkpt lat="45.56924" lon="6.01336">
        <ele>663.79998779297</ele>
        <time>2013-08-25T07:51:29.000Z</time>
      </trkpt>
      <trkpt lat="45.56922" lon="6.01336">
        <ele>664</ele>
        <time>2013-08-25T07:51:30.000Z</time>
      </trkpt>
      <trkpt lat="45.56917" lon="6.01334">
        <ele>664.79998779297</ele>
        <time>2013-08-25T07:51:34.000Z</time>
      </trkpt>
      <trkpt lat="45.56917" lon="6.01334">
        <ele>664.79998779297</ele>
        <time>2013-08-25T07:51:39.000Z</time>
      </trkpt>
      <trkpt lat="45.56917" lon="6.01334">
        <ele>664.79998779297</ele>
        <time>2013-08-25T07:51:40.000Z</time>
      </trkpt>
      <trkpt lat="45.56917" lon="6.01334">
        <ele>664.79998779297</ele>
        <time>2013-08-25T07:51:45.000Z</time>
      </trkpt>
      <trkpt lat="45.56917" lon="6.01334">
        <ele>664.79998779297</ele>
        <time>2013-08-25T07:51:50.000Z</time>
      </trkpt>
      <trkpt lat="45.56917" lon="6.01334">
        <ele>664.79998779297</ele>
        <time>2013-08-25T07:51:55.000Z</time>
      </trkpt>
      <trkpt lat="45.56917" lon="6.01334">
        <ele>664.79998779297</ele>
        <time>2013-08-25T07:51:56.000Z</time>
      </trkpt>
      <trkpt lat="45.56917" lon="6.01334">
        <ele>664.79998779297</ele>
        <time>2013-08-25T07:51:59.000Z</time>
      </trkpt>
      <trkpt lat="45.56917" lon="6.01334">
        <ele>664.79998779297</ele>
        <time>2013-08-25T07:52:02.000Z</time>
      </trkpt>
      <trkpt lat="45.56917" lon="6.01334">
        <ele>664.79998779297</ele>
        <time>2013-08-25T07:52:04.000Z</time>
      </trkpt>
      <trkpt lat="45.56917" lon="6.01334">
        <ele>664.79998779297</ele>
        <time>2013-08-25T07:52:08.000Z</time>
      </trkpt>
      <trkpt lat="45.56917" lon="6.01334">
        <ele>664.79998779297</ele>
        <time>2013-08-25T07:52:09.000Z</time>
      </trkpt>
      <trkpt lat="45.56917" lon="6.01334">
        <ele>664.79998779297</ele>
        <time>2013-08-25T07:52:11.000Z</time>
      </trkpt>
      <trkpt lat="45.56917" lon="6.01334">
        <ele>664.79998779297</ele>
        <time>2013-08-25T07:52:12.000Z</time>
      </trkpt>
      <trkpt lat="45.56917" lon="6.01334">
        <ele>664.79998779297</ele>
        <time>2013-08-25T07:52:14.000Z</time>
      </trkpt>
      <trkpt lat="45.56917" lon="6.01334">
        <ele>664.79998779297</ele>
        <time>2013-08-25T07:52:15.000Z</time>
      </trkpt>
      <trkpt lat="45.56917" lon="6.01334">
        <ele>664.79998779297</ele>
        <time>2013-08-25T07:52:17.000Z</time>
      </trkpt>
      <trkpt lat="45.56917" lon="6.01334">
        <ele>664.79998779297</ele>
        <time>2013-08-25T07:52:18.000Z</time>
      </trkpt>
      <trkpt lat="45.56917" lon="6.01334">
        <ele>664.79998779297</ele>
        <time>2013-08-25T07:52:20.000Z</time>
      </trkpt>
      <trkpt lat="45.56917" lon="6.01334">
        <ele>664.79998779297</ele>
        <time>2013-08-25T07:52:22.000Z</time>
      </trkpt>
      <trkpt lat="45.56917" lon="6.01334">
        <ele>664.79998779297</ele>
        <time>2013-08-25T07:52:23.000Z</time>
      </trkpt>
      <trkpt lat="45.56917" lon="6.01334">
        <ele>664.79998779297</ele>
        <time>2013-08-25T07:52:24.000Z</time>
      </trkpt>
      <trkpt lat="45.56917" lon="6.01334">
        <ele>664.79998779297</ele>
        <time>2013-08-25T07:52:26.000Z</time>
      </trkpt>
      <trkpt lat="45.56917" lon="6.01334">
        <ele>664.79998779297</ele>
        <time>2013-08-25T07:52:28.000Z</time>
      </trkpt>
      <trkpt lat="45.56917" lon="6.01334">
        <ele>664.79998779297</ele>
        <time>2013-08-25T07:52:30.000Z</time>
      </trkpt>
      <trkpt lat="45.56917" lon="6.01334">
        <ele>664.79998779297</ele>
        <time>2013-08-25T07:52:32.000Z</time>
      </trkpt>
      <trkpt lat="45.56917" lon="6.01334">
        <ele>664.79998779297</ele>
        <time>2013-08-25T07:52:33.000Z</time>
      </trkpt>
      <trkpt lat="45.56917" lon="6.01334">
        <ele>664.79998779297</ele>
        <time>2013-08-25T07:52:35.000Z</time>
      </trkpt>
      <trkpt lat="45.56917" lon="6.01334">
        <ele>664.79998779297</ele>
        <time>2013-08-25T07:52:36.000Z</time>
      </trkpt>
      <trkpt lat="45.56917" lon="6.01334">
        <ele>664.79998779297</ele>
        <time>2013-08-25T07:52:39.000Z</time>
      </trkpt>
      <trkpt lat="45.56917" lon="6.01334">
        <ele>664.79998779297</ele>
        <time>2013-08-25T07:52:40.000Z</time>
      </trkpt>
      <trkpt lat="45.56917" lon="6.01334">
        <ele>664.79998779297</ele>
        <time>2013-08-25T07:52:41.000Z</time>
      </trkpt>
      <trkpt lat="45.56917" lon="6.01334">
        <ele>664.79998779297</ele>
        <time>2013-08-25T07:52:44.000Z</time>
      </trkpt>
      <trkpt lat="45.56917" lon="6.01334">
        <ele>664.79998779297</ele>
        <time>2013-08-25T07:52:46.000Z</time>
      </trkpt>
      <trkpt lat="45.56917" lon="6.01334">
        <ele>664.79998779297</ele>
        <time>2013-08-25T07:52:47.000Z</time>
      </trkpt>
      <trkpt lat="45.56917" lon="6.01334">
        <ele>664.79998779297</ele>
        <time>2013-08-25T07:52:49.000Z</time>
      </trkpt>
      <trkpt lat="45.56917" lon="6.01334">
        <ele>664.79998779297</ele>
        <time>2013-08-25T07:52:50.000Z</time>
      </trkpt>
      <trkpt lat="45.56917" lon="6.01334">
        <ele>664.79998779297</ele>
        <time>2013-08-25T07:52:51.000Z</time>
      </trkpt>
      <trkpt lat="45.56917" lon="6.01334">
        <ele>664.79998779297</ele>
        <time>2013-08-25T07:52:54.000Z</time>
      </trkpt>
      <trkpt lat="45.56917" lon="6.01334">
        <ele>664.79998779297</ele>
        <time>2013-08-25T07:52:55.000Z</time>
      </trkpt>
      <trkpt lat="45.56917" lon="6.01334">
        <ele>664.79998779297</ele>
        <time>2013-08-25T07:52:56.000Z</time>
      </trkpt>
      <trkpt lat="45.56917" lon="6.01334">
        <ele>664.79998779297</ele>
        <time>2013-08-25T07:52:58.000Z</time>
      </trkpt>
      <trkpt lat="45.56917" lon="6.01334">
        <ele>664.79998779297</ele>
        <time>2013-08-25T07:53:02.000Z</time>
      </trkpt>
      <trkpt lat="45.56917" lon="6.01334">
        <ele>664.79998779297</ele>
        <time>2013-08-25T07:53:04.000Z</time>
      </trkpt>
      <trkpt lat="45.56917" lon="6.01334">
        <ele>664.79998779297</ele>
        <time>2013-08-25T07:53:06.000Z</time>
      </trkpt>
      <trkpt lat="45.56917" lon="6.01334">
        <ele>664.79998779297</ele>
        <time>2013-08-25T07:53:07.000Z</time>
      </trkpt>
      <trkpt lat="45.56917" lon="6.01334">
        <ele>664.79998779297</ele>
        <time>2013-08-25T07:53:13.000Z</time>
      </trkpt>
      <trkpt lat="45.56917" lon="6.01334">
        <ele>664.79998779297</ele>
        <time>2013-08-25T07:53:14.000Z</time>
      </trkpt>
      <trkpt lat="45.56917" lon="6.01334">
        <ele>664.79998779297</ele>
        <time>2013-08-25T07:53:15.000Z</time>
      </trkpt>
      <trkpt lat="45.56917" lon="6.01334">
        <ele>664.79998779297</ele>
        <time>2013-08-25T07:53:16.000Z</time>
      </trkpt>
      <trkpt lat="45.56917" lon="6.01334">
        <ele>664.79998779297</ele>
        <time>2013-08-25T07:53:17.000Z</time>
      </trkpt>
      <trkpt lat="45.56917" lon="6.01334">
        <ele>664.79998779297</ele>
        <time>2013-08-25T07:53:22.000Z</time>
      </trkpt>
      <trkpt lat="45.56917" lon="6.01334">
        <ele>664.79998779297</ele>
        <time>2013-08-25T07:53:23.000Z</time>
      </trkpt>
      <trkpt lat="45.56917" lon="6.01334">
        <ele>664.79998779297</ele>
        <time>2013-08-25T07:53:25.000Z</time>
      </trkpt>
      <trkpt lat="45.56917" lon="6.01334">
        <ele>664.79998779297</ele>
        <time>2013-08-25T07:53:26.000Z</time>
      </trkpt>
      <trkpt lat="45.56917" lon="6.01334">
        <ele>664.79998779297</ele>
        <time>2013-08-25T07:53:28.000Z</time>
      </trkpt>
      <trkpt lat="45.56917" lon="6.01334">
        <ele>664.79998779297</ele>
        <time>2013-08-25T07:53:32.000Z</time>
      </trkpt>
      <trkpt lat="45.56917" lon="6.01334">
        <ele>664.79998779297</ele>
        <time>2013-08-25T07:53:33.000Z</time>
      </trkpt>
      <trkpt lat="45.56917" lon="6.01334">
        <ele>664.79998779297</ele>
        <time>2013-08-25T07:53:36.000Z</time>
      </trkpt>
      <trkpt lat="45.56917" lon="6.01334">
        <ele>664.79998779297</ele>
        <time>2013-08-25T07:53:37.000Z</time>
      </trkpt>
      <trkpt lat="45.56917" lon="6.01334">
        <ele>664.79998779297</ele>
        <time>2013-08-25T07:53:38.000Z</time>
      </trkpt>
      <trkpt lat="45.56917" lon="6.01334">
        <ele>664.79998779297</ele>
        <time>2013-08-25T07:53:43.000Z</time>
      </trkpt>
      <trkpt lat="45.56917" lon="6.01334">
        <ele>664.79998779297</ele>
        <time>2013-08-25T07:53:44.000Z</time>
      </trkpt>
      <trkpt lat="45.56917" lon="6.01334">
        <ele>664.79998779297</ele>
        <time>2013-08-25T07:53:47.000Z</time>
      </trkpt>
      <trkpt lat="45.56917" lon="6.01334">
        <ele>664.79998779297</ele>
        <time>2013-08-25T07:53:50.000Z</time>
      </trkpt>
      <trkpt lat="45.56917" lon="6.01334">
        <ele>664.79998779297</ele>
        <time>2013-08-25T07:53:51.000Z</time>
      </trkpt>
      <trkpt lat="45.56917" lon="6.01334">
        <ele>664.79998779297</ele>
        <time>2013-08-25T07:53:53.000Z</time>
      </trkpt>
      <trkpt lat="45.56917" lon="6.01334">
        <ele>664.79998779297</ele>
        <time>2013-08-25T07:53:57.000Z</time>
      </trkpt>
      <trkpt lat="45.56917" lon="6.01334">
        <ele>664.79998779297</ele>
        <time>2013-08-25T07:53:58.000Z</time>
      </trkpt>
      <trkpt lat="45.56917" lon="6.01334">
        <ele>664.79998779297</ele>
        <time>2013-08-25T07:54:00.000Z</time>
      </trkpt>
      <trkpt lat="45.56917" lon="6.01334">
        <ele>664.79998779297</ele>
        <time>2013-08-25T07:54:01.000Z</time>
      </trkpt>
      <trkpt lat="45.56917" lon="6.01334">
        <ele>664.79998779297</ele>
        <time>2013-08-25T07:54:02.000Z</time>
      </trkpt>
      <trkpt lat="45.56917" lon="6.01334">
        <ele>664.79998779297</ele>
        <time>2013-08-25T07:54:03.000Z</time>
      </trkpt>
      <trkpt lat="45.56917" lon="6.01334">
        <ele>664.79998779297</ele>
        <time>2013-08-25T07:54:04.000Z</time>
      </trkpt>
      <trkpt lat="45.56917" lon="6.01334">
        <ele>664.79998779297</ele>
        <time>2013-08-25T07:54:05.000Z</time>
      </trkpt>
      <trkpt lat="45.56917" lon="6.01334">
        <ele>664.79998779297</ele>
        <time>2013-08-25T07:54:06.000Z</time>
      </trkpt>
      <trkpt lat="45.56917" lon="6.01334">
        <ele>664.79998779297</ele>
        <time>2013-08-25T07:54:07.000Z</time>
      </trkpt>
      <trkpt lat="45.56917" lon="6.01334">
        <ele>664.79998779297</ele>
        <time>2013-08-25T07:54:10.000Z</time>
      </trkpt>
      <trkpt lat="45.56917" lon="6.01334">
        <ele>664.79998779297</ele>
        <time>2013-08-25T07:54:11.000Z</time>
      </trkpt>
      <trkpt lat="45.56917" lon="6.01334">
        <ele>664.79998779297</ele>
        <time>2013-08-25T07:54:12.000Z</time>
      </trkpt>
      <trkpt lat="45.56917" lon="6.01334">
        <ele>664.79998779297</ele>
        <time>2013-08-25T07:54:13.000Z</time>
      </trkpt>
      <trkpt lat="45.56917" lon="6.01334">
        <ele>664.79998779297</ele>
        <time>2013-08-25T07:54:14.000Z</time>
      </trkpt>
      <trkpt lat="45.56917" lon="6.01334">
        <ele>664.79998779297</ele>
        <time>2013-08-25T07:54:15.000Z</time>
      </trkpt>
      <trkpt lat="45.56917" lon="6.01334">
        <ele>664.79998779297</ele>
        <time>2013-08-25T07:54:17.000Z</time>
      </trkpt>
      <trkpt lat="45.56917" lon="6.01334">
        <ele>664.79998779297</ele>
        <time>2013-08-25T07:54:21.000Z</time>
      </trkpt>
      <trkpt lat="45.56917" lon="6.01334">
        <ele>664.79998779297</ele>
        <time>2013-08-25T07:54:23.000Z</time>
      </trkpt>
      <trkpt lat="45.56917" lon="6.01334">
        <ele>664.79998779297</ele>
        <time>2013-08-25T07:54:24.000Z</time>
      </trkpt>
      <trkpt lat="45.56917" lon="6.01334">
        <ele>664.79998779297</ele>
        <time>2013-08-25T07:54:25.000Z</time>
      </trkpt>
      <trkpt lat="45.56917" lon="6.01334">
        <ele>664.79998779297</ele>
        <time>2013-08-25T07:54:26.000Z</time>
      </trkpt>
      <trkpt lat="45.56917" lon="6.01334">
        <ele>664.79998779297</ele>
        <time>2013-08-25T07:54:27.000Z</time>
      </trkpt>
      <trkpt lat="45.56917" lon="6.01334">
        <ele>664.79998779297</ele>
        <time>2013-08-25T07:54:28.000Z</time>
      </trkpt>
      <trkpt lat="45.56917" lon="6.01334">
        <ele>664.79998779297</ele>
        <time>2013-08-25T07:54:29.000Z</time>
      </trkpt>
      <trkpt lat="45.56917" lon="6.01334">
        <ele>664.79998779297</ele>
        <time>2013-08-25T07:54:30.000Z</time>
      </trkpt>
      <trkpt lat="45.56917" lon="6.01334">
        <ele>664.79998779297</ele>
        <time>2013-08-25T07:54:31.000Z</time>
      </trkpt>
      <trkpt lat="45.56917" lon="6.01334">
        <ele>664.79998779297</ele>
        <time>2013-08-25T07:54:32.000Z</time>
      </trkpt>
      <trkpt lat="45.56917" lon="6.01334">
        <ele>664.79998779297</ele>
        <time>2013-08-25T07:54:34.000Z</time>
      </trkpt>
      <trkpt lat="45.56917" lon="6.01334">
        <ele>664.79998779297</ele>
        <time>2013-08-25T07:54:35.000Z</time>
      </trkpt>
      <trkpt lat="45.56917" lon="6.01334">
        <ele>664.79998779297</ele>
        <time>2013-08-25T07:54:36.000Z</time>
      </trkpt>
      <trkpt lat="45.56917" lon="6.01334">
        <ele>664.79998779297</ele>
        <time>2013-08-25T07:54:41.000Z</time>
      </trkpt>
      <trkpt lat="45.56917" lon="6.01334">
        <ele>664.79998779297</ele>
        <time>2013-08-25T07:54:42.000Z</time>
      </trkpt>
      <trkpt lat="45.56917" lon="6.01334">
        <ele>664.79998779297</ele>
        <time>2013-08-25T07:54:43.000Z</time>
      </trkpt>
      <trkpt lat="45.56917" lon="6.01334">
        <ele>664.79998779297</ele>
        <time>2013-08-25T07:54:44.000Z</time>
      </trkpt>
      <trkpt lat="45.56917" lon="6.01334">
        <ele>664.79998779297</ele>
        <time>2013-08-25T07:54:45.000Z</time>
      </trkpt>
      <trkpt lat="45.56917" lon="6.01334">
        <ele>664.79998779297</ele>
        <time>2013-08-25T07:54:46.000Z</time>
      </trkpt>
      <trkpt lat="45.56917" lon="6.01334">
        <ele>664.79998779297</ele>
        <time>2013-08-25T07:54:48.000Z</time>
      </trkpt>
      <trkpt lat="45.56917" lon="6.01334">
        <ele>664.79998779297</ele>
        <time>2013-08-25T07:54:53.000Z</time>
      </trkpt>
      <trkpt lat="45.56917" lon="6.01334">
        <ele>664.79998779297</ele>
        <time>2013-08-25T07:54:54.000Z</time>
      </trkpt>
      <trkpt lat="45.56917" lon="6.01334">
        <ele>664.79998779297</ele>
        <time>2013-08-25T07:54:55.000Z</time>
      </trkpt>
      <trkpt lat="45.56917" lon="6.01334">
        <ele>664.79998779297</ele>
        <time>2013-08-25T07:54:56.000Z</time>
      </trkpt>
      <trkpt lat="45.56917" lon="6.01334">
        <ele>664.79998779297</ele>
        <time>2013-08-25T07:54:57.000Z</time>
      </trkpt>
      <trkpt lat="45.56917" lon="6.01334">
        <ele>664.79998779297</ele>
        <time>2013-08-25T07:54:58.000Z</time>
      </trkpt>
      <trkpt lat="45.56917" lon="6.01334">
        <ele>664.79998779297</ele>
        <time>2013-08-25T07:54:59.000Z</time>
      </trkpt>
      <trkpt lat="45.56917" lon="6.01334">
        <ele>664.79998779297</ele>
        <time>2013-08-25T07:55:00.000Z</time>
      </trkpt>
      <trkpt lat="45.56917" lon="6.01334">
        <ele>664.79998779297</ele>
        <time>2013-08-25T07:55:01.000Z</time>
      </trkpt>
      <trkpt lat="45.56917" lon="6.01334">
        <ele>664.79998779297</ele>
        <time>2013-08-25T07:55:02.000Z</time>
      </trkpt>
      <trkpt lat="45.56917" lon="6.01334">
        <ele>664.79998779297</ele>
        <time>2013-08-25T07:55:03.000Z</time>
      </trkpt>
      <trkpt lat="45.56917" lon="6.01334">
        <ele>664.79998779297</ele>
        <time>2013-08-25T07:55:04.000Z</time>
      </trkpt>
      <trkpt lat="45.56917" lon="6.01334">
        <ele>664.79998779297</ele>
        <time>2013-08-25T07:55:05.000Z</time>
      </trkpt>
      <trkpt lat="45.56917" lon="6.01334">
        <ele>664.79998779297</ele>
        <time>2013-08-25T07:55:06.000Z</time>
      </trkpt>
      <trkpt lat="45.56917" lon="6.01334">
        <ele>664.79998779297</ele>
        <time>2013-08-25T07:55:07.000Z</time>
      </trkpt>
      <trkpt lat="45.56917" lon="6.01334">
        <ele>664.79998779297</ele>
        <time>2013-08-25T07:55:08.000Z</time>
      </trkpt>
      <trkpt lat="45.56917" lon="6.01334">
        <ele>664.79998779297</ele>
        <time>2013-08-25T07:55:09.000Z</time>
      </trkpt>
      <trkpt lat="45.56917" lon="6.01334">
        <ele>664.79998779297</ele>
        <time>2013-08-25T07:55:11.000Z</time>
      </trkpt>
      <trkpt lat="45.56917" lon="6.01334">
        <ele>664.79998779297</ele>
        <time>2013-08-25T07:55:12.000Z</time>
      </trkpt>
      <trkpt lat="45.56917" lon="6.01334">
        <ele>664.79998779297</ele>
        <time>2013-08-25T07:55:13.000Z</time>
      </trkpt>
      <trkpt lat="45.56917" lon="6.01334">
        <ele>664.79998779297</ele>
        <time>2013-08-25T07:55:14.000Z</time>
      </trkpt>
      <trkpt lat="45.56917" lon="6.01334">
        <ele>664.79998779297</ele>
        <time>2013-08-25T07:55:15.000Z</time>
      </trkpt>
      <trkpt lat="45.56917" lon="6.01334">
        <ele>664.79998779297</ele>
        <time>2013-08-25T07:55:17.000Z</time>
      </trkpt>
      <trkpt lat="45.56917" lon="6.01334">
        <ele>664.79998779297</ele>
        <time>2013-08-25T07:55:18.000Z</time>
      </trkpt>
      <trkpt lat="45.56917" lon="6.01334">
        <ele>664.79998779297</ele>
        <time>2013-08-25T07:55:19.000Z</time>
      </trkpt>
      <trkpt lat="45.56917" lon="6.01334">
        <ele>664.79998779297</ele>
        <time>2013-08-25T07:55:20.000Z</time>
      </trkpt>
      <trkpt lat="45.56917" lon="6.01334">
        <ele>664.79998779297</ele>
        <time>2013-08-25T07:55:21.000Z</time>
      </trkpt>
      <trkpt lat="45.56917" lon="6.01334">
        <ele>664.79998779297</ele>
        <time>2013-08-25T07:55:23.000Z</time>
      </trkpt>
      <trkpt lat="45.56917" lon="6.01334">
        <ele>664.79998779297</ele>
        <time>2013-08-25T07:55:24.000Z</time>
      </trkpt>
      <trkpt lat="45.56917" lon="6.01334">
        <ele>664.79998779297</ele>
        <time>2013-08-25T07:55:25.000Z</time>
      </trkpt>
      <trkpt lat="45.56917" lon="6.01334">
        <ele>664.79998779297</ele>
        <time>2013-08-25T07:55:26.000Z</time>
      </trkpt>
      <trkpt lat="45.56917" lon="6.01334">
        <ele>664.79998779297</ele>
        <time>2013-08-25T07:55:27.000Z</time>
      </trkpt>
      <trkpt lat="45.56917" lon="6.01334">
        <ele>664.79998779297</ele>
        <time>2013-08-25T07:55:29.000Z</time>
      </trkpt>
      <trkpt lat="45.56917" lon="6.01334">
        <ele>664.79998779297</ele>
        <time>2013-08-25T07:55:30.000Z</time>
      </trkpt>
      <trkpt lat="45.56917" lon="6.01334">
        <ele>664.79998779297</ele>
        <time>2013-08-25T07:55:31.000Z</time>
      </trkpt>
      <trkpt lat="45.56917" lon="6.01334">
        <ele>664.79998779297</ele>
        <time>2013-08-25T07:55:32.000Z</time>
      </trkpt>
      <trkpt lat="45.56917" lon="6.01334">
        <ele>664.79998779297</ele>
        <time>2013-08-25T07:55:33.000Z</time>
      </trkpt>
      <trkpt lat="45.56917" lon="6.01334">
        <ele>664.79998779297</ele>
        <time>2013-08-25T07:55:37.000Z</time>
      </trkpt>
      <trkpt lat="45.56917" lon="6.01334">
        <ele>664.79998779297</ele>
        <time>2013-08-25T07:55:38.000Z</time>
      </trkpt>
      <trkpt lat="45.56917" lon="6.01334">
        <ele>664.79998779297</ele>
        <time>2013-08-25T07:55:43.000Z</time>
      </trkpt>
      <trkpt lat="45.56917" lon="6.01334">
        <ele>664.79998779297</ele>
        <time>2013-08-25T07:55:46.000Z</time>
      </trkpt>
      <trkpt lat="45.56917" lon="6.01334">
        <ele>664.79998779297</ele>
        <time>2013-08-25T07:55:50.000Z</time>
      </trkpt>
      <trkpt lat="45.56917" lon="6.01334">
        <ele>664.79998779297</ele>
        <time>2013-08-25T07:55:53.000Z</time>
      </trkpt>
      <trkpt lat="45.56917" lon="6.01334">
        <ele>664.79998779297</ele>
        <time>2013-08-25T07:55:55.000Z</time>
      </trkpt>
      <trkpt lat="45.56917" lon="6.01334">
        <ele>664.79998779297</ele>
        <time>2013-08-25T07:55:56.000Z</time>
      </trkpt>
      <trkpt lat="45.56917" lon="6.01334">
        <ele>664.79998779297</ele>
        <time>2013-08-25T07:55:57.000Z</time>
      </trkpt>
      <trkpt lat="45.56917" lon="6.01334">
        <ele>664.79998779297</ele>
        <time>2013-08-25T07:55:58.000Z</time>
      </trkpt>
      <trkpt lat="45.56917" lon="6.01334">
        <ele>664.79998779297</ele>
        <time>2013-08-25T07:55:59.000Z</time>
      </trkpt>
      <trkpt lat="45.56917" lon="6.01334">
        <ele>664.79998779297</ele>
        <time>2013-08-25T07:56:00.000Z</time>
      </trkpt>
      <trkpt lat="45.56917" lon="6.01334">
        <ele>664.79998779297</ele>
        <time>2013-08-25T07:56:01.000Z</time>
      </trkpt>
      <trkpt lat="45.56917" lon="6.01334">
        <ele>664.79998779297</ele>
        <time>2013-08-25T07:56:02.000Z</time>
      </trkpt>
      <trkpt lat="45.56917" lon="6.01334">
        <ele>664.79998779297</ele>
        <time>2013-08-25T07:56:04.000Z</time>
      </trkpt>
      <trkpt lat="45.56917" lon="6.01334">
        <ele>664.79998779297</ele>
        <time>2013-08-25T07:56:05.000Z</time>
      </trkpt>
      <trkpt lat="45.56917" lon="6.01334">
        <ele>664.79998779297</ele>
        <time>2013-08-25T07:56:06.000Z</time>
      </trkpt>
      <trkpt lat="45.56917" lon="6.01334">
        <ele>664.79998779297</ele>
        <time>2013-08-25T07:56:07.000Z</time>
      </trkpt>
      <trkpt lat="45.56917" lon="6.01334">
        <ele>664.79998779297</ele>
        <time>2013-08-25T07:56:08.000Z</time>
      </trkpt>
      <trkpt lat="45.56917" lon="6.01334">
        <ele>664.79998779297</ele>
        <time>2013-08-25T07:56:09.000Z</time>
      </trkpt>
      <trkpt lat="45.56917" lon="6.01334">
        <ele>664.79998779297</ele>
        <time>2013-08-25T07:56:11.000Z</time>
      </trkpt>
      <trkpt lat="45.56917" lon="6.01334">
        <ele>664.79998779297</ele>
        <time>2013-08-25T07:56:12.000Z</time>
      </trkpt>
      <trkpt lat="45.56917" lon="6.01334">
        <ele>664.79998779297</ele>
        <time>2013-08-25T07:56:13.000Z</time>
      </trkpt>
      <trkpt lat="45.56917" lon="6.01334">
        <ele>664.79998779297</ele>
        <time>2013-08-25T07:56:14.000Z</time>
      </trkpt>
      <trkpt lat="45.56917" lon="6.01334">
        <ele>664.79998779297</ele>
        <time>2013-08-25T07:56:15.000Z</time>
      </trkpt>
      <trkpt lat="45.56917" lon="6.01334">
        <ele>664.79998779297</ele>
        <time>2013-08-25T07:56:17.000Z</time>
      </trkpt>
      <trkpt lat="45.56917" lon="6.01334">
        <ele>664.79998779297</ele>
        <time>2013-08-25T07:56:20.000Z</time>
      </trkpt>
      <trkpt lat="45.56917" lon="6.01334">
        <ele>664.79998779297</ele>
        <time>2013-08-25T07:56:22.000Z</time>
      </trkpt>
      <trkpt lat="45.56917" lon="6.01334">
        <ele>664.79998779297</ele>
        <time>2013-08-25T07:56:23.000Z</time>
      </trkpt>
      <trkpt lat="45.56917" lon="6.01334">
        <ele>664.79998779297</ele>
        <time>2013-08-25T07:56:25.000Z</time>
      </trkpt>
      <trkpt lat="45.56917" lon="6.01334">
        <ele>664.79998779297</ele>
        <time>2013-08-25T07:56:27.000Z</time>
      </trkpt>
      <trkpt lat="45.56917" lon="6.01334">
        <ele>664.79998779297</ele>
        <time>2013-08-25T07:56:28.000Z</time>
      </trkpt>
      <trkpt lat="45.56917" lon="6.01334">
        <ele>664.79998779297</ele>
        <time>2013-08-25T07:56:29.000Z</time>
      </trkpt>
      <trkpt lat="45.56917" lon="6.01334">
        <ele>664.79998779297</ele>
        <time>2013-08-25T07:56:30.000Z</time>
      </trkpt>
      <trkpt lat="45.56917" lon="6.01334">
        <ele>664.79998779297</ele>
        <time>2013-08-25T07:56:31.000Z</time>
      </trkpt>
      <trkpt lat="45.56917" lon="6.01334">
        <ele>664.79998779297</ele>
        <time>2013-08-25T07:56:35.000Z</time>
      </trkpt>
      <trkpt lat="45.56917" lon="6.01334">
        <ele>664.79998779297</ele>
        <time>2013-08-25T07:56:37.000Z</time>
      </trkpt>
      <trkpt lat="45.56917" lon="6.01334">
        <ele>664.79998779297</ele>
        <time>2013-08-25T07:56:39.000Z</time>
      </trkpt>
      <trkpt lat="45.56917" lon="6.01334">
        <ele>664.79998779297</ele>
        <time>2013-08-25T07:56:42.000Z</time>
      </trkpt>
      <trkpt lat="45.56917" lon="6.01334">
        <ele>664.79998779297</ele>
        <time>2013-08-25T07:56:43.000Z</time>
      </trkpt>
      <trkpt lat="45.56917" lon="6.01334">
        <ele>664.79998779297</ele>
        <time>2013-08-25T07:56:44.000Z</time>
      </trkpt>
      <trkpt lat="45.56917" lon="6.01334">
        <ele>664.79998779297</ele>
        <time>2013-08-25T07:56:45.000Z</time>
      </trkpt>
      <trkpt lat="45.56917" lon="6.01334">
        <ele>664.79998779297</ele>
        <time>2013-08-25T07:56:47.000Z</time>
      </trkpt>
      <trkpt lat="45.56917" lon="6.01334">
        <ele>664.79998779297</ele>
        <time>2013-08-25T07:56:48.000Z</time>
      </trkpt>
      <trkpt lat="45.56917" lon="6.01334">
        <ele>664.79998779297</ele>
        <time>2013-08-25T07:56:50.000Z</time>
      </trkpt>
      <trkpt lat="45.56917" lon="6.01334">
        <ele>664.79998779297</ele>
        <time>2013-08-25T07:56:51.000Z</time>
      </trkpt>
      <trkpt lat="45.56917" lon="6.01334">
        <ele>664.79998779297</ele>
        <time>2013-08-25T07:56:53.000Z</time>
      </trkpt>
      <trkpt lat="45.56917" lon="6.01334">
        <ele>664.79998779297</ele>
        <time>2013-08-25T07:56:54.000Z</time>
      </trkpt>
      <trkpt lat="45.56917" lon="6.01334">
        <ele>664.79998779297</ele>
        <time>2013-08-25T07:56:55.000Z</time>
      </trkpt>
      <trkpt lat="45.56917" lon="6.01334">
        <ele>664.79998779297</ele>
        <time>2013-08-25T07:56:56.000Z</time>
      </trkpt>
      <trkpt lat="45.56917" lon="6.01334">
        <ele>664.79998779297</ele>
        <time>2013-08-25T07:56:57.000Z</time>
      </trkpt>
      <trkpt lat="45.56917" lon="6.01334">
        <ele>664.79998779297</ele>
        <time>2013-08-25T07:56:58.000Z</time>
      </trkpt>
      <trkpt lat="45.56917" lon="6.01334">
        <ele>664.79998779297</ele>
        <time>2013-08-25T07:57:00.000Z</time>
      </trkpt>
      <trkpt lat="45.56917" lon="6.01334">
        <ele>664.79998779297</ele>
        <time>2013-08-25T07:57:01.000Z</time>
      </trkpt>
      <trkpt lat="45.56917" lon="6.01334">
        <ele>664.79998779297</ele>
        <time>2013-08-25T07:57:03.000Z</time>
      </trkpt>
      <trkpt lat="45.56917" lon="6.01334">
        <ele>664.79998779297</ele>
        <time>2013-08-25T07:57:04.000Z</time>
      </trkpt>
      <trkpt lat="45.56917" lon="6.01334">
        <ele>664.79998779297</ele>
        <time>2013-08-25T07:57:05.000Z</time>
      </trkpt>
      <trkpt lat="45.56917" lon="6.01334">
        <ele>664.79998779297</ele>
        <time>2013-08-25T07:57:06.000Z</time>
      </trkpt>
      <trkpt lat="45.56917" lon="6.01334">
        <ele>664.79998779297</ele>
        <time>2013-08-25T07:57:07.000Z</time>
      </trkpt>
      <trkpt lat="45.56917" lon="6.01334">
        <ele>664.79998779297</ele>
        <time>2013-08-25T07:57:12.000Z</time>
      </trkpt>
      <trkpt lat="45.56917" lon="6.01334">
        <ele>664.79998779297</ele>
        <time>2013-08-25T07:57:13.000Z</time>
      </trkpt>
      <trkpt lat="45.56917" lon="6.01334">
        <ele>664.79998779297</ele>
        <time>2013-08-25T07:57:15.000Z</time>
      </trkpt>
      <trkpt lat="45.56917" lon="6.01334">
        <ele>664.79998779297</ele>
        <time>2013-08-25T07:57:17.000Z</time>
      </trkpt>
      <trkpt lat="45.56917" lon="6.01334">
        <ele>664.79998779297</ele>
        <time>2013-08-25T07:57:18.000Z</time>
      </trkpt>
      <trkpt lat="45.56917" lon="6.01334">
        <ele>664.79998779297</ele>
        <time>2013-08-25T07:57:20.000Z</time>
      </trkpt>
      <trkpt lat="45.56917" lon="6.01334">
        <ele>664.79998779297</ele>
        <time>2013-08-25T07:57:21.000Z</time>
      </trkpt>
      <trkpt lat="45.56917" lon="6.01334">
        <ele>664.79998779297</ele>
        <time>2013-08-25T07:57:22.000Z</time>
      </trkpt>
      <trkpt lat="45.56917" lon="6.01334">
        <ele>664.79998779297</ele>
        <time>2013-08-25T07:57:23.000Z</time>
      </trkpt>
      <trkpt lat="45.56917" lon="6.01334">
        <ele>664.79998779297</ele>
        <time>2013-08-25T07:57:24.000Z</time>
      </trkpt>
      <trkpt lat="45.56917" lon="6.01334">
        <ele>664.79998779297</ele>
        <time>2013-08-25T07:57:25.000Z</time>
      </trkpt>
      <trkpt lat="45.56917" lon="6.01334">
        <ele>664.79998779297</ele>
        <time>2013-08-25T07:57:26.000Z</time>
      </trkpt>
      <trkpt lat="45.56917" lon="6.01334">
        <ele>664.79998779297</ele>
        <time>2013-08-25T07:57:28.000Z</time>
      </trkpt>
      <trkpt lat="45.56917" lon="6.01334">
        <ele>664.79998779297</ele>
        <time>2013-08-25T07:57:29.000Z</time>
      </trkpt>
      <trkpt lat="45.56917" lon="6.01334">
        <ele>664.79998779297</ele>
        <time>2013-08-25T07:57:30.000Z</time>
      </trkpt>
      <trkpt lat="45.56917" lon="6.01334">
        <ele>664.79998779297</ele>
        <time>2013-08-25T07:57:36.000Z</time>
      </trkpt>
      <trkpt lat="45.56917" lon="6.01334">
        <ele>664.79998779297</ele>
        <time>2013-08-25T07:57:37.000Z</time>
      </trkpt>
      <trkpt lat="45.56917" lon="6.01334">
        <ele>664.79998779297</ele>
        <time>2013-08-25T07:57:38.000Z</time>
      </trkpt>
      <trkpt lat="45.56917" lon="6.01334">
        <ele>664.79998779297</ele>
        <time>2013-08-25T07:57:43.000Z</time>
      </trkpt>
      <trkpt lat="45.56917" lon="6.01334">
        <ele>664.79998779297</ele>
        <time>2013-08-25T07:57:45.000Z</time>
      </trkpt>
      <trkpt lat="45.56917" lon="6.01334">
        <ele>664.79998779297</ele>
        <time>2013-08-25T07:57:48.000Z</time>
      </trkpt>
      <trkpt lat="45.56917" lon="6.01334">
        <ele>664.79998779297</ele>
        <time>2013-08-25T07:57:51.000Z</time>
      </trkpt>
      <trkpt lat="45.56917" lon="6.01334">
        <ele>664.79998779297</ele>
        <time>2013-08-25T07:57:52.000Z</time>
      </trkpt>
      <trkpt lat="45.56917" lon="6.01334">
        <ele>664.79998779297</ele>
        <time>2013-08-25T07:57:53.000Z</time>
      </trkpt>
      <trkpt lat="45.56917" lon="6.01334">
        <ele>664.79998779297</ele>
        <time>2013-08-25T07:57:58.000Z</time>
      </trkpt>
      <trkpt lat="45.56917" lon="6.01334">
        <ele>664.79998779297</ele>
        <time>2013-08-25T07:58:01.000Z</time>
      </trkpt>
      <trkpt lat="45.56917" lon="6.01334">
        <ele>664.79998779297</ele>
        <time>2013-08-25T07:58:02.000Z</time>
      </trkpt>
      <trkpt lat="45.56917" lon="6.01334">
        <ele>664.79998779297</ele>
        <time>2013-08-25T07:58:03.000Z</time>
      </trkpt>
      <trkpt lat="45.56917" lon="6.01334">
        <ele>664.79998779297</ele>
        <time>2013-08-25T07:58:04.000Z</time>
      </trkpt>
      <trkpt lat="45.56917" lon="6.01334">
        <ele>664.79998779297</ele>
        <time>2013-08-25T07:58:05.000Z</time>
      </trkpt>
      <trkpt lat="45.56917" lon="6.01334">
        <ele>664.79998779297</ele>
        <time>2013-08-25T07:58:10.000Z</time>
      </trkpt>
      <trkpt lat="45.56917" lon="6.01334">
        <ele>664.79998779297</ele>
        <time>2013-08-25T07:58:11.000Z</time>
      </trkpt>
      <trkpt lat="45.56917" lon="6.01334">
        <ele>664.79998779297</ele>
        <time>2013-08-25T07:58:12.000Z</time>
      </trkpt>
      <trkpt lat="45.56917" lon="6.01334">
        <ele>664.79998779297</ele>
        <time>2013-08-25T07:58:14.000Z</time>
      </trkpt>
      <trkpt lat="45.56917" lon="6.01334">
        <ele>664.79998779297</ele>
        <time>2013-08-25T07:58:16.000Z</time>
      </trkpt>
      <trkpt lat="45.56917" lon="6.01334">
        <ele>664.79998779297</ele>
        <time>2013-08-25T07:58:17.000Z</time>
      </trkpt>
      <trkpt lat="45.56917" lon="6.01334">
        <ele>664.79998779297</ele>
        <time>2013-08-25T07:58:19.000Z</time>
      </trkpt>
      <trkpt lat="45.56917" lon="6.01334">
        <ele>664.79998779297</ele>
        <time>2013-08-25T07:58:20.000Z</time>
      </trkpt>
      <trkpt lat="45.56917" lon="6.01334">
        <ele>664.79998779297</ele>
        <time>2013-08-25T07:58:21.000Z</time>
      </trkpt>
      <trkpt lat="45.56917" lon="6.01334">
        <ele>664.79998779297</ele>
        <time>2013-08-25T07:58:22.000Z</time>
      </trkpt>
      <trkpt lat="45.56917" lon="6.01334">
        <ele>664.79998779297</ele>
        <time>2013-08-25T07:58:23.000Z</time>
      </trkpt>
      <trkpt lat="45.56917" lon="6.01334">
        <ele>664.79998779297</ele>
        <time>2013-08-25T07:58:24.000Z</time>
      </trkpt>
      <trkpt lat="45.56917" lon="6.01334">
        <ele>664.79998779297</ele>
        <time>2013-08-25T07:58:26.000Z</time>
      </trkpt>
      <trkpt lat="45.56917" lon="6.01334">
        <ele>664.79998779297</ele>
        <time>2013-08-25T07:58:28.000Z</time>
      </trkpt>
      <trkpt lat="45.56917" lon="6.01334">
        <ele>664.79998779297</ele>
        <time>2013-08-25T07:58:29.000Z</time>
      </trkpt>
      <trkpt lat="45.56917" lon="6.01334">
        <ele>664.79998779297</ele>
        <time>2013-08-25T07:58:30.000Z</time>
      </trkpt>
      <trkpt lat="45.56917" lon="6.01334">
        <ele>664.79998779297</ele>
        <time>2013-08-25T07:58:31.000Z</time>
      </trkpt>
      <trkpt lat="45.56917" lon="6.01334">
        <ele>664.79998779297</ele>
        <time>2013-08-25T07:58:32.000Z</time>
      </trkpt>
      <trkpt lat="45.56917" lon="6.01334">
        <ele>664.79998779297</ele>
        <time>2013-08-25T07:58:33.000Z</time>
      </trkpt>
      <trkpt lat="45.56917" lon="6.01334">
        <ele>664.79998779297</ele>
        <time>2013-08-25T07:58:34.000Z</time>
      </trkpt>
      <trkpt lat="45.56917" lon="6.01334">
        <ele>664.79998779297</ele>
        <time>2013-08-25T07:58:35.000Z</time>
      </trkpt>
      <trkpt lat="45.56917" lon="6.01334">
        <ele>664.79998779297</ele>
        <time>2013-08-25T07:58:36.000Z</time>
      </trkpt>
      <trkpt lat="45.56917" lon="6.01334">
        <ele>664.79998779297</ele>
        <time>2013-08-25T07:58:37.000Z</time>
      </trkpt>
      <trkpt lat="45.56917" lon="6.01334">
        <ele>664.79998779297</ele>
        <time>2013-08-25T07:58:42.000Z</time>
      </trkpt>
      <trkpt lat="45.56917" lon="6.01334">
        <ele>664.79998779297</ele>
        <time>2013-08-25T07:58:46.000Z</time>
      </trkpt>
      <trkpt lat="45.56917" lon="6.01334">
        <ele>664.79998779297</ele>
        <time>2013-08-25T07:58:47.000Z</time>
      </trkpt>
      <trkpt lat="45.56917" lon="6.01334">
        <ele>664.79998779297</ele>
        <time>2013-08-25T07:58:49.000Z</time>
      </trkpt>
      <trkpt lat="45.56917" lon="6.01334">
        <ele>664.79998779297</ele>
        <time>2013-08-25T07:58:50.000Z</time>
      </trkpt>
      <trkpt lat="45.56917" lon="6.01334">
        <ele>664.79998779297</ele>
        <time>2013-08-25T07:58:51.000Z</time>
      </trkpt>
      <trkpt lat="45.56917" lon="6.01334">
        <ele>664.79998779297</ele>
        <time>2013-08-25T07:58:52.000Z</time>
      </trkpt>
      <trkpt lat="45.56917" lon="6.01334">
        <ele>664.79998779297</ele>
        <time>2013-08-25T07:58:53.000Z</time>
      </trkpt>
      <trkpt lat="45.56917" lon="6.01334">
        <ele>664.79998779297</ele>
        <time>2013-08-25T07:58:55.000Z</time>
      </trkpt>
      <trkpt lat="45.56917" lon="6.01334">
        <ele>664.79998779297</ele>
        <time>2013-08-25T07:58:56.000Z</time>
      </trkpt>
      <trkpt lat="45.56917" lon="6.01334">
        <ele>664.79998779297</ele>
        <time>2013-08-25T07:59:04.000Z</time>
      </trkpt>
      <trkpt lat="45.56917" lon="6.01334">
        <ele>664.79998779297</ele>
        <time>2013-08-25T07:59:06.000Z</time>
      </trkpt>
      <trkpt lat="45.56917" lon="6.01334">
        <ele>664.79998779297</ele>
        <time>2013-08-25T07:59:07.000Z</time>
      </trkpt>
      <trkpt lat="45.56917" lon="6.01334">
        <ele>664.79998779297</ele>
        <time>2013-08-25T07:59:23.000Z</time>
      </trkpt>
      <trkpt lat="45.56917" lon="6.01334">
        <ele>664.79998779297</ele>
        <time>2013-08-25T07:59:25.000Z</time>
      </trkpt>
      <trkpt lat="45.56917" lon="6.01334">
        <ele>664.79998779297</ele>
        <time>2013-08-25T07:59:26.000Z</time>
      </trkpt>
      <trkpt lat="45.56917" lon="6.01334">
        <ele>664.79998779297</ele>
        <time>2013-08-25T07:59:27.000Z</time>
      </trkpt>
      <trkpt lat="45.56917" lon="6.01334">
        <ele>664.79998779297</ele>
        <time>2013-08-25T07:59:31.000Z</time>
      </trkpt>
      <trkpt lat="45.56917" lon="6.01334">
        <ele>664.79998779297</ele>
        <time>2013-08-25T07:59:33.000Z</time>
      </trkpt>
      <trkpt lat="45.56047" lon="6.02474">
        <ele>649.59997558594</ele>
        <time>2013-08-25T07:59:34.000Z</time>
      </trkpt>
      <trkpt lat="45.56055" lon="6.02472">
        <ele>649.40002441406</ele>
        <time>2013-08-25T07:59:37.000Z</time>
      </trkpt>
      <trkpt lat="45.56058" lon="6.02472">
        <ele>649.20001220703</ele>
        <time>2013-08-25T07:59:38.000Z</time>
      </trkpt>
      <trkpt lat="45.56069" lon="6.02471">
        <ele>649</ele>
        <time>2013-08-25T07:59:42.000Z</time>
      </trkpt>
      <trkpt lat="45.56072" lon="6.0247">
        <ele>648.79998779297</ele>
        <time>2013-08-25T07:59:43.000Z</time>
      </trkpt>
      <trkpt lat="45.56074" lon="6.0247">
        <ele>648.79998779297</ele>
        <time>2013-08-25T07:59:44.000Z</time>
      </trkpt>
      <trkpt lat="45.56082" lon="6.02469">
        <ele>648.40002441406</ele>
        <time>2013-08-25T07:59:47.000Z</time>
      </trkpt>
      <trkpt lat="45.56106" lon="6.0246">
        <ele>649.59997558594</ele>
        <time>2013-08-25T07:59:56.000Z</time>
      </trkpt>
      <trkpt lat="45.56108" lon="6.02459">
        <ele>649.79998779297</ele>
        <time>2013-08-25T07:59:57.000Z</time>
      </trkpt>
      <trkpt lat="45.5611" lon="6.02458">
        <ele>650</ele>
        <time>2013-08-25T07:59:58.000Z</time>
      </trkpt>
      <trkpt lat="45.56117" lon="6.02454">
        <ele>650</ele>
        <time>2013-08-25T08:00:01.000Z</time>
      </trkpt>
      <trkpt lat="45.56137" lon="6.02447">
        <ele>651.20001220703</ele>
        <time>2013-08-25T08:00:09.000Z</time>
      </trkpt>
      <trkpt lat="45.56142" lon="6.02444">
        <ele>651.40002441406</ele>
        <time>2013-08-25T08:00:11.000Z</time>
      </trkpt>
      <trkpt lat="45.56147" lon="6.02442">
        <ele>651.59997558594</ele>
        <time>2013-08-25T08:00:13.000Z</time>
      </trkpt>
      <trkpt lat="45.56149" lon="6.02442">
        <ele>651.79998779297</ele>
        <time>2013-08-25T08:00:14.000Z</time>
      </trkpt>
      <trkpt lat="45.5616" lon="6.02467">
        <ele>658.40002441406</ele>
        <time>2013-08-25T08:00:24.000Z</time>
      </trkpt>
      <trkpt lat="45.56147" lon="6.02482">
        <ele>659.40002441406</ele>
        <time>2013-08-25T08:00:30.000Z</time>
      </trkpt>
      <trkpt lat="45.56112" lon="6.02492">
        <ele>656.59997558594</ele>
        <time>2013-08-25T08:00:46.000Z</time>
      </trkpt>
      <trkpt lat="45.56111" lon="6.02493">
        <ele>656.59997558594</ele>
        <time>2013-08-25T08:00:47.000Z</time>
      </trkpt>
      <trkpt lat="45.56104" lon="6.02497">
        <ele>656.20001220703</ele>
        <time>2013-08-25T08:00:51.000Z</time>
      </trkpt>
      <trkpt lat="45.56097" lon="6.02502">
        <ele>656.40002441406</ele>
        <time>2013-08-25T08:00:54.000Z</time>
      </trkpt>
      <trkpt lat="45.56095" lon="6.02503">
        <ele>656.40002441406</ele>
        <time>2013-08-25T08:00:55.000Z</time>
      </trkpt>
      <trkpt lat="45.56093" lon="6.02504">
        <ele>656.59997558594</ele>
        <time>2013-08-25T08:00:56.000Z</time>
      </trkpt>
      <trkpt lat="45.56084" lon="6.02509">
        <ele>657</ele>
        <time>2013-08-25T08:01:00.000Z</time>
      </trkpt>
      <trkpt lat="45.56078" lon="6.02513">
        <ele>658</ele>
        <time>2013-08-25T08:01:03.000Z</time>
      </trkpt>
      <trkpt lat="45.56076" lon="6.02514">
        <ele>658.20001220703</ele>
        <time>2013-08-25T08:01:04.000Z</time>
      </trkpt>
      <trkpt lat="45.56074" lon="6.02516">
        <ele>658.59997558594</ele>
        <time>2013-08-25T08:01:05.000Z</time>
      </trkpt>
      <trkpt lat="45.56072" lon="6.02516">
        <ele>658.79998779297</ele>
        <time>2013-08-25T08:01:06.000Z</time>
      </trkpt>
      <trkpt lat="45.56067" lon="6.02521">
        <ele>659.79998779297</ele>
        <time>2013-08-25T08:01:09.000Z</time>
      </trkpt>
      <trkpt lat="45.56052" lon="6.02532">
        <ele>662.40002441406</ele>
        <time>2013-08-25T08:01:17.000Z</time>
      </trkpt>
      <trkpt lat="45.56048" lon="6.02538">
        <ele>663.79998779297</ele>
        <time>2013-08-25T08:01:18.000Z</time>
      </trkpt>
      <trkpt lat="45.56042" lon="6.02549">
        <ele>666.40002441406</ele>
        <time>2013-08-25T08:01:20.000Z</time>
      </trkpt>
      <trkpt lat="45.56041" lon="6.02552">
        <ele>667.40002441406</ele>
        <time>2013-08-25T08:01:21.000Z</time>
      </trkpt>
      <trkpt lat="45.56044" lon="6.0256">
        <ele>670.20001220703</ele>
        <time>2013-08-25T08:01:23.000Z</time>
      </trkpt>
      <trkpt lat="45.56063" lon="6.02569">
        <ele>675</ele>
        <time>2013-08-25T08:01:31.000Z</time>
      </trkpt>
      <trkpt lat="45.56066" lon="6.02565">
        <ele>674</ele>
        <time>2013-08-25T08:01:32.000Z</time>
      </trkpt>
      <trkpt lat="45.56082" lon="6.02548">
        <ele>669.79998779297</ele>
        <time>2013-08-25T08:01:38.000Z</time>
      </trkpt>
      <trkpt lat="45.56101" lon="6.02541">
        <ele>669.59997558594</ele>
        <time>2013-08-25T08:01:46.000Z</time>
      </trkpt>
      <trkpt lat="45.56111" lon="6.02537">
        <ele>669.40002441406</ele>
        <time>2013-08-25T08:01:51.000Z</time>
      </trkpt>
      <trkpt lat="45.56122" lon="6.02538">
        <ele>670.59997558594</ele>
        <time>2013-08-25T08:01:55.000Z</time>
      </trkpt>
      <trkpt lat="45.56126" lon="6.02539">
        <ele>671.40002441406</ele>
        <time>2013-08-25T08:01:57.000Z</time>
      </trkpt>
      <trkpt lat="45.5613" lon="6.02538">
        <ele>671.79998779297</ele>
        <time>2013-08-25T08:01:59.000Z</time>
      </trkpt>
      <trkpt lat="45.56142" lon="6.02538">
        <ele>673</ele>
        <time>2013-08-25T08:02:05.000Z</time>
      </trkpt>
      <trkpt lat="45.56162" lon="6.02542">
        <ele>676</ele>
        <time>2013-08-25T08:02:13.000Z</time>
      </trkpt>
      <trkpt lat="45.56164" lon="6.02543">
        <ele>676.40002441406</ele>
        <time>2013-08-25T08:02:14.000Z</time>
      </trkpt>
      <trkpt lat="45.56171" lon="6.02544">
        <ele>678</ele>
        <time>2013-08-25T08:02:17.000Z</time>
      </trkpt>
      <trkpt lat="45.56185" lon="6.02539">
        <ele>679.79998779297</ele>
        <time>2013-08-25T08:02:23.000Z</time>
      </trkpt>
      <trkpt lat="45.5619" lon="6.02537">
        <ele>680.20001220703</ele>
        <time>2013-08-25T08:02:25.000Z</time>
      </trkpt>
      <trkpt lat="45.56198" lon="6.0253">
        <ele>680.20001220703</ele>
        <time>2013-08-25T08:02:29.000Z</time>
      </trkpt>
      <trkpt lat="45.56201" lon="6.02526">
        <ele>680</ele>
        <time>2013-08-25T08:02:31.000Z</time>
      </trkpt>
      <trkpt lat="45.56203" lon="6.02525">
        <ele>679.79998779297</ele>
        <time>2013-08-25T08:02:32.000Z</time>
      </trkpt>
      <trkpt lat="45.56205" lon="6.02523">
        <ele>679.79998779297</ele>
        <time>2013-08-25T08:02:33.000Z</time>
      </trkpt>
      <trkpt lat="45.56207" lon="6.02521">
        <ele>679.79998779297</ele>
        <time>2013-08-25T08:02:34.000Z</time>
      </trkpt>
      <trkpt lat="45.56221" lon="6.02511">
        <ele>680.40002441406</ele>
        <time>2013-08-25T08:02:42.000Z</time>
      </trkpt>
      <trkpt lat="45.56225" lon="6.02511">
        <ele>681.40002441406</ele>
        <time>2013-08-25T08:02:44.000Z</time>
      </trkpt>
      <trkpt lat="45.56238" lon="6.02514">
        <ele>684.79998779297</ele>
        <time>2013-08-25T08:02:50.000Z</time>
      </trkpt>
      <trkpt lat="45.56243" lon="6.02514">
        <ele>686</ele>
        <time>2013-08-25T08:02:52.000Z</time>
      </trkpt>
      <trkpt lat="45.56248" lon="6.02514">
        <ele>687</ele>
        <time>2013-08-25T08:02:54.000Z</time>
      </trkpt>
      <trkpt lat="45.56275" lon="6.02496">
        <ele>690.20001220703</ele>
        <time>2013-08-25T08:03:08.000Z</time>
      </trkpt>
      <trkpt lat="45.56276" lon="6.02492">
        <ele>689.79998779297</ele>
        <time>2013-08-25T08:03:10.000Z</time>
      </trkpt>
      <trkpt lat="45.56277" lon="6.02489">
        <ele>689.40002441406</ele>
        <time>2013-08-25T08:03:11.000Z</time>
      </trkpt>
      <trkpt lat="45.56277" lon="6.02483">
        <ele>688.59997558594</ele>
        <time>2013-08-25T08:03:13.000Z</time>
      </trkpt>
      <trkpt lat="45.56276" lon="6.02474">
        <ele>686.79998779297</ele>
        <time>2013-08-25T08:03:15.000Z</time>
      </trkpt>
      <trkpt lat="45.56276" lon="6.0247">
        <ele>686</ele>
        <time>2013-08-25T08:03:16.000Z</time>
      </trkpt>
      <trkpt lat="45.56275" lon="6.02464">
        <ele>685</ele>
        <time>2013-08-25T08:03:18.000Z</time>
      </trkpt>
      <trkpt lat="45.56276" lon="6.02456">
        <ele>683.79998779297</ele>
        <time>2013-08-25T08:03:21.000Z</time>
      </trkpt>
      <trkpt lat="45.56278" lon="6.0245">
        <ele>683.20001220703</ele>
        <time>2013-08-25T08:03:23.000Z</time>
      </trkpt>
      <trkpt lat="45.56281" lon="6.02447">
        <ele>683.40002441406</ele>
        <time>2013-08-25T08:03:25.000Z</time>
      </trkpt>
      <trkpt lat="45.56283" lon="6.02446">
        <ele>683.79998779297</ele>
        <time>2013-08-25T08:03:26.000Z</time>
      </trkpt>
      <trkpt lat="45.56285" lon="6.02446">
        <ele>684.20001220703</ele>
        <time>2013-08-25T08:03:27.000Z</time>
      </trkpt>
      <trkpt lat="45.56287" lon="6.02445">
        <ele>684.59997558594</ele>
        <time>2013-08-25T08:03:28.000Z</time>
      </trkpt>
      <trkpt lat="45.56289" lon="6.02445">
        <ele>685</ele>
        <time>2013-08-25T08:03:29.000Z</time>
      </trkpt>
      <trkpt lat="45.56295" lon="6.02442">
        <ele>686</ele>
        <time>2013-08-25T08:03:32.000Z</time>
      </trkpt>
      <trkpt lat="45.56297" lon="6.02441">
        <ele>686.40002441406</ele>
        <time>2013-08-25T08:03:33.000Z</time>
      </trkpt>
      <trkpt lat="45.56299" lon="6.0244">
        <ele>686.59997558594</ele>
        <time>2013-08-25T08:03:34.000Z</time>
      </trkpt>
      <trkpt lat="45.56301" lon="6.02438">
        <ele>686.79998779297</ele>
        <time>2013-08-25T08:03:35.000Z</time>
      </trkpt>
      <trkpt lat="45.56307" lon="6.02431">
        <ele>687.20001220703</ele>
        <time>2013-08-25T08:03:39.000Z</time>
      </trkpt>
      <trkpt lat="45.56309" lon="6.02429">
        <ele>687.40002441406</ele>
        <time>2013-08-25T08:03:40.000Z</time>
      </trkpt>
      <trkpt lat="45.56314" lon="6.02424">
        <ele>687.59997558594</ele>
        <time>2013-08-25T08:03:43.000Z</time>
      </trkpt>
      <trkpt lat="45.56316" lon="6.02422">
        <ele>687.79998779297</ele>
        <time>2013-08-25T08:03:44.000Z</time>
      </trkpt>
      <trkpt lat="45.56321" lon="6.02417">
        <ele>688.20001220703</ele>
        <time>2013-08-25T08:03:47.000Z</time>
      </trkpt>
      <trkpt lat="45.56348" lon="6.02402">
        <ele>690.20001220703</ele>
        <time>2013-08-25T08:04:02.000Z</time>
      </trkpt>
      <trkpt lat="45.56354" lon="6.024">
        <ele>690.59997558594</ele>
        <time>2013-08-25T08:04:05.000Z</time>
      </trkpt>
      <trkpt lat="45.56356" lon="6.02399">
        <ele>690.79998779297</ele>
        <time>2013-08-25T08:04:06.000Z</time>
      </trkpt>
      <trkpt lat="45.56365" lon="6.02395">
        <ele>691.59997558594</ele>
        <time>2013-08-25T08:04:10.000Z</time>
      </trkpt>
      <trkpt lat="45.56367" lon="6.02394">
        <ele>691.79998779297</ele>
        <time>2013-08-25T08:04:11.000Z</time>
      </trkpt>
      <trkpt lat="45.56369" lon="6.02393">
        <ele>692</ele>
        <time>2013-08-25T08:04:12.000Z</time>
      </trkpt>
      <trkpt lat="45.56381" lon="6.02391">
        <ele>693.59997558594</ele>
        <time>2013-08-25T08:04:19.000Z</time>
      </trkpt>
      <trkpt lat="45.56381" lon="6.02395">
        <ele>694.20001220703</ele>
        <time>2013-08-25T08:04:21.000Z</time>
      </trkpt>
      <trkpt lat="45.56377" lon="6.02399">
        <ele>694.20001220703</ele>
        <time>2013-08-25T08:04:23.000Z</time>
      </trkpt>
      <trkpt lat="45.56372" lon="6.02404">
        <ele>694.20001220703</ele>
        <time>2013-08-25T08:04:26.000Z</time>
      </trkpt>
      <trkpt lat="45.56368" lon="6.02408">
        <ele>694.40002441406</ele>
        <time>2013-08-25T08:04:28.000Z</time>
      </trkpt>
      <trkpt lat="45.56355" lon="6.02429">
        <ele>696</ele>
        <time>2013-08-25T08:04:39.000Z</time>
      </trkpt>
      <trkpt lat="45.56351" lon="6.02432">
        <ele>696.20001220703</ele>
        <time>2013-08-25T08:04:42.000Z</time>
      </trkpt>
      <trkpt lat="45.5635" lon="6.02433">
        <ele>696.20001220703</ele>
        <time>2013-08-25T08:04:43.000Z</time>
      </trkpt>
      <trkpt lat="45.56349" lon="6.02434">
        <ele>696.20001220703</ele>
        <time>2013-08-25T08:04:44.000Z</time>
      </trkpt>
      <trkpt lat="45.56341" lon="6.02437">
        <ele>695.59997558594</ele>
        <time>2013-08-25T08:04:52.000Z</time>
      </trkpt>
      <trkpt lat="45.5634" lon="6.02437">
        <ele>695.59997558594</ele>
        <time>2013-08-25T08:04:53.000Z</time>
      </trkpt>
      <trkpt lat="45.56337" lon="6.0244">
        <ele>695.79998779297</ele>
        <time>2013-08-25T08:04:57.000Z</time>
      </trkpt>
      <trkpt lat="45.56335" lon="6.02446">
        <ele>696.79998779297</ele>
        <time>2013-08-25T08:05:01.000Z</time>
      </trkpt>
      <trkpt lat="45.56332" lon="6.02453">
        <ele>697.40002441406</ele>
        <time>2013-08-25T08:05:07.000Z</time>
      </trkpt>
      <trkpt lat="45.56332" lon="6.02454">
        <ele>697.59997558594</ele>
        <time>2013-08-25T08:05:08.000Z</time>
      </trkpt>
      <trkpt lat="45.56331" lon="6.02455">
        <ele>697.79998779297</ele>
        <time>2013-08-25T08:05:09.000Z</time>
      </trkpt>
      <trkpt lat="45.56331" lon="6.02456">
        <ele>697.79998779297</ele>
        <time>2013-08-25T08:05:10.000Z</time>
      </trkpt>
      <trkpt lat="45.5633" lon="6.02465">
        <ele>699.20001220703</ele>
        <time>2013-08-25T08:05:15.000Z</time>
      </trkpt>
      <trkpt lat="45.5633" lon="6.0247">
        <ele>700.20001220703</ele>
        <time>2013-08-25T08:05:17.000Z</time>
      </trkpt>
      <trkpt lat="45.56332" lon="6.02484">
        <ele>703.40002441406</ele>
        <time>2013-08-25T08:05:26.000Z</time>
      </trkpt>
      <trkpt lat="45.56335" lon="6.0248">
        <ele>703.20001220703</ele>
        <time>2013-08-25T08:05:44.000Z</time>
      </trkpt>
      <trkpt lat="45.56352" lon="6.02483">
        <ele>705.20001220703</ele>
        <time>2013-08-25T08:06:03.000Z</time>
      </trkpt>
      <trkpt lat="45.56356" lon="6.02482">
        <ele>705.40002441406</ele>
        <time>2013-08-25T08:06:08.000Z</time>
      </trkpt>
      <trkpt lat="45.56357" lon="6.02483">
        <ele>705.79998779297</ele>
        <time>2013-08-25T08:06:11.000Z</time>
      </trkpt>
      <trkpt lat="45.56364" lon="6.0249">
        <ele>707.59997558594</ele>
        <time>2013-08-25T08:06:29.000Z</time>
      </trkpt>
      <trkpt lat="45.56365" lon="6.02495">
        <ele>708.40002441406</ele>
        <time>2013-08-25T08:06:34.000Z</time>
      </trkpt>
      <trkpt lat="45.56372" lon="6.0251">
        <ele>711.40002441406</ele>
        <time>2013-08-25T08:06:52.000Z</time>
      </trkpt>
      <trkpt lat="45.56371" lon="6.02518">
        <ele>712.59997558594</ele>
        <time>2013-08-25T08:06:56.000Z</time>
      </trkpt>
      <trkpt lat="45.56369" lon="6.02525">
        <ele>714</ele>
        <time>2013-08-25T08:07:08.000Z</time>
      </trkpt>
      <trkpt lat="45.56369" lon="6.02527">
        <ele>714.20001220703</ele>
        <time>2013-08-25T08:07:11.000Z</time>
      </trkpt>
      <trkpt lat="45.56369" lon="6.02529">
        <ele>714.40002441406</ele>
        <time>2013-08-25T08:07:12.000Z</time>
      </trkpt>
      <trkpt lat="45.56365" lon="6.02539">
        <ele>715.79998779297</ele>
        <time>2013-08-25T08:07:17.000Z</time>
      </trkpt>
      <trkpt lat="45.56364" lon="6.02545">
        <ele>717</ele>
        <time>2013-08-25T08:07:20.000Z</time>
      </trkpt>
      <trkpt lat="45.56363" lon="6.02548">
        <ele>717.40002441406</ele>
        <time>2013-08-25T08:07:21.000Z</time>
      </trkpt>
      <trkpt lat="45.56363" lon="6.02551">
        <ele>717.79998779297</ele>
        <time>2013-08-25T08:07:22.000Z</time>
      </trkpt>
      <trkpt lat="45.5636" lon="6.0256">
        <ele>719.20001220703</ele>
        <time>2013-08-25T08:07:26.000Z</time>
      </trkpt>
      <trkpt lat="45.56359" lon="6.02564">
        <ele>719.79998779297</ele>
        <time>2013-08-25T08:07:28.000Z</time>
      </trkpt>
      <trkpt lat="45.56357" lon="6.02569">
        <ele>720.40002441406</ele>
        <time>2013-08-25T08:07:33.000Z</time>
      </trkpt>
      <trkpt lat="45.56356" lon="6.02576">
        <ele>721.59997558594</ele>
        <time>2013-08-25T08:07:36.000Z</time>
      </trkpt>
      <trkpt lat="45.56357" lon="6.02584">
        <ele>723.20001220703</ele>
        <time>2013-08-25T08:07:40.000Z</time>
      </trkpt>
      <trkpt lat="45.56358" lon="6.02585">
        <ele>723.40002441406</ele>
        <time>2013-08-25T08:07:41.000Z</time>
      </trkpt>
      <trkpt lat="45.56356" lon="6.02602">
        <ele>727</ele>
        <time>2013-08-25T08:07:51.000Z</time>
      </trkpt>
      <trkpt lat="45.56353" lon="6.02607">
        <ele>727.79998779297</ele>
        <time>2013-08-25T08:07:54.000Z</time>
      </trkpt>
      <trkpt lat="45.56348" lon="6.0261">
        <ele>727.79998779297</ele>
        <time>2013-08-25T08:08:00.000Z</time>
      </trkpt>
      <trkpt lat="45.56341" lon="6.02613">
        <ele>728</ele>
        <time>2013-08-25T08:08:07.000Z</time>
      </trkpt>
      <trkpt lat="45.5634" lon="6.02613">
        <ele>727.79998779297</ele>
        <time>2013-08-25T08:08:08.000Z</time>
      </trkpt>
      <trkpt lat="45.56337" lon="6.02613">
        <ele>727.79998779297</ele>
        <time>2013-08-25T08:08:11.000Z</time>
      </trkpt>
      <trkpt lat="45.56336" lon="6.02614">
        <ele>727.59997558594</ele>
        <time>2013-08-25T08:08:13.000Z</time>
      </trkpt>
      <trkpt lat="45.56332" lon="6.02618">
        <ele>728.20001220703</ele>
        <time>2013-08-25T08:08:19.000Z</time>
      </trkpt>
      <trkpt lat="45.56332" lon="6.02618">
        <ele>728.20001220703</ele>
        <time>2013-08-25T08:08:21.000Z</time>
      </trkpt>
      <trkpt lat="45.56331" lon="6.0262">
        <ele>728.59997558594</ele>
        <time>2013-08-25T08:08:24.000Z</time>
      </trkpt>
      <trkpt lat="45.56329" lon="6.02626">
        <ele>729.40002441406</ele>
        <time>2013-08-25T08:08:26.000Z</time>
      </trkpt>
      <trkpt lat="45.56323" lon="6.02646">
        <ele>733</ele>
        <time>2013-08-25T08:08:33.000Z</time>
      </trkpt>
      <trkpt lat="45.56322" lon="6.02656">
        <ele>734.79998779297</ele>
        <time>2013-08-25T08:08:36.000Z</time>
      </trkpt>
      <trkpt lat="45.56321" lon="6.0266">
        <ele>735.40002441406</ele>
        <time>2013-08-25T08:08:38.000Z</time>
      </trkpt>
      <trkpt lat="45.56317" lon="6.02676">
        <ele>738.40002441406</ele>
        <time>2013-08-25T08:08:45.000Z</time>
      </trkpt>
      <trkpt lat="45.56315" lon="6.02683">
        <ele>739.59997558594</ele>
        <time>2013-08-25T08:08:52.000Z</time>
      </trkpt>
      <trkpt lat="45.56311" lon="6.0269">
        <ele>740.40002441406</ele>
        <time>2013-08-25T08:08:57.000Z</time>
      </trkpt>
      <trkpt lat="45.5631" lon="6.02691">
        <ele>740.40002441406</ele>
        <time>2013-08-25T08:08:58.000Z</time>
      </trkpt>
      <trkpt lat="45.56309" lon="6.02691">
        <ele>740.59997558594</ele>
        <time>2013-08-25T08:08:59.000Z</time>
      </trkpt>
      <trkpt lat="45.56309" lon="6.02693">
        <ele>740.79998779297</ele>
        <time>2013-08-25T08:09:00.000Z</time>
      </trkpt>
      <trkpt lat="45.56307" lon="6.02695">
        <ele>741</ele>
        <time>2013-08-25T08:09:02.000Z</time>
      </trkpt>
      <trkpt lat="45.56306" lon="6.02695">
        <ele>741</ele>
        <time>2013-08-25T08:09:03.000Z</time>
      </trkpt>
      <trkpt lat="45.56303" lon="6.02697">
        <ele>740.79998779297</ele>
        <time>2013-08-25T08:09:05.000Z</time>
      </trkpt>
      <trkpt lat="45.56301" lon="6.02698">
        <ele>740.79998779297</ele>
        <time>2013-08-25T08:09:06.000Z</time>
      </trkpt>
      <trkpt lat="45.56299" lon="6.02699">
        <ele>740.79998779297</ele>
        <time>2013-08-25T08:09:07.000Z</time>
      </trkpt>
      <trkpt lat="45.56297" lon="6.02699">
        <ele>740.59997558594</ele>
        <time>2013-08-25T08:09:08.000Z</time>
      </trkpt>
      <trkpt lat="45.56295" lon="6.027">
        <ele>740.59997558594</ele>
        <time>2013-08-25T08:09:09.000Z</time>
      </trkpt>
      <trkpt lat="45.56294" lon="6.02701">
        <ele>740.59997558594</ele>
        <time>2013-08-25T08:09:10.000Z</time>
      </trkpt>
      <trkpt lat="45.5629" lon="6.02703">
        <ele>740.59997558594</ele>
        <time>2013-08-25T08:09:13.000Z</time>
      </trkpt>
      <trkpt lat="45.56284" lon="6.02708">
        <ele>740.79998779297</ele>
        <time>2013-08-25T08:09:17.000Z</time>
      </trkpt>
      <trkpt lat="45.5628" lon="6.02713">
        <ele>741.40002441406</ele>
        <time>2013-08-25T08:09:19.000Z</time>
      </trkpt>
      <trkpt lat="45.56277" lon="6.02716">
        <ele>741.79998779297</ele>
        <time>2013-08-25T08:09:20.000Z</time>
      </trkpt>
      <trkpt lat="45.56265" lon="6.02726">
        <ele>742.79998779297</ele>
        <time>2013-08-25T08:09:26.000Z</time>
      </trkpt>
      <trkpt lat="45.56265" lon="6.02728">
        <ele>743.20001220703</ele>
        <time>2013-08-25T08:09:27.000Z</time>
      </trkpt>
      <trkpt lat="45.56263" lon="6.0273">
        <ele>743.40002441406</ele>
        <time>2013-08-25T08:09:28.000Z</time>
      </trkpt>
      <trkpt lat="45.56262" lon="6.02732">
        <ele>744</ele>
        <time>2013-08-25T08:09:29.000Z</time>
      </trkpt>
      <trkpt lat="45.5626" lon="6.02732">
        <ele>743.59997558594</ele>
        <time>2013-08-25T08:09:30.000Z</time>
      </trkpt>
      <trkpt lat="45.5626" lon="6.02732">
        <ele>743.59997558594</ele>
        <time>2013-08-25T08:09:31.000Z</time>
      </trkpt>
      <trkpt lat="45.5626" lon="6.02732">
        <ele>743.59997558594</ele>
        <time>2013-08-25T08:09:32.000Z</time>
      </trkpt>
      <trkpt lat="45.56259" lon="6.02733">
        <ele>743.59997558594</ele>
        <time>2013-08-25T08:09:38.000Z</time>
      </trkpt>
      <trkpt lat="45.56259" lon="6.02733">
        <ele>743.59997558594</ele>
        <time>2013-08-25T08:09:39.000Z</time>
      </trkpt>
      <trkpt lat="45.56259" lon="6.02734">
        <ele>743.79998779297</ele>
        <time>2013-08-25T08:09:40.000Z</time>
      </trkpt>
      <trkpt lat="45.56258" lon="6.02735">
        <ele>744</ele>
        <time>2013-08-25T08:09:41.000Z</time>
      </trkpt>
      <trkpt lat="45.56247" lon="6.02763">
        <ele>749.79998779297</ele>
        <time>2013-08-25T08:09:46.000Z</time>
      </trkpt>
      <trkpt lat="45.56235" lon="6.02786">
        <ele>754.40002441406</ele>
        <time>2013-08-25T08:09:52.000Z</time>
      </trkpt>
      <trkpt lat="45.56228" lon="6.02792">
        <ele>755.40002441406</ele>
        <time>2013-08-25T08:09:55.000Z</time>
      </trkpt>
      <trkpt lat="45.56227" lon="6.02794">
        <ele>755.79998779297</ele>
        <time>2013-08-25T08:09:56.000Z</time>
      </trkpt>
      <trkpt lat="45.56225" lon="6.02796">
        <ele>756</ele>
        <time>2013-08-25T08:09:57.000Z</time>
      </trkpt>
      <trkpt lat="45.56223" lon="6.02798">
        <ele>756.20001220703</ele>
        <time>2013-08-25T08:09:58.000Z</time>
      </trkpt>
      <trkpt lat="45.56218" lon="6.02801">
        <ele>756.59997558594</ele>
        <time>2013-08-25T08:10:00.000Z</time>
      </trkpt>
      <trkpt lat="45.56208" lon="6.02808">
        <ele>757.20001220703</ele>
        <time>2013-08-25T08:10:05.000Z</time>
      </trkpt>
      <trkpt lat="45.56205" lon="6.02809">
        <ele>757.20001220703</ele>
        <time>2013-08-25T08:10:06.000Z</time>
      </trkpt>
      <trkpt lat="45.56195" lon="6.02813">
        <ele>757.20001220703</ele>
        <time>2013-08-25T08:10:10.000Z</time>
      </trkpt>
      <trkpt lat="45.56193" lon="6.02814">
        <ele>757.40002441406</ele>
        <time>2013-08-25T08:10:11.000Z</time>
      </trkpt>
      <trkpt lat="45.56191" lon="6.02814">
        <ele>757</ele>
        <time>2013-08-25T08:10:13.000Z</time>
      </trkpt>
      <trkpt lat="45.56189" lon="6.02813">
        <ele>756.79998779297</ele>
        <time>2013-08-25T08:10:14.000Z</time>
      </trkpt>
      <trkpt lat="45.56188" lon="6.02813">
        <ele>756.59997558594</ele>
        <time>2013-08-25T08:10:15.000Z</time>
      </trkpt>
      <trkpt lat="45.56187" lon="6.02812">
        <ele>756.40002441406</ele>
        <time>2013-08-25T08:10:16.000Z</time>
      </trkpt>
      <trkpt lat="45.56186" lon="6.02812">
        <ele>756.20001220703</ele>
        <time>2013-08-25T08:10:17.000Z</time>
      </trkpt>
      <trkpt lat="45.56182" lon="6.02811">
        <ele>755.59997558594</ele>
        <time>2013-08-25T08:10:21.000Z</time>
      </trkpt>
      <trkpt lat="45.5618" lon="6.02811">
        <ele>755.59997558594</ele>
        <time>2013-08-25T08:10:22.000Z</time>
      </trkpt>
      <trkpt lat="45.56179" lon="6.02811">
        <ele>755.40002441406</ele>
        <time>2013-08-25T08:10:23.000Z</time>
      </trkpt>
      <trkpt lat="45.56178" lon="6.02812">
        <ele>755.40002441406</ele>
        <time>2013-08-25T08:10:24.000Z</time>
      </trkpt>
      <trkpt lat="45.56177" lon="6.02812">
        <ele>755.40002441406</ele>
        <time>2013-08-25T08:10:25.000Z</time>
      </trkpt>
      <trkpt lat="45.56175" lon="6.02812">
        <ele>755.40002441406</ele>
        <time>2013-08-25T08:10:26.000Z</time>
      </trkpt>
      <trkpt lat="45.56174" lon="6.02813">
        <ele>755.40002441406</ele>
        <time>2013-08-25T08:10:27.000Z</time>
      </trkpt>
      <trkpt lat="45.56173" lon="6.02813">
        <ele>755.40002441406</ele>
        <time>2013-08-25T08:10:28.000Z</time>
      </trkpt>
      <trkpt lat="45.56171" lon="6.02814">
        <ele>755.40002441406</ele>
        <time>2013-08-25T08:10:29.000Z</time>
      </trkpt>
      <trkpt lat="45.56169" lon="6.02815">
        <ele>755.40002441406</ele>
        <time>2013-08-25T08:10:30.000Z</time>
      </trkpt>
      <trkpt lat="45.5613" lon="6.0286">
        <ele>759.20001220703</ele>
        <time>2013-08-25T08:10:38.000Z</time>
      </trkpt>
      <trkpt lat="45.56127" lon="6.02864">
        <ele>759.59997558594</ele>
        <time>2013-08-25T08:10:39.000Z</time>
      </trkpt>
      <trkpt lat="45.5612" lon="6.02873">
        <ele>760.59997558594</ele>
        <time>2013-08-25T08:10:42.000Z</time>
      </trkpt>
      <trkpt lat="45.56116" lon="6.02877">
        <ele>760.79998779297</ele>
        <time>2013-08-25T08:10:44.000Z</time>
      </trkpt>
      <trkpt lat="45.56113" lon="6.02882">
        <ele>761.20001220703</ele>
        <time>2013-08-25T08:10:46.000Z</time>
      </trkpt>
      <trkpt lat="45.56112" lon="6.02884">
        <ele>761.40002441406</ele>
        <time>2013-08-25T08:10:47.000Z</time>
      </trkpt>
      <trkpt lat="45.56107" lon="6.02891">
        <ele>762.20001220703</ele>
        <time>2013-08-25T08:10:50.000Z</time>
      </trkpt>
      <trkpt lat="45.56104" lon="6.02895">
        <ele>762.59997558594</ele>
        <time>2013-08-25T08:10:52.000Z</time>
      </trkpt>
      <trkpt lat="45.56102" lon="6.02899">
        <ele>763.20001220703</ele>
        <time>2013-08-25T08:10:54.000Z</time>
      </trkpt>
      <trkpt lat="45.561" lon="6.02902">
        <ele>763.59997558594</ele>
        <time>2013-08-25T08:10:55.000Z</time>
      </trkpt>
      <trkpt lat="45.56096" lon="6.0292">
        <ele>766</ele>
        <time>2013-08-25T08:11:01.000Z</time>
      </trkpt>
      <trkpt lat="45.56095" lon="6.02923">
        <ele>766</ele>
        <time>2013-08-25T08:11:02.000Z</time>
      </trkpt>
      <trkpt lat="45.56095" lon="6.02936">
        <ele>766.79998779297</ele>
        <time>2013-08-25T08:11:08.000Z</time>
      </trkpt>
      <trkpt lat="45.561" lon="6.02942">
        <ele>768</ele>
        <time>2013-08-25T08:11:13.000Z</time>
      </trkpt>
      <trkpt lat="45.56101" lon="6.02944">
        <ele>768.20001220703</ele>
        <time>2013-08-25T08:11:14.000Z</time>
      </trkpt>
      <trkpt lat="45.56103" lon="6.02947">
        <ele>768.59997558594</ele>
        <time>2013-08-25T08:11:16.000Z</time>
      </trkpt>
      <trkpt lat="45.56104" lon="6.02948">
        <ele>768.79998779297</ele>
        <time>2013-08-25T08:11:17.000Z</time>
      </trkpt>
      <trkpt lat="45.56107" lon="6.0295">
        <ele>769.20001220703</ele>
        <time>2013-08-25T08:11:19.000Z</time>
      </trkpt>
      <trkpt lat="45.56109" lon="6.02954">
        <ele>769.79998779297</ele>
        <time>2013-08-25T08:11:21.000Z</time>
      </trkpt>
      <trkpt lat="45.56111" lon="6.02957">
        <ele>770.20001220703</ele>
        <time>2013-08-25T08:11:23.000Z</time>
      </trkpt>
      <trkpt lat="45.56112" lon="6.0296">
        <ele>770.40002441406</ele>
        <time>2013-08-25T08:11:25.000Z</time>
      </trkpt>
      <trkpt lat="45.56114" lon="6.02964">
        <ele>770.79998779297</ele>
        <time>2013-08-25T08:11:27.000Z</time>
      </trkpt>
      <trkpt lat="45.56115" lon="6.02966">
        <ele>771</ele>
        <time>2013-08-25T08:11:28.000Z</time>
      </trkpt>
      <trkpt lat="45.5612" lon="6.02974">
        <ele>771.79998779297</ele>
        <time>2013-08-25T08:11:33.000Z</time>
      </trkpt>
      <trkpt lat="45.56122" lon="6.02979">
        <ele>772.20001220703</ele>
        <time>2013-08-25T08:11:36.000Z</time>
      </trkpt>
      <trkpt lat="45.56122" lon="6.02982">
        <ele>772.40002441406</ele>
        <time>2013-08-25T08:11:38.000Z</time>
      </trkpt>
      <trkpt lat="45.56122" lon="6.02984">
        <ele>772.59997558594</ele>
        <time>2013-08-25T08:11:39.000Z</time>
      </trkpt>
      <trkpt lat="45.56123" lon="6.02985">
        <ele>772.59997558594</ele>
        <time>2013-08-25T08:11:40.000Z</time>
      </trkpt>
      <trkpt lat="45.56123" lon="6.02987">
        <ele>772.79998779297</ele>
        <time>2013-08-25T08:11:42.000Z</time>
      </trkpt>
      <trkpt lat="45.56124" lon="6.02988">
        <ele>772.79998779297</ele>
        <time>2013-08-25T08:11:43.000Z</time>
      </trkpt>
      <trkpt lat="45.56125" lon="6.02989">
        <ele>773</ele>
        <time>2013-08-25T08:11:44.000Z</time>
      </trkpt>
      <trkpt lat="45.56126" lon="6.0299">
        <ele>773</ele>
        <time>2013-08-25T08:11:45.000Z</time>
      </trkpt>
      <trkpt lat="45.56127" lon="6.02991">
        <ele>773.20001220703</ele>
        <time>2013-08-25T08:11:47.000Z</time>
      </trkpt>
      <trkpt lat="45.5613" lon="6.02994">
        <ele>773.59997558594</ele>
        <time>2013-08-25T08:11:51.000Z</time>
      </trkpt>
      <trkpt lat="45.56151" lon="6.03022">
        <ele>774</ele>
        <time>2013-08-25T08:12:01.000Z</time>
      </trkpt>
      <trkpt lat="45.56154" lon="6.03026">
        <ele>774</ele>
        <time>2013-08-25T08:12:03.000Z</time>
      </trkpt>
      <trkpt lat="45.56159" lon="6.03042">
        <ele>773.20001220703</ele>
        <time>2013-08-25T08:12:07.000Z</time>
      </trkpt>
      <trkpt lat="45.56161" lon="6.03046">
        <ele>773.20001220703</ele>
        <time>2013-08-25T08:12:08.000Z</time>
      </trkpt>
      <trkpt lat="45.56164" lon="6.03049">
        <ele>773</ele>
        <time>2013-08-25T08:12:09.000Z</time>
      </trkpt>
      <trkpt lat="45.56165" lon="6.03053">
        <ele>773</ele>
        <time>2013-08-25T08:12:10.000Z</time>
      </trkpt>
      <trkpt lat="45.56167" lon="6.03056">
        <ele>773</ele>
        <time>2013-08-25T08:12:11.000Z</time>
      </trkpt>
      <trkpt lat="45.56168" lon="6.03059">
        <ele>773</ele>
        <time>2013-08-25T08:12:12.000Z</time>
      </trkpt>
      <trkpt lat="45.5617" lon="6.03062">
        <ele>773</ele>
        <time>2013-08-25T08:12:13.000Z</time>
      </trkpt>
      <trkpt lat="45.56172" lon="6.03065">
        <ele>773</ele>
        <time>2013-08-25T08:12:14.000Z</time>
      </trkpt>
      <trkpt lat="45.56176" lon="6.03072">
        <ele>773.20001220703</ele>
        <time>2013-08-25T08:12:16.000Z</time>
      </trkpt>
      <trkpt lat="45.56178" lon="6.03076">
        <ele>773</ele>
        <time>2013-08-25T08:12:17.000Z</time>
      </trkpt>
      <trkpt lat="45.5618" lon="6.0308">
        <ele>773</ele>
        <time>2013-08-25T08:12:18.000Z</time>
      </trkpt>
      <trkpt lat="45.56184" lon="6.03088">
        <ele>773</ele>
        <time>2013-08-25T08:12:20.000Z</time>
      </trkpt>
      <trkpt lat="45.56185" lon="6.03092">
        <ele>773</ele>
        <time>2013-08-25T08:12:21.000Z</time>
      </trkpt>
      <trkpt lat="45.56187" lon="6.03096">
        <ele>772.79998779297</ele>
        <time>2013-08-25T08:12:22.000Z</time>
      </trkpt>
      <trkpt lat="45.56188" lon="6.031">
        <ele>772.59997558594</ele>
        <time>2013-08-25T08:12:23.000Z</time>
      </trkpt>
      <trkpt lat="45.56189" lon="6.03104">
        <ele>772.59997558594</ele>
        <time>2013-08-25T08:12:24.000Z</time>
      </trkpt>
      <trkpt lat="45.56192" lon="6.03113">
        <ele>772.20001220703</ele>
        <time>2013-08-25T08:12:27.000Z</time>
      </trkpt>
      <trkpt lat="45.56193" lon="6.03116">
        <ele>772.20001220703</ele>
        <time>2013-08-25T08:12:28.000Z</time>
      </trkpt>
      <trkpt lat="45.56204" lon="6.03129">
        <ele>772.20001220703</ele>
        <time>2013-08-25T08:12:33.000Z</time>
      </trkpt>
      <trkpt lat="45.56206" lon="6.03132">
        <ele>772.20001220703</ele>
        <time>2013-08-25T08:12:34.000Z</time>
      </trkpt>
      <trkpt lat="45.56207" lon="6.03135">
        <ele>772.20001220703</ele>
        <time>2013-08-25T08:12:35.000Z</time>
      </trkpt>
      <trkpt lat="45.56209" lon="6.03138">
        <ele>772</ele>
        <time>2013-08-25T08:12:36.000Z</time>
      </trkpt>
      <trkpt lat="45.56218" lon="6.03164">
        <ele>770.40002441406</ele>
        <time>2013-08-25T08:12:43.000Z</time>
      </trkpt>
      <trkpt lat="45.56221" lon="6.03172">
        <ele>770.40002441406</ele>
        <time>2013-08-25T08:12:45.000Z</time>
      </trkpt>
      <trkpt lat="45.56225" lon="6.0318">
        <ele>770.40002441406</ele>
        <time>2013-08-25T08:12:47.000Z</time>
      </trkpt>
      <trkpt lat="45.56227" lon="6.03183">
        <ele>770.59997558594</ele>
        <time>2013-08-25T08:12:48.000Z</time>
      </trkpt>
      <trkpt lat="45.56251" lon="6.03216">
        <ele>771.20001220703</ele>
        <time>2013-08-25T08:12:56.000Z</time>
      </trkpt>
      <trkpt lat="45.56254" lon="6.03221">
        <ele>771</ele>
        <time>2013-08-25T08:12:57.000Z</time>
      </trkpt>
      <trkpt lat="45.56257" lon="6.03226">
        <ele>771</ele>
        <time>2013-08-25T08:12:58.000Z</time>
      </trkpt>
      <trkpt lat="45.56263" lon="6.03242">
        <ele>770.40002441406</ele>
        <time>2013-08-25T08:13:01.000Z</time>
      </trkpt>
      <trkpt lat="45.56264" lon="6.03247">
        <ele>770.20001220703</ele>
        <time>2013-08-25T08:13:02.000Z</time>
      </trkpt>
      <trkpt lat="45.56266" lon="6.03252">
        <ele>770</ele>
        <time>2013-08-25T08:13:03.000Z</time>
      </trkpt>
      <trkpt lat="45.56267" lon="6.03257">
        <ele>769.79998779297</ele>
        <time>2013-08-25T08:13:04.000Z</time>
      </trkpt>
      <trkpt lat="45.56269" lon="6.03263">
        <ele>769.59997558594</ele>
        <time>2013-08-25T08:13:05.000Z</time>
      </trkpt>
      <trkpt lat="45.56271" lon="6.03273">
        <ele>769</ele>
        <time>2013-08-25T08:13:07.000Z</time>
      </trkpt>
      <trkpt lat="45.56277" lon="6.03295">
        <ele>768</ele>
        <time>2013-08-25T08:13:11.000Z</time>
      </trkpt>
      <trkpt lat="45.56293" lon="6.03332">
        <ele>766.40002441406</ele>
        <time>2013-08-25T08:13:18.000Z</time>
      </trkpt>
      <trkpt lat="45.56302" lon="6.03348">
        <ele>766</ele>
        <time>2013-08-25T08:13:21.000Z</time>
      </trkpt>
      <trkpt lat="45.56347" lon="6.0342">
        <ele>766.20001220703</ele>
        <time>2013-08-25T08:13:33.000Z</time>
      </trkpt>
      <trkpt lat="45.56351" lon="6.03424">
        <ele>766.20001220703</ele>
        <time>2013-08-25T08:13:34.000Z</time>
      </trkpt>
      <trkpt lat="45.56357" lon="6.03434">
        <ele>766.20001220703</ele>
        <time>2013-08-25T08:13:36.000Z</time>
      </trkpt>
      <trkpt lat="45.56359" lon="6.03438">
        <ele>766.20001220703</ele>
        <time>2013-08-25T08:13:37.000Z</time>
      </trkpt>
      <trkpt lat="45.56361" lon="6.03443">
        <ele>766.20001220703</ele>
        <time>2013-08-25T08:13:38.000Z</time>
      </trkpt>
      <trkpt lat="45.56375" lon="6.03508">
        <ele>766</ele>
        <time>2013-08-25T08:13:52.000Z</time>
      </trkpt>
      <trkpt lat="45.56374" lon="6.03513">
        <ele>766.20001220703</ele>
        <time>2013-08-25T08:13:53.000Z</time>
      </trkpt>
      <trkpt lat="45.56368" lon="6.03554">
        <ele>767</ele>
        <time>2013-08-25T08:14:01.000Z</time>
      </trkpt>
      <trkpt lat="45.56366" lon="6.03574">
        <ele>767.20001220703</ele>
        <time>2013-08-25T08:14:05.000Z</time>
      </trkpt>
      <trkpt lat="45.56365" lon="6.03584">
        <ele>767.40002441406</ele>
        <time>2013-08-25T08:14:07.000Z</time>
      </trkpt>
      <trkpt lat="45.56364" lon="6.03589">
        <ele>767.59997558594</ele>
        <time>2013-08-25T08:14:08.000Z</time>
      </trkpt>
      <trkpt lat="45.56364" lon="6.03594">
        <ele>767.79998779297</ele>
        <time>2013-08-25T08:14:09.000Z</time>
      </trkpt>
      <trkpt lat="45.56358" lon="6.03631">
        <ele>768.79998779297</ele>
        <time>2013-08-25T08:14:16.000Z</time>
      </trkpt>
      <trkpt lat="45.56355" lon="6.03645">
        <ele>769.20001220703</ele>
        <time>2013-08-25T08:14:19.000Z</time>
      </trkpt>
      <trkpt lat="45.56353" lon="6.0365">
        <ele>769.20001220703</ele>
        <time>2013-08-25T08:14:20.000Z</time>
      </trkpt>
      <trkpt lat="45.56349" lon="6.03662">
        <ele>769.59997558594</ele>
        <time>2013-08-25T08:14:23.000Z</time>
      </trkpt>
      <trkpt lat="45.56348" lon="6.03666">
        <ele>769.59997558594</ele>
        <time>2013-08-25T08:14:24.000Z</time>
      </trkpt>
      <trkpt lat="45.56347" lon="6.0367">
        <ele>769.79998779297</ele>
        <time>2013-08-25T08:14:25.000Z</time>
      </trkpt>
      <trkpt lat="45.56344" lon="6.03677">
        <ele>770.40002441406</ele>
        <time>2013-08-25T08:14:27.000Z</time>
      </trkpt>
      <trkpt lat="45.56343" lon="6.03681">
        <ele>770.79998779297</ele>
        <time>2013-08-25T08:14:28.000Z</time>
      </trkpt>
      <trkpt lat="45.5634" lon="6.03699">
        <ele>772.20001220703</ele>
        <time>2013-08-25T08:14:32.000Z</time>
      </trkpt>
      <trkpt lat="45.56339" lon="6.03718">
        <ele>774</ele>
        <time>2013-08-25T08:14:36.000Z</time>
      </trkpt>
      <trkpt lat="45.56339" lon="6.03723">
        <ele>774.40002441406</ele>
        <time>2013-08-25T08:14:37.000Z</time>
      </trkpt>
      <trkpt lat="45.56339" lon="6.03732">
        <ele>775.40002441406</ele>
        <time>2013-08-25T08:14:39.000Z</time>
      </trkpt>
      <trkpt lat="45.56339" lon="6.03737">
        <ele>775.79998779297</ele>
        <time>2013-08-25T08:14:40.000Z</time>
      </trkpt>
      <trkpt lat="45.56339" lon="6.03741">
        <ele>776.20001220703</ele>
        <time>2013-08-25T08:14:41.000Z</time>
      </trkpt>
      <trkpt lat="45.5634" lon="6.03759">
        <ele>777.79998779297</ele>
        <time>2013-08-25T08:14:46.000Z</time>
      </trkpt>
      <trkpt lat="45.5634" lon="6.03762">
        <ele>778</ele>
        <time>2013-08-25T08:14:47.000Z</time>
      </trkpt>
      <trkpt lat="45.56336" lon="6.0378">
        <ele>779.40002441406</ele>
        <time>2013-08-25T08:14:54.000Z</time>
      </trkpt>
      <trkpt lat="45.56333" lon="6.03782">
        <ele>779.59997558594</ele>
        <time>2013-08-25T08:14:56.000Z</time>
      </trkpt>
      <trkpt lat="45.56332" lon="6.03784">
        <ele>779.59997558594</ele>
        <time>2013-08-25T08:14:58.000Z</time>
      </trkpt>
      <trkpt lat="45.56332" lon="6.03786">
        <ele>779.79998779297</ele>
        <time>2013-08-25T08:14:59.000Z</time>
      </trkpt>
      <trkpt lat="45.56332" lon="6.03789">
        <ele>780</ele>
        <time>2013-08-25T08:15:00.000Z</time>
      </trkpt>
      <trkpt lat="45.56328" lon="6.03798">
        <ele>780.59997558594</ele>
        <time>2013-08-25T08:15:05.000Z</time>
      </trkpt>
      <trkpt lat="45.56323" lon="6.03804">
        <ele>781</ele>
        <time>2013-08-25T08:15:08.000Z</time>
      </trkpt>
      <trkpt lat="45.56322" lon="6.03807">
        <ele>781</ele>
        <time>2013-08-25T08:15:09.000Z</time>
      </trkpt>
      <trkpt lat="45.56319" lon="6.03811">
        <ele>781.40002441406</ele>
        <time>2013-08-25T08:15:11.000Z</time>
      </trkpt>
      <trkpt lat="45.56317" lon="6.03816">
        <ele>781.59997558594</ele>
        <time>2013-08-25T08:15:13.000Z</time>
      </trkpt>
      <trkpt lat="45.56317" lon="6.03822">
        <ele>782.20001220703</ele>
        <time>2013-08-25T08:15:15.000Z</time>
      </trkpt>
      <trkpt lat="45.56316" lon="6.03829">
        <ele>782.59997558594</ele>
        <time>2013-08-25T08:15:17.000Z</time>
      </trkpt>
      <trkpt lat="45.56315" lon="6.03836">
        <ele>783.20001220703</ele>
        <time>2013-08-25T08:15:20.000Z</time>
      </trkpt>
      <trkpt lat="45.56314" lon="6.03838">
        <ele>783.40002441406</ele>
        <time>2013-08-25T08:15:21.000Z</time>
      </trkpt>
      <trkpt lat="45.56313" lon="6.03843">
        <ele>783.59997558594</ele>
        <time>2013-08-25T08:15:23.000Z</time>
      </trkpt>
      <trkpt lat="45.56312" lon="6.03846">
        <ele>783.79998779297</ele>
        <time>2013-08-25T08:15:24.000Z</time>
      </trkpt>
      <trkpt lat="45.56311" lon="6.03855">
        <ele>784.59997558594</ele>
        <time>2013-08-25T08:15:28.000Z</time>
      </trkpt>
      <trkpt lat="45.5631" lon="6.03863">
        <ele>785.20001220703</ele>
        <time>2013-08-25T08:15:31.000Z</time>
      </trkpt>
      <trkpt lat="45.56308" lon="6.03867">
        <ele>785.40002441406</ele>
        <time>2013-08-25T08:15:33.000Z</time>
      </trkpt>
      <trkpt lat="45.56307" lon="6.0387">
        <ele>785.59997558594</ele>
        <time>2013-08-25T08:15:35.000Z</time>
      </trkpt>
      <trkpt lat="45.56306" lon="6.03871">
        <ele>785.79998779297</ele>
        <time>2013-08-25T08:15:36.000Z</time>
      </trkpt>
      <trkpt lat="45.56305" lon="6.03873">
        <ele>785.79998779297</ele>
        <time>2013-08-25T08:15:37.000Z</time>
      </trkpt>
      <trkpt lat="45.56305" lon="6.03874">
        <ele>786</ele>
        <time>2013-08-25T08:15:38.000Z</time>
      </trkpt>
      <trkpt lat="45.56298" lon="6.03901">
        <ele>788</ele>
        <time>2013-08-25T08:15:47.000Z</time>
      </trkpt>
      <trkpt lat="45.56296" lon="6.03904">
        <ele>788.40002441406</ele>
        <time>2013-08-25T08:15:48.000Z</time>
      </trkpt>
      <trkpt lat="45.56293" lon="6.03907">
        <ele>788.59997558594</ele>
        <time>2013-08-25T08:15:49.000Z</time>
      </trkpt>
      <trkpt lat="45.56281" lon="6.03927">
        <ele>790</ele>
        <time>2013-08-25T08:15:57.000Z</time>
      </trkpt>
      <trkpt lat="45.56275" lon="6.03931">
        <ele>790.20001220703</ele>
        <time>2013-08-25T08:16:00.000Z</time>
      </trkpt>
      <trkpt lat="45.56256" lon="6.03939">
        <ele>790.59997558594</ele>
        <time>2013-08-25T08:16:08.000Z</time>
      </trkpt>
      <trkpt lat="45.56254" lon="6.03937">
        <ele>790.40002441406</ele>
        <time>2013-08-25T08:16:09.000Z</time>
      </trkpt>
      <trkpt lat="45.56249" lon="6.03938">
        <ele>790.40002441406</ele>
        <time>2013-08-25T08:16:12.000Z</time>
      </trkpt>
      <trkpt lat="45.56231" lon="6.03957">
        <ele>789</ele>
        <time>2013-08-25T08:16:25.000Z</time>
      </trkpt>
      <trkpt lat="45.56222" lon="6.03972">
        <ele>788.59997558594</ele>
        <time>2013-08-25T08:16:33.000Z</time>
      </trkpt>
      <trkpt lat="45.5622" lon="6.03998">
        <ele>790.20001220703</ele>
        <time>2013-08-25T08:16:45.000Z</time>
      </trkpt>
      <trkpt lat="45.5622" lon="6.04002">
        <ele>790.40002441406</ele>
        <time>2013-08-25T08:16:48.000Z</time>
      </trkpt>
      <trkpt lat="45.5622" lon="6.04034">
        <ele>794</ele>
        <time>2013-08-25T08:17:00.000Z</time>
      </trkpt>
      <trkpt lat="45.5622" lon="6.04038">
        <ele>794.40002441406</ele>
        <time>2013-08-25T08:17:01.000Z</time>
      </trkpt>
      <trkpt lat="45.56215" lon="6.04066">
        <ele>797</ele>
        <time>2013-08-25T08:17:14.000Z</time>
      </trkpt>
      <trkpt lat="45.56207" lon="6.04096">
        <ele>799</ele>
        <time>2013-08-25T08:17:21.000Z</time>
      </trkpt>
      <trkpt lat="45.56191" lon="6.04152">
        <ele>802.59997558594</ele>
        <time>2013-08-25T08:17:31.000Z</time>
      </trkpt>
      <trkpt lat="45.56189" lon="6.04157">
        <ele>802.79998779297</ele>
        <time>2013-08-25T08:17:32.000Z</time>
      </trkpt>
      <trkpt lat="45.56178" lon="6.04212">
        <ele>810.59997558594</ele>
        <time>2013-08-25T08:17:45.000Z</time>
      </trkpt>
      <trkpt lat="45.56168" lon="6.04224">
        <ele>812</ele>
        <time>2013-08-25T08:17:55.000Z</time>
      </trkpt>
      <trkpt lat="45.56167" lon="6.04224">
        <ele>811.79998779297</ele>
        <time>2013-08-25T08:17:56.000Z</time>
      </trkpt>
      <trkpt lat="45.56146" lon="6.04229">
        <ele>814.20001220703</ele>
        <time>2013-08-25T08:18:08.000Z</time>
      </trkpt>
      <trkpt lat="45.56144" lon="6.04228">
        <ele>814</ele>
        <time>2013-08-25T08:18:09.000Z</time>
      </trkpt>
      <trkpt lat="45.56122" lon="6.04197">
        <ele>810.79998779297</ele>
        <time>2013-08-25T08:18:22.000Z</time>
      </trkpt>
      <trkpt lat="45.56091" lon="6.04176">
        <ele>811.20001220703</ele>
        <time>2013-08-25T08:18:36.000Z</time>
      </trkpt>
      <trkpt lat="45.56061" lon="6.04167">
        <ele>811</ele>
        <time>2013-08-25T08:18:49.000Z</time>
      </trkpt>
      <trkpt lat="45.56015" lon="6.04148">
        <ele>808.59997558594</ele>
        <time>2013-08-25T08:19:02.000Z</time>
      </trkpt>
      <trkpt lat="45.55961" lon="6.04158">
        <ele>810.79998779297</ele>
        <time>2013-08-25T08:19:15.000Z</time>
      </trkpt>
      <trkpt lat="45.55948" lon="6.04158">
        <ele>811</ele>
        <time>2013-08-25T08:19:18.000Z</time>
      </trkpt>
      <trkpt lat="45.55943" lon="6.04156">
        <ele>810.79998779297</ele>
        <time>2013-08-25T08:19:19.000Z</time>
      </trkpt>
      <trkpt lat="45.55866" lon="6.04133">
        <ele>812.59997558594</ele>
        <time>2013-08-25T08:19:34.000Z</time>
      </trkpt>
      <trkpt lat="45.55853" lon="6.04129">
        <ele>813</ele>
        <time>2013-08-25T08:19:37.000Z</time>
      </trkpt>
      <trkpt lat="45.55849" lon="6.04128">
        <ele>813.20001220703</ele>
        <time>2013-08-25T08:19:38.000Z</time>
      </trkpt>
      <trkpt lat="45.55813" lon="6.04118">
        <ele>815.20001220703</ele>
        <time>2013-08-25T08:19:49.000Z</time>
      </trkpt>
      <trkpt lat="45.55788" lon="6.04098">
        <ele>815.20001220703</ele>
        <time>2013-08-25T08:19:59.000Z</time>
      </trkpt>
      <trkpt lat="45.55787" lon="6.04094">
        <ele>814.79998779297</ele>
        <time>2013-08-25T08:20:00.000Z</time>
      </trkpt>
      <trkpt lat="45.55786" lon="6.0409">
        <ele>814.20001220703</ele>
        <time>2013-08-25T08:20:01.000Z</time>
      </trkpt>
      <trkpt lat="45.55786" lon="6.04085">
        <ele>813.40002441406</ele>
        <time>2013-08-25T08:20:02.000Z</time>
      </trkpt>
      <trkpt lat="45.55786" lon="6.04079">
        <ele>813.20001220703</ele>
        <time>2013-08-25T08:20:03.000Z</time>
      </trkpt>
      <trkpt lat="45.55786" lon="6.04073">
        <ele>813</ele>
        <time>2013-08-25T08:20:04.000Z</time>
      </trkpt>
      <trkpt lat="45.55787" lon="6.04067">
        <ele>812.79998779297</ele>
        <time>2013-08-25T08:20:05.000Z</time>
      </trkpt>
      <trkpt lat="45.5579" lon="6.04054">
        <ele>812.20001220703</ele>
        <time>2013-08-25T08:20:07.000Z</time>
      </trkpt>
      <trkpt lat="45.55807" lon="6.03987">
        <ele>808.79998779297</ele>
        <time>2013-08-25T08:20:18.000Z</time>
      </trkpt>
      <trkpt lat="45.55808" lon="6.03981">
        <ele>808.59997558594</ele>
        <time>2013-08-25T08:20:19.000Z</time>
      </trkpt>
      <trkpt lat="45.55809" lon="6.03975">
        <ele>808.40002441406</ele>
        <time>2013-08-25T08:20:20.000Z</time>
      </trkpt>
      <trkpt lat="45.55809" lon="6.03969">
        <ele>808.40002441406</ele>
        <time>2013-08-25T08:20:21.000Z</time>
      </trkpt>
      <trkpt lat="45.5581" lon="6.03965">
        <ele>808.20001220703</ele>
        <time>2013-08-25T08:20:22.000Z</time>
      </trkpt>
      <trkpt lat="45.55795" lon="6.0392">
        <ele>808</ele>
        <time>2013-08-25T08:20:33.000Z</time>
      </trkpt>
      <trkpt lat="45.55783" lon="6.03913">
        <ele>807.40002441406</ele>
        <time>2013-08-25T08:20:36.000Z</time>
      </trkpt>
      <trkpt lat="45.55779" lon="6.03912">
        <ele>807.40002441406</ele>
        <time>2013-08-25T08:20:37.000Z</time>
      </trkpt>
      <trkpt lat="45.55769" lon="6.03911">
        <ele>807.40002441406</ele>
        <time>2013-08-25T08:20:39.000Z</time>
      </trkpt>
      <trkpt lat="45.55719" lon="6.03925">
        <ele>807.20001220703</ele>
        <time>2013-08-25T08:20:48.000Z</time>
      </trkpt>
      <trkpt lat="45.5566" lon="6.03957">
        <ele>808.40002441406</ele>
        <time>2013-08-25T08:20:56.000Z</time>
      </trkpt>
      <trkpt lat="45.55581" lon="6.03982">
        <ele>812.59997558594</ele>
        <time>2013-08-25T08:21:06.000Z</time>
      </trkpt>
      <trkpt lat="45.55572" lon="6.03979">
        <ele>812.20001220703</ele>
        <time>2013-08-25T08:21:07.000Z</time>
      </trkpt>
      <trkpt lat="45.55519" lon="6.03979">
        <ele>813.40002441406</ele>
        <time>2013-08-25T08:21:16.000Z</time>
      </trkpt>
      <trkpt lat="45.55514" lon="6.03978">
        <ele>813.20001220703</ele>
        <time>2013-08-25T08:21:17.000Z</time>
      </trkpt>
      <trkpt lat="45.5551" lon="6.03977">
        <ele>813.20001220703</ele>
        <time>2013-08-25T08:21:18.000Z</time>
      </trkpt>
      <trkpt lat="45.55506" lon="6.03977">
        <ele>813.20001220703</ele>
        <time>2013-08-25T08:21:19.000Z</time>
      </trkpt>
      <trkpt lat="45.55502" lon="6.03977">
        <ele>813.40002441406</ele>
        <time>2013-08-25T08:21:20.000Z</time>
      </trkpt>
      <trkpt lat="45.55471" lon="6.03988">
        <ele>814.79998779297</ele>
        <time>2013-08-25T08:21:30.000Z</time>
      </trkpt>
      <trkpt lat="45.55443" lon="6.04012">
        <ele>818.59997558594</ele>
        <time>2013-08-25T08:21:42.000Z</time>
      </trkpt>
      <trkpt lat="45.55439" lon="6.04015">
        <ele>819</ele>
        <time>2013-08-25T08:21:44.000Z</time>
      </trkpt>
      <trkpt lat="45.55432" lon="6.04016">
        <ele>819</ele>
        <time>2013-08-25T08:21:47.000Z</time>
      </trkpt>
      <trkpt lat="45.55429" lon="6.04015">
        <ele>818.59997558594</ele>
        <time>2013-08-25T08:21:48.000Z</time>
      </trkpt>
      <trkpt lat="45.55381" lon="6.0401">
        <ele>812.79998779297</ele>
        <time>2013-08-25T08:21:58.000Z</time>
      </trkpt>
      <trkpt lat="45.55307" lon="6.04038">
        <ele>811.20001220703</ele>
        <time>2013-08-25T08:22:09.000Z</time>
      </trkpt>
      <trkpt lat="45.55301" lon="6.0404">
        <ele>811</ele>
        <time>2013-08-25T08:22:10.000Z</time>
      </trkpt>
      <trkpt lat="45.5523" lon="6.0407">
        <ele>808.59997558594</ele>
        <time>2013-08-25T08:22:22.000Z</time>
      </trkpt>
      <trkpt lat="45.55199" lon="6.0409">
        <ele>808.20001220703</ele>
        <time>2013-08-25T08:22:28.000Z</time>
      </trkpt>
      <trkpt lat="45.55195" lon="6.04094">
        <ele>808.59997558594</ele>
        <time>2013-08-25T08:22:29.000Z</time>
      </trkpt>
      <trkpt lat="45.5519" lon="6.04099">
        <ele>809</ele>
        <time>2013-08-25T08:22:30.000Z</time>
      </trkpt>
      <trkpt lat="45.55182" lon="6.04109">
        <ele>810.40002441406</ele>
        <time>2013-08-25T08:22:32.000Z</time>
      </trkpt>
      <trkpt lat="45.55179" lon="6.04115">
        <ele>811.20001220703</ele>
        <time>2013-08-25T08:22:33.000Z</time>
      </trkpt>
      <trkpt lat="45.55165" lon="6.04145">
        <ele>816</ele>
        <time>2013-08-25T08:22:38.000Z</time>
      </trkpt>
      <trkpt lat="45.55136" lon="6.04186">
        <ele>821.79998779297</ele>
        <time>2013-08-25T08:22:50.000Z</time>
      </trkpt>
      <trkpt lat="45.55111" lon="6.0423">
        <ele>827.79998779297</ele>
        <time>2013-08-25T08:23:05.000Z</time>
      </trkpt>
      <trkpt lat="45.5511" lon="6.04232">
        <ele>827.79998779297</ele>
        <time>2013-08-25T08:23:06.000Z</time>
      </trkpt>
      <trkpt lat="45.55108" lon="6.04232">
        <ele>827.59997558594</ele>
        <time>2013-08-25T08:23:08.000Z</time>
      </trkpt>
      <trkpt lat="45.55106" lon="6.0423">
        <ele>827</ele>
        <time>2013-08-25T08:23:09.000Z</time>
      </trkpt>
      <trkpt lat="45.55105" lon="6.04227">
        <ele>826.59997558594</ele>
        <time>2013-08-25T08:23:10.000Z</time>
      </trkpt>
      <trkpt lat="45.55077" lon="6.04182">
        <ele>816.20001220703</ele>
        <time>2013-08-25T08:23:22.000Z</time>
      </trkpt>
      <trkpt lat="45.55045" lon="6.04179">
        <ele>817.59997558594</ele>
        <time>2013-08-25T08:23:34.000Z</time>
      </trkpt>
      <trkpt lat="45.55042" lon="6.04179">
        <ele>818</ele>
        <time>2013-08-25T08:23:35.000Z</time>
      </trkpt>
      <trkpt lat="45.5504" lon="6.0418">
        <ele>818.20001220703</ele>
        <time>2013-08-25T08:23:36.000Z</time>
      </trkpt>
      <trkpt lat="45.55004" lon="6.04177">
        <ele>820.20001220703</ele>
        <time>2013-08-25T08:23:48.000Z</time>
      </trkpt>
      <trkpt lat="45.55" lon="6.04174">
        <ele>820.20001220703</ele>
        <time>2013-08-25T08:23:49.000Z</time>
      </trkpt>
      <trkpt lat="45.54995" lon="6.04171">
        <ele>820.40002441406</ele>
        <time>2013-08-25T08:23:50.000Z</time>
      </trkpt>
      <trkpt lat="45.54991" lon="6.04166">
        <ele>820.40002441406</ele>
        <time>2013-08-25T08:23:51.000Z</time>
      </trkpt>
      <trkpt lat="45.54988" lon="6.04159">
        <ele>820.40002441406</ele>
        <time>2013-08-25T08:23:52.000Z</time>
      </trkpt>
      <trkpt lat="45.54986" lon="6.0415">
        <ele>820.40002441406</ele>
        <time>2013-08-25T08:23:53.000Z</time>
      </trkpt>
      <trkpt lat="45.54984" lon="6.04141">
        <ele>820</ele>
        <time>2013-08-25T08:23:54.000Z</time>
      </trkpt>
      <trkpt lat="45.54983" lon="6.04132">
        <ele>819.59997558594</ele>
        <time>2013-08-25T08:23:55.000Z</time>
      </trkpt>
      <trkpt lat="45.54983" lon="6.04123">
        <ele>819</ele>
        <time>2013-08-25T08:23:56.000Z</time>
      </trkpt>
      <trkpt lat="45.54984" lon="6.04114">
        <ele>818.40002441406</ele>
        <time>2013-08-25T08:23:57.000Z</time>
      </trkpt>
      <trkpt lat="45.54985" lon="6.04105">
        <ele>817.59997558594</ele>
        <time>2013-08-25T08:23:58.000Z</time>
      </trkpt>
      <trkpt lat="45.54987" lon="6.04097">
        <ele>816.79998779297</ele>
        <time>2013-08-25T08:23:59.000Z</time>
      </trkpt>
      <trkpt lat="45.54988" lon="6.04088">
        <ele>816.20001220703</ele>
        <time>2013-08-25T08:24:00.000Z</time>
      </trkpt>
      <trkpt lat="45.54989" lon="6.0408">
        <ele>815.59997558594</ele>
        <time>2013-08-25T08:24:01.000Z</time>
      </trkpt>
      <trkpt lat="45.54989" lon="6.04072">
        <ele>815</ele>
        <time>2013-08-25T08:24:02.000Z</time>
      </trkpt>
      <trkpt lat="45.54989" lon="6.04063">
        <ele>814.59997558594</ele>
        <time>2013-08-25T08:24:03.000Z</time>
      </trkpt>
      <trkpt lat="45.54987" lon="6.04055">
        <ele>814.20001220703</ele>
        <time>2013-08-25T08:24:04.000Z</time>
      </trkpt>
      <trkpt lat="45.54986" lon="6.04047">
        <ele>814</ele>
        <time>2013-08-25T08:24:05.000Z</time>
      </trkpt>
      <trkpt lat="45.54984" lon="6.04039">
        <ele>813.59997558594</ele>
        <time>2013-08-25T08:24:06.000Z</time>
      </trkpt>
      <trkpt lat="45.54981" lon="6.04031">
        <ele>813.40002441406</ele>
        <time>2013-08-25T08:24:07.000Z</time>
      </trkpt>
      <trkpt lat="45.54978" lon="6.04023">
        <ele>813.20001220703</ele>
        <time>2013-08-25T08:24:08.000Z</time>
      </trkpt>
      <trkpt lat="45.54972" lon="6.04008">
        <ele>812.59997558594</ele>
        <time>2013-08-25T08:24:10.000Z</time>
      </trkpt>
      <trkpt lat="45.54964" lon="6.03994">
        <ele>811.79998779297</ele>
        <time>2013-08-25T08:24:12.000Z</time>
      </trkpt>
      <trkpt lat="45.5496" lon="6.03989">
        <ele>811.59997558594</ele>
        <time>2013-08-25T08:24:13.000Z</time>
      </trkpt>
      <trkpt lat="45.54956" lon="6.03983">
        <ele>811.20001220703</ele>
        <time>2013-08-25T08:24:14.000Z</time>
      </trkpt>
      <trkpt lat="45.54881" lon="6.03923">
        <ele>806.20001220703</ele>
        <time>2013-08-25T08:24:27.000Z</time>
      </trkpt>
      <trkpt lat="45.54869" lon="6.03916">
        <ele>804.79998779297</ele>
        <time>2013-08-25T08:24:29.000Z</time>
      </trkpt>
      <trkpt lat="45.54862" lon="6.03914">
        <ele>804.40002441406</ele>
        <time>2013-08-25T08:24:30.000Z</time>
      </trkpt>
      <trkpt lat="45.54855" lon="6.03913">
        <ele>804</ele>
        <time>2013-08-25T08:24:31.000Z</time>
      </trkpt>
      <trkpt lat="45.54849" lon="6.03912">
        <ele>804</ele>
        <time>2013-08-25T08:24:32.000Z</time>
      </trkpt>
      <trkpt lat="45.54842" lon="6.03912">
        <ele>804</ele>
        <time>2013-08-25T08:24:33.000Z</time>
      </trkpt>
      <trkpt lat="45.54834" lon="6.03912">
        <ele>804</ele>
        <time>2013-08-25T08:24:34.000Z</time>
      </trkpt>
      <trkpt lat="45.54751" lon="6.03898">
        <ele>801</ele>
        <time>2013-08-25T08:24:47.000Z</time>
      </trkpt>
      <trkpt lat="45.54717" lon="6.03877">
        <ele>797.20001220703</ele>
        <time>2013-08-25T08:24:52.000Z</time>
      </trkpt>
      <trkpt lat="45.54694" lon="6.03868">
        <ele>796.20001220703</ele>
        <time>2013-08-25T08:24:55.000Z</time>
      </trkpt>
      <trkpt lat="45.54686" lon="6.03868">
        <ele>796.40002441406</ele>
        <time>2013-08-25T08:24:56.000Z</time>
      </trkpt>
      <trkpt lat="45.54678" lon="6.03871">
        <ele>797</ele>
        <time>2013-08-25T08:24:57.000Z</time>
      </trkpt>
      <trkpt lat="45.5467" lon="6.03874">
        <ele>797.59997558594</ele>
        <time>2013-08-25T08:24:58.000Z</time>
      </trkpt>
      <trkpt lat="45.54662" lon="6.03879">
        <ele>798.40002441406</ele>
        <time>2013-08-25T08:24:59.000Z</time>
      </trkpt>
      <trkpt lat="45.54654" lon="6.03885">
        <ele>799</ele>
        <time>2013-08-25T08:25:00.000Z</time>
      </trkpt>
      <trkpt lat="45.54645" lon="6.03887">
        <ele>799</ele>
        <time>2013-08-25T08:25:01.000Z</time>
      </trkpt>
      <trkpt lat="45.54637" lon="6.03883">
        <ele>797.79998779297</ele>
        <time>2013-08-25T08:25:02.000Z</time>
      </trkpt>
      <trkpt lat="45.5463" lon="6.03875">
        <ele>796.20001220703</ele>
        <time>2013-08-25T08:25:03.000Z</time>
      </trkpt>
      <trkpt lat="45.54625" lon="6.03864">
        <ele>794</ele>
        <time>2013-08-25T08:25:04.000Z</time>
      </trkpt>
      <trkpt lat="45.54613" lon="6.0384">
        <ele>789</ele>
        <time>2013-08-25T08:25:06.000Z</time>
      </trkpt>
      <trkpt lat="45.54604" lon="6.03829">
        <ele>786.20001220703</ele>
        <time>2013-08-25T08:25:07.000Z</time>
      </trkpt>
      <trkpt lat="45.54594" lon="6.03821">
        <ele>783.79998779297</ele>
        <time>2013-08-25T08:25:08.000Z</time>
      </trkpt>
      <trkpt lat="45.54584" lon="6.03815">
        <ele>781.59997558594</ele>
        <time>2013-08-25T08:25:09.000Z</time>
      </trkpt>
      <trkpt lat="45.54572" lon="6.0381">
        <ele>780.20001220703</ele>
        <time>2013-08-25T08:25:10.000Z</time>
      </trkpt>
      <trkpt lat="45.54561" lon="6.03807">
        <ele>779</ele>
        <time>2013-08-25T08:25:11.000Z</time>
      </trkpt>
      <trkpt lat="45.54549" lon="6.03805">
        <ele>778.20001220703</ele>
        <time>2013-08-25T08:25:12.000Z</time>
      </trkpt>
      <trkpt lat="45.54536" lon="6.03805">
        <ele>777.79998779297</ele>
        <time>2013-08-25T08:25:13.000Z</time>
      </trkpt>
      <trkpt lat="45.54486" lon="6.03807">
        <ele>776.79998779297</ele>
        <time>2013-08-25T08:25:17.000Z</time>
      </trkpt>
      <trkpt lat="45.54474" lon="6.03804">
        <ele>776</ele>
        <time>2013-08-25T08:25:18.000Z</time>
      </trkpt>
      <trkpt lat="45.54429" lon="6.03787">
        <ele>772</ele>
        <time>2013-08-25T08:25:22.000Z</time>
      </trkpt>
      <trkpt lat="45.54392" lon="6.03777">
        <ele>769.40002441406</ele>
        <time>2013-08-25T08:25:25.000Z</time>
      </trkpt>
      <trkpt lat="45.54349" lon="6.03766">
        <ele>766.59997558594</ele>
        <time>2013-08-25T08:25:28.000Z</time>
      </trkpt>
      <trkpt lat="45.54336" lon="6.0376">
        <ele>765.40002441406</ele>
        <time>2013-08-25T08:25:29.000Z</time>
      </trkpt>
      <trkpt lat="45.54316" lon="6.03749">
        <ele>763.20001220703</ele>
        <time>2013-08-25T08:25:31.000Z</time>
      </trkpt>
      <trkpt lat="45.54298" lon="6.03738">
        <ele>762.79998779297</ele>
        <time>2013-08-25T08:25:33.000Z</time>
      </trkpt>
      <trkpt lat="45.54279" lon="6.03724">
        <ele>762.40002441406</ele>
        <time>2013-08-25T08:25:35.000Z</time>
      </trkpt>
      <trkpt lat="45.54269" lon="6.03719">
        <ele>762.20001220703</ele>
        <time>2013-08-25T08:25:36.000Z</time>
      </trkpt>
      <trkpt lat="45.54258" lon="6.03717">
        <ele>762</ele>
        <time>2013-08-25T08:25:37.000Z</time>
      </trkpt>
      <trkpt lat="45.54248" lon="6.03715">
        <ele>761.79998779297</ele>
        <time>2013-08-25T08:25:38.000Z</time>
      </trkpt>
      <trkpt lat="45.54228" lon="6.03715">
        <ele>762.40002441406</ele>
        <time>2013-08-25T08:25:40.000Z</time>
      </trkpt>
      <trkpt lat="45.54178" lon="6.03717">
        <ele>764</ele>
        <time>2013-08-25T08:25:48.000Z</time>
      </trkpt>
      <trkpt lat="45.54166" lon="6.03717">
        <ele>764.40002441406</ele>
        <time>2013-08-25T08:25:51.000Z</time>
      </trkpt>
      <trkpt lat="45.54141" lon="6.03717">
        <ele>767.20001220703</ele>
        <time>2013-08-25T08:25:57.000Z</time>
      </trkpt>
      <trkpt lat="45.54136" lon="6.03717">
        <ele>767.79998779297</ele>
        <time>2013-08-25T08:25:58.000Z</time>
      </trkpt>
      <trkpt lat="45.54127" lon="6.03716">
        <ele>768.79998779297</ele>
        <time>2013-08-25T08:26:00.000Z</time>
      </trkpt>
      <trkpt lat="45.54098" lon="6.03711">
        <ele>772.20001220703</ele>
        <time>2013-08-25T08:26:09.000Z</time>
      </trkpt>
      <trkpt lat="45.54086" lon="6.03729">
        <ele>773.59997558594</ele>
        <time>2013-08-25T08:26:18.000Z</time>
      </trkpt>
      <trkpt lat="45.54084" lon="6.03765">
        <ele>774</ele>
        <time>2013-08-25T08:26:28.000Z</time>
      </trkpt>
      <trkpt lat="45.54075" lon="6.03819">
        <ele>775.20001220703</ele>
        <time>2013-08-25T08:26:43.000Z</time>
      </trkpt>
      <trkpt lat="45.54073" lon="6.0382">
        <ele>775.40002441406</ele>
        <time>2013-08-25T08:26:44.000Z</time>
      </trkpt>
      <trkpt lat="45.54071" lon="6.0382">
        <ele>775.59997558594</ele>
        <time>2013-08-25T08:26:45.000Z</time>
      </trkpt>
      <trkpt lat="45.54069" lon="6.03821">
        <ele>775.59997558594</ele>
        <time>2013-08-25T08:26:46.000Z</time>
      </trkpt>
      <trkpt lat="45.54067" lon="6.03823">
        <ele>775.79998779297</ele>
        <time>2013-08-25T08:26:47.000Z</time>
      </trkpt>
      <trkpt lat="45.54064" lon="6.03825">
        <ele>776</ele>
        <time>2013-08-25T08:26:48.000Z</time>
      </trkpt>
      <trkpt lat="45.54062" lon="6.03826">
        <ele>776.20001220703</ele>
        <time>2013-08-25T08:26:49.000Z</time>
      </trkpt>
      <trkpt lat="45.54053" lon="6.03833">
        <ele>777</ele>
        <time>2013-08-25T08:26:54.000Z</time>
      </trkpt>
      <trkpt lat="45.54045" lon="6.03836">
        <ele>777.59997558594</ele>
        <time>2013-08-25T08:26:58.000Z</time>
      </trkpt>
      <trkpt lat="45.54039" lon="6.03841">
        <ele>777.79998779297</ele>
        <time>2013-08-25T08:27:02.000Z</time>
      </trkpt>
      <trkpt lat="45.54038" lon="6.03842">
        <ele>777.79998779297</ele>
        <time>2013-08-25T08:27:03.000Z</time>
      </trkpt>
      <trkpt lat="45.54015" lon="6.03856">
        <ele>779</ele>
        <time>2013-08-25T08:27:15.000Z</time>
      </trkpt>
      <trkpt lat="45.54005" lon="6.03862">
        <ele>779.79998779297</ele>
        <time>2013-08-25T08:27:21.000Z</time>
      </trkpt>
      <trkpt lat="45.53984" lon="6.03886">
        <ele>780.40002441406</ele>
        <time>2013-08-25T08:27:34.000Z</time>
      </trkpt>
      <trkpt lat="45.53963" lon="6.03921">
        <ele>781</ele>
        <time>2013-08-25T08:27:49.000Z</time>
      </trkpt>
      <trkpt lat="45.5394" lon="6.03956">
        <ele>781.59997558594</ele>
        <time>2013-08-25T08:28:03.000Z</time>
      </trkpt>
      <trkpt lat="45.53938" lon="6.03958">
        <ele>781.59997558594</ele>
        <time>2013-08-25T08:28:04.000Z</time>
      </trkpt>
      <trkpt lat="45.53936" lon="6.03961">
        <ele>781.59997558594</ele>
        <time>2013-08-25T08:28:05.000Z</time>
      </trkpt>
      <trkpt lat="45.53935" lon="6.03963">
        <ele>781.79998779297</ele>
        <time>2013-08-25T08:28:06.000Z</time>
      </trkpt>
      <trkpt lat="45.53933" lon="6.03966">
        <ele>781.79998779297</ele>
        <time>2013-08-25T08:28:07.000Z</time>
      </trkpt>
      <trkpt lat="45.53931" lon="6.03968">
        <ele>782</ele>
        <time>2013-08-25T08:28:08.000Z</time>
      </trkpt>
      <trkpt lat="45.53929" lon="6.0397">
        <ele>782.20001220703</ele>
        <time>2013-08-25T08:28:09.000Z</time>
      </trkpt>
      <trkpt lat="45.53928" lon="6.03972">
        <ele>782.20001220703</ele>
        <time>2013-08-25T08:28:10.000Z</time>
      </trkpt>
      <trkpt lat="45.53907" lon="6.0401">
        <ele>783.20001220703</ele>
        <time>2013-08-25T08:28:24.000Z</time>
      </trkpt>
      <trkpt lat="45.53893" lon="6.04049">
        <ele>783.79998779297</ele>
        <time>2013-08-25T08:28:36.000Z</time>
      </trkpt>
      <trkpt lat="45.53887" lon="6.04122">
        <ele>783.79998779297</ele>
        <time>2013-08-25T08:28:50.000Z</time>
      </trkpt>
      <trkpt lat="45.53886" lon="6.04156">
        <ele>783.79998779297</ele>
        <time>2013-08-25T08:28:56.000Z</time>
      </trkpt>
      <trkpt lat="45.53883" lon="6.04165">
        <ele>784.40002441406</ele>
        <time>2013-08-25T08:28:59.000Z</time>
      </trkpt>
      <trkpt lat="45.53882" lon="6.04167">
        <ele>784.59997558594</ele>
        <time>2013-08-25T08:29:00.000Z</time>
      </trkpt>
      <trkpt lat="45.5388" lon="6.04169">
        <ele>785</ele>
        <time>2013-08-25T08:29:01.000Z</time>
      </trkpt>
      <trkpt lat="45.53878" lon="6.04173">
        <ele>785.59997558594</ele>
        <time>2013-08-25T08:29:03.000Z</time>
      </trkpt>
      <trkpt lat="45.53869" lon="6.04197">
        <ele>788.40002441406</ele>
        <time>2013-08-25T08:29:12.000Z</time>
      </trkpt>
      <trkpt lat="45.53861" lon="6.04211">
        <ele>791</ele>
        <time>2013-08-25T08:29:20.000Z</time>
      </trkpt>
      <trkpt lat="45.53857" lon="6.04217">
        <ele>792</ele>
        <time>2013-08-25T08:29:24.000Z</time>
      </trkpt>
      <trkpt lat="45.53852" lon="6.04227">
        <ele>793.59997558594</ele>
        <time>2013-08-25T08:29:29.000Z</time>
      </trkpt>
      <trkpt lat="45.53843" lon="6.04238">
        <ele>796.20001220703</ele>
        <time>2013-08-25T08:29:35.000Z</time>
      </trkpt>
      <trkpt lat="45.53834" lon="6.04254">
        <ele>799</ele>
        <time>2013-08-25T08:29:45.000Z</time>
      </trkpt>
      <trkpt lat="45.53826" lon="6.04262">
        <ele>801</ele>
        <time>2013-08-25T08:29:55.000Z</time>
      </trkpt>
      <trkpt lat="45.53822" lon="6.04279">
        <ele>803.40002441406</ele>
        <time>2013-08-25T08:30:03.000Z</time>
      </trkpt>
      <trkpt lat="45.53818" lon="6.0429">
        <ele>805.20001220703</ele>
        <time>2013-08-25T08:30:16.000Z</time>
      </trkpt>
      <trkpt lat="45.53815" lon="6.04294">
        <ele>806.59997558594</ele>
        <time>2013-08-25T08:30:35.000Z</time>
      </trkpt>
      <trkpt lat="45.53804" lon="6.04303">
        <ele>809.79998779297</ele>
        <time>2013-08-25T08:30:49.000Z</time>
      </trkpt>
      <trkpt lat="45.53796" lon="6.0431">
        <ele>812.20001220703</ele>
        <time>2013-08-25T08:31:06.000Z</time>
      </trkpt>
      <trkpt lat="45.53789" lon="6.04316">
        <ele>814.59997558594</ele>
        <time>2013-08-25T08:31:19.000Z</time>
      </trkpt>
      <trkpt lat="45.53782" lon="6.04318">
        <ele>816.59997558594</ele>
        <time>2013-08-25T08:31:31.000Z</time>
      </trkpt>
      <trkpt lat="45.53772" lon="6.04322">
        <ele>819.40002441406</ele>
        <time>2013-08-25T08:31:48.000Z</time>
      </trkpt>
      <trkpt lat="45.53769" lon="6.04334">
        <ele>822.59997558594</ele>
        <time>2013-08-25T08:32:03.000Z</time>
      </trkpt>
      <trkpt lat="45.5377" lon="6.04338">
        <ele>822.79998779297</ele>
        <time>2013-08-25T08:32:09.000Z</time>
      </trkpt>
      <trkpt lat="45.53773" lon="6.04353">
        <ele>825</ele>
        <time>2013-08-25T08:32:25.000Z</time>
      </trkpt>
      <trkpt lat="45.53773" lon="6.04371">
        <ele>828</ele>
        <time>2013-08-25T08:32:41.000Z</time>
      </trkpt>
      <trkpt lat="45.53774" lon="6.04372">
        <ele>828</ele>
        <time>2013-08-25T08:32:42.000Z</time>
      </trkpt>
      <trkpt lat="45.53774" lon="6.04384">
        <ele>830.40002441406</ele>
        <time>2013-08-25T08:32:56.000Z</time>
      </trkpt>
      <trkpt lat="45.53769" lon="6.04393">
        <ele>833</ele>
        <time>2013-08-25T08:33:13.000Z</time>
      </trkpt>
      <trkpt lat="45.53769" lon="6.04407">
        <ele>835.59997558594</ele>
        <time>2013-08-25T08:33:25.000Z</time>
      </trkpt>
      <trkpt lat="45.5377" lon="6.04413">
        <ele>836.59997558594</ele>
        <time>2013-08-25T08:33:29.000Z</time>
      </trkpt>
      <trkpt lat="45.53776" lon="6.04432">
        <ele>838.59997558594</ele>
        <time>2013-08-25T08:33:41.000Z</time>
      </trkpt>
      <trkpt lat="45.53779" lon="6.04447">
        <ele>840.59997558594</ele>
        <time>2013-08-25T08:33:50.000Z</time>
      </trkpt>
      <trkpt lat="45.53786" lon="6.04468">
        <ele>842.20001220703</ele>
        <time>2013-08-25T08:34:04.000Z</time>
      </trkpt>
      <trkpt lat="45.53788" lon="6.04487">
        <ele>844.79998779297</ele>
        <time>2013-08-25T08:34:16.000Z</time>
      </trkpt>
      <trkpt lat="45.53789" lon="6.04501">
        <ele>846.79998779297</ele>
        <time>2013-08-25T08:34:25.000Z</time>
      </trkpt>
      <trkpt lat="45.53795" lon="6.04531">
        <ele>847.79998779297</ele>
        <time>2013-08-25T08:34:37.000Z</time>
      </trkpt>
      <trkpt lat="45.53795" lon="6.04533">
        <ele>848</ele>
        <time>2013-08-25T08:34:38.000Z</time>
      </trkpt>
      <trkpt lat="45.538" lon="6.04563">
        <ele>849</ele>
        <time>2013-08-25T08:34:50.000Z</time>
      </trkpt>
      <trkpt lat="45.53799" lon="6.04566">
        <ele>849.59997558594</ele>
        <time>2013-08-25T08:34:51.000Z</time>
      </trkpt>
      <trkpt lat="45.53799" lon="6.04583">
        <ele>851.20001220703</ele>
        <time>2013-08-25T08:34:58.000Z</time>
      </trkpt>
      <trkpt lat="45.53799" lon="6.04586">
        <ele>851.59997558594</ele>
        <time>2013-08-25T08:34:59.000Z</time>
      </trkpt>
      <trkpt lat="45.53798" lon="6.04588">
        <ele>851.79998779297</ele>
        <time>2013-08-25T08:35:00.000Z</time>
      </trkpt>
      <trkpt lat="45.53797" lon="6.04603">
        <ele>852.79998779297</ele>
        <time>2013-08-25T08:35:06.000Z</time>
      </trkpt>
      <trkpt lat="45.53796" lon="6.04639">
        <ele>854.20001220703</ele>
        <time>2013-08-25T08:35:22.000Z</time>
      </trkpt>
      <trkpt lat="45.53785" lon="6.04674">
        <ele>859.79998779297</ele>
        <time>2013-08-25T08:35:38.000Z</time>
      </trkpt>
      <trkpt lat="45.53776" lon="6.04715">
        <ele>864</ele>
        <time>2013-08-25T08:35:51.000Z</time>
      </trkpt>
      <trkpt lat="45.53769" lon="6.0475">
        <ele>866.20001220703</ele>
        <time>2013-08-25T08:36:05.000Z</time>
      </trkpt>
      <trkpt lat="45.53763" lon="6.04797">
        <ele>864.59997558594</ele>
        <time>2013-08-25T08:36:21.000Z</time>
      </trkpt>
      <trkpt lat="45.5376" lon="6.04802">
        <ele>864.59997558594</ele>
        <time>2013-08-25T08:36:23.000Z</time>
      </trkpt>
      <trkpt lat="45.53751" lon="6.04835">
        <ele>864.59997558594</ele>
        <time>2013-08-25T08:36:36.000Z</time>
      </trkpt>
      <trkpt lat="45.53743" lon="6.04856">
        <ele>867</ele>
        <time>2013-08-25T08:36:45.000Z</time>
      </trkpt>
      <trkpt lat="45.53723" lon="6.04888">
        <ele>874.59997558594</ele>
        <time>2013-08-25T08:36:59.000Z</time>
      </trkpt>
      <trkpt lat="45.5371" lon="6.04923">
        <ele>876.59997558594</ele>
        <time>2013-08-25T08:37:14.000Z</time>
      </trkpt>
      <trkpt lat="45.53708" lon="6.04931">
        <ele>875.79998779297</ele>
        <time>2013-08-25T08:37:17.000Z</time>
      </trkpt>
      <trkpt lat="45.53707" lon="6.04934">
        <ele>875.59997558594</ele>
        <time>2013-08-25T08:37:18.000Z</time>
      </trkpt>
      <trkpt lat="45.53707" lon="6.04937">
        <ele>875.40002441406</ele>
        <time>2013-08-25T08:37:19.000Z</time>
      </trkpt>
      <trkpt lat="45.53706" lon="6.04939">
        <ele>875.20001220703</ele>
        <time>2013-08-25T08:37:20.000Z</time>
      </trkpt>
      <trkpt lat="45.53705" lon="6.04942">
        <ele>875</ele>
        <time>2013-08-25T08:37:21.000Z</time>
      </trkpt>
      <trkpt lat="45.53703" lon="6.04945">
        <ele>875</ele>
        <time>2013-08-25T08:37:22.000Z</time>
      </trkpt>
      <trkpt lat="45.53702" lon="6.04948">
        <ele>875</ele>
        <time>2013-08-25T08:37:23.000Z</time>
      </trkpt>
      <trkpt lat="45.5368" lon="6.04992">
        <ele>874.79998779297</ele>
        <time>2013-08-25T08:37:37.000Z</time>
      </trkpt>
      <trkpt lat="45.53664" lon="6.05017">
        <ele>875.59997558594</ele>
        <time>2013-08-25T08:37:46.000Z</time>
      </trkpt>
      <trkpt lat="45.53661" lon="6.05022">
        <ele>875.40002441406</ele>
        <time>2013-08-25T08:37:47.000Z</time>
      </trkpt>
      <trkpt lat="45.5366" lon="6.05027">
        <ele>874.59997558594</ele>
        <time>2013-08-25T08:37:48.000Z</time>
      </trkpt>
      <trkpt lat="45.53626" lon="6.05081">
        <ele>874.40002441406</ele>
        <time>2013-08-25T08:38:01.000Z</time>
      </trkpt>
      <trkpt lat="45.53594" lon="6.05151">
        <ele>868.79998779297</ele>
        <time>2013-08-25T08:38:17.000Z</time>
      </trkpt>
      <trkpt lat="45.53575" lon="6.05201">
        <ele>867.59997558594</ele>
        <time>2013-08-25T08:38:32.000Z</time>
      </trkpt>
      <trkpt lat="45.53557" lon="6.05245">
        <ele>869.40002441406</ele>
        <time>2013-08-25T08:38:46.000Z</time>
      </trkpt>
      <trkpt lat="45.53533" lon="6.05297">
        <ele>870.79998779297</ele>
        <time>2013-08-25T08:39:00.000Z</time>
      </trkpt>
      <trkpt lat="45.53518" lon="6.0534">
        <ele>870</ele>
        <time>2013-08-25T08:39:13.000Z</time>
      </trkpt>
      <trkpt lat="45.53494" lon="6.05368">
        <ele>872</ele>
        <time>2013-08-25T08:39:26.000Z</time>
      </trkpt>
      <trkpt lat="45.53491" lon="6.05372">
        <ele>872.20001220703</ele>
        <time>2013-08-25T08:39:28.000Z</time>
      </trkpt>
      <trkpt lat="45.53489" lon="6.05375">
        <ele>872</ele>
        <time>2013-08-25T08:39:29.000Z</time>
      </trkpt>
      <trkpt lat="45.53488" lon="6.05378">
        <ele>872</ele>
        <time>2013-08-25T08:39:30.000Z</time>
      </trkpt>
      <trkpt lat="45.53487" lon="6.05381">
        <ele>871.79998779297</ele>
        <time>2013-08-25T08:39:31.000Z</time>
      </trkpt>
      <trkpt lat="45.53486" lon="6.05384">
        <ele>871.59997558594</ele>
        <time>2013-08-25T08:39:32.000Z</time>
      </trkpt>
      <trkpt lat="45.53485" lon="6.05387">
        <ele>871.79998779297</ele>
        <time>2013-08-25T08:39:33.000Z</time>
      </trkpt>
      <trkpt lat="45.53483" lon="6.05389">
        <ele>871.79998779297</ele>
        <time>2013-08-25T08:39:34.000Z</time>
      </trkpt>
      <trkpt lat="45.53482" lon="6.05392">
        <ele>871.59997558594</ele>
        <time>2013-08-25T08:39:35.000Z</time>
      </trkpt>
      <trkpt lat="45.5348" lon="6.05395">
        <ele>871.79998779297</ele>
        <time>2013-08-25T08:39:36.000Z</time>
      </trkpt>
      <trkpt lat="45.53448" lon="6.05425">
        <ele>876.79998779297</ele>
        <time>2013-08-25T08:39:48.000Z</time>
      </trkpt>
      <trkpt lat="45.53432" lon="6.05431">
        <ele>880.40002441406</ele>
        <time>2013-08-25T08:39:55.000Z</time>
      </trkpt>
      <trkpt lat="45.53424" lon="6.05434">
        <ele>882.20001220703</ele>
        <time>2013-08-25T08:40:00.000Z</time>
      </trkpt>
      <trkpt lat="45.53408" lon="6.05447">
        <ele>883.59997558594</ele>
        <time>2013-08-25T08:40:13.000Z</time>
      </trkpt>
      <trkpt lat="45.53407" lon="6.05447">
        <ele>883.79998779297</ele>
        <time>2013-08-25T08:40:14.000Z</time>
      </trkpt>
      <trkpt lat="45.53405" lon="6.05449">
        <ele>883.79998779297</ele>
        <time>2013-08-25T08:40:15.000Z</time>
      </trkpt>
      <trkpt lat="45.53399" lon="6.05455">
        <ele>883.79998779297</ele>
        <time>2013-08-25T08:40:19.000Z</time>
      </trkpt>
      <trkpt lat="45.53399" lon="6.05457">
        <ele>883.79998779297</ele>
        <time>2013-08-25T08:40:20.000Z</time>
      </trkpt>
      <trkpt lat="45.53398" lon="6.05459">
        <ele>883.79998779297</ele>
        <time>2013-08-25T08:40:21.000Z</time>
      </trkpt>
      <trkpt lat="45.53397" lon="6.05462">
        <ele>883.79998779297</ele>
        <time>2013-08-25T08:40:22.000Z</time>
      </trkpt>
      <trkpt lat="45.53393" lon="6.05466">
        <ele>883.79998779297</ele>
        <time>2013-08-25T08:40:23.000Z</time>
      </trkpt>
      <trkpt lat="45.53388" lon="6.05469">
        <ele>883.79998779297</ele>
        <time>2013-08-25T08:40:24.000Z</time>
      </trkpt>
      <trkpt lat="45.53368" lon="6.05474">
        <ele>884</ele>
        <time>2013-08-25T08:40:28.000Z</time>
      </trkpt>
      <trkpt lat="45.53365" lon="6.05474">
        <ele>884</ele>
        <time>2013-08-25T08:40:29.000Z</time>
      </trkpt>
      <trkpt lat="45.53337" lon="6.05476">
        <ele>884.40002441406</ele>
        <time>2013-08-25T08:40:38.000Z</time>
      </trkpt>
      <trkpt lat="45.5332" lon="6.05499">
        <ele>883.40002441406</ele>
        <time>2013-08-25T08:40:47.000Z</time>
      </trkpt>
      <trkpt lat="45.53319" lon="6.05502">
        <ele>883.40002441406</ele>
        <time>2013-08-25T08:40:48.000Z</time>
      </trkpt>
      <trkpt lat="45.53316" lon="6.05516">
        <ele>884.20001220703</ele>
        <time>2013-08-25T08:41:02.000Z</time>
      </trkpt>
      <trkpt lat="45.5331" lon="6.05513">
        <ele>883.79998779297</ele>
        <time>2013-08-25T08:41:23.000Z</time>
      </trkpt>
      <trkpt lat="45.5331" lon="6.05511">
        <ele>883.59997558594</ele>
        <time>2013-08-25T08:41:44.000Z</time>
      </trkpt>
      <trkpt lat="45.5331" lon="6.05511">
        <ele>883.40002441406</ele>
        <time>2013-08-25T08:42:12.000Z</time>
      </trkpt>
      <trkpt lat="45.53313" lon="6.05512">
        <ele>883.59997558594</ele>
        <time>2013-08-25T08:42:18.000Z</time>
      </trkpt>
      <trkpt lat="45.53313" lon="6.05512">
        <ele>883.79998779297</ele>
        <time>2013-08-25T08:42:34.000Z</time>
      </trkpt>
      <trkpt lat="45.53313" lon="6.05512">
        <ele>883.79998779297</ele>
        <time>2013-08-25T08:42:53.000Z</time>
      </trkpt>
      <trkpt lat="45.53311" lon="6.05512">
        <ele>883.59997558594</ele>
        <time>2013-08-25T08:43:49.000Z</time>
      </trkpt>
      <trkpt lat="45.53313" lon="6.05508">
        <ele>883.40002441406</ele>
        <time>2013-08-25T08:44:35.000Z</time>
      </trkpt>
      <trkpt lat="45.53314" lon="6.05513">
        <ele>884</ele>
        <time>2013-08-25T08:45:00.000Z</time>
      </trkpt>
      <trkpt lat="45.53314" lon="6.05513">
        <ele>883.79998779297</ele>
        <time>2013-08-25T08:45:34.000Z</time>
      </trkpt>
      <trkpt lat="45.53314" lon="6.05511">
        <ele>883.79998779297</ele>
        <time>2013-08-25T08:45:54.000Z</time>
      </trkpt>
      <trkpt lat="45.53315" lon="6.05513">
        <ele>884</ele>
        <time>2013-08-25T08:46:55.000Z</time>
      </trkpt>
      <trkpt lat="45.53316" lon="6.05509">
        <ele>883.59997558594</ele>
        <time>2013-08-25T08:47:21.000Z</time>
      </trkpt>
      <trkpt lat="45.53315" lon="6.05511">
        <ele>883.79998779297</ele>
        <time>2013-08-25T08:47:54.000Z</time>
      </trkpt>
      <trkpt lat="45.53313" lon="6.05513">
        <ele>883.79998779297</ele>
        <time>2013-08-25T08:48:10.000Z</time>
      </trkpt>
      <trkpt lat="45.53315" lon="6.05509">
        <ele>883.59997558594</ele>
        <time>2013-08-25T08:48:46.000Z</time>
      </trkpt>
      <trkpt lat="45.53313" lon="6.05508">
        <ele>883.59997558594</ele>
        <time>2013-08-25T08:49:09.000Z</time>
      </trkpt>
      <trkpt lat="45.53313" lon="6.05506">
        <ele>883.40002441406</ele>
        <time>2013-08-25T08:49:10.000Z</time>
      </trkpt>
      <trkpt lat="45.53315" lon="6.05503">
        <ele>883.20001220703</ele>
        <time>2013-08-25T08:49:14.000Z</time>
      </trkpt>
      <trkpt lat="45.53316" lon="6.05504">
        <ele>883.40002441406</ele>
        <time>2013-08-25T08:49:15.000Z</time>
      </trkpt>
      <trkpt lat="45.53317" lon="6.05506">
        <ele>883.59997558594</ele>
        <time>2013-08-25T08:49:16.000Z</time>
      </trkpt>
      <trkpt lat="45.53318" lon="6.0551">
        <ele>883.79998779297</ele>
        <time>2013-08-25T08:49:17.000Z</time>
      </trkpt>
      <trkpt lat="45.53313" lon="6.05545">
        <ele>886</ele>
        <time>2013-08-25T08:49:29.000Z</time>
      </trkpt>
      <trkpt lat="45.53296" lon="6.0556">
        <ele>885.59997558594</ele>
        <time>2013-08-25T08:49:38.000Z</time>
      </trkpt>
      <trkpt lat="45.53293" lon="6.05561">
        <ele>885.40002441406</ele>
        <time>2013-08-25T08:49:39.000Z</time>
      </trkpt>
      <trkpt lat="45.5329" lon="6.05563">
        <ele>885.20001220703</ele>
        <time>2013-08-25T08:49:40.000Z</time>
      </trkpt>
      <trkpt lat="45.53282" lon="6.05568">
        <ele>884.59997558594</ele>
        <time>2013-08-25T08:49:43.000Z</time>
      </trkpt>
      <trkpt lat="45.53249" lon="6.05604">
        <ele>884.40002441406</ele>
        <time>2013-08-25T08:49:57.000Z</time>
      </trkpt>
      <trkpt lat="45.53247" lon="6.05604">
        <ele>884.20001220703</ele>
        <time>2013-08-25T08:50:06.000Z</time>
      </trkpt>
      <trkpt lat="45.53247" lon="6.05606">
        <ele>884.40002441406</ele>
        <time>2013-08-25T08:50:42.000Z</time>
      </trkpt>
      <trkpt lat="45.53248" lon="6.05605">
        <ele>884.40002441406</ele>
        <time>2013-08-25T08:50:43.000Z</time>
      </trkpt>
      <trkpt lat="45.5325" lon="6.05608">
        <ele>884.79998779297</ele>
        <time>2013-08-25T08:50:58.000Z</time>
      </trkpt>
      <trkpt lat="45.53252" lon="6.05607">
        <ele>885</ele>
        <time>2013-08-25T08:50:59.000Z</time>
      </trkpt>
      <trkpt lat="45.53288" lon="6.05593">
        <ele>887.40002441406</ele>
        <time>2013-08-25T08:51:15.000Z</time>
      </trkpt>
      <trkpt lat="45.53291" lon="6.05591">
        <ele>887.40002441406</ele>
        <time>2013-08-25T08:51:16.000Z</time>
      </trkpt>
      <trkpt lat="45.53301" lon="6.05584">
        <ele>887.40002441406</ele>
        <time>2013-08-25T08:51:20.000Z</time>
      </trkpt>
      <trkpt lat="45.53304" lon="6.05582">
        <ele>887.59997558594</ele>
        <time>2013-08-25T08:51:21.000Z</time>
      </trkpt>
      <trkpt lat="45.53312" lon="6.05565">
        <ele>887.40002441406</ele>
        <time>2013-08-25T08:51:25.000Z</time>
      </trkpt>
      <trkpt lat="45.53313" lon="6.05559">
        <ele>887</ele>
        <time>2013-08-25T08:51:26.000Z</time>
      </trkpt>
      <trkpt lat="45.53315" lon="6.05555">
        <ele>887</ele>
        <time>2013-08-25T08:51:27.000Z</time>
      </trkpt>
      <trkpt lat="45.53318" lon="6.05552">
        <ele>886.79998779297</ele>
        <time>2013-08-25T08:51:28.000Z</time>
      </trkpt>
      <trkpt lat="45.53321" lon="6.0555">
        <ele>887</ele>
        <time>2013-08-25T08:51:29.000Z</time>
      </trkpt>
      <trkpt lat="45.53357" lon="6.05547">
        <ele>888.59997558594</ele>
        <time>2013-08-25T08:51:40.000Z</time>
      </trkpt>
      <trkpt lat="45.53359" lon="6.05548">
        <ele>888.79998779297</ele>
        <time>2013-08-25T08:51:41.000Z</time>
      </trkpt>
      <trkpt lat="45.53365" lon="6.05547">
        <ele>889</ele>
        <time>2013-08-25T08:51:44.000Z</time>
      </trkpt>
      <trkpt lat="45.53371" lon="6.05541">
        <ele>888.40002441406</ele>
        <time>2013-08-25T08:51:48.000Z</time>
      </trkpt>
      <trkpt lat="45.53372" lon="6.05541">
        <ele>888.40002441406</ele>
        <time>2013-08-25T08:51:49.000Z</time>
      </trkpt>
      <trkpt lat="45.53377" lon="6.05541">
        <ele>888.59997558594</ele>
        <time>2013-08-25T08:51:52.000Z</time>
      </trkpt>
      <trkpt lat="45.53381" lon="6.05536">
        <ele>888.20001220703</ele>
        <time>2013-08-25T08:51:54.000Z</time>
      </trkpt>
      <trkpt lat="45.53388" lon="6.05535">
        <ele>888.20001220703</ele>
        <time>2013-08-25T08:52:03.000Z</time>
      </trkpt>
      <trkpt lat="45.53389" lon="6.05539">
        <ele>888.79998779297</ele>
        <time>2013-08-25T08:52:05.000Z</time>
      </trkpt>
      <trkpt lat="45.53391" lon="6.05544">
        <ele>889.40002441406</ele>
        <time>2013-08-25T08:52:08.000Z</time>
      </trkpt>
      <trkpt lat="45.53392" lon="6.05545">
        <ele>889.59997558594</ele>
        <time>2013-08-25T08:52:09.000Z</time>
      </trkpt>
      <trkpt lat="45.53393" lon="6.05553">
        <ele>890.79998779297</ele>
        <time>2013-08-25T08:52:14.000Z</time>
      </trkpt>
      <trkpt lat="45.53398" lon="6.05562">
        <ele>892.40002441406</ele>
        <time>2013-08-25T08:52:24.000Z</time>
      </trkpt>
      <trkpt lat="45.53399" lon="6.05563">
        <ele>892.59997558594</ele>
        <time>2013-08-25T08:52:25.000Z</time>
      </trkpt>
      <trkpt lat="45.53402" lon="6.05569">
        <ele>893.79998779297</ele>
        <time>2013-08-25T08:52:29.000Z</time>
      </trkpt>
      <trkpt lat="45.53404" lon="6.05575">
        <ele>894.59997558594</ele>
        <time>2013-08-25T08:52:32.000Z</time>
      </trkpt>
      <trkpt lat="45.53408" lon="6.05585">
        <ele>896.79998779297</ele>
        <time>2013-08-25T08:52:39.000Z</time>
      </trkpt>
      <trkpt lat="45.5341" lon="6.05591">
        <ele>898</ele>
        <time>2013-08-25T08:52:43.000Z</time>
      </trkpt>
      <trkpt lat="45.5341" lon="6.05594">
        <ele>898.79998779297</ele>
        <time>2013-08-25T08:52:45.000Z</time>
      </trkpt>
      <trkpt lat="45.53411" lon="6.05598">
        <ele>899.59997558594</ele>
        <time>2013-08-25T08:52:48.000Z</time>
      </trkpt>
      <trkpt lat="45.53412" lon="6.056">
        <ele>900.20001220703</ele>
        <time>2013-08-25T08:52:50.000Z</time>
      </trkpt>
      <trkpt lat="45.53412" lon="6.05601">
        <ele>900.20001220703</ele>
        <time>2013-08-25T08:52:51.000Z</time>
      </trkpt>
      <trkpt lat="45.53416" lon="6.05605">
        <ele>901.59997558594</ele>
        <time>2013-08-25T08:52:56.000Z</time>
      </trkpt>
      <trkpt lat="45.53417" lon="6.05607">
        <ele>902</ele>
        <time>2013-08-25T08:52:57.000Z</time>
      </trkpt>
      <trkpt lat="45.53418" lon="6.05609">
        <ele>902.20001220703</ele>
        <time>2013-08-25T08:52:58.000Z</time>
      </trkpt>
      <trkpt lat="45.53417" lon="6.05616">
        <ele>903.79998779297</ele>
        <time>2013-08-25T08:53:02.000Z</time>
      </trkpt>
      <trkpt lat="45.53417" lon="6.0562">
        <ele>904.59997558594</ele>
        <time>2013-08-25T08:53:04.000Z</time>
      </trkpt>
      <trkpt lat="45.53417" lon="6.05621">
        <ele>905</ele>
        <time>2013-08-25T08:53:05.000Z</time>
      </trkpt>
      <trkpt lat="45.53417" lon="6.05621">
        <ele>905</ele>
        <time>2013-08-25T08:53:15.000Z</time>
      </trkpt>
      <trkpt lat="45.53417" lon="6.05621">
        <ele>905</ele>
        <time>2013-08-25T08:53:16.000Z</time>
      </trkpt>
      <trkpt lat="45.5342" lon="6.05631">
        <ele>906.59997558594</ele>
        <time>2013-08-25T08:53:29.000Z</time>
      </trkpt>
      <trkpt lat="45.5342" lon="6.05634">
        <ele>907</ele>
        <time>2013-08-25T08:53:32.000Z</time>
      </trkpt>
      <trkpt lat="45.53426" lon="6.05658">
        <ele>911</ele>
        <time>2013-08-25T08:53:52.000Z</time>
      </trkpt>
      <trkpt lat="45.5343" lon="6.05681">
        <ele>915</ele>
        <time>2013-08-25T08:54:12.000Z</time>
      </trkpt>
      <trkpt lat="45.53421" lon="6.05685">
        <ele>918.20001220703</ele>
        <time>2013-08-25T08:54:28.000Z</time>
      </trkpt>
      <trkpt lat="45.53421" lon="6.05684">
        <ele>918</ele>
        <time>2013-08-25T08:54:29.000Z</time>
      </trkpt>
      <trkpt lat="45.53419" lon="6.05687">
        <ele>919</ele>
        <time>2013-08-25T08:54:49.000Z</time>
      </trkpt>
      <trkpt lat="45.53418" lon="6.05692">
        <ele>920.79998779297</ele>
        <time>2013-08-25T08:54:54.000Z</time>
      </trkpt>
      <trkpt lat="45.53412" lon="6.05705">
        <ele>923.59997558594</ele>
        <time>2013-08-25T08:55:11.000Z</time>
      </trkpt>
      <trkpt lat="45.53412" lon="6.05705">
        <ele>923.59997558594</ele>
        <time>2013-08-25T08:55:16.000Z</time>
      </trkpt>
      <trkpt lat="45.53411" lon="6.05702">
        <ele>922.79998779297</ele>
        <time>2013-08-25T08:55:21.000Z</time>
      </trkpt>
      <trkpt lat="45.5341" lon="6.05701">
        <ele>922.40002441406</ele>
        <time>2013-08-25T08:55:22.000Z</time>
      </trkpt>
      <trkpt lat="45.53409" lon="6.05699">
        <ele>922</ele>
        <time>2013-08-25T08:55:24.000Z</time>
      </trkpt>
      <trkpt lat="45.53409" lon="6.05699">
        <ele>921.79998779297</ele>
        <time>2013-08-25T08:55:25.000Z</time>
      </trkpt>
      <trkpt lat="45.53409" lon="6.05697">
        <ele>921.40002441406</ele>
        <time>2013-08-25T08:55:28.000Z</time>
      </trkpt>
      <trkpt lat="45.53409" lon="6.05697">
        <ele>921.40002441406</ele>
        <time>2013-08-25T08:55:29.000Z</time>
      </trkpt>
      <trkpt lat="45.53409" lon="6.05697">
        <ele>921.40002441406</ele>
        <time>2013-08-25T08:55:30.000Z</time>
      </trkpt>
      <trkpt lat="45.53409" lon="6.05697">
        <ele>921.40002441406</ele>
        <time>2013-08-25T08:55:31.000Z</time>
      </trkpt>
      <trkpt lat="45.53409" lon="6.05697">
        <ele>921.40002441406</ele>
        <time>2013-08-25T08:55:32.000Z</time>
      </trkpt>
      <trkpt lat="45.53409" lon="6.05697">
        <ele>921.40002441406</ele>
        <time>2013-08-25T08:55:33.000Z</time>
      </trkpt>
      <trkpt lat="45.53409" lon="6.05697">
        <ele>921.40002441406</ele>
        <time>2013-08-25T08:55:34.000Z</time>
      </trkpt>
      <trkpt lat="45.53409" lon="6.05697">
        <ele>921.40002441406</ele>
        <time>2013-08-25T08:55:35.000Z</time>
      </trkpt>
      <trkpt lat="45.5341" lon="6.057">
        <ele>922.20001220703</ele>
        <time>2013-08-25T08:55:37.000Z</time>
      </trkpt>
      <trkpt lat="45.53411" lon="6.05702">
        <ele>922.59997558594</ele>
        <time>2013-08-25T08:55:38.000Z</time>
      </trkpt>
      <trkpt lat="45.53412" lon="6.05703">
        <ele>923.20001220703</ele>
        <time>2013-08-25T08:55:39.000Z</time>
      </trkpt>
      <trkpt lat="45.53414" lon="6.05705">
        <ele>923.79998779297</ele>
        <time>2013-08-25T08:55:40.000Z</time>
      </trkpt>
      <trkpt lat="45.53415" lon="6.05707">
        <ele>924.40002441406</ele>
        <time>2013-08-25T08:55:41.000Z</time>
      </trkpt>
      <trkpt lat="45.53416" lon="6.05709">
        <ele>925</ele>
        <time>2013-08-25T08:55:42.000Z</time>
      </trkpt>
      <trkpt lat="45.53418" lon="6.05711">
        <ele>925.20001220703</ele>
        <time>2013-08-25T08:55:43.000Z</time>
      </trkpt>
      <trkpt lat="45.5342" lon="6.05715">
        <ele>925.59997558594</ele>
        <time>2013-08-25T08:55:45.000Z</time>
      </trkpt>
      <trkpt lat="45.53421" lon="6.05717">
        <ele>925.59997558594</ele>
        <time>2013-08-25T08:55:46.000Z</time>
      </trkpt>
      <trkpt lat="45.53423" lon="6.05719">
        <ele>925.59997558594</ele>
        <time>2013-08-25T08:55:47.000Z</time>
      </trkpt>
      <trkpt lat="45.53424" lon="6.05724">
        <ele>926.40002441406</ele>
        <time>2013-08-25T08:55:50.000Z</time>
      </trkpt>
      <trkpt lat="45.53425" lon="6.05725">
        <ele>926.59997558594</ele>
        <time>2013-08-25T08:55:51.000Z</time>
      </trkpt>
      <trkpt lat="45.53425" lon="6.05728">
        <ele>927.20001220703</ele>
        <time>2013-08-25T08:55:53.000Z</time>
      </trkpt>
      <trkpt lat="45.53425" lon="6.0573">
        <ele>927.59997558594</ele>
        <time>2013-08-25T08:55:54.000Z</time>
      </trkpt>
      <trkpt lat="45.53427" lon="6.05736">
        <ele>928.59997558594</ele>
        <time>2013-08-25T08:55:59.000Z</time>
      </trkpt>
      <trkpt lat="45.53428" lon="6.0574">
        <ele>929</ele>
        <time>2013-08-25T08:56:03.000Z</time>
      </trkpt>
      <trkpt lat="45.53429" lon="6.05741">
        <ele>929.20001220703</ele>
        <time>2013-08-25T08:56:04.000Z</time>
      </trkpt>
      <trkpt lat="45.5343" lon="6.05743">
        <ele>929.20001220703</ele>
        <time>2013-08-25T08:56:05.000Z</time>
      </trkpt>
      <trkpt lat="45.53433" lon="6.05746">
        <ele>929</ele>
        <time>2013-08-25T08:56:07.000Z</time>
      </trkpt>
      <trkpt lat="45.53435" lon="6.05748">
        <ele>929</ele>
        <time>2013-08-25T08:56:08.000Z</time>
      </trkpt>
      <trkpt lat="45.5344" lon="6.05751">
        <ele>928.20001220703</ele>
        <time>2013-08-25T08:56:11.000Z</time>
      </trkpt>
      <trkpt lat="45.53442" lon="6.05753">
        <ele>928</ele>
        <time>2013-08-25T08:56:12.000Z</time>
      </trkpt>
      <trkpt lat="45.53444" lon="6.05754">
        <ele>927.79998779297</ele>
        <time>2013-08-25T08:56:13.000Z</time>
      </trkpt>
      <trkpt lat="45.53447" lon="6.05756">
        <ele>927.40002441406</ele>
        <time>2013-08-25T08:56:15.000Z</time>
      </trkpt>
      <trkpt lat="45.53451" lon="6.05759">
        <ele>927</ele>
        <time>2013-08-25T08:56:17.000Z</time>
      </trkpt>
      <trkpt lat="45.53453" lon="6.0576">
        <ele>926.79998779297</ele>
        <time>2013-08-25T08:56:18.000Z</time>
      </trkpt>
      <trkpt lat="45.53454" lon="6.05761">
        <ele>926.40002441406</ele>
        <time>2013-08-25T08:56:19.000Z</time>
      </trkpt>
      <trkpt lat="45.53456" lon="6.05763">
        <ele>926.20001220703</ele>
        <time>2013-08-25T08:56:20.000Z</time>
      </trkpt>
      <trkpt lat="45.53458" lon="6.05764">
        <ele>926</ele>
        <time>2013-08-25T08:56:21.000Z</time>
      </trkpt>
      <trkpt lat="45.5346" lon="6.05765">
        <ele>925.79998779297</ele>
        <time>2013-08-25T08:56:22.000Z</time>
      </trkpt>
      <trkpt lat="45.53467" lon="6.0577">
        <ele>925</ele>
        <time>2013-08-25T08:56:26.000Z</time>
      </trkpt>
      <trkpt lat="45.53472" lon="6.05774">
        <ele>924.40002441406</ele>
        <time>2013-08-25T08:56:29.000Z</time>
      </trkpt>
      <trkpt lat="45.53479" lon="6.05779">
        <ele>923.59997558594</ele>
        <time>2013-08-25T08:56:33.000Z</time>
      </trkpt>
      <trkpt lat="45.53485" lon="6.05782">
        <ele>923</ele>
        <time>2013-08-25T08:56:36.000Z</time>
      </trkpt>
      <trkpt lat="45.53488" lon="6.05785">
        <ele>922.59997558594</ele>
        <time>2013-08-25T08:56:38.000Z</time>
      </trkpt>
      <trkpt lat="45.53488" lon="6.05785">
        <ele>922.59997558594</ele>
        <time>2013-08-25T08:56:39.000Z</time>
      </trkpt>
      <trkpt lat="45.53488" lon="6.05785">
        <ele>922.59997558594</ele>
        <time>2013-08-25T08:56:40.000Z</time>
      </trkpt>
      <trkpt lat="45.53488" lon="6.05785">
        <ele>922.59997558594</ele>
        <time>2013-08-25T08:56:42.000Z</time>
      </trkpt>
      <trkpt lat="45.53488" lon="6.05785">
        <ele>922.59997558594</ele>
        <time>2013-08-25T08:56:44.000Z</time>
      </trkpt>
      <trkpt lat="45.53488" lon="6.05785">
        <ele>922.59997558594</ele>
        <time>2013-08-25T08:56:45.000Z</time>
      </trkpt>
      <trkpt lat="45.53488" lon="6.05785">
        <ele>922.59997558594</ele>
        <time>2013-08-25T08:56:46.000Z</time>
      </trkpt>
      <trkpt lat="45.53488" lon="6.05785">
        <ele>922.59997558594</ele>
        <time>2013-08-25T08:56:47.000Z</time>
      </trkpt>
      <trkpt lat="45.53488" lon="6.05785">
        <ele>922.59997558594</ele>
        <time>2013-08-25T08:56:50.000Z</time>
      </trkpt>
      <trkpt lat="45.53488" lon="6.05785">
        <ele>922.59997558594</ele>
        <time>2013-08-25T08:56:51.000Z</time>
      </trkpt>
      <trkpt lat="45.53488" lon="6.05785">
        <ele>922.59997558594</ele>
        <time>2013-08-25T08:56:52.000Z</time>
      </trkpt>
      <trkpt lat="45.53488" lon="6.05785">
        <ele>922.59997558594</ele>
        <time>2013-08-25T08:56:53.000Z</time>
      </trkpt>
      <trkpt lat="45.53488" lon="6.05785">
        <ele>922.59997558594</ele>
        <time>2013-08-25T08:56:54.000Z</time>
      </trkpt>
      <trkpt lat="45.53488" lon="6.05785">
        <ele>922.59997558594</ele>
        <time>2013-08-25T08:56:55.000Z</time>
      </trkpt>
      <trkpt lat="45.53488" lon="6.05785">
        <ele>922.59997558594</ele>
        <time>2013-08-25T08:56:56.000Z</time>
      </trkpt>
      <trkpt lat="45.53488" lon="6.05785">
        <ele>922.59997558594</ele>
        <time>2013-08-25T08:56:57.000Z</time>
      </trkpt>
      <trkpt lat="45.53488" lon="6.05785">
        <ele>922.59997558594</ele>
        <time>2013-08-25T08:56:58.000Z</time>
      </trkpt>
      <trkpt lat="45.53488" lon="6.05785">
        <ele>922.59997558594</ele>
        <time>2013-08-25T08:57:00.000Z</time>
      </trkpt>
      <trkpt lat="45.53488" lon="6.05785">
        <ele>922.59997558594</ele>
        <time>2013-08-25T08:57:03.000Z</time>
      </trkpt>
      <trkpt lat="45.53488" lon="6.05785">
        <ele>922.59997558594</ele>
        <time>2013-08-25T08:57:04.000Z</time>
      </trkpt>
      <trkpt lat="45.53488" lon="6.05785">
        <ele>922.59997558594</ele>
        <time>2013-08-25T08:57:05.000Z</time>
      </trkpt>
      <trkpt lat="45.53488" lon="6.05785">
        <ele>922.59997558594</ele>
        <time>2013-08-25T08:57:06.000Z</time>
      </trkpt>
      <trkpt lat="45.53488" lon="6.05785">
        <ele>922.59997558594</ele>
        <time>2013-08-25T08:57:07.000Z</time>
      </trkpt>
      <trkpt lat="45.53488" lon="6.05785">
        <ele>922.59997558594</ele>
        <time>2013-08-25T08:57:08.000Z</time>
      </trkpt>
      <trkpt lat="45.53488" lon="6.05785">
        <ele>922.59997558594</ele>
        <time>2013-08-25T08:57:09.000Z</time>
      </trkpt>
      <trkpt lat="45.53488" lon="6.05785">
        <ele>922.59997558594</ele>
        <time>2013-08-25T08:57:10.000Z</time>
      </trkpt>
      <trkpt lat="45.53488" lon="6.05785">
        <ele>922.59997558594</ele>
        <time>2013-08-25T08:57:12.000Z</time>
      </trkpt>
      <trkpt lat="45.53488" lon="6.05785">
        <ele>922.59997558594</ele>
        <time>2013-08-25T08:57:15.000Z</time>
      </trkpt>
      <trkpt lat="45.53488" lon="6.05785">
        <ele>922.59997558594</ele>
        <time>2013-08-25T08:57:17.000Z</time>
      </trkpt>
      <trkpt lat="45.53488" lon="6.05785">
        <ele>922.59997558594</ele>
        <time>2013-08-25T08:57:19.000Z</time>
      </trkpt>
      <trkpt lat="45.53488" lon="6.05785">
        <ele>922.59997558594</ele>
        <time>2013-08-25T08:57:21.000Z</time>
      </trkpt>
      <trkpt lat="45.53488" lon="6.05785">
        <ele>922.59997558594</ele>
        <time>2013-08-25T08:57:22.000Z</time>
      </trkpt>
      <trkpt lat="45.53488" lon="6.05785">
        <ele>922.59997558594</ele>
        <time>2013-08-25T08:57:23.000Z</time>
      </trkpt>
      <trkpt lat="45.53488" lon="6.05785">
        <ele>922.59997558594</ele>
        <time>2013-08-25T08:57:24.000Z</time>
      </trkpt>
      <trkpt lat="45.53488" lon="6.05785">
        <ele>922.59997558594</ele>
        <time>2013-08-25T08:57:25.000Z</time>
      </trkpt>
      <trkpt lat="45.53488" lon="6.05785">
        <ele>922.59997558594</ele>
        <time>2013-08-25T08:57:29.000Z</time>
      </trkpt>
      <trkpt lat="45.53488" lon="6.05785">
        <ele>922.59997558594</ele>
        <time>2013-08-25T08:57:30.000Z</time>
      </trkpt>
      <trkpt lat="45.53488" lon="6.05785">
        <ele>922.59997558594</ele>
        <time>2013-08-25T08:57:31.000Z</time>
      </trkpt>
      <trkpt lat="45.53488" lon="6.05785">
        <ele>922.59997558594</ele>
        <time>2013-08-25T08:57:32.000Z</time>
      </trkpt>
      <trkpt lat="45.53488" lon="6.05785">
        <ele>922.59997558594</ele>
        <time>2013-08-25T08:57:35.000Z</time>
      </trkpt>
      <trkpt lat="45.53488" lon="6.05785">
        <ele>922.59997558594</ele>
        <time>2013-08-25T08:57:36.000Z</time>
      </trkpt>
      <trkpt lat="45.53488" lon="6.05785">
        <ele>922.59997558594</ele>
        <time>2013-08-25T08:57:37.000Z</time>
      </trkpt>
      <trkpt lat="45.53488" lon="6.05785">
        <ele>922.59997558594</ele>
        <time>2013-08-25T08:57:38.000Z</time>
      </trkpt>
      <trkpt lat="45.53488" lon="6.05785">
        <ele>922.59997558594</ele>
        <time>2013-08-25T08:57:39.000Z</time>
      </trkpt>
      <trkpt lat="45.53488" lon="6.05785">
        <ele>922.59997558594</ele>
        <time>2013-08-25T08:57:40.000Z</time>
      </trkpt>
      <trkpt lat="45.53488" lon="6.05785">
        <ele>922.59997558594</ele>
        <time>2013-08-25T08:57:41.000Z</time>
      </trkpt>
      <trkpt lat="45.53488" lon="6.05785">
        <ele>922.59997558594</ele>
        <time>2013-08-25T08:57:42.000Z</time>
      </trkpt>
      <trkpt lat="45.53488" lon="6.05785">
        <ele>922.59997558594</ele>
        <time>2013-08-25T08:57:43.000Z</time>
      </trkpt>
      <trkpt lat="45.53488" lon="6.05785">
        <ele>922.59997558594</ele>
        <time>2013-08-25T08:57:44.000Z</time>
      </trkpt>
      <trkpt lat="45.53488" lon="6.05785">
        <ele>922.59997558594</ele>
        <time>2013-08-25T08:57:45.000Z</time>
      </trkpt>
      <trkpt lat="45.53488" lon="6.05785">
        <ele>922.59997558594</ele>
        <time>2013-08-25T08:57:46.000Z</time>
      </trkpt>
      <trkpt lat="45.53488" lon="6.05785">
        <ele>922.59997558594</ele>
        <time>2013-08-25T08:57:47.000Z</time>
      </trkpt>
      <trkpt lat="45.53488" lon="6.05785">
        <ele>922.59997558594</ele>
        <time>2013-08-25T08:57:50.000Z</time>
      </trkpt>
      <trkpt lat="45.53488" lon="6.05785">
        <ele>922.59997558594</ele>
        <time>2013-08-25T08:57:54.000Z</time>
      </trkpt>
      <trkpt lat="45.53488" lon="6.05785">
        <ele>922.59997558594</ele>
        <time>2013-08-25T08:57:55.000Z</time>
      </trkpt>
      <trkpt lat="45.53488" lon="6.05785">
        <ele>922.59997558594</ele>
        <time>2013-08-25T08:57:56.000Z</time>
      </trkpt>
      <trkpt lat="45.53488" lon="6.05785">
        <ele>922.59997558594</ele>
        <time>2013-08-25T08:57:58.000Z</time>
      </trkpt>
      <trkpt lat="45.53488" lon="6.05785">
        <ele>922.59997558594</ele>
        <time>2013-08-25T08:58:00.000Z</time>
      </trkpt>
      <trkpt lat="45.53488" lon="6.05785">
        <ele>922.59997558594</ele>
        <time>2013-08-25T08:58:01.000Z</time>
      </trkpt>
      <trkpt lat="45.53488" lon="6.05785">
        <ele>922.59997558594</ele>
        <time>2013-08-25T08:58:02.000Z</time>
      </trkpt>
      <trkpt lat="45.53488" lon="6.05785">
        <ele>922.59997558594</ele>
        <time>2013-08-25T08:58:04.000Z</time>
      </trkpt>
      <trkpt lat="45.53488" lon="6.05785">
        <ele>922.59997558594</ele>
        <time>2013-08-25T08:58:06.000Z</time>
      </trkpt>
      <trkpt lat="45.53488" lon="6.05785">
        <ele>922.59997558594</ele>
        <time>2013-08-25T08:58:07.000Z</time>
      </trkpt>
      <trkpt lat="45.53488" lon="6.05785">
        <ele>922.59997558594</ele>
        <time>2013-08-25T08:58:08.000Z</time>
      </trkpt>
      <trkpt lat="45.53488" lon="6.05785">
        <ele>922.59997558594</ele>
        <time>2013-08-25T08:58:09.000Z</time>
      </trkpt>
      <trkpt lat="45.53488" lon="6.05785">
        <ele>922.59997558594</ele>
        <time>2013-08-25T08:58:11.000Z</time>
      </trkpt>
      <trkpt lat="45.53488" lon="6.05785">
        <ele>922.59997558594</ele>
        <time>2013-08-25T08:58:12.000Z</time>
      </trkpt>
      <trkpt lat="45.53488" lon="6.05785">
        <ele>922.59997558594</ele>
        <time>2013-08-25T08:58:16.000Z</time>
      </trkpt>
      <trkpt lat="45.53488" lon="6.05785">
        <ele>922.59997558594</ele>
        <time>2013-08-25T08:58:18.000Z</time>
      </trkpt>
      <trkpt lat="45.53488" lon="6.05785">
        <ele>922.59997558594</ele>
        <time>2013-08-25T08:58:19.000Z</time>
      </trkpt>
      <trkpt lat="45.53488" lon="6.05785">
        <ele>922.59997558594</ele>
        <time>2013-08-25T08:58:20.000Z</time>
      </trkpt>
      <trkpt lat="45.53488" lon="6.05785">
        <ele>922.59997558594</ele>
        <time>2013-08-25T08:58:22.000Z</time>
      </trkpt>
      <trkpt lat="45.53488" lon="6.05785">
        <ele>922.59997558594</ele>
        <time>2013-08-25T08:58:23.000Z</time>
      </trkpt>
      <trkpt lat="45.53488" lon="6.05785">
        <ele>922.59997558594</ele>
        <time>2013-08-25T08:58:24.000Z</time>
      </trkpt>
      <trkpt lat="45.53488" lon="6.05785">
        <ele>922.59997558594</ele>
        <time>2013-08-25T08:58:25.000Z</time>
      </trkpt>
      <trkpt lat="45.53488" lon="6.05785">
        <ele>922.59997558594</ele>
        <time>2013-08-25T08:58:28.000Z</time>
      </trkpt>
      <trkpt lat="45.53488" lon="6.05785">
        <ele>922.59997558594</ele>
        <time>2013-08-25T08:58:30.000Z</time>
      </trkpt>
      <trkpt lat="45.53488" lon="6.05785">
        <ele>922.59997558594</ele>
        <time>2013-08-25T08:58:36.000Z</time>
      </trkpt>
      <trkpt lat="45.53488" lon="6.05785">
        <ele>922.59997558594</ele>
        <time>2013-08-25T08:58:39.000Z</time>
      </trkpt>
      <trkpt lat="45.53488" lon="6.05785">
        <ele>922.59997558594</ele>
        <time>2013-08-25T08:58:40.000Z</time>
      </trkpt>
      <trkpt lat="45.53488" lon="6.05785">
        <ele>922.59997558594</ele>
        <time>2013-08-25T08:58:41.000Z</time>
      </trkpt>
      <trkpt lat="45.53488" lon="6.05785">
        <ele>922.59997558594</ele>
        <time>2013-08-25T08:58:42.000Z</time>
      </trkpt>
      <trkpt lat="45.53488" lon="6.05785">
        <ele>922.59997558594</ele>
        <time>2013-08-25T08:58:46.000Z</time>
      </trkpt>
      <trkpt lat="45.53488" lon="6.05785">
        <ele>922.59997558594</ele>
        <time>2013-08-25T08:58:48.000Z</time>
      </trkpt>
      <trkpt lat="45.53488" lon="6.05785">
        <ele>922.59997558594</ele>
        <time>2013-08-25T08:58:50.000Z</time>
      </trkpt>
      <trkpt lat="45.53488" lon="6.05785">
        <ele>922.59997558594</ele>
        <time>2013-08-25T08:58:51.000Z</time>
      </trkpt>
      <trkpt lat="45.53488" lon="6.05785">
        <ele>922.59997558594</ele>
        <time>2013-08-25T08:58:52.000Z</time>
      </trkpt>
      <trkpt lat="45.53488" lon="6.05785">
        <ele>922.59997558594</ele>
        <time>2013-08-25T08:58:53.000Z</time>
      </trkpt>
      <trkpt lat="45.53488" lon="6.05785">
        <ele>922.59997558594</ele>
        <time>2013-08-25T08:58:54.000Z</time>
      </trkpt>
      <trkpt lat="45.53488" lon="6.05785">
        <ele>922.59997558594</ele>
        <time>2013-08-25T08:58:55.000Z</time>
      </trkpt>
      <trkpt lat="45.53488" lon="6.05785">
        <ele>922.59997558594</ele>
        <time>2013-08-25T08:59:00.000Z</time>
      </trkpt>
      <trkpt lat="45.53488" lon="6.05785">
        <ele>922.59997558594</ele>
        <time>2013-08-25T08:59:01.000Z</time>
      </trkpt>
      <trkpt lat="45.53488" lon="6.05785">
        <ele>922.59997558594</ele>
        <time>2013-08-25T08:59:03.000Z</time>
      </trkpt>
      <trkpt lat="45.53488" lon="6.05785">
        <ele>922.59997558594</ele>
        <time>2013-08-25T08:59:05.000Z</time>
      </trkpt>
      <trkpt lat="45.53488" lon="6.05785">
        <ele>922.59997558594</ele>
        <time>2013-08-25T08:59:06.000Z</time>
      </trkpt>
      <trkpt lat="45.53488" lon="6.05785">
        <ele>922.59997558594</ele>
        <time>2013-08-25T08:59:09.000Z</time>
      </trkpt>
      <trkpt lat="45.53488" lon="6.05785">
        <ele>922.59997558594</ele>
        <time>2013-08-25T08:59:10.000Z</time>
      </trkpt>
      <trkpt lat="45.53488" lon="6.05785">
        <ele>922.59997558594</ele>
        <time>2013-08-25T08:59:11.000Z</time>
      </trkpt>
      <trkpt lat="45.53488" lon="6.05785">
        <ele>922.59997558594</ele>
        <time>2013-08-25T08:59:12.000Z</time>
      </trkpt>
      <trkpt lat="45.53488" lon="6.05785">
        <ele>922.59997558594</ele>
        <time>2013-08-25T08:59:16.000Z</time>
      </trkpt>
      <trkpt lat="45.53488" lon="6.05785">
        <ele>922.59997558594</ele>
        <time>2013-08-25T08:59:17.000Z</time>
      </trkpt>
      <trkpt lat="45.53488" lon="6.05785">
        <ele>922.59997558594</ele>
        <time>2013-08-25T08:59:18.000Z</time>
      </trkpt>
      <trkpt lat="45.53488" lon="6.05785">
        <ele>922.59997558594</ele>
        <time>2013-08-25T08:59:19.000Z</time>
      </trkpt>
      <trkpt lat="45.53488" lon="6.05785">
        <ele>922.59997558594</ele>
        <time>2013-08-25T08:59:21.000Z</time>
      </trkpt>
      <trkpt lat="45.53488" lon="6.05785">
        <ele>922.59997558594</ele>
        <time>2013-08-25T08:59:22.000Z</time>
      </trkpt>
      <trkpt lat="45.53488" lon="6.05785">
        <ele>922.59997558594</ele>
        <time>2013-08-25T08:59:23.000Z</time>
      </trkpt>
      <trkpt lat="45.53488" lon="6.05785">
        <ele>922.59997558594</ele>
        <time>2013-08-25T08:59:24.000Z</time>
      </trkpt>
      <trkpt lat="45.53488" lon="6.05785">
        <ele>922.59997558594</ele>
        <time>2013-08-25T08:59:26.000Z</time>
      </trkpt>
      <trkpt lat="45.53488" lon="6.05785">
        <ele>922.59997558594</ele>
        <time>2013-08-25T08:59:29.000Z</time>
      </trkpt>
      <trkpt lat="45.53488" lon="6.05785">
        <ele>922.59997558594</ele>
        <time>2013-08-25T08:59:30.000Z</time>
      </trkpt>
      <trkpt lat="45.53488" lon="6.05785">
        <ele>922.59997558594</ele>
        <time>2013-08-25T08:59:31.000Z</time>
      </trkpt>
      <trkpt lat="45.53488" lon="6.05785">
        <ele>922.59997558594</ele>
        <time>2013-08-25T08:59:34.000Z</time>
      </trkpt>
      <trkpt lat="45.53488" lon="6.05785">
        <ele>922.59997558594</ele>
        <time>2013-08-25T08:59:35.000Z</time>
      </trkpt>
      <trkpt lat="45.53488" lon="6.05785">
        <ele>922.59997558594</ele>
        <time>2013-08-25T08:59:36.000Z</time>
      </trkpt>
      <trkpt lat="45.53488" lon="6.05785">
        <ele>922.59997558594</ele>
        <time>2013-08-25T08:59:38.000Z</time>
      </trkpt>
      <trkpt lat="45.53488" lon="6.05785">
        <ele>922.59997558594</ele>
        <time>2013-08-25T08:59:39.000Z</time>
      </trkpt>
      <trkpt lat="45.53488" lon="6.05785">
        <ele>922.59997558594</ele>
        <time>2013-08-25T08:59:40.000Z</time>
      </trkpt>
      <trkpt lat="45.53488" lon="6.05785">
        <ele>922.59997558594</ele>
        <time>2013-08-25T08:59:41.000Z</time>
      </trkpt>
      <trkpt lat="45.53488" lon="6.05785">
        <ele>922.59997558594</ele>
        <time>2013-08-25T08:59:42.000Z</time>
      </trkpt>
      <trkpt lat="45.53488" lon="6.05785">
        <ele>922.59997558594</ele>
        <time>2013-08-25T08:59:44.000Z</time>
      </trkpt>
      <trkpt lat="45.53488" lon="6.05785">
        <ele>922.59997558594</ele>
        <time>2013-08-25T08:59:45.000Z</time>
      </trkpt>
      <trkpt lat="45.53488" lon="6.05785">
        <ele>922.59997558594</ele>
        <time>2013-08-25T08:59:46.000Z</time>
      </trkpt>
      <trkpt lat="45.53488" lon="6.05785">
        <ele>922.59997558594</ele>
        <time>2013-08-25T08:59:47.000Z</time>
      </trkpt>
      <trkpt lat="45.53488" lon="6.05785">
        <ele>922.59997558594</ele>
        <time>2013-08-25T08:59:49.000Z</time>
      </trkpt>
      <trkpt lat="45.53488" lon="6.05785">
        <ele>922.59997558594</ele>
        <time>2013-08-25T08:59:50.000Z</time>
      </trkpt>
      <trkpt lat="45.53488" lon="6.05785">
        <ele>922.59997558594</ele>
        <time>2013-08-25T08:59:53.000Z</time>
      </trkpt>
      <trkpt lat="45.53488" lon="6.05785">
        <ele>922.59997558594</ele>
        <time>2013-08-25T08:59:55.000Z</time>
      </trkpt>
      <trkpt lat="45.53488" lon="6.05785">
        <ele>922.59997558594</ele>
        <time>2013-08-25T08:59:56.000Z</time>
      </trkpt>
      <trkpt lat="45.53488" lon="6.05785">
        <ele>922.59997558594</ele>
        <time>2013-08-25T08:59:57.000Z</time>
      </trkpt>
      <trkpt lat="45.53488" lon="6.05785">
        <ele>922.59997558594</ele>
        <time>2013-08-25T08:59:58.000Z</time>
      </trkpt>
      <trkpt lat="45.53488" lon="6.05785">
        <ele>922.59997558594</ele>
        <time>2013-08-25T09:00:00.000Z</time>
      </trkpt>
      <trkpt lat="45.53488" lon="6.05785">
        <ele>922.59997558594</ele>
        <time>2013-08-25T09:00:02.000Z</time>
      </trkpt>
      <trkpt lat="45.53488" lon="6.05785">
        <ele>922.59997558594</ele>
        <time>2013-08-25T09:00:04.000Z</time>
      </trkpt>
      <trkpt lat="45.53488" lon="6.05785">
        <ele>922.59997558594</ele>
        <time>2013-08-25T09:00:06.000Z</time>
      </trkpt>
      <trkpt lat="45.53488" lon="6.05785">
        <ele>922.59997558594</ele>
        <time>2013-08-25T09:00:07.000Z</time>
      </trkpt>
      <trkpt lat="45.53488" lon="6.05785">
        <ele>922.59997558594</ele>
        <time>2013-08-25T09:00:08.000Z</time>
      </trkpt>
      <trkpt lat="45.53488" lon="6.05785">
        <ele>922.59997558594</ele>
        <time>2013-08-25T09:00:09.000Z</time>
      </trkpt>
      <trkpt lat="45.53488" lon="6.05785">
        <ele>922.59997558594</ele>
        <time>2013-08-25T09:00:11.000Z</time>
      </trkpt>
      <trkpt lat="45.53488" lon="6.05785">
        <ele>922.59997558594</ele>
        <time>2013-08-25T09:00:13.000Z</time>
      </trkpt>
      <trkpt lat="45.53488" lon="6.05785">
        <ele>922.59997558594</ele>
        <time>2013-08-25T09:00:14.000Z</time>
      </trkpt>
      <trkpt lat="45.53488" lon="6.05785">
        <ele>922.59997558594</ele>
        <time>2013-08-25T09:00:15.000Z</time>
      </trkpt>
      <trkpt lat="45.53488" lon="6.05785">
        <ele>922.59997558594</ele>
        <time>2013-08-25T09:00:16.000Z</time>
      </trkpt>
      <trkpt lat="45.53488" lon="6.05785">
        <ele>922.59997558594</ele>
        <time>2013-08-25T09:00:17.000Z</time>
      </trkpt>
      <trkpt lat="45.53488" lon="6.05785">
        <ele>922.59997558594</ele>
        <time>2013-08-25T09:00:20.000Z</time>
      </trkpt>
      <trkpt lat="45.53488" lon="6.05785">
        <ele>922.59997558594</ele>
        <time>2013-08-25T09:00:21.000Z</time>
      </trkpt>
      <trkpt lat="45.53488" lon="6.05785">
        <ele>922.59997558594</ele>
        <time>2013-08-25T09:00:23.000Z</time>
      </trkpt>
      <trkpt lat="45.53488" lon="6.05785">
        <ele>922.59997558594</ele>
        <time>2013-08-25T09:00:24.000Z</time>
      </trkpt>
      <trkpt lat="45.53488" lon="6.05785">
        <ele>922.59997558594</ele>
        <time>2013-08-25T09:00:25.000Z</time>
      </trkpt>
      <trkpt lat="45.53488" lon="6.05785">
        <ele>922.59997558594</ele>
        <time>2013-08-25T09:00:26.000Z</time>
      </trkpt>
      <trkpt lat="45.53488" lon="6.05785">
        <ele>922.59997558594</ele>
        <time>2013-08-25T09:00:27.000Z</time>
      </trkpt>
      <trkpt lat="45.53488" lon="6.05785">
        <ele>922.59997558594</ele>
        <time>2013-08-25T09:00:28.000Z</time>
      </trkpt>
      <trkpt lat="45.53488" lon="6.05785">
        <ele>922.59997558594</ele>
        <time>2013-08-25T09:00:29.000Z</time>
      </trkpt>
      <trkpt lat="45.53488" lon="6.05785">
        <ele>922.59997558594</ele>
        <time>2013-08-25T09:00:30.000Z</time>
      </trkpt>
      <trkpt lat="45.53488" lon="6.05785">
        <ele>922.59997558594</ele>
        <time>2013-08-25T09:00:31.000Z</time>
      </trkpt>
      <trkpt lat="45.53488" lon="6.05785">
        <ele>922.59997558594</ele>
        <time>2013-08-25T09:00:32.000Z</time>
      </trkpt>
      <trkpt lat="45.53488" lon="6.05785">
        <ele>922.59997558594</ele>
        <time>2013-08-25T09:00:34.000Z</time>
      </trkpt>
      <trkpt lat="45.53488" lon="6.05785">
        <ele>922.59997558594</ele>
        <time>2013-08-25T09:00:35.000Z</time>
      </trkpt>
      <trkpt lat="45.53488" lon="6.05785">
        <ele>922.59997558594</ele>
        <time>2013-08-25T09:00:36.000Z</time>
      </trkpt>
      <trkpt lat="45.53488" lon="6.05785">
        <ele>922.59997558594</ele>
        <time>2013-08-25T09:00:38.000Z</time>
      </trkpt>
      <trkpt lat="45.53488" lon="6.05785">
        <ele>922.59997558594</ele>
        <time>2013-08-25T09:00:39.000Z</time>
      </trkpt>
      <trkpt lat="45.53488" lon="6.05785">
        <ele>922.59997558594</ele>
        <time>2013-08-25T09:00:40.000Z</time>
      </trkpt>
      <trkpt lat="45.53488" lon="6.05785">
        <ele>922.59997558594</ele>
        <time>2013-08-25T09:00:44.000Z</time>
      </trkpt>
      <trkpt lat="45.53488" lon="6.05785">
        <ele>922.59997558594</ele>
        <time>2013-08-25T09:00:45.000Z</time>
      </trkpt>
      <trkpt lat="45.53488" lon="6.05785">
        <ele>922.59997558594</ele>
        <time>2013-08-25T09:00:46.000Z</time>
      </trkpt>
      <trkpt lat="45.53488" lon="6.05785">
        <ele>922.59997558594</ele>
        <time>2013-08-25T09:00:47.000Z</time>
      </trkpt>
      <trkpt lat="45.53488" lon="6.05785">
        <ele>922.59997558594</ele>
        <time>2013-08-25T09:00:48.000Z</time>
      </trkpt>
      <trkpt lat="45.53488" lon="6.05785">
        <ele>922.59997558594</ele>
        <time>2013-08-25T09:00:49.000Z</time>
      </trkpt>
      <trkpt lat="45.53488" lon="6.05785">
        <ele>922.59997558594</ele>
        <time>2013-08-25T09:00:50.000Z</time>
      </trkpt>
      <trkpt lat="45.53488" lon="6.05785">
        <ele>922.59997558594</ele>
        <time>2013-08-25T09:00:51.000Z</time>
      </trkpt>
      <trkpt lat="45.53488" lon="6.05785">
        <ele>922.59997558594</ele>
        <time>2013-08-25T09:00:52.000Z</time>
      </trkpt>
      <trkpt lat="45.53488" lon="6.05785">
        <ele>922.59997558594</ele>
        <time>2013-08-25T09:00:53.000Z</time>
      </trkpt>
      <trkpt lat="45.53488" lon="6.05785">
        <ele>922.59997558594</ele>
        <time>2013-08-25T09:00:56.000Z</time>
      </trkpt>
      <trkpt lat="45.53488" lon="6.05785">
        <ele>922.59997558594</ele>
        <time>2013-08-25T09:00:57.000Z</time>
      </trkpt>
      <trkpt lat="45.53488" lon="6.05785">
        <ele>922.59997558594</ele>
        <time>2013-08-25T09:00:58.000Z</time>
      </trkpt>
      <trkpt lat="45.53488" lon="6.05785">
        <ele>922.59997558594</ele>
        <time>2013-08-25T09:00:59.000Z</time>
      </trkpt>
      <trkpt lat="45.53488" lon="6.05785">
        <ele>922.59997558594</ele>
        <time>2013-08-25T09:01:00.000Z</time>
      </trkpt>
      <trkpt lat="45.53488" lon="6.05785">
        <ele>922.59997558594</ele>
        <time>2013-08-25T09:01:01.000Z</time>
      </trkpt>
      <trkpt lat="45.53488" lon="6.05785">
        <ele>922.59997558594</ele>
        <time>2013-08-25T09:01:02.000Z</time>
      </trkpt>
      <trkpt lat="45.53488" lon="6.05785">
        <ele>922.59997558594</ele>
        <time>2013-08-25T09:01:03.000Z</time>
      </trkpt>
      <trkpt lat="45.53488" lon="6.05785">
        <ele>922.59997558594</ele>
        <time>2013-08-25T09:01:08.000Z</time>
      </trkpt>
      <trkpt lat="45.53488" lon="6.05785">
        <ele>922.59997558594</ele>
        <time>2013-08-25T09:01:09.000Z</time>
      </trkpt>
      <trkpt lat="45.53488" lon="6.05785">
        <ele>922.59997558594</ele>
        <time>2013-08-25T09:01:10.000Z</time>
      </trkpt>
      <trkpt lat="45.53488" lon="6.05785">
        <ele>922.59997558594</ele>
        <time>2013-08-25T09:01:11.000Z</time>
      </trkpt>
      <trkpt lat="45.53488" lon="6.05785">
        <ele>922.59997558594</ele>
        <time>2013-08-25T09:01:13.000Z</time>
      </trkpt>
      <trkpt lat="45.53488" lon="6.05785">
        <ele>922.59997558594</ele>
        <time>2013-08-25T09:01:15.000Z</time>
      </trkpt>
      <trkpt lat="45.53488" lon="6.05785">
        <ele>922.59997558594</ele>
        <time>2013-08-25T09:01:16.000Z</time>
      </trkpt>
      <trkpt lat="45.53488" lon="6.05785">
        <ele>922.59997558594</ele>
        <time>2013-08-25T09:01:18.000Z</time>
      </trkpt>
      <trkpt lat="45.53488" lon="6.05785">
        <ele>922.59997558594</ele>
        <time>2013-08-25T09:01:19.000Z</time>
      </trkpt>
      <trkpt lat="45.53488" lon="6.05785">
        <ele>922.59997558594</ele>
        <time>2013-08-25T09:01:20.000Z</time>
      </trkpt>
      <trkpt lat="45.53488" lon="6.05785">
        <ele>922.59997558594</ele>
        <time>2013-08-25T09:01:21.000Z</time>
      </trkpt>
      <trkpt lat="45.53488" lon="6.05785">
        <ele>922.59997558594</ele>
        <time>2013-08-25T09:01:22.000Z</time>
      </trkpt>
      <trkpt lat="45.53488" lon="6.05785">
        <ele>922.59997558594</ele>
        <time>2013-08-25T09:01:23.000Z</time>
      </trkpt>
      <trkpt lat="45.53488" lon="6.05785">
        <ele>922.59997558594</ele>
        <time>2013-08-25T09:01:24.000Z</time>
      </trkpt>
      <trkpt lat="45.53488" lon="6.05785">
        <ele>922.59997558594</ele>
        <time>2013-08-25T09:01:25.000Z</time>
      </trkpt>
      <trkpt lat="45.53488" lon="6.05785">
        <ele>922.59997558594</ele>
        <time>2013-08-25T09:01:26.000Z</time>
      </trkpt>
      <trkpt lat="45.53488" lon="6.05785">
        <ele>922.59997558594</ele>
        <time>2013-08-25T09:01:27.000Z</time>
      </trkpt>
      <trkpt lat="45.53488" lon="6.05785">
        <ele>922.59997558594</ele>
        <time>2013-08-25T09:01:28.000Z</time>
      </trkpt>
      <trkpt lat="45.53488" lon="6.05785">
        <ele>922.59997558594</ele>
        <time>2013-08-25T09:01:32.000Z</time>
      </trkpt>
      <trkpt lat="45.53488" lon="6.05785">
        <ele>922.59997558594</ele>
        <time>2013-08-25T09:01:33.000Z</time>
      </trkpt>
      <trkpt lat="45.53488" lon="6.05785">
        <ele>922.59997558594</ele>
        <time>2013-08-25T09:01:34.000Z</time>
      </trkpt>
      <trkpt lat="45.53488" lon="6.05785">
        <ele>922.59997558594</ele>
        <time>2013-08-25T09:01:35.000Z</time>
      </trkpt>
      <trkpt lat="45.53488" lon="6.05785">
        <ele>922.59997558594</ele>
        <time>2013-08-25T09:01:36.000Z</time>
      </trkpt>
      <trkpt lat="45.53488" lon="6.05785">
        <ele>922.59997558594</ele>
        <time>2013-08-25T09:01:37.000Z</time>
      </trkpt>
      <trkpt lat="45.53488" lon="6.05785">
        <ele>922.59997558594</ele>
        <time>2013-08-25T09:01:38.000Z</time>
      </trkpt>
      <trkpt lat="45.53488" lon="6.05785">
        <ele>922.59997558594</ele>
        <time>2013-08-25T09:01:41.000Z</time>
      </trkpt>
      <trkpt lat="45.53488" lon="6.05785">
        <ele>922.59997558594</ele>
        <time>2013-08-25T09:01:42.000Z</time>
      </trkpt>
      <trkpt lat="45.53488" lon="6.05785">
        <ele>922.59997558594</ele>
        <time>2013-08-25T09:01:44.000Z</time>
      </trkpt>
      <trkpt lat="45.53488" lon="6.05785">
        <ele>922.59997558594</ele>
        <time>2013-08-25T09:01:45.000Z</time>
      </trkpt>
      <trkpt lat="45.53488" lon="6.05785">
        <ele>922.59997558594</ele>
        <time>2013-08-25T09:01:48.000Z</time>
      </trkpt>
      <trkpt lat="45.53488" lon="6.05785">
        <ele>922.59997558594</ele>
        <time>2013-08-25T09:01:49.000Z</time>
      </trkpt>
      <trkpt lat="45.53488" lon="6.05785">
        <ele>922.59997558594</ele>
        <time>2013-08-25T09:01:50.000Z</time>
      </trkpt>
      <trkpt lat="45.53488" lon="6.05785">
        <ele>922.59997558594</ele>
        <time>2013-08-25T09:01:51.000Z</time>
      </trkpt>
      <trkpt lat="45.53488" lon="6.05785">
        <ele>922.59997558594</ele>
        <time>2013-08-25T09:01:52.000Z</time>
      </trkpt>
      <trkpt lat="45.53488" lon="6.05785">
        <ele>922.59997558594</ele>
        <time>2013-08-25T09:01:53.000Z</time>
      </trkpt>
      <trkpt lat="45.53488" lon="6.05785">
        <ele>922.59997558594</ele>
        <time>2013-08-25T09:01:55.000Z</time>
      </trkpt>
      <trkpt lat="45.53488" lon="6.05785">
        <ele>922.59997558594</ele>
        <time>2013-08-25T09:01:56.000Z</time>
      </trkpt>
      <trkpt lat="45.53488" lon="6.05785">
        <ele>922.59997558594</ele>
        <time>2013-08-25T09:01:58.000Z</time>
      </trkpt>
      <trkpt lat="45.53488" lon="6.05785">
        <ele>922.59997558594</ele>
        <time>2013-08-25T09:02:00.000Z</time>
      </trkpt>
      <trkpt lat="45.53488" lon="6.05785">
        <ele>922.59997558594</ele>
        <time>2013-08-25T09:02:01.000Z</time>
      </trkpt>
      <trkpt lat="45.53488" lon="6.05785">
        <ele>922.59997558594</ele>
        <time>2013-08-25T09:02:02.000Z</time>
      </trkpt>
      <trkpt lat="45.53488" lon="6.05785">
        <ele>922.59997558594</ele>
        <time>2013-08-25T09:02:03.000Z</time>
      </trkpt>
      <trkpt lat="45.53488" lon="6.05785">
        <ele>922.59997558594</ele>
        <time>2013-08-25T09:02:04.000Z</time>
      </trkpt>
      <trkpt lat="45.53488" lon="6.05785">
        <ele>922.59997558594</ele>
        <time>2013-08-25T09:02:05.000Z</time>
      </trkpt>
      <trkpt lat="45.53488" lon="6.05785">
        <ele>922.59997558594</ele>
        <time>2013-08-25T09:02:06.000Z</time>
      </trkpt>
      <trkpt lat="45.53488" lon="6.05785">
        <ele>922.59997558594</ele>
        <time>2013-08-25T09:02:07.000Z</time>
      </trkpt>
      <trkpt lat="45.53488" lon="6.05785">
        <ele>922.59997558594</ele>
        <time>2013-08-25T09:02:08.000Z</time>
      </trkpt>
      <trkpt lat="45.53488" lon="6.05785">
        <ele>922.59997558594</ele>
        <time>2013-08-25T09:02:09.000Z</time>
      </trkpt>
      <trkpt lat="45.53488" lon="6.05785">
        <ele>922.59997558594</ele>
        <time>2013-08-25T09:02:10.000Z</time>
      </trkpt>
      <trkpt lat="45.53488" lon="6.05785">
        <ele>922.59997558594</ele>
        <time>2013-08-25T09:02:11.000Z</time>
      </trkpt>
      <trkpt lat="45.53488" lon="6.05785">
        <ele>922.59997558594</ele>
        <time>2013-08-25T09:02:12.000Z</time>
      </trkpt>
      <trkpt lat="45.53488" lon="6.05785">
        <ele>922.59997558594</ele>
        <time>2013-08-25T09:02:13.000Z</time>
      </trkpt>
      <trkpt lat="45.53488" lon="6.05785">
        <ele>922.59997558594</ele>
        <time>2013-08-25T09:02:14.000Z</time>
      </trkpt>
      <trkpt lat="45.53488" lon="6.05785">
        <ele>922.59997558594</ele>
        <time>2013-08-25T09:02:16.000Z</time>
      </trkpt>
      <trkpt lat="45.53488" lon="6.05785">
        <ele>922.59997558594</ele>
        <time>2013-08-25T09:02:17.000Z</time>
      </trkpt>
      <trkpt lat="45.53551" lon="6.06419">
        <ele>1019</ele>
        <time>2013-08-25T09:02:19.000Z</time>
      </trkpt>
      <trkpt lat="45.53558" lon="6.06424">
        <ele>1019</ele>
        <time>2013-08-25T09:02:22.000Z</time>
      </trkpt>
      <trkpt lat="45.53559" lon="6.06426">
        <ele>1019</ele>
        <time>2013-08-25T09:02:23.000Z</time>
      </trkpt>
      <trkpt lat="45.5356" lon="6.06428">
        <ele>1019.4000244141</ele>
        <time>2013-08-25T09:02:24.000Z</time>
      </trkpt>
      <trkpt lat="45.5356" lon="6.06431">
        <ele>1019.5999755859</ele>
        <time>2013-08-25T09:02:25.000Z</time>
      </trkpt>
      <trkpt lat="45.53563" lon="6.06437">
        <ele>1020.200012207</ele>
        <time>2013-08-25T09:02:28.000Z</time>
      </trkpt>
      <trkpt lat="45.53563" lon="6.06439">
        <ele>1020.4000244141</ele>
        <time>2013-08-25T09:02:29.000Z</time>
      </trkpt>
      <trkpt lat="45.53564" lon="6.06441">
        <ele>1020.5999755859</ele>
        <time>2013-08-25T09:02:30.000Z</time>
      </trkpt>
      <trkpt lat="45.53564" lon="6.06443">
        <ele>1020.799987793</ele>
        <time>2013-08-25T09:02:31.000Z</time>
      </trkpt>
      <trkpt lat="45.53567" lon="6.06456">
        <ele>1022.200012207</ele>
        <time>2013-08-25T09:02:37.000Z</time>
      </trkpt>
      <trkpt lat="45.53568" lon="6.06458">
        <ele>1022.200012207</ele>
        <time>2013-08-25T09:02:38.000Z</time>
      </trkpt>
      <trkpt lat="45.53569" lon="6.0646">
        <ele>1022.4000244141</ele>
        <time>2013-08-25T09:02:39.000Z</time>
      </trkpt>
      <trkpt lat="45.53571" lon="6.06465">
        <ele>1022.799987793</ele>
        <time>2013-08-25T09:02:41.000Z</time>
      </trkpt>
      <trkpt lat="45.53572" lon="6.06468">
        <ele>1023</ele>
        <time>2013-08-25T09:02:42.000Z</time>
      </trkpt>
      <trkpt lat="45.53573" lon="6.06471">
        <ele>1023.200012207</ele>
        <time>2013-08-25T09:02:43.000Z</time>
      </trkpt>
      <trkpt lat="45.53574" lon="6.06474">
        <ele>1023.4000244141</ele>
        <time>2013-08-25T09:02:44.000Z</time>
      </trkpt>
      <trkpt lat="45.53575" lon="6.06476">
        <ele>1023.4000244141</ele>
        <time>2013-08-25T09:02:45.000Z</time>
      </trkpt>
      <trkpt lat="45.53576" lon="6.06478">
        <ele>1023.5999755859</ele>
        <time>2013-08-25T09:02:46.000Z</time>
      </trkpt>
      <trkpt lat="45.53583" lon="6.06486">
        <ele>1023.200012207</ele>
        <time>2013-08-25T09:02:50.000Z</time>
      </trkpt>
      <trkpt lat="45.53595" lon="6.06506">
        <ele>1022.799987793</ele>
        <time>2013-08-25T09:03:01.000Z</time>
      </trkpt>
      <trkpt lat="45.53596" lon="6.0651">
        <ele>1023.4000244141</ele>
        <time>2013-08-25T09:03:03.000Z</time>
      </trkpt>
      <trkpt lat="45.53597" lon="6.06513">
        <ele>1023.5999755859</ele>
        <time>2013-08-25T09:03:04.000Z</time>
      </trkpt>
      <trkpt lat="45.53597" lon="6.06514">
        <ele>1023.799987793</ele>
        <time>2013-08-25T09:03:05.000Z</time>
      </trkpt>
      <trkpt lat="45.53599" lon="6.06515">
        <ele>1023.4000244141</ele>
        <time>2013-08-25T09:03:06.000Z</time>
      </trkpt>
      <trkpt lat="45.53602" lon="6.06515">
        <ele>1022.799987793</ele>
        <time>2013-08-25T09:03:07.000Z</time>
      </trkpt>
      <trkpt lat="45.53771" lon="6.0651">
        <ele>983.79998779297</ele>
        <time>2013-08-25T09:03:11.000Z</time>
      </trkpt>
      <trkpt lat="45.53775" lon="6.06513">
        <ele>983.59997558594</ele>
        <time>2013-08-25T09:03:13.000Z</time>
      </trkpt>
      <trkpt lat="45.53777" lon="6.06515">
        <ele>983.40002441406</ele>
        <time>2013-08-25T09:03:14.000Z</time>
      </trkpt>
      <trkpt lat="45.53785" lon="6.06521">
        <ele>982.79998779297</ele>
        <time>2013-08-25T09:03:20.000Z</time>
      </trkpt>
      <trkpt lat="45.53787" lon="6.06522">
        <ele>982.59997558594</ele>
        <time>2013-08-25T09:03:22.000Z</time>
      </trkpt>
      <trkpt lat="45.53789" lon="6.06523">
        <ele>982.59997558594</ele>
        <time>2013-08-25T09:03:23.000Z</time>
      </trkpt>
      <trkpt lat="45.53802" lon="6.0654">
        <ele>982.20001220703</ele>
        <time>2013-08-25T09:03:34.000Z</time>
      </trkpt>
      <trkpt lat="45.53803" lon="6.06541">
        <ele>982.20001220703</ele>
        <time>2013-08-25T09:03:35.000Z</time>
      </trkpt>
      <trkpt lat="45.53802" lon="6.06562">
        <ele>984.40002441406</ele>
        <time>2013-08-25T09:03:40.000Z</time>
      </trkpt>
      <trkpt lat="45.53813" lon="6.06619">
        <ele>989.20001220703</ele>
        <time>2013-08-25T09:03:57.000Z</time>
      </trkpt>
      <trkpt lat="45.53809" lon="6.06661">
        <ele>995</ele>
        <time>2013-08-25T09:04:05.000Z</time>
      </trkpt>
      <trkpt lat="45.53806" lon="6.06677">
        <ele>998</ele>
        <time>2013-08-25T09:04:08.000Z</time>
      </trkpt>
      <trkpt lat="45.53816" lon="6.06683">
        <ele>996.79998779297</ele>
        <time>2013-08-25T09:04:09.000Z</time>
      </trkpt>
      <trkpt lat="45.53828" lon="6.06691">
        <ele>995.40002441406</ele>
        <time>2013-08-25T09:04:11.000Z</time>
      </trkpt>
      <trkpt lat="45.53832" lon="6.06694">
        <ele>994.79998779297</ele>
        <time>2013-08-25T09:04:12.000Z</time>
      </trkpt>
      <trkpt lat="45.53854" lon="6.06708">
        <ele>992.79998779297</ele>
        <time>2013-08-25T09:04:20.000Z</time>
      </trkpt>
      <trkpt lat="45.53857" lon="6.06711">
        <ele>992.59997558594</ele>
        <time>2013-08-25T09:04:21.000Z</time>
      </trkpt>
      <trkpt lat="45.53859" lon="6.06715">
        <ele>992.79998779297</ele>
        <time>2013-08-25T09:04:22.000Z</time>
      </trkpt>
      <trkpt lat="45.53862" lon="6.06718">
        <ele>993</ele>
        <time>2013-08-25T09:04:23.000Z</time>
      </trkpt>
      <trkpt lat="45.53895" lon="6.06762">
        <ele>994</ele>
        <time>2013-08-25T09:04:29.000Z</time>
      </trkpt>
      <trkpt lat="45.53899" lon="6.06766">
        <ele>994.20001220703</ele>
        <time>2013-08-25T09:04:30.000Z</time>
      </trkpt>
      <trkpt lat="45.53901" lon="6.06772">
        <ele>995</ele>
        <time>2013-08-25T09:04:31.000Z</time>
      </trkpt>
      <trkpt lat="45.53906" lon="6.06776">
        <ele>995</ele>
        <time>2013-08-25T09:04:32.000Z</time>
      </trkpt>
      <trkpt lat="45.53919" lon="6.06787">
        <ele>995.20001220703</ele>
        <time>2013-08-25T09:04:35.000Z</time>
      </trkpt>
      <trkpt lat="45.53922" lon="6.0679">
        <ele>995.20001220703</ele>
        <time>2013-08-25T09:04:36.000Z</time>
      </trkpt>
      <trkpt lat="45.53933" lon="6.06803">
        <ele>995.20001220703</ele>
        <time>2013-08-25T09:04:39.000Z</time>
      </trkpt>
      <trkpt lat="45.53936" lon="6.06808">
        <ele>995.40002441406</ele>
        <time>2013-08-25T09:04:40.000Z</time>
      </trkpt>
      <trkpt lat="45.53938" lon="6.06813">
        <ele>996.20001220703</ele>
        <time>2013-08-25T09:04:41.000Z</time>
      </trkpt>
      <trkpt lat="45.53941" lon="6.06828">
        <ele>998.40002441406</ele>
        <time>2013-08-25T09:04:44.000Z</time>
      </trkpt>
      <trkpt lat="45.53944" lon="6.06837">
        <ele>999.20001220703</ele>
        <time>2013-08-25T09:04:46.000Z</time>
      </trkpt>
      <trkpt lat="45.53947" lon="6.06841">
        <ele>998.79998779297</ele>
        <time>2013-08-25T09:04:47.000Z</time>
      </trkpt>
      <trkpt lat="45.53967" lon="6.06865">
        <ele>996.20001220703</ele>
        <time>2013-08-25T09:04:56.000Z</time>
      </trkpt>
      <trkpt lat="45.53966" lon="6.0687">
        <ele>997</ele>
        <time>2013-08-25T09:04:58.000Z</time>
      </trkpt>
      <trkpt lat="45.53979" lon="6.06883">
        <ele>995.40002441406</ele>
        <time>2013-08-25T09:05:01.000Z</time>
      </trkpt>
      <trkpt lat="45.53982" lon="6.06887">
        <ele>995</ele>
        <time>2013-08-25T09:05:02.000Z</time>
      </trkpt>
      <trkpt lat="45.53988" lon="6.06895">
        <ele>994.79998779297</ele>
        <time>2013-08-25T09:05:04.000Z</time>
      </trkpt>
      <trkpt lat="45.5399" lon="6.069">
        <ele>994.79998779297</ele>
        <time>2013-08-25T09:05:05.000Z</time>
      </trkpt>
      <trkpt lat="45.53993" lon="6.06909">
        <ele>995.59997558594</ele>
        <time>2013-08-25T09:05:07.000Z</time>
      </trkpt>
      <trkpt lat="45.53997" lon="6.06914">
        <ele>995.20001220703</ele>
        <time>2013-08-25T09:05:08.000Z</time>
      </trkpt>
      <trkpt lat="45.53999" lon="6.0692">
        <ele>995.40002441406</ele>
        <time>2013-08-25T09:05:09.000Z</time>
      </trkpt>
      <trkpt lat="45.54002" lon="6.06925">
        <ele>995</ele>
        <time>2013-08-25T09:05:10.000Z</time>
      </trkpt>
      <trkpt lat="45.54034" lon="6.06952">
        <ele>990.79998779297</ele>
        <time>2013-08-25T09:05:21.000Z</time>
      </trkpt>
      <trkpt lat="45.54046" lon="6.06959">
        <ele>989.20001220703</ele>
        <time>2013-08-25T09:05:25.000Z</time>
      </trkpt>
      <trkpt lat="45.54054" lon="6.06967">
        <ele>988.59997558594</ele>
        <time>2013-08-25T09:05:26.000Z</time>
      </trkpt>
      <trkpt lat="45.5406" lon="6.06972">
        <ele>988.20001220703</ele>
        <time>2013-08-25T09:05:27.000Z</time>
      </trkpt>
      <trkpt lat="45.54067" lon="6.06979">
        <ele>987.59997558594</ele>
        <time>2013-08-25T09:05:29.000Z</time>
      </trkpt>
      <trkpt lat="45.5407" lon="6.06982">
        <ele>987.40002441406</ele>
        <time>2013-08-25T09:05:30.000Z</time>
      </trkpt>
      <trkpt lat="45.54073" lon="6.06985">
        <ele>987.40002441406</ele>
        <time>2013-08-25T09:05:31.000Z</time>
      </trkpt>
      <trkpt lat="45.54075" lon="6.06988">
        <ele>987.40002441406</ele>
        <time>2013-08-25T09:05:32.000Z</time>
      </trkpt>
      <trkpt lat="45.54082" lon="6.06996">
        <ele>987.59997558594</ele>
        <time>2013-08-25T09:05:35.000Z</time>
      </trkpt>
      <trkpt lat="45.54083" lon="6.06999">
        <ele>987.79998779297</ele>
        <time>2013-08-25T09:05:36.000Z</time>
      </trkpt>
      <trkpt lat="45.54085" lon="6.07006">
        <ele>988.40002441406</ele>
        <time>2013-08-25T09:05:38.000Z</time>
      </trkpt>
      <trkpt lat="45.54085" lon="6.0701">
        <ele>988.79998779297</ele>
        <time>2013-08-25T09:05:39.000Z</time>
      </trkpt>
      <trkpt lat="45.54087" lon="6.07013">
        <ele>989</ele>
        <time>2013-08-25T09:05:40.000Z</time>
      </trkpt>
      <trkpt lat="45.54098" lon="6.07028">
        <ele>989.20001220703</ele>
        <time>2013-08-25T09:05:46.000Z</time>
      </trkpt>
      <trkpt lat="45.54101" lon="6.0703">
        <ele>989</ele>
        <time>2013-08-25T09:05:47.000Z</time>
      </trkpt>
      <trkpt lat="45.54104" lon="6.07032">
        <ele>988.79998779297</ele>
        <time>2013-08-25T09:05:48.000Z</time>
      </trkpt>
      <trkpt lat="45.54123" lon="6.07061">
        <ele>991</ele>
        <time>2013-08-25T09:06:01.000Z</time>
      </trkpt>
      <trkpt lat="45.54125" lon="6.07064">
        <ele>991.20001220703</ele>
        <time>2013-08-25T09:06:02.000Z</time>
      </trkpt>
      <trkpt lat="45.54127" lon="6.07067">
        <ele>991.59997558594</ele>
        <time>2013-08-25T09:06:03.000Z</time>
      </trkpt>
      <trkpt lat="45.54128" lon="6.07071">
        <ele>992.20001220703</ele>
        <time>2013-08-25T09:06:04.000Z</time>
      </trkpt>
      <trkpt lat="45.54131" lon="6.07075">
        <ele>992.59997558594</ele>
        <time>2013-08-25T09:06:05.000Z</time>
      </trkpt>
      <trkpt lat="45.54138" lon="6.07092">
        <ele>994.20001220703</ele>
        <time>2013-08-25T09:06:10.000Z</time>
      </trkpt>
      <trkpt lat="45.54139" lon="6.07095">
        <ele>994.40002441406</ele>
        <time>2013-08-25T09:06:11.000Z</time>
      </trkpt>
      <trkpt lat="45.5414" lon="6.07102">
        <ele>995</ele>
        <time>2013-08-25T09:06:13.000Z</time>
      </trkpt>
      <trkpt lat="45.5415" lon="6.07111">
        <ele>995</ele>
        <time>2013-08-25T09:06:16.000Z</time>
      </trkpt>
      <trkpt lat="45.54153" lon="6.07113">
        <ele>995.20001220703</ele>
        <time>2013-08-25T09:06:17.000Z</time>
      </trkpt>
      <trkpt lat="45.54156" lon="6.07118">
        <ele>995.40002441406</ele>
        <time>2013-08-25T09:06:19.000Z</time>
      </trkpt>
      <trkpt lat="45.54163" lon="6.07122">
        <ele>995.79998779297</ele>
        <time>2013-08-25T09:06:22.000Z</time>
      </trkpt>
      <trkpt lat="45.54166" lon="6.07124">
        <ele>995.79998779297</ele>
        <time>2013-08-25T09:06:23.000Z</time>
      </trkpt>
      <trkpt lat="45.54166" lon="6.07126">
        <ele>996</ele>
        <time>2013-08-25T09:06:24.000Z</time>
      </trkpt>
      <trkpt lat="45.5417" lon="6.07128">
        <ele>996</ele>
        <time>2013-08-25T09:06:25.000Z</time>
      </trkpt>
      <trkpt lat="45.54171" lon="6.07131">
        <ele>996.20001220703</ele>
        <time>2013-08-25T09:06:26.000Z</time>
      </trkpt>
      <trkpt lat="45.54176" lon="6.07134">
        <ele>996.20001220703</ele>
        <time>2013-08-25T09:06:27.000Z</time>
      </trkpt>
      <trkpt lat="45.5418" lon="6.07137">
        <ele>996.20001220703</ele>
        <time>2013-08-25T09:06:28.000Z</time>
      </trkpt>
      <trkpt lat="45.54183" lon="6.0714">
        <ele>996.40002441406</ele>
        <time>2013-08-25T09:06:29.000Z</time>
      </trkpt>
      <trkpt lat="45.54186" lon="6.07142">
        <ele>996.59997558594</ele>
        <time>2013-08-25T09:06:30.000Z</time>
      </trkpt>
      <trkpt lat="45.54189" lon="6.07145">
        <ele>996.79998779297</ele>
        <time>2013-08-25T09:06:31.000Z</time>
      </trkpt>
      <trkpt lat="45.54199" lon="6.07155">
        <ele>997.79998779297</ele>
        <time>2013-08-25T09:06:35.000Z</time>
      </trkpt>
      <trkpt lat="45.54201" lon="6.07157">
        <ele>998</ele>
        <time>2013-08-25T09:06:36.000Z</time>
      </trkpt>
      <trkpt lat="45.54202" lon="6.07159">
        <ele>998.40002441406</ele>
        <time>2013-08-25T09:06:37.000Z</time>
      </trkpt>
      <trkpt lat="45.54204" lon="6.07161">
        <ele>998.59997558594</ele>
        <time>2013-08-25T09:06:38.000Z</time>
      </trkpt>
      <trkpt lat="45.54206" lon="6.07162">
        <ele>998.59997558594</ele>
        <time>2013-08-25T09:06:39.000Z</time>
      </trkpt>
      <trkpt lat="45.54213" lon="6.07166">
        <ele>999.20001220703</ele>
        <time>2013-08-25T09:06:42.000Z</time>
      </trkpt>
      <trkpt lat="45.54216" lon="6.07168">
        <ele>999.20001220703</ele>
        <time>2013-08-25T09:06:43.000Z</time>
      </trkpt>
      <trkpt lat="45.54224" lon="6.07173">
        <ele>999</ele>
        <time>2013-08-25T09:06:46.000Z</time>
      </trkpt>
      <trkpt lat="45.54226" lon="6.07174">
        <ele>999</ele>
        <time>2013-08-25T09:06:47.000Z</time>
      </trkpt>
      <trkpt lat="45.54253" lon="6.07177">
        <ele>998.79998779297</ele>
        <time>2013-08-25T09:06:58.000Z</time>
      </trkpt>
      <trkpt lat="45.54255" lon="6.07176">
        <ele>998.79998779297</ele>
        <time>2013-08-25T09:06:59.000Z</time>
      </trkpt>
      <trkpt lat="45.54267" lon="6.07175">
        <ele>999.20001220703</ele>
        <time>2013-08-25T09:07:04.000Z</time>
      </trkpt>
      <trkpt lat="45.54268" lon="6.07175">
        <ele>999.20001220703</ele>
        <time>2013-08-25T09:07:05.000Z</time>
      </trkpt>
      <trkpt lat="45.54272" lon="6.07174">
        <ele>999.20001220703</ele>
        <time>2013-08-25T09:07:07.000Z</time>
      </trkpt>
      <trkpt lat="45.54276" lon="6.07173">
        <ele>999.20001220703</ele>
        <time>2013-08-25T09:07:09.000Z</time>
      </trkpt>
      <trkpt lat="45.54283" lon="6.07172">
        <ele>999.20001220703</ele>
        <time>2013-08-25T09:07:12.000Z</time>
      </trkpt>
      <trkpt lat="45.54284" lon="6.07172">
        <ele>999.20001220703</ele>
        <time>2013-08-25T09:07:13.000Z</time>
      </trkpt>
      <trkpt lat="45.54288" lon="6.07172">
        <ele>999.40002441406</ele>
        <time>2013-08-25T09:07:15.000Z</time>
      </trkpt>
      <trkpt lat="45.5429" lon="6.07172">
        <ele>999.59997558594</ele>
        <time>2013-08-25T09:07:16.000Z</time>
      </trkpt>
      <trkpt lat="45.54293" lon="6.07173">
        <ele>999.79998779297</ele>
        <time>2013-08-25T09:07:18.000Z</time>
      </trkpt>
      <trkpt lat="45.54297" lon="6.07174">
        <ele>1000</ele>
        <time>2013-08-25T09:07:20.000Z</time>
      </trkpt>
      <trkpt lat="45.54301" lon="6.07175">
        <ele>1000.4000244141</ele>
        <time>2013-08-25T09:07:22.000Z</time>
      </trkpt>
      <trkpt lat="45.5431" lon="6.07179">
        <ele>1001.200012207</ele>
        <time>2013-08-25T09:07:27.000Z</time>
      </trkpt>
      <trkpt lat="45.54314" lon="6.07181">
        <ele>1001.5999755859</ele>
        <time>2013-08-25T09:07:29.000Z</time>
      </trkpt>
      <trkpt lat="45.54316" lon="6.07182">
        <ele>1001.799987793</ele>
        <time>2013-08-25T09:07:30.000Z</time>
      </trkpt>
      <trkpt lat="45.5433" lon="6.07185">
        <ele>1003</ele>
        <time>2013-08-25T09:07:37.000Z</time>
      </trkpt>
      <trkpt lat="45.54332" lon="6.07185">
        <ele>1003.200012207</ele>
        <time>2013-08-25T09:07:38.000Z</time>
      </trkpt>
      <trkpt lat="45.54338" lon="6.07188">
        <ele>1003.200012207</ele>
        <time>2013-08-25T09:07:42.000Z</time>
      </trkpt>
      <trkpt lat="45.5434" lon="6.07189">
        <ele>1003.200012207</ele>
        <time>2013-08-25T09:07:43.000Z</time>
      </trkpt>
      <trkpt lat="45.54342" lon="6.07189">
        <ele>1003</ele>
        <time>2013-08-25T09:07:44.000Z</time>
      </trkpt>
      <trkpt lat="45.54346" lon="6.07188">
        <ele>1002.4000244141</ele>
        <time>2013-08-25T09:07:45.000Z</time>
      </trkpt>
      <trkpt lat="45.5435" lon="6.07189">
        <ele>1002.200012207</ele>
        <time>2013-08-25T09:07:46.000Z</time>
      </trkpt>
      <trkpt lat="45.5436" lon="6.07191">
        <ele>1001.5999755859</ele>
        <time>2013-08-25T09:07:49.000Z</time>
      </trkpt>
      <trkpt lat="45.54363" lon="6.07192">
        <ele>1001.4000244141</ele>
        <time>2013-08-25T09:07:50.000Z</time>
      </trkpt>
      <trkpt lat="45.54365" lon="6.07193">
        <ele>1001.4000244141</ele>
        <time>2013-08-25T09:07:51.000Z</time>
      </trkpt>
      <trkpt lat="45.54367" lon="6.07193">
        <ele>1001.200012207</ele>
        <time>2013-08-25T09:07:52.000Z</time>
      </trkpt>
      <trkpt lat="45.54381" lon="6.07198">
        <ele>1000.799987793</ele>
        <time>2013-08-25T09:07:58.000Z</time>
      </trkpt>
      <trkpt lat="45.54384" lon="6.07199">
        <ele>1001</ele>
        <time>2013-08-25T09:07:59.000Z</time>
      </trkpt>
      <trkpt lat="45.54386" lon="6.07201">
        <ele>1001.200012207</ele>
        <time>2013-08-25T09:08:00.000Z</time>
      </trkpt>
      <trkpt lat="45.54389" lon="6.07203">
        <ele>1001.4000244141</ele>
        <time>2013-08-25T09:08:01.000Z</time>
      </trkpt>
      <trkpt lat="45.54394" lon="6.07208">
        <ele>1001.799987793</ele>
        <time>2013-08-25T09:08:04.000Z</time>
      </trkpt>
      <trkpt lat="45.544" lon="6.07213">
        <ele>1002.5999755859</ele>
        <time>2013-08-25T09:08:07.000Z</time>
      </trkpt>
      <trkpt lat="45.54401" lon="6.07215">
        <ele>1002.799987793</ele>
        <time>2013-08-25T09:08:08.000Z</time>
      </trkpt>
      <trkpt lat="45.54403" lon="6.07216">
        <ele>1002.799987793</ele>
        <time>2013-08-25T09:08:09.000Z</time>
      </trkpt>
      <trkpt lat="45.54405" lon="6.07217">
        <ele>1003</ele>
        <time>2013-08-25T09:08:10.000Z</time>
      </trkpt>
      <trkpt lat="45.54409" lon="6.07221">
        <ele>1003.4000244141</ele>
        <time>2013-08-25T09:08:12.000Z</time>
      </trkpt>
      <trkpt lat="45.54411" lon="6.07222">
        <ele>1003.799987793</ele>
        <time>2013-08-25T09:08:13.000Z</time>
      </trkpt>
      <trkpt lat="45.54418" lon="6.07229">
        <ele>1004.799987793</ele>
        <time>2013-08-25T09:08:16.000Z</time>
      </trkpt>
      <trkpt lat="45.54421" lon="6.07231">
        <ele>1004.799987793</ele>
        <time>2013-08-25T09:08:17.000Z</time>
      </trkpt>
      <trkpt lat="45.54423" lon="6.07233">
        <ele>1005</ele>
        <time>2013-08-25T09:08:18.000Z</time>
      </trkpt>
      <trkpt lat="45.54426" lon="6.07235">
        <ele>1005.200012207</ele>
        <time>2013-08-25T09:08:19.000Z</time>
      </trkpt>
      <trkpt lat="45.54428" lon="6.07238">
        <ele>1005.4000244141</ele>
        <time>2013-08-25T09:08:20.000Z</time>
      </trkpt>
      <trkpt lat="45.5443" lon="6.0724">
        <ele>1005.799987793</ele>
        <time>2013-08-25T09:08:21.000Z</time>
      </trkpt>
      <trkpt lat="45.5445" lon="6.07255">
        <ele>1007</ele>
        <time>2013-08-25T09:08:28.000Z</time>
      </trkpt>
      <trkpt lat="45.54453" lon="6.07257">
        <ele>1007.200012207</ele>
        <time>2013-08-25T09:08:29.000Z</time>
      </trkpt>
      <trkpt lat="45.54467" lon="6.07266">
        <ele>1007.4000244141</ele>
        <time>2013-08-25T09:08:33.000Z</time>
      </trkpt>
      <trkpt lat="45.54471" lon="6.07269">
        <ele>1007.4000244141</ele>
        <time>2013-08-25T09:08:34.000Z</time>
      </trkpt>
      <trkpt lat="45.54508" lon="6.07298">
        <ele>1009.200012207</ele>
        <time>2013-08-25T09:08:47.000Z</time>
      </trkpt>
      <trkpt lat="45.54511" lon="6.073">
        <ele>1009</ele>
        <time>2013-08-25T09:08:48.000Z</time>
      </trkpt>
      <trkpt lat="45.54514" lon="6.07302">
        <ele>1008.799987793</ele>
        <time>2013-08-25T09:08:49.000Z</time>
      </trkpt>
      <trkpt lat="45.5452" lon="6.07306">
        <ele>1008.200012207</ele>
        <time>2013-08-25T09:08:51.000Z</time>
      </trkpt>
      <trkpt lat="45.54523" lon="6.07308">
        <ele>1008</ele>
        <time>2013-08-25T09:08:52.000Z</time>
      </trkpt>
      <trkpt lat="45.54529" lon="6.07313">
        <ele>1007.799987793</ele>
        <time>2013-08-25T09:08:54.000Z</time>
      </trkpt>
      <trkpt lat="45.5454" lon="6.07323">
        <ele>1007.799987793</ele>
        <time>2013-08-25T09:08:58.000Z</time>
      </trkpt>
      <trkpt lat="45.54547" lon="6.07329">
        <ele>1008.200012207</ele>
        <time>2013-08-25T09:09:00.000Z</time>
      </trkpt>
      <trkpt lat="45.54564" lon="6.07345">
        <ele>1008</ele>
        <time>2013-08-25T09:09:05.000Z</time>
      </trkpt>
      <trkpt lat="45.54577" lon="6.0736">
        <ele>1008.5999755859</ele>
        <time>2013-08-25T09:09:09.000Z</time>
      </trkpt>
      <trkpt lat="45.54586" lon="6.07374">
        <ele>1009.799987793</ele>
        <time>2013-08-25T09:09:12.000Z</time>
      </trkpt>
      <trkpt lat="45.54594" lon="6.0739">
        <ele>1010.5999755859</ele>
        <time>2013-08-25T09:09:15.000Z</time>
      </trkpt>
      <trkpt lat="45.54598" lon="6.07396">
        <ele>1010.5999755859</ele>
        <time>2013-08-25T09:09:16.000Z</time>
      </trkpt>
      <trkpt lat="45.54603" lon="6.07402">
        <ele>1010.200012207</ele>
        <time>2013-08-25T09:09:17.000Z</time>
      </trkpt>
      <trkpt lat="45.54609" lon="6.07409">
        <ele>1009.799987793</ele>
        <time>2013-08-25T09:09:18.000Z</time>
      </trkpt>
      <trkpt lat="45.54616" lon="6.07416">
        <ele>1009.200012207</ele>
        <time>2013-08-25T09:09:19.000Z</time>
      </trkpt>
      <trkpt lat="45.54635" lon="6.07432">
        <ele>1005.799987793</ele>
        <time>2013-08-25T09:09:21.000Z</time>
      </trkpt>
      <trkpt lat="45.54671" lon="6.07451">
        <ele>999.40002441406</ele>
        <time>2013-08-25T09:09:24.000Z</time>
      </trkpt>
      <trkpt lat="45.54711" lon="6.07463">
        <ele>989.59997558594</ele>
        <time>2013-08-25T09:09:27.000Z</time>
      </trkpt>
      <trkpt lat="45.54737" lon="6.07469">
        <ele>982.79998779297</ele>
        <time>2013-08-25T09:09:29.000Z</time>
      </trkpt>
      <trkpt lat="45.54775" lon="6.07475">
        <ele>974.59997558594</ele>
        <time>2013-08-25T09:09:32.000Z</time>
      </trkpt>
      <trkpt lat="45.54799" lon="6.07477">
        <ele>969.59997558594</ele>
        <time>2013-08-25T09:09:34.000Z</time>
      </trkpt>
      <trkpt lat="45.54842" lon="6.07485">
        <ele>962.79998779297</ele>
        <time>2013-08-25T09:09:38.000Z</time>
      </trkpt>
      <trkpt lat="45.54908" lon="6.07512">
        <ele>956</ele>
        <time>2013-08-25T09:09:47.000Z</time>
      </trkpt>
      <trkpt lat="45.54914" lon="6.07516">
        <ele>955.20001220703</ele>
        <time>2013-08-25T09:09:48.000Z</time>
      </trkpt>
      <trkpt lat="45.54965" lon="6.0755">
        <ele>956.59997558594</ele>
        <time>2013-08-25T09:10:00.000Z</time>
      </trkpt>
      <trkpt lat="45.54974" lon="6.07561">
        <ele>957.79998779297</ele>
        <time>2013-08-25T09:10:03.000Z</time>
      </trkpt>
      <trkpt lat="45.55003" lon="6.0763">
        <ele>960</ele>
        <time>2013-08-25T09:10:20.000Z</time>
      </trkpt>
      <trkpt lat="45.55005" lon="6.0763">
        <ele>960.59997558594</ele>
        <time>2013-08-25T09:10:22.000Z</time>
      </trkpt>
      <trkpt lat="45.55006" lon="6.07629">
        <ele>960.79998779297</ele>
        <time>2013-08-25T09:10:23.000Z</time>
      </trkpt>
      <trkpt lat="45.55007" lon="6.07627">
        <ele>961</ele>
        <time>2013-08-25T09:10:24.000Z</time>
      </trkpt>
      <trkpt lat="45.55009" lon="6.07626">
        <ele>961.40002441406</ele>
        <time>2013-08-25T09:10:25.000Z</time>
      </trkpt>
      <trkpt lat="45.55024" lon="6.07617">
        <ele>964.79998779297</ele>
        <time>2013-08-25T09:10:37.000Z</time>
      </trkpt>
      <trkpt lat="45.55025" lon="6.07617">
        <ele>965</ele>
        <time>2013-08-25T09:10:38.000Z</time>
      </trkpt>
      <trkpt lat="45.55028" lon="6.07617">
        <ele>965.59997558594</ele>
        <time>2013-08-25T09:10:41.000Z</time>
      </trkpt>
      <trkpt lat="45.55029" lon="6.07617">
        <ele>965.79998779297</ele>
        <time>2013-08-25T09:10:42.000Z</time>
      </trkpt>
      <trkpt lat="45.5503" lon="6.07616">
        <ele>966</ele>
        <time>2013-08-25T09:10:43.000Z</time>
      </trkpt>
      <trkpt lat="45.55033" lon="6.07616">
        <ele>966.40002441406</ele>
        <time>2013-08-25T09:10:45.000Z</time>
      </trkpt>
      <trkpt lat="45.55034" lon="6.07615">
        <ele>966.59997558594</ele>
        <time>2013-08-25T09:10:46.000Z</time>
      </trkpt>
      <trkpt lat="45.55035" lon="6.07614">
        <ele>966.79998779297</ele>
        <time>2013-08-25T09:10:47.000Z</time>
      </trkpt>
      <trkpt lat="45.55036" lon="6.07613">
        <ele>967.20001220703</ele>
        <time>2013-08-25T09:10:48.000Z</time>
      </trkpt>
      <trkpt lat="45.55038" lon="6.07611">
        <ele>967.40002441406</ele>
        <time>2013-08-25T09:10:49.000Z</time>
      </trkpt>
      <trkpt lat="45.55039" lon="6.0761">
        <ele>967.59997558594</ele>
        <time>2013-08-25T09:10:50.000Z</time>
      </trkpt>
      <trkpt lat="45.55044" lon="6.07601">
        <ele>967.79998779297</ele>
        <time>2013-08-25T09:10:52.000Z</time>
      </trkpt>
      <trkpt lat="45.55046" lon="6.07595">
        <ele>967.79998779297</ele>
        <time>2013-08-25T09:10:53.000Z</time>
      </trkpt>
      <trkpt lat="45.55048" lon="6.07591">
        <ele>967.79998779297</ele>
        <time>2013-08-25T09:10:54.000Z</time>
      </trkpt>
      <trkpt lat="45.55056" lon="6.0758">
        <ele>967.59997558594</ele>
        <time>2013-08-25T09:10:59.000Z</time>
      </trkpt>
      <trkpt lat="45.55057" lon="6.07579">
        <ele>967.59997558594</ele>
        <time>2013-08-25T09:11:00.000Z</time>
      </trkpt>
      <trkpt lat="45.55063" lon="6.07577">
        <ele>967.59997558594</ele>
        <time>2013-08-25T09:11:03.000Z</time>
      </trkpt>
      <trkpt lat="45.55065" lon="6.07576">
        <ele>967.59997558594</ele>
        <time>2013-08-25T09:11:04.000Z</time>
      </trkpt>
      <trkpt lat="45.55066" lon="6.07575">
        <ele>967.59997558594</ele>
        <time>2013-08-25T09:11:05.000Z</time>
      </trkpt>
      <trkpt lat="45.55077" lon="6.07578">
        <ele>969.59997558594</ele>
        <time>2013-08-25T09:11:12.000Z</time>
      </trkpt>
      <trkpt lat="45.55078" lon="6.07579">
        <ele>970.20001220703</ele>
        <time>2013-08-25T09:11:13.000Z</time>
      </trkpt>
      <trkpt lat="45.5508" lon="6.0758">
        <ele>970.59997558594</ele>
        <time>2013-08-25T09:11:14.000Z</time>
      </trkpt>
      <trkpt lat="45.55085" lon="6.07584">
        <ele>972</ele>
        <time>2013-08-25T09:11:17.000Z</time>
      </trkpt>
      <trkpt lat="45.55086" lon="6.07585">
        <ele>972.40002441406</ele>
        <time>2013-08-25T09:11:18.000Z</time>
      </trkpt>
      <trkpt lat="45.55088" lon="6.07587">
        <ele>972.59997558594</ele>
        <time>2013-08-25T09:11:19.000Z</time>
      </trkpt>
      <trkpt lat="45.55089" lon="6.07588">
        <ele>973</ele>
        <time>2013-08-25T09:11:20.000Z</time>
      </trkpt>
      <trkpt lat="45.55095" lon="6.07593">
        <ele>974.20001220703</ele>
        <time>2013-08-25T09:11:25.000Z</time>
      </trkpt>
      <trkpt lat="45.55096" lon="6.07594">
        <ele>974.40002441406</ele>
        <time>2013-08-25T09:11:26.000Z</time>
      </trkpt>
      <trkpt lat="45.55101" lon="6.07597">
        <ele>975.40002441406</ele>
        <time>2013-08-25T09:11:29.000Z</time>
      </trkpt>
      <trkpt lat="45.55102" lon="6.07598">
        <ele>975.59997558594</ele>
        <time>2013-08-25T09:11:30.000Z</time>
      </trkpt>
      <trkpt lat="45.55104" lon="6.07598">
        <ele>975.79998779297</ele>
        <time>2013-08-25T09:11:31.000Z</time>
      </trkpt>
      <trkpt lat="45.55106" lon="6.07599">
        <ele>976.20001220703</ele>
        <time>2013-08-25T09:11:32.000Z</time>
      </trkpt>
      <trkpt lat="45.5511" lon="6.076">
        <ele>976.59997558594</ele>
        <time>2013-08-25T09:11:34.000Z</time>
      </trkpt>
      <trkpt lat="45.55112" lon="6.07601">
        <ele>977</ele>
        <time>2013-08-25T09:11:35.000Z</time>
      </trkpt>
      <trkpt lat="45.55114" lon="6.07602">
        <ele>977.40002441406</ele>
        <time>2013-08-25T09:11:36.000Z</time>
      </trkpt>
      <trkpt lat="45.55115" lon="6.07604">
        <ele>977.79998779297</ele>
        <time>2013-08-25T09:11:37.000Z</time>
      </trkpt>
      <trkpt lat="45.55117" lon="6.07605">
        <ele>978</ele>
        <time>2013-08-25T09:11:38.000Z</time>
      </trkpt>
      <trkpt lat="45.55125" lon="6.07609">
        <ele>979.59997558594</ele>
        <time>2013-08-25T09:11:42.000Z</time>
      </trkpt>
      <trkpt lat="45.55132" lon="6.07611">
        <ele>980.79998779297</ele>
        <time>2013-08-25T09:11:46.000Z</time>
      </trkpt>
      <trkpt lat="45.55134" lon="6.07612">
        <ele>981</ele>
        <time>2013-08-25T09:11:47.000Z</time>
      </trkpt>
      <trkpt lat="45.5515" lon="6.07617">
        <ele>983.59997558594</ele>
        <time>2013-08-25T09:11:55.000Z</time>
      </trkpt>
      <trkpt lat="45.55151" lon="6.07617">
        <ele>984</ele>
        <time>2013-08-25T09:11:56.000Z</time>
      </trkpt>
      <trkpt lat="45.55159" lon="6.0762">
        <ele>985.20001220703</ele>
        <time>2013-08-25T09:12:00.000Z</time>
      </trkpt>
      <trkpt lat="45.5516" lon="6.0762">
        <ele>985.40002441406</ele>
        <time>2013-08-25T09:12:01.000Z</time>
      </trkpt>
      <trkpt lat="45.55162" lon="6.0762">
        <ele>985.79998779297</ele>
        <time>2013-08-25T09:12:02.000Z</time>
      </trkpt>
      <trkpt lat="45.55163" lon="6.0762">
        <ele>985.79998779297</ele>
        <time>2013-08-25T09:12:03.000Z</time>
      </trkpt>
      <trkpt lat="45.55166" lon="6.07621">
        <ele>986.40002441406</ele>
        <time>2013-08-25T09:12:05.000Z</time>
      </trkpt>
      <trkpt lat="45.55171" lon="6.07621">
        <ele>986.59997558594</ele>
        <time>2013-08-25T09:12:08.000Z</time>
      </trkpt>
      <trkpt lat="45.55175" lon="6.07621">
        <ele>986.79998779297</ele>
        <time>2013-08-25T09:12:10.000Z</time>
      </trkpt>
      <trkpt lat="45.55178" lon="6.0762">
        <ele>986.79998779297</ele>
        <time>2013-08-25T09:12:12.000Z</time>
      </trkpt>
      <trkpt lat="45.55194" lon="6.07616">
        <ele>986.40002441406</ele>
        <time>2013-08-25T09:12:20.000Z</time>
      </trkpt>
      <trkpt lat="45.55198" lon="6.07616">
        <ele>986.40002441406</ele>
        <time>2013-08-25T09:12:22.000Z</time>
      </trkpt>
      <trkpt lat="45.552" lon="6.07615">
        <ele>986.20001220703</ele>
        <time>2013-08-25T09:12:23.000Z</time>
      </trkpt>
      <trkpt lat="45.55206" lon="6.07616">
        <ele>986.79998779297</ele>
        <time>2013-08-25T09:12:27.000Z</time>
      </trkpt>
      <trkpt lat="45.55208" lon="6.07625">
        <ele>989.20001220703</ele>
        <time>2013-08-25T09:12:35.000Z</time>
      </trkpt>
      <trkpt lat="45.55206" lon="6.07626">
        <ele>989.40002441406</ele>
        <time>2013-08-25T09:12:37.000Z</time>
      </trkpt>
      <trkpt lat="45.55204" lon="6.07627">
        <ele>989.40002441406</ele>
        <time>2013-08-25T09:12:38.000Z</time>
      </trkpt>
      <trkpt lat="45.55203" lon="6.07627">
        <ele>989.40002441406</ele>
        <time>2013-08-25T09:12:39.000Z</time>
      </trkpt>
      <trkpt lat="45.552" lon="6.07627">
        <ele>989.20001220703</ele>
        <time>2013-08-25T09:12:41.000Z</time>
      </trkpt>
      <trkpt lat="45.55198" lon="6.07626">
        <ele>989</ele>
        <time>2013-08-25T09:12:42.000Z</time>
      </trkpt>
      <trkpt lat="45.55197" lon="6.07626">
        <ele>988.79998779297</ele>
        <time>2013-08-25T09:12:43.000Z</time>
      </trkpt>
      <trkpt lat="45.55195" lon="6.07625">
        <ele>988.79998779297</ele>
        <time>2013-08-25T09:12:44.000Z</time>
      </trkpt>
      <trkpt lat="45.55194" lon="6.07625">
        <ele>988.59997558594</ele>
        <time>2013-08-25T09:12:45.000Z</time>
      </trkpt>
      <trkpt lat="45.55188" lon="6.07624">
        <ele>988</ele>
        <time>2013-08-25T09:12:48.000Z</time>
      </trkpt>
      <trkpt lat="45.55186" lon="6.07624">
        <ele>988</ele>
        <time>2013-08-25T09:12:49.000Z</time>
      </trkpt>
      <trkpt lat="45.55184" lon="6.07624">
        <ele>987.79998779297</ele>
        <time>2013-08-25T09:12:50.000Z</time>
      </trkpt>
      <trkpt lat="45.55183" lon="6.07624">
        <ele>987.79998779297</ele>
        <time>2013-08-25T09:12:51.000Z</time>
      </trkpt>
      <trkpt lat="45.55181" lon="6.07624">
        <ele>987.79998779297</ele>
        <time>2013-08-25T09:12:52.000Z</time>
      </trkpt>
      <trkpt lat="45.55179" lon="6.07624">
        <ele>987.59997558594</ele>
        <time>2013-08-25T09:12:53.000Z</time>
      </trkpt>
      <trkpt lat="45.55178" lon="6.07624">
        <ele>987.59997558594</ele>
        <time>2013-08-25T09:12:54.000Z</time>
      </trkpt>
      <trkpt lat="45.55176" lon="6.07624">
        <ele>987.59997558594</ele>
        <time>2013-08-25T09:12:55.000Z</time>
      </trkpt>
      <trkpt lat="45.55171" lon="6.07625">
        <ele>987.59997558594</ele>
        <time>2013-08-25T09:12:58.000Z</time>
      </trkpt>
      <trkpt lat="45.55169" lon="6.07625">
        <ele>987.59997558594</ele>
        <time>2013-08-25T09:12:59.000Z</time>
      </trkpt>
      <trkpt lat="45.55167" lon="6.07626">
        <ele>987.59997558594</ele>
        <time>2013-08-25T09:13:00.000Z</time>
      </trkpt>
      <trkpt lat="45.5516" lon="6.07631">
        <ele>988</ele>
        <time>2013-08-25T09:13:04.000Z</time>
      </trkpt>
      <trkpt lat="45.55158" lon="6.07632">
        <ele>988</ele>
        <time>2013-08-25T09:13:05.000Z</time>
      </trkpt>
      <trkpt lat="45.5515" lon="6.07634">
        <ele>987.59997558594</ele>
        <time>2013-08-25T09:13:11.000Z</time>
      </trkpt>
      <trkpt lat="45.55148" lon="6.07634">
        <ele>987.59997558594</ele>
        <time>2013-08-25T09:13:12.000Z</time>
      </trkpt>
      <trkpt lat="45.55147" lon="6.07635">
        <ele>987.40002441406</ele>
        <time>2013-08-25T09:13:13.000Z</time>
      </trkpt>
      <trkpt lat="45.55145" lon="6.07635">
        <ele>987.40002441406</ele>
        <time>2013-08-25T09:13:14.000Z</time>
      </trkpt>
      <trkpt lat="45.55143" lon="6.07635">
        <ele>987.20001220703</ele>
        <time>2013-08-25T09:13:15.000Z</time>
      </trkpt>
      <trkpt lat="45.55141" lon="6.07635">
        <ele>986.79998779297</ele>
        <time>2013-08-25T09:13:16.000Z</time>
      </trkpt>
      <trkpt lat="45.55139" lon="6.07635">
        <ele>986.59997558594</ele>
        <time>2013-08-25T09:13:17.000Z</time>
      </trkpt>
      <trkpt lat="45.55136" lon="6.07635">
        <ele>986.20001220703</ele>
        <time>2013-08-25T09:13:18.000Z</time>
      </trkpt>
      <trkpt lat="45.55134" lon="6.07635">
        <ele>986</ele>
        <time>2013-08-25T09:13:19.000Z</time>
      </trkpt>
      <trkpt lat="45.55119" lon="6.0764">
        <ele>985.20001220703</ele>
        <time>2013-08-25T09:13:22.000Z</time>
      </trkpt>
      <trkpt lat="45.55115" lon="6.07642">
        <ele>985</ele>
        <time>2013-08-25T09:13:23.000Z</time>
      </trkpt>
      <trkpt lat="45.55112" lon="6.07643">
        <ele>985</ele>
        <time>2013-08-25T09:13:24.000Z</time>
      </trkpt>
      <trkpt lat="45.55109" lon="6.07644">
        <ele>984.79998779297</ele>
        <time>2013-08-25T09:13:25.000Z</time>
      </trkpt>
      <trkpt lat="45.55107" lon="6.07643">
        <ele>984.20001220703</ele>
        <time>2013-08-25T09:13:26.000Z</time>
      </trkpt>
      <trkpt lat="45.55104" lon="6.07642">
        <ele>983.79998779297</ele>
        <time>2013-08-25T09:13:27.000Z</time>
      </trkpt>
      <trkpt lat="45.55099" lon="6.07645">
        <ele>983.59997558594</ele>
        <time>2013-08-25T09:13:29.000Z</time>
      </trkpt>
      <trkpt lat="45.55094" lon="6.07647">
        <ele>983.40002441406</ele>
        <time>2013-08-25T09:13:31.000Z</time>
      </trkpt>
      <trkpt lat="45.55093" lon="6.07649">
        <ele>983.40002441406</ele>
        <time>2013-08-25T09:13:32.000Z</time>
      </trkpt>
      <trkpt lat="45.55092" lon="6.0765">
        <ele>983.40002441406</ele>
        <time>2013-08-25T09:13:33.000Z</time>
      </trkpt>
      <trkpt lat="45.5509" lon="6.07653">
        <ele>983.59997558594</ele>
        <time>2013-08-25T09:13:35.000Z</time>
      </trkpt>
      <trkpt lat="45.55087" lon="6.07658">
        <ele>984</ele>
        <time>2013-08-25T09:13:38.000Z</time>
      </trkpt>
      <trkpt lat="45.55087" lon="6.07659">
        <ele>984.20001220703</ele>
        <time>2013-08-25T09:13:39.000Z</time>
      </trkpt>
      <trkpt lat="45.55086" lon="6.07663">
        <ele>984.79998779297</ele>
        <time>2013-08-25T09:13:41.000Z</time>
      </trkpt>
      <trkpt lat="45.55086" lon="6.07666">
        <ele>985.20001220703</ele>
        <time>2013-08-25T09:13:42.000Z</time>
      </trkpt>
      <trkpt lat="45.55086" lon="6.07668">
        <ele>985.20001220703</ele>
        <time>2013-08-25T09:13:43.000Z</time>
      </trkpt>
      <trkpt lat="45.55085" lon="6.07673">
        <ele>984.79998779297</ele>
        <time>2013-08-25T09:13:45.000Z</time>
      </trkpt>
      <trkpt lat="45.55084" lon="6.07674">
        <ele>984.59997558594</ele>
        <time>2013-08-25T09:13:46.000Z</time>
      </trkpt>
      <trkpt lat="45.55083" lon="6.07677">
        <ele>984</ele>
        <time>2013-08-25T09:13:48.000Z</time>
      </trkpt>
      <trkpt lat="45.55087" lon="6.07705">
        <ele>983.20001220703</ele>
        <time>2013-08-25T09:14:02.000Z</time>
      </trkpt>
      <trkpt lat="45.55088" lon="6.07707">
        <ele>983.40002441406</ele>
        <time>2013-08-25T09:14:03.000Z</time>
      </trkpt>
      <trkpt lat="45.5509" lon="6.0771">
        <ele>983.79998779297</ele>
        <time>2013-08-25T09:14:05.000Z</time>
      </trkpt>
      <trkpt lat="45.55095" lon="6.07718">
        <ele>985</ele>
        <time>2013-08-25T09:14:10.000Z</time>
      </trkpt>
      <trkpt lat="45.55097" lon="6.07721">
        <ele>985.40002441406</ele>
        <time>2013-08-25T09:14:12.000Z</time>
      </trkpt>
      <trkpt lat="45.55101" lon="6.07731">
        <ele>986.59997558594</ele>
        <time>2013-08-25T09:14:18.000Z</time>
      </trkpt>
      <trkpt lat="45.55101" lon="6.07733">
        <ele>986.79998779297</ele>
        <time>2013-08-25T09:14:19.000Z</time>
      </trkpt>
      <trkpt lat="45.55102" lon="6.07735">
        <ele>987</ele>
        <time>2013-08-25T09:14:21.000Z</time>
      </trkpt>
      <trkpt lat="45.55103" lon="6.07737">
        <ele>987.20001220703</ele>
        <time>2013-08-25T09:14:22.000Z</time>
      </trkpt>
      <trkpt lat="45.55105" lon="6.07739">
        <ele>988</ele>
        <time>2013-08-25T09:14:24.000Z</time>
      </trkpt>
      <trkpt lat="45.55106" lon="6.07741">
        <ele>988.59997558594</ele>
        <time>2013-08-25T09:14:25.000Z</time>
      </trkpt>
      <trkpt lat="45.55108" lon="6.07742">
        <ele>989.20001220703</ele>
        <time>2013-08-25T09:14:26.000Z</time>
      </trkpt>
      <trkpt lat="45.55111" lon="6.07748">
        <ele>990.59997558594</ele>
        <time>2013-08-25T09:14:29.000Z</time>
      </trkpt>
      <trkpt lat="45.55112" lon="6.0775">
        <ele>991.20001220703</ele>
        <time>2013-08-25T09:14:30.000Z</time>
      </trkpt>
      <trkpt lat="45.55117" lon="6.07754">
        <ele>992.59997558594</ele>
        <time>2013-08-25T09:14:33.000Z</time>
      </trkpt>
      <trkpt lat="45.55118" lon="6.07755">
        <ele>993</ele>
        <time>2013-08-25T09:14:34.000Z</time>
      </trkpt>
      <trkpt lat="45.55121" lon="6.07758">
        <ele>993.79998779297</ele>
        <time>2013-08-25T09:14:36.000Z</time>
      </trkpt>
      <trkpt lat="45.55125" lon="6.07761">
        <ele>995.20001220703</ele>
        <time>2013-08-25T09:14:39.000Z</time>
      </trkpt>
      <trkpt lat="45.55127" lon="6.07763">
        <ele>995.59997558594</ele>
        <time>2013-08-25T09:14:40.000Z</time>
      </trkpt>
      <trkpt lat="45.55128" lon="6.07764">
        <ele>996.20001220703</ele>
        <time>2013-08-25T09:14:41.000Z</time>
      </trkpt>
      <trkpt lat="45.55131" lon="6.07766">
        <ele>997</ele>
        <time>2013-08-25T09:14:43.000Z</time>
      </trkpt>
      <trkpt lat="45.55133" lon="6.07769">
        <ele>997.59997558594</ele>
        <time>2013-08-25T09:14:45.000Z</time>
      </trkpt>
      <trkpt lat="45.55134" lon="6.0777">
        <ele>997.79998779297</ele>
        <time>2013-08-25T09:14:46.000Z</time>
      </trkpt>
      <trkpt lat="45.55135" lon="6.07772">
        <ele>998.20001220703</ele>
        <time>2013-08-25T09:14:47.000Z</time>
      </trkpt>
      <trkpt lat="45.55136" lon="6.07775">
        <ele>998.59997558594</ele>
        <time>2013-08-25T09:14:49.000Z</time>
      </trkpt>
      <trkpt lat="45.55138" lon="6.07777">
        <ele>999.40002441406</ele>
        <time>2013-08-25T09:14:51.000Z</time>
      </trkpt>
      <trkpt lat="45.55148" lon="6.07789">
        <ele>1002.799987793</ele>
        <time>2013-08-25T09:15:02.000Z</time>
      </trkpt>
      <trkpt lat="45.5515" lon="6.07791">
        <ele>1003.4000244141</ele>
        <time>2013-08-25T09:15:03.000Z</time>
      </trkpt>
      <trkpt lat="45.55155" lon="6.07796">
        <ele>1005.4000244141</ele>
        <time>2013-08-25T09:15:07.000Z</time>
      </trkpt>
      <trkpt lat="45.55157" lon="6.07799">
        <ele>1006.4000244141</ele>
        <time>2013-08-25T09:15:10.000Z</time>
      </trkpt>
      <trkpt lat="45.55163" lon="6.07802">
        <ele>1009</ele>
        <time>2013-08-25T09:15:14.000Z</time>
      </trkpt>
      <trkpt lat="45.55166" lon="6.07806">
        <ele>1010.4000244141</ele>
        <time>2013-08-25T09:15:17.000Z</time>
      </trkpt>
      <trkpt lat="45.55167" lon="6.07808">
        <ele>1010.4000244141</ele>
        <time>2013-08-25T09:15:18.000Z</time>
      </trkpt>
      <trkpt lat="45.55167" lon="6.07813">
        <ele>1010.4000244141</ele>
        <time>2013-08-25T09:15:20.000Z</time>
      </trkpt>
      <trkpt lat="45.55168" lon="6.07816">
        <ele>1010.4000244141</ele>
        <time>2013-08-25T09:15:21.000Z</time>
      </trkpt>
      <trkpt lat="45.55168" lon="6.07819">
        <ele>1010.200012207</ele>
        <time>2013-08-25T09:15:22.000Z</time>
      </trkpt>
      <trkpt lat="45.55171" lon="6.07833">
        <ele>1011</ele>
        <time>2013-08-25T09:15:28.000Z</time>
      </trkpt>
      <trkpt lat="45.55171" lon="6.07836">
        <ele>1011.200012207</ele>
        <time>2013-08-25T09:15:29.000Z</time>
      </trkpt>
      <trkpt lat="45.55171" lon="6.07838">
        <ele>1011.4000244141</ele>
        <time>2013-08-25T09:15:30.000Z</time>
      </trkpt>
      <trkpt lat="45.55171" lon="6.0784">
        <ele>1011.799987793</ele>
        <time>2013-08-25T09:15:31.000Z</time>
      </trkpt>
      <trkpt lat="45.55172" lon="6.07842">
        <ele>1012</ele>
        <time>2013-08-25T09:15:32.000Z</time>
      </trkpt>
      <trkpt lat="45.55173" lon="6.07847">
        <ele>1013.200012207</ele>
        <time>2013-08-25T09:15:35.000Z</time>
      </trkpt>
      <trkpt lat="45.55173" lon="6.07848">
        <ele>1013.4000244141</ele>
        <time>2013-08-25T09:15:36.000Z</time>
      </trkpt>
      <trkpt lat="45.55174" lon="6.07849">
        <ele>1013.5999755859</ele>
        <time>2013-08-25T09:15:37.000Z</time>
      </trkpt>
      <trkpt lat="45.55175" lon="6.07851">
        <ele>1014.4000244141</ele>
        <time>2013-08-25T09:15:39.000Z</time>
      </trkpt>
      <trkpt lat="45.55175" lon="6.07852">
        <ele>1014.799987793</ele>
        <time>2013-08-25T09:15:40.000Z</time>
      </trkpt>
      <trkpt lat="45.55176" lon="6.07854">
        <ele>1015.4000244141</ele>
        <time>2013-08-25T09:15:42.000Z</time>
      </trkpt>
      <trkpt lat="45.55177" lon="6.07856">
        <ele>1016.200012207</ele>
        <time>2013-08-25T09:15:43.000Z</time>
      </trkpt>
      <trkpt lat="45.55179" lon="6.07859">
        <ele>1017</ele>
        <time>2013-08-25T09:15:44.000Z</time>
      </trkpt>
      <trkpt lat="45.55184" lon="6.07871">
        <ele>1021</ele>
        <time>2013-08-25T09:15:50.000Z</time>
      </trkpt>
      <trkpt lat="45.55184" lon="6.07873">
        <ele>1021.4000244141</ele>
        <time>2013-08-25T09:15:51.000Z</time>
      </trkpt>
      <trkpt lat="45.55184" lon="6.07876">
        <ele>1021.5999755859</ele>
        <time>2013-08-25T09:15:52.000Z</time>
      </trkpt>
      <trkpt lat="45.55184" lon="6.07881">
        <ele>1022</ele>
        <time>2013-08-25T09:15:54.000Z</time>
      </trkpt>
      <trkpt lat="45.55183" lon="6.07886">
        <ele>1022.4000244141</ele>
        <time>2013-08-25T09:15:57.000Z</time>
      </trkpt>
      <trkpt lat="45.55179" lon="6.07899">
        <ele>1021.200012207</ele>
        <time>2013-08-25T09:16:04.000Z</time>
      </trkpt>
      <trkpt lat="45.55178" lon="6.079">
        <ele>1020.799987793</ele>
        <time>2013-08-25T09:16:05.000Z</time>
      </trkpt>
      <trkpt lat="45.55172" lon="6.07906">
        <ele>1018.200012207</ele>
        <time>2013-08-25T09:16:11.000Z</time>
      </trkpt>
      <trkpt lat="45.55171" lon="6.07907">
        <ele>1017.799987793</ele>
        <time>2013-08-25T09:16:12.000Z</time>
      </trkpt>
      <trkpt lat="45.5517" lon="6.07908">
        <ele>1017.4000244141</ele>
        <time>2013-08-25T09:16:13.000Z</time>
      </trkpt>
      <trkpt lat="45.5517" lon="6.07911">
        <ele>1017.5999755859</ele>
        <time>2013-08-25T09:16:14.000Z</time>
      </trkpt>
      <trkpt lat="45.5517" lon="6.07914">
        <ele>1017.4000244141</ele>
        <time>2013-08-25T09:16:16.000Z</time>
      </trkpt>
      <trkpt lat="45.55169" lon="6.07915">
        <ele>1017.200012207</ele>
        <time>2013-08-25T09:16:17.000Z</time>
      </trkpt>
      <trkpt lat="45.55168" lon="6.0792">
        <ele>1017.4000244141</ele>
        <time>2013-08-25T09:16:20.000Z</time>
      </trkpt>
      <trkpt lat="45.55167" lon="6.07926">
        <ele>1018.5999755859</ele>
        <time>2013-08-25T09:16:25.000Z</time>
      </trkpt>
      <trkpt lat="45.55168" lon="6.07927">
        <ele>1019.4000244141</ele>
        <time>2013-08-25T09:16:26.000Z</time>
      </trkpt>
      <trkpt lat="45.5517" lon="6.07933">
        <ele>1022.200012207</ele>
        <time>2013-08-25T09:16:29.000Z</time>
      </trkpt>
      <trkpt lat="45.55171" lon="6.07935">
        <ele>1023</ele>
        <time>2013-08-25T09:16:30.000Z</time>
      </trkpt>
      <trkpt lat="45.55171" lon="6.07937">
        <ele>1023.5999755859</ele>
        <time>2013-08-25T09:16:31.000Z</time>
      </trkpt>
      <trkpt lat="45.55171" lon="6.07939">
        <ele>1024.4000244141</ele>
        <time>2013-08-25T09:16:32.000Z</time>
      </trkpt>
      <trkpt lat="45.55171" lon="6.07941">
        <ele>1025</ele>
        <time>2013-08-25T09:16:33.000Z</time>
      </trkpt>
      <trkpt lat="45.5517" lon="6.07943">
        <ele>1025</ele>
        <time>2013-08-25T09:16:34.000Z</time>
      </trkpt>
      <trkpt lat="45.5517" lon="6.07945">
        <ele>1025</ele>
        <time>2013-08-25T09:16:35.000Z</time>
      </trkpt>
      <trkpt lat="45.55168" lon="6.07947">
        <ele>1025</ele>
        <time>2013-08-25T09:16:36.000Z</time>
      </trkpt>
      <trkpt lat="45.55167" lon="6.07949">
        <ele>1025</ele>
        <time>2013-08-25T09:16:37.000Z</time>
      </trkpt>
      <trkpt lat="45.55165" lon="6.07957">
        <ele>1025.5999755859</ele>
        <time>2013-08-25T09:16:41.000Z</time>
      </trkpt>
      <trkpt lat="45.55163" lon="6.0797">
        <ele>1028.1999511719</ele>
        <time>2013-08-25T09:16:48.000Z</time>
      </trkpt>
      <trkpt lat="45.55163" lon="6.07972">
        <ele>1028.5999755859</ele>
        <time>2013-08-25T09:16:49.000Z</time>
      </trkpt>
      <trkpt lat="45.55163" lon="6.07983">
        <ele>1031.4000244141</ele>
        <time>2013-08-25T09:17:01.000Z</time>
      </trkpt>
      <trkpt lat="45.55164" lon="6.07982">
        <ele>1031.5999755859</ele>
        <time>2013-08-25T09:17:05.000Z</time>
      </trkpt>
      <trkpt lat="45.55162" lon="6.07985">
        <ele>1031.8000488281</ele>
        <time>2013-08-25T09:17:14.000Z</time>
      </trkpt>
      <trkpt lat="45.55159" lon="6.07985">
        <ele>1030.4000244141</ele>
        <time>2013-08-25T09:17:17.000Z</time>
      </trkpt>
      <trkpt lat="45.55158" lon="6.07985">
        <ele>1029.8000488281</ele>
        <time>2013-08-25T09:17:18.000Z</time>
      </trkpt>
      <trkpt lat="45.55157" lon="6.07985">
        <ele>1029.1999511719</ele>
        <time>2013-08-25T09:17:19.000Z</time>
      </trkpt>
      <trkpt lat="45.55154" lon="6.07986">
        <ele>1027.8000488281</ele>
        <time>2013-08-25T09:17:22.000Z</time>
      </trkpt>
      <trkpt lat="45.55153" lon="6.07987">
        <ele>1027.5999755859</ele>
        <time>2013-08-25T09:17:23.000Z</time>
      </trkpt>
      <trkpt lat="45.55141" lon="6.08008">
        <ele>1026.5999755859</ele>
        <time>2013-08-25T09:17:32.000Z</time>
      </trkpt>
      <trkpt lat="45.55137" lon="6.08015">
        <ele>1025.8000488281</ele>
        <time>2013-08-25T09:17:35.000Z</time>
      </trkpt>
      <trkpt lat="45.55135" lon="6.08019">
        <ele>1025.1999511719</ele>
        <time>2013-08-25T09:17:37.000Z</time>
      </trkpt>
      <trkpt lat="45.55134" lon="6.08021">
        <ele>1025</ele>
        <time>2013-08-25T09:17:38.000Z</time>
      </trkpt>
      <trkpt lat="45.55128" lon="6.08046">
        <ele>1025.8000488281</ele>
        <time>2013-08-25T09:17:45.000Z</time>
      </trkpt>
      <trkpt lat="45.55128" lon="6.08048">
        <ele>1025.8000488281</ele>
        <time>2013-08-25T09:17:46.000Z</time>
      </trkpt>
      <trkpt lat="45.55128" lon="6.08053">
        <ele>1026.4000244141</ele>
        <time>2013-08-25T09:17:49.000Z</time>
      </trkpt>
      <trkpt lat="45.55128" lon="6.08054">
        <ele>1026.8000488281</ele>
        <time>2013-08-25T09:17:50.000Z</time>
      </trkpt>
      <trkpt lat="45.55128" lon="6.08057">
        <ele>1027</ele>
        <time>2013-08-25T09:17:52.000Z</time>
      </trkpt>
      <trkpt lat="45.55127" lon="6.08063">
        <ele>1027.8000488281</ele>
        <time>2013-08-25T09:17:55.000Z</time>
      </trkpt>
      <trkpt lat="45.55127" lon="6.08072">
        <ele>1029.1999511719</ele>
        <time>2013-08-25T09:18:01.000Z</time>
      </trkpt>
      <trkpt lat="45.55128" lon="6.08073">
        <ele>1029.5999755859</ele>
        <time>2013-08-25T09:18:02.000Z</time>
      </trkpt>
      <trkpt lat="45.55128" lon="6.08075">
        <ele>1030</ele>
        <time>2013-08-25T09:18:03.000Z</time>
      </trkpt>
      <trkpt lat="45.55128" lon="6.08076">
        <ele>1030.4000244141</ele>
        <time>2013-08-25T09:18:04.000Z</time>
      </trkpt>
      <trkpt lat="45.55129" lon="6.08078">
        <ele>1031</ele>
        <time>2013-08-25T09:18:05.000Z</time>
      </trkpt>
      <trkpt lat="45.55133" lon="6.08088">
        <ele>1034</ele>
        <time>2013-08-25T09:18:10.000Z</time>
      </trkpt>
      <trkpt lat="45.55136" lon="6.08093">
        <ele>1034.5999755859</ele>
        <time>2013-08-25T09:18:13.000Z</time>
      </trkpt>
      <trkpt lat="45.55139" lon="6.08097">
        <ele>1035.8000488281</ele>
        <time>2013-08-25T09:18:16.000Z</time>
      </trkpt>
      <trkpt lat="45.5514" lon="6.08099">
        <ele>1036.1999511719</ele>
        <time>2013-08-25T09:18:17.000Z</time>
      </trkpt>
      <trkpt lat="45.55142" lon="6.08101">
        <ele>1037.4000244141</ele>
        <time>2013-08-25T09:18:20.000Z</time>
      </trkpt>
      <trkpt lat="45.55146" lon="6.08106">
        <ele>1038.8000488281</ele>
        <time>2013-08-25T09:18:25.000Z</time>
      </trkpt>
      <trkpt lat="45.55147" lon="6.08107">
        <ele>1038.8000488281</ele>
        <time>2013-08-25T09:18:26.000Z</time>
      </trkpt>
      <trkpt lat="45.55155" lon="6.08116">
        <ele>1042.4000244141</ele>
        <time>2013-08-25T09:18:34.000Z</time>
      </trkpt>
      <trkpt lat="45.55158" lon="6.08119">
        <ele>1043.5999755859</ele>
        <time>2013-08-25T09:18:37.000Z</time>
      </trkpt>
      <trkpt lat="45.55161" lon="6.0813">
        <ele>1043.1999511719</ele>
        <time>2013-08-25T09:18:42.000Z</time>
      </trkpt>
      <trkpt lat="45.55162" lon="6.08135">
        <ele>1042.4000244141</ele>
        <time>2013-08-25T09:18:44.000Z</time>
      </trkpt>
      <trkpt lat="45.5516" lon="6.08144">
        <ele>1040.1999511719</ele>
        <time>2013-08-25T09:18:48.000Z</time>
      </trkpt>
      <trkpt lat="45.5516" lon="6.08151">
        <ele>1038.8000488281</ele>
        <time>2013-08-25T09:18:52.000Z</time>
      </trkpt>
      <trkpt lat="45.55164" lon="6.08168">
        <ele>1037</ele>
        <time>2013-08-25T09:19:05.000Z</time>
      </trkpt>
      <trkpt lat="45.55166" lon="6.0817">
        <ele>1037.5999755859</ele>
        <time>2013-08-25T09:19:07.000Z</time>
      </trkpt>
      <trkpt lat="45.5517" lon="6.08172">
        <ele>1038</ele>
        <time>2013-08-25T09:19:10.000Z</time>
      </trkpt>
      <trkpt lat="45.55175" lon="6.08175">
        <ele>1039</ele>
        <time>2013-08-25T09:19:14.000Z</time>
      </trkpt>
      <trkpt lat="45.5518" lon="6.08176">
        <ele>1040.4000244141</ele>
        <time>2013-08-25T09:19:19.000Z</time>
      </trkpt>
      <trkpt lat="45.55189" lon="6.08176">
        <ele>1044.4000244141</ele>
        <time>2013-08-25T09:19:27.000Z</time>
      </trkpt>
      <trkpt lat="45.5519" lon="6.08176">
        <ele>1045</ele>
        <time>2013-08-25T09:19:28.000Z</time>
      </trkpt>
      <trkpt lat="45.55194" lon="6.08173">
        <ele>1047.8000488281</ele>
        <time>2013-08-25T09:19:32.000Z</time>
      </trkpt>
      <trkpt lat="45.55195" lon="6.08172">
        <ele>1048.5999755859</ele>
        <time>2013-08-25T09:19:33.000Z</time>
      </trkpt>
      <trkpt lat="45.55197" lon="6.0817">
        <ele>1050.8000488281</ele>
        <time>2013-08-25T09:19:36.000Z</time>
      </trkpt>
      <trkpt lat="45.55198" lon="6.0817">
        <ele>1051.1999511719</ele>
        <time>2013-08-25T09:19:37.000Z</time>
      </trkpt>
      <trkpt lat="45.55199" lon="6.08169">
        <ele>1051.8000488281</ele>
        <time>2013-08-25T09:19:41.000Z</time>
      </trkpt>
      <trkpt lat="45.55199" lon="6.08169">
        <ele>1051.8000488281</ele>
        <time>2013-08-25T09:19:42.000Z</time>
      </trkpt>
      <trkpt lat="45.552" lon="6.08171">
        <ele>1051.1999511719</ele>
        <time>2013-08-25T09:19:45.000Z</time>
      </trkpt>
      <trkpt lat="45.55202" lon="6.08176">
        <ele>1050.4000244141</ele>
        <time>2013-08-25T09:20:05.000Z</time>
      </trkpt>
      <trkpt lat="45.55206" lon="6.08179">
        <ele>1050.4000244141</ele>
        <time>2013-08-25T09:20:27.000Z</time>
      </trkpt>
      <trkpt lat="45.55207" lon="6.08181">
        <ele>1050.1999511719</ele>
        <time>2013-08-25T09:20:30.000Z</time>
      </trkpt>
      <trkpt lat="45.55207" lon="6.08181">
        <ele>1050</ele>
        <time>2013-08-25T09:20:31.000Z</time>
      </trkpt>
      <trkpt lat="45.55208" lon="6.08183">
        <ele>1049.5999755859</ele>
        <time>2013-08-25T09:20:33.000Z</time>
      </trkpt>
      <trkpt lat="45.55209" lon="6.08185">
        <ele>1049.1999511719</ele>
        <time>2013-08-25T09:20:34.000Z</time>
      </trkpt>
      <trkpt lat="45.55213" lon="6.08191">
        <ele>1048.1999511719</ele>
        <time>2013-08-25T09:20:38.000Z</time>
      </trkpt>
      <trkpt lat="45.5522" lon="6.08205">
        <ele>1045.1999511719</ele>
        <time>2013-08-25T09:20:44.000Z</time>
      </trkpt>
      <trkpt lat="45.55229" lon="6.08219">
        <ele>1043</ele>
        <time>2013-08-25T09:20:49.000Z</time>
      </trkpt>
      <trkpt lat="45.55235" lon="6.08226">
        <ele>1041.8000488281</ele>
        <time>2013-08-25T09:20:52.000Z</time>
      </trkpt>
      <trkpt lat="45.55243" lon="6.08247">
        <ele>1036.1999511719</ele>
        <time>2013-08-25T09:20:58.000Z</time>
      </trkpt>
      <trkpt lat="45.55244" lon="6.08256">
        <ele>1033.5999755859</ele>
        <time>2013-08-25T09:21:00.000Z</time>
      </trkpt>
      <trkpt lat="45.55245" lon="6.08261">
        <ele>1032.8000488281</ele>
        <time>2013-08-25T09:21:02.000Z</time>
      </trkpt>
      <trkpt lat="45.55247" lon="6.08266">
        <ele>1032.4000244141</ele>
        <time>2013-08-25T09:21:04.000Z</time>
      </trkpt>
      <trkpt lat="45.55253" lon="6.08272">
        <ele>1033</ele>
        <time>2013-08-25T09:21:08.000Z</time>
      </trkpt>
      <trkpt lat="45.55269" lon="6.08283">
        <ele>1036</ele>
        <time>2013-08-25T09:21:17.000Z</time>
      </trkpt>
      <trkpt lat="45.5527" lon="6.08284">
        <ele>1035.8000488281</ele>
        <time>2013-08-25T09:21:18.000Z</time>
      </trkpt>
      <trkpt lat="45.55271" lon="6.08294">
        <ele>1033.8000488281</ele>
        <time>2013-08-25T09:21:23.000Z</time>
      </trkpt>
      <trkpt lat="45.55272" lon="6.08296">
        <ele>1033.5999755859</ele>
        <time>2013-08-25T09:21:24.000Z</time>
      </trkpt>
      <trkpt lat="45.55285" lon="6.08306">
        <ele>1035.5999755859</ele>
        <time>2013-08-25T09:21:32.000Z</time>
      </trkpt>
      <trkpt lat="45.55315" lon="6.08314">
        <ele>1045.5999755859</ele>
        <time>2013-08-25T09:21:48.000Z</time>
      </trkpt>
      <trkpt lat="45.55315" lon="6.08317">
        <ele>1044.8000488281</ele>
        <time>2013-08-25T09:22:02.000Z</time>
      </trkpt>
      <trkpt lat="45.55315" lon="6.08317">
        <ele>1044.8000488281</ele>
        <time>2013-08-25T09:22:03.000Z</time>
      </trkpt>
      <trkpt lat="45.55314" lon="6.08316">
        <ele>1044.4000244141</ele>
        <time>2013-08-25T09:22:12.000Z</time>
      </trkpt>
      <trkpt lat="45.55313" lon="6.08315">
        <ele>1044.1999511719</ele>
        <time>2013-08-25T09:22:13.000Z</time>
      </trkpt>
      <trkpt lat="45.55311" lon="6.08315">
        <ele>1043.4000244141</ele>
        <time>2013-08-25T09:22:15.000Z</time>
      </trkpt>
      <trkpt lat="45.55309" lon="6.08315">
        <ele>1042.5999755859</ele>
        <time>2013-08-25T09:22:17.000Z</time>
      </trkpt>
      <trkpt lat="45.55301" lon="6.08322">
        <ele>1038</ele>
        <time>2013-08-25T09:22:22.000Z</time>
      </trkpt>
      <trkpt lat="45.55293" lon="6.08337">
        <ele>1032.8000488281</ele>
        <time>2013-08-25T09:22:34.000Z</time>
      </trkpt>
      <trkpt lat="45.5529" lon="6.08345">
        <ele>1032.5999755859</ele>
        <time>2013-08-25T09:22:39.000Z</time>
      </trkpt>
      <trkpt lat="45.55289" lon="6.08346">
        <ele>1032.4000244141</ele>
        <time>2013-08-25T09:22:40.000Z</time>
      </trkpt>
      <trkpt lat="45.55285" lon="6.08348">
        <ele>1031.1999511719</ele>
        <time>2013-08-25T09:22:43.000Z</time>
      </trkpt>
      <trkpt lat="45.55284" lon="6.08349">
        <ele>1030.5999755859</ele>
        <time>2013-08-25T09:22:44.000Z</time>
      </trkpt>
      <trkpt lat="45.55282" lon="6.0835">
        <ele>1030.1999511719</ele>
        <time>2013-08-25T09:22:45.000Z</time>
      </trkpt>
      <trkpt lat="45.55281" lon="6.08351">
        <ele>1029.5999755859</ele>
        <time>2013-08-25T09:22:46.000Z</time>
      </trkpt>
      <trkpt lat="45.55275" lon="6.08355">
        <ele>1027.8000488281</ele>
        <time>2013-08-25T09:22:50.000Z</time>
      </trkpt>
      <trkpt lat="45.55273" lon="6.08356">
        <ele>1027.4000244141</ele>
        <time>2013-08-25T09:22:51.000Z</time>
      </trkpt>
      <trkpt lat="45.55253" lon="6.08386">
        <ele>1022.799987793</ele>
        <time>2013-08-25T09:23:03.000Z</time>
      </trkpt>
      <trkpt lat="45.55247" lon="6.08397">
        <ele>1020.5999755859</ele>
        <time>2013-08-25T09:23:06.000Z</time>
      </trkpt>
      <trkpt lat="45.55245" lon="6.08399">
        <ele>1020</ele>
        <time>2013-08-25T09:23:07.000Z</time>
      </trkpt>
      <trkpt lat="45.55244" lon="6.08401">
        <ele>1019.5999755859</ele>
        <time>2013-08-25T09:23:08.000Z</time>
      </trkpt>
      <trkpt lat="45.55243" lon="6.08403">
        <ele>1019.200012207</ele>
        <time>2013-08-25T09:23:09.000Z</time>
      </trkpt>
      <trkpt lat="45.55242" lon="6.08404">
        <ele>1019</ele>
        <time>2013-08-25T09:23:10.000Z</time>
      </trkpt>
      <trkpt lat="45.55242" lon="6.08406">
        <ele>1018.799987793</ele>
        <time>2013-08-25T09:23:11.000Z</time>
      </trkpt>
      <trkpt lat="45.55241" lon="6.08407">
        <ele>1018.799987793</ele>
        <time>2013-08-25T09:23:12.000Z</time>
      </trkpt>
      <trkpt lat="45.5524" lon="6.08412">
        <ele>1018.799987793</ele>
        <time>2013-08-25T09:23:15.000Z</time>
      </trkpt>
      <trkpt lat="45.5524" lon="6.08413">
        <ele>1018.5999755859</ele>
        <time>2013-08-25T09:23:16.000Z</time>
      </trkpt>
      <trkpt lat="45.5524" lon="6.08414">
        <ele>1018.5999755859</ele>
        <time>2013-08-25T09:23:17.000Z</time>
      </trkpt>
      <trkpt lat="45.55239" lon="6.08418">
        <ele>1018.5999755859</ele>
        <time>2013-08-25T09:23:20.000Z</time>
      </trkpt>
      <trkpt lat="45.55238" lon="6.08419">
        <ele>1018.5999755859</ele>
        <time>2013-08-25T09:23:21.000Z</time>
      </trkpt>
      <trkpt lat="45.55237" lon="6.08421">
        <ele>1018.5999755859</ele>
        <time>2013-08-25T09:23:22.000Z</time>
      </trkpt>
      <trkpt lat="45.55237" lon="6.08425">
        <ele>1019.200012207</ele>
        <time>2013-08-25T09:23:24.000Z</time>
      </trkpt>
      <trkpt lat="45.55237" lon="6.08427">
        <ele>1019.5999755859</ele>
        <time>2013-08-25T09:23:25.000Z</time>
      </trkpt>
      <trkpt lat="45.55237" lon="6.08429">
        <ele>1020.200012207</ele>
        <time>2013-08-25T09:23:26.000Z</time>
      </trkpt>
      <trkpt lat="45.55238" lon="6.08431">
        <ele>1020.799987793</ele>
        <time>2013-08-25T09:23:27.000Z</time>
      </trkpt>
      <trkpt lat="45.55243" lon="6.08444">
        <ele>1026.1999511719</ele>
        <time>2013-08-25T09:23:39.000Z</time>
      </trkpt>
      <trkpt lat="45.55243" lon="6.08444">
        <ele>1026.1999511719</ele>
        <time>2013-08-25T09:23:40.000Z</time>
      </trkpt>
      <trkpt lat="45.55246" lon="6.08447">
        <ele>1028.5999755859</ele>
        <time>2013-08-25T09:23:42.000Z</time>
      </trkpt>
      <trkpt lat="45.55256" lon="6.08462">
        <ele>1036.5999755859</ele>
        <time>2013-08-25T09:23:52.000Z</time>
      </trkpt>
      <trkpt lat="45.55268" lon="6.08468">
        <ele>1043.8000488281</ele>
        <time>2013-08-25T09:24:13.000Z</time>
      </trkpt>
      <trkpt lat="45.55269" lon="6.08483">
        <ele>1047</ele>
        <time>2013-08-25T09:24:35.000Z</time>
      </trkpt>
      <trkpt lat="45.55274" lon="6.08499">
        <ele>1052.8000488281</ele>
        <time>2013-08-25T09:24:52.000Z</time>
      </trkpt>
      <trkpt lat="45.55277" lon="6.08502">
        <ele>1055.1999511719</ele>
        <time>2013-08-25T09:24:57.000Z</time>
      </trkpt>
      <trkpt lat="45.5528" lon="6.08511">
        <ele>1059.5999755859</ele>
        <time>2013-08-25T09:25:08.000Z</time>
      </trkpt>
      <trkpt lat="45.55281" lon="6.08512">
        <ele>1059.8000488281</ele>
        <time>2013-08-25T09:25:09.000Z</time>
      </trkpt>
      <trkpt lat="45.5527" lon="6.08525">
        <ele>1059.1999511719</ele>
        <time>2013-08-25T09:25:30.000Z</time>
      </trkpt>
      <trkpt lat="45.55263" lon="6.08529">
        <ele>1057</ele>
        <time>2013-08-25T09:25:48.000Z</time>
      </trkpt>
      <trkpt lat="45.55252" lon="6.08539">
        <ele>1055.5999755859</ele>
        <time>2013-08-25T09:26:06.000Z</time>
      </trkpt>
      <trkpt lat="45.55249" lon="6.08545">
        <ele>1056</ele>
        <time>2013-08-25T09:26:09.000Z</time>
      </trkpt>
      <trkpt lat="45.55249" lon="6.08546">
        <ele>1056.5999755859</ele>
        <time>2013-08-25T09:26:10.000Z</time>
      </trkpt>
      <trkpt lat="45.5525" lon="6.0855">
        <ele>1058</ele>
        <time>2013-08-25T09:26:12.000Z</time>
      </trkpt>
      <trkpt lat="45.5525" lon="6.08554">
        <ele>1059.5999755859</ele>
        <time>2013-08-25T09:26:14.000Z</time>
      </trkpt>
      <trkpt lat="45.5525" lon="6.08555">
        <ele>1060.1999511719</ele>
        <time>2013-08-25T09:26:15.000Z</time>
      </trkpt>
      <trkpt lat="45.5525" lon="6.08557">
        <ele>1060.8000488281</ele>
        <time>2013-08-25T09:26:16.000Z</time>
      </trkpt>
      <trkpt lat="45.5525" lon="6.08559">
        <ele>1061.4000244141</ele>
        <time>2013-08-25T09:26:17.000Z</time>
      </trkpt>
      <trkpt lat="45.5525" lon="6.08563">
        <ele>1062.8000488281</ele>
        <time>2013-08-25T09:26:19.000Z</time>
      </trkpt>
      <trkpt lat="45.5525" lon="6.08564">
        <ele>1063.4000244141</ele>
        <time>2013-08-25T09:26:20.000Z</time>
      </trkpt>
      <trkpt lat="45.55249" lon="6.08566">
        <ele>1063.5999755859</ele>
        <time>2013-08-25T09:26:21.000Z</time>
      </trkpt>
      <trkpt lat="45.55249" lon="6.08567">
        <ele>1063.5999755859</ele>
        <time>2013-08-25T09:26:22.000Z</time>
      </trkpt>
      <trkpt lat="45.55248" lon="6.08568">
        <ele>1063.5999755859</ele>
        <time>2013-08-25T09:26:23.000Z</time>
      </trkpt>
      <trkpt lat="45.55248" lon="6.0857">
        <ele>1064.4000244141</ele>
        <time>2013-08-25T09:26:25.000Z</time>
      </trkpt>
      <trkpt lat="45.55234" lon="6.08593">
        <ele>1065.8000488281</ele>
        <time>2013-08-25T09:26:37.000Z</time>
      </trkpt>
      <trkpt lat="45.55234" lon="6.08593">
        <ele>1065.8000488281</ele>
        <time>2013-08-25T09:26:38.000Z</time>
      </trkpt>
      <trkpt lat="45.55228" lon="6.08592">
        <ele>1063.1999511719</ele>
        <time>2013-08-25T09:26:57.000Z</time>
      </trkpt>
      <trkpt lat="45.55222" lon="6.08589">
        <ele>1059.5999755859</ele>
        <time>2013-08-25T09:27:06.000Z</time>
      </trkpt>
      <trkpt lat="45.55219" lon="6.0859">
        <ele>1058.8000488281</ele>
        <time>2013-08-25T09:27:09.000Z</time>
      </trkpt>
      <trkpt lat="45.55218" lon="6.08591">
        <ele>1058.8000488281</ele>
        <time>2013-08-25T09:27:10.000Z</time>
      </trkpt>
      <trkpt lat="45.55218" lon="6.08593">
        <ele>1059.1999511719</ele>
        <time>2013-08-25T09:27:12.000Z</time>
      </trkpt>
      <trkpt lat="45.55217" lon="6.08598">
        <ele>1060</ele>
        <time>2013-08-25T09:27:14.000Z</time>
      </trkpt>
      <trkpt lat="45.55216" lon="6.08611">
        <ele>1063.4000244141</ele>
        <time>2013-08-25T09:27:22.000Z</time>
      </trkpt>
      <trkpt lat="45.55216" lon="6.08612">
        <ele>1063.5999755859</ele>
        <time>2013-08-25T09:27:24.000Z</time>
      </trkpt>
      <trkpt lat="45.55216" lon="6.08613">
        <ele>1063.8000488281</ele>
        <time>2013-08-25T09:27:25.000Z</time>
      </trkpt>
      <trkpt lat="45.55216" lon="6.08613">
        <ele>1063.8000488281</ele>
        <time>2013-08-25T09:27:26.000Z</time>
      </trkpt>
      <trkpt lat="45.55216" lon="6.08613">
        <ele>1063.8000488281</ele>
        <time>2013-08-25T09:27:27.000Z</time>
      </trkpt>
      <trkpt lat="45.55216" lon="6.08613">
        <ele>1064</ele>
        <time>2013-08-25T09:27:29.000Z</time>
      </trkpt>
      <trkpt lat="45.55216" lon="6.08613">
        <ele>1064</ele>
        <time>2013-08-25T09:27:30.000Z</time>
      </trkpt>
      <trkpt lat="45.55218" lon="6.08601">
        <ele>1061.4000244141</ele>
        <time>2013-08-25T09:27:36.000Z</time>
      </trkpt>
      <trkpt lat="45.55219" lon="6.08597">
        <ele>1060.4000244141</ele>
        <time>2013-08-25T09:27:38.000Z</time>
      </trkpt>
      <trkpt lat="45.55219" lon="6.08594">
        <ele>1059.5999755859</ele>
        <time>2013-08-25T09:27:39.000Z</time>
      </trkpt>
      <trkpt lat="45.55219" lon="6.08591">
        <ele>1058.8000488281</ele>
        <time>2013-08-25T09:27:40.000Z</time>
      </trkpt>
      <trkpt lat="45.55219" lon="6.08587">
        <ele>1057.5999755859</ele>
        <time>2013-08-25T09:27:42.000Z</time>
      </trkpt>
      <trkpt lat="45.55218" lon="6.08585">
        <ele>1057</ele>
        <time>2013-08-25T09:27:43.000Z</time>
      </trkpt>
      <trkpt lat="45.55217" lon="6.08582">
        <ele>1055.4000244141</ele>
        <time>2013-08-25T09:27:46.000Z</time>
      </trkpt>
      <trkpt lat="45.55213" lon="6.08582">
        <ele>1054</ele>
        <time>2013-08-25T09:27:50.000Z</time>
      </trkpt>
      <trkpt lat="45.55209" lon="6.08582">
        <ele>1052.4000244141</ele>
        <time>2013-08-25T09:27:52.000Z</time>
      </trkpt>
      <trkpt lat="45.55207" lon="6.08583">
        <ele>1051.5999755859</ele>
        <time>2013-08-25T09:27:53.000Z</time>
      </trkpt>
      <trkpt lat="45.55188" lon="6.08594">
        <ele>1047.1999511719</ele>
        <time>2013-08-25T09:27:59.000Z</time>
      </trkpt>
      <trkpt lat="45.55185" lon="6.08596">
        <ele>1046.5999755859</ele>
        <time>2013-08-25T09:28:00.000Z</time>
      </trkpt>
      <trkpt lat="45.55182" lon="6.08598">
        <ele>1046.1999511719</ele>
        <time>2013-08-25T09:28:01.000Z</time>
      </trkpt>
      <trkpt lat="45.55179" lon="6.08601">
        <ele>1045.8000488281</ele>
        <time>2013-08-25T09:28:02.000Z</time>
      </trkpt>
      <trkpt lat="45.55161" lon="6.08613">
        <ele>1043.4000244141</ele>
        <time>2013-08-25T09:28:07.000Z</time>
      </trkpt>
      <trkpt lat="45.55147" lon="6.08621">
        <ele>1042.8000488281</ele>
        <time>2013-08-25T09:28:10.000Z</time>
      </trkpt>
      <trkpt lat="45.55143" lon="6.08623">
        <ele>1042.4000244141</ele>
        <time>2013-08-25T09:28:11.000Z</time>
      </trkpt>
      <trkpt lat="45.55132" lon="6.08627">
        <ele>1041.1999511719</ele>
        <time>2013-08-25T09:28:15.000Z</time>
      </trkpt>
      <trkpt lat="45.55123" lon="6.08631">
        <ele>1040.8000488281</ele>
        <time>2013-08-25T09:28:19.000Z</time>
      </trkpt>
      <trkpt lat="45.55121" lon="6.08632">
        <ele>1040.5999755859</ele>
        <time>2013-08-25T09:28:20.000Z</time>
      </trkpt>
      <trkpt lat="45.55119" lon="6.08633">
        <ele>1040.4000244141</ele>
        <time>2013-08-25T09:28:21.000Z</time>
      </trkpt>
      <trkpt lat="45.55117" lon="6.08634">
        <ele>1040.4000244141</ele>
        <time>2013-08-25T09:28:22.000Z</time>
      </trkpt>
      <trkpt lat="45.55108" lon="6.0864">
        <ele>1040.4000244141</ele>
        <time>2013-08-25T09:28:27.000Z</time>
      </trkpt>
      <trkpt lat="45.55106" lon="6.08643">
        <ele>1041</ele>
        <time>2013-08-25T09:28:28.000Z</time>
      </trkpt>
      <trkpt lat="45.55104" lon="6.08645">
        <ele>1041.1999511719</ele>
        <time>2013-08-25T09:28:29.000Z</time>
      </trkpt>
      <trkpt lat="45.55086" lon="6.08674">
        <ele>1048.8000488281</ele>
        <time>2013-08-25T09:28:36.000Z</time>
      </trkpt>
      <trkpt lat="45.55079" lon="6.08684">
        <ele>1050.8000488281</ele>
        <time>2013-08-25T09:28:40.000Z</time>
      </trkpt>
      <trkpt lat="45.55077" lon="6.08686">
        <ele>1051.1999511719</ele>
        <time>2013-08-25T09:28:41.000Z</time>
      </trkpt>
      <trkpt lat="45.55072" lon="6.08687">
        <ele>1050.5999755859</ele>
        <time>2013-08-25T09:28:43.000Z</time>
      </trkpt>
      <trkpt lat="45.5507" lon="6.08688">
        <ele>1050.1999511719</ele>
        <time>2013-08-25T09:28:44.000Z</time>
      </trkpt>
      <trkpt lat="45.55069" lon="6.08689">
        <ele>1050.1999511719</ele>
        <time>2013-08-25T09:28:45.000Z</time>
      </trkpt>
      <trkpt lat="45.55067" lon="6.0869">
        <ele>1050</ele>
        <time>2013-08-25T09:28:46.000Z</time>
      </trkpt>
      <trkpt lat="45.55067" lon="6.0869">
        <ele>1050</ele>
        <time>2013-08-25T09:28:47.000Z</time>
      </trkpt>
      <trkpt lat="45.55067" lon="6.0869">
        <ele>1050</ele>
        <time>2013-08-25T09:28:48.000Z</time>
      </trkpt>
      <trkpt lat="45.55066" lon="6.08691">
        <ele>1050.4000244141</ele>
        <time>2013-08-25T09:28:50.000Z</time>
      </trkpt>
      <trkpt lat="45.55065" lon="6.08692">
        <ele>1050.4000244141</ele>
        <time>2013-08-25T09:28:51.000Z</time>
      </trkpt>
      <trkpt lat="45.55063" lon="6.08693">
        <ele>1050.5999755859</ele>
        <time>2013-08-25T09:28:52.000Z</time>
      </trkpt>
      <trkpt lat="45.55062" lon="6.08695">
        <ele>1050.8000488281</ele>
        <time>2013-08-25T09:28:53.000Z</time>
      </trkpt>
      <trkpt lat="45.55059" lon="6.08699">
        <ele>1051.8000488281</ele>
        <time>2013-08-25T09:28:55.000Z</time>
      </trkpt>
      <trkpt lat="45.55058" lon="6.08701">
        <ele>1052.4000244141</ele>
        <time>2013-08-25T09:28:56.000Z</time>
      </trkpt>
      <trkpt lat="45.55053" lon="6.08714">
        <ele>1056.4000244141</ele>
        <time>2013-08-25T09:28:59.000Z</time>
      </trkpt>
      <trkpt lat="45.55052" lon="6.08718">
        <ele>1057.8000488281</ele>
        <time>2013-08-25T09:29:00.000Z</time>
      </trkpt>
      <trkpt lat="45.55051" lon="6.08721">
        <ele>1059</ele>
        <time>2013-08-25T09:29:01.000Z</time>
      </trkpt>
      <trkpt lat="45.5505" lon="6.08725">
        <ele>1060</ele>
        <time>2013-08-25T09:29:02.000Z</time>
      </trkpt>
      <trkpt lat="45.55047" lon="6.08731">
        <ele>1061.8000488281</ele>
        <time>2013-08-25T09:29:04.000Z</time>
      </trkpt>
      <trkpt lat="45.55045" lon="6.08734">
        <ele>1062.5999755859</ele>
        <time>2013-08-25T09:29:05.000Z</time>
      </trkpt>
      <trkpt lat="45.55037" lon="6.08748">
        <ele>1066</ele>
        <time>2013-08-25T09:29:09.000Z</time>
      </trkpt>
      <trkpt lat="45.55033" lon="6.08753">
        <ele>1067.1999511719</ele>
        <time>2013-08-25T09:29:11.000Z</time>
      </trkpt>
      <trkpt lat="45.55031" lon="6.08756">
        <ele>1067.5999755859</ele>
        <time>2013-08-25T09:29:12.000Z</time>
      </trkpt>
      <trkpt lat="45.55029" lon="6.08759">
        <ele>1068</ele>
        <time>2013-08-25T09:29:13.000Z</time>
      </trkpt>
      <trkpt lat="45.55026" lon="6.08765">
        <ele>1069</ele>
        <time>2013-08-25T09:29:15.000Z</time>
      </trkpt>
      <trkpt lat="45.55021" lon="6.08774">
        <ele>1070.5999755859</ele>
        <time>2013-08-25T09:29:20.000Z</time>
      </trkpt>
      <trkpt lat="45.55021" lon="6.08775">
        <ele>1070.8000488281</ele>
        <time>2013-08-25T09:29:21.000Z</time>
      </trkpt>
      <trkpt lat="45.55019" lon="6.08779">
        <ele>1071.4000244141</ele>
        <time>2013-08-25T09:29:22.000Z</time>
      </trkpt>
      <trkpt lat="45.55017" lon="6.08782">
        <ele>1072</ele>
        <time>2013-08-25T09:29:23.000Z</time>
      </trkpt>
      <trkpt lat="45.55014" lon="6.08788">
        <ele>1073</ele>
        <time>2013-08-25T09:29:25.000Z</time>
      </trkpt>
      <trkpt lat="45.55003" lon="6.08802">
        <ele>1073.8000488281</ele>
        <time>2013-08-25T09:29:32.000Z</time>
      </trkpt>
      <trkpt lat="45.55002" lon="6.08803">
        <ele>1074</ele>
        <time>2013-08-25T09:29:33.000Z</time>
      </trkpt>
      <trkpt lat="45.55" lon="6.08804">
        <ele>1074</ele>
        <time>2013-08-25T09:29:34.000Z</time>
      </trkpt>
      <trkpt lat="45.54999" lon="6.08806">
        <ele>1073.8000488281</ele>
        <time>2013-08-25T09:29:35.000Z</time>
      </trkpt>
      <trkpt lat="45.54996" lon="6.08809">
        <ele>1073.4000244141</ele>
        <time>2013-08-25T09:29:37.000Z</time>
      </trkpt>
      <trkpt lat="45.54993" lon="6.08812">
        <ele>1072.8000488281</ele>
        <time>2013-08-25T09:29:39.000Z</time>
      </trkpt>
      <trkpt lat="45.54991" lon="6.08814">
        <ele>1072.5999755859</ele>
        <time>2013-08-25T09:29:40.000Z</time>
      </trkpt>
      <trkpt lat="45.5499" lon="6.08815">
        <ele>1072.4000244141</ele>
        <time>2013-08-25T09:29:41.000Z</time>
      </trkpt>
      <trkpt lat="45.54989" lon="6.08817">
        <ele>1072.1999511719</ele>
        <time>2013-08-25T09:29:42.000Z</time>
      </trkpt>
      <trkpt lat="45.54984" lon="6.08834">
        <ele>1075.1999511719</ele>
        <time>2013-08-25T09:29:50.000Z</time>
      </trkpt>
      <trkpt lat="45.54979" lon="6.0884">
        <ele>1075.1999511719</ele>
        <time>2013-08-25T09:29:53.000Z</time>
      </trkpt>
      <trkpt lat="45.54975" lon="6.08843">
        <ele>1074.4000244141</ele>
        <time>2013-08-25T09:29:56.000Z</time>
      </trkpt>
      <trkpt lat="45.54972" lon="6.08849">
        <ele>1075</ele>
        <time>2013-08-25T09:30:01.000Z</time>
      </trkpt>
      <trkpt lat="45.54971" lon="6.0885">
        <ele>1075.4000244141</ele>
        <time>2013-08-25T09:30:02.000Z</time>
      </trkpt>
      <trkpt lat="45.5497" lon="6.08852">
        <ele>1075.5999755859</ele>
        <time>2013-08-25T09:30:03.000Z</time>
      </trkpt>
      <trkpt lat="45.54969" lon="6.08854">
        <ele>1076</ele>
        <time>2013-08-25T09:30:04.000Z</time>
      </trkpt>
      <trkpt lat="45.54968" lon="6.08856">
        <ele>1076.4000244141</ele>
        <time>2013-08-25T09:30:05.000Z</time>
      </trkpt>
      <trkpt lat="45.54964" lon="6.08865">
        <ele>1077.8000488281</ele>
        <time>2013-08-25T09:30:09.000Z</time>
      </trkpt>
      <trkpt lat="45.54958" lon="6.08877">
        <ele>1079.8000488281</ele>
        <time>2013-08-25T09:30:13.000Z</time>
      </trkpt>
      <trkpt lat="45.54956" lon="6.0888">
        <ele>1080.1999511719</ele>
        <time>2013-08-25T09:30:14.000Z</time>
      </trkpt>
      <trkpt lat="45.54955" lon="6.08883">
        <ele>1080.8000488281</ele>
        <time>2013-08-25T09:30:15.000Z</time>
      </trkpt>
      <trkpt lat="45.54952" lon="6.08891">
        <ele>1082.5999755859</ele>
        <time>2013-08-25T09:30:18.000Z</time>
      </trkpt>
      <trkpt lat="45.5495" lon="6.08896">
        <ele>1083.1999511719</ele>
        <time>2013-08-25T09:30:20.000Z</time>
      </trkpt>
      <trkpt lat="45.54947" lon="6.08899">
        <ele>1083</ele>
        <time>2013-08-25T09:30:22.000Z</time>
      </trkpt>
      <trkpt lat="45.54944" lon="6.08903">
        <ele>1083</ele>
        <time>2013-08-25T09:30:24.000Z</time>
      </trkpt>
      <trkpt lat="45.54942" lon="6.08905">
        <ele>1083.1999511719</ele>
        <time>2013-08-25T09:30:25.000Z</time>
      </trkpt>
      <trkpt lat="45.54941" lon="6.08907">
        <ele>1083.1999511719</ele>
        <time>2013-08-25T09:30:26.000Z</time>
      </trkpt>
      <trkpt lat="45.5494" lon="6.08909">
        <ele>1083.1999511719</ele>
        <time>2013-08-25T09:30:27.000Z</time>
      </trkpt>
      <trkpt lat="45.54923" lon="6.08925">
        <ele>1082.5999755859</ele>
        <time>2013-08-25T09:30:35.000Z</time>
      </trkpt>
      <trkpt lat="45.54921" lon="6.08929">
        <ele>1083.1999511719</ele>
        <time>2013-08-25T09:30:36.000Z</time>
      </trkpt>
      <trkpt lat="45.54918" lon="6.08933">
        <ele>1084.1999511719</ele>
        <time>2013-08-25T09:30:38.000Z</time>
      </trkpt>
      <trkpt lat="45.54917" lon="6.08936">
        <ele>1085</ele>
        <time>2013-08-25T09:30:39.000Z</time>
      </trkpt>
      <trkpt lat="45.54916" lon="6.08938">
        <ele>1085.4000244141</ele>
        <time>2013-08-25T09:30:40.000Z</time>
      </trkpt>
      <trkpt lat="45.54912" lon="6.08948">
        <ele>1088.1999511719</ele>
        <time>2013-08-25T09:30:44.000Z</time>
      </trkpt>
      <trkpt lat="45.54885" lon="6.08991">
        <ele>1089.5999755859</ele>
        <time>2013-08-25T09:31:01.000Z</time>
      </trkpt>
      <trkpt lat="45.5488" lon="6.08993">
        <ele>1087.5999755859</ele>
        <time>2013-08-25T09:31:21.000Z</time>
      </trkpt>
      <trkpt lat="45.54859" lon="6.09017">
        <ele>1081</ele>
        <time>2013-08-25T09:31:40.000Z</time>
      </trkpt>
      <trkpt lat="45.54856" lon="6.09019">
        <ele>1079.1999511719</ele>
        <time>2013-08-25T09:31:51.000Z</time>
      </trkpt>
      <trkpt lat="45.54855" lon="6.09019">
        <ele>1078.4000244141</ele>
        <time>2013-08-25T09:31:52.000Z</time>
      </trkpt>
      <trkpt lat="45.54845" lon="6.09028">
        <ele>1073.5999755859</ele>
        <time>2013-08-25T09:32:10.000Z</time>
      </trkpt>
      <trkpt lat="45.54837" lon="6.0905">
        <ele>1074.4000244141</ele>
        <time>2013-08-25T09:32:28.000Z</time>
      </trkpt>
      <trkpt lat="45.54824" lon="6.09055">
        <ele>1066.8000488281</ele>
        <time>2013-08-25T09:32:48.000Z</time>
      </trkpt>
      <trkpt lat="45.54819" lon="6.09083">
        <ele>1071.8000488281</ele>
        <time>2013-08-25T09:33:12.000Z</time>
      </trkpt>
      <trkpt lat="45.54819" lon="6.09086">
        <ele>1072</ele>
        <time>2013-08-25T09:33:22.000Z</time>
      </trkpt>
      <trkpt lat="45.54818" lon="6.0909">
        <ele>1071.5999755859</ele>
        <time>2013-08-25T09:33:26.000Z</time>
      </trkpt>
      <trkpt lat="45.54818" lon="6.09091">
        <ele>1071.5999755859</ele>
        <time>2013-08-25T09:33:28.000Z</time>
      </trkpt>
      <trkpt lat="45.54826" lon="6.09109">
        <ele>1076.8000488281</ele>
        <time>2013-08-25T09:33:48.000Z</time>
      </trkpt>
      <trkpt lat="45.54822" lon="6.09118">
        <ele>1074.8000488281</ele>
        <time>2013-08-25T09:34:00.000Z</time>
      </trkpt>
      <trkpt lat="45.54819" lon="6.09122">
        <ele>1073.1999511719</ele>
        <time>2013-08-25T09:34:03.000Z</time>
      </trkpt>
      <trkpt lat="45.54812" lon="6.09143">
        <ele>1071.4000244141</ele>
        <time>2013-08-25T09:34:11.000Z</time>
      </trkpt>
      <trkpt lat="45.54805" lon="6.09163">
        <ele>1068.5999755859</ele>
        <time>2013-08-25T09:34:28.000Z</time>
      </trkpt>
      <trkpt lat="45.54809" lon="6.09158">
        <ele>1070.4000244141</ele>
        <time>2013-08-25T09:34:47.000Z</time>
      </trkpt>
      <trkpt lat="45.54812" lon="6.09157">
        <ele>1072.1999511719</ele>
        <time>2013-08-25T09:35:05.000Z</time>
      </trkpt>
      <trkpt lat="45.54814" lon="6.09156">
        <ele>1073</ele>
        <time>2013-08-25T09:35:33.000Z</time>
      </trkpt>
      <trkpt lat="45.54816" lon="6.09152">
        <ele>1074.4000244141</ele>
        <time>2013-08-25T09:35:48.000Z</time>
      </trkpt>
      <trkpt lat="45.54819" lon="6.09159">
        <ele>1076.1999511719</ele>
        <time>2013-08-25T09:36:09.000Z</time>
      </trkpt>
      <trkpt lat="45.54819" lon="6.09159">
        <ele>1076.1999511719</ele>
        <time>2013-08-25T09:36:16.000Z</time>
      </trkpt>
      <trkpt lat="45.54819" lon="6.09159">
        <ele>1076.1999511719</ele>
        <time>2013-08-25T09:36:17.000Z</time>
      </trkpt>
      <trkpt lat="45.54819" lon="6.09159">
        <ele>1076.1999511719</ele>
        <time>2013-08-25T09:36:18.000Z</time>
      </trkpt>
      <trkpt lat="45.54819" lon="6.09159">
        <ele>1076.1999511719</ele>
        <time>2013-08-25T09:36:39.000Z</time>
      </trkpt>
      <trkpt lat="45.54819" lon="6.0916">
        <ele>1076.4000244141</ele>
        <time>2013-08-25T09:36:41.000Z</time>
      </trkpt>
      <trkpt lat="45.54819" lon="6.0916">
        <ele>1076.4000244141</ele>
        <time>2013-08-25T09:36:42.000Z</time>
      </trkpt>
      <trkpt lat="45.54819" lon="6.0916">
        <ele>1076.4000244141</ele>
        <time>2013-08-25T09:36:44.000Z</time>
      </trkpt>
      <trkpt lat="45.54829" lon="6.09166">
        <ele>1082.5999755859</ele>
        <time>2013-08-25T09:37:03.000Z</time>
      </trkpt>
      <trkpt lat="45.54828" lon="6.09166">
        <ele>1081.5999755859</ele>
        <time>2013-08-25T09:37:22.000Z</time>
      </trkpt>
      <trkpt lat="45.5483" lon="6.09176">
        <ele>1084.4000244141</ele>
        <time>2013-08-25T09:37:42.000Z</time>
      </trkpt>
      <trkpt lat="45.54836" lon="6.09168">
        <ele>1087.8000488281</ele>
        <time>2013-08-25T09:38:09.000Z</time>
      </trkpt>
      <trkpt lat="45.54835" lon="6.09207">
        <ele>1091.8000488281</ele>
        <time>2013-08-25T09:38:23.000Z</time>
      </trkpt>
      <trkpt lat="45.54835" lon="6.09227">
        <ele>1094.5999755859</ele>
        <time>2013-08-25T09:38:44.000Z</time>
      </trkpt>
      <trkpt lat="45.54837" lon="6.09237">
        <ele>1098.1999511719</ele>
        <time>2013-08-25T09:39:03.000Z</time>
      </trkpt>
      <trkpt lat="45.54838" lon="6.09245">
        <ele>1099.5999755859</ele>
        <time>2013-08-25T09:39:12.000Z</time>
      </trkpt>
      <trkpt lat="45.54839" lon="6.09247">
        <ele>1100.5999755859</ele>
        <time>2013-08-25T09:39:13.000Z</time>
      </trkpt>
      <trkpt lat="45.5484" lon="6.09249">
        <ele>1101.5999755859</ele>
        <time>2013-08-25T09:39:14.000Z</time>
      </trkpt>
      <trkpt lat="45.54844" lon="6.09255">
        <ele>1103</ele>
        <time>2013-08-25T09:39:18.000Z</time>
      </trkpt>
      <trkpt lat="45.54849" lon="6.09264">
        <ele>1103.1999511719</ele>
        <time>2013-08-25T09:39:22.000Z</time>
      </trkpt>
      <trkpt lat="45.54854" lon="6.09278">
        <ele>1103</ele>
        <time>2013-08-25T09:39:27.000Z</time>
      </trkpt>
      <trkpt lat="45.54856" lon="6.09285">
        <ele>1102</ele>
        <time>2013-08-25T09:39:30.000Z</time>
      </trkpt>
      <trkpt lat="45.54856" lon="6.09287">
        <ele>1101.5999755859</ele>
        <time>2013-08-25T09:39:31.000Z</time>
      </trkpt>
      <trkpt lat="45.54858" lon="6.09303">
        <ele>1098.8000488281</ele>
        <time>2013-08-25T09:39:36.000Z</time>
      </trkpt>
      <trkpt lat="45.54859" lon="6.09306">
        <ele>1098</ele>
        <time>2013-08-25T09:39:37.000Z</time>
      </trkpt>
      <trkpt lat="45.54859" lon="6.09312">
        <ele>1096.8000488281</ele>
        <time>2013-08-25T09:39:39.000Z</time>
      </trkpt>
      <trkpt lat="45.5486" lon="6.09314">
        <ele>1096.4000244141</ele>
        <time>2013-08-25T09:39:40.000Z</time>
      </trkpt>
      <trkpt lat="45.54869" lon="6.0934">
        <ele>1096</ele>
        <time>2013-08-25T09:39:49.000Z</time>
      </trkpt>
      <trkpt lat="45.54873" lon="6.0935">
        <ele>1096.4000244141</ele>
        <time>2013-08-25T09:39:53.000Z</time>
      </trkpt>
      <trkpt lat="45.54882" lon="6.09396">
        <ele>1091.5999755859</ele>
        <time>2013-08-25T09:40:03.000Z</time>
      </trkpt>
      <trkpt lat="45.54889" lon="6.09419">
        <ele>1092</ele>
        <time>2013-08-25T09:40:15.000Z</time>
      </trkpt>
      <trkpt lat="45.54889" lon="6.09421">
        <ele>1091.8000488281</ele>
        <time>2013-08-25T09:40:16.000Z</time>
      </trkpt>
      <trkpt lat="45.5489" lon="6.09423">
        <ele>1091.8000488281</ele>
        <time>2013-08-25T09:40:17.000Z</time>
      </trkpt>
      <trkpt lat="45.5489" lon="6.09425">
        <ele>1091.5999755859</ele>
        <time>2013-08-25T09:40:18.000Z</time>
      </trkpt>
      <trkpt lat="45.54891" lon="6.09426">
        <ele>1091.8000488281</ele>
        <time>2013-08-25T09:40:19.000Z</time>
      </trkpt>
      <trkpt lat="45.54892" lon="6.09429">
        <ele>1092.4000244141</ele>
        <time>2013-08-25T09:40:20.000Z</time>
      </trkpt>
      <trkpt lat="45.54894" lon="6.09436">
        <ele>1092</ele>
        <time>2013-08-25T09:40:24.000Z</time>
      </trkpt>
      <trkpt lat="45.54895" lon="6.09437">
        <ele>1092</ele>
        <time>2013-08-25T09:40:25.000Z</time>
      </trkpt>
      <trkpt lat="45.54898" lon="6.0944">
        <ele>1094</ele>
        <time>2013-08-25T09:40:28.000Z</time>
      </trkpt>
      <trkpt lat="45.54899" lon="6.09441">
        <ele>1095</ele>
        <time>2013-08-25T09:40:29.000Z</time>
      </trkpt>
      <trkpt lat="45.54901" lon="6.09442">
        <ele>1096</ele>
        <time>2013-08-25T09:40:30.000Z</time>
      </trkpt>
      <trkpt lat="45.54902" lon="6.09443">
        <ele>1096.8000488281</ele>
        <time>2013-08-25T09:40:31.000Z</time>
      </trkpt>
      <trkpt lat="45.54903" lon="6.09444">
        <ele>1097.4000244141</ele>
        <time>2013-08-25T09:40:32.000Z</time>
      </trkpt>
      <trkpt lat="45.54905" lon="6.09446">
        <ele>1098</ele>
        <time>2013-08-25T09:40:34.000Z</time>
      </trkpt>
      <trkpt lat="45.54905" lon="6.09448">
        <ele>1098.1999511719</ele>
        <time>2013-08-25T09:40:35.000Z</time>
      </trkpt>
      <trkpt lat="45.54905" lon="6.09455">
        <ele>1096</ele>
        <time>2013-08-25T09:40:41.000Z</time>
      </trkpt>
      <trkpt lat="45.54905" lon="6.09466">
        <ele>1092.4000244141</ele>
        <time>2013-08-25T09:40:46.000Z</time>
      </trkpt>
      <trkpt lat="45.54909" lon="6.09479">
        <ele>1092.1999511719</ele>
        <time>2013-08-25T09:40:50.000Z</time>
      </trkpt>
      <trkpt lat="45.5491" lon="6.0948">
        <ele>1092.5999755859</ele>
        <time>2013-08-25T09:40:51.000Z</time>
      </trkpt>
      <trkpt lat="45.54912" lon="6.09485">
        <ele>1092.8000488281</ele>
        <time>2013-08-25T09:40:54.000Z</time>
      </trkpt>
      <trkpt lat="45.54914" lon="6.09491">
        <ele>1092.8000488281</ele>
        <time>2013-08-25T09:40:58.000Z</time>
      </trkpt>
      <trkpt lat="45.54917" lon="6.09496">
        <ele>1093.1999511719</ele>
        <time>2013-08-25T09:41:01.000Z</time>
      </trkpt>
      <trkpt lat="45.54918" lon="6.095">
        <ele>1093.1999511719</ele>
        <time>2013-08-25T09:41:04.000Z</time>
      </trkpt>
      <trkpt lat="45.54918" lon="6.09502">
        <ele>1092.4000244141</ele>
        <time>2013-08-25T09:41:07.000Z</time>
      </trkpt>
      <trkpt lat="45.54918" lon="6.09502">
        <ele>1092.4000244141</ele>
        <time>2013-08-25T09:41:11.000Z</time>
      </trkpt>
      <trkpt lat="45.54918" lon="6.09502">
        <ele>1092.4000244141</ele>
        <time>2013-08-25T09:41:12.000Z</time>
      </trkpt>
      <trkpt lat="45.54918" lon="6.09526">
        <ele>1085.1999511719</ele>
        <time>2013-08-25T09:41:20.000Z</time>
      </trkpt>
      <trkpt lat="45.54918" lon="6.09532">
        <ele>1083.4000244141</ele>
        <time>2013-08-25T09:41:21.000Z</time>
      </trkpt>
      <trkpt lat="45.54919" lon="6.09536">
        <ele>1082.4000244141</ele>
        <time>2013-08-25T09:41:22.000Z</time>
      </trkpt>
      <trkpt lat="45.54919" lon="6.09545">
        <ele>1079.5999755859</ele>
        <time>2013-08-25T09:41:25.000Z</time>
      </trkpt>
      <trkpt lat="45.54917" lon="6.09546">
        <ele>1078</ele>
        <time>2013-08-25T09:41:26.000Z</time>
      </trkpt>
      <trkpt lat="45.54915" lon="6.09549">
        <ele>1075.4000244141</ele>
        <time>2013-08-25T09:41:27.000Z</time>
      </trkpt>
      <trkpt lat="45.54914" lon="6.09552">
        <ele>1074</ele>
        <time>2013-08-25T09:41:29.000Z</time>
      </trkpt>
      <trkpt lat="45.54917" lon="6.09565">
        <ele>1071.8000488281</ele>
        <time>2013-08-25T09:41:41.000Z</time>
      </trkpt>
      <trkpt lat="45.54924" lon="6.09576">
        <ele>1073.8000488281</ele>
        <time>2013-08-25T09:41:49.000Z</time>
      </trkpt>
      <trkpt lat="45.54926" lon="6.09578">
        <ele>1074.8000488281</ele>
        <time>2013-08-25T09:41:51.000Z</time>
      </trkpt>
      <trkpt lat="45.54929" lon="6.09581">
        <ele>1076</ele>
        <time>2013-08-25T09:41:53.000Z</time>
      </trkpt>
      <trkpt lat="45.54932" lon="6.09585">
        <ele>1077.1999511719</ele>
        <time>2013-08-25T09:41:56.000Z</time>
      </trkpt>
      <trkpt lat="45.54936" lon="6.09591">
        <ele>1078.4000244141</ele>
        <time>2013-08-25T09:42:00.000Z</time>
      </trkpt>
      <trkpt lat="45.54937" lon="6.09592">
        <ele>1078.4000244141</ele>
        <time>2013-08-25T09:42:01.000Z</time>
      </trkpt>
      <trkpt lat="45.5494" lon="6.09598">
        <ele>1079</ele>
        <time>2013-08-25T09:42:05.000Z</time>
      </trkpt>
      <trkpt lat="45.5494" lon="6.096">
        <ele>1078.8000488281</ele>
        <time>2013-08-25T09:42:06.000Z</time>
      </trkpt>
      <trkpt lat="45.54941" lon="6.09602">
        <ele>1078.4000244141</ele>
        <time>2013-08-25T09:42:07.000Z</time>
      </trkpt>
      <trkpt lat="45.54943" lon="6.09617">
        <ele>1075.1999511719</ele>
        <time>2013-08-25T09:42:11.000Z</time>
      </trkpt>
      <trkpt lat="45.54943" lon="6.09643">
        <ele>1067.4000244141</ele>
        <time>2013-08-25T09:42:13.000Z</time>
      </trkpt>
      <trkpt lat="45.5494" lon="6.09683">
        <ele>1051.8000488281</ele>
        <time>2013-08-25T09:42:17.000Z</time>
      </trkpt>
      <trkpt lat="45.5494" lon="6.09697">
        <ele>1046.8000488281</ele>
        <time>2013-08-25T09:42:20.000Z</time>
      </trkpt>
      <trkpt lat="45.54942" lon="6.09703">
        <ele>1045.8000488281</ele>
        <time>2013-08-25T09:42:22.000Z</time>
      </trkpt>
      <trkpt lat="45.54942" lon="6.09708">
        <ele>1044.1999511719</ele>
        <time>2013-08-25T09:42:24.000Z</time>
      </trkpt>
      <trkpt lat="45.54943" lon="6.09742">
        <ele>1031.4000244141</ele>
        <time>2013-08-25T09:42:41.000Z</time>
      </trkpt>
      <trkpt lat="45.54948" lon="6.09766">
        <ele>1026</ele>
        <time>2013-08-25T09:43:06.000Z</time>
      </trkpt>
      <trkpt lat="45.5495" lon="6.0978">
        <ele>1021.4000244141</ele>
        <time>2013-08-25T09:43:26.000Z</time>
      </trkpt>
      <trkpt lat="45.5495" lon="6.09783">
        <ele>1020.4000244141</ele>
        <time>2013-08-25T09:43:28.000Z</time>
      </trkpt>
      <trkpt lat="45.5495" lon="6.09787">
        <ele>1019</ele>
        <time>2013-08-25T09:43:30.000Z</time>
      </trkpt>
      <trkpt lat="45.54951" lon="6.09789">
        <ele>1018.4000244141</ele>
        <time>2013-08-25T09:43:31.000Z</time>
      </trkpt>
      <trkpt lat="45.54951" lon="6.09793">
        <ele>1017.4000244141</ele>
        <time>2013-08-25T09:43:33.000Z</time>
      </trkpt>
      <trkpt lat="45.54954" lon="6.09799">
        <ele>1016.5999755859</ele>
        <time>2013-08-25T09:43:35.000Z</time>
      </trkpt>
      <trkpt lat="45.54956" lon="6.09804">
        <ele>1015.799987793</ele>
        <time>2013-08-25T09:43:37.000Z</time>
      </trkpt>
      <trkpt lat="45.5496" lon="6.09813">
        <ele>1015.200012207</ele>
        <time>2013-08-25T09:43:41.000Z</time>
      </trkpt>
      <trkpt lat="45.54973" lon="6.0983">
        <ele>1017.200012207</ele>
        <time>2013-08-25T09:43:43.000Z</time>
      </trkpt>
      <trkpt lat="45.54978" lon="6.0983">
        <ele>1020.5999755859</ele>
        <time>2013-08-25T09:43:44.000Z</time>
      </trkpt>
      <trkpt lat="45.54987" lon="6.09842">
        <ele>1021.799987793</ele>
        <time>2013-08-25T09:43:46.000Z</time>
      </trkpt>
      <trkpt lat="45.54991" lon="6.0985">
        <ele>1021</ele>
        <time>2013-08-25T09:43:47.000Z</time>
      </trkpt>
      <trkpt lat="45.54995" lon="6.09856">
        <ele>1020.799987793</ele>
        <time>2013-08-25T09:43:48.000Z</time>
      </trkpt>
      <trkpt lat="45.55" lon="6.09868">
        <ele>1019.5999755859</ele>
        <time>2013-08-25T09:43:50.000Z</time>
      </trkpt>
      <trkpt lat="45.55003" lon="6.09873">
        <ele>1018</ele>
        <time>2013-08-25T09:43:51.000Z</time>
      </trkpt>
      <trkpt lat="45.55006" lon="6.09884">
        <ele>1015.200012207</ele>
        <time>2013-08-25T09:43:53.000Z</time>
      </trkpt>
      <trkpt lat="45.55008" lon="6.09885">
        <ele>1015.200012207</ele>
        <time>2013-08-25T09:43:54.000Z</time>
      </trkpt>
      <trkpt lat="45.5501" lon="6.09886">
        <ele>1015.4000244141</ele>
        <time>2013-08-25T09:43:55.000Z</time>
      </trkpt>
      <trkpt lat="45.55013" lon="6.09889">
        <ele>1015.4000244141</ele>
        <time>2013-08-25T09:43:57.000Z</time>
      </trkpt>
      <trkpt lat="45.55014" lon="6.09891">
        <ele>1015.200012207</ele>
        <time>2013-08-25T09:43:58.000Z</time>
      </trkpt>
      <trkpt lat="45.55018" lon="6.09897">
        <ele>1014</ele>
        <time>2013-08-25T09:44:01.000Z</time>
      </trkpt>
      <trkpt lat="45.55021" lon="6.09902">
        <ele>1013</ele>
        <time>2013-08-25T09:44:03.000Z</time>
      </trkpt>
      <trkpt lat="45.55022" lon="6.09905">
        <ele>1012</ele>
        <time>2013-08-25T09:44:04.000Z</time>
      </trkpt>
      <trkpt lat="45.55022" lon="6.09908">
        <ele>1010.799987793</ele>
        <time>2013-08-25T09:44:05.000Z</time>
      </trkpt>
      <trkpt lat="45.55023" lon="6.09924">
        <ele>1004.200012207</ele>
        <time>2013-08-25T09:44:08.000Z</time>
      </trkpt>
      <trkpt lat="45.55024" lon="6.09935">
        <ele>999.20001220703</ele>
        <time>2013-08-25T09:44:10.000Z</time>
      </trkpt>
      <trkpt lat="45.55023" lon="6.09951">
        <ele>991</ele>
        <time>2013-08-25T09:44:12.000Z</time>
      </trkpt>
      <trkpt lat="45.55021" lon="6.0996">
        <ele>986.40002441406</ele>
        <time>2013-08-25T09:44:13.000Z</time>
      </trkpt>
      <trkpt lat="45.55017" lon="6.10001">
        <ele>964.59997558594</ele>
        <time>2013-08-25T09:44:17.000Z</time>
      </trkpt>
      <trkpt lat="45.55015" lon="6.10013">
        <ele>959.59997558594</ele>
        <time>2013-08-25T09:44:18.000Z</time>
      </trkpt>
      <trkpt lat="45.55012" lon="6.10038">
        <ele>950.20001220703</ele>
        <time>2013-08-25T09:44:20.000Z</time>
      </trkpt>
      <trkpt lat="45.55005" lon="6.10084">
        <ele>931.79998779297</ele>
        <time>2013-08-25T09:44:24.000Z</time>
      </trkpt>
      <trkpt lat="45.54994" lon="6.10124">
        <ele>923.59997558594</ele>
        <time>2013-08-25T09:44:28.000Z</time>
      </trkpt>
      <trkpt lat="45.54992" lon="6.10166">
        <ele>920.40002441406</ele>
        <time>2013-08-25T09:44:31.000Z</time>
      </trkpt>
      <trkpt lat="45.54993" lon="6.10173">
        <ele>921.20001220703</ele>
        <time>2013-08-25T09:44:32.000Z</time>
      </trkpt>
      <trkpt lat="45.54994" lon="6.10182">
        <ele>921.59997558594</ele>
        <time>2013-08-25T09:44:33.000Z</time>
      </trkpt>
      <trkpt lat="45.54991" lon="6.10212">
        <ele>918.40002441406</ele>
        <time>2013-08-25T09:44:35.000Z</time>
      </trkpt>
      <trkpt lat="45.5499" lon="6.10235">
        <ele>917.79998779297</ele>
        <time>2013-08-25T09:44:38.000Z</time>
      </trkpt>
      <trkpt lat="45.5499" lon="6.10247">
        <ele>917.40002441406</ele>
        <time>2013-08-25T09:44:40.000Z</time>
      </trkpt>
      <trkpt lat="45.5499" lon="6.10252">
        <ele>917</ele>
        <time>2013-08-25T09:44:41.000Z</time>
      </trkpt>
      <trkpt lat="45.5499" lon="6.10257">
        <ele>916.20001220703</ele>
        <time>2013-08-25T09:44:42.000Z</time>
      </trkpt>
      <trkpt lat="45.54988" lon="6.10274">
        <ele>913.59997558594</ele>
        <time>2013-08-25T09:44:45.000Z</time>
      </trkpt>
      <trkpt lat="45.54988" lon="6.10279">
        <ele>912.79998779297</ele>
        <time>2013-08-25T09:44:46.000Z</time>
      </trkpt>
      <trkpt lat="45.54988" lon="6.10284">
        <ele>912.40002441406</ele>
        <time>2013-08-25T09:44:47.000Z</time>
      </trkpt>
      <trkpt lat="45.54997" lon="6.10315">
        <ele>913.59997558594</ele>
        <time>2013-08-25T09:44:53.000Z</time>
      </trkpt>
      <trkpt lat="45.55018" lon="6.10331">
        <ele>915.20001220703</ele>
        <time>2013-08-25T09:44:56.000Z</time>
      </trkpt>
      <trkpt lat="45.55033" lon="6.10346">
        <ele>913.40002441406</ele>
        <time>2013-08-25T09:44:59.000Z</time>
      </trkpt>
      <trkpt lat="45.55037" lon="6.1035">
        <ele>912.59997558594</ele>
        <time>2013-08-25T09:45:00.000Z</time>
      </trkpt>
      <trkpt lat="45.55042" lon="6.10355">
        <ele>912.20001220703</ele>
        <time>2013-08-25T09:45:01.000Z</time>
      </trkpt>
      <trkpt lat="45.55047" lon="6.10359">
        <ele>911.79998779297</ele>
        <time>2013-08-25T09:45:02.000Z</time>
      </trkpt>
      <trkpt lat="45.55053" lon="6.10361">
        <ele>912</ele>
        <time>2013-08-25T09:45:03.000Z</time>
      </trkpt>
      <trkpt lat="45.55061" lon="6.10363">
        <ele>912.40002441406</ele>
        <time>2013-08-25T09:45:04.000Z</time>
      </trkpt>
      <trkpt lat="45.55069" lon="6.10365">
        <ele>913</ele>
        <time>2013-08-25T09:45:05.000Z</time>
      </trkpt>
      <trkpt lat="45.55086" lon="6.10369">
        <ele>913.79998779297</ele>
        <time>2013-08-25T09:45:07.000Z</time>
      </trkpt>
      <trkpt lat="45.55111" lon="6.10378">
        <ele>911.20001220703</ele>
        <time>2013-08-25T09:45:10.000Z</time>
      </trkpt>
      <trkpt lat="45.55129" lon="6.10384">
        <ele>909.40002441406</ele>
        <time>2013-08-25T09:45:12.000Z</time>
      </trkpt>
      <trkpt lat="45.55155" lon="6.10395">
        <ele>906.40002441406</ele>
        <time>2013-08-25T09:45:15.000Z</time>
      </trkpt>
      <trkpt lat="45.55164" lon="6.10397">
        <ele>905.59997558594</ele>
        <time>2013-08-25T09:45:16.000Z</time>
      </trkpt>
      <trkpt lat="45.55226" lon="6.1042">
        <ele>897.40002441406</ele>
        <time>2013-08-25T09:45:23.000Z</time>
      </trkpt>
      <trkpt lat="45.55321" lon="6.1045">
        <ele>897.20001220703</ele>
        <time>2013-08-25T09:45:35.000Z</time>
      </trkpt>
      <trkpt lat="45.55342" lon="6.10453">
        <ele>898.79998779297</ele>
        <time>2013-08-25T09:45:45.000Z</time>
      </trkpt>
      <trkpt lat="45.55345" lon="6.10453">
        <ele>899</ele>
        <time>2013-08-25T09:46:02.000Z</time>
      </trkpt>
      <trkpt lat="45.55371" lon="6.10468">
        <ele>897.20001220703</ele>
        <time>2013-08-25T09:46:13.000Z</time>
      </trkpt>
      <trkpt lat="45.55373" lon="6.10467">
        <ele>897.59997558594</ele>
        <time>2013-08-25T09:46:14.000Z</time>
      </trkpt>
      <trkpt lat="45.55378" lon="6.10463">
        <ele>899</ele>
        <time>2013-08-25T09:46:20.000Z</time>
      </trkpt>
      <trkpt lat="45.55378" lon="6.10463">
        <ele>899</ele>
        <time>2013-08-25T09:46:22.000Z</time>
      </trkpt>
      <trkpt lat="45.55378" lon="6.10463">
        <ele>899</ele>
        <time>2013-08-25T09:46:23.000Z</time>
      </trkpt>
      <trkpt lat="45.5538" lon="6.10464">
        <ele>898.79998779297</ele>
        <time>2013-08-25T09:47:01.000Z</time>
      </trkpt>
      <trkpt lat="45.55381" lon="6.10465">
        <ele>898.59997558594</ele>
        <time>2013-08-25T09:47:02.000Z</time>
      </trkpt>
      <trkpt lat="45.55384" lon="6.10467">
        <ele>898.40002441406</ele>
        <time>2013-08-25T09:47:03.000Z</time>
      </trkpt>
      <trkpt lat="45.55387" lon="6.10469">
        <ele>898.20001220703</ele>
        <time>2013-08-25T09:47:04.000Z</time>
      </trkpt>
      <trkpt lat="45.55391" lon="6.10471">
        <ele>898</ele>
        <time>2013-08-25T09:47:05.000Z</time>
      </trkpt>
      <trkpt lat="45.55405" lon="6.10477">
        <ele>897.59997558594</ele>
        <time>2013-08-25T09:47:08.000Z</time>
      </trkpt>
      <trkpt lat="45.55412" lon="6.10479">
        <ele>897.40002441406</ele>
        <time>2013-08-25T09:47:09.000Z</time>
      </trkpt>
      <trkpt lat="45.55447" lon="6.10496">
        <ele>896.59997558594</ele>
        <time>2013-08-25T09:47:14.000Z</time>
      </trkpt>
      <trkpt lat="45.55452" lon="6.10502">
        <ele>895.59997558594</ele>
        <time>2013-08-25T09:47:15.000Z</time>
      </trkpt>
      <trkpt lat="45.55456" lon="6.1051">
        <ele>894.59997558594</ele>
        <time>2013-08-25T09:47:16.000Z</time>
      </trkpt>
      <trkpt lat="45.55472" lon="6.10537">
        <ele>891.20001220703</ele>
        <time>2013-08-25T09:47:19.000Z</time>
      </trkpt>
      <trkpt lat="45.55483" lon="6.10557">
        <ele>888</ele>
        <time>2013-08-25T09:47:21.000Z</time>
      </trkpt>
      <trkpt lat="45.55508" lon="6.10599">
        <ele>880.59997558594</ele>
        <time>2013-08-25T09:47:25.000Z</time>
      </trkpt>
      <trkpt lat="45.55514" lon="6.10609">
        <ele>879.20001220703</ele>
        <time>2013-08-25T09:47:26.000Z</time>
      </trkpt>
      <trkpt lat="45.55542" lon="6.10647">
        <ele>873.20001220703</ele>
        <time>2013-08-25T09:47:30.000Z</time>
      </trkpt>
      <trkpt lat="45.55548" lon="6.10656">
        <ele>871.59997558594</ele>
        <time>2013-08-25T09:47:31.000Z</time>
      </trkpt>
      <trkpt lat="45.55562" lon="6.10672">
        <ele>868.40002441406</ele>
        <time>2013-08-25T09:47:33.000Z</time>
      </trkpt>
      <trkpt lat="45.55584" lon="6.10689">
        <ele>865.79998779297</ele>
        <time>2013-08-25T09:47:36.000Z</time>
      </trkpt>
      <trkpt lat="45.55599" lon="6.10702">
        <ele>863.79998779297</ele>
        <time>2013-08-25T09:47:38.000Z</time>
      </trkpt>
      <trkpt lat="45.55613" lon="6.10716">
        <ele>861.40002441406</ele>
        <time>2013-08-25T09:47:40.000Z</time>
      </trkpt>
      <trkpt lat="45.55637" lon="6.10738">
        <ele>857.79998779297</ele>
        <time>2013-08-25T09:47:43.000Z</time>
      </trkpt>
      <trkpt lat="45.55647" lon="6.10742">
        <ele>857.40002441406</ele>
        <time>2013-08-25T09:47:44.000Z</time>
      </trkpt>
      <trkpt lat="45.55673" lon="6.10752">
        <ele>857</ele>
        <time>2013-08-25T09:47:48.000Z</time>
      </trkpt>
      <trkpt lat="45.55676" lon="6.10754">
        <ele>857</ele>
        <time>2013-08-25T09:47:49.000Z</time>
      </trkpt>
      <trkpt lat="45.55677" lon="6.10756">
        <ele>856.79998779297</ele>
        <time>2013-08-25T09:47:50.000Z</time>
      </trkpt>
      <trkpt lat="45.55678" lon="6.10758">
        <ele>856.40002441406</ele>
        <time>2013-08-25T09:47:51.000Z</time>
      </trkpt>
      <trkpt lat="45.55678" lon="6.10761">
        <ele>856</ele>
        <time>2013-08-25T09:47:52.000Z</time>
      </trkpt>
      <trkpt lat="45.55677" lon="6.10764">
        <ele>855.40002441406</ele>
        <time>2013-08-25T09:47:53.000Z</time>
      </trkpt>
      <trkpt lat="45.55676" lon="6.10767">
        <ele>854.79998779297</ele>
        <time>2013-08-25T09:47:54.000Z</time>
      </trkpt>
      <trkpt lat="45.5567" lon="6.10771">
        <ele>853.79998779297</ele>
        <time>2013-08-25T09:47:55.000Z</time>
      </trkpt>
      <trkpt lat="45.55664" lon="6.10776">
        <ele>852.59997558594</ele>
        <time>2013-08-25T09:47:56.000Z</time>
      </trkpt>
      <trkpt lat="45.55659" lon="6.1078">
        <ele>851.59997558594</ele>
        <time>2013-08-25T09:47:57.000Z</time>
      </trkpt>
      <trkpt lat="45.5565" lon="6.10789">
        <ele>849.20001220703</ele>
        <time>2013-08-25T09:47:59.000Z</time>
      </trkpt>
      <trkpt lat="45.55648" lon="6.10789">
        <ele>849.20001220703</ele>
        <time>2013-08-25T09:48:00.000Z</time>
      </trkpt>
      <trkpt lat="45.55646" lon="6.1079">
        <ele>848.79998779297</ele>
        <time>2013-08-25T09:48:01.000Z</time>
      </trkpt>
      <trkpt lat="45.55644" lon="6.10792">
        <ele>848.20001220703</ele>
        <time>2013-08-25T09:48:10.000Z</time>
      </trkpt>
      <trkpt lat="45.55646" lon="6.10793">
        <ele>848.40002441406</ele>
        <time>2013-08-25T09:48:12.000Z</time>
      </trkpt>
      <trkpt lat="45.55648" lon="6.10794">
        <ele>848.40002441406</ele>
        <time>2013-08-25T09:48:14.000Z</time>
      </trkpt>
      <trkpt lat="45.55646" lon="6.10796">
        <ele>848</ele>
        <time>2013-08-25T09:48:16.000Z</time>
      </trkpt>
      <trkpt lat="45.55644" lon="6.10797">
        <ele>847.40002441406</ele>
        <time>2013-08-25T09:48:17.000Z</time>
      </trkpt>
      <trkpt lat="45.55642" lon="6.10795">
        <ele>847.59997558594</ele>
        <time>2013-08-25T09:48:18.000Z</time>
      </trkpt>
      <trkpt lat="45.5564" lon="6.10794">
        <ele>847.59997558594</ele>
        <time>2013-08-25T09:48:19.000Z</time>
      </trkpt>
      <trkpt lat="45.55638" lon="6.10793">
        <ele>847.59997558594</ele>
        <time>2013-08-25T09:48:20.000Z</time>
      </trkpt>
      <trkpt lat="45.55637" lon="6.10793">
        <ele>847.40002441406</ele>
        <time>2013-08-25T09:48:21.000Z</time>
      </trkpt>
      <trkpt lat="45.55627" lon="6.10792">
        <ele>846.79998779297</ele>
        <time>2013-08-25T09:48:27.000Z</time>
      </trkpt>
      <trkpt lat="45.55614" lon="6.10797">
        <ele>844.79998779297</ele>
        <time>2013-08-25T09:48:31.000Z</time>
      </trkpt>
      <trkpt lat="45.55598" lon="6.10804">
        <ele>842</ele>
        <time>2013-08-25T09:48:35.000Z</time>
      </trkpt>
      <trkpt lat="45.55584" lon="6.10809">
        <ele>839.59997558594</ele>
        <time>2013-08-25T09:48:38.000Z</time>
      </trkpt>
      <trkpt lat="45.55579" lon="6.10812">
        <ele>837.79998779297</ele>
        <time>2013-08-25T09:48:39.000Z</time>
      </trkpt>
      <trkpt lat="45.55574" lon="6.10816">
        <ele>836.20001220703</ele>
        <time>2013-08-25T09:48:40.000Z</time>
      </trkpt>
      <trkpt lat="45.55565" lon="6.10824">
        <ele>832.20001220703</ele>
        <time>2013-08-25T09:48:43.000Z</time>
      </trkpt>
      <trkpt lat="45.55563" lon="6.10826">
        <ele>831.20001220703</ele>
        <time>2013-08-25T09:48:44.000Z</time>
      </trkpt>
      <trkpt lat="45.55557" lon="6.10827">
        <ele>829.40002441406</ele>
        <time>2013-08-25T09:48:46.000Z</time>
      </trkpt>
      <trkpt lat="45.55551" lon="6.10827">
        <ele>828</ele>
        <time>2013-08-25T09:48:48.000Z</time>
      </trkpt>
      <trkpt lat="45.55535" lon="6.10829">
        <ele>823.40002441406</ele>
        <time>2013-08-25T09:48:57.000Z</time>
      </trkpt>
      <trkpt lat="45.55522" lon="6.10824">
        <ele>821.59997558594</ele>
        <time>2013-08-25T09:49:12.000Z</time>
      </trkpt>
      <trkpt lat="45.55521" lon="6.1082">
        <ele>822.40002441406</ele>
        <time>2013-08-25T09:49:20.000Z</time>
      </trkpt>
      <trkpt lat="45.55521" lon="6.1082">
        <ele>822.40002441406</ele>
        <time>2013-08-25T09:49:21.000Z</time>
      </trkpt>
      <trkpt lat="45.55521" lon="6.1082">
        <ele>822.59997558594</ele>
        <time>2013-08-25T09:49:22.000Z</time>
      </trkpt>
      <trkpt lat="45.55521" lon="6.10817">
        <ele>823.40002441406</ele>
        <time>2013-08-25T09:49:25.000Z</time>
      </trkpt>
      <trkpt lat="45.5552" lon="6.10813">
        <ele>824.59997558594</ele>
        <time>2013-08-25T09:49:28.000Z</time>
      </trkpt>
      <trkpt lat="45.55519" lon="6.10811">
        <ele>825</ele>
        <time>2013-08-25T09:49:30.000Z</time>
      </trkpt>
      <trkpt lat="45.55518" lon="6.10809">
        <ele>825.40002441406</ele>
        <time>2013-08-25T09:49:31.000Z</time>
      </trkpt>
      <trkpt lat="45.55517" lon="6.10807">
        <ele>825.79998779297</ele>
        <time>2013-08-25T09:49:33.000Z</time>
      </trkpt>
      <trkpt lat="45.55515" lon="6.10803">
        <ele>826.40002441406</ele>
        <time>2013-08-25T09:49:35.000Z</time>
      </trkpt>
      <trkpt lat="45.55508" lon="6.10797">
        <ele>827.20001220703</ele>
        <time>2013-08-25T09:49:39.000Z</time>
      </trkpt>
      <trkpt lat="45.55503" lon="6.10796">
        <ele>826.40002441406</ele>
        <time>2013-08-25T09:49:40.000Z</time>
      </trkpt>
      <trkpt lat="45.55498" lon="6.10796">
        <ele>825.59997558594</ele>
        <time>2013-08-25T09:49:41.000Z</time>
      </trkpt>
      <trkpt lat="45.55494" lon="6.10796">
        <ele>825.20001220703</ele>
        <time>2013-08-25T09:49:42.000Z</time>
      </trkpt>
      <trkpt lat="45.55455" lon="6.10795">
        <ele>820</ele>
        <time>2013-08-25T09:49:50.000Z</time>
      </trkpt>
      <trkpt lat="45.55448" lon="6.10795">
        <ele>819.20001220703</ele>
        <time>2013-08-25T09:49:53.000Z</time>
      </trkpt>
      <trkpt lat="45.55415" lon="6.10814">
        <ele>802.40002441406</ele>
        <time>2013-08-25T09:49:58.000Z</time>
      </trkpt>
      <trkpt lat="45.55403" lon="6.10819">
        <ele>799.20001220703</ele>
        <time>2013-08-25T09:50:01.000Z</time>
      </trkpt>
      <trkpt lat="45.554" lon="6.1082">
        <ele>798.59997558594</ele>
        <time>2013-08-25T09:50:02.000Z</time>
      </trkpt>
      <trkpt lat="45.55388" lon="6.10826">
        <ele>794.59997558594</ele>
        <time>2013-08-25T09:50:04.000Z</time>
      </trkpt>
      <trkpt lat="45.55376" lon="6.10831">
        <ele>790.79998779297</ele>
        <time>2013-08-25T09:50:06.000Z</time>
      </trkpt>
      <trkpt lat="45.5537" lon="6.10833">
        <ele>789.79998779297</ele>
        <time>2013-08-25T09:50:08.000Z</time>
      </trkpt>
      <trkpt lat="45.55367" lon="6.10834">
        <ele>789</ele>
        <time>2013-08-25T09:50:09.000Z</time>
      </trkpt>
      <trkpt lat="45.55345" lon="6.10849">
        <ele>779.20001220703</ele>
        <time>2013-08-25T09:50:14.000Z</time>
      </trkpt>
      <trkpt lat="45.55335" lon="6.10852">
        <ele>777.40002441406</ele>
        <time>2013-08-25T09:50:17.000Z</time>
      </trkpt>
      <trkpt lat="45.55316" lon="6.10857">
        <ele>771.20001220703</ele>
        <time>2013-08-25T09:50:22.000Z</time>
      </trkpt>
      <trkpt lat="45.55307" lon="6.10859">
        <ele>769</ele>
        <time>2013-08-25T09:50:24.000Z</time>
      </trkpt>
      <trkpt lat="45.55303" lon="6.1086">
        <ele>768</ele>
        <time>2013-08-25T09:50:25.000Z</time>
      </trkpt>
      <trkpt lat="45.55285" lon="6.10864">
        <ele>762.79998779297</ele>
        <time>2013-08-25T09:50:29.000Z</time>
      </trkpt>
      <trkpt lat="45.55275" lon="6.10867">
        <ele>759.59997558594</ele>
        <time>2013-08-25T09:50:31.000Z</time>
      </trkpt>
      <trkpt lat="45.55251" lon="6.10882">
        <ele>747.59997558594</ele>
        <time>2013-08-25T09:50:34.000Z</time>
      </trkpt>
      <trkpt lat="45.55234" lon="6.10893">
        <ele>736.79998779297</ele>
        <time>2013-08-25T09:50:37.000Z</time>
      </trkpt>
      <trkpt lat="45.55226" lon="6.10897">
        <ele>732.59997558594</ele>
        <time>2013-08-25T09:50:39.000Z</time>
      </trkpt>
      <trkpt lat="45.5522" lon="6.10899">
        <ele>729.79998779297</ele>
        <time>2013-08-25T09:50:41.000Z</time>
      </trkpt>
      <trkpt lat="45.55214" lon="6.10903">
        <ele>726.20001220703</ele>
        <time>2013-08-25T09:50:44.000Z</time>
      </trkpt>
      <trkpt lat="45.55208" lon="6.10905">
        <ele>723.40002441406</ele>
        <time>2013-08-25T09:50:48.000Z</time>
      </trkpt>
      <trkpt lat="45.55199" lon="6.10908">
        <ele>720.20001220703</ele>
        <time>2013-08-25T09:50:51.000Z</time>
      </trkpt>
      <trkpt lat="45.55195" lon="6.1091">
        <ele>718</ele>
        <time>2013-08-25T09:50:52.000Z</time>
      </trkpt>
      <trkpt lat="45.55189" lon="6.10913">
        <ele>714.79998779297</ele>
        <time>2013-08-25T09:50:54.000Z</time>
      </trkpt>
      <trkpt lat="45.55176" lon="6.10914">
        <ele>711.20001220703</ele>
        <time>2013-08-25T09:50:58.000Z</time>
      </trkpt>
      <trkpt lat="45.5517" lon="6.10915">
        <ele>709.79998779297</ele>
        <time>2013-08-25T09:51:00.000Z</time>
      </trkpt>
      <trkpt lat="45.55168" lon="6.10915">
        <ele>709</ele>
        <time>2013-08-25T09:51:01.000Z</time>
      </trkpt>
      <trkpt lat="45.55159" lon="6.10914">
        <ele>707.59997558594</ele>
        <time>2013-08-25T09:51:04.000Z</time>
      </trkpt>
      <trkpt lat="45.55155" lon="6.10913">
        <ele>707.20001220703</ele>
        <time>2013-08-25T09:51:05.000Z</time>
      </trkpt>
      <trkpt lat="45.55141" lon="6.10907">
        <ele>705.79998779297</ele>
        <time>2013-08-25T09:51:09.000Z</time>
      </trkpt>
      <trkpt lat="45.55131" lon="6.10903">
        <ele>705</ele>
        <time>2013-08-25T09:51:12.000Z</time>
      </trkpt>
      <trkpt lat="45.55129" lon="6.10902">
        <ele>704.79998779297</ele>
        <time>2013-08-25T09:51:13.000Z</time>
      </trkpt>
      <trkpt lat="45.55127" lon="6.10901">
        <ele>704.79998779297</ele>
        <time>2013-08-25T09:51:14.000Z</time>
      </trkpt>
      <trkpt lat="45.55121" lon="6.10897">
        <ele>704.59997558594</ele>
        <time>2013-08-25T09:51:17.000Z</time>
      </trkpt>
      <trkpt lat="45.55115" lon="6.10891">
        <ele>704.59997558594</ele>
        <time>2013-08-25T09:51:20.000Z</time>
      </trkpt>
      <trkpt lat="45.55112" lon="6.1089">
        <ele>704.20001220703</ele>
        <time>2013-08-25T09:51:21.000Z</time>
      </trkpt>
      <trkpt lat="45.55109" lon="6.10888">
        <ele>703.79998779297</ele>
        <time>2013-08-25T09:51:22.000Z</time>
      </trkpt>
      <trkpt lat="45.55105" lon="6.10886">
        <ele>703.40002441406</ele>
        <time>2013-08-25T09:51:23.000Z</time>
      </trkpt>
      <trkpt lat="45.55093" lon="6.10879">
        <ele>701.59997558594</ele>
        <time>2013-08-25T09:51:26.000Z</time>
      </trkpt>
      <trkpt lat="45.55076" lon="6.10869">
        <ele>698.59997558594</ele>
        <time>2013-08-25T09:51:29.000Z</time>
      </trkpt>
      <trkpt lat="45.55055" lon="6.10859">
        <ele>694.79998779297</ele>
        <time>2013-08-25T09:51:33.000Z</time>
      </trkpt>
      <trkpt lat="45.55046" lon="6.10855">
        <ele>693</ele>
        <time>2013-08-25T09:51:35.000Z</time>
      </trkpt>
      <trkpt lat="45.55024" lon="6.10845">
        <ele>689.79998779297</ele>
        <time>2013-08-25T09:51:39.000Z</time>
      </trkpt>
      <trkpt lat="45.55017" lon="6.1084">
        <ele>689.59997558594</ele>
        <time>2013-08-25T09:51:40.000Z</time>
      </trkpt>
      <trkpt lat="45.55007" lon="6.10835">
        <ele>688.20001220703</ele>
        <time>2013-08-25T09:51:42.000Z</time>
      </trkpt>
      <trkpt lat="45.54999" lon="6.10836">
        <ele>685.59997558594</ele>
        <time>2013-08-25T09:51:44.000Z</time>
      </trkpt>
      <trkpt lat="45.54962" lon="6.10846">
        <ele>673.20001220703</ele>
        <time>2013-08-25T09:51:51.000Z</time>
      </trkpt>
      <trkpt lat="45.5494" lon="6.10851">
        <ele>666.20001220703</ele>
        <time>2013-08-25T09:51:55.000Z</time>
      </trkpt>
      <trkpt lat="45.54911" lon="6.10859">
        <ele>657.40002441406</ele>
        <time>2013-08-25T09:52:00.000Z</time>
      </trkpt>
      <trkpt lat="45.54899" lon="6.10859">
        <ele>656.40002441406</ele>
        <time>2013-08-25T09:52:03.000Z</time>
      </trkpt>
      <trkpt lat="45.54895" lon="6.10859">
        <ele>656</ele>
        <time>2013-08-25T09:52:04.000Z</time>
      </trkpt>
      <trkpt lat="45.54891" lon="6.1086">
        <ele>655.59997558594</ele>
        <time>2013-08-25T09:52:05.000Z</time>
      </trkpt>
      <trkpt lat="45.54884" lon="6.10859">
        <ele>655</ele>
        <time>2013-08-25T09:52:07.000Z</time>
      </trkpt>
      <trkpt lat="45.54879" lon="6.10859">
        <ele>654.59997558594</ele>
        <time>2013-08-25T09:52:08.000Z</time>
      </trkpt>
      <trkpt lat="45.54875" lon="6.10859">
        <ele>654.20001220703</ele>
        <time>2013-08-25T09:52:09.000Z</time>
      </trkpt>
      <trkpt lat="45.5487" lon="6.10859">
        <ele>654</ele>
        <time>2013-08-25T09:52:10.000Z</time>
      </trkpt>
      <trkpt lat="45.54847" lon="6.10856">
        <ele>652.40002441406</ele>
        <time>2013-08-25T09:52:14.000Z</time>
      </trkpt>
      <trkpt lat="45.54835" lon="6.10855">
        <ele>651.20001220703</ele>
        <time>2013-08-25T09:52:16.000Z</time>
      </trkpt>
      <trkpt lat="45.54829" lon="6.10854">
        <ele>651.20001220703</ele>
        <time>2013-08-25T09:52:17.000Z</time>
      </trkpt>
      <trkpt lat="45.54801" lon="6.10852">
        <ele>650.79998779297</ele>
        <time>2013-08-25T09:52:22.000Z</time>
      </trkpt>
      <trkpt lat="45.54786" lon="6.10841">
        <ele>651.59997558594</ele>
        <time>2013-08-25T09:52:26.000Z</time>
      </trkpt>
      <trkpt lat="45.54774" lon="6.10826">
        <ele>652</ele>
        <time>2013-08-25T09:52:30.000Z</time>
      </trkpt>
      <trkpt lat="45.54759" lon="6.10817">
        <ele>650.79998779297</ele>
        <time>2013-08-25T09:52:34.000Z</time>
      </trkpt>
      <trkpt lat="45.54756" lon="6.10814">
        <ele>650.20001220703</ele>
        <time>2013-08-25T09:52:35.000Z</time>
      </trkpt>
      <trkpt lat="45.54748" lon="6.10808">
        <ele>648.79998779297</ele>
        <time>2013-08-25T09:52:37.000Z</time>
      </trkpt>
      <trkpt lat="45.54737" lon="6.10799">
        <ele>645.79998779297</ele>
        <time>2013-08-25T09:52:40.000Z</time>
      </trkpt>
      <trkpt lat="45.54727" lon="6.10793">
        <ele>643.40002441406</ele>
        <time>2013-08-25T09:52:43.000Z</time>
      </trkpt>
      <trkpt lat="45.54724" lon="6.10792">
        <ele>642.59997558594</ele>
        <time>2013-08-25T09:52:44.000Z</time>
      </trkpt>
      <trkpt lat="45.54719" lon="6.10788">
        <ele>641.20001220703</ele>
        <time>2013-08-25T09:52:46.000Z</time>
      </trkpt>
      <trkpt lat="45.54716" lon="6.10785">
        <ele>640.40002441406</ele>
        <time>2013-08-25T09:52:47.000Z</time>
      </trkpt>
      <trkpt lat="45.54709" lon="6.10775">
        <ele>638.20001220703</ele>
        <time>2013-08-25T09:52:50.000Z</time>
      </trkpt>
      <trkpt lat="45.54707" lon="6.10771">
        <ele>637.40002441406</ele>
        <time>2013-08-25T09:52:51.000Z</time>
      </trkpt>
      <trkpt lat="45.54701" lon="6.10757">
        <ele>634.79998779297</ele>
        <time>2013-08-25T09:52:54.000Z</time>
      </trkpt>
      <trkpt lat="45.54689" lon="6.10731">
        <ele>630.79998779297</ele>
        <time>2013-08-25T09:52:59.000Z</time>
      </trkpt>
      <trkpt lat="45.54684" lon="6.10715">
        <ele>628.20001220703</ele>
        <time>2013-08-25T09:53:02.000Z</time>
      </trkpt>
      <trkpt lat="45.5468" lon="6.10704">
        <ele>626</ele>
        <time>2013-08-25T09:53:04.000Z</time>
      </trkpt>
      <trkpt lat="45.54675" lon="6.10683">
        <ele>622</ele>
        <time>2013-08-25T09:53:07.000Z</time>
      </trkpt>
      <trkpt lat="45.54666" lon="6.10665">
        <ele>616</ele>
        <time>2013-08-25T09:53:10.000Z</time>
      </trkpt>
      <trkpt lat="45.54662" lon="6.1066">
        <ele>614.79998779297</ele>
        <time>2013-08-25T09:53:11.000Z</time>
      </trkpt>
      <trkpt lat="45.54657" lon="6.10656">
        <ele>613.40002441406</ele>
        <time>2013-08-25T09:53:12.000Z</time>
      </trkpt>
      <trkpt lat="45.54652" lon="6.10652">
        <ele>611.59997558594</ele>
        <time>2013-08-25T09:53:13.000Z</time>
      </trkpt>
      <trkpt lat="45.54645" lon="6.10649">
        <ele>609.40002441406</ele>
        <time>2013-08-25T09:53:14.000Z</time>
      </trkpt>
      <trkpt lat="45.54639" lon="6.10646">
        <ele>606.79998779297</ele>
        <time>2013-08-25T09:53:15.000Z</time>
      </trkpt>
      <trkpt lat="45.54625" lon="6.10641">
        <ele>601</ele>
        <time>2013-08-25T09:53:17.000Z</time>
      </trkpt>
      <trkpt lat="45.54612" lon="6.10638">
        <ele>595.40002441406</ele>
        <time>2013-08-25T09:53:19.000Z</time>
      </trkpt>
      <trkpt lat="45.54606" lon="6.10636">
        <ele>592.59997558594</ele>
        <time>2013-08-25T09:53:20.000Z</time>
      </trkpt>
      <trkpt lat="45.54594" lon="6.1063">
        <ele>587.40002441406</ele>
        <time>2013-08-25T09:53:22.000Z</time>
      </trkpt>
      <trkpt lat="45.54588" lon="6.10618">
        <ele>584.79998779297</ele>
        <time>2013-08-25T09:53:23.000Z</time>
      </trkpt>
      <trkpt lat="45.5457" lon="6.10576">
        <ele>576</ele>
        <time>2013-08-25T09:53:29.000Z</time>
      </trkpt>
      <trkpt lat="45.54557" lon="6.1055">
        <ele>571.79998779297</ele>
        <time>2013-08-25T09:53:33.000Z</time>
      </trkpt>
      <trkpt lat="45.54555" lon="6.10545">
        <ele>571.59997558594</ele>
        <time>2013-08-25T09:53:34.000Z</time>
      </trkpt>
      <trkpt lat="45.54544" lon="6.10532">
        <ele>566.79998779297</ele>
        <time>2013-08-25T09:53:36.000Z</time>
      </trkpt>
      <trkpt lat="45.54535" lon="6.10513">
        <ele>563.59997558594</ele>
        <time>2013-08-25T09:53:39.000Z</time>
      </trkpt>
      <trkpt lat="45.54529" lon="6.1049">
        <ele>562.20001220703</ele>
        <time>2013-08-25T09:53:43.000Z</time>
      </trkpt>
      <trkpt lat="45.54507" lon="6.10478">
        <ele>550.20001220703</ele>
        <time>2013-08-25T09:53:48.000Z</time>
      </trkpt>
      <trkpt lat="45.54498" lon="6.10473">
        <ele>545.59997558594</ele>
        <time>2013-08-25T09:53:51.000Z</time>
      </trkpt>
      <trkpt lat="45.54488" lon="6.10464">
        <ele>542.59997558594</ele>
        <time>2013-08-25T09:53:55.000Z</time>
      </trkpt>
      <trkpt lat="45.54471" lon="6.10449">
        <ele>537.40002441406</ele>
        <time>2013-08-25T09:54:00.000Z</time>
      </trkpt>
      <trkpt lat="45.54463" lon="6.10442">
        <ele>534.79998779297</ele>
        <time>2013-08-25T09:54:03.000Z</time>
      </trkpt>
      <trkpt lat="45.54459" lon="6.1044">
        <ele>533.59997558594</ele>
        <time>2013-08-25T09:54:05.000Z</time>
      </trkpt>
      <trkpt lat="45.54453" lon="6.10437">
        <ele>531.59997558594</ele>
        <time>2013-08-25T09:54:09.000Z</time>
      </trkpt>
      <trkpt lat="45.54449" lon="6.10435">
        <ele>530.59997558594</ele>
        <time>2013-08-25T09:54:11.000Z</time>
      </trkpt>
      <trkpt lat="45.54441" lon="6.10436">
        <ele>527.40002441406</ele>
        <time>2013-08-25T09:54:14.000Z</time>
      </trkpt>
      <trkpt lat="45.54438" lon="6.10436">
        <ele>526.20001220703</ele>
        <time>2013-08-25T09:54:15.000Z</time>
      </trkpt>
      <trkpt lat="45.54428" lon="6.10437">
        <ele>522</ele>
        <time>2013-08-25T09:54:18.000Z</time>
      </trkpt>
      <trkpt lat="45.54394" lon="6.10436">
        <ele>510.20001220703</ele>
        <time>2013-08-25T09:54:21.000Z</time>
      </trkpt>
      <trkpt lat="45.5436" lon="6.10443">
        <ele>497.60000610352</ele>
        <time>2013-08-25T09:54:24.000Z</time>
      </trkpt>
      <trkpt lat="45.54323" lon="6.10447">
        <ele>485.39999389648</ele>
        <time>2013-08-25T09:54:27.000Z</time>
      </trkpt>
      <trkpt lat="45.543" lon="6.10444">
        <ele>479</ele>
        <time>2013-08-25T09:54:30.000Z</time>
      </trkpt>
      <trkpt lat="45.54291" lon="6.1044">
        <ele>477</ele>
        <time>2013-08-25T09:54:33.000Z</time>
      </trkpt>
      <trkpt lat="45.54291" lon="6.10433">
        <ele>478</ele>
        <time>2013-08-25T09:54:35.000Z</time>
      </trkpt>
      <trkpt lat="45.54267" lon="6.10437">
        <ele>470.39999389648</ele>
        <time>2013-08-25T09:54:38.000Z</time>
      </trkpt>
      <trkpt lat="45.54241" lon="6.10448">
        <ele>461.79998779297</ele>
        <time>2013-08-25T09:54:40.000Z</time>
      </trkpt>
      <trkpt lat="45.54216" lon="6.10454">
        <ele>455</ele>
        <time>2013-08-25T09:54:44.000Z</time>
      </trkpt>
      <trkpt lat="45.54212" lon="6.10453">
        <ele>454.20001220703</ele>
        <time>2013-08-25T09:54:45.000Z</time>
      </trkpt>
      <trkpt lat="45.54211" lon="6.10455">
        <ele>453.60000610352</ele>
        <time>2013-08-25T09:54:46.000Z</time>
      </trkpt>
      <trkpt lat="45.54194" lon="6.10463">
        <ele>448.79998779297</ele>
        <time>2013-08-25T09:54:54.000Z</time>
      </trkpt>
      <trkpt lat="45.54189" lon="6.10467">
        <ele>447</ele>
        <time>2013-08-25T09:54:55.000Z</time>
      </trkpt>
      <trkpt lat="45.54183" lon="6.10469">
        <ele>445.60000610352</ele>
        <time>2013-08-25T09:54:56.000Z</time>
      </trkpt>
      <trkpt lat="45.54179" lon="6.10471">
        <ele>444.39999389648</ele>
        <time>2013-08-25T09:54:57.000Z</time>
      </trkpt>
      <trkpt lat="45.54173" lon="6.10475">
        <ele>442.60000610352</ele>
        <time>2013-08-25T09:54:58.000Z</time>
      </trkpt>
      <trkpt lat="45.54168" lon="6.10478">
        <ele>441</ele>
        <time>2013-08-25T09:54:59.000Z</time>
      </trkpt>
      <trkpt lat="45.54161" lon="6.1048">
        <ele>439.39999389648</ele>
        <time>2013-08-25T09:55:00.000Z</time>
      </trkpt>
      <trkpt lat="45.54153" lon="6.10484">
        <ele>437.39999389648</ele>
        <time>2013-08-25T09:55:01.000Z</time>
      </trkpt>
      <trkpt lat="45.54145" lon="6.10487">
        <ele>435.60000610352</ele>
        <time>2013-08-25T09:55:02.000Z</time>
      </trkpt>
      <trkpt lat="45.54133" lon="6.1049">
        <ele>432.79998779297</ele>
        <time>2013-08-25T09:55:04.000Z</time>
      </trkpt>
      <trkpt lat="45.54127" lon="6.10488">
        <ele>432</ele>
        <time>2013-08-25T09:55:05.000Z</time>
      </trkpt>
      <trkpt lat="45.54123" lon="6.10483">
        <ele>431.20001220703</ele>
        <time>2013-08-25T09:55:06.000Z</time>
      </trkpt>
      <trkpt lat="45.54118" lon="6.10475">
        <ele>430.60000610352</ele>
        <time>2013-08-25T09:55:07.000Z</time>
      </trkpt>
      <trkpt lat="45.54115" lon="6.10465">
        <ele>430.20001220703</ele>
        <time>2013-08-25T09:55:08.000Z</time>
      </trkpt>
      <trkpt lat="45.54111" lon="6.10456">
        <ele>429.79998779297</ele>
        <time>2013-08-25T09:55:09.000Z</time>
      </trkpt>
      <trkpt lat="45.54108" lon="6.10444">
        <ele>429.60000610352</ele>
        <time>2013-08-25T09:55:10.000Z</time>
      </trkpt>
      <trkpt lat="45.541" lon="6.10404">
        <ele>429</ele>
        <time>2013-08-25T09:55:13.000Z</time>
      </trkpt>
      <trkpt lat="45.54091" lon="6.10367">
        <ele>428.20001220703</ele>
        <time>2013-08-25T09:55:16.000Z</time>
      </trkpt>
      <trkpt lat="45.54083" lon="6.10343">
        <ele>427.39999389648</ele>
        <time>2013-08-25T09:55:18.000Z</time>
      </trkpt>
      <trkpt lat="45.54042" lon="6.10274">
        <ele>426.79998779297</ele>
        <time>2013-08-25T09:55:25.000Z</time>
      </trkpt>
      <trkpt lat="45.54005" lon="6.1024">
        <ele>422</ele>
        <time>2013-08-25T09:55:30.000Z</time>
      </trkpt>
      <trkpt lat="45.53996" lon="6.10234">
        <ele>422</ele>
        <time>2013-08-25T09:55:31.000Z</time>
      </trkpt>
      <trkpt lat="45.53977" lon="6.10222">
        <ele>423.79998779297</ele>
        <time>2013-08-25T09:55:33.000Z</time>
      </trkpt>
      <trkpt lat="45.53934" lon="6.10198">
        <ele>426</ele>
        <time>2013-08-25T09:55:37.000Z</time>
      </trkpt>
      <trkpt lat="45.53909" lon="6.1019">
        <ele>426</ele>
        <time>2013-08-25T09:55:40.000Z</time>
      </trkpt>
      <trkpt lat="45.53833" lon="6.10184">
        <ele>427.20001220703</ele>
        <time>2013-08-25T09:55:50.000Z</time>
      </trkpt>
      <trkpt lat="45.53827" lon="6.10185">
        <ele>427</ele>
        <time>2013-08-25T09:55:51.000Z</time>
      </trkpt>
      <trkpt lat="45.5382" lon="6.10185">
        <ele>426.79998779297</ele>
        <time>2013-08-25T09:55:52.000Z</time>
      </trkpt>
      <trkpt lat="45.53814" lon="6.10186">
        <ele>426.60000610352</ele>
        <time>2013-08-25T09:55:53.000Z</time>
      </trkpt>
      <trkpt lat="45.53797" lon="6.10198">
        <ele>424.60000610352</ele>
        <time>2013-08-25T09:55:57.000Z</time>
      </trkpt>
      <trkpt lat="45.53789" lon="6.10215">
        <ele>422.20001220703</ele>
        <time>2013-08-25T09:56:01.000Z</time>
      </trkpt>
      <trkpt lat="45.53787" lon="6.10219">
        <ele>421.60000610352</ele>
        <time>2013-08-25T09:56:02.000Z</time>
      </trkpt>
      <trkpt lat="45.53779" lon="6.10231">
        <ele>419.60000610352</ele>
        <time>2013-08-25T09:56:06.000Z</time>
      </trkpt>
      <trkpt lat="45.53777" lon="6.10234">
        <ele>419</ele>
        <time>2013-08-25T09:56:07.000Z</time>
      </trkpt>
      <trkpt lat="45.53775" lon="6.10236">
        <ele>418.60000610352</ele>
        <time>2013-08-25T09:56:08.000Z</time>
      </trkpt>
      <trkpt lat="45.53763" lon="6.10244">
        <ele>416.79998779297</ele>
        <time>2013-08-25T09:56:13.000Z</time>
      </trkpt>
      <trkpt lat="45.53742" lon="6.10231">
        <ele>416</ele>
        <time>2013-08-25T09:56:19.000Z</time>
      </trkpt>
      <trkpt lat="45.53741" lon="6.10222">
        <ele>417.39999389648</ele>
        <time>2013-08-25T09:56:20.000Z</time>
      </trkpt>
      <trkpt lat="45.53733" lon="6.10212">
        <ele>417.39999389648</ele>
        <time>2013-08-25T09:56:23.000Z</time>
      </trkpt>
      <trkpt lat="45.53731" lon="6.1021">
        <ele>417.39999389648</ele>
        <time>2013-08-25T09:56:24.000Z</time>
      </trkpt>
      <trkpt lat="45.53718" lon="6.10203">
        <ele>416</ele>
        <time>2013-08-25T09:56:28.000Z</time>
      </trkpt>
      <trkpt lat="45.53709" lon="6.102">
        <ele>415</ele>
        <time>2013-08-25T09:56:30.000Z</time>
      </trkpt>
      <trkpt lat="45.53692" lon="6.10196">
        <ele>413</ele>
        <time>2013-08-25T09:56:33.000Z</time>
      </trkpt>
      <trkpt lat="45.5367" lon="6.10192">
        <ele>410</ele>
        <time>2013-08-25T09:56:36.000Z</time>
      </trkpt>
      <trkpt lat="45.53656" lon="6.10188">
        <ele>408.60000610352</ele>
        <time>2013-08-25T09:56:38.000Z</time>
      </trkpt>
      <trkpt lat="45.53621" lon="6.10179">
        <ele>403.60000610352</ele>
        <time>2013-08-25T09:56:43.000Z</time>
      </trkpt>
      <trkpt lat="45.53614" lon="6.10178">
        <ele>402.60000610352</ele>
        <time>2013-08-25T09:56:44.000Z</time>
      </trkpt>
      <trkpt lat="45.53582" lon="6.1017">
        <ele>397</ele>
        <time>2013-08-25T09:56:49.000Z</time>
      </trkpt>
      <trkpt lat="45.53575" lon="6.10169">
        <ele>396.60000610352</ele>
        <time>2013-08-25T09:56:50.000Z</time>
      </trkpt>
      <trkpt lat="45.5354" lon="6.10155">
        <ele>396.39999389648</ele>
        <time>2013-08-25T09:56:55.000Z</time>
      </trkpt>
      <trkpt lat="45.53533" lon="6.10152">
        <ele>396.20001220703</ele>
        <time>2013-08-25T09:56:56.000Z</time>
      </trkpt>
      <trkpt lat="45.53509" lon="6.10143">
        <ele>394.60000610352</ele>
        <time>2013-08-25T09:56:59.000Z</time>
      </trkpt>
      <trkpt lat="45.53486" lon="6.10139">
        <ele>395.20001220703</ele>
        <time>2013-08-25T09:57:02.000Z</time>
      </trkpt>
      <trkpt lat="45.53479" lon="6.10137">
        <ele>396.20001220703</ele>
        <time>2013-08-25T09:57:03.000Z</time>
      </trkpt>
      <trkpt lat="45.53472" lon="6.10135">
        <ele>397.20001220703</ele>
        <time>2013-08-25T09:57:04.000Z</time>
      </trkpt>
      <trkpt lat="45.53413" lon="6.10092">
        <ele>414</ele>
        <time>2013-08-25T09:57:13.000Z</time>
      </trkpt>
      <trkpt lat="45.53406" lon="6.10089">
        <ele>414.60000610352</ele>
        <time>2013-08-25T09:57:14.000Z</time>
      </trkpt>
      <trkpt lat="45.53336" lon="6.10047">
        <ele>419.79998779297</ele>
        <time>2013-08-25T09:57:28.000Z</time>
      </trkpt>
      <trkpt lat="45.53338" lon="6.10044">
        <ele>420.39999389648</ele>
        <time>2013-08-25T09:57:38.000Z</time>
      </trkpt>
      <trkpt lat="45.53339" lon="6.10042">
        <ele>420.79998779297</ele>
        <time>2013-08-25T09:57:39.000Z</time>
      </trkpt>
      <trkpt lat="45.53343" lon="6.10023">
        <ele>425</ele>
        <time>2013-08-25T09:57:46.000Z</time>
      </trkpt>
      <trkpt lat="45.5335" lon="6.10015">
        <ele>426.39999389648</ele>
        <time>2013-08-25T09:57:50.000Z</time>
      </trkpt>
      <trkpt lat="45.53353" lon="6.10007">
        <ele>427.79998779297</ele>
        <time>2013-08-25T09:57:54.000Z</time>
      </trkpt>
      <trkpt lat="45.53353" lon="6.10002">
        <ele>428.79998779297</ele>
        <time>2013-08-25T09:57:56.000Z</time>
      </trkpt>
      <trkpt lat="45.53353" lon="6.1">
        <ele>429.20001220703</ele>
        <time>2013-08-25T09:57:57.000Z</time>
      </trkpt>
      <trkpt lat="45.53354" lon="6.09993">
        <ele>429.39999389648</ele>
        <time>2013-08-25T09:58:00.000Z</time>
      </trkpt>
      <trkpt lat="45.53353" lon="6.09989">
        <ele>429.60000610352</ele>
        <time>2013-08-25T09:58:02.000Z</time>
      </trkpt>
      <trkpt lat="45.53353" lon="6.09987">
        <ele>429.60000610352</ele>
        <time>2013-08-25T09:58:03.000Z</time>
      </trkpt>
      <trkpt lat="45.53352" lon="6.09984">
        <ele>429.79998779297</ele>
        <time>2013-08-25T09:58:05.000Z</time>
      </trkpt>
      <trkpt lat="45.53351" lon="6.09977">
        <ele>430.20001220703</ele>
        <time>2013-08-25T09:58:08.000Z</time>
      </trkpt>
      <trkpt lat="45.53355" lon="6.09968">
        <ele>430.20001220703</ele>
        <time>2013-08-25T09:58:11.000Z</time>
      </trkpt>
      <trkpt lat="45.53355" lon="6.09964">
        <ele>430.20001220703</ele>
        <time>2013-08-25T09:58:12.000Z</time>
      </trkpt>
      <trkpt lat="45.53356" lon="6.09958">
        <ele>430.39999389648</ele>
        <time>2013-08-25T09:58:14.000Z</time>
      </trkpt>
      <trkpt lat="45.53366" lon="6.0987">
        <ele>428</ele>
        <time>2013-08-25T09:58:35.000Z</time>
      </trkpt>
      <trkpt lat="45.53366" lon="6.09863">
        <ele>427.60000610352</ele>
        <time>2013-08-25T09:58:37.000Z</time>
      </trkpt>
      <trkpt lat="45.53366" lon="6.0985">
        <ele>427</ele>
        <time>2013-08-25T09:58:40.000Z</time>
      </trkpt>
      <trkpt lat="45.53356" lon="6.09822">
        <ele>424.39999389648</ele>
        <time>2013-08-25T09:58:50.000Z</time>
      </trkpt>
      <trkpt lat="45.53354" lon="6.09819">
        <ele>424</ele>
        <time>2013-08-25T09:58:52.000Z</time>
      </trkpt>
      <trkpt lat="45.53353" lon="6.09818">
        <ele>423.79998779297</ele>
        <time>2013-08-25T09:58:53.000Z</time>
      </trkpt>
      <trkpt lat="45.53352" lon="6.09816">
        <ele>423.39999389648</ele>
        <time>2013-08-25T09:58:54.000Z</time>
      </trkpt>
      <trkpt lat="45.5335" lon="6.09815">
        <ele>423</ele>
        <time>2013-08-25T09:58:55.000Z</time>
      </trkpt>
      <trkpt lat="45.53347" lon="6.09812">
        <ele>422.39999389648</ele>
        <time>2013-08-25T09:58:57.000Z</time>
      </trkpt>
      <trkpt lat="45.53345" lon="6.0981">
        <ele>422</ele>
        <time>2013-08-25T09:58:58.000Z</time>
      </trkpt>
      <trkpt lat="45.53341" lon="6.09806">
        <ele>421</ele>
        <time>2013-08-25T09:59:00.000Z</time>
      </trkpt>
      <trkpt lat="45.53339" lon="6.09804">
        <ele>420.39999389648</ele>
        <time>2013-08-25T09:59:01.000Z</time>
      </trkpt>
      <trkpt lat="45.53337" lon="6.09801">
        <ele>419.60000610352</ele>
        <time>2013-08-25T09:59:02.000Z</time>
      </trkpt>
      <trkpt lat="45.5333" lon="6.09792">
        <ele>417.39999389648</ele>
        <time>2013-08-25T09:59:05.000Z</time>
      </trkpt>
      <trkpt lat="45.53323" lon="6.09778">
        <ele>414.20001220703</ele>
        <time>2013-08-25T09:59:09.000Z</time>
      </trkpt>
      <trkpt lat="45.53316" lon="6.09768">
        <ele>412.20001220703</ele>
        <time>2013-08-25T09:59:12.000Z</time>
      </trkpt>
      <trkpt lat="45.53305" lon="6.09754">
        <ele>409.60000610352</ele>
        <time>2013-08-25T09:59:16.000Z</time>
      </trkpt>
      <trkpt lat="45.53299" lon="6.09746">
        <ele>408.20001220703</ele>
        <time>2013-08-25T09:59:18.000Z</time>
      </trkpt>
      <trkpt lat="45.53291" lon="6.09733">
        <ele>406</ele>
        <time>2013-08-25T09:59:21.000Z</time>
      </trkpt>
      <trkpt lat="45.53272" lon="6.09703">
        <ele>400.39999389648</ele>
        <time>2013-08-25T09:59:25.000Z</time>
      </trkpt>
      <trkpt lat="45.53221" lon="6.0966">
        <ele>391.79998779297</ele>
        <time>2013-08-25T09:59:31.000Z</time>
      </trkpt>
      <trkpt lat="45.53144" lon="6.09569">
        <ele>384</ele>
        <time>2013-08-25T09:59:41.000Z</time>
      </trkpt>
      <trkpt lat="45.53111" lon="6.09529">
        <ele>381.60000610352</ele>
        <time>2013-08-25T09:59:46.000Z</time>
      </trkpt>
      <trkpt lat="45.53091" lon="6.09503">
        <ele>380.39999389648</ele>
        <time>2013-08-25T09:59:49.000Z</time>
      </trkpt>
      <trkpt lat="45.53085" lon="6.09495">
        <ele>379.79998779297</ele>
        <time>2013-08-25T09:59:50.000Z</time>
      </trkpt>
      <trkpt lat="45.53061" lon="6.09464">
        <ele>375.60000610352</ele>
        <time>2013-08-25T09:59:54.000Z</time>
      </trkpt>
      <trkpt lat="45.53055" lon="6.09457">
        <ele>374.79998779297</ele>
        <time>2013-08-25T09:59:55.000Z</time>
      </trkpt>
      <trkpt lat="45.53045" lon="6.09452">
        <ele>373.39999389648</ele>
        <time>2013-08-25T09:59:56.000Z</time>
      </trkpt>
      <trkpt lat="45.53034" lon="6.09436">
        <ele>371.79998779297</ele>
        <time>2013-08-25T09:59:58.000Z</time>
      </trkpt>
      <trkpt lat="45.53029" lon="6.09427">
        <ele>371.20001220703</ele>
        <time>2013-08-25T09:59:59.000Z</time>
      </trkpt>
      <trkpt lat="45.53025" lon="6.09417">
        <ele>370.60000610352</ele>
        <time>2013-08-25T10:00:00.000Z</time>
      </trkpt>
      <trkpt lat="45.53022" lon="6.09407">
        <ele>370.39999389648</ele>
        <time>2013-08-25T10:00:01.000Z</time>
      </trkpt>
      <trkpt lat="45.5302" lon="6.09395">
        <ele>370</ele>
        <time>2013-08-25T10:00:02.000Z</time>
      </trkpt>
      <trkpt lat="45.53019" lon="6.09383">
        <ele>370</ele>
        <time>2013-08-25T10:00:03.000Z</time>
      </trkpt>
      <trkpt lat="45.53021" lon="6.09372">
        <ele>370.20001220703</ele>
        <time>2013-08-25T10:00:04.000Z</time>
      </trkpt>
      <trkpt lat="45.53023" lon="6.09361">
        <ele>370.60000610352</ele>
        <time>2013-08-25T10:00:05.000Z</time>
      </trkpt>
      <trkpt lat="45.53024" lon="6.09351">
        <ele>370.79998779297</ele>
        <time>2013-08-25T10:00:06.000Z</time>
      </trkpt>
      <trkpt lat="45.53029" lon="6.0931">
        <ele>371.60000610352</ele>
        <time>2013-08-25T10:00:10.000Z</time>
      </trkpt>
      <trkpt lat="45.53031" lon="6.09301">
        <ele>371.79998779297</ele>
        <time>2013-08-25T10:00:11.000Z</time>
      </trkpt>
      <trkpt lat="45.53031" lon="6.09293">
        <ele>372</ele>
        <time>2013-08-25T10:00:12.000Z</time>
      </trkpt>
      <trkpt lat="45.5303" lon="6.09286">
        <ele>372</ele>
        <time>2013-08-25T10:00:13.000Z</time>
      </trkpt>
      <trkpt lat="45.53023" lon="6.09261">
        <ele>371.20001220703</ele>
        <time>2013-08-25T10:00:18.000Z</time>
      </trkpt>
      <trkpt lat="45.5301" lon="6.09244">
        <ele>370.20001220703</ele>
        <time>2013-08-25T10:00:22.000Z</time>
      </trkpt>
      <trkpt lat="45.52996" lon="6.09226">
        <ele>369</ele>
        <time>2013-08-25T10:00:26.000Z</time>
      </trkpt>
      <trkpt lat="45.52991" lon="6.09215">
        <ele>368.60000610352</ele>
        <time>2013-08-25T10:00:28.000Z</time>
      </trkpt>
      <trkpt lat="45.52986" lon="6.09206">
        <ele>368.20001220703</ele>
        <time>2013-08-25T10:00:30.000Z</time>
      </trkpt>
      <trkpt lat="45.52983" lon="6.09201">
        <ele>368</ele>
        <time>2013-08-25T10:00:31.000Z</time>
      </trkpt>
      <trkpt lat="45.5298" lon="6.09196">
        <ele>367.79998779297</ele>
        <time>2013-08-25T10:00:32.000Z</time>
      </trkpt>
      <trkpt lat="45.52978" lon="6.0919">
        <ele>367.79998779297</ele>
        <time>2013-08-25T10:00:33.000Z</time>
      </trkpt>
      <trkpt lat="45.52975" lon="6.09184">
        <ele>367.79998779297</ele>
        <time>2013-08-25T10:00:34.000Z</time>
      </trkpt>
      <trkpt lat="45.52974" lon="6.09177">
        <ele>367.79998779297</ele>
        <time>2013-08-25T10:00:35.000Z</time>
      </trkpt>
      <trkpt lat="45.52972" lon="6.09169">
        <ele>367.79998779297</ele>
        <time>2013-08-25T10:00:36.000Z</time>
      </trkpt>
      <trkpt lat="45.52971" lon="6.09162">
        <ele>368</ele>
        <time>2013-08-25T10:00:37.000Z</time>
      </trkpt>
      <trkpt lat="45.52968" lon="6.09148">
        <ele>368.39999389648</ele>
        <time>2013-08-25T10:00:39.000Z</time>
      </trkpt>
      <trkpt lat="45.52967" lon="6.09142">
        <ele>368.60000610352</ele>
        <time>2013-08-25T10:00:40.000Z</time>
      </trkpt>
      <trkpt lat="45.52964" lon="6.0913">
        <ele>368.79998779297</ele>
        <time>2013-08-25T10:00:42.000Z</time>
      </trkpt>
      <trkpt lat="45.52962" lon="6.09126">
        <ele>368.79998779297</ele>
        <time>2013-08-25T10:00:43.000Z</time>
      </trkpt>
      <trkpt lat="45.52952" lon="6.09094">
        <ele>369.20001220703</ele>
        <time>2013-08-25T10:00:49.000Z</time>
      </trkpt>
      <trkpt lat="45.5295" lon="6.09087">
        <ele>369.39999389648</ele>
        <time>2013-08-25T10:00:50.000Z</time>
      </trkpt>
      <trkpt lat="45.52932" lon="6.09023">
        <ele>374.20001220703</ele>
        <time>2013-08-25T10:00:57.000Z</time>
      </trkpt>
      <trkpt lat="45.52928" lon="6.09017">
        <ele>374.39999389648</ele>
        <time>2013-08-25T10:00:58.000Z</time>
      </trkpt>
      <trkpt lat="45.52923" lon="6.09016">
        <ele>374</ele>
        <time>2013-08-25T10:00:59.000Z</time>
      </trkpt>
      <trkpt lat="45.52918" lon="6.09015">
        <ele>373.39999389648</ele>
        <time>2013-08-25T10:01:00.000Z</time>
      </trkpt>
      <trkpt lat="45.52914" lon="6.09015">
        <ele>373.20001220703</ele>
        <time>2013-08-25T10:01:01.000Z</time>
      </trkpt>
      <trkpt lat="45.5291" lon="6.09016">
        <ele>373.20001220703</ele>
        <time>2013-08-25T10:01:02.000Z</time>
      </trkpt>
      <trkpt lat="45.52905" lon="6.09018">
        <ele>373</ele>
        <time>2013-08-25T10:01:03.000Z</time>
      </trkpt>
      <trkpt lat="45.529" lon="6.0902">
        <ele>372.79998779297</ele>
        <time>2013-08-25T10:01:04.000Z</time>
      </trkpt>
      <trkpt lat="45.52895" lon="6.09022">
        <ele>372.60000610352</ele>
        <time>2013-08-25T10:01:05.000Z</time>
      </trkpt>
      <trkpt lat="45.52887" lon="6.09027">
        <ele>372.20001220703</ele>
        <time>2013-08-25T10:01:07.000Z</time>
      </trkpt>
      <trkpt lat="45.52879" lon="6.09028">
        <ele>372</ele>
        <time>2013-08-25T10:01:08.000Z</time>
      </trkpt>
      <trkpt lat="45.52872" lon="6.09031">
        <ele>371.79998779297</ele>
        <time>2013-08-25T10:01:09.000Z</time>
      </trkpt>
      <trkpt lat="45.52864" lon="6.09035">
        <ele>371.39999389648</ele>
        <time>2013-08-25T10:01:10.000Z</time>
      </trkpt>
      <trkpt lat="45.5286" lon="6.09038">
        <ele>371</ele>
        <time>2013-08-25T10:01:11.000Z</time>
      </trkpt>
      <trkpt lat="45.52855" lon="6.09041">
        <ele>370.79998779297</ele>
        <time>2013-08-25T10:01:12.000Z</time>
      </trkpt>
      <trkpt lat="45.52852" lon="6.09046">
        <ele>370.39999389648</ele>
        <time>2013-08-25T10:01:13.000Z</time>
      </trkpt>
      <trkpt lat="45.52847" lon="6.09049">
        <ele>370.20001220703</ele>
        <time>2013-08-25T10:01:14.000Z</time>
      </trkpt>
      <trkpt lat="45.52834" lon="6.09051">
        <ele>370</ele>
        <time>2013-08-25T10:01:17.000Z</time>
      </trkpt>
      <trkpt lat="45.5283" lon="6.09053">
        <ele>369.60000610352</ele>
        <time>2013-08-25T10:01:18.000Z</time>
      </trkpt>
      <trkpt lat="45.52826" lon="6.09055">
        <ele>369.20001220703</ele>
        <time>2013-08-25T10:01:19.000Z</time>
      </trkpt>
      <trkpt lat="45.52822" lon="6.09057">
        <ele>369</ele>
        <time>2013-08-25T10:01:20.000Z</time>
      </trkpt>
      <trkpt lat="45.52817" lon="6.09058">
        <ele>368.60000610352</ele>
        <time>2013-08-25T10:01:21.000Z</time>
      </trkpt>
      <trkpt lat="45.52808" lon="6.09058">
        <ele>368.20001220703</ele>
        <time>2013-08-25T10:01:23.000Z</time>
      </trkpt>
      <trkpt lat="45.52799" lon="6.09058">
        <ele>367.79998779297</ele>
        <time>2013-08-25T10:01:25.000Z</time>
      </trkpt>
      <trkpt lat="45.52794" lon="6.09061">
        <ele>367.39999389648</ele>
        <time>2013-08-25T10:01:26.000Z</time>
      </trkpt>
      <trkpt lat="45.52789" lon="6.09061">
        <ele>367.20001220703</ele>
        <time>2013-08-25T10:01:27.000Z</time>
      </trkpt>
      <trkpt lat="45.52784" lon="6.0906">
        <ele>367</ele>
        <time>2013-08-25T10:01:28.000Z</time>
      </trkpt>
      <trkpt lat="45.52771" lon="6.09057">
        <ele>366.60000610352</ele>
        <time>2013-08-25T10:01:31.000Z</time>
      </trkpt>
      <trkpt lat="45.52765" lon="6.09059">
        <ele>366.20001220703</ele>
        <time>2013-08-25T10:01:32.000Z</time>
      </trkpt>
      <trkpt lat="45.52739" lon="6.09047">
        <ele>364.79998779297</ele>
        <time>2013-08-25T10:01:38.000Z</time>
      </trkpt>
      <trkpt lat="45.52736" lon="6.09042">
        <ele>364.60000610352</ele>
        <time>2013-08-25T10:01:39.000Z</time>
      </trkpt>
      <trkpt lat="45.52732" lon="6.09032">
        <ele>364.39999389648</ele>
        <time>2013-08-25T10:01:41.000Z</time>
      </trkpt>
      <trkpt lat="45.52731" lon="6.09026">
        <ele>364.39999389648</ele>
        <time>2013-08-25T10:01:42.000Z</time>
      </trkpt>
      <trkpt lat="45.5269" lon="6.08902">
        <ele>360.79998779297</ele>
        <time>2013-08-25T10:01:59.000Z</time>
      </trkpt>
      <trkpt lat="45.5268" lon="6.08876">
        <ele>360.39999389648</ele>
        <time>2013-08-25T10:02:02.000Z</time>
      </trkpt>
      <trkpt lat="45.52677" lon="6.08868">
        <ele>360</ele>
        <time>2013-08-25T10:02:03.000Z</time>
      </trkpt>
      <trkpt lat="45.52669" lon="6.08852">
        <ele>359.20001220703</ele>
        <time>2013-08-25T10:02:05.000Z</time>
      </trkpt>
      <trkpt lat="45.52666" lon="6.08846">
        <ele>358.60000610352</ele>
        <time>2013-08-25T10:02:06.000Z</time>
      </trkpt>
      <trkpt lat="45.52657" lon="6.08834">
        <ele>358</ele>
        <time>2013-08-25T10:02:08.000Z</time>
      </trkpt>
      <trkpt lat="45.52652" lon="6.08828">
        <ele>358.39999389648</ele>
        <time>2013-08-25T10:02:09.000Z</time>
      </trkpt>
      <trkpt lat="45.52646" lon="6.08824">
        <ele>358.39999389648</ele>
        <time>2013-08-25T10:02:10.000Z</time>
      </trkpt>
      <trkpt lat="45.52632" lon="6.08814">
        <ele>358.39999389648</ele>
        <time>2013-08-25T10:02:12.000Z</time>
      </trkpt>
      <trkpt lat="45.52626" lon="6.08809">
        <ele>358.20001220703</ele>
        <time>2013-08-25T10:02:13.000Z</time>
      </trkpt>
      <trkpt lat="45.5262" lon="6.08804">
        <ele>358</ele>
        <time>2013-08-25T10:02:14.000Z</time>
      </trkpt>
      <trkpt lat="45.52574" lon="6.08777">
        <ele>354</ele>
        <time>2013-08-25T10:02:20.000Z</time>
      </trkpt>
      <trkpt lat="45.52564" lon="6.08775">
        <ele>353.39999389648</ele>
        <time>2013-08-25T10:02:21.000Z</time>
      </trkpt>
      <trkpt lat="45.52527" lon="6.08766">
        <ele>351</ele>
        <time>2013-08-25T10:02:25.000Z</time>
      </trkpt>
      <trkpt lat="45.52492" lon="6.08753">
        <ele>349.39999389648</ele>
        <time>2013-08-25T10:02:29.000Z</time>
      </trkpt>
      <trkpt lat="45.52484" lon="6.08748">
        <ele>349.39999389648</ele>
        <time>2013-08-25T10:02:30.000Z</time>
      </trkpt>
      <trkpt lat="45.52468" lon="6.08736">
        <ele>349.79998779297</ele>
        <time>2013-08-25T10:02:32.000Z</time>
      </trkpt>
      <trkpt lat="45.52453" lon="6.08722">
        <ele>350.20001220703</ele>
        <time>2013-08-25T10:02:34.000Z</time>
      </trkpt>
      <trkpt lat="45.52446" lon="6.08715">
        <ele>350.20001220703</ele>
        <time>2013-08-25T10:02:35.000Z</time>
      </trkpt>
      <trkpt lat="45.52439" lon="6.08708">
        <ele>350.20001220703</ele>
        <time>2013-08-25T10:02:36.000Z</time>
      </trkpt>
      <trkpt lat="45.52414" lon="6.08686">
        <ele>350</ele>
        <time>2013-08-25T10:02:40.000Z</time>
      </trkpt>
      <trkpt lat="45.52408" lon="6.08683">
        <ele>349.79998779297</ele>
        <time>2013-08-25T10:02:41.000Z</time>
      </trkpt>
      <trkpt lat="45.52372" lon="6.08667">
        <ele>349.20001220703</ele>
        <time>2013-08-25T10:02:47.000Z</time>
      </trkpt>
      <trkpt lat="45.52368" lon="6.08665">
        <ele>349.39999389648</ele>
        <time>2013-08-25T10:02:48.000Z</time>
      </trkpt>
      <trkpt lat="45.52363" lon="6.08663">
        <ele>349.39999389648</ele>
        <time>2013-08-25T10:02:49.000Z</time>
      </trkpt>
      <trkpt lat="45.52357" lon="6.0866">
        <ele>349.39999389648</ele>
        <time>2013-08-25T10:02:50.000Z</time>
      </trkpt>
      <trkpt lat="45.52348" lon="6.08657">
        <ele>349.39999389648</ele>
        <time>2013-08-25T10:02:52.000Z</time>
      </trkpt>
      <trkpt lat="45.52344" lon="6.08656">
        <ele>349.20001220703</ele>
        <time>2013-08-25T10:02:53.000Z</time>
      </trkpt>
      <trkpt lat="45.52337" lon="6.08652">
        <ele>349.39999389648</ele>
        <time>2013-08-25T10:02:56.000Z</time>
      </trkpt>
      <trkpt lat="45.52334" lon="6.0866">
        <ele>348.39999389648</ele>
        <time>2013-08-25T10:03:06.000Z</time>
      </trkpt>
      <trkpt lat="45.52334" lon="6.08661">
        <ele>348.39999389648</ele>
        <time>2013-08-25T10:03:22.000Z</time>
      </trkpt>
      <trkpt lat="45.5233" lon="6.08666">
        <ele>347.79998779297</ele>
        <time>2013-08-25T10:03:40.000Z</time>
      </trkpt>
      <trkpt lat="45.52338" lon="6.08664">
        <ele>348.20001220703</ele>
        <time>2013-08-25T10:03:59.000Z</time>
      </trkpt>
      <trkpt lat="45.52342" lon="6.08664">
        <ele>348.39999389648</ele>
        <time>2013-08-25T10:04:21.000Z</time>
      </trkpt>
      <trkpt lat="45.52351" lon="6.08661">
        <ele>349</ele>
        <time>2013-08-25T10:04:41.000Z</time>
      </trkpt>
      <trkpt lat="45.52348" lon="6.08659">
        <ele>349.20001220703</ele>
        <time>2013-08-25T10:05:09.000Z</time>
      </trkpt>
      <trkpt lat="45.52348" lon="6.08659">
        <ele>349.20001220703</ele>
        <time>2013-08-25T10:05:31.000Z</time>
      </trkpt>
      <trkpt lat="45.52347" lon="6.0866">
        <ele>349</ele>
        <time>2013-08-25T10:05:50.000Z</time>
      </trkpt>
      <trkpt lat="45.52347" lon="6.0866">
        <ele>349</ele>
        <time>2013-08-25T10:05:56.000Z</time>
      </trkpt>
      <trkpt lat="45.52347" lon="6.0866">
        <ele>349</ele>
        <time>2013-08-25T10:06:04.000Z</time>
      </trkpt>
      <trkpt lat="45.52344" lon="6.08663">
        <ele>348.60000610352</ele>
        <time>2013-08-25T10:06:46.000Z</time>
      </trkpt>
      <trkpt lat="45.52344" lon="6.08665">
        <ele>348.39999389648</ele>
        <time>2013-08-25T10:07:27.000Z</time>
      </trkpt>
      <trkpt lat="45.52344" lon="6.08665">
        <ele>348.39999389648</ele>
        <time>2013-08-25T10:07:28.000Z</time>
      </trkpt>
      <trkpt lat="45.52344" lon="6.08666">
        <ele>348.39999389648</ele>
        <time>2013-08-25T10:07:44.000Z</time>
      </trkpt>
      <trkpt lat="45.52344" lon="6.08666">
        <ele>348.39999389648</ele>
        <time>2013-08-25T10:08:00.000Z</time>
      </trkpt>
      <trkpt lat="45.52344" lon="6.08666">
        <ele>348.39999389648</ele>
        <time>2013-08-25T10:08:23.000Z</time>
      </trkpt>
      <trkpt lat="45.52344" lon="6.08666">
        <ele>348.39999389648</ele>
        <time>2013-08-25T10:08:38.000Z</time>
      </trkpt>
      <trkpt lat="45.52343" lon="6.08666">
        <ele>348.39999389648</ele>
        <time>2013-08-25T10:08:52.000Z</time>
      </trkpt>
      <trkpt lat="45.52329" lon="6.08667">
        <ele>347.79998779297</ele>
        <time>2013-08-25T10:09:09.000Z</time>
      </trkpt>
      <trkpt lat="45.52332" lon="6.0867">
        <ele>347.79998779297</ele>
        <time>2013-08-25T10:09:34.000Z</time>
      </trkpt>
      <trkpt lat="45.52333" lon="6.08668">
        <ele>347.79998779297</ele>
        <time>2013-08-25T10:09:51.000Z</time>
      </trkpt>
      <trkpt lat="45.52334" lon="6.08667">
        <ele>348</ele>
        <time>2013-08-25T10:09:52.000Z</time>
      </trkpt>
      <trkpt lat="45.52335" lon="6.08666">
        <ele>348</ele>
        <time>2013-08-25T10:09:53.000Z</time>
      </trkpt>
      <trkpt lat="45.52338" lon="6.08666">
        <ele>348.20001220703</ele>
        <time>2013-08-25T10:10:04.000Z</time>
      </trkpt>
      <trkpt lat="45.52338" lon="6.08666">
        <ele>348.20001220703</ele>
        <time>2013-08-25T10:10:08.000Z</time>
      </trkpt>
      <trkpt lat="45.52338" lon="6.08666">
        <ele>348.20001220703</ele>
        <time>2013-08-25T10:10:09.000Z</time>
      </trkpt>
      <trkpt lat="45.52338" lon="6.08666">
        <ele>348.20001220703</ele>
        <time>2013-08-25T10:10:10.000Z</time>
      </trkpt>
      <trkpt lat="45.52337" lon="6.08666">
        <ele>348</ele>
        <time>2013-08-25T10:10:26.000Z</time>
      </trkpt>
      <trkpt lat="45.52334" lon="6.0867">
        <ele>347.79998779297</ele>
        <time>2013-08-25T10:10:54.000Z</time>
      </trkpt>
      <trkpt lat="45.52332" lon="6.08666">
        <ele>347.79998779297</ele>
        <time>2013-08-25T10:11:18.000Z</time>
      </trkpt>
      <trkpt lat="45.52334" lon="6.08663">
        <ele>348.20001220703</ele>
        <time>2013-08-25T10:11:31.000Z</time>
      </trkpt>
      <trkpt lat="45.52337" lon="6.08666">
        <ele>348.20001220703</ele>
        <time>2013-08-25T10:12:03.000Z</time>
      </trkpt>
      <trkpt lat="45.52337" lon="6.08666">
        <ele>348.20001220703</ele>
        <time>2013-08-25T10:12:35.000Z</time>
      </trkpt>
      <trkpt lat="45.5234" lon="6.08666">
        <ele>348.20001220703</ele>
        <time>2013-08-25T10:13:03.000Z</time>
      </trkpt>
      <trkpt lat="45.52338" lon="6.08665">
        <ele>348.20001220703</ele>
        <time>2013-08-25T10:13:27.000Z</time>
      </trkpt>
      <trkpt lat="45.52332" lon="6.08666">
        <ele>348</ele>
        <time>2013-08-25T10:13:45.000Z</time>
      </trkpt>
      <trkpt lat="45.52334" lon="6.08656">
        <ele>348.79998779297</ele>
        <time>2013-08-25T10:13:54.000Z</time>
      </trkpt>
      <trkpt lat="45.52316" lon="6.08622">
        <ele>351.20001220703</ele>
        <time>2013-08-25T10:14:07.000Z</time>
      </trkpt>
      <trkpt lat="45.52294" lon="6.08589">
        <ele>353.79998779297</ele>
        <time>2013-08-25T10:14:23.000Z</time>
      </trkpt>
      <trkpt lat="45.5229" lon="6.08585">
        <ele>354.20001220703</ele>
        <time>2013-08-25T10:14:25.000Z</time>
      </trkpt>
      <trkpt lat="45.52288" lon="6.08583">
        <ele>354.39999389648</ele>
        <time>2013-08-25T10:14:26.000Z</time>
      </trkpt>
      <trkpt lat="45.52283" lon="6.08579">
        <ele>354.60000610352</ele>
        <time>2013-08-25T10:14:28.000Z</time>
      </trkpt>
      <trkpt lat="45.52279" lon="6.08578">
        <ele>354.60000610352</ele>
        <time>2013-08-25T10:14:29.000Z</time>
      </trkpt>
      <trkpt lat="45.52234" lon="6.08547">
        <ele>354.20001220703</ele>
        <time>2013-08-25T10:14:46.000Z</time>
      </trkpt>
      <trkpt lat="45.52231" lon="6.08544">
        <ele>354.20001220703</ele>
        <time>2013-08-25T10:14:47.000Z</time>
      </trkpt>
      <trkpt lat="45.52193" lon="6.08502">
        <ele>353.60000610352</ele>
        <time>2013-08-25T10:14:58.000Z</time>
      </trkpt>
      <trkpt lat="45.52191" lon="6.08499">
        <ele>353.79998779297</ele>
        <time>2013-08-25T10:14:59.000Z</time>
      </trkpt>
      <trkpt lat="45.52189" lon="6.08495">
        <ele>354</ele>
        <time>2013-08-25T10:15:00.000Z</time>
      </trkpt>
      <trkpt lat="45.52185" lon="6.08485">
        <ele>354.39999389648</ele>
        <time>2013-08-25T10:15:02.000Z</time>
      </trkpt>
      <trkpt lat="45.52182" lon="6.08481">
        <ele>354.60000610352</ele>
        <time>2013-08-25T10:15:03.000Z</time>
      </trkpt>
      <trkpt lat="45.5218" lon="6.08477">
        <ele>354.79998779297</ele>
        <time>2013-08-25T10:15:04.000Z</time>
      </trkpt>
      <trkpt lat="45.52178" lon="6.08474">
        <ele>354.79998779297</ele>
        <time>2013-08-25T10:15:05.000Z</time>
      </trkpt>
      <trkpt lat="45.5217" lon="6.0846">
        <ele>355.20001220703</ele>
        <time>2013-08-25T10:15:09.000Z</time>
      </trkpt>
      <trkpt lat="45.52159" lon="6.08446">
        <ele>354.39999389648</ele>
        <time>2013-08-25T10:15:14.000Z</time>
      </trkpt>
      <trkpt lat="45.52157" lon="6.08443">
        <ele>354.39999389648</ele>
        <time>2013-08-25T10:15:15.000Z</time>
      </trkpt>
      <trkpt lat="45.52155" lon="6.0844">
        <ele>354.20001220703</ele>
        <time>2013-08-25T10:15:16.000Z</time>
      </trkpt>
      <trkpt lat="45.52152" lon="6.08437">
        <ele>354</ele>
        <time>2013-08-25T10:15:17.000Z</time>
      </trkpt>
      <trkpt lat="45.5215" lon="6.08434">
        <ele>353.79998779297</ele>
        <time>2013-08-25T10:15:18.000Z</time>
      </trkpt>
      <trkpt lat="45.52147" lon="6.08431">
        <ele>353.60000610352</ele>
        <time>2013-08-25T10:15:19.000Z</time>
      </trkpt>
      <trkpt lat="45.52128" lon="6.08414">
        <ele>352.39999389648</ele>
        <time>2013-08-25T10:15:25.000Z</time>
      </trkpt>
      <trkpt lat="45.52097" lon="6.08358">
        <ele>353.20001220703</ele>
        <time>2013-08-25T10:15:36.000Z</time>
      </trkpt>
      <trkpt lat="45.52092" lon="6.08353">
        <ele>353</ele>
        <time>2013-08-25T10:15:37.000Z</time>
      </trkpt>
      <trkpt lat="45.52087" lon="6.08349">
        <ele>353</ele>
        <time>2013-08-25T10:15:38.000Z</time>
      </trkpt>
      <trkpt lat="45.52073" lon="6.08337">
        <ele>352.20001220703</ele>
        <time>2013-08-25T10:15:41.000Z</time>
      </trkpt>
      <trkpt lat="45.52065" lon="6.08329">
        <ele>351.60000610352</ele>
        <time>2013-08-25T10:15:43.000Z</time>
      </trkpt>
      <trkpt lat="45.5206" lon="6.08325">
        <ele>351.60000610352</ele>
        <time>2013-08-25T10:15:44.000Z</time>
      </trkpt>
      <trkpt lat="45.5204" lon="6.08309">
        <ele>350.39999389648</ele>
        <time>2013-08-25T10:15:49.000Z</time>
      </trkpt>
      <trkpt lat="45.52" lon="6.0827">
        <ele>348.79998779297</ele>
        <time>2013-08-25T10:15:58.000Z</time>
      </trkpt>
      <trkpt lat="45.51985" lon="6.08256">
        <ele>348.39999389648</ele>
        <time>2013-08-25T10:16:01.000Z</time>
      </trkpt>
      <trkpt lat="45.5196" lon="6.08233">
        <ele>347.39999389648</ele>
        <time>2013-08-25T10:16:06.000Z</time>
      </trkpt>
      <trkpt lat="45.51955" lon="6.08229">
        <ele>347.20001220703</ele>
        <time>2013-08-25T10:16:07.000Z</time>
      </trkpt>
      <trkpt lat="45.51951" lon="6.08225">
        <ele>347</ele>
        <time>2013-08-25T10:16:08.000Z</time>
      </trkpt>
      <trkpt lat="45.51947" lon="6.0822">
        <ele>346.79998779297</ele>
        <time>2013-08-25T10:16:09.000Z</time>
      </trkpt>
      <trkpt lat="45.51943" lon="6.08216">
        <ele>346.60000610352</ele>
        <time>2013-08-25T10:16:10.000Z</time>
      </trkpt>
      <trkpt lat="45.5194" lon="6.08211">
        <ele>346.60000610352</ele>
        <time>2013-08-25T10:16:11.000Z</time>
      </trkpt>
      <trkpt lat="45.51934" lon="6.08201">
        <ele>346.39999389648</ele>
        <time>2013-08-25T10:16:13.000Z</time>
      </trkpt>
      <trkpt lat="45.51931" lon="6.08197">
        <ele>346.20001220703</ele>
        <time>2013-08-25T10:16:14.000Z</time>
      </trkpt>
      <trkpt lat="45.51928" lon="6.08192">
        <ele>346.20001220703</ele>
        <time>2013-08-25T10:16:15.000Z</time>
      </trkpt>
      <trkpt lat="45.51923" lon="6.08184">
        <ele>345.79998779297</ele>
        <time>2013-08-25T10:16:17.000Z</time>
      </trkpt>
      <trkpt lat="45.51914" lon="6.08172">
        <ele>345</ele>
        <time>2013-08-25T10:16:21.000Z</time>
      </trkpt>
      <trkpt lat="45.51912" lon="6.08169">
        <ele>344.79998779297</ele>
        <time>2013-08-25T10:16:22.000Z</time>
      </trkpt>
      <trkpt lat="45.51897" lon="6.08144">
        <ele>343.79998779297</ele>
        <time>2013-08-25T10:16:28.000Z</time>
      </trkpt>
      <trkpt lat="45.51891" lon="6.08136">
        <ele>343.60000610352</ele>
        <time>2013-08-25T10:16:30.000Z</time>
      </trkpt>
      <trkpt lat="45.51889" lon="6.08132">
        <ele>343.39999389648</ele>
        <time>2013-08-25T10:16:31.000Z</time>
      </trkpt>
      <trkpt lat="45.51884" lon="6.08124">
        <ele>343.39999389648</ele>
        <time>2013-08-25T10:16:33.000Z</time>
      </trkpt>
      <trkpt lat="45.51872" lon="6.08102">
        <ele>343.20001220703</ele>
        <time>2013-08-25T10:16:39.000Z</time>
      </trkpt>
      <trkpt lat="45.51871" lon="6.08099">
        <ele>343.20001220703</ele>
        <time>2013-08-25T10:16:40.000Z</time>
      </trkpt>
      <trkpt lat="45.51858" lon="6.08076">
        <ele>343.20001220703</ele>
        <time>2013-08-25T10:16:46.000Z</time>
      </trkpt>
      <trkpt lat="45.51828" lon="6.08023">
        <ele>343.39999389648</ele>
        <time>2013-08-25T10:16:56.000Z</time>
      </trkpt>
      <trkpt lat="45.51806" lon="6.07981">
        <ele>343.60000610352</ele>
        <time>2013-08-25T10:17:02.000Z</time>
      </trkpt>
      <trkpt lat="45.51802" lon="6.07974">
        <ele>343.79998779297</ele>
        <time>2013-08-25T10:17:03.000Z</time>
      </trkpt>
      <trkpt lat="45.51799" lon="6.0797">
        <ele>343.60000610352</ele>
        <time>2013-08-25T10:17:04.000Z</time>
      </trkpt>
      <trkpt lat="45.51783" lon="6.0795">
        <ele>342</ele>
        <time>2013-08-25T10:17:16.000Z</time>
      </trkpt>
      <trkpt lat="45.51782" lon="6.07948">
        <ele>342.39999389648</ele>
        <time>2013-08-25T10:17:17.000Z</time>
      </trkpt>
      <trkpt lat="45.51782" lon="6.07945">
        <ele>342.60000610352</ele>
        <time>2013-08-25T10:17:18.000Z</time>
      </trkpt>
      <trkpt lat="45.51782" lon="6.0793">
        <ele>345</ele>
        <time>2013-08-25T10:17:25.000Z</time>
      </trkpt>
      <trkpt lat="45.51775" lon="6.07899">
        <ele>346.79998779297</ele>
        <time>2013-08-25T10:17:38.000Z</time>
      </trkpt>
      <trkpt lat="45.51774" lon="6.07896">
        <ele>347</ele>
        <time>2013-08-25T10:17:39.000Z</time>
      </trkpt>
      <trkpt lat="45.51773" lon="6.07893">
        <ele>347</ele>
        <time>2013-08-25T10:17:40.000Z</time>
      </trkpt>
      <trkpt lat="45.51772" lon="6.07891">
        <ele>346.79998779297</ele>
        <time>2013-08-25T10:17:41.000Z</time>
      </trkpt>
      <trkpt lat="45.51771" lon="6.07888">
        <ele>347</ele>
        <time>2013-08-25T10:17:42.000Z</time>
      </trkpt>
      <trkpt lat="45.51766" lon="6.07875">
        <ele>347</ele>
        <time>2013-08-25T10:17:46.000Z</time>
      </trkpt>
      <trkpt lat="45.51735" lon="6.07823">
        <ele>345.60000610352</ele>
        <time>2013-08-25T10:18:00.000Z</time>
      </trkpt>
      <trkpt lat="45.51713" lon="6.0779">
        <ele>344.60000610352</ele>
        <time>2013-08-25T10:18:08.000Z</time>
      </trkpt>
      <trkpt lat="45.51711" lon="6.07785">
        <ele>344.60000610352</ele>
        <time>2013-08-25T10:18:09.000Z</time>
      </trkpt>
      <trkpt lat="45.51708" lon="6.0778">
        <ele>344.60000610352</ele>
        <time>2013-08-25T10:18:10.000Z</time>
      </trkpt>
      <trkpt lat="45.51705" lon="6.07776">
        <ele>344.60000610352</ele>
        <time>2013-08-25T10:18:11.000Z</time>
      </trkpt>
      <trkpt lat="45.51703" lon="6.07772">
        <ele>344.20001220703</ele>
        <time>2013-08-25T10:18:12.000Z</time>
      </trkpt>
      <trkpt lat="45.517" lon="6.07768">
        <ele>344.20001220703</ele>
        <time>2013-08-25T10:18:13.000Z</time>
      </trkpt>
      <trkpt lat="45.51688" lon="6.0775">
        <ele>343.20001220703</ele>
        <time>2013-08-25T10:18:17.000Z</time>
      </trkpt>
      <trkpt lat="45.51683" lon="6.07741">
        <ele>343.20001220703</ele>
        <time>2013-08-25T10:18:19.000Z</time>
      </trkpt>
      <trkpt lat="45.5168" lon="6.07737">
        <ele>343.20001220703</ele>
        <time>2013-08-25T10:18:20.000Z</time>
      </trkpt>
      <trkpt lat="45.51677" lon="6.07732">
        <ele>343.20001220703</ele>
        <time>2013-08-25T10:18:21.000Z</time>
      </trkpt>
      <trkpt lat="45.51651" lon="6.07696">
        <ele>341.60000610352</ele>
        <time>2013-08-25T10:18:31.000Z</time>
      </trkpt>
      <trkpt lat="45.51649" lon="6.07693">
        <ele>341.20001220703</ele>
        <time>2013-08-25T10:18:32.000Z</time>
      </trkpt>
      <trkpt lat="45.51645" lon="6.07685">
        <ele>341.20001220703</ele>
        <time>2013-08-25T10:18:34.000Z</time>
      </trkpt>
      <trkpt lat="45.51643" lon="6.07681">
        <ele>341</ele>
        <time>2013-08-25T10:18:35.000Z</time>
      </trkpt>
      <trkpt lat="45.51638" lon="6.07674">
        <ele>340.79998779297</ele>
        <time>2013-08-25T10:18:37.000Z</time>
      </trkpt>
      <trkpt lat="45.51636" lon="6.07671">
        <ele>340.60000610352</ele>
        <time>2013-08-25T10:18:38.000Z</time>
      </trkpt>
      <trkpt lat="45.51634" lon="6.07668">
        <ele>340.39999389648</ele>
        <time>2013-08-25T10:18:39.000Z</time>
      </trkpt>
      <trkpt lat="45.5163" lon="6.07661">
        <ele>340.20001220703</ele>
        <time>2013-08-25T10:18:41.000Z</time>
      </trkpt>
      <trkpt lat="45.51617" lon="6.07632">
        <ele>340.79998779297</ele>
        <time>2013-08-25T10:18:47.000Z</time>
      </trkpt>
      <trkpt lat="45.51605" lon="6.07606">
        <ele>341.60000610352</ele>
        <time>2013-08-25T10:18:51.000Z</time>
      </trkpt>
      <trkpt lat="45.51601" lon="6.07599">
        <ele>341.60000610352</ele>
        <time>2013-08-25T10:18:52.000Z</time>
      </trkpt>
      <trkpt lat="45.51597" lon="6.07593">
        <ele>341.39999389648</ele>
        <time>2013-08-25T10:18:53.000Z</time>
      </trkpt>
      <trkpt lat="45.51571" lon="6.07567">
        <ele>338.60000610352</ele>
        <time>2013-08-25T10:18:58.000Z</time>
      </trkpt>
      <trkpt lat="45.5156" lon="6.0756">
        <ele>337.20001220703</ele>
        <time>2013-08-25T10:19:00.000Z</time>
      </trkpt>
      <trkpt lat="45.51548" lon="6.07553">
        <ele>335.60000610352</ele>
        <time>2013-08-25T10:19:02.000Z</time>
      </trkpt>
      <trkpt lat="45.51528" lon="6.07542">
        <ele>332.60000610352</ele>
        <time>2013-08-25T10:19:05.000Z</time>
      </trkpt>
      <trkpt lat="45.51511" lon="6.07532">
        <ele>330.39999389648</ele>
        <time>2013-08-25T10:19:07.000Z</time>
      </trkpt>
      <trkpt lat="45.51463" lon="6.07502">
        <ele>325.20001220703</ele>
        <time>2013-08-25T10:19:13.000Z</time>
      </trkpt>
      <trkpt lat="45.51454" lon="6.07497">
        <ele>324</ele>
        <time>2013-08-25T10:19:14.000Z</time>
      </trkpt>
      <trkpt lat="45.51445" lon="6.0749">
        <ele>323</ele>
        <time>2013-08-25T10:19:15.000Z</time>
      </trkpt>
      <trkpt lat="45.51438" lon="6.07483">
        <ele>322.60000610352</ele>
        <time>2013-08-25T10:19:16.000Z</time>
      </trkpt>
      <trkpt lat="45.51419" lon="6.07459">
        <ele>321.20001220703</ele>
        <time>2013-08-25T10:19:19.000Z</time>
      </trkpt>
      <trkpt lat="45.51396" lon="6.07432">
        <ele>319.79998779297</ele>
        <time>2013-08-25T10:19:23.000Z</time>
      </trkpt>
      <trkpt lat="45.51381" lon="6.07412">
        <ele>318.60000610352</ele>
        <time>2013-08-25T10:19:26.000Z</time>
      </trkpt>
      <trkpt lat="45.51363" lon="6.07383">
        <ele>319</ele>
        <time>2013-08-25T10:19:30.000Z</time>
      </trkpt>
      <trkpt lat="45.51334" lon="6.07335">
        <ele>317.79998779297</ele>
        <time>2013-08-25T10:19:38.000Z</time>
      </trkpt>
      <trkpt lat="45.5133" lon="6.07329">
        <ele>318</ele>
        <time>2013-08-25T10:19:39.000Z</time>
      </trkpt>
      <trkpt lat="45.51308" lon="6.07295">
        <ele>319.39999389648</ele>
        <time>2013-08-25T10:19:44.000Z</time>
      </trkpt>
      <trkpt lat="45.51298" lon="6.07281">
        <ele>319.20001220703</ele>
        <time>2013-08-25T10:19:46.000Z</time>
      </trkpt>
      <trkpt lat="45.51293" lon="6.07274">
        <ele>318.79998779297</ele>
        <time>2013-08-25T10:19:47.000Z</time>
      </trkpt>
      <trkpt lat="45.5127" lon="6.07245">
        <ele>316.60000610352</ele>
        <time>2013-08-25T10:19:51.000Z</time>
      </trkpt>
      <trkpt lat="45.51248" lon="6.07214">
        <ele>313.79998779297</ele>
        <time>2013-08-25T10:19:55.000Z</time>
      </trkpt>
      <trkpt lat="45.51233" lon="6.07192">
        <ele>313.60000610352</ele>
        <time>2013-08-25T10:19:58.000Z</time>
      </trkpt>
      <trkpt lat="45.51229" lon="6.07185">
        <ele>313.60000610352</ele>
        <time>2013-08-25T10:19:59.000Z</time>
      </trkpt>
      <trkpt lat="45.51226" lon="6.07177">
        <ele>313.79998779297</ele>
        <time>2013-08-25T10:20:00.000Z</time>
      </trkpt>
      <trkpt lat="45.51224" lon="6.07169">
        <ele>314.20001220703</ele>
        <time>2013-08-25T10:20:01.000Z</time>
      </trkpt>
      <trkpt lat="45.51222" lon="6.07161">
        <ele>314.79998779297</ele>
        <time>2013-08-25T10:20:02.000Z</time>
      </trkpt>
      <trkpt lat="45.51215" lon="6.07124">
        <ele>316.79998779297</ele>
        <time>2013-08-25T10:20:07.000Z</time>
      </trkpt>
      <trkpt lat="45.51212" lon="6.07118">
        <ele>317</ele>
        <time>2013-08-25T10:20:08.000Z</time>
      </trkpt>
      <trkpt lat="45.51201" lon="6.07093">
        <ele>316.79998779297</ele>
        <time>2013-08-25T10:20:12.000Z</time>
      </trkpt>
      <trkpt lat="45.51199" lon="6.07087">
        <ele>317</ele>
        <time>2013-08-25T10:20:13.000Z</time>
      </trkpt>
      <trkpt lat="45.51168" lon="6.06989">
        <ele>315.20001220703</ele>
        <time>2013-08-25T10:20:29.000Z</time>
      </trkpt>
      <trkpt lat="45.51166" lon="6.06983">
        <ele>315.20001220703</ele>
        <time>2013-08-25T10:20:30.000Z</time>
      </trkpt>
      <trkpt lat="45.51158" lon="6.06964">
        <ele>315.20001220703</ele>
        <time>2013-08-25T10:20:33.000Z</time>
      </trkpt>
      <trkpt lat="45.5115" lon="6.06948">
        <ele>315</ele>
        <time>2013-08-25T10:20:36.000Z</time>
      </trkpt>
      <trkpt lat="45.51146" lon="6.06936">
        <ele>315</ele>
        <time>2013-08-25T10:20:38.000Z</time>
      </trkpt>
      <trkpt lat="45.51144" lon="6.06931">
        <ele>315.20001220703</ele>
        <time>2013-08-25T10:20:39.000Z</time>
      </trkpt>
      <trkpt lat="45.51118" lon="6.06869">
        <ele>314.79998779297</ele>
        <time>2013-08-25T10:20:53.000Z</time>
      </trkpt>
      <trkpt lat="45.51109" lon="6.06842">
        <ele>315.39999389648</ele>
        <time>2013-08-25T10:20:59.000Z</time>
      </trkpt>
      <trkpt lat="45.51109" lon="6.0684">
        <ele>315.60000610352</ele>
        <time>2013-08-25T10:21:00.000Z</time>
      </trkpt>
      <trkpt lat="45.51109" lon="6.06838">
        <ele>315.79998779297</ele>
        <time>2013-08-25T10:21:01.000Z</time>
      </trkpt>
      <trkpt lat="45.51108" lon="6.06836">
        <ele>315.79998779297</ele>
        <time>2013-08-25T10:21:02.000Z</time>
      </trkpt>
      <trkpt lat="45.51107" lon="6.06833">
        <ele>316</ele>
        <time>2013-08-25T10:21:03.000Z</time>
      </trkpt>
      <trkpt lat="45.51106" lon="6.06828">
        <ele>316</ele>
        <time>2013-08-25T10:21:04.000Z</time>
      </trkpt>
      <trkpt lat="45.51102" lon="6.06818">
        <ele>316.20001220703</ele>
        <time>2013-08-25T10:21:06.000Z</time>
      </trkpt>
      <trkpt lat="45.51098" lon="6.06791">
        <ele>317.60000610352</ele>
        <time>2013-08-25T10:21:10.000Z</time>
      </trkpt>
      <trkpt lat="45.51098" lon="6.06785">
        <ele>318.20001220703</ele>
        <time>2013-08-25T10:21:11.000Z</time>
      </trkpt>
      <trkpt lat="45.51102" lon="6.06773">
        <ele>319.79998779297</ele>
        <time>2013-08-25T10:21:21.000Z</time>
      </trkpt>
      <trkpt lat="45.51102" lon="6.06773">
        <ele>319.79998779297</ele>
        <time>2013-08-25T10:21:33.000Z</time>
      </trkpt>
      <trkpt lat="45.51102" lon="6.06773">
        <ele>319.79998779297</ele>
        <time>2013-08-25T10:21:35.000Z</time>
      </trkpt>
      <trkpt lat="45.51102" lon="6.06773">
        <ele>319.79998779297</ele>
        <time>2013-08-25T10:21:40.000Z</time>
      </trkpt>
      <trkpt lat="45.51103" lon="6.0677">
        <ele>320</ele>
        <time>2013-08-25T10:21:53.000Z</time>
      </trkpt>
      <trkpt lat="45.51102" lon="6.06768">
        <ele>320.20001220703</ele>
        <time>2013-08-25T10:21:54.000Z</time>
      </trkpt>
      <trkpt lat="45.51102" lon="6.06765">
        <ele>320.39999389648</ele>
        <time>2013-08-25T10:21:55.000Z</time>
      </trkpt>
      <trkpt lat="45.511" lon="6.06762">
        <ele>320.39999389648</ele>
        <time>2013-08-25T10:21:56.000Z</time>
      </trkpt>
      <trkpt lat="45.51099" lon="6.0676">
        <ele>320.39999389648</ele>
        <time>2013-08-25T10:21:57.000Z</time>
      </trkpt>
      <trkpt lat="45.51097" lon="6.06758">
        <ele>320.20001220703</ele>
        <time>2013-08-25T10:21:58.000Z</time>
      </trkpt>
      <trkpt lat="45.51077" lon="6.0674">
        <ele>318.20001220703</ele>
        <time>2013-08-25T10:22:08.000Z</time>
      </trkpt>
      <trkpt lat="45.51042" lon="6.06704">
        <ele>314.60000610352</ele>
        <time>2013-08-25T10:22:22.000Z</time>
      </trkpt>
      <trkpt lat="45.51016" lon="6.06673">
        <ele>312.60000610352</ele>
        <time>2013-08-25T10:22:28.000Z</time>
      </trkpt>
      <trkpt lat="45.51011" lon="6.06665">
        <ele>312.39999389648</ele>
        <time>2013-08-25T10:22:29.000Z</time>
      </trkpt>
      <trkpt lat="45.50992" lon="6.06622">
        <ele>311.79998779297</ele>
        <time>2013-08-25T10:22:35.000Z</time>
      </trkpt>
      <trkpt lat="45.50993" lon="6.06618">
        <ele>312</ele>
        <time>2013-08-25T10:22:36.000Z</time>
      </trkpt>
      <trkpt lat="45.50995" lon="6.06617">
        <ele>312.20001220703</ele>
        <time>2013-08-25T10:22:37.000Z</time>
      </trkpt>
      <trkpt lat="45.50997" lon="6.06616">
        <ele>312.39999389648</ele>
        <time>2013-08-25T10:22:38.000Z</time>
      </trkpt>
      <trkpt lat="45.50998" lon="6.06614">
        <ele>312.60000610352</ele>
        <time>2013-08-25T10:22:39.000Z</time>
      </trkpt>
      <trkpt lat="45.51" lon="6.06612">
        <ele>313</ele>
        <time>2013-08-25T10:22:40.000Z</time>
      </trkpt>
      <trkpt lat="45.51003" lon="6.06612">
        <ele>313.39999389648</ele>
        <time>2013-08-25T10:22:41.000Z</time>
      </trkpt>
      <trkpt lat="45.51005" lon="6.06612">
        <ele>313.79998779297</ele>
        <time>2013-08-25T10:22:42.000Z</time>
      </trkpt>
      <trkpt lat="45.51008" lon="6.06612">
        <ele>314.20001220703</ele>
        <time>2013-08-25T10:22:43.000Z</time>
      </trkpt>
      <trkpt lat="45.51011" lon="6.06612">
        <ele>314.60000610352</ele>
        <time>2013-08-25T10:22:44.000Z</time>
      </trkpt>
      <trkpt lat="45.51013" lon="6.06612">
        <ele>314.79998779297</ele>
        <time>2013-08-25T10:22:45.000Z</time>
      </trkpt>
      <trkpt lat="45.51015" lon="6.06612">
        <ele>315.20001220703</ele>
        <time>2013-08-25T10:22:46.000Z</time>
      </trkpt>
      <trkpt lat="45.51017" lon="6.06612">
        <ele>315.60000610352</ele>
        <time>2013-08-25T10:22:47.000Z</time>
      </trkpt>
      <trkpt lat="45.51026" lon="6.0661">
        <ele>317</ele>
        <time>2013-08-25T10:22:51.000Z</time>
      </trkpt>
      <trkpt lat="45.51051" lon="6.06611">
        <ele>321</ele>
        <time>2013-08-25T10:23:05.000Z</time>
      </trkpt>
      <trkpt lat="45.5107" lon="6.06612">
        <ele>324</ele>
        <time>2013-08-25T10:23:16.000Z</time>
      </trkpt>
      <trkpt lat="45.51094" lon="6.06622">
        <ele>327</ele>
        <time>2013-08-25T10:23:31.000Z</time>
      </trkpt>
      <trkpt lat="45.51104" lon="6.06625">
        <ele>328.20001220703</ele>
        <time>2013-08-25T10:23:37.000Z</time>
      </trkpt>
      <trkpt lat="45.51121" lon="6.06633">
        <ele>330.20001220703</ele>
        <time>2013-08-25T10:23:50.000Z</time>
      </trkpt>
      <trkpt lat="45.51128" lon="6.06634">
        <ele>331.39999389648</ele>
        <time>2013-08-25T10:23:55.000Z</time>
      </trkpt>
      <trkpt lat="45.5113" lon="6.06635">
        <ele>331.39999389648</ele>
        <time>2013-08-25T10:23:57.000Z</time>
      </trkpt>
      <trkpt lat="45.51131" lon="6.06637">
        <ele>331.60000610352</ele>
        <time>2013-08-25T10:23:58.000Z</time>
      </trkpt>
      <trkpt lat="45.51132" lon="6.06638">
        <ele>331.60000610352</ele>
        <time>2013-08-25T10:23:59.000Z</time>
      </trkpt>
      <trkpt lat="45.51134" lon="6.0664">
        <ele>331.79998779297</ele>
        <time>2013-08-25T10:24:01.000Z</time>
      </trkpt>
      <trkpt lat="45.51136" lon="6.06644">
        <ele>331.79998779297</ele>
        <time>2013-08-25T10:24:04.000Z</time>
      </trkpt>
      <trkpt lat="45.51137" lon="6.06646">
        <ele>331.60000610352</ele>
        <time>2013-08-25T10:24:05.000Z</time>
      </trkpt>
      <trkpt lat="45.51142" lon="6.0665">
        <ele>332.20001220703</ele>
        <time>2013-08-25T10:24:10.000Z</time>
      </trkpt>
      <trkpt lat="45.51143" lon="6.06652">
        <ele>332.20001220703</ele>
        <time>2013-08-25T10:24:11.000Z</time>
      </trkpt>
      <trkpt lat="45.51144" lon="6.06654">
        <ele>332.20001220703</ele>
        <time>2013-08-25T10:24:12.000Z</time>
      </trkpt>
      <trkpt lat="45.51145" lon="6.06655">
        <ele>332.20001220703</ele>
        <time>2013-08-25T10:24:13.000Z</time>
      </trkpt>
      <trkpt lat="45.51146" lon="6.06657">
        <ele>332.20001220703</ele>
        <time>2013-08-25T10:24:14.000Z</time>
      </trkpt>
      <trkpt lat="45.51147" lon="6.06659">
        <ele>332.20001220703</ele>
        <time>2013-08-25T10:24:15.000Z</time>
      </trkpt>
      <trkpt lat="45.51148" lon="6.0666">
        <ele>332.39999389648</ele>
        <time>2013-08-25T10:24:16.000Z</time>
      </trkpt>
      <trkpt lat="45.51149" lon="6.06661">
        <ele>332.39999389648</ele>
        <time>2013-08-25T10:24:17.000Z</time>
      </trkpt>
      <trkpt lat="45.51151" lon="6.06662">
        <ele>332.60000610352</ele>
        <time>2013-08-25T10:24:18.000Z</time>
      </trkpt>
      <trkpt lat="45.51153" lon="6.06664">
        <ele>332.79998779297</ele>
        <time>2013-08-25T10:24:19.000Z</time>
      </trkpt>
      <trkpt lat="45.51154" lon="6.06664">
        <ele>333</ele>
        <time>2013-08-25T10:24:20.000Z</time>
      </trkpt>
      <trkpt lat="45.51155" lon="6.06666">
        <ele>333</ele>
        <time>2013-08-25T10:24:21.000Z</time>
      </trkpt>
      <trkpt lat="45.51156" lon="6.06667">
        <ele>333.20001220703</ele>
        <time>2013-08-25T10:24:22.000Z</time>
      </trkpt>
      <trkpt lat="45.51177" lon="6.06679">
        <ele>336.39999389648</ele>
        <time>2013-08-25T10:24:36.000Z</time>
      </trkpt>
      <trkpt lat="45.51177" lon="6.0668">
        <ele>336.60000610352</ele>
        <time>2013-08-25T10:24:38.000Z</time>
      </trkpt>
      <trkpt lat="45.51177" lon="6.06681">
        <ele>336.39999389648</ele>
        <time>2013-08-25T10:24:39.000Z</time>
      </trkpt>
      <trkpt lat="45.51174" lon="6.06685">
        <ele>335.60000610352</ele>
        <time>2013-08-25T10:24:48.000Z</time>
      </trkpt>
      <trkpt lat="45.51175" lon="6.06686">
        <ele>335.79998779297</ele>
        <time>2013-08-25T10:25:11.000Z</time>
      </trkpt>
      <trkpt lat="45.51175" lon="6.06684">
        <ele>335.79998779297</ele>
        <time>2013-08-25T10:25:15.000Z</time>
      </trkpt>
      <trkpt lat="45.51178" lon="6.06679">
        <ele>336.79998779297</ele>
        <time>2013-08-25T10:25:23.000Z</time>
      </trkpt>
      <trkpt lat="45.51175" lon="6.06684">
        <ele>335.79998779297</ele>
        <time>2013-08-25T10:25:30.000Z</time>
      </trkpt>
      <trkpt lat="45.51176" lon="6.06686">
        <ele>336</ele>
        <time>2013-08-25T10:25:48.000Z</time>
      </trkpt>
      <trkpt lat="45.5117" lon="6.06693">
        <ele>334.39999389648</ele>
        <time>2013-08-25T10:26:03.000Z</time>
      </trkpt>
      <trkpt lat="45.51167" lon="6.06699">
        <ele>333.39999389648</ele>
        <time>2013-08-25T10:26:22.000Z</time>
      </trkpt>
      <trkpt lat="45.51162" lon="6.0672">
        <ele>331.60000610352</ele>
        <time>2013-08-25T10:26:35.000Z</time>
      </trkpt>
      <trkpt lat="45.51161" lon="6.06729">
        <ele>331</ele>
        <time>2013-08-25T10:26:54.000Z</time>
      </trkpt>
      <trkpt lat="45.51161" lon="6.06732">
        <ele>331</ele>
        <time>2013-08-25T10:27:24.000Z</time>
      </trkpt>
      <trkpt lat="45.51161" lon="6.06732">
        <ele>331</ele>
        <time>2013-08-25T10:27:38.000Z</time>
      </trkpt>
      <trkpt lat="45.51161" lon="6.06733">
        <ele>331</ele>
        <time>2013-08-25T10:27:40.000Z</time>
      </trkpt>
      <trkpt lat="45.51161" lon="6.0673">
        <ele>331</ele>
        <time>2013-08-25T10:27:46.000Z</time>
      </trkpt>
      <trkpt lat="45.51161" lon="6.0673">
        <ele>331</ele>
        <time>2013-08-25T10:27:58.000Z</time>
      </trkpt>
      <trkpt lat="45.51161" lon="6.0673">
        <ele>331</ele>
        <time>2013-08-25T10:28:12.000Z</time>
      </trkpt>
      <trkpt lat="45.51159" lon="6.06731">
        <ele>330.60000610352</ele>
        <time>2013-08-25T10:30:28.000Z</time>
      </trkpt>
      <trkpt lat="45.51159" lon="6.06731">
        <ele>330.60000610352</ele>
        <time>2013-08-25T10:30:31.000Z</time>
      </trkpt>
      <trkpt lat="45.5116" lon="6.06731">
        <ele>330.79998779297</ele>
        <time>2013-08-25T10:30:37.000Z</time>
      </trkpt>
      <trkpt lat="45.51159" lon="6.06722">
        <ele>331.20001220703</ele>
        <time>2013-08-25T10:30:50.000Z</time>
      </trkpt>
      <trkpt lat="45.51158" lon="6.06716">
        <ele>331.20001220703</ele>
        <time>2013-08-25T10:30:55.000Z</time>
      </trkpt>
      <trkpt lat="45.51159" lon="6.06714">
        <ele>331.39999389648</ele>
        <time>2013-08-25T10:31:15.000Z</time>
      </trkpt>
      <trkpt lat="45.51167" lon="6.06706">
        <ele>333</ele>
        <time>2013-08-25T10:31:58.000Z</time>
      </trkpt>
      <trkpt lat="45.51157" lon="6.06708">
        <ele>331.39999389648</ele>
        <time>2013-08-25T10:32:21.000Z</time>
      </trkpt>
      <trkpt lat="45.51158" lon="6.06707">
        <ele>331.60000610352</ele>
        <time>2013-08-25T10:32:26.000Z</time>
      </trkpt>
      <trkpt lat="45.51167" lon="6.067">
        <ele>333.39999389648</ele>
        <time>2013-08-25T10:32:44.000Z</time>
      </trkpt>
      <trkpt lat="45.51172" lon="6.06687">
        <ele>335.20001220703</ele>
        <time>2013-08-25T10:33:05.000Z</time>
      </trkpt>
      <trkpt lat="45.51172" lon="6.06688">
        <ele>335</ele>
        <time>2013-08-25T10:33:13.000Z</time>
      </trkpt>
      <trkpt lat="45.51172" lon="6.06688">
        <ele>335</ele>
        <time>2013-08-25T10:33:18.000Z</time>
      </trkpt>
      <trkpt lat="45.51172" lon="6.06688">
        <ele>335</ele>
        <time>2013-08-25T10:33:19.000Z</time>
      </trkpt>
      <trkpt lat="45.5117" lon="6.06684">
        <ele>334.79998779297</ele>
        <time>2013-08-25T10:33:22.000Z</time>
      </trkpt>
      <trkpt lat="45.5113" lon="6.06635">
        <ele>331.60000610352</ele>
        <time>2013-08-25T10:33:41.000Z</time>
      </trkpt>
      <trkpt lat="45.51122" lon="6.06626">
        <ele>331.20001220703</ele>
        <time>2013-08-25T10:33:43.000Z</time>
      </trkpt>
      <trkpt lat="45.51107" lon="6.06615">
        <ele>329.60000610352</ele>
        <time>2013-08-25T10:33:46.000Z</time>
      </trkpt>
      <trkpt lat="45.51091" lon="6.06601">
        <ele>328.39999389648</ele>
        <time>2013-08-25T10:33:49.000Z</time>
      </trkpt>
      <trkpt lat="45.51077" lon="6.06586">
        <ele>327.60000610352</ele>
        <time>2013-08-25T10:33:52.000Z</time>
      </trkpt>
      <trkpt lat="45.51071" lon="6.06583">
        <ele>326.60000610352</ele>
        <time>2013-08-25T10:33:53.000Z</time>
      </trkpt>
      <trkpt lat="45.51065" lon="6.0658">
        <ele>325.79998779297</ele>
        <time>2013-08-25T10:33:54.000Z</time>
      </trkpt>
      <trkpt lat="45.5106" lon="6.06581">
        <ele>324.79998779297</ele>
        <time>2013-08-25T10:33:55.000Z</time>
      </trkpt>
      <trkpt lat="45.51055" lon="6.06581">
        <ele>324</ele>
        <time>2013-08-25T10:33:56.000Z</time>
      </trkpt>
      <trkpt lat="45.51021" lon="6.06564">
        <ele>319.20001220703</ele>
        <time>2013-08-25T10:34:05.000Z</time>
      </trkpt>
      <trkpt lat="45.51018" lon="6.06561">
        <ele>318.79998779297</ele>
        <time>2013-08-25T10:34:06.000Z</time>
      </trkpt>
      <trkpt lat="45.51015" lon="6.06558">
        <ele>318.39999389648</ele>
        <time>2013-08-25T10:34:07.000Z</time>
      </trkpt>
      <trkpt lat="45.5101" lon="6.06552">
        <ele>318</ele>
        <time>2013-08-25T10:34:09.000Z</time>
      </trkpt>
      <trkpt lat="45.51007" lon="6.06548">
        <ele>317.79998779297</ele>
        <time>2013-08-25T10:34:10.000Z</time>
      </trkpt>
      <trkpt lat="45.50989" lon="6.06513">
        <ele>317.39999389648</ele>
        <time>2013-08-25T10:34:20.000Z</time>
      </trkpt>
      <trkpt lat="45.50988" lon="6.06509">
        <ele>317.60000610352</ele>
        <time>2013-08-25T10:34:21.000Z</time>
      </trkpt>
      <trkpt lat="45.50977" lon="6.06481">
        <ele>317.79998779297</ele>
        <time>2013-08-25T10:34:28.000Z</time>
      </trkpt>
      <trkpt lat="45.50976" lon="6.06476">
        <ele>318</ele>
        <time>2013-08-25T10:34:29.000Z</time>
      </trkpt>
      <trkpt lat="45.50974" lon="6.06472">
        <ele>318</ele>
        <time>2013-08-25T10:34:30.000Z</time>
      </trkpt>
      <trkpt lat="45.50965" lon="6.0645">
        <ele>317.60000610352</ele>
        <time>2013-08-25T10:34:35.000Z</time>
      </trkpt>
      <trkpt lat="45.50963" lon="6.06445">
        <ele>317.60000610352</ele>
        <time>2013-08-25T10:34:36.000Z</time>
      </trkpt>
      <trkpt lat="45.50962" lon="6.0644">
        <ele>317.60000610352</ele>
        <time>2013-08-25T10:34:37.000Z</time>
      </trkpt>
      <trkpt lat="45.5096" lon="6.0643">
        <ele>317.60000610352</ele>
        <time>2013-08-25T10:34:39.000Z</time>
      </trkpt>
      <trkpt lat="45.50959" lon="6.06425">
        <ele>317.79998779297</ele>
        <time>2013-08-25T10:34:40.000Z</time>
      </trkpt>
      <trkpt lat="45.50959" lon="6.06419">
        <ele>317.79998779297</ele>
        <time>2013-08-25T10:34:41.000Z</time>
      </trkpt>
      <trkpt lat="45.50959" lon="6.06414">
        <ele>318</ele>
        <time>2013-08-25T10:34:42.000Z</time>
      </trkpt>
      <trkpt lat="45.50958" lon="6.06409">
        <ele>318</ele>
        <time>2013-08-25T10:34:43.000Z</time>
      </trkpt>
      <trkpt lat="45.50958" lon="6.06404">
        <ele>318.20001220703</ele>
        <time>2013-08-25T10:34:44.000Z</time>
      </trkpt>
      <trkpt lat="45.50958" lon="6.06399">
        <ele>318.39999389648</ele>
        <time>2013-08-25T10:34:45.000Z</time>
      </trkpt>
      <trkpt lat="45.50958" lon="6.06373">
        <ele>319</ele>
        <time>2013-08-25T10:34:50.000Z</time>
      </trkpt>
      <trkpt lat="45.50958" lon="6.06368">
        <ele>319.20001220703</ele>
        <time>2013-08-25T10:34:51.000Z</time>
      </trkpt>
      <trkpt lat="45.50958" lon="6.06363">
        <ele>319.39999389648</ele>
        <time>2013-08-25T10:34:52.000Z</time>
      </trkpt>
      <trkpt lat="45.50959" lon="6.06358">
        <ele>319.79998779297</ele>
        <time>2013-08-25T10:34:53.000Z</time>
      </trkpt>
      <trkpt lat="45.50961" lon="6.06335">
        <ele>321</ele>
        <time>2013-08-25T10:34:56.000Z</time>
      </trkpt>
      <trkpt lat="45.50961" lon="6.06329">
        <ele>321.39999389648</ele>
        <time>2013-08-25T10:34:57.000Z</time>
      </trkpt>
      <trkpt lat="45.50962" lon="6.06325">
        <ele>321.79998779297</ele>
        <time>2013-08-25T10:34:58.000Z</time>
      </trkpt>
      <trkpt lat="45.50962" lon="6.0632">
        <ele>322</ele>
        <time>2013-08-25T10:34:59.000Z</time>
      </trkpt>
      <trkpt lat="45.50962" lon="6.06314">
        <ele>322.39999389648</ele>
        <time>2013-08-25T10:35:00.000Z</time>
      </trkpt>
      <trkpt lat="45.50959" lon="6.06299">
        <ele>322.39999389648</ele>
        <time>2013-08-25T10:35:03.000Z</time>
      </trkpt>
      <trkpt lat="45.50958" lon="6.06294">
        <ele>322.39999389648</ele>
        <time>2013-08-25T10:35:04.000Z</time>
      </trkpt>
      <trkpt lat="45.50957" lon="6.0629">
        <ele>322.39999389648</ele>
        <time>2013-08-25T10:35:05.000Z</time>
      </trkpt>
      <trkpt lat="45.50956" lon="6.06286">
        <ele>322.20001220703</ele>
        <time>2013-08-25T10:35:06.000Z</time>
      </trkpt>
      <trkpt lat="45.50955" lon="6.0628">
        <ele>322.39999389648</ele>
        <time>2013-08-25T10:35:07.000Z</time>
      </trkpt>
      <trkpt lat="45.50954" lon="6.06274">
        <ele>322.39999389648</ele>
        <time>2013-08-25T10:35:08.000Z</time>
      </trkpt>
      <trkpt lat="45.50953" lon="6.06268">
        <ele>322.60000610352</ele>
        <time>2013-08-25T10:35:09.000Z</time>
      </trkpt>
      <trkpt lat="45.50953" lon="6.06262">
        <ele>322.60000610352</ele>
        <time>2013-08-25T10:35:10.000Z</time>
      </trkpt>
      <trkpt lat="45.50952" lon="6.06256">
        <ele>322.79998779297</ele>
        <time>2013-08-25T10:35:11.000Z</time>
      </trkpt>
      <trkpt lat="45.50951" lon="6.06247">
        <ele>323.20001220703</ele>
        <time>2013-08-25T10:35:13.000Z</time>
      </trkpt>
      <trkpt lat="45.50951" lon="6.06238">
        <ele>324.39999389648</ele>
        <time>2013-08-25T10:35:15.000Z</time>
      </trkpt>
      <trkpt lat="45.50946" lon="6.06208">
        <ele>326.60000610352</ele>
        <time>2013-08-25T10:35:21.000Z</time>
      </trkpt>
      <trkpt lat="45.50944" lon="6.06203">
        <ele>326.60000610352</ele>
        <time>2013-08-25T10:35:22.000Z</time>
      </trkpt>
      <trkpt lat="45.50941" lon="6.06198">
        <ele>326.39999389648</ele>
        <time>2013-08-25T10:35:23.000Z</time>
      </trkpt>
      <trkpt lat="45.50938" lon="6.06192">
        <ele>326.20001220703</ele>
        <time>2013-08-25T10:35:24.000Z</time>
      </trkpt>
      <trkpt lat="45.50936" lon="6.06187">
        <ele>326</ele>
        <time>2013-08-25T10:35:25.000Z</time>
      </trkpt>
      <trkpt lat="45.50933" lon="6.06182">
        <ele>325.60000610352</ele>
        <time>2013-08-25T10:35:26.000Z</time>
      </trkpt>
      <trkpt lat="45.5092" lon="6.06163">
        <ele>323.60000610352</ele>
        <time>2013-08-25T10:35:30.000Z</time>
      </trkpt>
      <trkpt lat="45.50917" lon="6.06158">
        <ele>323.20001220703</ele>
        <time>2013-08-25T10:35:31.000Z</time>
      </trkpt>
      <trkpt lat="45.50911" lon="6.06149">
        <ele>323.20001220703</ele>
        <time>2013-08-25T10:35:33.000Z</time>
      </trkpt>
      <trkpt lat="45.50908" lon="6.06144">
        <ele>323.20001220703</ele>
        <time>2013-08-25T10:35:34.000Z</time>
      </trkpt>
      <trkpt lat="45.50905" lon="6.0614">
        <ele>323</ele>
        <time>2013-08-25T10:35:35.000Z</time>
      </trkpt>
      <trkpt lat="45.50902" lon="6.06135">
        <ele>323</ele>
        <time>2013-08-25T10:35:36.000Z</time>
      </trkpt>
      <trkpt lat="45.509" lon="6.06131">
        <ele>323</ele>
        <time>2013-08-25T10:35:37.000Z</time>
      </trkpt>
      <trkpt lat="45.50897" lon="6.06126">
        <ele>322.79998779297</ele>
        <time>2013-08-25T10:35:38.000Z</time>
      </trkpt>
      <trkpt lat="45.50891" lon="6.06113">
        <ele>323.20001220703</ele>
        <time>2013-08-25T10:35:41.000Z</time>
      </trkpt>
      <trkpt lat="45.5089" lon="6.06109">
        <ele>323.39999389648</ele>
        <time>2013-08-25T10:35:42.000Z</time>
      </trkpt>
      <trkpt lat="45.50887" lon="6.06102">
        <ele>323.79998779297</ele>
        <time>2013-08-25T10:35:44.000Z</time>
      </trkpt>
      <trkpt lat="45.50886" lon="6.06099">
        <ele>323.79998779297</ele>
        <time>2013-08-25T10:35:45.000Z</time>
      </trkpt>
      <trkpt lat="45.50884" lon="6.0609">
        <ele>324.39999389648</ele>
        <time>2013-08-25T10:35:48.000Z</time>
      </trkpt>
      <trkpt lat="45.50884" lon="6.06084">
        <ele>325</ele>
        <time>2013-08-25T10:35:50.000Z</time>
      </trkpt>
      <trkpt lat="45.50884" lon="6.06082">
        <ele>325.20001220703</ele>
        <time>2013-08-25T10:35:51.000Z</time>
      </trkpt>
      <trkpt lat="45.50884" lon="6.06079">
        <ele>325.39999389648</ele>
        <time>2013-08-25T10:35:52.000Z</time>
      </trkpt>
      <trkpt lat="45.50884" lon="6.06075">
        <ele>325.60000610352</ele>
        <time>2013-08-25T10:35:53.000Z</time>
      </trkpt>
      <trkpt lat="45.50883" lon="6.06072">
        <ele>325.60000610352</ele>
        <time>2013-08-25T10:35:54.000Z</time>
      </trkpt>
      <trkpt lat="45.50883" lon="6.06069">
        <ele>325.60000610352</ele>
        <time>2013-08-25T10:35:55.000Z</time>
      </trkpt>
      <trkpt lat="45.50882" lon="6.06066">
        <ele>325.60000610352</ele>
        <time>2013-08-25T10:35:56.000Z</time>
      </trkpt>
      <trkpt lat="45.5088" lon="6.06056">
        <ele>325.39999389648</ele>
        <time>2013-08-25T10:36:00.000Z</time>
      </trkpt>
      <trkpt lat="45.50879" lon="6.06052">
        <ele>325.20001220703</ele>
        <time>2013-08-25T10:36:01.000Z</time>
      </trkpt>
      <trkpt lat="45.50877" lon="6.06043">
        <ele>325.20001220703</ele>
        <time>2013-08-25T10:36:03.000Z</time>
      </trkpt>
      <trkpt lat="45.50876" lon="6.06039">
        <ele>325.39999389648</ele>
        <time>2013-08-25T10:36:04.000Z</time>
      </trkpt>
      <trkpt lat="45.50876" lon="6.06035">
        <ele>325.39999389648</ele>
        <time>2013-08-25T10:36:05.000Z</time>
      </trkpt>
      <trkpt lat="45.50875" lon="6.06031">
        <ele>325.39999389648</ele>
        <time>2013-08-25T10:36:06.000Z</time>
      </trkpt>
      <trkpt lat="45.50874" lon="6.06027">
        <ele>325.39999389648</ele>
        <time>2013-08-25T10:36:07.000Z</time>
      </trkpt>
      <trkpt lat="45.50874" lon="6.06023">
        <ele>325.60000610352</ele>
        <time>2013-08-25T10:36:08.000Z</time>
      </trkpt>
      <trkpt lat="45.50874" lon="6.06018">
        <ele>325.79998779297</ele>
        <time>2013-08-25T10:36:09.000Z</time>
      </trkpt>
      <trkpt lat="45.50873" lon="6.06014">
        <ele>325.79998779297</ele>
        <time>2013-08-25T10:36:10.000Z</time>
      </trkpt>
      <trkpt lat="45.50873" lon="6.06009">
        <ele>326</ele>
        <time>2013-08-25T10:36:11.000Z</time>
      </trkpt>
      <trkpt lat="45.50873" lon="6.06004">
        <ele>326.20001220703</ele>
        <time>2013-08-25T10:36:12.000Z</time>
      </trkpt>
      <trkpt lat="45.50873" lon="6.05999">
        <ele>326.60000610352</ele>
        <time>2013-08-25T10:36:13.000Z</time>
      </trkpt>
      <trkpt lat="45.50873" lon="6.05994">
        <ele>327</ele>
        <time>2013-08-25T10:36:14.000Z</time>
      </trkpt>
      <trkpt lat="45.50873" lon="6.0599">
        <ele>327.39999389648</ele>
        <time>2013-08-25T10:36:15.000Z</time>
      </trkpt>
      <trkpt lat="45.50873" lon="6.05987">
        <ele>327.60000610352</ele>
        <time>2013-08-25T10:36:16.000Z</time>
      </trkpt>
      <trkpt lat="45.50873" lon="6.05984">
        <ele>328</ele>
        <time>2013-08-25T10:36:17.000Z</time>
      </trkpt>
      <trkpt lat="45.50874" lon="6.05981">
        <ele>328.39999389648</ele>
        <time>2013-08-25T10:36:18.000Z</time>
      </trkpt>
      <trkpt lat="45.50874" lon="6.05977">
        <ele>328.60000610352</ele>
        <time>2013-08-25T10:36:19.000Z</time>
      </trkpt>
      <trkpt lat="45.50874" lon="6.05971">
        <ele>329.39999389648</ele>
        <time>2013-08-25T10:36:21.000Z</time>
      </trkpt>
      <trkpt lat="45.50873" lon="6.05966">
        <ele>329.60000610352</ele>
        <time>2013-08-25T10:36:22.000Z</time>
      </trkpt>
      <trkpt lat="45.50872" lon="6.05962">
        <ele>329.79998779297</ele>
        <time>2013-08-25T10:36:23.000Z</time>
      </trkpt>
      <trkpt lat="45.50871" lon="6.05959">
        <ele>329.79998779297</ele>
        <time>2013-08-25T10:36:24.000Z</time>
      </trkpt>
      <trkpt lat="45.5087" lon="6.05956">
        <ele>330</ele>
        <time>2013-08-25T10:36:25.000Z</time>
      </trkpt>
      <trkpt lat="45.50869" lon="6.05952">
        <ele>330.20001220703</ele>
        <time>2013-08-25T10:36:26.000Z</time>
      </trkpt>
      <trkpt lat="45.50866" lon="6.05944">
        <ele>330.20001220703</ele>
        <time>2013-08-25T10:36:28.000Z</time>
      </trkpt>
      <trkpt lat="45.50864" lon="6.05939">
        <ele>330.39999389648</ele>
        <time>2013-08-25T10:36:29.000Z</time>
      </trkpt>
      <trkpt lat="45.50859" lon="6.05922">
        <ele>331</ele>
        <time>2013-08-25T10:36:34.000Z</time>
      </trkpt>
      <trkpt lat="45.50859" lon="6.0592">
        <ele>331.20001220703</ele>
        <time>2013-08-25T10:36:35.000Z</time>
      </trkpt>
      <trkpt lat="45.50858" lon="6.05917">
        <ele>331.39999389648</ele>
        <time>2013-08-25T10:36:36.000Z</time>
      </trkpt>
      <trkpt lat="45.50857" lon="6.05914">
        <ele>331.60000610352</ele>
        <time>2013-08-25T10:36:37.000Z</time>
      </trkpt>
      <trkpt lat="45.50853" lon="6.05908">
        <ele>332.20001220703</ele>
        <time>2013-08-25T10:36:39.000Z</time>
      </trkpt>
      <trkpt lat="45.50852" lon="6.05906">
        <ele>332.39999389648</ele>
        <time>2013-08-25T10:36:40.000Z</time>
      </trkpt>
      <trkpt lat="45.50851" lon="6.05904">
        <ele>332.60000610352</ele>
        <time>2013-08-25T10:36:41.000Z</time>
      </trkpt>
      <trkpt lat="45.50847" lon="6.05896">
        <ele>333.39999389648</ele>
        <time>2013-08-25T10:36:45.000Z</time>
      </trkpt>
      <trkpt lat="45.50846" lon="6.05895">
        <ele>333.39999389648</ele>
        <time>2013-08-25T10:36:46.000Z</time>
      </trkpt>
      <trkpt lat="45.50845" lon="6.05893">
        <ele>333.60000610352</ele>
        <time>2013-08-25T10:36:47.000Z</time>
      </trkpt>
      <trkpt lat="45.50844" lon="6.05891">
        <ele>333.79998779297</ele>
        <time>2013-08-25T10:36:48.000Z</time>
      </trkpt>
      <trkpt lat="45.50843" lon="6.05888">
        <ele>334</ele>
        <time>2013-08-25T10:36:49.000Z</time>
      </trkpt>
      <trkpt lat="45.50841" lon="6.05882">
        <ele>334.79998779297</ele>
        <time>2013-08-25T10:36:51.000Z</time>
      </trkpt>
      <trkpt lat="45.50839" lon="6.05879">
        <ele>335</ele>
        <time>2013-08-25T10:36:52.000Z</time>
      </trkpt>
      <trkpt lat="45.50838" lon="6.05876">
        <ele>335.39999389648</ele>
        <time>2013-08-25T10:36:53.000Z</time>
      </trkpt>
      <trkpt lat="45.50837" lon="6.05872">
        <ele>335.79998779297</ele>
        <time>2013-08-25T10:36:55.000Z</time>
      </trkpt>
      <trkpt lat="45.50836" lon="6.05869">
        <ele>336</ele>
        <time>2013-08-25T10:36:56.000Z</time>
      </trkpt>
      <trkpt lat="45.50835" lon="6.05867">
        <ele>336.20001220703</ele>
        <time>2013-08-25T10:36:57.000Z</time>
      </trkpt>
      <trkpt lat="45.50834" lon="6.05865">
        <ele>336.39999389648</ele>
        <time>2013-08-25T10:36:58.000Z</time>
      </trkpt>
      <trkpt lat="45.50833" lon="6.05863">
        <ele>336.60000610352</ele>
        <time>2013-08-25T10:36:59.000Z</time>
      </trkpt>
      <trkpt lat="45.50832" lon="6.05859">
        <ele>337.39999389648</ele>
        <time>2013-08-25T10:37:01.000Z</time>
      </trkpt>
      <trkpt lat="45.50831" lon="6.05857">
        <ele>337.60000610352</ele>
        <time>2013-08-25T10:37:02.000Z</time>
      </trkpt>
      <trkpt lat="45.50831" lon="6.05856">
        <ele>337.79998779297</ele>
        <time>2013-08-25T10:37:03.000Z</time>
      </trkpt>
      <trkpt lat="45.5083" lon="6.05854">
        <ele>338.20001220703</ele>
        <time>2013-08-25T10:37:04.000Z</time>
      </trkpt>
      <trkpt lat="45.50828" lon="6.05852">
        <ele>338.60000610352</ele>
        <time>2013-08-25T10:37:06.000Z</time>
      </trkpt>
      <trkpt lat="45.50827" lon="6.0585">
        <ele>339</ele>
        <time>2013-08-25T10:37:07.000Z</time>
      </trkpt>
      <trkpt lat="45.50826" lon="6.05846">
        <ele>339.79998779297</ele>
        <time>2013-08-25T10:37:09.000Z</time>
      </trkpt>
      <trkpt lat="45.50825" lon="6.05844">
        <ele>340</ele>
        <time>2013-08-25T10:37:10.000Z</time>
      </trkpt>
      <trkpt lat="45.50821" lon="6.05837">
        <ele>341.39999389648</ele>
        <time>2013-08-25T10:37:16.000Z</time>
      </trkpt>
      <trkpt lat="45.50818" lon="6.05833">
        <ele>342.20001220703</ele>
        <time>2013-08-25T10:37:19.000Z</time>
      </trkpt>
      <trkpt lat="45.50817" lon="6.05831">
        <ele>342.39999389648</ele>
        <time>2013-08-25T10:37:20.000Z</time>
      </trkpt>
      <trkpt lat="45.50816" lon="6.05827">
        <ele>343.20001220703</ele>
        <time>2013-08-25T10:37:24.000Z</time>
      </trkpt>
      <trkpt lat="45.50811" lon="6.05822">
        <ele>343.79998779297</ele>
        <time>2013-08-25T10:37:28.000Z</time>
      </trkpt>
      <trkpt lat="45.5081" lon="6.05822">
        <ele>343.79998779297</ele>
        <time>2013-08-25T10:37:29.000Z</time>
      </trkpt>
      <trkpt lat="45.50805" lon="6.05812">
        <ele>345</ele>
        <time>2013-08-25T10:37:36.000Z</time>
      </trkpt>
      <trkpt lat="45.50805" lon="6.0581">
        <ele>345.39999389648</ele>
        <time>2013-08-25T10:37:37.000Z</time>
      </trkpt>
      <trkpt lat="45.50805" lon="6.05808">
        <ele>345.60000610352</ele>
        <time>2013-08-25T10:37:38.000Z</time>
      </trkpt>
      <trkpt lat="45.50805" lon="6.05806">
        <ele>346</ele>
        <time>2013-08-25T10:37:39.000Z</time>
      </trkpt>
      <trkpt lat="45.50805" lon="6.05803">
        <ele>346.20001220703</ele>
        <time>2013-08-25T10:37:40.000Z</time>
      </trkpt>
      <trkpt lat="45.50805" lon="6.05801">
        <ele>346.60000610352</ele>
        <time>2013-08-25T10:37:41.000Z</time>
      </trkpt>
      <trkpt lat="45.50805" lon="6.05799">
        <ele>347</ele>
        <time>2013-08-25T10:37:42.000Z</time>
      </trkpt>
      <trkpt lat="45.50805" lon="6.05794">
        <ele>347.39999389648</ele>
        <time>2013-08-25T10:37:45.000Z</time>
      </trkpt>
      <trkpt lat="45.50804" lon="6.05793">
        <ele>347.60000610352</ele>
        <time>2013-08-25T10:37:46.000Z</time>
      </trkpt>
      <trkpt lat="45.50804" lon="6.0579">
        <ele>348</ele>
        <time>2013-08-25T10:37:48.000Z</time>
      </trkpt>
      <trkpt lat="45.50804" lon="6.05787">
        <ele>348.39999389648</ele>
        <time>2013-08-25T10:37:50.000Z</time>
      </trkpt>
      <trkpt lat="45.50804" lon="6.05786">
        <ele>348.60000610352</ele>
        <time>2013-08-25T10:37:51.000Z</time>
      </trkpt>
      <trkpt lat="45.50804" lon="6.05784">
        <ele>348.60000610352</ele>
        <time>2013-08-25T10:37:52.000Z</time>
      </trkpt>
      <trkpt lat="45.50802" lon="6.05778">
        <ele>349.39999389648</ele>
        <time>2013-08-25T10:37:56.000Z</time>
      </trkpt>
      <trkpt lat="45.508" lon="6.05775">
        <ele>349.39999389648</ele>
        <time>2013-08-25T10:37:58.000Z</time>
      </trkpt>
      <trkpt lat="45.50799" lon="6.05774">
        <ele>349.39999389648</ele>
        <time>2013-08-25T10:37:59.000Z</time>
      </trkpt>
      <trkpt lat="45.50797" lon="6.05773">
        <ele>349.39999389648</ele>
        <time>2013-08-25T10:38:00.000Z</time>
      </trkpt>
      <trkpt lat="45.50789" lon="6.05768">
        <ele>348.60000610352</ele>
        <time>2013-08-25T10:38:04.000Z</time>
      </trkpt>
      <trkpt lat="45.50787" lon="6.05768">
        <ele>348.39999389648</ele>
        <time>2013-08-25T10:38:05.000Z</time>
      </trkpt>
      <trkpt lat="45.50782" lon="6.05763">
        <ele>348</ele>
        <time>2013-08-25T10:38:09.000Z</time>
      </trkpt>
      <trkpt lat="45.50781" lon="6.05756">
        <ele>348.39999389648</ele>
        <time>2013-08-25T10:38:13.000Z</time>
      </trkpt>
      <trkpt lat="45.50781" lon="6.05753">
        <ele>348.60000610352</ele>
        <time>2013-08-25T10:38:15.000Z</time>
      </trkpt>
      <trkpt lat="45.50781" lon="6.05751">
        <ele>348.79998779297</ele>
        <time>2013-08-25T10:38:16.000Z</time>
      </trkpt>
      <trkpt lat="45.50782" lon="6.05748">
        <ele>349.20001220703</ele>
        <time>2013-08-25T10:38:17.000Z</time>
      </trkpt>
      <trkpt lat="45.50782" lon="6.05746">
        <ele>349.39999389648</ele>
        <time>2013-08-25T10:38:18.000Z</time>
      </trkpt>
      <trkpt lat="45.50777" lon="6.05726">
        <ele>350.39999389648</ele>
        <time>2013-08-25T10:38:25.000Z</time>
      </trkpt>
      <trkpt lat="45.50768" lon="6.05689">
        <ele>351</ele>
        <time>2013-08-25T10:38:31.000Z</time>
      </trkpt>
      <trkpt lat="45.50755" lon="6.05626">
        <ele>351.20001220703</ele>
        <time>2013-08-25T10:38:38.000Z</time>
      </trkpt>
      <trkpt lat="45.50738" lon="6.0555">
        <ele>350.39999389648</ele>
        <time>2013-08-25T10:38:45.000Z</time>
      </trkpt>
      <trkpt lat="45.50734" lon="6.05539">
        <ele>349.79998779297</ele>
        <time>2013-08-25T10:38:46.000Z</time>
      </trkpt>
      <trkpt lat="45.5073" lon="6.05529">
        <ele>349.20001220703</ele>
        <time>2013-08-25T10:38:47.000Z</time>
      </trkpt>
      <trkpt lat="45.50727" lon="6.05519">
        <ele>348.60000610352</ele>
        <time>2013-08-25T10:38:48.000Z</time>
      </trkpt>
      <trkpt lat="45.50724" lon="6.05509">
        <ele>348.20001220703</ele>
        <time>2013-08-25T10:38:49.000Z</time>
      </trkpt>
      <trkpt lat="45.50721" lon="6.05499">
        <ele>347.60000610352</ele>
        <time>2013-08-25T10:38:50.000Z</time>
      </trkpt>
      <trkpt lat="45.50718" lon="6.05489">
        <ele>347</ele>
        <time>2013-08-25T10:38:51.000Z</time>
      </trkpt>
      <trkpt lat="45.50715" lon="6.0548">
        <ele>346.39999389648</ele>
        <time>2013-08-25T10:38:52.000Z</time>
      </trkpt>
      <trkpt lat="45.50713" lon="6.05471">
        <ele>346</ele>
        <time>2013-08-25T10:38:53.000Z</time>
      </trkpt>
      <trkpt lat="45.50711" lon="6.05462">
        <ele>345.79998779297</ele>
        <time>2013-08-25T10:38:54.000Z</time>
      </trkpt>
      <trkpt lat="45.50706" lon="6.05429">
        <ele>345.39999389648</ele>
        <time>2013-08-25T10:38:58.000Z</time>
      </trkpt>
      <trkpt lat="45.50706" lon="6.05421">
        <ele>345.60000610352</ele>
        <time>2013-08-25T10:38:59.000Z</time>
      </trkpt>
      <trkpt lat="45.50707" lon="6.05398">
        <ele>347</ele>
        <time>2013-08-25T10:39:02.000Z</time>
      </trkpt>
      <trkpt lat="45.50708" lon="6.05391">
        <ele>347.39999389648</ele>
        <time>2013-08-25T10:39:03.000Z</time>
      </trkpt>
      <trkpt lat="45.50708" lon="6.05376">
        <ele>348.39999389648</ele>
        <time>2013-08-25T10:39:05.000Z</time>
      </trkpt>
      <trkpt lat="45.50709" lon="6.05369">
        <ele>348.79998779297</ele>
        <time>2013-08-25T10:39:06.000Z</time>
      </trkpt>
      <trkpt lat="45.50709" lon="6.05356">
        <ele>349.39999389648</ele>
        <time>2013-08-25T10:39:08.000Z</time>
      </trkpt>
      <trkpt lat="45.50709" lon="6.05338">
        <ele>350.20001220703</ele>
        <time>2013-08-25T10:39:11.000Z</time>
      </trkpt>
      <trkpt lat="45.50709" lon="6.05332">
        <ele>350.39999389648</ele>
        <time>2013-08-25T10:39:12.000Z</time>
      </trkpt>
      <trkpt lat="45.50708" lon="6.05327">
        <ele>351</ele>
        <time>2013-08-25T10:39:13.000Z</time>
      </trkpt>
      <trkpt lat="45.50708" lon="6.05322">
        <ele>351.60000610352</ele>
        <time>2013-08-25T10:39:14.000Z</time>
      </trkpt>
      <trkpt lat="45.50705" lon="6.05308">
        <ele>352.39999389648</ele>
        <time>2013-08-25T10:39:17.000Z</time>
      </trkpt>
      <trkpt lat="45.50675" lon="6.05235">
        <ele>344.79998779297</ele>
        <time>2013-08-25T10:39:29.000Z</time>
      </trkpt>
      <trkpt lat="45.50664" lon="6.05198">
        <ele>342.60000610352</ele>
        <time>2013-08-25T10:39:32.000Z</time>
      </trkpt>
      <trkpt lat="45.50651" lon="6.05161">
        <ele>340.39999389648</ele>
        <time>2013-08-25T10:39:35.000Z</time>
      </trkpt>
      <trkpt lat="45.50629" lon="6.05108">
        <ele>334</ele>
        <time>2013-08-25T10:39:39.000Z</time>
      </trkpt>
      <trkpt lat="45.50615" lon="6.05067">
        <ele>332</ele>
        <time>2013-08-25T10:39:42.000Z</time>
      </trkpt>
      <trkpt lat="45.50603" lon="6.05031">
        <ele>331.79998779297</ele>
        <time>2013-08-25T10:39:45.000Z</time>
      </trkpt>
      <trkpt lat="45.506" lon="6.05018">
        <ele>332</ele>
        <time>2013-08-25T10:39:46.000Z</time>
      </trkpt>
      <trkpt lat="45.50595" lon="6.04998">
        <ele>332.79998779297</ele>
        <time>2013-08-25T10:39:48.000Z</time>
      </trkpt>
      <trkpt lat="45.50592" lon="6.04983">
        <ele>333.79998779297</ele>
        <time>2013-08-25T10:39:50.000Z</time>
      </trkpt>
      <trkpt lat="45.50589" lon="6.04971">
        <ele>334.60000610352</ele>
        <time>2013-08-25T10:39:52.000Z</time>
      </trkpt>
      <trkpt lat="45.50581" lon="6.04955">
        <ele>334.20001220703</ele>
        <time>2013-08-25T10:39:58.000Z</time>
      </trkpt>
      <trkpt lat="45.5058" lon="6.04952">
        <ele>334.60000610352</ele>
        <time>2013-08-25T10:39:59.000Z</time>
      </trkpt>
      <trkpt lat="45.50578" lon="6.0495">
        <ele>334.60000610352</ele>
        <time>2013-08-25T10:40:00.000Z</time>
      </trkpt>
      <trkpt lat="45.50575" lon="6.04946">
        <ele>334.39999389648</ele>
        <time>2013-08-25T10:40:02.000Z</time>
      </trkpt>
      <trkpt lat="45.50572" lon="6.04943">
        <ele>334</ele>
        <time>2013-08-25T10:40:04.000Z</time>
      </trkpt>
      <trkpt lat="45.50571" lon="6.04942">
        <ele>334</ele>
        <time>2013-08-25T10:40:05.000Z</time>
      </trkpt>
      <trkpt lat="45.5057" lon="6.04941">
        <ele>334</ele>
        <time>2013-08-25T10:40:06.000Z</time>
      </trkpt>
      <trkpt lat="45.50569" lon="6.04938">
        <ele>334</ele>
        <time>2013-08-25T10:40:08.000Z</time>
      </trkpt>
      <trkpt lat="45.50568" lon="6.04937">
        <ele>334.20001220703</ele>
        <time>2013-08-25T10:40:09.000Z</time>
      </trkpt>
      <trkpt lat="45.50567" lon="6.04934">
        <ele>334.20001220703</ele>
        <time>2013-08-25T10:40:11.000Z</time>
      </trkpt>
      <trkpt lat="45.50566" lon="6.04933">
        <ele>334.20001220703</ele>
        <time>2013-08-25T10:40:12.000Z</time>
      </trkpt>
      <trkpt lat="45.50565" lon="6.04931">
        <ele>334.20001220703</ele>
        <time>2013-08-25T10:40:13.000Z</time>
      </trkpt>
      <trkpt lat="45.50564" lon="6.04928">
        <ele>334.20001220703</ele>
        <time>2013-08-25T10:40:15.000Z</time>
      </trkpt>
      <trkpt lat="45.50561" lon="6.04923">
        <ele>334.39999389648</ele>
        <time>2013-08-25T10:40:18.000Z</time>
      </trkpt>
      <trkpt lat="45.5056" lon="6.04921">
        <ele>334.39999389648</ele>
        <time>2013-08-25T10:40:19.000Z</time>
      </trkpt>
      <trkpt lat="45.50559" lon="6.04917">
        <ele>334.79998779297</ele>
        <time>2013-08-25T10:40:21.000Z</time>
      </trkpt>
      <trkpt lat="45.50558" lon="6.04915">
        <ele>334.60000610352</ele>
        <time>2013-08-25T10:40:22.000Z</time>
      </trkpt>
      <trkpt lat="45.50557" lon="6.04914">
        <ele>334.39999389648</ele>
        <time>2013-08-25T10:40:23.000Z</time>
      </trkpt>
      <trkpt lat="45.50545" lon="6.04897">
        <ele>332.20001220703</ele>
        <time>2013-08-25T10:40:29.000Z</time>
      </trkpt>
      <trkpt lat="45.50538" lon="6.0489">
        <ele>330.79998779297</ele>
        <time>2013-08-25T10:40:31.000Z</time>
      </trkpt>
      <trkpt lat="45.5053" lon="6.04882">
        <ele>329</ele>
        <time>2013-08-25T10:40:33.000Z</time>
      </trkpt>
      <trkpt lat="45.50523" lon="6.04879">
        <ele>327.39999389648</ele>
        <time>2013-08-25T10:40:34.000Z</time>
      </trkpt>
      <trkpt lat="45.50493" lon="6.04862">
        <ele>320.39999389648</ele>
        <time>2013-08-25T10:40:38.000Z</time>
      </trkpt>
      <trkpt lat="45.50484" lon="6.04856">
        <ele>319.20001220703</ele>
        <time>2013-08-25T10:40:39.000Z</time>
      </trkpt>
      <trkpt lat="45.50461" lon="6.04837">
        <ele>316.20001220703</ele>
        <time>2013-08-25T10:40:42.000Z</time>
      </trkpt>
      <trkpt lat="45.50455" lon="6.0483">
        <ele>315.39999389648</ele>
        <time>2013-08-25T10:40:43.000Z</time>
      </trkpt>
      <trkpt lat="45.50411" lon="6.04777">
        <ele>311.60000610352</ele>
        <time>2013-08-25T10:40:52.000Z</time>
      </trkpt>
      <trkpt lat="45.50407" lon="6.04774">
        <ele>310.79998779297</ele>
        <time>2013-08-25T10:40:53.000Z</time>
      </trkpt>
      <trkpt lat="45.50403" lon="6.04771">
        <ele>310.20001220703</ele>
        <time>2013-08-25T10:40:54.000Z</time>
      </trkpt>
      <trkpt lat="45.50394" lon="6.04767">
        <ele>308.39999389648</ele>
        <time>2013-08-25T10:40:56.000Z</time>
      </trkpt>
      <trkpt lat="45.5039" lon="6.04764">
        <ele>307.79998779297</ele>
        <time>2013-08-25T10:40:57.000Z</time>
      </trkpt>
      <trkpt lat="45.50385" lon="6.04761">
        <ele>307</ele>
        <time>2013-08-25T10:40:58.000Z</time>
      </trkpt>
      <trkpt lat="45.50381" lon="6.04757">
        <ele>306.39999389648</ele>
        <time>2013-08-25T10:40:59.000Z</time>
      </trkpt>
      <trkpt lat="45.50377" lon="6.04754">
        <ele>305.79998779297</ele>
        <time>2013-08-25T10:41:00.000Z</time>
      </trkpt>
      <trkpt lat="45.50374" lon="6.0475">
        <ele>305.20001220703</ele>
        <time>2013-08-25T10:41:01.000Z</time>
      </trkpt>
      <trkpt lat="45.50367" lon="6.04742">
        <ele>303.60000610352</ele>
        <time>2013-08-25T10:41:03.000Z</time>
      </trkpt>
      <trkpt lat="45.50364" lon="6.04738">
        <ele>302.79998779297</ele>
        <time>2013-08-25T10:41:04.000Z</time>
      </trkpt>
      <trkpt lat="45.50361" lon="6.04734">
        <ele>302</ele>
        <time>2013-08-25T10:41:05.000Z</time>
      </trkpt>
      <trkpt lat="45.50359" lon="6.04728">
        <ele>301.39999389648</ele>
        <time>2013-08-25T10:41:06.000Z</time>
      </trkpt>
      <trkpt lat="45.50357" lon="6.04722">
        <ele>301</ele>
        <time>2013-08-25T10:41:07.000Z</time>
      </trkpt>
      <trkpt lat="45.50356" lon="6.04716">
        <ele>300.60000610352</ele>
        <time>2013-08-25T10:41:08.000Z</time>
      </trkpt>
      <trkpt lat="45.50355" lon="6.0471">
        <ele>300.39999389648</ele>
        <time>2013-08-25T10:41:09.000Z</time>
      </trkpt>
      <trkpt lat="45.50355" lon="6.04703">
        <ele>300.20001220703</ele>
        <time>2013-08-25T10:41:10.000Z</time>
      </trkpt>
      <trkpt lat="45.50355" lon="6.04697">
        <ele>300.20001220703</ele>
        <time>2013-08-25T10:41:11.000Z</time>
      </trkpt>
      <trkpt lat="45.50356" lon="6.0469">
        <ele>300.20001220703</ele>
        <time>2013-08-25T10:41:12.000Z</time>
      </trkpt>
      <trkpt lat="45.50359" lon="6.04669">
        <ele>300.60000610352</ele>
        <time>2013-08-25T10:41:15.000Z</time>
      </trkpt>
      <trkpt lat="45.5036" lon="6.04662">
        <ele>300.79998779297</ele>
        <time>2013-08-25T10:41:16.000Z</time>
      </trkpt>
      <trkpt lat="45.50361" lon="6.04655">
        <ele>301.20001220703</ele>
        <time>2013-08-25T10:41:17.000Z</time>
      </trkpt>
      <trkpt lat="45.50362" lon="6.04648">
        <ele>301.39999389648</ele>
        <time>2013-08-25T10:41:18.000Z</time>
      </trkpt>
      <trkpt lat="45.50365" lon="6.04628">
        <ele>302.20001220703</ele>
        <time>2013-08-25T10:41:21.000Z</time>
      </trkpt>
      <trkpt lat="45.50366" lon="6.04621">
        <ele>302.60000610352</ele>
        <time>2013-08-25T10:41:22.000Z</time>
      </trkpt>
      <trkpt lat="45.50367" lon="6.04614">
        <ele>302.79998779297</ele>
        <time>2013-08-25T10:41:23.000Z</time>
      </trkpt>
      <trkpt lat="45.50368" lon="6.04607">
        <ele>303.20001220703</ele>
        <time>2013-08-25T10:41:24.000Z</time>
      </trkpt>
      <trkpt lat="45.50369" lon="6.04599">
        <ele>303.39999389648</ele>
        <time>2013-08-25T10:41:25.000Z</time>
      </trkpt>
      <trkpt lat="45.5037" lon="6.04592">
        <ele>303.79998779297</ele>
        <time>2013-08-25T10:41:26.000Z</time>
      </trkpt>
      <trkpt lat="45.50376" lon="6.04535">
        <ele>302.79998779297</ele>
        <time>2013-08-25T10:41:33.000Z</time>
      </trkpt>
      <trkpt lat="45.50376" lon="6.04527">
        <ele>302.39999389648</ele>
        <time>2013-08-25T10:41:34.000Z</time>
      </trkpt>
      <trkpt lat="45.50377" lon="6.0452">
        <ele>302.20001220703</ele>
        <time>2013-08-25T10:41:35.000Z</time>
      </trkpt>
      <trkpt lat="45.50378" lon="6.04512">
        <ele>302</ele>
        <time>2013-08-25T10:41:36.000Z</time>
      </trkpt>
      <trkpt lat="45.50381" lon="6.04498">
        <ele>301.79998779297</ele>
        <time>2013-08-25T10:41:38.000Z</time>
      </trkpt>
      <trkpt lat="45.50394" lon="6.04443">
        <ele>302.20001220703</ele>
        <time>2013-08-25T10:41:47.000Z</time>
      </trkpt>
      <trkpt lat="45.50399" lon="6.04424">
        <ele>302</ele>
        <time>2013-08-25T10:41:51.000Z</time>
      </trkpt>
      <trkpt lat="45.504" lon="6.04419">
        <ele>302</ele>
        <time>2013-08-25T10:41:52.000Z</time>
      </trkpt>
      <trkpt lat="45.50401" lon="6.04415">
        <ele>301.79998779297</ele>
        <time>2013-08-25T10:41:53.000Z</time>
      </trkpt>
      <trkpt lat="45.50403" lon="6.04404">
        <ele>301.20001220703</ele>
        <time>2013-08-25T10:41:55.000Z</time>
      </trkpt>
      <trkpt lat="45.50404" lon="6.04397">
        <ele>300.79998779297</ele>
        <time>2013-08-25T10:41:56.000Z</time>
      </trkpt>
      <trkpt lat="45.50413" lon="6.04355">
        <ele>298.20001220703</ele>
        <time>2013-08-25T10:42:01.000Z</time>
      </trkpt>
      <trkpt lat="45.50415" lon="6.04344">
        <ele>297.60000610352</ele>
        <time>2013-08-25T10:42:02.000Z</time>
      </trkpt>
      <trkpt lat="45.50424" lon="6.04301">
        <ele>296.20001220703</ele>
        <time>2013-08-25T10:42:06.000Z</time>
      </trkpt>
      <trkpt lat="45.50427" lon="6.0429">
        <ele>296</ele>
        <time>2013-08-25T10:42:07.000Z</time>
      </trkpt>
      <trkpt lat="45.50445" lon="6.04225">
        <ele>294.39999389648</ele>
        <time>2013-08-25T10:42:13.000Z</time>
      </trkpt>
      <trkpt lat="45.50449" lon="6.04204">
        <ele>293</ele>
        <time>2013-08-25T10:42:15.000Z</time>
      </trkpt>
      <trkpt lat="45.50449" lon="6.04138">
        <ele>288</ele>
        <time>2013-08-25T10:42:22.000Z</time>
      </trkpt>
      <trkpt lat="45.50448" lon="6.04109">
        <ele>285.79998779297</ele>
        <time>2013-08-25T10:42:26.000Z</time>
      </trkpt>
      <trkpt lat="45.50449" lon="6.04096">
        <ele>285</ele>
        <time>2013-08-25T10:42:28.000Z</time>
      </trkpt>
      <trkpt lat="45.50451" lon="6.04089">
        <ele>284.79998779297</ele>
        <time>2013-08-25T10:42:29.000Z</time>
      </trkpt>
      <trkpt lat="45.50452" lon="6.04082">
        <ele>284.39999389648</ele>
        <time>2013-08-25T10:42:30.000Z</time>
      </trkpt>
      <trkpt lat="45.50454" lon="6.04075">
        <ele>284.60000610352</ele>
        <time>2013-08-25T10:42:31.000Z</time>
      </trkpt>
      <trkpt lat="45.50455" lon="6.04068">
        <ele>284.79998779297</ele>
        <time>2013-08-25T10:42:32.000Z</time>
      </trkpt>
      <trkpt lat="45.50457" lon="6.0406">
        <ele>285</ele>
        <time>2013-08-25T10:42:33.000Z</time>
      </trkpt>
      <trkpt lat="45.50459" lon="6.04053">
        <ele>285.39999389648</ele>
        <time>2013-08-25T10:42:34.000Z</time>
      </trkpt>
      <trkpt lat="45.50461" lon="6.04045">
        <ele>285.60000610352</ele>
        <time>2013-08-25T10:42:35.000Z</time>
      </trkpt>
      <trkpt lat="45.50463" lon="6.04038">
        <ele>285.79998779297</ele>
        <time>2013-08-25T10:42:36.000Z</time>
      </trkpt>
      <trkpt lat="45.50467" lon="6.04022">
        <ele>286.20001220703</ele>
        <time>2013-08-25T10:42:38.000Z</time>
      </trkpt>
      <trkpt lat="45.50469" lon="6.04014">
        <ele>286.39999389648</ele>
        <time>2013-08-25T10:42:39.000Z</time>
      </trkpt>
      <trkpt lat="45.50473" lon="6.03998">
        <ele>287</ele>
        <time>2013-08-25T10:42:41.000Z</time>
      </trkpt>
      <trkpt lat="45.50475" lon="6.03991">
        <ele>287.39999389648</ele>
        <time>2013-08-25T10:42:42.000Z</time>
      </trkpt>
      <trkpt lat="45.50478" lon="6.03984">
        <ele>287.79998779297</ele>
        <time>2013-08-25T10:42:43.000Z</time>
      </trkpt>
      <trkpt lat="45.5048" lon="6.03978">
        <ele>288.20001220703</ele>
        <time>2013-08-25T10:42:44.000Z</time>
      </trkpt>
      <trkpt lat="45.50483" lon="6.03971">
        <ele>288.60000610352</ele>
        <time>2013-08-25T10:42:45.000Z</time>
      </trkpt>
      <trkpt lat="45.50485" lon="6.03965">
        <ele>289</ele>
        <time>2013-08-25T10:42:46.000Z</time>
      </trkpt>
      <trkpt lat="45.50488" lon="6.03959">
        <ele>289.39999389648</ele>
        <time>2013-08-25T10:42:47.000Z</time>
      </trkpt>
      <trkpt lat="45.5049" lon="6.03953">
        <ele>289.79998779297</ele>
        <time>2013-08-25T10:42:48.000Z</time>
      </trkpt>
      <trkpt lat="45.50494" lon="6.03948">
        <ele>290.20001220703</ele>
        <time>2013-08-25T10:42:49.000Z</time>
      </trkpt>
      <trkpt lat="45.50497" lon="6.03943">
        <ele>290.60000610352</ele>
        <time>2013-08-25T10:42:50.000Z</time>
      </trkpt>
      <trkpt lat="45.505" lon="6.03939">
        <ele>291.20001220703</ele>
        <time>2013-08-25T10:42:51.000Z</time>
      </trkpt>
      <trkpt lat="45.50506" lon="6.03931">
        <ele>293.20001220703</ele>
        <time>2013-08-25T10:42:53.000Z</time>
      </trkpt>
      <trkpt lat="45.50509" lon="6.03929">
        <ele>294.20001220703</ele>
        <time>2013-08-25T10:42:54.000Z</time>
      </trkpt>
      <trkpt lat="45.50512" lon="6.03926">
        <ele>295.20001220703</ele>
        <time>2013-08-25T10:42:55.000Z</time>
      </trkpt>
      <trkpt lat="45.50514" lon="6.03924">
        <ele>295.79998779297</ele>
        <time>2013-08-25T10:42:56.000Z</time>
      </trkpt>
      <trkpt lat="45.50518" lon="6.0392">
        <ele>297</ele>
        <time>2013-08-25T10:42:58.000Z</time>
      </trkpt>
      <trkpt lat="45.5052" lon="6.03917">
        <ele>298</ele>
        <time>2013-08-25T10:43:00.000Z</time>
      </trkpt>
      <trkpt lat="45.50521" lon="6.03915">
        <ele>298.20001220703</ele>
        <time>2013-08-25T10:43:01.000Z</time>
      </trkpt>
      <trkpt lat="45.50523" lon="6.03911">
        <ele>298.79998779297</ele>
        <time>2013-08-25T10:43:03.000Z</time>
      </trkpt>
      <trkpt lat="45.50524" lon="6.03908">
        <ele>299.20001220703</ele>
        <time>2013-08-25T10:43:04.000Z</time>
      </trkpt>
      <trkpt lat="45.50526" lon="6.03906">
        <ele>299.79998779297</ele>
        <time>2013-08-25T10:43:05.000Z</time>
      </trkpt>
      <trkpt lat="45.50527" lon="6.03903">
        <ele>300.20001220703</ele>
        <time>2013-08-25T10:43:06.000Z</time>
      </trkpt>
      <trkpt lat="45.50528" lon="6.039">
        <ele>300.60000610352</ele>
        <time>2013-08-25T10:43:07.000Z</time>
      </trkpt>
      <trkpt lat="45.50529" lon="6.03897">
        <ele>300.79998779297</ele>
        <time>2013-08-25T10:43:08.000Z</time>
      </trkpt>
      <trkpt lat="45.5053" lon="6.03895">
        <ele>301.20001220703</ele>
        <time>2013-08-25T10:43:09.000Z</time>
      </trkpt>
      <trkpt lat="45.50532" lon="6.0389">
        <ele>301.79998779297</ele>
        <time>2013-08-25T10:43:11.000Z</time>
      </trkpt>
      <trkpt lat="45.50533" lon="6.03888">
        <ele>302.20001220703</ele>
        <time>2013-08-25T10:43:12.000Z</time>
      </trkpt>
      <trkpt lat="45.50534" lon="6.03885">
        <ele>302.39999389648</ele>
        <time>2013-08-25T10:43:13.000Z</time>
      </trkpt>
      <trkpt lat="45.50535" lon="6.03883">
        <ele>302.79998779297</ele>
        <time>2013-08-25T10:43:14.000Z</time>
      </trkpt>
      <trkpt lat="45.50537" lon="6.03878">
        <ele>303.39999389648</ele>
        <time>2013-08-25T10:43:16.000Z</time>
      </trkpt>
      <trkpt lat="45.50538" lon="6.03876">
        <ele>303.60000610352</ele>
        <time>2013-08-25T10:43:17.000Z</time>
      </trkpt>
      <trkpt lat="45.50539" lon="6.03871">
        <ele>304</ele>
        <time>2013-08-25T10:43:19.000Z</time>
      </trkpt>
      <trkpt lat="45.5054" lon="6.03869">
        <ele>304.39999389648</ele>
        <time>2013-08-25T10:43:20.000Z</time>
      </trkpt>
      <trkpt lat="45.50543" lon="6.03858">
        <ele>305.39999389648</ele>
        <time>2013-08-25T10:43:24.000Z</time>
      </trkpt>
      <trkpt lat="45.50543" lon="6.03855">
        <ele>305.60000610352</ele>
        <time>2013-08-25T10:43:25.000Z</time>
      </trkpt>
      <trkpt lat="45.50544" lon="6.03851">
        <ele>305.79998779297</ele>
        <time>2013-08-25T10:43:26.000Z</time>
      </trkpt>
      <trkpt lat="45.50544" lon="6.03848">
        <ele>305.79998779297</ele>
        <time>2013-08-25T10:43:27.000Z</time>
      </trkpt>
      <trkpt lat="45.50544" lon="6.0384">
        <ele>306</ele>
        <time>2013-08-25T10:43:29.000Z</time>
      </trkpt>
      <trkpt lat="45.50544" lon="6.03836">
        <ele>306</ele>
        <time>2013-08-25T10:43:30.000Z</time>
      </trkpt>
      <trkpt lat="45.50543" lon="6.03814">
        <ele>304.60000610352</ele>
        <time>2013-08-25T10:43:35.000Z</time>
      </trkpt>
      <trkpt lat="45.50543" lon="6.0381">
        <ele>304.20001220703</ele>
        <time>2013-08-25T10:43:36.000Z</time>
      </trkpt>
      <trkpt lat="45.50542" lon="6.03806">
        <ele>304</ele>
        <time>2013-08-25T10:43:37.000Z</time>
      </trkpt>
      <trkpt lat="45.50543" lon="6.03797">
        <ele>303.60000610352</ele>
        <time>2013-08-25T10:43:40.000Z</time>
      </trkpt>
      <trkpt lat="45.50544" lon="6.03794">
        <ele>303.60000610352</ele>
        <time>2013-08-25T10:43:41.000Z</time>
      </trkpt>
      <trkpt lat="45.50544" lon="6.03789">
        <ele>303.60000610352</ele>
        <time>2013-08-25T10:43:43.000Z</time>
      </trkpt>
      <trkpt lat="45.50545" lon="6.03782">
        <ele>303.39999389648</ele>
        <time>2013-08-25T10:43:45.000Z</time>
      </trkpt>
      <trkpt lat="45.50545" lon="6.03779">
        <ele>303.20001220703</ele>
        <time>2013-08-25T10:43:46.000Z</time>
      </trkpt>
      <trkpt lat="45.50545" lon="6.03773">
        <ele>302.79998779297</ele>
        <time>2013-08-25T10:43:48.000Z</time>
      </trkpt>
      <trkpt lat="45.50545" lon="6.0377">
        <ele>302.60000610352</ele>
        <time>2013-08-25T10:43:49.000Z</time>
      </trkpt>
      <trkpt lat="45.50545" lon="6.03767">
        <ele>302.39999389648</ele>
        <time>2013-08-25T10:43:50.000Z</time>
      </trkpt>
      <trkpt lat="45.50545" lon="6.03763">
        <ele>302.20001220703</ele>
        <time>2013-08-25T10:43:51.000Z</time>
      </trkpt>
      <trkpt lat="45.50542" lon="6.03741">
        <ele>300</ele>
        <time>2013-08-25T10:43:52.000Z</time>
      </trkpt>
      <trkpt lat="45.5054" lon="6.03733">
        <ele>299.20001220703</ele>
        <time>2013-08-25T10:43:53.000Z</time>
      </trkpt>
      <trkpt lat="45.5054" lon="6.03727">
        <ele>298.79998779297</ele>
        <time>2013-08-25T10:43:54.000Z</time>
      </trkpt>
      <trkpt lat="45.50538" lon="6.03706">
        <ele>297.39999389648</ele>
        <time>2013-08-25T10:43:58.000Z</time>
      </trkpt>
      <trkpt lat="45.50538" lon="6.03702">
        <ele>297.20001220703</ele>
        <time>2013-08-25T10:43:59.000Z</time>
      </trkpt>
      <trkpt lat="45.50538" lon="6.03699">
        <ele>296.79998779297</ele>
        <time>2013-08-25T10:44:00.000Z</time>
      </trkpt>
      <trkpt lat="45.50538" lon="6.03695">
        <ele>296.60000610352</ele>
        <time>2013-08-25T10:44:01.000Z</time>
      </trkpt>
      <trkpt lat="45.50538" lon="6.03691">
        <ele>296.60000610352</ele>
        <time>2013-08-25T10:44:02.000Z</time>
      </trkpt>
      <trkpt lat="45.50545" lon="6.03665">
        <ele>297</ele>
        <time>2013-08-25T10:44:09.000Z</time>
      </trkpt>
      <trkpt lat="45.50546" lon="6.03661">
        <ele>297.20001220703</ele>
        <time>2013-08-25T10:44:10.000Z</time>
      </trkpt>
      <trkpt lat="45.50549" lon="6.0365">
        <ele>297</ele>
        <time>2013-08-25T10:44:13.000Z</time>
      </trkpt>
      <trkpt lat="45.5055" lon="6.03642">
        <ele>297</ele>
        <time>2013-08-25T10:44:15.000Z</time>
      </trkpt>
      <trkpt lat="45.50558" lon="6.03617">
        <ele>297</ele>
        <time>2013-08-25T10:44:20.000Z</time>
      </trkpt>
      <trkpt lat="45.50562" lon="6.03609">
        <ele>297</ele>
        <time>2013-08-25T10:44:21.000Z</time>
      </trkpt>
      <trkpt lat="45.50569" lon="6.03592">
        <ele>297</ele>
        <time>2013-08-25T10:44:23.000Z</time>
      </trkpt>
      <trkpt lat="45.50572" lon="6.03585">
        <ele>297</ele>
        <time>2013-08-25T10:44:24.000Z</time>
      </trkpt>
      <trkpt lat="45.50575" lon="6.03579">
        <ele>296.79998779297</ele>
        <time>2013-08-25T10:44:25.000Z</time>
      </trkpt>
      <trkpt lat="45.50578" lon="6.03572">
        <ele>296.60000610352</ele>
        <time>2013-08-25T10:44:26.000Z</time>
      </trkpt>
      <trkpt lat="45.50581" lon="6.03565">
        <ele>296.20001220703</ele>
        <time>2013-08-25T10:44:27.000Z</time>
      </trkpt>
      <trkpt lat="45.50584" lon="6.03557">
        <ele>295.79998779297</ele>
        <time>2013-08-25T10:44:28.000Z</time>
      </trkpt>
      <trkpt lat="45.50594" lon="6.03535">
        <ele>295.39999389648</ele>
        <time>2013-08-25T10:44:31.000Z</time>
      </trkpt>
      <trkpt lat="45.50601" lon="6.03517">
        <ele>294.60000610352</ele>
        <time>2013-08-25T10:44:33.000Z</time>
      </trkpt>
      <trkpt lat="45.50605" lon="6.03508">
        <ele>294.20001220703</ele>
        <time>2013-08-25T10:44:34.000Z</time>
      </trkpt>
      <trkpt lat="45.50608" lon="6.03498">
        <ele>293.79998779297</ele>
        <time>2013-08-25T10:44:35.000Z</time>
      </trkpt>
      <trkpt lat="45.50611" lon="6.03489">
        <ele>294</ele>
        <time>2013-08-25T10:44:36.000Z</time>
      </trkpt>
      <trkpt lat="45.50615" lon="6.03479">
        <ele>294</ele>
        <time>2013-08-25T10:44:37.000Z</time>
      </trkpt>
      <trkpt lat="45.50618" lon="6.03469">
        <ele>294.20001220703</ele>
        <time>2013-08-25T10:44:38.000Z</time>
      </trkpt>
      <trkpt lat="45.5062" lon="6.03457">
        <ele>293.79998779297</ele>
        <time>2013-08-25T10:44:39.000Z</time>
      </trkpt>
      <trkpt lat="45.50619" lon="6.03444">
        <ele>293</ele>
        <time>2013-08-25T10:44:40.000Z</time>
      </trkpt>
      <trkpt lat="45.50619" lon="6.03432">
        <ele>292.20001220703</ele>
        <time>2013-08-25T10:44:41.000Z</time>
      </trkpt>
      <trkpt lat="45.50618" lon="6.03408">
        <ele>291</ele>
        <time>2013-08-25T10:44:43.000Z</time>
      </trkpt>
      <trkpt lat="45.50618" lon="6.03397">
        <ele>291</ele>
        <time>2013-08-25T10:44:44.000Z</time>
      </trkpt>
      <trkpt lat="45.50617" lon="6.03387">
        <ele>291</ele>
        <time>2013-08-25T10:44:45.000Z</time>
      </trkpt>
      <trkpt lat="45.50617" lon="6.03366">
        <ele>291</ele>
        <time>2013-08-25T10:44:47.000Z</time>
      </trkpt>
      <trkpt lat="45.50617" lon="6.03355">
        <ele>291</ele>
        <time>2013-08-25T10:44:48.000Z</time>
      </trkpt>
      <trkpt lat="45.50617" lon="6.03345">
        <ele>291</ele>
        <time>2013-08-25T10:44:49.000Z</time>
      </trkpt>
      <trkpt lat="45.50617" lon="6.03335">
        <ele>291.20001220703</ele>
        <time>2013-08-25T10:44:50.000Z</time>
      </trkpt>
      <trkpt lat="45.50617" lon="6.03325">
        <ele>291.20001220703</ele>
        <time>2013-08-25T10:44:51.000Z</time>
      </trkpt>
      <trkpt lat="45.50617" lon="6.03315">
        <ele>291.20001220703</ele>
        <time>2013-08-25T10:44:52.000Z</time>
      </trkpt>
      <trkpt lat="45.50617" lon="6.03305">
        <ele>291.20001220703</ele>
        <time>2013-08-25T10:44:53.000Z</time>
      </trkpt>
      <trkpt lat="45.50618" lon="6.03296">
        <ele>291.20001220703</ele>
        <time>2013-08-25T10:44:54.000Z</time>
      </trkpt>
      <trkpt lat="45.50619" lon="6.03277">
        <ele>291.39999389648</ele>
        <time>2013-08-25T10:44:56.000Z</time>
      </trkpt>
      <trkpt lat="45.5062" lon="6.03267">
        <ele>291.39999389648</ele>
        <time>2013-08-25T10:44:57.000Z</time>
      </trkpt>
      <trkpt lat="45.5062" lon="6.03258">
        <ele>291.60000610352</ele>
        <time>2013-08-25T10:44:58.000Z</time>
      </trkpt>
      <trkpt lat="45.50623" lon="6.03222">
        <ele>291.79998779297</ele>
        <time>2013-08-25T10:45:02.000Z</time>
      </trkpt>
      <trkpt lat="45.50623" lon="6.03213">
        <ele>291.79998779297</ele>
        <time>2013-08-25T10:45:03.000Z</time>
      </trkpt>
      <trkpt lat="45.50625" lon="6.03172">
        <ele>292</ele>
        <time>2013-08-25T10:45:08.000Z</time>
      </trkpt>
      <trkpt lat="45.50626" lon="6.03163">
        <ele>292</ele>
        <time>2013-08-25T10:45:09.000Z</time>
      </trkpt>
      <trkpt lat="45.50627" lon="6.03155">
        <ele>291.60000610352</ele>
        <time>2013-08-25T10:45:10.000Z</time>
      </trkpt>
      <trkpt lat="45.50627" lon="6.03147">
        <ele>291.39999389648</ele>
        <time>2013-08-25T10:45:11.000Z</time>
      </trkpt>
      <trkpt lat="45.50628" lon="6.03139">
        <ele>291</ele>
        <time>2013-08-25T10:45:12.000Z</time>
      </trkpt>
      <trkpt lat="45.50629" lon="6.03131">
        <ele>290.79998779297</ele>
        <time>2013-08-25T10:45:13.000Z</time>
      </trkpt>
      <trkpt lat="45.50631" lon="6.03116">
        <ele>290.20001220703</ele>
        <time>2013-08-25T10:45:15.000Z</time>
      </trkpt>
      <trkpt lat="45.50632" lon="6.03109">
        <ele>290</ele>
        <time>2013-08-25T10:45:16.000Z</time>
      </trkpt>
      <trkpt lat="45.50634" lon="6.03101">
        <ele>289.79998779297</ele>
        <time>2013-08-25T10:45:17.000Z</time>
      </trkpt>
      <trkpt lat="45.50635" lon="6.03094">
        <ele>289.60000610352</ele>
        <time>2013-08-25T10:45:18.000Z</time>
      </trkpt>
      <trkpt lat="45.50637" lon="6.03088">
        <ele>289.60000610352</ele>
        <time>2013-08-25T10:45:19.000Z</time>
      </trkpt>
      <trkpt lat="45.5064" lon="6.03082">
        <ele>289.60000610352</ele>
        <time>2013-08-25T10:45:20.000Z</time>
      </trkpt>
      <trkpt lat="45.50651" lon="6.03056">
        <ele>289.39999389648</ele>
        <time>2013-08-25T10:45:25.000Z</time>
      </trkpt>
      <trkpt lat="45.50653" lon="6.03051">
        <ele>289.39999389648</ele>
        <time>2013-08-25T10:45:26.000Z</time>
      </trkpt>
      <trkpt lat="45.50658" lon="6.03042">
        <ele>289.20001220703</ele>
        <time>2013-08-25T10:45:28.000Z</time>
      </trkpt>
      <trkpt lat="45.50661" lon="6.03037">
        <ele>289.20001220703</ele>
        <time>2013-08-25T10:45:29.000Z</time>
      </trkpt>
      <trkpt lat="45.50664" lon="6.03033">
        <ele>289</ele>
        <time>2013-08-25T10:45:30.000Z</time>
      </trkpt>
      <trkpt lat="45.50666" lon="6.03028">
        <ele>289</ele>
        <time>2013-08-25T10:45:31.000Z</time>
      </trkpt>
      <trkpt lat="45.50669" lon="6.03024">
        <ele>289.20001220703</ele>
        <time>2013-08-25T10:45:32.000Z</time>
      </trkpt>
      <trkpt lat="45.50688" lon="6.02996">
        <ele>291.60000610352</ele>
        <time>2013-08-25T10:45:39.000Z</time>
      </trkpt>
      <trkpt lat="45.5069" lon="6.02992">
        <ele>292</ele>
        <time>2013-08-25T10:45:40.000Z</time>
      </trkpt>
      <trkpt lat="45.50696" lon="6.02981">
        <ele>292.20001220703</ele>
        <time>2013-08-25T10:45:42.000Z</time>
      </trkpt>
      <trkpt lat="45.50699" lon="6.02976">
        <ele>292.39999389648</ele>
        <time>2013-08-25T10:45:43.000Z</time>
      </trkpt>
      <trkpt lat="45.50701" lon="6.02972">
        <ele>292.60000610352</ele>
        <time>2013-08-25T10:45:44.000Z</time>
      </trkpt>
      <trkpt lat="45.50706" lon="6.02964">
        <ele>292.79998779297</ele>
        <time>2013-08-25T10:45:46.000Z</time>
      </trkpt>
      <trkpt lat="45.50709" lon="6.0296">
        <ele>293</ele>
        <time>2013-08-25T10:45:47.000Z</time>
      </trkpt>
      <trkpt lat="45.50716" lon="6.02949">
        <ele>293</ele>
        <time>2013-08-25T10:45:50.000Z</time>
      </trkpt>
      <trkpt lat="45.50726" lon="6.02932">
        <ele>292.79998779297</ele>
        <time>2013-08-25T10:45:54.000Z</time>
      </trkpt>
      <trkpt lat="45.50729" lon="6.02928">
        <ele>292.60000610352</ele>
        <time>2013-08-25T10:45:55.000Z</time>
      </trkpt>
      <trkpt lat="45.50731" lon="6.02924">
        <ele>292.39999389648</ele>
        <time>2013-08-25T10:45:56.000Z</time>
      </trkpt>
      <trkpt lat="45.50733" lon="6.0292">
        <ele>292.20001220703</ele>
        <time>2013-08-25T10:45:57.000Z</time>
      </trkpt>
      <trkpt lat="45.50736" lon="6.02916">
        <ele>292</ele>
        <time>2013-08-25T10:45:58.000Z</time>
      </trkpt>
      <trkpt lat="45.50738" lon="6.02913">
        <ele>292.20001220703</ele>
        <time>2013-08-25T10:45:59.000Z</time>
      </trkpt>
      <trkpt lat="45.50741" lon="6.02909">
        <ele>292.20001220703</ele>
        <time>2013-08-25T10:46:00.000Z</time>
      </trkpt>
      <trkpt lat="45.50744" lon="6.02905">
        <ele>292.39999389648</ele>
        <time>2013-08-25T10:46:01.000Z</time>
      </trkpt>
      <trkpt lat="45.50747" lon="6.02902">
        <ele>292.60000610352</ele>
        <time>2013-08-25T10:46:02.000Z</time>
      </trkpt>
      <trkpt lat="45.5075" lon="6.02898">
        <ele>292.60000610352</ele>
        <time>2013-08-25T10:46:03.000Z</time>
      </trkpt>
      <trkpt lat="45.50753" lon="6.02894">
        <ele>293</ele>
        <time>2013-08-25T10:46:04.000Z</time>
      </trkpt>
      <trkpt lat="45.50756" lon="6.02891">
        <ele>293.39999389648</ele>
        <time>2013-08-25T10:46:05.000Z</time>
      </trkpt>
      <trkpt lat="45.50759" lon="6.02886">
        <ele>293.79998779297</ele>
        <time>2013-08-25T10:46:06.000Z</time>
      </trkpt>
      <trkpt lat="45.50768" lon="6.02873">
        <ele>295</ele>
        <time>2013-08-25T10:46:09.000Z</time>
      </trkpt>
      <trkpt lat="45.50771" lon="6.02869">
        <ele>295.39999389648</ele>
        <time>2013-08-25T10:46:10.000Z</time>
      </trkpt>
      <trkpt lat="45.50774" lon="6.02864">
        <ele>295.60000610352</ele>
        <time>2013-08-25T10:46:11.000Z</time>
      </trkpt>
      <trkpt lat="45.50777" lon="6.02859">
        <ele>295.79998779297</ele>
        <time>2013-08-25T10:46:12.000Z</time>
      </trkpt>
      <trkpt lat="45.5078" lon="6.02854">
        <ele>296</ele>
        <time>2013-08-25T10:46:13.000Z</time>
      </trkpt>
      <trkpt lat="45.50786" lon="6.02843">
        <ele>296.20001220703</ele>
        <time>2013-08-25T10:46:15.000Z</time>
      </trkpt>
      <trkpt lat="45.50789" lon="6.02838">
        <ele>296.20001220703</ele>
        <time>2013-08-25T10:46:16.000Z</time>
      </trkpt>
      <trkpt lat="45.50795" lon="6.02823">
        <ele>296.20001220703</ele>
        <time>2013-08-25T10:46:18.000Z</time>
      </trkpt>
      <trkpt lat="45.50802" lon="6.02804">
        <ele>296.20001220703</ele>
        <time>2013-08-25T10:46:21.000Z</time>
      </trkpt>
      <trkpt lat="45.50805" lon="6.02798">
        <ele>296</ele>
        <time>2013-08-25T10:46:22.000Z</time>
      </trkpt>
      <trkpt lat="45.50832" lon="6.02724">
        <ele>292</ele>
        <time>2013-08-25T10:46:34.000Z</time>
      </trkpt>
      <trkpt lat="45.50835" lon="6.02718">
        <ele>291.79998779297</ele>
        <time>2013-08-25T10:46:35.000Z</time>
      </trkpt>
      <trkpt lat="45.50837" lon="6.02712">
        <ele>291.79998779297</ele>
        <time>2013-08-25T10:46:36.000Z</time>
      </trkpt>
      <trkpt lat="45.5084" lon="6.02706">
        <ele>291.79998779297</ele>
        <time>2013-08-25T10:46:37.000Z</time>
      </trkpt>
      <trkpt lat="45.50842" lon="6.02701">
        <ele>291.79998779297</ele>
        <time>2013-08-25T10:46:38.000Z</time>
      </trkpt>
      <trkpt lat="45.50845" lon="6.02695">
        <ele>291.79998779297</ele>
        <time>2013-08-25T10:46:39.000Z</time>
      </trkpt>
      <trkpt lat="45.5085" lon="6.02683">
        <ele>291.79998779297</ele>
        <time>2013-08-25T10:46:41.000Z</time>
      </trkpt>
      <trkpt lat="45.50852" lon="6.02678">
        <ele>291.79998779297</ele>
        <time>2013-08-25T10:46:42.000Z</time>
      </trkpt>
      <trkpt lat="45.50872" lon="6.02643">
        <ele>293.60000610352</ele>
        <time>2013-08-25T10:46:50.000Z</time>
      </trkpt>
      <trkpt lat="45.50875" lon="6.02639">
        <ele>294</ele>
        <time>2013-08-25T10:46:51.000Z</time>
      </trkpt>
      <trkpt lat="45.50877" lon="6.02634">
        <ele>294.20001220703</ele>
        <time>2013-08-25T10:46:52.000Z</time>
      </trkpt>
      <trkpt lat="45.50882" lon="6.02625">
        <ele>294.60000610352</ele>
        <time>2013-08-25T10:46:54.000Z</time>
      </trkpt>
      <trkpt lat="45.50885" lon="6.0262">
        <ele>294.60000610352</ele>
        <time>2013-08-25T10:46:55.000Z</time>
      </trkpt>
      <trkpt lat="45.50887" lon="6.02615">
        <ele>294.79998779297</ele>
        <time>2013-08-25T10:46:56.000Z</time>
      </trkpt>
      <trkpt lat="45.50903" lon="6.02556">
        <ele>293</ele>
        <time>2013-08-25T10:47:02.000Z</time>
      </trkpt>
      <trkpt lat="45.50927" lon="6.02484">
        <ele>292.20001220703</ele>
        <time>2013-08-25T10:47:13.000Z</time>
      </trkpt>
      <trkpt lat="45.5094" lon="6.02456">
        <ele>292.20001220703</ele>
        <time>2013-08-25T10:47:19.000Z</time>
      </trkpt>
      <trkpt lat="45.50946" lon="6.02445">
        <ele>292</ele>
        <time>2013-08-25T10:47:21.000Z</time>
      </trkpt>
      <trkpt lat="45.50948" lon="6.0244">
        <ele>291.79998779297</ele>
        <time>2013-08-25T10:47:22.000Z</time>
      </trkpt>
      <trkpt lat="45.50951" lon="6.02434">
        <ele>291.79998779297</ele>
        <time>2013-08-25T10:47:23.000Z</time>
      </trkpt>
      <trkpt lat="45.50953" lon="6.02429">
        <ele>291.60000610352</ele>
        <time>2013-08-25T10:47:24.000Z</time>
      </trkpt>
      <trkpt lat="45.50956" lon="6.02423">
        <ele>291.39999389648</ele>
        <time>2013-08-25T10:47:25.000Z</time>
      </trkpt>
      <trkpt lat="45.50959" lon="6.02417">
        <ele>291.20001220703</ele>
        <time>2013-08-25T10:47:26.000Z</time>
      </trkpt>
      <trkpt lat="45.50963" lon="6.02407">
        <ele>291</ele>
        <time>2013-08-25T10:47:28.000Z</time>
      </trkpt>
      <trkpt lat="45.50965" lon="6.02401">
        <ele>290.79998779297</ele>
        <time>2013-08-25T10:47:29.000Z</time>
      </trkpt>
      <trkpt lat="45.50967" lon="6.02394">
        <ele>290.60000610352</ele>
        <time>2013-08-25T10:47:30.000Z</time>
      </trkpt>
      <trkpt lat="45.50969" lon="6.02388">
        <ele>290.20001220703</ele>
        <time>2013-08-25T10:47:31.000Z</time>
      </trkpt>
      <trkpt lat="45.5097" lon="6.02382">
        <ele>289.79998779297</ele>
        <time>2013-08-25T10:47:32.000Z</time>
      </trkpt>
      <trkpt lat="45.50971" lon="6.02376">
        <ele>289.39999389648</ele>
        <time>2013-08-25T10:47:33.000Z</time>
      </trkpt>
      <trkpt lat="45.50975" lon="6.02364">
        <ele>288.60000610352</ele>
        <time>2013-08-25T10:47:35.000Z</time>
      </trkpt>
      <trkpt lat="45.50976" lon="6.02357">
        <ele>288</ele>
        <time>2013-08-25T10:47:36.000Z</time>
      </trkpt>
      <trkpt lat="45.50982" lon="6.02327">
        <ele>285.60000610352</ele>
        <time>2013-08-25T10:47:40.000Z</time>
      </trkpt>
      <trkpt lat="45.50982" lon="6.02318">
        <ele>285.60000610352</ele>
        <time>2013-08-25T10:47:41.000Z</time>
      </trkpt>
      <trkpt lat="45.50983" lon="6.0231">
        <ele>285.60000610352</ele>
        <time>2013-08-25T10:47:42.000Z</time>
      </trkpt>
      <trkpt lat="45.50984" lon="6.02303">
        <ele>285.79998779297</ele>
        <time>2013-08-25T10:47:43.000Z</time>
      </trkpt>
      <trkpt lat="45.50985" lon="6.02288">
        <ele>285.79998779297</ele>
        <time>2013-08-25T10:47:45.000Z</time>
      </trkpt>
      <trkpt lat="45.50985" lon="6.02281">
        <ele>285.79998779297</ele>
        <time>2013-08-25T10:47:46.000Z</time>
      </trkpt>
      <trkpt lat="45.50986" lon="6.02274">
        <ele>285.79998779297</ele>
        <time>2013-08-25T10:47:47.000Z</time>
      </trkpt>
      <trkpt lat="45.50986" lon="6.02266">
        <ele>285.79998779297</ele>
        <time>2013-08-25T10:47:48.000Z</time>
      </trkpt>
      <trkpt lat="45.50986" lon="6.02259">
        <ele>285.79998779297</ele>
        <time>2013-08-25T10:47:49.000Z</time>
      </trkpt>
      <trkpt lat="45.50986" lon="6.02252">
        <ele>285.79998779297</ele>
        <time>2013-08-25T10:47:50.000Z</time>
      </trkpt>
      <trkpt lat="45.50986" lon="6.02244">
        <ele>286</ele>
        <time>2013-08-25T10:47:51.000Z</time>
      </trkpt>
      <trkpt lat="45.50986" lon="6.02237">
        <ele>286.20001220703</ele>
        <time>2013-08-25T10:47:52.000Z</time>
      </trkpt>
      <trkpt lat="45.50985" lon="6.02215">
        <ele>287</ele>
        <time>2013-08-25T10:47:55.000Z</time>
      </trkpt>
      <trkpt lat="45.50983" lon="6.02201">
        <ele>287.39999389648</ele>
        <time>2013-08-25T10:47:57.000Z</time>
      </trkpt>
      <trkpt lat="45.50983" lon="6.02194">
        <ele>287.79998779297</ele>
        <time>2013-08-25T10:47:58.000Z</time>
      </trkpt>
      <trkpt lat="45.50982" lon="6.02187">
        <ele>288</ele>
        <time>2013-08-25T10:47:59.000Z</time>
      </trkpt>
      <trkpt lat="45.50981" lon="6.0218">
        <ele>288.20001220703</ele>
        <time>2013-08-25T10:48:00.000Z</time>
      </trkpt>
      <trkpt lat="45.50979" lon="6.02166">
        <ele>288.60000610352</ele>
        <time>2013-08-25T10:48:02.000Z</time>
      </trkpt>
      <trkpt lat="45.50978" lon="6.0216">
        <ele>289</ele>
        <time>2013-08-25T10:48:03.000Z</time>
      </trkpt>
      <trkpt lat="45.50977" lon="6.02154">
        <ele>289.20001220703</ele>
        <time>2013-08-25T10:48:04.000Z</time>
      </trkpt>
      <trkpt lat="45.50977" lon="6.02147">
        <ele>289.60000610352</ele>
        <time>2013-08-25T10:48:05.000Z</time>
      </trkpt>
      <trkpt lat="45.50976" lon="6.02141">
        <ele>289.79998779297</ele>
        <time>2013-08-25T10:48:06.000Z</time>
      </trkpt>
      <trkpt lat="45.50976" lon="6.02135">
        <ele>290</ele>
        <time>2013-08-25T10:48:07.000Z</time>
      </trkpt>
      <trkpt lat="45.50975" lon="6.02129">
        <ele>290.39999389648</ele>
        <time>2013-08-25T10:48:08.000Z</time>
      </trkpt>
      <trkpt lat="45.50975" lon="6.02124">
        <ele>290.60000610352</ele>
        <time>2013-08-25T10:48:09.000Z</time>
      </trkpt>
      <trkpt lat="45.50975" lon="6.02118">
        <ele>290.79998779297</ele>
        <time>2013-08-25T10:48:10.000Z</time>
      </trkpt>
      <trkpt lat="45.50975" lon="6.02113">
        <ele>291</ele>
        <time>2013-08-25T10:48:11.000Z</time>
      </trkpt>
      <trkpt lat="45.50975" lon="6.02108">
        <ele>291.20001220703</ele>
        <time>2013-08-25T10:48:12.000Z</time>
      </trkpt>
      <trkpt lat="45.50975" lon="6.02104">
        <ele>291.39999389648</ele>
        <time>2013-08-25T10:48:13.000Z</time>
      </trkpt>
      <trkpt lat="45.50975" lon="6.02099">
        <ele>291.60000610352</ele>
        <time>2013-08-25T10:48:14.000Z</time>
      </trkpt>
      <trkpt lat="45.50976" lon="6.02095">
        <ele>292</ele>
        <time>2013-08-25T10:48:15.000Z</time>
      </trkpt>
      <trkpt lat="45.50976" lon="6.02091">
        <ele>292.20001220703</ele>
        <time>2013-08-25T10:48:16.000Z</time>
      </trkpt>
      <trkpt lat="45.50977" lon="6.02087">
        <ele>292.39999389648</ele>
        <time>2013-08-25T10:48:17.000Z</time>
      </trkpt>
      <trkpt lat="45.50978" lon="6.02083">
        <ele>292.60000610352</ele>
        <time>2013-08-25T10:48:18.000Z</time>
      </trkpt>
      <trkpt lat="45.50979" lon="6.02079">
        <ele>292.60000610352</ele>
        <time>2013-08-25T10:48:19.000Z</time>
      </trkpt>
      <trkpt lat="45.5098" lon="6.02075">
        <ele>292.79998779297</ele>
        <time>2013-08-25T10:48:20.000Z</time>
      </trkpt>
      <trkpt lat="45.50984" lon="6.02059">
        <ele>293.20001220703</ele>
        <time>2013-08-25T10:48:24.000Z</time>
      </trkpt>
      <trkpt lat="45.50985" lon="6.02055">
        <ele>293.20001220703</ele>
        <time>2013-08-25T10:48:25.000Z</time>
      </trkpt>
      <trkpt lat="45.50988" lon="6.02044">
        <ele>293.60000610352</ele>
        <time>2013-08-25T10:48:28.000Z</time>
      </trkpt>
      <trkpt lat="45.50989" lon="6.02041">
        <ele>293.79998779297</ele>
        <time>2013-08-25T10:48:29.000Z</time>
      </trkpt>
      <trkpt lat="45.50991" lon="6.02037">
        <ele>293.79998779297</ele>
        <time>2013-08-25T10:48:30.000Z</time>
      </trkpt>
      <trkpt lat="45.50992" lon="6.02034">
        <ele>294</ele>
        <time>2013-08-25T10:48:31.000Z</time>
      </trkpt>
      <trkpt lat="45.50994" lon="6.02031">
        <ele>294</ele>
        <time>2013-08-25T10:48:32.000Z</time>
      </trkpt>
      <trkpt lat="45.50995" lon="6.02028">
        <ele>294.20001220703</ele>
        <time>2013-08-25T10:48:33.000Z</time>
      </trkpt>
      <trkpt lat="45.50997" lon="6.02026">
        <ele>294.39999389648</ele>
        <time>2013-08-25T10:48:34.000Z</time>
      </trkpt>
      <trkpt lat="45.50999" lon="6.02023">
        <ele>294.60000610352</ele>
        <time>2013-08-25T10:48:35.000Z</time>
      </trkpt>
      <trkpt lat="45.51001" lon="6.0202">
        <ele>294.60000610352</ele>
        <time>2013-08-25T10:48:36.000Z</time>
      </trkpt>
      <trkpt lat="45.51002" lon="6.02017">
        <ele>294.79998779297</ele>
        <time>2013-08-25T10:48:37.000Z</time>
      </trkpt>
      <trkpt lat="45.51004" lon="6.02015">
        <ele>294.79998779297</ele>
        <time>2013-08-25T10:48:38.000Z</time>
      </trkpt>
      <trkpt lat="45.51006" lon="6.02012">
        <ele>294.79998779297</ele>
        <time>2013-08-25T10:48:39.000Z</time>
      </trkpt>
      <trkpt lat="45.51011" lon="6.02007">
        <ele>295</ele>
        <time>2013-08-25T10:48:41.000Z</time>
      </trkpt>
      <trkpt lat="45.51013" lon="6.02005">
        <ele>295</ele>
        <time>2013-08-25T10:48:42.000Z</time>
      </trkpt>
      <trkpt lat="45.51015" lon="6.02003">
        <ele>295</ele>
        <time>2013-08-25T10:48:43.000Z</time>
      </trkpt>
      <trkpt lat="45.51017" lon="6.02001">
        <ele>295</ele>
        <time>2013-08-25T10:48:44.000Z</time>
      </trkpt>
      <trkpt lat="45.5102" lon="6.01999">
        <ele>295.20001220703</ele>
        <time>2013-08-25T10:48:45.000Z</time>
      </trkpt>
      <trkpt lat="45.51022" lon="6.01996">
        <ele>295.20001220703</ele>
        <time>2013-08-25T10:48:46.000Z</time>
      </trkpt>
      <trkpt lat="45.51024" lon="6.01994">
        <ele>295</ele>
        <time>2013-08-25T10:48:47.000Z</time>
      </trkpt>
      <trkpt lat="45.51029" lon="6.01989">
        <ele>295</ele>
        <time>2013-08-25T10:48:49.000Z</time>
      </trkpt>
      <trkpt lat="45.51031" lon="6.01987">
        <ele>295</ele>
        <time>2013-08-25T10:48:50.000Z</time>
      </trkpt>
      <trkpt lat="45.51034" lon="6.01985">
        <ele>295</ele>
        <time>2013-08-25T10:48:51.000Z</time>
      </trkpt>
      <trkpt lat="45.51036" lon="6.01982">
        <ele>295</ele>
        <time>2013-08-25T10:48:52.000Z</time>
      </trkpt>
      <trkpt lat="45.51038" lon="6.0198">
        <ele>295</ele>
        <time>2013-08-25T10:48:53.000Z</time>
      </trkpt>
      <trkpt lat="45.51041" lon="6.01977">
        <ele>295</ele>
        <time>2013-08-25T10:48:54.000Z</time>
      </trkpt>
      <trkpt lat="45.51043" lon="6.01974">
        <ele>295</ele>
        <time>2013-08-25T10:48:55.000Z</time>
      </trkpt>
      <trkpt lat="45.51046" lon="6.01972">
        <ele>295</ele>
        <time>2013-08-25T10:48:56.000Z</time>
      </trkpt>
      <trkpt lat="45.51048" lon="6.01969">
        <ele>294.79998779297</ele>
        <time>2013-08-25T10:48:57.000Z</time>
      </trkpt>
      <trkpt lat="45.51051" lon="6.01961">
        <ele>294.79998779297</ele>
        <time>2013-08-25T10:48:58.000Z</time>
      </trkpt>
      <trkpt lat="45.51054" lon="6.01954">
        <ele>294.60000610352</ele>
        <time>2013-08-25T10:48:59.000Z</time>
      </trkpt>
      <trkpt lat="45.51057" lon="6.01949">
        <ele>294.60000610352</ele>
        <time>2013-08-25T10:49:00.000Z</time>
      </trkpt>
      <trkpt lat="45.5106" lon="6.01943">
        <ele>294.39999389648</ele>
        <time>2013-08-25T10:49:01.000Z</time>
      </trkpt>
      <trkpt lat="45.51062" lon="6.0194">
        <ele>294.39999389648</ele>
        <time>2013-08-25T10:49:02.000Z</time>
      </trkpt>
      <trkpt lat="45.51065" lon="6.01934">
        <ele>294.20001220703</ele>
        <time>2013-08-25T10:49:03.000Z</time>
      </trkpt>
      <trkpt lat="45.51067" lon="6.0193">
        <ele>294.20001220703</ele>
        <time>2013-08-25T10:49:04.000Z</time>
      </trkpt>
      <trkpt lat="45.51078" lon="6.01916">
        <ele>293.79998779297</ele>
        <time>2013-08-25T10:49:08.000Z</time>
      </trkpt>
      <trkpt lat="45.51082" lon="6.01912">
        <ele>293.79998779297</ele>
        <time>2013-08-25T10:49:09.000Z</time>
      </trkpt>
      <trkpt lat="45.51085" lon="6.01909">
        <ele>293.79998779297</ele>
        <time>2013-08-25T10:49:10.000Z</time>
      </trkpt>
      <trkpt lat="45.51089" lon="6.01905">
        <ele>294</ele>
        <time>2013-08-25T10:49:11.000Z</time>
      </trkpt>
      <trkpt lat="45.51092" lon="6.01901">
        <ele>294.20001220703</ele>
        <time>2013-08-25T10:49:12.000Z</time>
      </trkpt>
      <trkpt lat="45.51095" lon="6.01897">
        <ele>294.39999389648</ele>
        <time>2013-08-25T10:49:13.000Z</time>
      </trkpt>
      <trkpt lat="45.51098" lon="6.01893">
        <ele>294.60000610352</ele>
        <time>2013-08-25T10:49:14.000Z</time>
      </trkpt>
      <trkpt lat="45.51102" lon="6.01888">
        <ele>294.79998779297</ele>
        <time>2013-08-25T10:49:15.000Z</time>
      </trkpt>
      <trkpt lat="45.51109" lon="6.01878">
        <ele>295.20001220703</ele>
        <time>2013-08-25T10:49:17.000Z</time>
      </trkpt>
      <trkpt lat="45.51113" lon="6.01874">
        <ele>295.39999389648</ele>
        <time>2013-08-25T10:49:18.000Z</time>
      </trkpt>
      <trkpt lat="45.51117" lon="6.01869">
        <ele>295.60000610352</ele>
        <time>2013-08-25T10:49:19.000Z</time>
      </trkpt>
      <trkpt lat="45.51121" lon="6.01864">
        <ele>295.79998779297</ele>
        <time>2013-08-25T10:49:20.000Z</time>
      </trkpt>
      <trkpt lat="45.51125" lon="6.0186">
        <ele>296</ele>
        <time>2013-08-25T10:49:21.000Z</time>
      </trkpt>
      <trkpt lat="45.51129" lon="6.01856">
        <ele>296.20001220703</ele>
        <time>2013-08-25T10:49:22.000Z</time>
      </trkpt>
      <trkpt lat="45.51133" lon="6.01852">
        <ele>296.60000610352</ele>
        <time>2013-08-25T10:49:23.000Z</time>
      </trkpt>
      <trkpt lat="45.51141" lon="6.01843">
        <ele>297</ele>
        <time>2013-08-25T10:49:25.000Z</time>
      </trkpt>
      <trkpt lat="45.51145" lon="6.0184">
        <ele>297.20001220703</ele>
        <time>2013-08-25T10:49:26.000Z</time>
      </trkpt>
      <trkpt lat="45.51151" lon="6.01832">
        <ele>297.60000610352</ele>
        <time>2013-08-25T10:49:28.000Z</time>
      </trkpt>
      <trkpt lat="45.51155" lon="6.01828">
        <ele>297.79998779297</ele>
        <time>2013-08-25T10:49:29.000Z</time>
      </trkpt>
      <trkpt lat="45.51169" lon="6.01811">
        <ele>298.20001220703</ele>
        <time>2013-08-25T10:49:34.000Z</time>
      </trkpt>
      <trkpt lat="45.51181" lon="6.01789">
        <ele>298.39999389648</ele>
        <time>2013-08-25T10:49:39.000Z</time>
      </trkpt>
      <trkpt lat="45.51181" lon="6.01782">
        <ele>298.20001220703</ele>
        <time>2013-08-25T10:49:40.000Z</time>
      </trkpt>
      <trkpt lat="45.51181" lon="6.01774">
        <ele>298</ele>
        <time>2013-08-25T10:49:41.000Z</time>
      </trkpt>
      <trkpt lat="45.51181" lon="6.01767">
        <ele>297.79998779297</ele>
        <time>2013-08-25T10:49:42.000Z</time>
      </trkpt>
      <trkpt lat="45.51181" lon="6.0176">
        <ele>297.39999389648</ele>
        <time>2013-08-25T10:49:43.000Z</time>
      </trkpt>
      <trkpt lat="45.5118" lon="6.01752">
        <ele>297</ele>
        <time>2013-08-25T10:49:44.000Z</time>
      </trkpt>
      <trkpt lat="45.51179" lon="6.01743">
        <ele>296.79998779297</ele>
        <time>2013-08-25T10:49:45.000Z</time>
      </trkpt>
      <trkpt lat="45.51174" lon="6.01707">
        <ele>295.79998779297</ele>
        <time>2013-08-25T10:49:49.000Z</time>
      </trkpt>
      <trkpt lat="45.51172" lon="6.01697">
        <ele>295.60000610352</ele>
        <time>2013-08-25T10:49:50.000Z</time>
      </trkpt>
      <trkpt lat="45.51171" lon="6.01688">
        <ele>295.39999389648</ele>
        <time>2013-08-25T10:49:51.000Z</time>
      </trkpt>
      <trkpt lat="45.51169" lon="6.01679">
        <ele>295.20001220703</ele>
        <time>2013-08-25T10:49:52.000Z</time>
      </trkpt>
      <trkpt lat="45.51167" lon="6.01671">
        <ele>295</ele>
        <time>2013-08-25T10:49:53.000Z</time>
      </trkpt>
      <trkpt lat="45.51165" lon="6.01662">
        <ele>294.79998779297</ele>
        <time>2013-08-25T10:49:54.000Z</time>
      </trkpt>
      <trkpt lat="45.51156" lon="6.0164">
        <ele>294.20001220703</ele>
        <time>2013-08-25T10:49:57.000Z</time>
      </trkpt>
      <trkpt lat="45.51155" lon="6.01633">
        <ele>294</ele>
        <time>2013-08-25T10:49:58.000Z</time>
      </trkpt>
      <trkpt lat="45.51155" lon="6.01619">
        <ele>293.79998779297</ele>
        <time>2013-08-25T10:50:00.000Z</time>
      </trkpt>
      <trkpt lat="45.51156" lon="6.01612">
        <ele>293.79998779297</ele>
        <time>2013-08-25T10:50:01.000Z</time>
      </trkpt>
      <trkpt lat="45.51157" lon="6.01605">
        <ele>293.79998779297</ele>
        <time>2013-08-25T10:50:02.000Z</time>
      </trkpt>
      <trkpt lat="45.51159" lon="6.01598">
        <ele>293.79998779297</ele>
        <time>2013-08-25T10:50:03.000Z</time>
      </trkpt>
      <trkpt lat="45.51161" lon="6.01591">
        <ele>293.79998779297</ele>
        <time>2013-08-25T10:50:04.000Z</time>
      </trkpt>
      <trkpt lat="45.51163" lon="6.01584">
        <ele>293.79998779297</ele>
        <time>2013-08-25T10:50:05.000Z</time>
      </trkpt>
      <trkpt lat="45.51165" lon="6.01578">
        <ele>294</ele>
        <time>2013-08-25T10:50:06.000Z</time>
      </trkpt>
      <trkpt lat="45.51167" lon="6.01571">
        <ele>294</ele>
        <time>2013-08-25T10:50:07.000Z</time>
      </trkpt>
      <trkpt lat="45.51169" lon="6.01565">
        <ele>294.39999389648</ele>
        <time>2013-08-25T10:50:08.000Z</time>
      </trkpt>
      <trkpt lat="45.5118" lon="6.0154">
        <ele>295.60000610352</ele>
        <time>2013-08-25T10:50:12.000Z</time>
      </trkpt>
      <trkpt lat="45.51183" lon="6.01534">
        <ele>296</ele>
        <time>2013-08-25T10:50:13.000Z</time>
      </trkpt>
      <trkpt lat="45.51185" lon="6.01528">
        <ele>296.20001220703</ele>
        <time>2013-08-25T10:50:14.000Z</time>
      </trkpt>
      <trkpt lat="45.51188" lon="6.01522">
        <ele>296.60000610352</ele>
        <time>2013-08-25T10:50:15.000Z</time>
      </trkpt>
      <trkpt lat="45.5119" lon="6.01516">
        <ele>297</ele>
        <time>2013-08-25T10:50:16.000Z</time>
      </trkpt>
      <trkpt lat="45.51203" lon="6.01483">
        <ele>299.20001220703</ele>
        <time>2013-08-25T10:50:22.000Z</time>
      </trkpt>
      <trkpt lat="45.51206" lon="6.01478">
        <ele>299.60000610352</ele>
        <time>2013-08-25T10:50:23.000Z</time>
      </trkpt>
      <trkpt lat="45.51208" lon="6.01472">
        <ele>300</ele>
        <time>2013-08-25T10:50:24.000Z</time>
      </trkpt>
      <trkpt lat="45.51212" lon="6.01461">
        <ele>300.79998779297</ele>
        <time>2013-08-25T10:50:26.000Z</time>
      </trkpt>
      <trkpt lat="45.51213" lon="6.01455">
        <ele>301</ele>
        <time>2013-08-25T10:50:27.000Z</time>
      </trkpt>
      <trkpt lat="45.51214" lon="6.0145">
        <ele>301.39999389648</ele>
        <time>2013-08-25T10:50:28.000Z</time>
      </trkpt>
      <trkpt lat="45.51216" lon="6.01444">
        <ele>301.79998779297</ele>
        <time>2013-08-25T10:50:29.000Z</time>
      </trkpt>
      <trkpt lat="45.51216" lon="6.01438">
        <ele>302</ele>
        <time>2013-08-25T10:50:30.000Z</time>
      </trkpt>
      <trkpt lat="45.51218" lon="6.01432">
        <ele>302.39999389648</ele>
        <time>2013-08-25T10:50:31.000Z</time>
      </trkpt>
      <trkpt lat="45.51219" lon="6.01426">
        <ele>302.79998779297</ele>
        <time>2013-08-25T10:50:32.000Z</time>
      </trkpt>
      <trkpt lat="45.5122" lon="6.01421">
        <ele>303.20001220703</ele>
        <time>2013-08-25T10:50:33.000Z</time>
      </trkpt>
      <trkpt lat="45.51222" lon="6.01415">
        <ele>303.39999389648</ele>
        <time>2013-08-25T10:50:34.000Z</time>
      </trkpt>
      <trkpt lat="45.51223" lon="6.01409">
        <ele>303.39999389648</ele>
        <time>2013-08-25T10:50:35.000Z</time>
      </trkpt>
      <trkpt lat="45.51225" lon="6.01404">
        <ele>303.39999389648</ele>
        <time>2013-08-25T10:50:36.000Z</time>
      </trkpt>
      <trkpt lat="45.51227" lon="6.01388">
        <ele>303.20001220703</ele>
        <time>2013-08-25T10:50:39.000Z</time>
      </trkpt>
      <trkpt lat="45.51229" lon="6.01378">
        <ele>303.20001220703</ele>
        <time>2013-08-25T10:50:41.000Z</time>
      </trkpt>
      <trkpt lat="45.5123" lon="6.01373">
        <ele>303</ele>
        <time>2013-08-25T10:50:42.000Z</time>
      </trkpt>
      <trkpt lat="45.51236" lon="6.01351">
        <ele>303</ele>
        <time>2013-08-25T10:50:48.000Z</time>
      </trkpt>
      <trkpt lat="45.51238" lon="6.01347">
        <ele>303</ele>
        <time>2013-08-25T10:50:49.000Z</time>
      </trkpt>
      <trkpt lat="45.5124" lon="6.01344">
        <ele>303.20001220703</ele>
        <time>2013-08-25T10:50:50.000Z</time>
      </trkpt>
      <trkpt lat="45.51241" lon="6.0134">
        <ele>303.20001220703</ele>
        <time>2013-08-25T10:50:51.000Z</time>
      </trkpt>
      <trkpt lat="45.51243" lon="6.01337">
        <ele>303.20001220703</ele>
        <time>2013-08-25T10:50:52.000Z</time>
      </trkpt>
      <trkpt lat="45.51244" lon="6.01333">
        <ele>303.20001220703</ele>
        <time>2013-08-25T10:50:53.000Z</time>
      </trkpt>
      <trkpt lat="45.51245" lon="6.0133">
        <ele>303.20001220703</ele>
        <time>2013-08-25T10:50:54.000Z</time>
      </trkpt>
      <trkpt lat="45.51247" lon="6.01327">
        <ele>303</ele>
        <time>2013-08-25T10:50:55.000Z</time>
      </trkpt>
      <trkpt lat="45.51248" lon="6.01324">
        <ele>303</ele>
        <time>2013-08-25T10:50:56.000Z</time>
      </trkpt>
      <trkpt lat="45.51249" lon="6.01321">
        <ele>303</ele>
        <time>2013-08-25T10:50:57.000Z</time>
      </trkpt>
      <trkpt lat="45.51251" lon="6.01318">
        <ele>303</ele>
        <time>2013-08-25T10:50:58.000Z</time>
      </trkpt>
      <trkpt lat="45.51252" lon="6.01315">
        <ele>303</ele>
        <time>2013-08-25T10:50:59.000Z</time>
      </trkpt>
      <trkpt lat="45.51254" lon="6.01313">
        <ele>303</ele>
        <time>2013-08-25T10:51:00.000Z</time>
      </trkpt>
      <trkpt lat="45.51257" lon="6.01309">
        <ele>303.39999389648</ele>
        <time>2013-08-25T10:51:02.000Z</time>
      </trkpt>
      <trkpt lat="45.51259" lon="6.01307">
        <ele>303.39999389648</ele>
        <time>2013-08-25T10:51:03.000Z</time>
      </trkpt>
      <trkpt lat="45.51261" lon="6.01305">
        <ele>303.60000610352</ele>
        <time>2013-08-25T10:51:04.000Z</time>
      </trkpt>
      <trkpt lat="45.51266" lon="6.01298">
        <ele>304</ele>
        <time>2013-08-25T10:51:07.000Z</time>
      </trkpt>
      <trkpt lat="45.51268" lon="6.01296">
        <ele>304.20001220703</ele>
        <time>2013-08-25T10:51:08.000Z</time>
      </trkpt>
      <trkpt lat="45.5127" lon="6.01294">
        <ele>304.39999389648</ele>
        <time>2013-08-25T10:51:09.000Z</time>
      </trkpt>
      <trkpt lat="45.51279" lon="6.01286">
        <ele>305.39999389648</ele>
        <time>2013-08-25T10:51:15.000Z</time>
      </trkpt>
      <trkpt lat="45.51292" lon="6.01283">
        <ele>307.20001220703</ele>
        <time>2013-08-25T10:51:31.000Z</time>
      </trkpt>
      <trkpt lat="45.51294" lon="6.01279">
        <ele>307.39999389648</ele>
        <time>2013-08-25T10:51:38.000Z</time>
      </trkpt>
      <trkpt lat="45.51307" lon="6.01276">
        <ele>309.39999389648</ele>
        <time>2013-08-25T10:51:57.000Z</time>
      </trkpt>
      <trkpt lat="45.51311" lon="6.01274">
        <ele>309.79998779297</ele>
        <time>2013-08-25T10:52:04.000Z</time>
      </trkpt>
      <trkpt lat="45.51317" lon="6.01272">
        <ele>310.60000610352</ele>
        <time>2013-08-25T10:52:15.000Z</time>
      </trkpt>
      <trkpt lat="45.5133" lon="6.01269">
        <ele>312.79998779297</ele>
        <time>2013-08-25T10:52:29.000Z</time>
      </trkpt>
      <trkpt lat="45.51336" lon="6.01262">
        <ele>313.20001220703</ele>
        <time>2013-08-25T10:52:39.000Z</time>
      </trkpt>
      <trkpt lat="45.51337" lon="6.01261">
        <ele>313.20001220703</ele>
        <time>2013-08-25T10:52:41.000Z</time>
      </trkpt>
      <trkpt lat="45.51338" lon="6.0126">
        <ele>313.20001220703</ele>
        <time>2013-08-25T10:52:43.000Z</time>
      </trkpt>
      <trkpt lat="45.51338" lon="6.01259">
        <ele>313.20001220703</ele>
        <time>2013-08-25T10:52:44.000Z</time>
      </trkpt>
      <trkpt lat="45.51341" lon="6.01258">
        <ele>313.39999389648</ele>
        <time>2013-08-25T10:52:47.000Z</time>
      </trkpt>
      <trkpt lat="45.51343" lon="6.01257">
        <ele>313.60000610352</ele>
        <time>2013-08-25T10:52:49.000Z</time>
      </trkpt>
      <trkpt lat="45.51345" lon="6.01256">
        <ele>313.79998779297</ele>
        <time>2013-08-25T10:52:50.000Z</time>
      </trkpt>
      <trkpt lat="45.51347" lon="6.01254">
        <ele>314</ele>
        <time>2013-08-25T10:52:51.000Z</time>
      </trkpt>
      <trkpt lat="45.51349" lon="6.01253">
        <ele>314.20001220703</ele>
        <time>2013-08-25T10:52:52.000Z</time>
      </trkpt>
      <trkpt lat="45.51353" lon="6.0125">
        <ele>314.60000610352</ele>
        <time>2013-08-25T10:52:54.000Z</time>
      </trkpt>
      <trkpt lat="45.51356" lon="6.01248">
        <ele>314.79998779297</ele>
        <time>2013-08-25T10:52:55.000Z</time>
      </trkpt>
      <trkpt lat="45.51357" lon="6.01247">
        <ele>314.79998779297</ele>
        <time>2013-08-25T10:52:56.000Z</time>
      </trkpt>
      <trkpt lat="45.51359" lon="6.01245">
        <ele>315</ele>
        <time>2013-08-25T10:52:57.000Z</time>
      </trkpt>
      <trkpt lat="45.51362" lon="6.01243">
        <ele>315.20001220703</ele>
        <time>2013-08-25T10:52:58.000Z</time>
      </trkpt>
      <trkpt lat="45.51363" lon="6.01241">
        <ele>315.39999389648</ele>
        <time>2013-08-25T10:52:59.000Z</time>
      </trkpt>
      <trkpt lat="45.51365" lon="6.01239">
        <ele>315.60000610352</ele>
        <time>2013-08-25T10:53:00.000Z</time>
      </trkpt>
      <trkpt lat="45.51369" lon="6.01235">
        <ele>316</ele>
        <time>2013-08-25T10:53:02.000Z</time>
      </trkpt>
      <trkpt lat="45.51371" lon="6.01232">
        <ele>316.20001220703</ele>
        <time>2013-08-25T10:53:03.000Z</time>
      </trkpt>
      <trkpt lat="45.51373" lon="6.0123">
        <ele>316.39999389648</ele>
        <time>2013-08-25T10:53:04.000Z</time>
      </trkpt>
      <trkpt lat="45.51378" lon="6.01226">
        <ele>317</ele>
        <time>2013-08-25T10:53:06.000Z</time>
      </trkpt>
      <trkpt lat="45.5138" lon="6.01225">
        <ele>317.39999389648</ele>
        <time>2013-08-25T10:53:07.000Z</time>
      </trkpt>
      <trkpt lat="45.51382" lon="6.01223">
        <ele>317.60000610352</ele>
        <time>2013-08-25T10:53:08.000Z</time>
      </trkpt>
      <trkpt lat="45.51387" lon="6.01221">
        <ele>318.20001220703</ele>
        <time>2013-08-25T10:53:10.000Z</time>
      </trkpt>
      <trkpt lat="45.51389" lon="6.01219">
        <ele>318.60000610352</ele>
        <time>2013-08-25T10:53:11.000Z</time>
      </trkpt>
      <trkpt lat="45.5139" lon="6.01218">
        <ele>318.79998779297</ele>
        <time>2013-08-25T10:53:12.000Z</time>
      </trkpt>
      <trkpt lat="45.51392" lon="6.01216">
        <ele>319</ele>
        <time>2013-08-25T10:53:13.000Z</time>
      </trkpt>
      <trkpt lat="45.51393" lon="6.01215">
        <ele>319.20001220703</ele>
        <time>2013-08-25T10:53:14.000Z</time>
      </trkpt>
      <trkpt lat="45.51394" lon="6.01214">
        <ele>319.39999389648</ele>
        <time>2013-08-25T10:53:15.000Z</time>
      </trkpt>
      <trkpt lat="45.51395" lon="6.01213">
        <ele>319.60000610352</ele>
        <time>2013-08-25T10:53:16.000Z</time>
      </trkpt>
      <trkpt lat="45.51396" lon="6.01212">
        <ele>319.79998779297</ele>
        <time>2013-08-25T10:53:17.000Z</time>
      </trkpt>
      <trkpt lat="45.51399" lon="6.0121">
        <ele>320.20001220703</ele>
        <time>2013-08-25T10:53:19.000Z</time>
      </trkpt>
      <trkpt lat="45.514" lon="6.0121">
        <ele>320.39999389648</ele>
        <time>2013-08-25T10:53:20.000Z</time>
      </trkpt>
      <trkpt lat="45.51401" lon="6.01209">
        <ele>320.60000610352</ele>
        <time>2013-08-25T10:53:21.000Z</time>
      </trkpt>
      <trkpt lat="45.51404" lon="6.01207">
        <ele>321</ele>
        <time>2013-08-25T10:53:23.000Z</time>
      </trkpt>
      <trkpt lat="45.51405" lon="6.01207">
        <ele>321.20001220703</ele>
        <time>2013-08-25T10:53:24.000Z</time>
      </trkpt>
      <trkpt lat="45.51405" lon="6.01206">
        <ele>321.39999389648</ele>
        <time>2013-08-25T10:53:25.000Z</time>
      </trkpt>
      <trkpt lat="45.51407" lon="6.01206">
        <ele>321.60000610352</ele>
        <time>2013-08-25T10:53:26.000Z</time>
      </trkpt>
      <trkpt lat="45.51409" lon="6.01205">
        <ele>322</ele>
        <time>2013-08-25T10:53:27.000Z</time>
      </trkpt>
      <trkpt lat="45.51412" lon="6.01205">
        <ele>322.39999389648</ele>
        <time>2013-08-25T10:53:29.000Z</time>
      </trkpt>
      <trkpt lat="45.51412" lon="6.01204">
        <ele>322.60000610352</ele>
        <time>2013-08-25T10:53:30.000Z</time>
      </trkpt>
      <trkpt lat="45.51413" lon="6.01204">
        <ele>322.79998779297</ele>
        <time>2013-08-25T10:53:31.000Z</time>
      </trkpt>
      <trkpt lat="45.51415" lon="6.01203">
        <ele>323</ele>
        <time>2013-08-25T10:53:32.000Z</time>
      </trkpt>
      <trkpt lat="45.51416" lon="6.01202">
        <ele>323.20001220703</ele>
        <time>2013-08-25T10:53:33.000Z</time>
      </trkpt>
      <trkpt lat="45.51417" lon="6.012">
        <ele>323.60000610352</ele>
        <time>2013-08-25T10:53:34.000Z</time>
      </trkpt>
      <trkpt lat="45.51418" lon="6.01198">
        <ele>323.60000610352</ele>
        <time>2013-08-25T10:53:35.000Z</time>
      </trkpt>
      <trkpt lat="45.51421" lon="6.01194">
        <ele>323.79998779297</ele>
        <time>2013-08-25T10:53:38.000Z</time>
      </trkpt>
      <trkpt lat="45.51423" lon="6.01193">
        <ele>324</ele>
        <time>2013-08-25T10:53:39.000Z</time>
      </trkpt>
      <trkpt lat="45.51425" lon="6.01192">
        <ele>324</ele>
        <time>2013-08-25T10:53:40.000Z</time>
      </trkpt>
      <trkpt lat="45.5143" lon="6.01188">
        <ele>324.39999389648</ele>
        <time>2013-08-25T10:53:43.000Z</time>
      </trkpt>
      <trkpt lat="45.51432" lon="6.01187">
        <ele>324.60000610352</ele>
        <time>2013-08-25T10:53:44.000Z</time>
      </trkpt>
      <trkpt lat="45.51434" lon="6.01186">
        <ele>324.79998779297</ele>
        <time>2013-08-25T10:53:46.000Z</time>
      </trkpt>
      <trkpt lat="45.51435" lon="6.01186">
        <ele>324.79998779297</ele>
        <time>2013-08-25T10:53:47.000Z</time>
      </trkpt>
      <trkpt lat="45.51435" lon="6.01185">
        <ele>324.79998779297</ele>
        <time>2013-08-25T10:53:48.000Z</time>
      </trkpt>
      <trkpt lat="45.51436" lon="6.01184">
        <ele>325</ele>
        <time>2013-08-25T10:53:49.000Z</time>
      </trkpt>
      <trkpt lat="45.51441" lon="6.01182">
        <ele>325.20001220703</ele>
        <time>2013-08-25T10:53:52.000Z</time>
      </trkpt>
      <trkpt lat="45.51445" lon="6.0118">
        <ele>325.60000610352</ele>
        <time>2013-08-25T10:53:54.000Z</time>
      </trkpt>
      <trkpt lat="45.51447" lon="6.01178">
        <ele>325.79998779297</ele>
        <time>2013-08-25T10:53:55.000Z</time>
      </trkpt>
      <trkpt lat="45.5145" lon="6.01178">
        <ele>326</ele>
        <time>2013-08-25T10:53:56.000Z</time>
      </trkpt>
      <trkpt lat="45.51452" lon="6.01177">
        <ele>326</ele>
        <time>2013-08-25T10:53:57.000Z</time>
      </trkpt>
      <trkpt lat="45.51454" lon="6.01176">
        <ele>326.20001220703</ele>
        <time>2013-08-25T10:53:58.000Z</time>
      </trkpt>
      <trkpt lat="45.51455" lon="6.01175">
        <ele>326.39999389648</ele>
        <time>2013-08-25T10:53:59.000Z</time>
      </trkpt>
      <trkpt lat="45.51457" lon="6.01174">
        <ele>326.60000610352</ele>
        <time>2013-08-25T10:54:00.000Z</time>
      </trkpt>
      <trkpt lat="45.51462" lon="6.01169">
        <ele>327</ele>
        <time>2013-08-25T10:54:03.000Z</time>
      </trkpt>
      <trkpt lat="45.51465" lon="6.01168">
        <ele>327.39999389648</ele>
        <time>2013-08-25T10:54:04.000Z</time>
      </trkpt>
      <trkpt lat="45.51467" lon="6.01166">
        <ele>327.39999389648</ele>
        <time>2013-08-25T10:54:05.000Z</time>
      </trkpt>
      <trkpt lat="45.51469" lon="6.01164">
        <ele>327.60000610352</ele>
        <time>2013-08-25T10:54:06.000Z</time>
      </trkpt>
      <trkpt lat="45.51471" lon="6.01163">
        <ele>327.60000610352</ele>
        <time>2013-08-25T10:54:07.000Z</time>
      </trkpt>
      <trkpt lat="45.51473" lon="6.01161">
        <ele>327.79998779297</ele>
        <time>2013-08-25T10:54:08.000Z</time>
      </trkpt>
      <trkpt lat="45.51475" lon="6.01159">
        <ele>327.79998779297</ele>
        <time>2013-08-25T10:54:09.000Z</time>
      </trkpt>
      <trkpt lat="45.51477" lon="6.01158">
        <ele>328</ele>
        <time>2013-08-25T10:54:10.000Z</time>
      </trkpt>
      <trkpt lat="45.51479" lon="6.01157">
        <ele>328.20001220703</ele>
        <time>2013-08-25T10:54:11.000Z</time>
      </trkpt>
      <trkpt lat="45.51481" lon="6.01156">
        <ele>328.20001220703</ele>
        <time>2013-08-25T10:54:12.000Z</time>
      </trkpt>
      <trkpt lat="45.51483" lon="6.01155">
        <ele>328.39999389648</ele>
        <time>2013-08-25T10:54:13.000Z</time>
      </trkpt>
      <trkpt lat="45.51485" lon="6.01154">
        <ele>328.60000610352</ele>
        <time>2013-08-25T10:54:14.000Z</time>
      </trkpt>
      <trkpt lat="45.51487" lon="6.01152">
        <ele>328.60000610352</ele>
        <time>2013-08-25T10:54:15.000Z</time>
      </trkpt>
      <trkpt lat="45.51493" lon="6.01149">
        <ele>329.20001220703</ele>
        <time>2013-08-25T10:54:18.000Z</time>
      </trkpt>
      <trkpt lat="45.51495" lon="6.01149">
        <ele>329.20001220703</ele>
        <time>2013-08-25T10:54:19.000Z</time>
      </trkpt>
      <trkpt lat="45.51499" lon="6.01148">
        <ele>329.60000610352</ele>
        <time>2013-08-25T10:54:21.000Z</time>
      </trkpt>
      <trkpt lat="45.51501" lon="6.01147">
        <ele>329.79998779297</ele>
        <time>2013-08-25T10:54:22.000Z</time>
      </trkpt>
      <trkpt lat="45.51503" lon="6.01147">
        <ele>329.79998779297</ele>
        <time>2013-08-25T10:54:23.000Z</time>
      </trkpt>
      <trkpt lat="45.51505" lon="6.01147">
        <ele>329.79998779297</ele>
        <time>2013-08-25T10:54:24.000Z</time>
      </trkpt>
      <trkpt lat="45.51507" lon="6.01147">
        <ele>330</ele>
        <time>2013-08-25T10:54:25.000Z</time>
      </trkpt>
      <trkpt lat="45.51508" lon="6.01148">
        <ele>330</ele>
        <time>2013-08-25T10:54:26.000Z</time>
      </trkpt>
      <trkpt lat="45.5151" lon="6.01149">
        <ele>330.20001220703</ele>
        <time>2013-08-25T10:54:27.000Z</time>
      </trkpt>
      <trkpt lat="45.51511" lon="6.01149">
        <ele>330.20001220703</ele>
        <time>2013-08-25T10:54:28.000Z</time>
      </trkpt>
      <trkpt lat="45.51513" lon="6.0115">
        <ele>330.39999389648</ele>
        <time>2013-08-25T10:54:29.000Z</time>
      </trkpt>
      <trkpt lat="45.51515" lon="6.01151">
        <ele>330.39999389648</ele>
        <time>2013-08-25T10:54:30.000Z</time>
      </trkpt>
      <trkpt lat="45.51516" lon="6.01152">
        <ele>330.60000610352</ele>
        <time>2013-08-25T10:54:31.000Z</time>
      </trkpt>
      <trkpt lat="45.51518" lon="6.01153">
        <ele>330.60000610352</ele>
        <time>2013-08-25T10:54:32.000Z</time>
      </trkpt>
      <trkpt lat="45.5152" lon="6.01154">
        <ele>330.79998779297</ele>
        <time>2013-08-25T10:54:33.000Z</time>
      </trkpt>
      <trkpt lat="45.51522" lon="6.01155">
        <ele>330.79998779297</ele>
        <time>2013-08-25T10:54:34.000Z</time>
      </trkpt>
      <trkpt lat="45.51524" lon="6.01156">
        <ele>331</ele>
        <time>2013-08-25T10:54:35.000Z</time>
      </trkpt>
      <trkpt lat="45.51526" lon="6.01157">
        <ele>331</ele>
        <time>2013-08-25T10:54:36.000Z</time>
      </trkpt>
      <trkpt lat="45.51528" lon="6.01157">
        <ele>331.20001220703</ele>
        <time>2013-08-25T10:54:37.000Z</time>
      </trkpt>
      <trkpt lat="45.5153" lon="6.01158">
        <ele>331.20001220703</ele>
        <time>2013-08-25T10:54:38.000Z</time>
      </trkpt>
      <trkpt lat="45.51533" lon="6.01158">
        <ele>331.39999389648</ele>
        <time>2013-08-25T10:54:39.000Z</time>
      </trkpt>
      <trkpt lat="45.51536" lon="6.01159">
        <ele>331.60000610352</ele>
        <time>2013-08-25T10:54:40.000Z</time>
      </trkpt>
      <trkpt lat="45.51538" lon="6.01159">
        <ele>331.60000610352</ele>
        <time>2013-08-25T10:54:41.000Z</time>
      </trkpt>
      <trkpt lat="45.51546" lon="6.01161">
        <ele>332</ele>
        <time>2013-08-25T10:54:44.000Z</time>
      </trkpt>
      <trkpt lat="45.51548" lon="6.01161">
        <ele>332.20001220703</ele>
        <time>2013-08-25T10:54:45.000Z</time>
      </trkpt>
      <trkpt lat="45.51552" lon="6.01161">
        <ele>332.39999389648</ele>
        <time>2013-08-25T10:54:47.000Z</time>
      </trkpt>
      <trkpt lat="45.51554" lon="6.0116">
        <ele>332.39999389648</ele>
        <time>2013-08-25T10:54:48.000Z</time>
      </trkpt>
      <trkpt lat="45.51556" lon="6.01159">
        <ele>332.60000610352</ele>
        <time>2013-08-25T10:54:49.000Z</time>
      </trkpt>
      <trkpt lat="45.51558" lon="6.01158">
        <ele>332.60000610352</ele>
        <time>2013-08-25T10:54:50.000Z</time>
      </trkpt>
      <trkpt lat="45.51561" lon="6.01156">
        <ele>332.60000610352</ele>
        <time>2013-08-25T10:54:51.000Z</time>
      </trkpt>
      <trkpt lat="45.51563" lon="6.01155">
        <ele>332.79998779297</ele>
        <time>2013-08-25T10:54:52.000Z</time>
      </trkpt>
      <trkpt lat="45.51566" lon="6.01154">
        <ele>332.79998779297</ele>
        <time>2013-08-25T10:54:53.000Z</time>
      </trkpt>
      <trkpt lat="45.51571" lon="6.01151">
        <ele>333.20001220703</ele>
        <time>2013-08-25T10:54:56.000Z</time>
      </trkpt>
      <trkpt lat="45.51573" lon="6.0115">
        <ele>333.20001220703</ele>
        <time>2013-08-25T10:54:57.000Z</time>
      </trkpt>
      <trkpt lat="45.51576" lon="6.01149">
        <ele>333.39999389648</ele>
        <time>2013-08-25T10:54:58.000Z</time>
      </trkpt>
      <trkpt lat="45.51578" lon="6.01149">
        <ele>333.39999389648</ele>
        <time>2013-08-25T10:54:59.000Z</time>
      </trkpt>
      <trkpt lat="45.5158" lon="6.01148">
        <ele>333.60000610352</ele>
        <time>2013-08-25T10:55:00.000Z</time>
      </trkpt>
      <trkpt lat="45.51582" lon="6.01146">
        <ele>333.60000610352</ele>
        <time>2013-08-25T10:55:01.000Z</time>
      </trkpt>
      <trkpt lat="45.51585" lon="6.01144">
        <ele>333.60000610352</ele>
        <time>2013-08-25T10:55:02.000Z</time>
      </trkpt>
      <trkpt lat="45.51592" lon="6.01141">
        <ele>333.79998779297</ele>
        <time>2013-08-25T10:55:05.000Z</time>
      </trkpt>
      <trkpt lat="45.51599" lon="6.01139">
        <ele>333.79998779297</ele>
        <time>2013-08-25T10:55:08.000Z</time>
      </trkpt>
      <trkpt lat="45.516" lon="6.01138">
        <ele>334</ele>
        <time>2013-08-25T10:55:09.000Z</time>
      </trkpt>
      <trkpt lat="45.51602" lon="6.01138">
        <ele>334</ele>
        <time>2013-08-25T10:55:10.000Z</time>
      </trkpt>
      <trkpt lat="45.51604" lon="6.01137">
        <ele>334</ele>
        <time>2013-08-25T10:55:11.000Z</time>
      </trkpt>
      <trkpt lat="45.51608" lon="6.01137">
        <ele>334</ele>
        <time>2013-08-25T10:55:14.000Z</time>
      </trkpt>
      <trkpt lat="45.51609" lon="6.01138">
        <ele>334</ele>
        <time>2013-08-25T10:55:15.000Z</time>
      </trkpt>
      <trkpt lat="45.5161" lon="6.01139">
        <ele>334.20001220703</ele>
        <time>2013-08-25T10:55:16.000Z</time>
      </trkpt>
      <trkpt lat="45.5161" lon="6.01141">
        <ele>334.20001220703</ele>
        <time>2013-08-25T10:55:17.000Z</time>
      </trkpt>
      <trkpt lat="45.51611" lon="6.01143">
        <ele>334.20001220703</ele>
        <time>2013-08-25T10:55:18.000Z</time>
      </trkpt>
      <trkpt lat="45.51611" lon="6.01144">
        <ele>334.20001220703</ele>
        <time>2013-08-25T10:55:19.000Z</time>
      </trkpt>
      <trkpt lat="45.51612" lon="6.01146">
        <ele>334.20001220703</ele>
        <time>2013-08-25T10:55:20.000Z</time>
      </trkpt>
      <trkpt lat="45.51612" lon="6.01149">
        <ele>334.20001220703</ele>
        <time>2013-08-25T10:55:21.000Z</time>
      </trkpt>
      <trkpt lat="45.51613" lon="6.01151">
        <ele>334.39999389648</ele>
        <time>2013-08-25T10:55:22.000Z</time>
      </trkpt>
      <trkpt lat="45.51613" lon="6.01153">
        <ele>334.39999389648</ele>
        <time>2013-08-25T10:55:23.000Z</time>
      </trkpt>
      <trkpt lat="45.51614" lon="6.01154">
        <ele>334.39999389648</ele>
        <time>2013-08-25T10:55:24.000Z</time>
      </trkpt>
      <trkpt lat="45.51616" lon="6.01156">
        <ele>334.60000610352</ele>
        <time>2013-08-25T10:55:25.000Z</time>
      </trkpt>
      <trkpt lat="45.51621" lon="6.01159">
        <ele>334.60000610352</ele>
        <time>2013-08-25T10:55:28.000Z</time>
      </trkpt>
      <trkpt lat="45.51622" lon="6.01159">
        <ele>334.79998779297</ele>
        <time>2013-08-25T10:55:29.000Z</time>
      </trkpt>
      <trkpt lat="45.51625" lon="6.01159">
        <ele>334.79998779297</ele>
        <time>2013-08-25T10:55:30.000Z</time>
      </trkpt>
      <trkpt lat="45.51627" lon="6.01159">
        <ele>334.79998779297</ele>
        <time>2013-08-25T10:55:31.000Z</time>
      </trkpt>
      <trkpt lat="45.51629" lon="6.01159">
        <ele>334.79998779297</ele>
        <time>2013-08-25T10:55:32.000Z</time>
      </trkpt>
      <trkpt lat="45.51632" lon="6.01159">
        <ele>335</ele>
        <time>2013-08-25T10:55:33.000Z</time>
      </trkpt>
      <trkpt lat="45.51643" lon="6.0116">
        <ele>335.20001220703</ele>
        <time>2013-08-25T10:55:35.000Z</time>
      </trkpt>
      <trkpt lat="45.51651" lon="6.0116">
        <ele>335.39999389648</ele>
        <time>2013-08-25T10:55:36.000Z</time>
      </trkpt>
      <trkpt lat="45.51654" lon="6.01159">
        <ele>335.39999389648</ele>
        <time>2013-08-25T10:55:37.000Z</time>
      </trkpt>
      <trkpt lat="45.51659" lon="6.01158">
        <ele>335.60000610352</ele>
        <time>2013-08-25T10:55:39.000Z</time>
      </trkpt>
      <trkpt lat="45.51662" lon="6.01157">
        <ele>335.60000610352</ele>
        <time>2013-08-25T10:55:40.000Z</time>
      </trkpt>
      <trkpt lat="45.51668" lon="6.01156">
        <ele>335.60000610352</ele>
        <time>2013-08-25T10:55:42.000Z</time>
      </trkpt>
      <trkpt lat="45.5167" lon="6.01156">
        <ele>335.79998779297</ele>
        <time>2013-08-25T10:55:43.000Z</time>
      </trkpt>
      <trkpt lat="45.51673" lon="6.01156">
        <ele>336</ele>
        <time>2013-08-25T10:55:44.000Z</time>
      </trkpt>
      <trkpt lat="45.51675" lon="6.01156">
        <ele>336</ele>
        <time>2013-08-25T10:55:45.000Z</time>
      </trkpt>
      <trkpt lat="45.51678" lon="6.01156">
        <ele>336.20001220703</ele>
        <time>2013-08-25T10:55:46.000Z</time>
      </trkpt>
      <trkpt lat="45.5168" lon="6.01155">
        <ele>336.20001220703</ele>
        <time>2013-08-25T10:55:47.000Z</time>
      </trkpt>
      <trkpt lat="45.51682" lon="6.01155">
        <ele>336.20001220703</ele>
        <time>2013-08-25T10:55:48.000Z</time>
      </trkpt>
      <trkpt lat="45.51684" lon="6.01154">
        <ele>336.39999389648</ele>
        <time>2013-08-25T10:55:49.000Z</time>
      </trkpt>
      <trkpt lat="45.51685" lon="6.01154">
        <ele>336.39999389648</ele>
        <time>2013-08-25T10:55:50.000Z</time>
      </trkpt>
      <trkpt lat="45.51687" lon="6.01153">
        <ele>336.39999389648</ele>
        <time>2013-08-25T10:55:51.000Z</time>
      </trkpt>
      <trkpt lat="45.51692" lon="6.01151">
        <ele>336.60000610352</ele>
        <time>2013-08-25T10:55:55.000Z</time>
      </trkpt>
      <trkpt lat="45.51694" lon="6.0115">
        <ele>336.79998779297</ele>
        <time>2013-08-25T10:55:56.000Z</time>
      </trkpt>
      <trkpt lat="45.51696" lon="6.0115">
        <ele>336.79998779297</ele>
        <time>2013-08-25T10:55:57.000Z</time>
      </trkpt>
      <trkpt lat="45.51698" lon="6.01148">
        <ele>337</ele>
        <time>2013-08-25T10:55:58.000Z</time>
      </trkpt>
      <trkpt lat="45.51701" lon="6.01145">
        <ele>337</ele>
        <time>2013-08-25T10:56:00.000Z</time>
      </trkpt>
      <trkpt lat="45.51703" lon="6.01143">
        <ele>337.20001220703</ele>
        <time>2013-08-25T10:56:01.000Z</time>
      </trkpt>
      <trkpt lat="45.51704" lon="6.01141">
        <ele>337.20001220703</ele>
        <time>2013-08-25T10:56:02.000Z</time>
      </trkpt>
      <trkpt lat="45.51706" lon="6.0114">
        <ele>337.20001220703</ele>
        <time>2013-08-25T10:56:03.000Z</time>
      </trkpt>
      <trkpt lat="45.51708" lon="6.01137">
        <ele>337.39999389648</ele>
        <time>2013-08-25T10:56:04.000Z</time>
      </trkpt>
      <trkpt lat="45.5171" lon="6.01135">
        <ele>337.39999389648</ele>
        <time>2013-08-25T10:56:05.000Z</time>
      </trkpt>
      <trkpt lat="45.51712" lon="6.01133">
        <ele>337.60000610352</ele>
        <time>2013-08-25T10:56:06.000Z</time>
      </trkpt>
      <trkpt lat="45.51715" lon="6.0113">
        <ele>337.79998779297</ele>
        <time>2013-08-25T10:56:07.000Z</time>
      </trkpt>
      <trkpt lat="45.51717" lon="6.01128">
        <ele>338</ele>
        <time>2013-08-25T10:56:08.000Z</time>
      </trkpt>
      <trkpt lat="45.5172" lon="6.01125">
        <ele>338</ele>
        <time>2013-08-25T10:56:09.000Z</time>
      </trkpt>
      <trkpt lat="45.51723" lon="6.01123">
        <ele>338.20001220703</ele>
        <time>2013-08-25T10:56:10.000Z</time>
      </trkpt>
      <trkpt lat="45.51725" lon="6.0112">
        <ele>338.39999389648</ele>
        <time>2013-08-25T10:56:11.000Z</time>
      </trkpt>
      <trkpt lat="45.51737" lon="6.01108">
        <ele>339.39999389648</ele>
        <time>2013-08-25T10:56:16.000Z</time>
      </trkpt>
      <trkpt lat="45.51739" lon="6.01106">
        <ele>339.60000610352</ele>
        <time>2013-08-25T10:56:17.000Z</time>
      </trkpt>
      <trkpt lat="45.51741" lon="6.01104">
        <ele>339.79998779297</ele>
        <time>2013-08-25T10:56:18.000Z</time>
      </trkpt>
      <trkpt lat="45.51743" lon="6.01102">
        <ele>340</ele>
        <time>2013-08-25T10:56:19.000Z</time>
      </trkpt>
      <trkpt lat="45.51751" lon="6.01093">
        <ele>340.79998779297</ele>
        <time>2013-08-25T10:56:24.000Z</time>
      </trkpt>
      <trkpt lat="45.51753" lon="6.01091">
        <ele>340.79998779297</ele>
        <time>2013-08-25T10:56:25.000Z</time>
      </trkpt>
      <trkpt lat="45.51757" lon="6.01081">
        <ele>341.20001220703</ele>
        <time>2013-08-25T10:56:26.000Z</time>
      </trkpt>
      <trkpt lat="45.51766" lon="6.01065">
        <ele>341</ele>
        <time>2013-08-25T10:56:30.000Z</time>
      </trkpt>
      <trkpt lat="45.51768" lon="6.01061">
        <ele>341</ele>
        <time>2013-08-25T10:56:31.000Z</time>
      </trkpt>
      <trkpt lat="45.5177" lon="6.01059">
        <ele>341</ele>
        <time>2013-08-25T10:56:32.000Z</time>
      </trkpt>
      <trkpt lat="45.51772" lon="6.01057">
        <ele>341</ele>
        <time>2013-08-25T10:56:33.000Z</time>
      </trkpt>
      <trkpt lat="45.51774" lon="6.01055">
        <ele>341.20001220703</ele>
        <time>2013-08-25T10:56:34.000Z</time>
      </trkpt>
      <trkpt lat="45.51776" lon="6.01054">
        <ele>341.20001220703</ele>
        <time>2013-08-25T10:56:35.000Z</time>
      </trkpt>
      <trkpt lat="45.51779" lon="6.01052">
        <ele>341.39999389648</ele>
        <time>2013-08-25T10:56:36.000Z</time>
      </trkpt>
      <trkpt lat="45.51781" lon="6.01051">
        <ele>341.39999389648</ele>
        <time>2013-08-25T10:56:37.000Z</time>
      </trkpt>
      <trkpt lat="45.5179" lon="6.01044">
        <ele>341.79998779297</ele>
        <time>2013-08-25T10:56:41.000Z</time>
      </trkpt>
      <trkpt lat="45.51792" lon="6.01043">
        <ele>342</ele>
        <time>2013-08-25T10:56:42.000Z</time>
      </trkpt>
      <trkpt lat="45.51796" lon="6.01041">
        <ele>342.20001220703</ele>
        <time>2013-08-25T10:56:43.000Z</time>
      </trkpt>
      <trkpt lat="45.51798" lon="6.0104">
        <ele>342.39999389648</ele>
        <time>2013-08-25T10:56:44.000Z</time>
      </trkpt>
      <trkpt lat="45.51801" lon="6.01038">
        <ele>342.60000610352</ele>
        <time>2013-08-25T10:56:45.000Z</time>
      </trkpt>
      <trkpt lat="45.51827" lon="6.01022">
        <ele>344.39999389648</ele>
        <time>2013-08-25T10:56:57.000Z</time>
      </trkpt>
      <trkpt lat="45.51829" lon="6.01022">
        <ele>344.60000610352</ele>
        <time>2013-08-25T10:56:58.000Z</time>
      </trkpt>
      <trkpt lat="45.51836" lon="6.01019">
        <ele>345</ele>
        <time>2013-08-25T10:57:01.000Z</time>
      </trkpt>
      <trkpt lat="45.51838" lon="6.01018">
        <ele>345</ele>
        <time>2013-08-25T10:57:02.000Z</time>
      </trkpt>
      <trkpt lat="45.5184" lon="6.01018">
        <ele>345</ele>
        <time>2013-08-25T10:57:03.000Z</time>
      </trkpt>
      <trkpt lat="45.51842" lon="6.01017">
        <ele>345</ele>
        <time>2013-08-25T10:57:04.000Z</time>
      </trkpt>
      <trkpt lat="45.51846" lon="6.01016">
        <ele>345.20001220703</ele>
        <time>2013-08-25T10:57:06.000Z</time>
      </trkpt>
      <trkpt lat="45.51849" lon="6.01016">
        <ele>345.20001220703</ele>
        <time>2013-08-25T10:57:07.000Z</time>
      </trkpt>
      <trkpt lat="45.51854" lon="6.01015">
        <ele>345.39999389648</ele>
        <time>2013-08-25T10:57:09.000Z</time>
      </trkpt>
      <trkpt lat="45.51857" lon="6.01014">
        <ele>345.39999389648</ele>
        <time>2013-08-25T10:57:10.000Z</time>
      </trkpt>
      <trkpt lat="45.51859" lon="6.01014">
        <ele>345.39999389648</ele>
        <time>2013-08-25T10:57:11.000Z</time>
      </trkpt>
      <trkpt lat="45.51865" lon="6.01012">
        <ele>345.60000610352</ele>
        <time>2013-08-25T10:57:13.000Z</time>
      </trkpt>
      <trkpt lat="45.51869" lon="6.01011">
        <ele>345.60000610352</ele>
        <time>2013-08-25T10:57:14.000Z</time>
      </trkpt>
      <trkpt lat="45.51872" lon="6.0101">
        <ele>345.79998779297</ele>
        <time>2013-08-25T10:57:15.000Z</time>
      </trkpt>
      <trkpt lat="45.51875" lon="6.01009">
        <ele>345.79998779297</ele>
        <time>2013-08-25T10:57:16.000Z</time>
      </trkpt>
      <trkpt lat="45.51878" lon="6.01008">
        <ele>345.79998779297</ele>
        <time>2013-08-25T10:57:17.000Z</time>
      </trkpt>
      <trkpt lat="45.51881" lon="6.01006">
        <ele>346</ele>
        <time>2013-08-25T10:57:18.000Z</time>
      </trkpt>
      <trkpt lat="45.51884" lon="6.01005">
        <ele>346</ele>
        <time>2013-08-25T10:57:19.000Z</time>
      </trkpt>
      <trkpt lat="45.51888" lon="6.01002">
        <ele>346.20001220703</ele>
        <time>2013-08-25T10:57:20.000Z</time>
      </trkpt>
      <trkpt lat="45.51891" lon="6.01">
        <ele>346.20001220703</ele>
        <time>2013-08-25T10:57:21.000Z</time>
      </trkpt>
      <trkpt lat="45.51894" lon="6.00998">
        <ele>346.20001220703</ele>
        <time>2013-08-25T10:57:22.000Z</time>
      </trkpt>
      <trkpt lat="45.51897" lon="6.00995">
        <ele>346.20001220703</ele>
        <time>2013-08-25T10:57:23.000Z</time>
      </trkpt>
      <trkpt lat="45.51906" lon="6.00988">
        <ele>346.20001220703</ele>
        <time>2013-08-25T10:57:26.000Z</time>
      </trkpt>
      <trkpt lat="45.51908" lon="6.00985">
        <ele>346.20001220703</ele>
        <time>2013-08-25T10:57:27.000Z</time>
      </trkpt>
      <trkpt lat="45.51911" lon="6.00982">
        <ele>346.20001220703</ele>
        <time>2013-08-25T10:57:28.000Z</time>
      </trkpt>
      <trkpt lat="45.51918" lon="6.00974">
        <ele>346.39999389648</ele>
        <time>2013-08-25T10:57:31.000Z</time>
      </trkpt>
      <trkpt lat="45.51921" lon="6.00972">
        <ele>346.39999389648</ele>
        <time>2013-08-25T10:57:32.000Z</time>
      </trkpt>
      <trkpt lat="45.51923" lon="6.00969">
        <ele>346.39999389648</ele>
        <time>2013-08-25T10:57:33.000Z</time>
      </trkpt>
      <trkpt lat="45.51926" lon="6.00967">
        <ele>346.60000610352</ele>
        <time>2013-08-25T10:57:34.000Z</time>
      </trkpt>
      <trkpt lat="45.5193" lon="6.00962">
        <ele>346.60000610352</ele>
        <time>2013-08-25T10:57:36.000Z</time>
      </trkpt>
      <trkpt lat="45.51933" lon="6.0096">
        <ele>346.60000610352</ele>
        <time>2013-08-25T10:57:37.000Z</time>
      </trkpt>
      <trkpt lat="45.51935" lon="6.00958">
        <ele>346.79998779297</ele>
        <time>2013-08-25T10:57:38.000Z</time>
      </trkpt>
      <trkpt lat="45.5194" lon="6.00953">
        <ele>347</ele>
        <time>2013-08-25T10:57:40.000Z</time>
      </trkpt>
      <trkpt lat="45.51942" lon="6.0095">
        <ele>347</ele>
        <time>2013-08-25T10:57:41.000Z</time>
      </trkpt>
      <trkpt lat="45.51945" lon="6.00948">
        <ele>347</ele>
        <time>2013-08-25T10:57:42.000Z</time>
      </trkpt>
      <trkpt lat="45.51949" lon="6.00934">
        <ele>347</ele>
        <time>2013-08-25T10:57:44.000Z</time>
      </trkpt>
      <trkpt lat="45.51953" lon="6.00919">
        <ele>347</ele>
        <time>2013-08-25T10:57:46.000Z</time>
      </trkpt>
      <trkpt lat="45.51954" lon="6.00913">
        <ele>347</ele>
        <time>2013-08-25T10:57:47.000Z</time>
      </trkpt>
      <trkpt lat="45.51958" lon="6.00906">
        <ele>346.79998779297</ele>
        <time>2013-08-25T10:57:49.000Z</time>
      </trkpt>
      <trkpt lat="45.5196" lon="6.00902">
        <ele>346.79998779297</ele>
        <time>2013-08-25T10:57:50.000Z</time>
      </trkpt>
      <trkpt lat="45.51964" lon="6.00894">
        <ele>346.79998779297</ele>
        <time>2013-08-25T10:57:52.000Z</time>
      </trkpt>
      <trkpt lat="45.51967" lon="6.0089">
        <ele>346.79998779297</ele>
        <time>2013-08-25T10:57:53.000Z</time>
      </trkpt>
      <trkpt lat="45.51971" lon="6.00883">
        <ele>346.79998779297</ele>
        <time>2013-08-25T10:57:55.000Z</time>
      </trkpt>
      <trkpt lat="45.51974" lon="6.00879">
        <ele>346.79998779297</ele>
        <time>2013-08-25T10:57:56.000Z</time>
      </trkpt>
      <trkpt lat="45.51988" lon="6.0086">
        <ele>347</ele>
        <time>2013-08-25T10:58:02.000Z</time>
      </trkpt>
      <trkpt lat="45.51992" lon="6.00857">
        <ele>347.20001220703</ele>
        <time>2013-08-25T10:58:03.000Z</time>
      </trkpt>
      <trkpt lat="45.51996" lon="6.00855">
        <ele>347.39999389648</ele>
        <time>2013-08-25T10:58:04.000Z</time>
      </trkpt>
      <trkpt lat="45.51999" lon="6.00853">
        <ele>347.60000610352</ele>
        <time>2013-08-25T10:58:05.000Z</time>
      </trkpt>
      <trkpt lat="45.52022" lon="6.00841">
        <ele>347.39999389648</ele>
        <time>2013-08-25T10:58:11.000Z</time>
      </trkpt>
      <trkpt lat="45.52026" lon="6.00839">
        <ele>347.39999389648</ele>
        <time>2013-08-25T10:58:12.000Z</time>
      </trkpt>
      <trkpt lat="45.5203" lon="6.00836">
        <ele>347.39999389648</ele>
        <time>2013-08-25T10:58:13.000Z</time>
      </trkpt>
      <trkpt lat="45.52034" lon="6.00834">
        <ele>347.39999389648</ele>
        <time>2013-08-25T10:58:14.000Z</time>
      </trkpt>
      <trkpt lat="45.52038" lon="6.00832">
        <ele>347.39999389648</ele>
        <time>2013-08-25T10:58:15.000Z</time>
      </trkpt>
      <trkpt lat="45.52041" lon="6.0083">
        <ele>347.20001220703</ele>
        <time>2013-08-25T10:58:16.000Z</time>
      </trkpt>
      <trkpt lat="45.52045" lon="6.00827">
        <ele>347.20001220703</ele>
        <time>2013-08-25T10:58:17.000Z</time>
      </trkpt>
      <trkpt lat="45.52048" lon="6.00825">
        <ele>347.20001220703</ele>
        <time>2013-08-25T10:58:18.000Z</time>
      </trkpt>
      <trkpt lat="45.52052" lon="6.00822">
        <ele>347.20001220703</ele>
        <time>2013-08-25T10:58:19.000Z</time>
      </trkpt>
      <trkpt lat="45.52056" lon="6.00819">
        <ele>347.20001220703</ele>
        <time>2013-08-25T10:58:20.000Z</time>
      </trkpt>
      <trkpt lat="45.5206" lon="6.00815">
        <ele>347.20001220703</ele>
        <time>2013-08-25T10:58:21.000Z</time>
      </trkpt>
      <trkpt lat="45.52065" lon="6.00812">
        <ele>347.20001220703</ele>
        <time>2013-08-25T10:58:22.000Z</time>
      </trkpt>
      <trkpt lat="45.52069" lon="6.00809">
        <ele>347.20001220703</ele>
        <time>2013-08-25T10:58:23.000Z</time>
      </trkpt>
      <trkpt lat="45.52084" lon="6.008">
        <ele>347.20001220703</ele>
        <time>2013-08-25T10:58:27.000Z</time>
      </trkpt>
      <trkpt lat="45.52088" lon="6.00798">
        <ele>347.20001220703</ele>
        <time>2013-08-25T10:58:28.000Z</time>
      </trkpt>
      <trkpt lat="45.52094" lon="6.00793">
        <ele>347.60000610352</ele>
        <time>2013-08-25T10:58:30.000Z</time>
      </trkpt>
      <trkpt lat="45.52097" lon="6.00791">
        <ele>347.60000610352</ele>
        <time>2013-08-25T10:58:31.000Z</time>
      </trkpt>
      <trkpt lat="45.521" lon="6.00788">
        <ele>347.79998779297</ele>
        <time>2013-08-25T10:58:32.000Z</time>
      </trkpt>
      <trkpt lat="45.52103" lon="6.00786">
        <ele>347.79998779297</ele>
        <time>2013-08-25T10:58:33.000Z</time>
      </trkpt>
      <trkpt lat="45.52106" lon="6.00783">
        <ele>348</ele>
        <time>2013-08-25T10:58:34.000Z</time>
      </trkpt>
      <trkpt lat="45.52112" lon="6.00775">
        <ele>348</ele>
        <time>2013-08-25T10:58:36.000Z</time>
      </trkpt>
      <trkpt lat="45.52114" lon="6.0077">
        <ele>348.20001220703</ele>
        <time>2013-08-25T10:58:37.000Z</time>
      </trkpt>
      <trkpt lat="45.52128" lon="6.00741">
        <ele>348.60000610352</ele>
        <time>2013-08-25T10:58:44.000Z</time>
      </trkpt>
      <trkpt lat="45.5213" lon="6.00737">
        <ele>348.79998779297</ele>
        <time>2013-08-25T10:58:45.000Z</time>
      </trkpt>
      <trkpt lat="45.52135" lon="6.00731">
        <ele>349.20001220703</ele>
        <time>2013-08-25T10:58:47.000Z</time>
      </trkpt>
      <trkpt lat="45.52137" lon="6.00728">
        <ele>349.20001220703</ele>
        <time>2013-08-25T10:58:48.000Z</time>
      </trkpt>
      <trkpt lat="45.52144" lon="6.00717">
        <ele>349.79998779297</ele>
        <time>2013-08-25T10:58:52.000Z</time>
      </trkpt>
      <trkpt lat="45.52145" lon="6.00712">
        <ele>350</ele>
        <time>2013-08-25T10:58:53.000Z</time>
      </trkpt>
      <trkpt lat="45.52146" lon="6.00707">
        <ele>350</ele>
        <time>2013-08-25T10:58:54.000Z</time>
      </trkpt>
      <trkpt lat="45.52147" lon="6.00701">
        <ele>350.20001220703</ele>
        <time>2013-08-25T10:58:55.000Z</time>
      </trkpt>
      <trkpt lat="45.52153" lon="6.00688">
        <ele>350.79998779297</ele>
        <time>2013-08-25T10:59:00.000Z</time>
      </trkpt>
      <trkpt lat="45.52154" lon="6.00686">
        <ele>350.79998779297</ele>
        <time>2013-08-25T10:59:01.000Z</time>
      </trkpt>
      <trkpt lat="45.52155" lon="6.00684">
        <ele>350.79998779297</ele>
        <time>2013-08-25T10:59:02.000Z</time>
      </trkpt>
      <trkpt lat="45.52164" lon="6.0067">
        <ele>351.60000610352</ele>
        <time>2013-08-25T10:59:09.000Z</time>
      </trkpt>
      <trkpt lat="45.52165" lon="6.00665">
        <ele>351.79998779297</ele>
        <time>2013-08-25T10:59:10.000Z</time>
      </trkpt>
      <trkpt lat="45.52168" lon="6.00658">
        <ele>352</ele>
        <time>2013-08-25T10:59:12.000Z</time>
      </trkpt>
      <trkpt lat="45.52169" lon="6.00656">
        <ele>352</ele>
        <time>2013-08-25T10:59:13.000Z</time>
      </trkpt>
      <trkpt lat="45.52176" lon="6.00643">
        <ele>352.39999389648</ele>
        <time>2013-08-25T10:59:18.000Z</time>
      </trkpt>
      <trkpt lat="45.52178" lon="6.00639">
        <ele>352.60000610352</ele>
        <time>2013-08-25T10:59:19.000Z</time>
      </trkpt>
      <trkpt lat="45.52179" lon="6.00636">
        <ele>352.79998779297</ele>
        <time>2013-08-25T10:59:20.000Z</time>
      </trkpt>
      <trkpt lat="45.52181" lon="6.00633">
        <ele>352.79998779297</ele>
        <time>2013-08-25T10:59:21.000Z</time>
      </trkpt>
      <trkpt lat="45.52183" lon="6.0063">
        <ele>353</ele>
        <time>2013-08-25T10:59:22.000Z</time>
      </trkpt>
      <trkpt lat="45.52185" lon="6.00626">
        <ele>353.20001220703</ele>
        <time>2013-08-25T10:59:23.000Z</time>
      </trkpt>
      <trkpt lat="45.52193" lon="6.00611">
        <ele>353.79998779297</ele>
        <time>2013-08-25T10:59:28.000Z</time>
      </trkpt>
      <trkpt lat="45.52195" lon="6.00608">
        <ele>353.79998779297</ele>
        <time>2013-08-25T10:59:29.000Z</time>
      </trkpt>
      <trkpt lat="45.52201" lon="6.00599">
        <ele>354.39999389648</ele>
        <time>2013-08-25T10:59:32.000Z</time>
      </trkpt>
      <trkpt lat="45.52203" lon="6.00597">
        <ele>354.39999389648</ele>
        <time>2013-08-25T10:59:33.000Z</time>
      </trkpt>
      <trkpt lat="45.52204" lon="6.00595">
        <ele>354.60000610352</ele>
        <time>2013-08-25T10:59:34.000Z</time>
      </trkpt>
      <trkpt lat="45.52206" lon="6.00592">
        <ele>354.60000610352</ele>
        <time>2013-08-25T10:59:35.000Z</time>
      </trkpt>
      <trkpt lat="45.52209" lon="6.00585">
        <ele>355</ele>
        <time>2013-08-25T10:59:39.000Z</time>
      </trkpt>
      <trkpt lat="45.5221" lon="6.00583">
        <ele>355</ele>
        <time>2013-08-25T10:59:40.000Z</time>
      </trkpt>
      <trkpt lat="45.52218" lon="6.00564">
        <ele>356.20001220703</ele>
        <time>2013-08-25T10:59:53.000Z</time>
      </trkpt>
      <trkpt lat="45.52218" lon="6.00564">
        <ele>356.20001220703</ele>
        <time>2013-08-25T10:59:54.000Z</time>
      </trkpt>
      <trkpt lat="45.52217" lon="6.00564">
        <ele>356.20001220703</ele>
        <time>2013-08-25T11:00:02.000Z</time>
      </trkpt>
      <trkpt lat="45.52217" lon="6.00564">
        <ele>356.20001220703</ele>
        <time>2013-08-25T11:00:04.000Z</time>
      </trkpt>
      <trkpt lat="45.52217" lon="6.00564">
        <ele>356.20001220703</ele>
        <time>2013-08-25T11:00:31.000Z</time>
      </trkpt>
      <trkpt lat="45.52217" lon="6.00563">
        <ele>356.20001220703</ele>
        <time>2013-08-25T11:00:38.000Z</time>
      </trkpt>
      <trkpt lat="45.52218" lon="6.00562">
        <ele>356.39999389648</ele>
        <time>2013-08-25T11:00:39.000Z</time>
      </trkpt>
      <trkpt lat="45.52219" lon="6.00561">
        <ele>356.39999389648</ele>
        <time>2013-08-25T11:00:40.000Z</time>
      </trkpt>
      <trkpt lat="45.52219" lon="6.0056">
        <ele>356.60000610352</ele>
        <time>2013-08-25T11:00:41.000Z</time>
      </trkpt>
      <trkpt lat="45.5222" lon="6.00558">
        <ele>356.60000610352</ele>
        <time>2013-08-25T11:00:42.000Z</time>
      </trkpt>
      <trkpt lat="45.52225" lon="6.00547">
        <ele>357.39999389648</ele>
        <time>2013-08-25T11:00:48.000Z</time>
      </trkpt>
      <trkpt lat="45.52229" lon="6.00542">
        <ele>357.79998779297</ele>
        <time>2013-08-25T11:00:51.000Z</time>
      </trkpt>
      <trkpt lat="45.5223" lon="6.0054">
        <ele>358</ele>
        <time>2013-08-25T11:00:52.000Z</time>
      </trkpt>
      <trkpt lat="45.52232" lon="6.00538">
        <ele>358.20001220703</ele>
        <time>2013-08-25T11:00:53.000Z</time>
      </trkpt>
      <trkpt lat="45.52233" lon="6.00536">
        <ele>358.39999389648</ele>
        <time>2013-08-25T11:00:54.000Z</time>
      </trkpt>
      <trkpt lat="45.52235" lon="6.00534">
        <ele>358.60000610352</ele>
        <time>2013-08-25T11:00:55.000Z</time>
      </trkpt>
      <trkpt lat="45.52236" lon="6.00532">
        <ele>358.79998779297</ele>
        <time>2013-08-25T11:00:56.000Z</time>
      </trkpt>
      <trkpt lat="45.52238" lon="6.0053">
        <ele>359</ele>
        <time>2013-08-25T11:00:57.000Z</time>
      </trkpt>
      <trkpt lat="45.5224" lon="6.00527">
        <ele>359.20001220703</ele>
        <time>2013-08-25T11:00:58.000Z</time>
      </trkpt>
      <trkpt lat="45.52243" lon="6.00525">
        <ele>359.39999389648</ele>
        <time>2013-08-25T11:00:59.000Z</time>
      </trkpt>
      <trkpt lat="45.52248" lon="6.00515">
        <ele>360.20001220703</ele>
        <time>2013-08-25T11:01:02.000Z</time>
      </trkpt>
      <trkpt lat="45.5225" lon="6.00511">
        <ele>360.39999389648</ele>
        <time>2013-08-25T11:01:03.000Z</time>
      </trkpt>
      <trkpt lat="45.52251" lon="6.00508">
        <ele>360.60000610352</ele>
        <time>2013-08-25T11:01:04.000Z</time>
      </trkpt>
      <trkpt lat="45.52252" lon="6.00505">
        <ele>360.79998779297</ele>
        <time>2013-08-25T11:01:05.000Z</time>
      </trkpt>
      <trkpt lat="45.52254" lon="6.00503">
        <ele>361</ele>
        <time>2013-08-25T11:01:06.000Z</time>
      </trkpt>
      <trkpt lat="45.52255" lon="6.005">
        <ele>361.20001220703</ele>
        <time>2013-08-25T11:01:07.000Z</time>
      </trkpt>
      <trkpt lat="45.52256" lon="6.00498">
        <ele>361.60000610352</ele>
        <time>2013-08-25T11:01:08.000Z</time>
      </trkpt>
      <trkpt lat="45.52258" lon="6.00496">
        <ele>361.79998779297</ele>
        <time>2013-08-25T11:01:09.000Z</time>
      </trkpt>
      <trkpt lat="45.52259" lon="6.00493">
        <ele>362</ele>
        <time>2013-08-25T11:01:10.000Z</time>
      </trkpt>
      <trkpt lat="45.52261" lon="6.00491">
        <ele>362.39999389648</ele>
        <time>2013-08-25T11:01:11.000Z</time>
      </trkpt>
      <trkpt lat="45.52264" lon="6.00487">
        <ele>363</ele>
        <time>2013-08-25T11:01:13.000Z</time>
      </trkpt>
      <trkpt lat="45.52266" lon="6.00484">
        <ele>363.20001220703</ele>
        <time>2013-08-25T11:01:14.000Z</time>
      </trkpt>
      <trkpt lat="45.52271" lon="6.00474">
        <ele>364.60000610352</ele>
        <time>2013-08-25T11:01:18.000Z</time>
      </trkpt>
      <trkpt lat="45.52273" lon="6.00472">
        <ele>364.79998779297</ele>
        <time>2013-08-25T11:01:19.000Z</time>
      </trkpt>
      <trkpt lat="45.52274" lon="6.00469">
        <ele>365.20001220703</ele>
        <time>2013-08-25T11:01:20.000Z</time>
      </trkpt>
      <trkpt lat="45.52276" lon="6.00466">
        <ele>365.60000610352</ele>
        <time>2013-08-25T11:01:21.000Z</time>
      </trkpt>
      <trkpt lat="45.52279" lon="6.00461">
        <ele>366.20001220703</ele>
        <time>2013-08-25T11:01:23.000Z</time>
      </trkpt>
      <trkpt lat="45.5228" lon="6.00459">
        <ele>366.60000610352</ele>
        <time>2013-08-25T11:01:24.000Z</time>
      </trkpt>
      <trkpt lat="45.52286" lon="6.00449">
        <ele>368</ele>
        <time>2013-08-25T11:01:28.000Z</time>
      </trkpt>
      <trkpt lat="45.52287" lon="6.00446">
        <ele>368.39999389648</ele>
        <time>2013-08-25T11:01:29.000Z</time>
      </trkpt>
      <trkpt lat="45.52288" lon="6.00443">
        <ele>368.79998779297</ele>
        <time>2013-08-25T11:01:30.000Z</time>
      </trkpt>
      <trkpt lat="45.52289" lon="6.0044">
        <ele>369</ele>
        <time>2013-08-25T11:01:31.000Z</time>
      </trkpt>
      <trkpt lat="45.52291" lon="6.00434">
        <ele>369.79998779297</ele>
        <time>2013-08-25T11:01:33.000Z</time>
      </trkpt>
      <trkpt lat="45.52292" lon="6.00426">
        <ele>370.60000610352</ele>
        <time>2013-08-25T11:01:36.000Z</time>
      </trkpt>
      <trkpt lat="45.52292" lon="6.00423">
        <ele>371</ele>
        <time>2013-08-25T11:01:37.000Z</time>
      </trkpt>
      <trkpt lat="45.52293" lon="6.00421">
        <ele>371.20001220703</ele>
        <time>2013-08-25T11:01:38.000Z</time>
      </trkpt>
      <trkpt lat="45.52293" lon="6.00418">
        <ele>371.39999389648</ele>
        <time>2013-08-25T11:01:39.000Z</time>
      </trkpt>
      <trkpt lat="45.52293" lon="6.00412">
        <ele>371.79998779297</ele>
        <time>2013-08-25T11:01:41.000Z</time>
      </trkpt>
      <trkpt lat="45.52294" lon="6.00409">
        <ele>372</ele>
        <time>2013-08-25T11:01:42.000Z</time>
      </trkpt>
      <trkpt lat="45.52293" lon="6.00406">
        <ele>372.20001220703</ele>
        <time>2013-08-25T11:01:43.000Z</time>
      </trkpt>
      <trkpt lat="45.52293" lon="6.00403">
        <ele>372.39999389648</ele>
        <time>2013-08-25T11:01:44.000Z</time>
      </trkpt>
      <trkpt lat="45.52293" lon="6.00401">
        <ele>372.60000610352</ele>
        <time>2013-08-25T11:01:45.000Z</time>
      </trkpt>
      <trkpt lat="45.52292" lon="6.00396">
        <ele>372.79998779297</ele>
        <time>2013-08-25T11:01:47.000Z</time>
      </trkpt>
      <trkpt lat="45.52292" lon="6.00393">
        <ele>372.79998779297</ele>
        <time>2013-08-25T11:01:48.000Z</time>
      </trkpt>
      <trkpt lat="45.52291" lon="6.00389">
        <ele>373</ele>
        <time>2013-08-25T11:01:50.000Z</time>
      </trkpt>
      <trkpt lat="45.5229" lon="6.00387">
        <ele>373</ele>
        <time>2013-08-25T11:01:51.000Z</time>
      </trkpt>
      <trkpt lat="45.52289" lon="6.00383">
        <ele>373.20001220703</ele>
        <time>2013-08-25T11:01:54.000Z</time>
      </trkpt>
      <trkpt lat="45.52291" lon="6.00379">
        <ele>373.60000610352</ele>
        <time>2013-08-25T11:01:56.000Z</time>
      </trkpt>
      <trkpt lat="45.52292" lon="6.00376">
        <ele>374</ele>
        <time>2013-08-25T11:01:58.000Z</time>
      </trkpt>
      <trkpt lat="45.52293" lon="6.00375">
        <ele>374</ele>
        <time>2013-08-25T11:01:59.000Z</time>
      </trkpt>
      <trkpt lat="45.52294" lon="6.00374">
        <ele>374.20001220703</ele>
        <time>2013-08-25T11:02:00.000Z</time>
      </trkpt>
      <trkpt lat="45.52294" lon="6.00373">
        <ele>374.39999389648</ele>
        <time>2013-08-25T11:02:01.000Z</time>
      </trkpt>
      <trkpt lat="45.52296" lon="6.00365">
        <ele>375.20001220703</ele>
        <time>2013-08-25T11:02:06.000Z</time>
      </trkpt>
      <trkpt lat="45.52298" lon="6.00363">
        <ele>375.39999389648</ele>
        <time>2013-08-25T11:02:07.000Z</time>
      </trkpt>
      <trkpt lat="45.52298" lon="6.00361">
        <ele>375.60000610352</ele>
        <time>2013-08-25T11:02:08.000Z</time>
      </trkpt>
      <trkpt lat="45.52299" lon="6.00358">
        <ele>375.79998779297</ele>
        <time>2013-08-25T11:02:09.000Z</time>
      </trkpt>
      <trkpt lat="45.523" lon="6.00356">
        <ele>376</ele>
        <time>2013-08-25T11:02:10.000Z</time>
      </trkpt>
      <trkpt lat="45.52301" lon="6.00354">
        <ele>376.39999389648</ele>
        <time>2013-08-25T11:02:11.000Z</time>
      </trkpt>
      <trkpt lat="45.52302" lon="6.00352">
        <ele>376.60000610352</ele>
        <time>2013-08-25T11:02:12.000Z</time>
      </trkpt>
      <trkpt lat="45.52303" lon="6.00352">
        <ele>376.79998779297</ele>
        <time>2013-08-25T11:02:13.000Z</time>
      </trkpt>
      <trkpt lat="45.52304" lon="6.0035">
        <ele>377</ele>
        <time>2013-08-25T11:02:14.000Z</time>
      </trkpt>
      <trkpt lat="45.52304" lon="6.00348">
        <ele>377</ele>
        <time>2013-08-25T11:02:15.000Z</time>
      </trkpt>
      <trkpt lat="45.52304" lon="6.00345">
        <ele>377.20001220703</ele>
        <time>2013-08-25T11:02:16.000Z</time>
      </trkpt>
      <trkpt lat="45.52306" lon="6.00342">
        <ele>377.79998779297</ele>
        <time>2013-08-25T11:02:18.000Z</time>
      </trkpt>
      <trkpt lat="45.52307" lon="6.00341">
        <ele>378</ele>
        <time>2013-08-25T11:02:19.000Z</time>
      </trkpt>
      <trkpt lat="45.52308" lon="6.00339">
        <ele>378.20001220703</ele>
        <time>2013-08-25T11:02:20.000Z</time>
      </trkpt>
      <trkpt lat="45.52309" lon="6.00338">
        <ele>378.39999389648</ele>
        <time>2013-08-25T11:02:21.000Z</time>
      </trkpt>
      <trkpt lat="45.5231" lon="6.00336">
        <ele>378.60000610352</ele>
        <time>2013-08-25T11:02:22.000Z</time>
      </trkpt>
      <trkpt lat="45.5231" lon="6.00334">
        <ele>378.79998779297</ele>
        <time>2013-08-25T11:02:23.000Z</time>
      </trkpt>
      <trkpt lat="45.52311" lon="6.00331">
        <ele>379</ele>
        <time>2013-08-25T11:02:24.000Z</time>
      </trkpt>
      <trkpt lat="45.52316" lon="6.0032">
        <ele>379.79998779297</ele>
        <time>2013-08-25T11:02:30.000Z</time>
      </trkpt>
      <trkpt lat="45.52317" lon="6.00318">
        <ele>379.79998779297</ele>
        <time>2013-08-25T11:02:31.000Z</time>
      </trkpt>
      <trkpt lat="45.52321" lon="6.0031">
        <ele>380.39999389648</ele>
        <time>2013-08-25T11:02:35.000Z</time>
      </trkpt>
      <trkpt lat="45.52322" lon="6.00308">
        <ele>380.60000610352</ele>
        <time>2013-08-25T11:02:36.000Z</time>
      </trkpt>
      <trkpt lat="45.52324" lon="6.00306">
        <ele>380.79998779297</ele>
        <time>2013-08-25T11:02:37.000Z</time>
      </trkpt>
      <trkpt lat="45.52324" lon="6.00303">
        <ele>381</ele>
        <time>2013-08-25T11:02:38.000Z</time>
      </trkpt>
      <trkpt lat="45.52325" lon="6.003">
        <ele>381</ele>
        <time>2013-08-25T11:02:39.000Z</time>
      </trkpt>
      <trkpt lat="45.52326" lon="6.00298">
        <ele>381.20001220703</ele>
        <time>2013-08-25T11:02:40.000Z</time>
      </trkpt>
      <trkpt lat="45.52327" lon="6.00296">
        <ele>381.39999389648</ele>
        <time>2013-08-25T11:02:41.000Z</time>
      </trkpt>
      <trkpt lat="45.52328" lon="6.00294">
        <ele>381.60000610352</ele>
        <time>2013-08-25T11:02:42.000Z</time>
      </trkpt>
      <trkpt lat="45.52329" lon="6.00291">
        <ele>381.79998779297</ele>
        <time>2013-08-25T11:02:43.000Z</time>
      </trkpt>
      <trkpt lat="45.52331" lon="6.00287">
        <ele>382.20001220703</ele>
        <time>2013-08-25T11:02:45.000Z</time>
      </trkpt>
      <trkpt lat="45.52332" lon="6.00285">
        <ele>382.39999389648</ele>
        <time>2013-08-25T11:02:46.000Z</time>
      </trkpt>
      <trkpt lat="45.52334" lon="6.00283">
        <ele>382.60000610352</ele>
        <time>2013-08-25T11:02:47.000Z</time>
      </trkpt>
      <trkpt lat="45.52335" lon="6.00281">
        <ele>382.79998779297</ele>
        <time>2013-08-25T11:02:48.000Z</time>
      </trkpt>
      <trkpt lat="45.52337" lon="6.00279">
        <ele>383</ele>
        <time>2013-08-25T11:02:49.000Z</time>
      </trkpt>
      <trkpt lat="45.52338" lon="6.00277">
        <ele>383.39999389648</ele>
        <time>2013-08-25T11:02:50.000Z</time>
      </trkpt>
      <trkpt lat="45.5234" lon="6.00274">
        <ele>383.79998779297</ele>
        <time>2013-08-25T11:02:51.000Z</time>
      </trkpt>
      <trkpt lat="45.52342" lon="6.00272">
        <ele>384</ele>
        <time>2013-08-25T11:02:52.000Z</time>
      </trkpt>
      <trkpt lat="45.52344" lon="6.0027">
        <ele>384.39999389648</ele>
        <time>2013-08-25T11:02:53.000Z</time>
      </trkpt>
      <trkpt lat="45.52345" lon="6.00267">
        <ele>384.79998779297</ele>
        <time>2013-08-25T11:02:54.000Z</time>
      </trkpt>
      <trkpt lat="45.52347" lon="6.00266">
        <ele>385</ele>
        <time>2013-08-25T11:02:55.000Z</time>
      </trkpt>
      <trkpt lat="45.52348" lon="6.00263">
        <ele>385.39999389648</ele>
        <time>2013-08-25T11:02:56.000Z</time>
      </trkpt>
      <trkpt lat="45.52351" lon="6.0026">
        <ele>386</ele>
        <time>2013-08-25T11:02:58.000Z</time>
      </trkpt>
      <trkpt lat="45.52357" lon="6.00255">
        <ele>387</ele>
        <time>2013-08-25T11:03:01.000Z</time>
      </trkpt>
      <trkpt lat="45.52357" lon="6.00253">
        <ele>387.20001220703</ele>
        <time>2013-08-25T11:03:02.000Z</time>
      </trkpt>
      <trkpt lat="45.52357" lon="6.00251">
        <ele>387.20001220703</ele>
        <time>2013-08-25T11:03:03.000Z</time>
      </trkpt>
      <trkpt lat="45.52358" lon="6.00248">
        <ele>387.20001220703</ele>
        <time>2013-08-25T11:03:05.000Z</time>
      </trkpt>
      <trkpt lat="45.52359" lon="6.00247">
        <ele>387.39999389648</ele>
        <time>2013-08-25T11:03:06.000Z</time>
      </trkpt>
      <trkpt lat="45.52361" lon="6.00245">
        <ele>387.60000610352</ele>
        <time>2013-08-25T11:03:07.000Z</time>
      </trkpt>
      <trkpt lat="45.52362" lon="6.00241">
        <ele>387.60000610352</ele>
        <time>2013-08-25T11:03:09.000Z</time>
      </trkpt>
      <trkpt lat="45.52363" lon="6.00239">
        <ele>387.79998779297</ele>
        <time>2013-08-25T11:03:10.000Z</time>
      </trkpt>
      <trkpt lat="45.52368" lon="6.00231">
        <ele>388.20001220703</ele>
        <time>2013-08-25T11:03:14.000Z</time>
      </trkpt>
      <trkpt lat="45.5237" lon="6.0023">
        <ele>388.39999389648</ele>
        <time>2013-08-25T11:03:15.000Z</time>
      </trkpt>
      <trkpt lat="45.52371" lon="6.00228">
        <ele>388.60000610352</ele>
        <time>2013-08-25T11:03:16.000Z</time>
      </trkpt>
      <trkpt lat="45.52373" lon="6.00227">
        <ele>388.79998779297</ele>
        <time>2013-08-25T11:03:17.000Z</time>
      </trkpt>
      <trkpt lat="45.52374" lon="6.00226">
        <ele>389</ele>
        <time>2013-08-25T11:03:18.000Z</time>
      </trkpt>
      <trkpt lat="45.52375" lon="6.00225">
        <ele>389.20001220703</ele>
        <time>2013-08-25T11:03:19.000Z</time>
      </trkpt>
      <trkpt lat="45.52376" lon="6.00224">
        <ele>389.39999389648</ele>
        <time>2013-08-25T11:03:20.000Z</time>
      </trkpt>
      <trkpt lat="45.52379" lon="6.00225">
        <ele>390</ele>
        <time>2013-08-25T11:03:22.000Z</time>
      </trkpt>
      <trkpt lat="45.52381" lon="6.00224">
        <ele>390.39999389648</ele>
        <time>2013-08-25T11:03:24.000Z</time>
      </trkpt>
      <trkpt lat="45.52383" lon="6.00223">
        <ele>390.60000610352</ele>
        <time>2013-08-25T11:03:25.000Z</time>
      </trkpt>
      <trkpt lat="45.52384" lon="6.00223">
        <ele>390.79998779297</ele>
        <time>2013-08-25T11:03:26.000Z</time>
      </trkpt>
      <trkpt lat="45.52386" lon="6.00221">
        <ele>391.20001220703</ele>
        <time>2013-08-25T11:03:27.000Z</time>
      </trkpt>
      <trkpt lat="45.52387" lon="6.0022">
        <ele>391.39999389648</ele>
        <time>2013-08-25T11:03:28.000Z</time>
      </trkpt>
      <trkpt lat="45.52388" lon="6.0022">
        <ele>391.60000610352</ele>
        <time>2013-08-25T11:03:29.000Z</time>
      </trkpt>
      <trkpt lat="45.5239" lon="6.00219">
        <ele>392</ele>
        <time>2013-08-25T11:03:31.000Z</time>
      </trkpt>
      <trkpt lat="45.52391" lon="6.0022">
        <ele>392.20001220703</ele>
        <time>2013-08-25T11:03:32.000Z</time>
      </trkpt>
      <trkpt lat="45.52393" lon="6.00219">
        <ele>392.39999389648</ele>
        <time>2013-08-25T11:03:34.000Z</time>
      </trkpt>
      <trkpt lat="45.52394" lon="6.00219">
        <ele>392.79998779297</ele>
        <time>2013-08-25T11:03:35.000Z</time>
      </trkpt>
      <trkpt lat="45.52404" lon="6.00219">
        <ele>394.60000610352</ele>
        <time>2013-08-25T11:03:42.000Z</time>
      </trkpt>
      <trkpt lat="45.52405" lon="6.00218">
        <ele>394.79998779297</ele>
        <time>2013-08-25T11:03:43.000Z</time>
      </trkpt>
      <trkpt lat="45.52411" lon="6.00214">
        <ele>396</ele>
        <time>2013-08-25T11:03:48.000Z</time>
      </trkpt>
      <trkpt lat="45.52414" lon="6.00211">
        <ele>396.39999389648</ele>
        <time>2013-08-25T11:03:50.000Z</time>
      </trkpt>
      <trkpt lat="45.52414" lon="6.0021">
        <ele>396.39999389648</ele>
        <time>2013-08-25T11:03:51.000Z</time>
      </trkpt>
      <trkpt lat="45.52415" lon="6.00209">
        <ele>396.60000610352</ele>
        <time>2013-08-25T11:03:52.000Z</time>
      </trkpt>
      <trkpt lat="45.5242" lon="6.00205">
        <ele>397.39999389648</ele>
        <time>2013-08-25T11:03:58.000Z</time>
      </trkpt>
      <trkpt lat="45.5242" lon="6.00205">
        <ele>397.60000610352</ele>
        <time>2013-08-25T11:03:59.000Z</time>
      </trkpt>
      <trkpt lat="45.52421" lon="6.00206">
        <ele>397.60000610352</ele>
        <time>2013-08-25T11:04:00.000Z</time>
      </trkpt>
      <trkpt lat="45.52424" lon="6.00209">
        <ele>398.20001220703</ele>
        <time>2013-08-25T11:04:03.000Z</time>
      </trkpt>
      <trkpt lat="45.52426" lon="6.00212">
        <ele>398.60000610352</ele>
        <time>2013-08-25T11:04:05.000Z</time>
      </trkpt>
      <trkpt lat="45.52428" lon="6.00214">
        <ele>399</ele>
        <time>2013-08-25T11:04:07.000Z</time>
      </trkpt>
      <trkpt lat="45.52433" lon="6.00219">
        <ele>400</ele>
        <time>2013-08-25T11:04:13.000Z</time>
      </trkpt>
      <trkpt lat="45.52434" lon="6.0022">
        <ele>400.20001220703</ele>
        <time>2013-08-25T11:04:14.000Z</time>
      </trkpt>
      <trkpt lat="45.52437" lon="6.00221">
        <ele>400.79998779297</ele>
        <time>2013-08-25T11:04:17.000Z</time>
      </trkpt>
      <trkpt lat="45.52439" lon="6.00221">
        <ele>401</ele>
        <time>2013-08-25T11:04:19.000Z</time>
      </trkpt>
      <trkpt lat="45.5244" lon="6.00222">
        <ele>401.20001220703</ele>
        <time>2013-08-25T11:04:20.000Z</time>
      </trkpt>
      <trkpt lat="45.52443" lon="6.00222">
        <ele>401.79998779297</ele>
        <time>2013-08-25T11:04:22.000Z</time>
      </trkpt>
      <trkpt lat="45.52448" lon="6.00224">
        <ele>402.60000610352</ele>
        <time>2013-08-25T11:04:25.000Z</time>
      </trkpt>
      <trkpt lat="45.52452" lon="6.00225">
        <ele>403.20001220703</ele>
        <time>2013-08-25T11:04:28.000Z</time>
      </trkpt>
      <trkpt lat="45.52457" lon="6.00224">
        <ele>404</ele>
        <time>2013-08-25T11:04:31.000Z</time>
      </trkpt>
      <trkpt lat="45.5247" lon="6.00233">
        <ele>406.20001220703</ele>
        <time>2013-08-25T11:04:44.000Z</time>
      </trkpt>
      <trkpt lat="45.5247" lon="6.00233">
        <ele>406.20001220703</ele>
        <time>2013-08-25T11:04:53.000Z</time>
      </trkpt>
      <trkpt lat="45.5247" lon="6.00233">
        <ele>406.20001220703</ele>
        <time>2013-08-25T11:05:00.000Z</time>
      </trkpt>
      <trkpt lat="45.5247" lon="6.00235">
        <ele>406.20001220703</ele>
        <time>2013-08-25T11:05:25.000Z</time>
      </trkpt>
      <trkpt lat="45.5247" lon="6.00237">
        <ele>406.20001220703</ele>
        <time>2013-08-25T11:05:26.000Z</time>
      </trkpt>
      <trkpt lat="45.5247" lon="6.00245">
        <ele>406.20001220703</ele>
        <time>2013-08-25T11:05:29.000Z</time>
      </trkpt>
      <trkpt lat="45.52471" lon="6.0025">
        <ele>406.39999389648</ele>
        <time>2013-08-25T11:05:31.000Z</time>
      </trkpt>
      <trkpt lat="45.52472" lon="6.0026">
        <ele>406</ele>
        <time>2013-08-25T11:05:35.000Z</time>
      </trkpt>
      <trkpt lat="45.52472" lon="6.00263">
        <ele>406</ele>
        <time>2013-08-25T11:05:36.000Z</time>
      </trkpt>
      <trkpt lat="45.52473" lon="6.00265">
        <ele>405.79998779297</ele>
        <time>2013-08-25T11:05:37.000Z</time>
      </trkpt>
      <trkpt lat="45.52491" lon="6.00312">
        <ele>406</ele>
        <time>2013-08-25T11:05:52.000Z</time>
      </trkpt>
      <trkpt lat="45.52493" lon="6.00313">
        <ele>406.20001220703</ele>
        <time>2013-08-25T11:05:53.000Z</time>
      </trkpt>
      <trkpt lat="45.52495" lon="6.00314">
        <ele>406.39999389648</ele>
        <time>2013-08-25T11:05:54.000Z</time>
      </trkpt>
      <trkpt lat="45.52497" lon="6.00314">
        <ele>406.79998779297</ele>
        <time>2013-08-25T11:05:55.000Z</time>
      </trkpt>
      <trkpt lat="45.525" lon="6.00314">
        <ele>407</ele>
        <time>2013-08-25T11:05:56.000Z</time>
      </trkpt>
      <trkpt lat="45.52502" lon="6.00313">
        <ele>407.39999389648</ele>
        <time>2013-08-25T11:05:57.000Z</time>
      </trkpt>
      <trkpt lat="45.52504" lon="6.00313">
        <ele>407.60000610352</ele>
        <time>2013-08-25T11:05:58.000Z</time>
      </trkpt>
      <trkpt lat="45.52506" lon="6.00312">
        <ele>407.79998779297</ele>
        <time>2013-08-25T11:05:59.000Z</time>
      </trkpt>
      <trkpt lat="45.52508" lon="6.0031">
        <ele>408.20001220703</ele>
        <time>2013-08-25T11:06:00.000Z</time>
      </trkpt>
      <trkpt lat="45.52509" lon="6.00309">
        <ele>408.39999389648</ele>
        <time>2013-08-25T11:06:01.000Z</time>
      </trkpt>
      <trkpt lat="45.52511" lon="6.00307">
        <ele>408.60000610352</ele>
        <time>2013-08-25T11:06:02.000Z</time>
      </trkpt>
      <trkpt lat="45.52513" lon="6.00306">
        <ele>409</ele>
        <time>2013-08-25T11:06:03.000Z</time>
      </trkpt>
      <trkpt lat="45.52515" lon="6.00305">
        <ele>409.20001220703</ele>
        <time>2013-08-25T11:06:04.000Z</time>
      </trkpt>
      <trkpt lat="45.52517" lon="6.00304">
        <ele>409.60000610352</ele>
        <time>2013-08-25T11:06:05.000Z</time>
      </trkpt>
      <trkpt lat="45.52519" lon="6.00304">
        <ele>409.79998779297</ele>
        <time>2013-08-25T11:06:06.000Z</time>
      </trkpt>
      <trkpt lat="45.52523" lon="6.00302">
        <ele>410.39999389648</ele>
        <time>2013-08-25T11:06:08.000Z</time>
      </trkpt>
      <trkpt lat="45.52525" lon="6.00302">
        <ele>410.60000610352</ele>
        <time>2013-08-25T11:06:09.000Z</time>
      </trkpt>
      <trkpt lat="45.52528" lon="6.003">
        <ele>411</ele>
        <time>2013-08-25T11:06:11.000Z</time>
      </trkpt>
      <trkpt lat="45.52529" lon="6.00299">
        <ele>411.39999389648</ele>
        <time>2013-08-25T11:06:12.000Z</time>
      </trkpt>
      <trkpt lat="45.52531" lon="6.00298">
        <ele>411.60000610352</ele>
        <time>2013-08-25T11:06:13.000Z</time>
      </trkpt>
      <trkpt lat="45.52535" lon="6.00296">
        <ele>412.20001220703</ele>
        <time>2013-08-25T11:06:15.000Z</time>
      </trkpt>
      <trkpt lat="45.52536" lon="6.00296">
        <ele>412.39999389648</ele>
        <time>2013-08-25T11:06:16.000Z</time>
      </trkpt>
      <trkpt lat="45.52544" lon="6.00292">
        <ele>413.79998779297</ele>
        <time>2013-08-25T11:06:22.000Z</time>
      </trkpt>
      <trkpt lat="45.52557" lon="6.00286">
        <ele>415.79998779297</ele>
        <time>2013-08-25T11:06:30.000Z</time>
      </trkpt>
      <trkpt lat="45.52558" lon="6.00286">
        <ele>416</ele>
        <time>2013-08-25T11:06:31.000Z</time>
      </trkpt>
      <trkpt lat="45.52563" lon="6.00283">
        <ele>416.79998779297</ele>
        <time>2013-08-25T11:06:34.000Z</time>
      </trkpt>
      <trkpt lat="45.52564" lon="6.00283">
        <ele>417</ele>
        <time>2013-08-25T11:06:35.000Z</time>
      </trkpt>
      <trkpt lat="45.52566" lon="6.00282">
        <ele>417.20001220703</ele>
        <time>2013-08-25T11:06:36.000Z</time>
      </trkpt>
      <trkpt lat="45.52571" lon="6.0028">
        <ele>418</ele>
        <time>2013-08-25T11:06:39.000Z</time>
      </trkpt>
      <trkpt lat="45.52573" lon="6.0028">
        <ele>418.20001220703</ele>
        <time>2013-08-25T11:06:40.000Z</time>
      </trkpt>
      <trkpt lat="45.52579" lon="6.00279">
        <ele>419.20001220703</ele>
        <time>2013-08-25T11:06:44.000Z</time>
      </trkpt>
      <trkpt lat="45.52581" lon="6.00279">
        <ele>419.39999389648</ele>
        <time>2013-08-25T11:06:45.000Z</time>
      </trkpt>
      <trkpt lat="45.52591" lon="6.00275">
        <ele>420.20001220703</ele>
        <time>2013-08-25T11:06:51.000Z</time>
      </trkpt>
      <trkpt lat="45.52593" lon="6.00273">
        <ele>420.60000610352</ele>
        <time>2013-08-25T11:06:53.000Z</time>
      </trkpt>
      <trkpt lat="45.52594" lon="6.00272">
        <ele>420.60000610352</ele>
        <time>2013-08-25T11:06:54.000Z</time>
      </trkpt>
      <trkpt lat="45.52596" lon="6.00271">
        <ele>420.79998779297</ele>
        <time>2013-08-25T11:06:55.000Z</time>
      </trkpt>
      <trkpt lat="45.52598" lon="6.00269">
        <ele>421</ele>
        <time>2013-08-25T11:06:57.000Z</time>
      </trkpt>
      <trkpt lat="45.52611" lon="6.00258">
        <ele>422.39999389648</ele>
        <time>2013-08-25T11:07:15.000Z</time>
      </trkpt>
      <trkpt lat="45.52609" lon="6.00258">
        <ele>422.39999389648</ele>
        <time>2013-08-25T11:07:45.000Z</time>
      </trkpt>
      <trkpt lat="45.52609" lon="6.00258">
        <ele>422.39999389648</ele>
        <time>2013-08-25T11:08:35.000Z</time>
      </trkpt>
      <trkpt lat="45.52613" lon="6.00256">
        <ele>422.60000610352</ele>
        <time>2013-08-25T11:09:43.000Z</time>
      </trkpt>
      <trkpt lat="45.52613" lon="6.00254">
        <ele>422.79998779297</ele>
        <time>2013-08-25T11:09:44.000Z</time>
      </trkpt>
      <trkpt lat="45.52613" lon="6.00252">
        <ele>423</ele>
        <time>2013-08-25T11:09:45.000Z</time>
      </trkpt>
      <trkpt lat="45.52613" lon="6.0025">
        <ele>423.20001220703</ele>
        <time>2013-08-25T11:09:46.000Z</time>
      </trkpt>
      <trkpt lat="45.52612" lon="6.00247">
        <ele>423.39999389648</ele>
        <time>2013-08-25T11:09:47.000Z</time>
      </trkpt>
      <trkpt lat="45.52611" lon="6.00244">
        <ele>423.60000610352</ele>
        <time>2013-08-25T11:09:48.000Z</time>
      </trkpt>
      <trkpt lat="45.52611" lon="6.00242">
        <ele>423.79998779297</ele>
        <time>2013-08-25T11:09:49.000Z</time>
      </trkpt>
      <trkpt lat="45.52611" lon="6.00239">
        <ele>424</ele>
        <time>2013-08-25T11:09:50.000Z</time>
      </trkpt>
      <trkpt lat="45.52611" lon="6.00236">
        <ele>424.20001220703</ele>
        <time>2013-08-25T11:09:51.000Z</time>
      </trkpt>
      <trkpt lat="45.52611" lon="6.00233">
        <ele>424.39999389648</ele>
        <time>2013-08-25T11:09:52.000Z</time>
      </trkpt>
      <trkpt lat="45.52611" lon="6.00217">
        <ele>425.60000610352</ele>
        <time>2013-08-25T11:09:58.000Z</time>
      </trkpt>
      <trkpt lat="45.52612" lon="6.00215">
        <ele>425.79998779297</ele>
        <time>2013-08-25T11:09:59.000Z</time>
      </trkpt>
      <trkpt lat="45.52611" lon="6.00213">
        <ele>426</ele>
        <time>2013-08-25T11:10:00.000Z</time>
      </trkpt>
      <trkpt lat="45.52611" lon="6.00209">
        <ele>426.20001220703</ele>
        <time>2013-08-25T11:10:01.000Z</time>
      </trkpt>
      <trkpt lat="45.52611" lon="6.00207">
        <ele>426.39999389648</ele>
        <time>2013-08-25T11:10:02.000Z</time>
      </trkpt>
      <trkpt lat="45.52612" lon="6.00204">
        <ele>426.60000610352</ele>
        <time>2013-08-25T11:10:03.000Z</time>
      </trkpt>
      <trkpt lat="45.52612" lon="6.00202">
        <ele>426.79998779297</ele>
        <time>2013-08-25T11:10:04.000Z</time>
      </trkpt>
      <trkpt lat="45.52611" lon="6.002">
        <ele>426.79998779297</ele>
        <time>2013-08-25T11:10:05.000Z</time>
      </trkpt>
      <trkpt lat="45.52611" lon="6.00198">
        <ele>427</ele>
        <time>2013-08-25T11:10:06.000Z</time>
      </trkpt>
      <trkpt lat="45.5261" lon="6.00196">
        <ele>427</ele>
        <time>2013-08-25T11:10:07.000Z</time>
      </trkpt>
      <trkpt lat="45.52596" lon="6.00158">
        <ele>427.39999389648</ele>
        <time>2013-08-25T11:10:20.000Z</time>
      </trkpt>
      <trkpt lat="45.52587" lon="6.00125">
        <ele>426.39999389648</ele>
        <time>2013-08-25T11:10:29.000Z</time>
      </trkpt>
      <trkpt lat="45.52588" lon="6.00122">
        <ele>426.39999389648</ele>
        <time>2013-08-25T11:10:30.000Z</time>
      </trkpt>
      <trkpt lat="45.5259" lon="6.00119">
        <ele>426.60000610352</ele>
        <time>2013-08-25T11:10:31.000Z</time>
      </trkpt>
      <trkpt lat="45.52592" lon="6.00117">
        <ele>426.79998779297</ele>
        <time>2013-08-25T11:10:32.000Z</time>
      </trkpt>
      <trkpt lat="45.52593" lon="6.00115">
        <ele>427</ele>
        <time>2013-08-25T11:10:33.000Z</time>
      </trkpt>
      <trkpt lat="45.52596" lon="6.00113">
        <ele>427.20001220703</ele>
        <time>2013-08-25T11:10:34.000Z</time>
      </trkpt>
      <trkpt lat="45.52598" lon="6.00112">
        <ele>427.60000610352</ele>
        <time>2013-08-25T11:10:35.000Z</time>
      </trkpt>
      <trkpt lat="45.526" lon="6.0011">
        <ele>427.79998779297</ele>
        <time>2013-08-25T11:10:36.000Z</time>
      </trkpt>
      <trkpt lat="45.52602" lon="6.00108">
        <ele>428</ele>
        <time>2013-08-25T11:10:37.000Z</time>
      </trkpt>
      <trkpt lat="45.52604" lon="6.00106">
        <ele>428.20001220703</ele>
        <time>2013-08-25T11:10:38.000Z</time>
      </trkpt>
      <trkpt lat="45.52625" lon="6.00087">
        <ele>430.39999389648</ele>
        <time>2013-08-25T11:10:49.000Z</time>
      </trkpt>
      <trkpt lat="45.52646" lon="6.00054">
        <ele>432.79998779297</ele>
        <time>2013-08-25T11:11:02.000Z</time>
      </trkpt>
      <trkpt lat="45.5264" lon="6.00012">
        <ele>432.60000610352</ele>
        <time>2013-08-25T11:11:14.000Z</time>
      </trkpt>
      <trkpt lat="45.52629" lon="5.99983">
        <ele>431.79998779297</ele>
        <time>2013-08-25T11:11:26.000Z</time>
      </trkpt>
      <trkpt lat="45.52626" lon="5.9998">
        <ele>431.39999389648</ele>
        <time>2013-08-25T11:11:28.000Z</time>
      </trkpt>
      <trkpt lat="45.52617" lon="5.99968">
        <ele>430.39999389648</ele>
        <time>2013-08-25T11:11:36.000Z</time>
      </trkpt>
      <trkpt lat="45.52611" lon="5.99933">
        <ele>429.20001220703</ele>
        <time>2013-08-25T11:11:51.000Z</time>
      </trkpt>
      <trkpt lat="45.52631" lon="5.99909">
        <ele>430.60000610352</ele>
        <time>2013-08-25T11:12:03.000Z</time>
      </trkpt>
      <trkpt lat="45.52644" lon="5.999">
        <ele>431</ele>
        <time>2013-08-25T11:12:11.000Z</time>
      </trkpt>
      <trkpt lat="45.52662" lon="5.99883">
        <ele>430</ele>
        <time>2013-08-25T11:12:24.000Z</time>
      </trkpt>
      <trkpt lat="45.52661" lon="5.99884">
        <ele>430</ele>
        <time>2013-08-25T11:12:28.000Z</time>
      </trkpt>
      <trkpt lat="45.52653" lon="5.99896">
        <ele>431.39999389648</ele>
        <time>2013-08-25T11:12:39.000Z</time>
      </trkpt>
      <trkpt lat="45.52653" lon="5.99897">
        <ele>431.60000610352</ele>
        <time>2013-08-25T11:12:40.000Z</time>
      </trkpt>
      <trkpt lat="45.52636" lon="5.99908">
        <ele>431.20001220703</ele>
        <time>2013-08-25T11:12:51.000Z</time>
      </trkpt>
      <trkpt lat="45.52613" lon="5.99929">
        <ele>429.39999389648</ele>
        <time>2013-08-25T11:13:03.000Z</time>
      </trkpt>
      <trkpt lat="45.52616" lon="5.99938">
        <ele>430</ele>
        <time>2013-08-25T11:13:14.000Z</time>
      </trkpt>
      <trkpt lat="45.52624" lon="5.99932">
        <ele>431.20001220703</ele>
        <time>2013-08-25T11:13:25.000Z</time>
      </trkpt>
      <trkpt lat="45.52624" lon="5.99932">
        <ele>431.39999389648</ele>
        <time>2013-08-25T11:13:26.000Z</time>
      </trkpt>
      <trkpt lat="45.52635" lon="5.99924">
        <ele>433.20001220703</ele>
        <time>2013-08-25T11:13:39.000Z</time>
      </trkpt>
      <trkpt lat="45.52645" lon="5.99917">
        <ele>435</ele>
        <time>2013-08-25T11:13:52.000Z</time>
      </trkpt>
      <trkpt lat="45.5265" lon="5.99913">
        <ele>435.20001220703</ele>
        <time>2013-08-25T11:13:59.000Z</time>
      </trkpt>
      <trkpt lat="45.52684" lon="5.99906">
        <ele>436.20001220703</ele>
        <time>2013-08-25T11:14:13.000Z</time>
      </trkpt>
      <trkpt lat="45.52696" lon="5.99914">
        <ele>437.79998779297</ele>
        <time>2013-08-25T11:14:23.000Z</time>
      </trkpt>
      <trkpt lat="45.52693" lon="5.99918">
        <ele>438.60000610352</ele>
        <time>2013-08-25T11:14:28.000Z</time>
      </trkpt>
      <trkpt lat="45.52685" lon="5.99919">
        <ele>438.60000610352</ele>
        <time>2013-08-25T11:14:36.000Z</time>
      </trkpt>
      <trkpt lat="45.52676" lon="5.99928">
        <ele>438.20001220703</ele>
        <time>2013-08-25T11:14:46.000Z</time>
      </trkpt>
      <trkpt lat="45.52666" lon="5.99929">
        <ele>438.20001220703</ele>
        <time>2013-08-25T11:14:57.000Z</time>
      </trkpt>
      <trkpt lat="45.52651" lon="5.99937">
        <ele>435.39999389648</ele>
        <time>2013-08-25T11:15:09.000Z</time>
      </trkpt>
      <trkpt lat="45.52653" lon="5.99939">
        <ele>435.79998779297</ele>
        <time>2013-08-25T11:15:23.000Z</time>
      </trkpt>
      <trkpt lat="45.52656" lon="5.99944">
        <ele>436</ele>
        <time>2013-08-25T11:15:41.000Z</time>
      </trkpt>
      <trkpt lat="45.52656" lon="5.99943">
        <ele>436</ele>
        <time>2013-08-25T11:15:56.000Z</time>
      </trkpt>
      <trkpt lat="45.52657" lon="5.99944">
        <ele>436.20001220703</ele>
        <time>2013-08-25T11:15:58.000Z</time>
      </trkpt>
      <trkpt lat="45.52659" lon="5.99948">
        <ele>436.20001220703</ele>
        <time>2013-08-25T11:16:08.000Z</time>
      </trkpt>
      <trkpt lat="45.52656" lon="5.99942">
        <ele>436.20001220703</ele>
        <time>2013-08-25T11:16:27.000Z</time>
      </trkpt>
      <trkpt lat="45.52656" lon="5.99943">
        <ele>436</ele>
        <time>2013-08-25T11:16:41.000Z</time>
      </trkpt>
      <trkpt lat="45.52656" lon="5.99943">
        <ele>436</ele>
        <time>2013-08-25T11:16:45.000Z</time>
      </trkpt>
      <trkpt lat="45.52659" lon="5.99941">
        <ele>436.39999389648</ele>
        <time>2013-08-25T11:16:51.000Z</time>
      </trkpt>
      <trkpt lat="45.52656" lon="5.99944">
        <ele>436</ele>
        <time>2013-08-25T11:17:03.000Z</time>
      </trkpt>
      <trkpt lat="45.52656" lon="5.99945">
        <ele>436</ele>
        <time>2013-08-25T11:17:21.000Z</time>
      </trkpt>
      <trkpt lat="45.52652" lon="5.99948">
        <ele>435.20001220703</ele>
        <time>2013-08-25T11:17:36.000Z</time>
      </trkpt>
      <trkpt lat="45.52652" lon="5.99948">
        <ele>435.20001220703</ele>
        <time>2013-08-25T11:17:55.000Z</time>
      </trkpt>
      <trkpt lat="45.52653" lon="5.99947">
        <ele>435.39999389648</ele>
        <time>2013-08-25T11:18:18.000Z</time>
      </trkpt>
      <trkpt lat="45.52653" lon="5.99947">
        <ele>435.39999389648</ele>
        <time>2013-08-25T11:18:38.000Z</time>
      </trkpt>
      <trkpt lat="45.52646" lon="5.99947">
        <ele>434.39999389648</ele>
        <time>2013-08-25T11:19:05.000Z</time>
      </trkpt>
      <trkpt lat="45.5265" lon="5.99949">
        <ele>435</ele>
        <time>2013-08-25T11:19:29.000Z</time>
      </trkpt>
      <trkpt lat="45.52649" lon="5.99949">
        <ele>434.79998779297</ele>
        <time>2013-08-25T11:19:40.000Z</time>
      </trkpt>
      <trkpt lat="45.52656" lon="5.99945">
        <ele>436</ele>
        <time>2013-08-25T11:20:00.000Z</time>
      </trkpt>
      <trkpt lat="45.52658" lon="5.99943">
        <ele>436.39999389648</ele>
        <time>2013-08-25T11:20:16.000Z</time>
      </trkpt>
      <trkpt lat="45.52659" lon="5.99942">
        <ele>436.39999389648</ele>
        <time>2013-08-25T11:20:21.000Z</time>
      </trkpt>
      <trkpt lat="45.52654" lon="5.99937">
        <ele>436</ele>
        <time>2013-08-25T11:20:30.000Z</time>
      </trkpt>
      <trkpt lat="45.52653" lon="5.99936">
        <ele>435.79998779297</ele>
        <time>2013-08-25T11:20:36.000Z</time>
      </trkpt>
      <trkpt lat="45.52653" lon="5.99937">
        <ele>435.79998779297</ele>
        <time>2013-08-25T11:20:37.000Z</time>
      </trkpt>
      <trkpt lat="45.52652" lon="5.99937">
        <ele>435.60000610352</ele>
        <time>2013-08-25T11:20:39.000Z</time>
      </trkpt>
      <trkpt lat="45.52651" lon="5.99937">
        <ele>435.39999389648</ele>
        <time>2013-08-25T11:20:40.000Z</time>
      </trkpt>
      <trkpt lat="45.52651" lon="5.99936">
        <ele>435.39999389648</ele>
        <time>2013-08-25T11:20:41.000Z</time>
      </trkpt>
      <trkpt lat="45.52649" lon="5.99936">
        <ele>435.20001220703</ele>
        <time>2013-08-25T11:20:44.000Z</time>
      </trkpt>
      <trkpt lat="45.52638" lon="5.99938">
        <ele>433.39999389648</ele>
        <time>2013-08-25T11:20:52.000Z</time>
      </trkpt>
      <trkpt lat="45.52628" lon="5.99947">
        <ele>431.79998779297</ele>
        <time>2013-08-25T11:20:57.000Z</time>
      </trkpt>
      <trkpt lat="45.5262" lon="5.99956">
        <ele>430.60000610352</ele>
        <time>2013-08-25T11:21:01.000Z</time>
      </trkpt>
      <trkpt lat="45.52616" lon="5.99963">
        <ele>430.20001220703</ele>
        <time>2013-08-25T11:21:03.000Z</time>
      </trkpt>
      <trkpt lat="45.52611" lon="5.9999">
        <ele>430</ele>
        <time>2013-08-25T11:21:10.000Z</time>
      </trkpt>
      <trkpt lat="45.52611" lon="5.99996">
        <ele>430.20001220703</ele>
        <time>2013-08-25T11:21:11.000Z</time>
      </trkpt>
      <trkpt lat="45.52611" lon="6.0001">
        <ele>430</ele>
        <time>2013-08-25T11:21:13.000Z</time>
      </trkpt>
      <trkpt lat="45.52612" lon="6.00026">
        <ele>430</ele>
        <time>2013-08-25T11:21:15.000Z</time>
      </trkpt>
      <trkpt lat="45.52616" lon="6.00056">
        <ele>429.79998779297</ele>
        <time>2013-08-25T11:21:19.000Z</time>
      </trkpt>
      <trkpt lat="45.52616" lon="6.00063">
        <ele>429.79998779297</ele>
        <time>2013-08-25T11:21:20.000Z</time>
      </trkpt>
      <trkpt lat="45.52616" lon="6.0007">
        <ele>429.60000610352</ele>
        <time>2013-08-25T11:21:21.000Z</time>
      </trkpt>
      <trkpt lat="45.52617" lon="6.00076">
        <ele>429.60000610352</ele>
        <time>2013-08-25T11:21:22.000Z</time>
      </trkpt>
      <trkpt lat="45.52617" lon="6.00082">
        <ele>429.60000610352</ele>
        <time>2013-08-25T11:21:23.000Z</time>
      </trkpt>
      <trkpt lat="45.52617" lon="6.00088">
        <ele>429.60000610352</ele>
        <time>2013-08-25T11:21:24.000Z</time>
      </trkpt>
      <trkpt lat="45.52618" lon="6.00093">
        <ele>429.60000610352</ele>
        <time>2013-08-25T11:21:25.000Z</time>
      </trkpt>
      <trkpt lat="45.52618" lon="6.00114">
        <ele>429.79998779297</ele>
        <time>2013-08-25T11:21:29.000Z</time>
      </trkpt>
      <trkpt lat="45.52616" lon="6.00132">
        <ele>429.60000610352</ele>
        <time>2013-08-25T11:21:33.000Z</time>
      </trkpt>
      <trkpt lat="45.52613" lon="6.00137">
        <ele>429.39999389648</ele>
        <time>2013-08-25T11:21:34.000Z</time>
      </trkpt>
      <trkpt lat="45.52611" lon="6.00143">
        <ele>429.20001220703</ele>
        <time>2013-08-25T11:21:35.000Z</time>
      </trkpt>
      <trkpt lat="45.52586" lon="6.00217">
        <ele>424.20001220703</ele>
        <time>2013-08-25T11:21:48.000Z</time>
      </trkpt>
      <trkpt lat="45.52578" lon="6.00238">
        <ele>422.60000610352</ele>
        <time>2013-08-25T11:21:51.000Z</time>
      </trkpt>
      <trkpt lat="45.52568" lon="6.0027">
        <ele>418.79998779297</ele>
        <time>2013-08-25T11:21:56.000Z</time>
      </trkpt>
      <trkpt lat="45.52566" lon="6.00276">
        <ele>417.79998779297</ele>
        <time>2013-08-25T11:21:57.000Z</time>
      </trkpt>
      <trkpt lat="45.52564" lon="6.00283">
        <ele>417</ele>
        <time>2013-08-25T11:21:58.000Z</time>
      </trkpt>
      <trkpt lat="45.52562" lon="6.00289">
        <ele>416</ele>
        <time>2013-08-25T11:21:59.000Z</time>
      </trkpt>
      <trkpt lat="45.5256" lon="6.00295">
        <ele>415.20001220703</ele>
        <time>2013-08-25T11:22:00.000Z</time>
      </trkpt>
      <trkpt lat="45.52558" lon="6.00301">
        <ele>414.39999389648</ele>
        <time>2013-08-25T11:22:01.000Z</time>
      </trkpt>
      <trkpt lat="45.52555" lon="6.00308">
        <ele>413.60000610352</ele>
        <time>2013-08-25T11:22:02.000Z</time>
      </trkpt>
      <trkpt lat="45.52553" lon="6.00314">
        <ele>412.79998779297</ele>
        <time>2013-08-25T11:22:03.000Z</time>
      </trkpt>
      <trkpt lat="45.52551" lon="6.0032">
        <ele>412</ele>
        <time>2013-08-25T11:22:04.000Z</time>
      </trkpt>
      <trkpt lat="45.52549" lon="6.00326">
        <ele>411.20001220703</ele>
        <time>2013-08-25T11:22:05.000Z</time>
      </trkpt>
      <trkpt lat="45.52547" lon="6.00333">
        <ele>410.39999389648</ele>
        <time>2013-08-25T11:22:06.000Z</time>
      </trkpt>
      <trkpt lat="45.52545" lon="6.00339">
        <ele>409.39999389648</ele>
        <time>2013-08-25T11:22:07.000Z</time>
      </trkpt>
      <trkpt lat="45.52543" lon="6.00345">
        <ele>408.39999389648</ele>
        <time>2013-08-25T11:22:08.000Z</time>
      </trkpt>
      <trkpt lat="45.52541" lon="6.00352">
        <ele>407.20001220703</ele>
        <time>2013-08-25T11:22:09.000Z</time>
      </trkpt>
      <trkpt lat="45.52539" lon="6.00358">
        <ele>406</ele>
        <time>2013-08-25T11:22:10.000Z</time>
      </trkpt>
      <trkpt lat="45.52537" lon="6.00364">
        <ele>405</ele>
        <time>2013-08-25T11:22:11.000Z</time>
      </trkpt>
      <trkpt lat="45.52535" lon="6.0037">
        <ele>403.79998779297</ele>
        <time>2013-08-25T11:22:12.000Z</time>
      </trkpt>
      <trkpt lat="45.52532" lon="6.00377">
        <ele>402.79998779297</ele>
        <time>2013-08-25T11:22:13.000Z</time>
      </trkpt>
      <trkpt lat="45.5253" lon="6.00383">
        <ele>401.60000610352</ele>
        <time>2013-08-25T11:22:14.000Z</time>
      </trkpt>
      <trkpt lat="45.52528" lon="6.00389">
        <ele>400.60000610352</ele>
        <time>2013-08-25T11:22:15.000Z</time>
      </trkpt>
      <trkpt lat="45.52526" lon="6.00395">
        <ele>399.39999389648</ele>
        <time>2013-08-25T11:22:16.000Z</time>
      </trkpt>
      <trkpt lat="45.52524" lon="6.00402">
        <ele>398.39999389648</ele>
        <time>2013-08-25T11:22:17.000Z</time>
      </trkpt>
      <trkpt lat="45.52522" lon="6.00408">
        <ele>397.20001220703</ele>
        <time>2013-08-25T11:22:18.000Z</time>
      </trkpt>
      <trkpt lat="45.5252" lon="6.00414">
        <ele>396.20001220703</ele>
        <time>2013-08-25T11:22:19.000Z</time>
      </trkpt>
      <trkpt lat="45.52518" lon="6.00421">
        <ele>395.20001220703</ele>
        <time>2013-08-25T11:22:20.000Z</time>
      </trkpt>
      <trkpt lat="45.52516" lon="6.00427">
        <ele>394.39999389648</ele>
        <time>2013-08-25T11:22:21.000Z</time>
      </trkpt>
      <trkpt lat="45.52514" lon="6.00433">
        <ele>393.60000610352</ele>
        <time>2013-08-25T11:22:22.000Z</time>
      </trkpt>
      <trkpt lat="45.52512" lon="6.00439">
        <ele>392.79998779297</ele>
        <time>2013-08-25T11:22:23.000Z</time>
      </trkpt>
      <trkpt lat="45.52512" lon="6.00439">
        <ele>392.79998779297</ele>
        <time>2013-08-25T11:22:24.000Z</time>
      </trkpt>
      <trkpt lat="45.52512" lon="6.00439">
        <ele>392.79998779297</ele>
        <time>2013-08-25T11:22:25.000Z</time>
      </trkpt>
      <trkpt lat="45.52512" lon="6.00439">
        <ele>392.79998779297</ele>
        <time>2013-08-25T11:22:26.000Z</time>
      </trkpt>
      <trkpt lat="45.52512" lon="6.00439">
        <ele>392.79998779297</ele>
        <time>2013-08-25T11:22:27.000Z</time>
      </trkpt>
      <trkpt lat="45.52512" lon="6.00439">
        <ele>392.79998779297</ele>
        <time>2013-08-25T11:22:28.000Z</time>
      </trkpt>
      <trkpt lat="45.52512" lon="6.00439">
        <ele>392.79998779297</ele>
        <time>2013-08-25T11:22:29.000Z</time>
      </trkpt>
      <trkpt lat="45.52512" lon="6.00439">
        <ele>392.79998779297</ele>
        <time>2013-08-25T11:22:30.000Z</time>
      </trkpt>
      <trkpt lat="45.52512" lon="6.00439">
        <ele>392.79998779297</ele>
        <time>2013-08-25T11:22:31.000Z</time>
      </trkpt>
      <trkpt lat="45.52512" lon="6.00439">
        <ele>392.79998779297</ele>
        <time>2013-08-25T11:22:36.000Z</time>
      </trkpt>
      <trkpt lat="45.52512" lon="6.00439">
        <ele>392.79998779297</ele>
        <time>2013-08-25T11:22:45.000Z</time>
      </trkpt>
      <trkpt lat="45.52512" lon="6.00439">
        <ele>392.79998779297</ele>
        <time>2013-08-25T11:22:47.000Z</time>
      </trkpt>
      <trkpt lat="45.52512" lon="6.00439">
        <ele>392.79998779297</ele>
        <time>2013-08-25T11:22:48.000Z</time>
      </trkpt>
      <trkpt lat="45.52512" lon="6.00439">
        <ele>392.79998779297</ele>
        <time>2013-08-25T11:22:49.000Z</time>
      </trkpt>
      <trkpt lat="45.52512" lon="6.00439">
        <ele>392.79998779297</ele>
        <time>2013-08-25T11:22:50.000Z</time>
      </trkpt>
      <trkpt lat="45.52512" lon="6.00439">
        <ele>392.79998779297</ele>
        <time>2013-08-25T11:22:51.000Z</time>
      </trkpt>
      <trkpt lat="45.52512" lon="6.00439">
        <ele>392.79998779297</ele>
        <time>2013-08-25T11:22:52.000Z</time>
      </trkpt>
      <trkpt lat="45.52512" lon="6.00439">
        <ele>392.79998779297</ele>
        <time>2013-08-25T11:22:53.000Z</time>
      </trkpt>
      <trkpt lat="45.52512" lon="6.00439">
        <ele>392.79998779297</ele>
        <time>2013-08-25T11:22:54.000Z</time>
      </trkpt>
      <trkpt lat="45.52512" lon="6.00439">
        <ele>392.79998779297</ele>
        <time>2013-08-25T11:22:55.000Z</time>
      </trkpt>
      <trkpt lat="45.52512" lon="6.00439">
        <ele>392.79998779297</ele>
        <time>2013-08-25T11:22:56.000Z</time>
      </trkpt>
      <trkpt lat="45.52512" lon="6.00439">
        <ele>392.79998779297</ele>
        <time>2013-08-25T11:22:57.000Z</time>
      </trkpt>
      <trkpt lat="45.52512" lon="6.00439">
        <ele>392.79998779297</ele>
        <time>2013-08-25T11:22:58.000Z</time>
      </trkpt>
      <trkpt lat="45.52512" lon="6.00439">
        <ele>392.79998779297</ele>
        <time>2013-08-25T11:22:59.000Z</time>
      </trkpt>
      <trkpt lat="45.52512" lon="6.00439">
        <ele>392.79998779297</ele>
        <time>2013-08-25T11:23:00.000Z</time>
      </trkpt>
      <trkpt lat="45.52512" lon="6.00439">
        <ele>392.79998779297</ele>
        <time>2013-08-25T11:23:01.000Z</time>
      </trkpt>
      <trkpt lat="45.52512" lon="6.00439">
        <ele>392.79998779297</ele>
        <time>2013-08-25T11:23:02.000Z</time>
      </trkpt>
      <trkpt lat="45.52512" lon="6.00439">
        <ele>392.79998779297</ele>
        <time>2013-08-25T11:23:03.000Z</time>
      </trkpt>
      <trkpt lat="45.52512" lon="6.00439">
        <ele>392.79998779297</ele>
        <time>2013-08-25T11:23:04.000Z</time>
      </trkpt>
      <trkpt lat="45.52512" lon="6.00439">
        <ele>392.79998779297</ele>
        <time>2013-08-25T11:23:05.000Z</time>
      </trkpt>
      <trkpt lat="45.52512" lon="6.00439">
        <ele>392.79998779297</ele>
        <time>2013-08-25T11:23:06.000Z</time>
      </trkpt>
      <trkpt lat="45.52512" lon="6.00439">
        <ele>392.79998779297</ele>
        <time>2013-08-25T11:23:07.000Z</time>
      </trkpt>
      <trkpt lat="45.52512" lon="6.00439">
        <ele>392.79998779297</ele>
        <time>2013-08-25T11:23:08.000Z</time>
      </trkpt>
      <trkpt lat="45.52512" lon="6.00439">
        <ele>392.79998779297</ele>
        <time>2013-08-25T11:23:09.000Z</time>
      </trkpt>
      <trkpt lat="45.52512" lon="6.00439">
        <ele>392.79998779297</ele>
        <time>2013-08-25T11:23:10.000Z</time>
      </trkpt>
      <trkpt lat="45.52512" lon="6.00439">
        <ele>392.79998779297</ele>
        <time>2013-08-25T11:23:11.000Z</time>
      </trkpt>
      <trkpt lat="45.52512" lon="6.00439">
        <ele>392.79998779297</ele>
        <time>2013-08-25T11:23:12.000Z</time>
      </trkpt>
      <trkpt lat="45.52512" lon="6.00439">
        <ele>392.79998779297</ele>
        <time>2013-08-25T11:23:13.000Z</time>
      </trkpt>
      <trkpt lat="45.52512" lon="6.00439">
        <ele>392.79998779297</ele>
        <time>2013-08-25T11:23:14.000Z</time>
      </trkpt>
      <trkpt lat="45.52512" lon="6.00439">
        <ele>392.79998779297</ele>
        <time>2013-08-25T11:23:15.000Z</time>
      </trkpt>
      <trkpt lat="45.52512" lon="6.00439">
        <ele>392.79998779297</ele>
        <time>2013-08-25T11:23:16.000Z</time>
      </trkpt>
      <trkpt lat="45.52512" lon="6.00439">
        <ele>392.79998779297</ele>
        <time>2013-08-25T11:23:17.000Z</time>
      </trkpt>
      <trkpt lat="45.52512" lon="6.00439">
        <ele>392.79998779297</ele>
        <time>2013-08-25T11:23:18.000Z</time>
      </trkpt>
      <trkpt lat="45.52512" lon="6.00439">
        <ele>392.79998779297</ele>
        <time>2013-08-25T11:23:19.000Z</time>
      </trkpt>
      <trkpt lat="45.52512" lon="6.00439">
        <ele>392.79998779297</ele>
        <time>2013-08-25T11:23:20.000Z</time>
      </trkpt>
      <trkpt lat="45.52512" lon="6.00439">
        <ele>392.79998779297</ele>
        <time>2013-08-25T11:23:21.000Z</time>
      </trkpt>
      <trkpt lat="45.52512" lon="6.00439">
        <ele>392.79998779297</ele>
        <time>2013-08-25T11:23:22.000Z</time>
      </trkpt>
      <trkpt lat="45.52512" lon="6.00439">
        <ele>392.79998779297</ele>
        <time>2013-08-25T11:23:23.000Z</time>
      </trkpt>
      <trkpt lat="45.52512" lon="6.00439">
        <ele>392.79998779297</ele>
        <time>2013-08-25T11:23:24.000Z</time>
      </trkpt>
      <trkpt lat="45.52512" lon="6.00439">
        <ele>392.79998779297</ele>
        <time>2013-08-25T11:23:25.000Z</time>
      </trkpt>
      <trkpt lat="45.52512" lon="6.00439">
        <ele>392.79998779297</ele>
        <time>2013-08-25T11:23:26.000Z</time>
      </trkpt>
      <trkpt lat="45.52512" lon="6.00439">
        <ele>392.79998779297</ele>
        <time>2013-08-25T11:23:27.000Z</time>
      </trkpt>
      <trkpt lat="45.52512" lon="6.00439">
        <ele>392.79998779297</ele>
        <time>2013-08-25T11:23:28.000Z</time>
      </trkpt>
      <trkpt lat="45.52512" lon="6.00439">
        <ele>392.79998779297</ele>
        <time>2013-08-25T11:23:29.000Z</time>
      </trkpt>
      <trkpt lat="45.52512" lon="6.00439">
        <ele>392.79998779297</ele>
        <time>2013-08-25T11:23:30.000Z</time>
      </trkpt>
      <trkpt lat="45.52512" lon="6.00439">
        <ele>392.79998779297</ele>
        <time>2013-08-25T11:23:32.000Z</time>
      </trkpt>
      <trkpt lat="45.52512" lon="6.00439">
        <ele>392.79998779297</ele>
        <time>2013-08-25T11:23:33.000Z</time>
      </trkpt>
      <trkpt lat="45.52512" lon="6.00439">
        <ele>392.79998779297</ele>
        <time>2013-08-25T11:23:34.000Z</time>
      </trkpt>
      <trkpt lat="45.52512" lon="6.00439">
        <ele>392.79998779297</ele>
        <time>2013-08-25T11:23:35.000Z</time>
      </trkpt>
      <trkpt lat="45.52512" lon="6.00439">
        <ele>392.79998779297</ele>
        <time>2013-08-25T11:23:36.000Z</time>
      </trkpt>
      <trkpt lat="45.52512" lon="6.00439">
        <ele>392.79998779297</ele>
        <time>2013-08-25T11:23:37.000Z</time>
      </trkpt>
      <trkpt lat="45.52512" lon="6.00439">
        <ele>392.79998779297</ele>
        <time>2013-08-25T11:23:38.000Z</time>
      </trkpt>
      <trkpt lat="45.52512" lon="6.00439">
        <ele>392.79998779297</ele>
        <time>2013-08-25T11:23:39.000Z</time>
      </trkpt>
      <trkpt lat="45.52512" lon="6.00439">
        <ele>392.79998779297</ele>
        <time>2013-08-25T11:23:40.000Z</time>
      </trkpt>
      <trkpt lat="45.52512" lon="6.00439">
        <ele>392.79998779297</ele>
        <time>2013-08-25T11:23:41.000Z</time>
      </trkpt>
      <trkpt lat="45.52512" lon="6.00439">
        <ele>392.79998779297</ele>
        <time>2013-08-25T11:23:42.000Z</time>
      </trkpt>
      <trkpt lat="45.52512" lon="6.00439">
        <ele>392.79998779297</ele>
        <time>2013-08-25T11:23:43.000Z</time>
      </trkpt>
      <trkpt lat="45.52512" lon="6.00439">
        <ele>392.79998779297</ele>
        <time>2013-08-25T11:23:44.000Z</time>
      </trkpt>
      <trkpt lat="45.52512" lon="6.00439">
        <ele>392.79998779297</ele>
        <time>2013-08-25T11:23:45.000Z</time>
      </trkpt>
      <trkpt lat="45.52512" lon="6.00439">
        <ele>392.79998779297</ele>
        <time>2013-08-25T11:23:46.000Z</time>
      </trkpt>
      <trkpt lat="45.52512" lon="6.00439">
        <ele>392.79998779297</ele>
        <time>2013-08-25T11:23:47.000Z</time>
      </trkpt>
      <trkpt lat="45.52512" lon="6.00439">
        <ele>392.79998779297</ele>
        <time>2013-08-25T11:23:48.000Z</time>
      </trkpt>
      <trkpt lat="45.52512" lon="6.00439">
        <ele>392.79998779297</ele>
        <time>2013-08-25T11:23:49.000Z</time>
      </trkpt>
      <trkpt lat="45.52512" lon="6.00439">
        <ele>392.79998779297</ele>
        <time>2013-08-25T11:23:50.000Z</time>
      </trkpt>
      <trkpt lat="45.52512" lon="6.00439">
        <ele>392.79998779297</ele>
        <time>2013-08-25T11:23:51.000Z</time>
      </trkpt>
      <trkpt lat="45.52512" lon="6.00439">
        <ele>392.79998779297</ele>
        <time>2013-08-25T11:23:52.000Z</time>
      </trkpt>
      <trkpt lat="45.52512" lon="6.00439">
        <ele>392.79998779297</ele>
        <time>2013-08-25T11:23:53.000Z</time>
      </trkpt>
      <trkpt lat="45.52512" lon="6.00439">
        <ele>392.79998779297</ele>
        <time>2013-08-25T11:23:54.000Z</time>
      </trkpt>
      <trkpt lat="45.52512" lon="6.00439">
        <ele>392.79998779297</ele>
        <time>2013-08-25T11:23:55.000Z</time>
      </trkpt>
      <trkpt lat="45.52512" lon="6.00439">
        <ele>392.79998779297</ele>
        <time>2013-08-25T11:23:56.000Z</time>
      </trkpt>
      <trkpt lat="45.52512" lon="6.00439">
        <ele>392.79998779297</ele>
        <time>2013-08-25T11:23:57.000Z</time>
      </trkpt>
      <trkpt lat="45.52512" lon="6.00439">
        <ele>392.79998779297</ele>
        <time>2013-08-25T11:23:58.000Z</time>
      </trkpt>
      <trkpt lat="45.52512" lon="6.00439">
        <ele>392.79998779297</ele>
        <time>2013-08-25T11:23:59.000Z</time>
      </trkpt>
      <trkpt lat="45.52512" lon="6.00439">
        <ele>392.79998779297</ele>
        <time>2013-08-25T11:24:00.000Z</time>
      </trkpt>
      <trkpt lat="45.52512" lon="6.00439">
        <ele>392.79998779297</ele>
        <time>2013-08-25T11:24:01.000Z</time>
      </trkpt>
      <trkpt lat="45.52512" lon="6.00439">
        <ele>392.79998779297</ele>
        <time>2013-08-25T11:24:02.000Z</time>
      </trkpt>
      <trkpt lat="45.52512" lon="6.00439">
        <ele>392.79998779297</ele>
        <time>2013-08-25T11:24:03.000Z</time>
      </trkpt>
      <trkpt lat="45.52512" lon="6.00439">
        <ele>392.79998779297</ele>
        <time>2013-08-25T11:24:04.000Z</time>
      </trkpt>
      <trkpt lat="45.52512" lon="6.00439">
        <ele>392.79998779297</ele>
        <time>2013-08-25T11:24:05.000Z</time>
      </trkpt>
      <trkpt lat="45.52512" lon="6.00439">
        <ele>392.79998779297</ele>
        <time>2013-08-25T11:24:06.000Z</time>
      </trkpt>
      <trkpt lat="45.52512" lon="6.00439">
        <ele>392.79998779297</ele>
        <time>2013-08-25T11:24:07.000Z</time>
      </trkpt>
      <trkpt lat="45.52512" lon="6.00439">
        <ele>392.79998779297</ele>
        <time>2013-08-25T11:24:08.000Z</time>
      </trkpt>
      <trkpt lat="45.52512" lon="6.00439">
        <ele>392.79998779297</ele>
        <time>2013-08-25T11:24:09.000Z</time>
      </trkpt>
      <trkpt lat="45.52512" lon="6.00439">
        <ele>392.79998779297</ele>
        <time>2013-08-25T11:24:10.000Z</time>
      </trkpt>
      <trkpt lat="45.52512" lon="6.00439">
        <ele>392.79998779297</ele>
        <time>2013-08-25T11:24:11.000Z</time>
      </trkpt>
      <trkpt lat="45.52512" lon="6.00439">
        <ele>392.79998779297</ele>
        <time>2013-08-25T11:24:12.000Z</time>
      </trkpt>
      <trkpt lat="45.52512" lon="6.00439">
        <ele>392.79998779297</ele>
        <time>2013-08-25T11:24:13.000Z</time>
      </trkpt>
      <trkpt lat="45.52512" lon="6.00439">
        <ele>392.79998779297</ele>
        <time>2013-08-25T11:24:14.000Z</time>
      </trkpt>
      <trkpt lat="45.52512" lon="6.00439">
        <ele>392.79998779297</ele>
        <time>2013-08-25T11:24:15.000Z</time>
      </trkpt>
      <trkpt lat="45.52512" lon="6.00439">
        <ele>392.79998779297</ele>
        <time>2013-08-25T11:24:16.000Z</time>
      </trkpt>
      <trkpt lat="45.52512" lon="6.00439">
        <ele>392.79998779297</ele>
        <time>2013-08-25T11:24:17.000Z</time>
      </trkpt>
      <trkpt lat="45.52512" lon="6.00439">
        <ele>392.79998779297</ele>
        <time>2013-08-25T11:24:18.000Z</time>
      </trkpt>
      <trkpt lat="45.52512" lon="6.00439">
        <ele>392.79998779297</ele>
        <time>2013-08-25T11:24:19.000Z</time>
      </trkpt>
      <trkpt lat="45.52512" lon="6.00439">
        <ele>392.79998779297</ele>
        <time>2013-08-25T11:24:21.000Z</time>
      </trkpt>
      <trkpt lat="45.52512" lon="6.00439">
        <ele>392.79998779297</ele>
        <time>2013-08-25T11:24:23.000Z</time>
      </trkpt>
      <trkpt lat="45.52512" lon="6.00439">
        <ele>392.79998779297</ele>
        <time>2013-08-25T11:24:24.000Z</time>
      </trkpt>
      <trkpt lat="45.52512" lon="6.00439">
        <ele>392.79998779297</ele>
        <time>2013-08-25T11:24:25.000Z</time>
      </trkpt>
      <trkpt lat="45.52512" lon="6.00439">
        <ele>392.79998779297</ele>
        <time>2013-08-25T11:24:26.000Z</time>
      </trkpt>
      <trkpt lat="45.52512" lon="6.00439">
        <ele>392.79998779297</ele>
        <time>2013-08-25T11:24:28.000Z</time>
      </trkpt>
      <trkpt lat="45.52512" lon="6.00439">
        <ele>392.79998779297</ele>
        <time>2013-08-25T11:24:29.000Z</time>
      </trkpt>
      <trkpt lat="45.52512" lon="6.00439">
        <ele>392.79998779297</ele>
        <time>2013-08-25T11:24:30.000Z</time>
      </trkpt>
      <trkpt lat="45.52512" lon="6.00439">
        <ele>392.79998779297</ele>
        <time>2013-08-25T11:24:31.000Z</time>
      </trkpt>
      <trkpt lat="45.52512" lon="6.00439">
        <ele>392.79998779297</ele>
        <time>2013-08-25T11:24:32.000Z</time>
      </trkpt>
      <trkpt lat="45.52512" lon="6.00439">
        <ele>392.79998779297</ele>
        <time>2013-08-25T11:24:33.000Z</time>
      </trkpt>
      <trkpt lat="45.52512" lon="6.00439">
        <ele>392.79998779297</ele>
        <time>2013-08-25T11:24:34.000Z</time>
      </trkpt>
      <trkpt lat="45.52512" lon="6.00439">
        <ele>392.79998779297</ele>
        <time>2013-08-25T11:24:35.000Z</time>
      </trkpt>
      <trkpt lat="45.52512" lon="6.00439">
        <ele>392.79998779297</ele>
        <time>2013-08-25T11:24:36.000Z</time>
      </trkpt>
      <trkpt lat="45.52512" lon="6.00439">
        <ele>392.79998779297</ele>
        <time>2013-08-25T11:24:37.000Z</time>
      </trkpt>
      <trkpt lat="45.52512" lon="6.00439">
        <ele>392.79998779297</ele>
        <time>2013-08-25T11:24:38.000Z</time>
      </trkpt>
      <trkpt lat="45.52512" lon="6.00439">
        <ele>392.79998779297</ele>
        <time>2013-08-25T11:24:39.000Z</time>
      </trkpt>
      <trkpt lat="45.52512" lon="6.00439">
        <ele>392.79998779297</ele>
        <time>2013-08-25T11:24:40.000Z</time>
      </trkpt>
      <trkpt lat="45.52512" lon="6.00439">
        <ele>392.79998779297</ele>
        <time>2013-08-25T11:24:41.000Z</time>
      </trkpt>
      <trkpt lat="45.52512" lon="6.00439">
        <ele>392.79998779297</ele>
        <time>2013-08-25T11:24:42.000Z</time>
      </trkpt>
      <trkpt lat="45.52512" lon="6.00439">
        <ele>392.79998779297</ele>
        <time>2013-08-25T11:24:43.000Z</time>
      </trkpt>
      <trkpt lat="45.52512" lon="6.00439">
        <ele>392.79998779297</ele>
        <time>2013-08-25T11:24:44.000Z</time>
      </trkpt>
      <trkpt lat="45.52512" lon="6.00439">
        <ele>392.79998779297</ele>
        <time>2013-08-25T11:24:45.000Z</time>
      </trkpt>
      <trkpt lat="45.52512" lon="6.00439">
        <ele>392.79998779297</ele>
        <time>2013-08-25T11:24:52.000Z</time>
      </trkpt>
      <trkpt lat="45.52512" lon="6.00439">
        <ele>392.79998779297</ele>
        <time>2013-08-25T11:24:53.000Z</time>
      </trkpt>
      <trkpt lat="45.52512" lon="6.00439">
        <ele>392.79998779297</ele>
        <time>2013-08-25T11:24:54.000Z</time>
      </trkpt>
      <trkpt lat="45.52512" lon="6.00439">
        <ele>392.79998779297</ele>
        <time>2013-08-25T11:24:55.000Z</time>
      </trkpt>
      <trkpt lat="45.52512" lon="6.00439">
        <ele>392.79998779297</ele>
        <time>2013-08-25T11:24:56.000Z</time>
      </trkpt>
      <trkpt lat="45.52512" lon="6.00439">
        <ele>392.79998779297</ele>
        <time>2013-08-25T11:24:57.000Z</time>
      </trkpt>
      <trkpt lat="45.52512" lon="6.00439">
        <ele>392.79998779297</ele>
        <time>2013-08-25T11:24:58.000Z</time>
      </trkpt>
      <trkpt lat="45.52512" lon="6.00439">
        <ele>392.79998779297</ele>
        <time>2013-08-25T11:24:59.000Z</time>
      </trkpt>
      <trkpt lat="45.52512" lon="6.00439">
        <ele>392.79998779297</ele>
        <time>2013-08-25T11:25:00.000Z</time>
      </trkpt>
      <trkpt lat="45.52512" lon="6.00439">
        <ele>392.79998779297</ele>
        <time>2013-08-25T11:25:01.000Z</time>
      </trkpt>
      <trkpt lat="45.52512" lon="6.00439">
        <ele>392.79998779297</ele>
        <time>2013-08-25T11:25:03.000Z</time>
      </trkpt>
      <trkpt lat="45.52512" lon="6.00439">
        <ele>392.79998779297</ele>
        <time>2013-08-25T11:25:06.000Z</time>
      </trkpt>
      <trkpt lat="45.52512" lon="6.00439">
        <ele>392.79998779297</ele>
        <time>2013-08-25T11:25:07.000Z</time>
      </trkpt>
      <trkpt lat="45.52512" lon="6.00439">
        <ele>392.79998779297</ele>
        <time>2013-08-25T11:25:08.000Z</time>
      </trkpt>
      <trkpt lat="45.52512" lon="6.00439">
        <ele>392.79998779297</ele>
        <time>2013-08-25T11:25:09.000Z</time>
      </trkpt>
      <trkpt lat="45.52512" lon="6.00439">
        <ele>392.79998779297</ele>
        <time>2013-08-25T11:25:10.000Z</time>
      </trkpt>
      <trkpt lat="45.52512" lon="6.00439">
        <ele>392.79998779297</ele>
        <time>2013-08-25T11:25:11.000Z</time>
      </trkpt>
      <trkpt lat="45.52512" lon="6.00439">
        <ele>392.79998779297</ele>
        <time>2013-08-25T11:25:12.000Z</time>
      </trkpt>
      <trkpt lat="45.52512" lon="6.00439">
        <ele>392.79998779297</ele>
        <time>2013-08-25T11:25:13.000Z</time>
      </trkpt>
      <trkpt lat="45.52512" lon="6.00439">
        <ele>392.79998779297</ele>
        <time>2013-08-25T11:25:14.000Z</time>
      </trkpt>
      <trkpt lat="45.52512" lon="6.00439">
        <ele>392.79998779297</ele>
        <time>2013-08-25T11:25:15.000Z</time>
      </trkpt>
      <trkpt lat="45.52512" lon="6.00439">
        <ele>392.79998779297</ele>
        <time>2013-08-25T11:25:16.000Z</time>
      </trkpt>
      <trkpt lat="45.52512" lon="6.00439">
        <ele>392.79998779297</ele>
        <time>2013-08-25T11:25:17.000Z</time>
      </trkpt>
      <trkpt lat="45.52512" lon="6.00439">
        <ele>392.79998779297</ele>
        <time>2013-08-25T11:25:18.000Z</time>
      </trkpt>
      <trkpt lat="45.52512" lon="6.00439">
        <ele>392.79998779297</ele>
        <time>2013-08-25T11:25:19.000Z</time>
      </trkpt>
      <trkpt lat="45.52512" lon="6.00439">
        <ele>392.79998779297</ele>
        <time>2013-08-25T11:25:21.000Z</time>
      </trkpt>
      <trkpt lat="45.52512" lon="6.00439">
        <ele>392.79998779297</ele>
        <time>2013-08-25T11:25:22.000Z</time>
      </trkpt>
      <trkpt lat="45.52512" lon="6.00439">
        <ele>392.79998779297</ele>
        <time>2013-08-25T11:25:23.000Z</time>
      </trkpt>
      <trkpt lat="45.52512" lon="6.00439">
        <ele>392.79998779297</ele>
        <time>2013-08-25T11:25:24.000Z</time>
      </trkpt>
      <trkpt lat="45.52512" lon="6.00439">
        <ele>392.79998779297</ele>
        <time>2013-08-25T11:25:25.000Z</time>
      </trkpt>
      <trkpt lat="45.52512" lon="6.00439">
        <ele>392.79998779297</ele>
        <time>2013-08-25T11:25:27.000Z</time>
      </trkpt>
      <trkpt lat="45.52512" lon="6.00439">
        <ele>392.79998779297</ele>
        <time>2013-08-25T11:25:28.000Z</time>
      </trkpt>
      <trkpt lat="45.52512" lon="6.00439">
        <ele>392.79998779297</ele>
        <time>2013-08-25T11:25:29.000Z</time>
      </trkpt>
      <trkpt lat="45.52512" lon="6.00439">
        <ele>392.79998779297</ele>
        <time>2013-08-25T11:25:30.000Z</time>
      </trkpt>
      <trkpt lat="45.52512" lon="6.00439">
        <ele>392.79998779297</ele>
        <time>2013-08-25T11:25:31.000Z</time>
      </trkpt>
      <trkpt lat="45.52512" lon="6.00439">
        <ele>392.79998779297</ele>
        <time>2013-08-25T11:25:32.000Z</time>
      </trkpt>
      <trkpt lat="45.52512" lon="6.00439">
        <ele>392.79998779297</ele>
        <time>2013-08-25T11:25:33.000Z</time>
      </trkpt>
      <trkpt lat="45.52512" lon="6.00439">
        <ele>392.79998779297</ele>
        <time>2013-08-25T11:25:34.000Z</time>
      </trkpt>
      <trkpt lat="45.52512" lon="6.00439">
        <ele>392.79998779297</ele>
        <time>2013-08-25T11:25:35.000Z</time>
      </trkpt>
      <trkpt lat="45.52512" lon="6.00439">
        <ele>392.79998779297</ele>
        <time>2013-08-25T11:25:36.000Z</time>
      </trkpt>
      <trkpt lat="45.52512" lon="6.00439">
        <ele>392.79998779297</ele>
        <time>2013-08-25T11:25:37.000Z</time>
      </trkpt>
      <trkpt lat="45.52512" lon="6.00439">
        <ele>392.79998779297</ele>
        <time>2013-08-25T11:25:38.000Z</time>
      </trkpt>
      <trkpt lat="45.52512" lon="6.00439">
        <ele>392.79998779297</ele>
        <time>2013-08-25T11:25:39.000Z</time>
      </trkpt>
      <trkpt lat="45.52512" lon="6.00439">
        <ele>392.79998779297</ele>
        <time>2013-08-25T11:25:42.000Z</time>
      </trkpt>
      <trkpt lat="45.52512" lon="6.00439">
        <ele>392.79998779297</ele>
        <time>2013-08-25T11:25:43.000Z</time>
      </trkpt>
      <trkpt lat="45.52512" lon="6.00439">
        <ele>392.79998779297</ele>
        <time>2013-08-25T11:25:44.000Z</time>
      </trkpt>
      <trkpt lat="45.52512" lon="6.00439">
        <ele>392.79998779297</ele>
        <time>2013-08-25T11:25:45.000Z</time>
      </trkpt>
      <trkpt lat="45.52512" lon="6.00439">
        <ele>392.79998779297</ele>
        <time>2013-08-25T11:25:46.000Z</time>
      </trkpt>
      <trkpt lat="45.52512" lon="6.00439">
        <ele>392.79998779297</ele>
        <time>2013-08-25T11:25:47.000Z</time>
      </trkpt>
      <trkpt lat="45.52512" lon="6.00439">
        <ele>392.79998779297</ele>
        <time>2013-08-25T11:25:49.000Z</time>
      </trkpt>
      <trkpt lat="45.52512" lon="6.00439">
        <ele>392.79998779297</ele>
        <time>2013-08-25T11:25:50.000Z</time>
      </trkpt>
      <trkpt lat="45.52512" lon="6.00439">
        <ele>392.79998779297</ele>
        <time>2013-08-25T11:25:53.000Z</time>
      </trkpt>
      <trkpt lat="45.52512" lon="6.00439">
        <ele>392.79998779297</ele>
        <time>2013-08-25T11:25:54.000Z</time>
      </trkpt>
      <trkpt lat="45.52512" lon="6.00439">
        <ele>392.79998779297</ele>
        <time>2013-08-25T11:25:56.000Z</time>
      </trkpt>
      <trkpt lat="45.52512" lon="6.00439">
        <ele>392.79998779297</ele>
        <time>2013-08-25T11:25:57.000Z</time>
      </trkpt>
      <trkpt lat="45.52512" lon="6.00439">
        <ele>392.79998779297</ele>
        <time>2013-08-25T11:25:58.000Z</time>
      </trkpt>
      <trkpt lat="45.52512" lon="6.00439">
        <ele>392.79998779297</ele>
        <time>2013-08-25T11:25:59.000Z</time>
      </trkpt>
      <trkpt lat="45.52512" lon="6.00439">
        <ele>392.79998779297</ele>
        <time>2013-08-25T11:26:01.000Z</time>
      </trkpt>
      <trkpt lat="45.52512" lon="6.00439">
        <ele>392.79998779297</ele>
        <time>2013-08-25T11:26:02.000Z</time>
      </trkpt>
      <trkpt lat="45.52512" lon="6.00439">
        <ele>392.79998779297</ele>
        <time>2013-08-25T11:26:03.000Z</time>
      </trkpt>
      <trkpt lat="45.52512" lon="6.00439">
        <ele>392.79998779297</ele>
        <time>2013-08-25T11:26:04.000Z</time>
      </trkpt>
      <trkpt lat="45.52512" lon="6.00439">
        <ele>392.79998779297</ele>
        <time>2013-08-25T11:26:05.000Z</time>
      </trkpt>
      <trkpt lat="45.52512" lon="6.00439">
        <ele>392.79998779297</ele>
        <time>2013-08-25T11:26:06.000Z</time>
      </trkpt>
      <trkpt lat="45.52512" lon="6.00439">
        <ele>392.79998779297</ele>
        <time>2013-08-25T11:26:07.000Z</time>
      </trkpt>
      <trkpt lat="45.52512" lon="6.00439">
        <ele>392.79998779297</ele>
        <time>2013-08-25T11:26:08.000Z</time>
      </trkpt>
      <trkpt lat="45.52512" lon="6.00439">
        <ele>392.79998779297</ele>
        <time>2013-08-25T11:26:09.000Z</time>
      </trkpt>
      <trkpt lat="45.52512" lon="6.00439">
        <ele>392.79998779297</ele>
        <time>2013-08-25T11:26:10.000Z</time>
      </trkpt>
      <trkpt lat="45.52512" lon="6.00439">
        <ele>392.79998779297</ele>
        <time>2013-08-25T11:26:12.000Z</time>
      </trkpt>
      <trkpt lat="45.52512" lon="6.00439">
        <ele>392.79998779297</ele>
        <time>2013-08-25T11:26:14.000Z</time>
      </trkpt>
      <trkpt lat="45.52512" lon="6.00439">
        <ele>392.79998779297</ele>
        <time>2013-08-25T11:26:15.000Z</time>
      </trkpt>
      <trkpt lat="45.52512" lon="6.00439">
        <ele>392.79998779297</ele>
        <time>2013-08-25T11:26:16.000Z</time>
      </trkpt>
      <trkpt lat="45.52512" lon="6.00439">
        <ele>392.79998779297</ele>
        <time>2013-08-25T11:26:17.000Z</time>
      </trkpt>
      <trkpt lat="45.52512" lon="6.00439">
        <ele>392.79998779297</ele>
        <time>2013-08-25T11:26:18.000Z</time>
      </trkpt>
      <trkpt lat="45.52512" lon="6.00439">
        <ele>392.79998779297</ele>
        <time>2013-08-25T11:26:19.000Z</time>
      </trkpt>
      <trkpt lat="45.52512" lon="6.00439">
        <ele>392.79998779297</ele>
        <time>2013-08-25T11:26:20.000Z</time>
      </trkpt>
      <trkpt lat="45.52512" lon="6.00439">
        <ele>392.79998779297</ele>
        <time>2013-08-25T11:26:21.000Z</time>
      </trkpt>
      <trkpt lat="45.52512" lon="6.00439">
        <ele>392.79998779297</ele>
        <time>2013-08-25T11:26:22.000Z</time>
      </trkpt>
      <trkpt lat="45.52512" lon="6.00439">
        <ele>392.79998779297</ele>
        <time>2013-08-25T11:26:23.000Z</time>
      </trkpt>
      <trkpt lat="45.52512" lon="6.00439">
        <ele>392.79998779297</ele>
        <time>2013-08-25T11:26:24.000Z</time>
      </trkpt>
      <trkpt lat="45.52512" lon="6.00439">
        <ele>392.79998779297</ele>
        <time>2013-08-25T11:26:25.000Z</time>
      </trkpt>
      <trkpt lat="45.52512" lon="6.00439">
        <ele>392.79998779297</ele>
        <time>2013-08-25T11:26:26.000Z</time>
      </trkpt>
      <trkpt lat="45.52512" lon="6.00439">
        <ele>392.79998779297</ele>
        <time>2013-08-25T11:26:28.000Z</time>
      </trkpt>
      <trkpt lat="45.52512" lon="6.00439">
        <ele>392.79998779297</ele>
        <time>2013-08-25T11:26:29.000Z</time>
      </trkpt>
      <trkpt lat="45.52512" lon="6.00439">
        <ele>392.79998779297</ele>
        <time>2013-08-25T11:26:30.000Z</time>
      </trkpt>
      <trkpt lat="45.52512" lon="6.00439">
        <ele>392.79998779297</ele>
        <time>2013-08-25T11:26:32.000Z</time>
      </trkpt>
      <trkpt lat="45.52512" lon="6.00439">
        <ele>392.79998779297</ele>
        <time>2013-08-25T11:26:34.000Z</time>
      </trkpt>
      <trkpt lat="45.52512" lon="6.00439">
        <ele>392.79998779297</ele>
        <time>2013-08-25T11:26:35.000Z</time>
      </trkpt>
      <trkpt lat="45.52512" lon="6.00439">
        <ele>392.79998779297</ele>
        <time>2013-08-25T11:26:36.000Z</time>
      </trkpt>
      <trkpt lat="45.52512" lon="6.00439">
        <ele>392.79998779297</ele>
        <time>2013-08-25T11:26:41.000Z</time>
      </trkpt>
      <trkpt lat="45.52512" lon="6.00439">
        <ele>392.79998779297</ele>
        <time>2013-08-25T11:26:42.000Z</time>
      </trkpt>
      <trkpt lat="45.52512" lon="6.00439">
        <ele>392.79998779297</ele>
        <time>2013-08-25T11:26:43.000Z</time>
      </trkpt>
      <trkpt lat="45.52512" lon="6.00439">
        <ele>392.79998779297</ele>
        <time>2013-08-25T11:26:44.000Z</time>
      </trkpt>
      <trkpt lat="45.52512" lon="6.00439">
        <ele>392.79998779297</ele>
        <time>2013-08-25T11:26:45.000Z</time>
      </trkpt>
      <trkpt lat="45.52512" lon="6.00439">
        <ele>392.79998779297</ele>
        <time>2013-08-25T11:26:46.000Z</time>
      </trkpt>
      <trkpt lat="45.52512" lon="6.00439">
        <ele>392.79998779297</ele>
        <time>2013-08-25T11:26:47.000Z</time>
      </trkpt>
      <trkpt lat="45.52512" lon="6.00439">
        <ele>392.79998779297</ele>
        <time>2013-08-25T11:26:48.000Z</time>
      </trkpt>
      <trkpt lat="45.52512" lon="6.00439">
        <ele>392.79998779297</ele>
        <time>2013-08-25T11:26:49.000Z</time>
      </trkpt>
      <trkpt lat="45.52512" lon="6.00439">
        <ele>392.79998779297</ele>
        <time>2013-08-25T11:26:50.000Z</time>
      </trkpt>
      <trkpt lat="45.52512" lon="6.00439">
        <ele>392.79998779297</ele>
        <time>2013-08-25T11:26:51.000Z</time>
      </trkpt>
      <trkpt lat="45.52512" lon="6.00439">
        <ele>392.79998779297</ele>
        <time>2013-08-25T11:26:52.000Z</time>
      </trkpt>
      <trkpt lat="45.52512" lon="6.00439">
        <ele>392.79998779297</ele>
        <time>2013-08-25T11:26:53.000Z</time>
      </trkpt>
      <trkpt lat="45.52512" lon="6.00439">
        <ele>392.79998779297</ele>
        <time>2013-08-25T11:26:54.000Z</time>
      </trkpt>
      <trkpt lat="45.52512" lon="6.00439">
        <ele>392.79998779297</ele>
        <time>2013-08-25T11:26:55.000Z</time>
      </trkpt>
      <trkpt lat="45.52512" lon="6.00439">
        <ele>392.79998779297</ele>
        <time>2013-08-25T11:26:56.000Z</time>
      </trkpt>
      <trkpt lat="45.52512" lon="6.00439">
        <ele>392.79998779297</ele>
        <time>2013-08-25T11:26:57.000Z</time>
      </trkpt>
      <trkpt lat="45.52512" lon="6.00439">
        <ele>392.79998779297</ele>
        <time>2013-08-25T11:26:58.000Z</time>
      </trkpt>
      <trkpt lat="45.52512" lon="6.00439">
        <ele>392.79998779297</ele>
        <time>2013-08-25T11:26:59.000Z</time>
      </trkpt>
      <trkpt lat="45.52512" lon="6.00439">
        <ele>392.79998779297</ele>
        <time>2013-08-25T11:27:00.000Z</time>
      </trkpt>
      <trkpt lat="45.52512" lon="6.00439">
        <ele>392.79998779297</ele>
        <time>2013-08-25T11:27:01.000Z</time>
      </trkpt>
      <trkpt lat="45.52512" lon="6.00439">
        <ele>392.79998779297</ele>
        <time>2013-08-25T11:27:02.000Z</time>
      </trkpt>
      <trkpt lat="45.52512" lon="6.00439">
        <ele>392.79998779297</ele>
        <time>2013-08-25T11:27:03.000Z</time>
      </trkpt>
      <trkpt lat="45.52512" lon="6.00439">
        <ele>392.79998779297</ele>
        <time>2013-08-25T11:27:04.000Z</time>
      </trkpt>
      <trkpt lat="45.52512" lon="6.00439">
        <ele>392.79998779297</ele>
        <time>2013-08-25T11:27:06.000Z</time>
      </trkpt>
      <trkpt lat="45.52512" lon="6.00439">
        <ele>392.79998779297</ele>
        <time>2013-08-25T11:27:07.000Z</time>
      </trkpt>
      <trkpt lat="45.52512" lon="6.00439">
        <ele>392.79998779297</ele>
        <time>2013-08-25T11:27:08.000Z</time>
      </trkpt>
      <trkpt lat="45.52512" lon="6.00439">
        <ele>392.79998779297</ele>
        <time>2013-08-25T11:27:09.000Z</time>
      </trkpt>
      <trkpt lat="45.52512" lon="6.00439">
        <ele>392.79998779297</ele>
        <time>2013-08-25T11:27:10.000Z</time>
      </trkpt>
      <trkpt lat="45.52512" lon="6.00439">
        <ele>392.79998779297</ele>
        <time>2013-08-25T11:27:11.000Z</time>
      </trkpt>
      <trkpt lat="45.52512" lon="6.00439">
        <ele>392.79998779297</ele>
        <time>2013-08-25T11:27:12.000Z</time>
      </trkpt>
      <trkpt lat="45.52512" lon="6.00439">
        <ele>392.79998779297</ele>
        <time>2013-08-25T11:27:13.000Z</time>
      </trkpt>
      <trkpt lat="45.52512" lon="6.00439">
        <ele>392.79998779297</ele>
        <time>2013-08-25T11:27:15.000Z</time>
      </trkpt>
      <trkpt lat="45.52512" lon="6.00439">
        <ele>392.79998779297</ele>
        <time>2013-08-25T11:27:16.000Z</time>
      </trkpt>
      <trkpt lat="45.52512" lon="6.00439">
        <ele>392.79998779297</ele>
        <time>2013-08-25T11:27:17.000Z</time>
      </trkpt>
      <trkpt lat="45.52512" lon="6.00439">
        <ele>392.79998779297</ele>
        <time>2013-08-25T11:27:18.000Z</time>
      </trkpt>
      <trkpt lat="45.52512" lon="6.00439">
        <ele>392.79998779297</ele>
        <time>2013-08-25T11:27:19.000Z</time>
      </trkpt>
      <trkpt lat="45.52512" lon="6.00439">
        <ele>392.79998779297</ele>
        <time>2013-08-25T11:27:20.000Z</time>
      </trkpt>
      <trkpt lat="45.52512" lon="6.00439">
        <ele>392.79998779297</ele>
        <time>2013-08-25T11:27:21.000Z</time>
      </trkpt>
      <trkpt lat="45.52512" lon="6.00439">
        <ele>392.79998779297</ele>
        <time>2013-08-25T11:27:22.000Z</time>
      </trkpt>
      <trkpt lat="45.52512" lon="6.00439">
        <ele>392.79998779297</ele>
        <time>2013-08-25T11:27:23.000Z</time>
      </trkpt>
      <trkpt lat="45.52512" lon="6.00439">
        <ele>392.79998779297</ele>
        <time>2013-08-25T11:27:24.000Z</time>
      </trkpt>
      <trkpt lat="45.52512" lon="6.00439">
        <ele>392.79998779297</ele>
        <time>2013-08-25T11:27:25.000Z</time>
      </trkpt>
      <trkpt lat="45.52512" lon="6.00439">
        <ele>392.79998779297</ele>
        <time>2013-08-25T11:27:26.000Z</time>
      </trkpt>
      <trkpt lat="45.52512" lon="6.00439">
        <ele>392.79998779297</ele>
        <time>2013-08-25T11:27:27.000Z</time>
      </trkpt>
      <trkpt lat="45.52512" lon="6.00439">
        <ele>392.79998779297</ele>
        <time>2013-08-25T11:27:28.000Z</time>
      </trkpt>
      <trkpt lat="45.52512" lon="6.00439">
        <ele>392.79998779297</ele>
        <time>2013-08-25T11:27:29.000Z</time>
      </trkpt>
      <trkpt lat="45.52512" lon="6.00439">
        <ele>392.79998779297</ele>
        <time>2013-08-25T11:27:30.000Z</time>
      </trkpt>
      <trkpt lat="45.52512" lon="6.00439">
        <ele>392.79998779297</ele>
        <time>2013-08-25T11:27:31.000Z</time>
      </trkpt>
      <trkpt lat="45.52512" lon="6.00439">
        <ele>392.79998779297</ele>
        <time>2013-08-25T11:27:32.000Z</time>
      </trkpt>
      <trkpt lat="45.52512" lon="6.00439">
        <ele>392.79998779297</ele>
        <time>2013-08-25T11:27:43.000Z</time>
      </trkpt>
      <trkpt lat="45.52512" lon="6.00439">
        <ele>392.79998779297</ele>
        <time>2013-08-25T11:27:47.000Z</time>
      </trkpt>
      <trkpt lat="45.52512" lon="6.00439">
        <ele>392.79998779297</ele>
        <time>2013-08-25T11:27:50.000Z</time>
      </trkpt>
      <trkpt lat="45.52512" lon="6.00439">
        <ele>392.79998779297</ele>
        <time>2013-08-25T11:27:58.000Z</time>
      </trkpt>
      <trkpt lat="45.52512" lon="6.00439">
        <ele>392.79998779297</ele>
        <time>2013-08-25T11:28:03.000Z</time>
      </trkpt>
      <trkpt lat="45.52512" lon="6.00439">
        <ele>392.79998779297</ele>
        <time>2013-08-25T11:28:12.000Z</time>
      </trkpt>
      <trkpt lat="45.52512" lon="6.00439">
        <ele>392.79998779297</ele>
        <time>2013-08-25T11:28:13.000Z</time>
      </trkpt>
      <trkpt lat="45.52512" lon="6.00439">
        <ele>392.79998779297</ele>
        <time>2013-08-25T11:28:14.000Z</time>
      </trkpt>
      <trkpt lat="45.52512" lon="6.00439">
        <ele>392.79998779297</ele>
        <time>2013-08-25T11:28:15.000Z</time>
      </trkpt>
      <trkpt lat="45.52512" lon="6.00439">
        <ele>392.79998779297</ele>
        <time>2013-08-25T11:28:16.000Z</time>
      </trkpt>
      <trkpt lat="45.52512" lon="6.00439">
        <ele>392.79998779297</ele>
        <time>2013-08-25T11:28:17.000Z</time>
      </trkpt>
      <trkpt lat="45.52512" lon="6.00439">
        <ele>392.79998779297</ele>
        <time>2013-08-25T11:28:18.000Z</time>
      </trkpt>
      <trkpt lat="45.52512" lon="6.00439">
        <ele>392.79998779297</ele>
        <time>2013-08-25T11:28:19.000Z</time>
      </trkpt>
      <trkpt lat="45.52512" lon="6.00439">
        <ele>392.79998779297</ele>
        <time>2013-08-25T11:28:20.000Z</time>
      </trkpt>
      <trkpt lat="45.52512" lon="6.00439">
        <ele>392.79998779297</ele>
        <time>2013-08-25T11:28:21.000Z</time>
      </trkpt>
      <trkpt lat="45.52512" lon="6.00439">
        <ele>392.79998779297</ele>
        <time>2013-08-25T11:28:22.000Z</time>
      </trkpt>
      <trkpt lat="45.52512" lon="6.00439">
        <ele>392.79998779297</ele>
        <time>2013-08-25T11:28:23.000Z</time>
      </trkpt>
      <trkpt lat="45.52512" lon="6.00439">
        <ele>392.79998779297</ele>
        <time>2013-08-25T11:28:24.000Z</time>
      </trkpt>
      <trkpt lat="45.52512" lon="6.00439">
        <ele>392.79998779297</ele>
        <time>2013-08-25T11:28:25.000Z</time>
      </trkpt>
      <trkpt lat="45.52512" lon="6.00439">
        <ele>392.79998779297</ele>
        <time>2013-08-25T11:28:26.000Z</time>
      </trkpt>
      <trkpt lat="45.52512" lon="6.00439">
        <ele>392.79998779297</ele>
        <time>2013-08-25T11:28:27.000Z</time>
      </trkpt>
      <trkpt lat="45.52512" lon="6.00439">
        <ele>392.79998779297</ele>
        <time>2013-08-25T11:28:28.000Z</time>
      </trkpt>
      <trkpt lat="45.52512" lon="6.00439">
        <ele>392.79998779297</ele>
        <time>2013-08-25T11:28:29.000Z</time>
      </trkpt>
      <trkpt lat="45.52512" lon="6.00439">
        <ele>392.79998779297</ele>
        <time>2013-08-25T11:28:30.000Z</time>
      </trkpt>
      <trkpt lat="45.52512" lon="6.00439">
        <ele>392.79998779297</ele>
        <time>2013-08-25T11:28:31.000Z</time>
      </trkpt>
      <trkpt lat="45.52512" lon="6.00439">
        <ele>392.79998779297</ele>
        <time>2013-08-25T11:28:32.000Z</time>
      </trkpt>
      <trkpt lat="45.52512" lon="6.00439">
        <ele>392.79998779297</ele>
        <time>2013-08-25T11:28:33.000Z</time>
      </trkpt>
      <trkpt lat="45.52512" lon="6.00439">
        <ele>392.79998779297</ele>
        <time>2013-08-25T11:28:34.000Z</time>
      </trkpt>
      <trkpt lat="45.52512" lon="6.00439">
        <ele>392.79998779297</ele>
        <time>2013-08-25T11:28:35.000Z</time>
      </trkpt>
      <trkpt lat="45.52512" lon="6.00439">
        <ele>392.79998779297</ele>
        <time>2013-08-25T11:28:36.000Z</time>
      </trkpt>
      <trkpt lat="45.52512" lon="6.00439">
        <ele>392.79998779297</ele>
        <time>2013-08-25T11:28:38.000Z</time>
      </trkpt>
      <trkpt lat="45.52512" lon="6.00439">
        <ele>392.79998779297</ele>
        <time>2013-08-25T11:28:39.000Z</time>
      </trkpt>
      <trkpt lat="45.52512" lon="6.00439">
        <ele>392.79998779297</ele>
        <time>2013-08-25T11:28:41.000Z</time>
      </trkpt>
      <trkpt lat="45.52512" lon="6.00439">
        <ele>392.79998779297</ele>
        <time>2013-08-25T11:28:42.000Z</time>
      </trkpt>
      <trkpt lat="45.52512" lon="6.00439">
        <ele>392.79998779297</ele>
        <time>2013-08-25T11:28:43.000Z</time>
      </trkpt>
      <trkpt lat="45.52512" lon="6.00439">
        <ele>392.79998779297</ele>
        <time>2013-08-25T11:28:44.000Z</time>
      </trkpt>
      <trkpt lat="45.52512" lon="6.00439">
        <ele>392.79998779297</ele>
        <time>2013-08-25T11:28:45.000Z</time>
      </trkpt>
      <trkpt lat="45.52512" lon="6.00439">
        <ele>392.79998779297</ele>
        <time>2013-08-25T11:28:46.000Z</time>
      </trkpt>
      <trkpt lat="45.52512" lon="6.00439">
        <ele>392.79998779297</ele>
        <time>2013-08-25T11:28:47.000Z</time>
      </trkpt>
      <trkpt lat="45.52512" lon="6.00439">
        <ele>392.79998779297</ele>
        <time>2013-08-25T11:28:49.000Z</time>
      </trkpt>
      <trkpt lat="45.52512" lon="6.00439">
        <ele>392.79998779297</ele>
        <time>2013-08-25T11:28:50.000Z</time>
      </trkpt>
      <trkpt lat="45.52512" lon="6.00439">
        <ele>392.79998779297</ele>
        <time>2013-08-25T11:28:52.000Z</time>
      </trkpt>
      <trkpt lat="45.52512" lon="6.00439">
        <ele>392.79998779297</ele>
        <time>2013-08-25T11:28:53.000Z</time>
      </trkpt>
      <trkpt lat="45.52512" lon="6.00439">
        <ele>392.79998779297</ele>
        <time>2013-08-25T11:28:54.000Z</time>
      </trkpt>
      <trkpt lat="45.52512" lon="6.00439">
        <ele>392.79998779297</ele>
        <time>2013-08-25T11:28:58.000Z</time>
      </trkpt>
      <trkpt lat="45.52512" lon="6.00439">
        <ele>392.79998779297</ele>
        <time>2013-08-25T11:29:02.000Z</time>
      </trkpt>
      <trkpt lat="45.52512" lon="6.00439">
        <ele>392.79998779297</ele>
        <time>2013-08-25T11:29:07.000Z</time>
      </trkpt>
      <trkpt lat="45.52512" lon="6.00439">
        <ele>392.79998779297</ele>
        <time>2013-08-25T11:29:14.000Z</time>
      </trkpt>
      <trkpt lat="45.52512" lon="6.00439">
        <ele>392.79998779297</ele>
        <time>2013-08-25T11:29:21.000Z</time>
      </trkpt>
      <trkpt lat="45.52512" lon="6.00439">
        <ele>392.79998779297</ele>
        <time>2013-08-25T11:29:22.000Z</time>
      </trkpt>
      <trkpt lat="45.52512" lon="6.00439">
        <ele>392.79998779297</ele>
        <time>2013-08-25T11:29:23.000Z</time>
      </trkpt>
      <trkpt lat="45.52512" lon="6.00439">
        <ele>392.79998779297</ele>
        <time>2013-08-25T11:29:24.000Z</time>
      </trkpt>
      <trkpt lat="45.52512" lon="6.00439">
        <ele>392.79998779297</ele>
        <time>2013-08-25T11:29:25.000Z</time>
      </trkpt>
      <trkpt lat="45.52512" lon="6.00439">
        <ele>392.79998779297</ele>
        <time>2013-08-25T11:29:26.000Z</time>
      </trkpt>
      <trkpt lat="45.52512" lon="6.00439">
        <ele>392.79998779297</ele>
        <time>2013-08-25T11:29:27.000Z</time>
      </trkpt>
      <trkpt lat="45.52512" lon="6.00439">
        <ele>392.79998779297</ele>
        <time>2013-08-25T11:29:28.000Z</time>
      </trkpt>
      <trkpt lat="45.52512" lon="6.00439">
        <ele>392.79998779297</ele>
        <time>2013-08-25T11:29:29.000Z</time>
      </trkpt>
      <trkpt lat="45.52512" lon="6.00439">
        <ele>392.79998779297</ele>
        <time>2013-08-25T11:29:31.000Z</time>
      </trkpt>
      <trkpt lat="45.52512" lon="6.00439">
        <ele>392.79998779297</ele>
        <time>2013-08-25T11:29:33.000Z</time>
      </trkpt>
      <trkpt lat="45.52512" lon="6.00439">
        <ele>392.79998779297</ele>
        <time>2013-08-25T11:29:34.000Z</time>
      </trkpt>
      <trkpt lat="45.52512" lon="6.00439">
        <ele>392.79998779297</ele>
        <time>2013-08-25T11:29:35.000Z</time>
      </trkpt>
      <trkpt lat="45.52512" lon="6.00439">
        <ele>392.79998779297</ele>
        <time>2013-08-25T11:29:41.000Z</time>
      </trkpt>
      <trkpt lat="45.52512" lon="6.00439">
        <ele>392.79998779297</ele>
        <time>2013-08-25T11:29:42.000Z</time>
      </trkpt>
      <trkpt lat="45.52512" lon="6.00439">
        <ele>392.79998779297</ele>
        <time>2013-08-25T11:29:43.000Z</time>
      </trkpt>
      <trkpt lat="45.52512" lon="6.00439">
        <ele>392.79998779297</ele>
        <time>2013-08-25T11:29:44.000Z</time>
      </trkpt>
      <trkpt lat="45.52512" lon="6.00439">
        <ele>392.79998779297</ele>
        <time>2013-08-25T11:29:46.000Z</time>
      </trkpt>
      <trkpt lat="45.52512" lon="6.00439">
        <ele>392.79998779297</ele>
        <time>2013-08-25T11:29:47.000Z</time>
      </trkpt>
      <trkpt lat="45.52512" lon="6.00439">
        <ele>392.79998779297</ele>
        <time>2013-08-25T11:29:48.000Z</time>
      </trkpt>
      <trkpt lat="45.52512" lon="6.00439">
        <ele>392.79998779297</ele>
        <time>2013-08-25T11:29:49.000Z</time>
      </trkpt>
      <trkpt lat="45.52512" lon="6.00439">
        <ele>392.79998779297</ele>
        <time>2013-08-25T11:29:52.000Z</time>
      </trkpt>
      <trkpt lat="45.52512" lon="6.00439">
        <ele>392.79998779297</ele>
        <time>2013-08-25T11:30:01.000Z</time>
      </trkpt>
      <trkpt lat="45.52512" lon="6.00439">
        <ele>392.79998779297</ele>
        <time>2013-08-25T11:30:05.000Z</time>
      </trkpt>
      <trkpt lat="45.52512" lon="6.00439">
        <ele>392.79998779297</ele>
        <time>2013-08-25T11:30:06.000Z</time>
      </trkpt>
      <trkpt lat="45.52512" lon="6.00439">
        <ele>392.79998779297</ele>
        <time>2013-08-25T11:30:14.000Z</time>
      </trkpt>
      <trkpt lat="45.52512" lon="6.00439">
        <ele>392.79998779297</ele>
        <time>2013-08-25T11:30:17.000Z</time>
      </trkpt>
      <trkpt lat="45.52512" lon="6.00439">
        <ele>392.79998779297</ele>
        <time>2013-08-25T11:30:18.000Z</time>
      </trkpt>
      <trkpt lat="45.52512" lon="6.00439">
        <ele>392.79998779297</ele>
        <time>2013-08-25T11:30:20.000Z</time>
      </trkpt>
      <trkpt lat="45.52512" lon="6.00439">
        <ele>392.79998779297</ele>
        <time>2013-08-25T11:30:22.000Z</time>
      </trkpt>
      <trkpt lat="45.52512" lon="6.00439">
        <ele>392.79998779297</ele>
        <time>2013-08-25T11:30:27.000Z</time>
      </trkpt>
      <trkpt lat="45.52512" lon="6.00439">
        <ele>392.79998779297</ele>
        <time>2013-08-25T11:30:29.000Z</time>
      </trkpt>
      <trkpt lat="45.52512" lon="6.00439">
        <ele>392.79998779297</ele>
        <time>2013-08-25T11:30:30.000Z</time>
      </trkpt>
      <trkpt lat="45.52512" lon="6.00439">
        <ele>392.79998779297</ele>
        <time>2013-08-25T11:30:31.000Z</time>
      </trkpt>
      <trkpt lat="45.52512" lon="6.00439">
        <ele>392.79998779297</ele>
        <time>2013-08-25T11:30:39.000Z</time>
      </trkpt>
      <trkpt lat="45.52512" lon="6.00439">
        <ele>392.79998779297</ele>
        <time>2013-08-25T11:30:40.000Z</time>
      </trkpt>
      <trkpt lat="45.52512" lon="6.00439">
        <ele>392.79998779297</ele>
        <time>2013-08-25T11:30:41.000Z</time>
      </trkpt>
      <trkpt lat="45.52512" lon="6.00439">
        <ele>392.79998779297</ele>
        <time>2013-08-25T11:30:42.000Z</time>
      </trkpt>
      <trkpt lat="45.52512" lon="6.00439">
        <ele>392.79998779297</ele>
        <time>2013-08-25T11:30:47.000Z</time>
      </trkpt>
      <trkpt lat="45.52512" lon="6.00439">
        <ele>392.79998779297</ele>
        <time>2013-08-25T11:30:59.000Z</time>
      </trkpt>
      <trkpt lat="45.52512" lon="6.00439">
        <ele>392.79998779297</ele>
        <time>2013-08-25T11:31:00.000Z</time>
      </trkpt>
      <trkpt lat="45.52512" lon="6.00439">
        <ele>392.79998779297</ele>
        <time>2013-08-25T11:31:01.000Z</time>
      </trkpt>
      <trkpt lat="45.52512" lon="6.00439">
        <ele>392.79998779297</ele>
        <time>2013-08-25T11:31:02.000Z</time>
      </trkpt>
      <trkpt lat="45.52512" lon="6.00439">
        <ele>392.79998779297</ele>
        <time>2013-08-25T11:31:03.000Z</time>
      </trkpt>
      <trkpt lat="45.52512" lon="6.00439">
        <ele>392.79998779297</ele>
        <time>2013-08-25T11:31:04.000Z</time>
      </trkpt>
      <trkpt lat="45.52512" lon="6.00439">
        <ele>392.79998779297</ele>
        <time>2013-08-25T11:31:05.000Z</time>
      </trkpt>
      <trkpt lat="45.52512" lon="6.00439">
        <ele>392.79998779297</ele>
        <time>2013-08-25T11:31:06.000Z</time>
      </trkpt>
      <trkpt lat="45.52512" lon="6.00439">
        <ele>392.79998779297</ele>
        <time>2013-08-25T11:31:07.000Z</time>
      </trkpt>
      <trkpt lat="45.52512" lon="6.00439">
        <ele>392.79998779297</ele>
        <time>2013-08-25T11:31:08.000Z</time>
      </trkpt>
      <trkpt lat="45.52512" lon="6.00439">
        <ele>392.79998779297</ele>
        <time>2013-08-25T11:31:09.000Z</time>
      </trkpt>
      <trkpt lat="45.52512" lon="6.00439">
        <ele>392.79998779297</ele>
        <time>2013-08-25T11:31:10.000Z</time>
      </trkpt>
      <trkpt lat="45.52512" lon="6.00439">
        <ele>392.79998779297</ele>
        <time>2013-08-25T11:31:11.000Z</time>
      </trkpt>
      <trkpt lat="45.52512" lon="6.00439">
        <ele>392.79998779297</ele>
        <time>2013-08-25T11:31:12.000Z</time>
      </trkpt>
      <trkpt lat="45.52512" lon="6.00439">
        <ele>392.79998779297</ele>
        <time>2013-08-25T11:31:13.000Z</time>
      </trkpt>
      <trkpt lat="45.52512" lon="6.00439">
        <ele>392.79998779297</ele>
        <time>2013-08-25T11:31:17.000Z</time>
      </trkpt>
      <trkpt lat="45.52512" lon="6.00439">
        <ele>392.79998779297</ele>
        <time>2013-08-25T11:31:18.000Z</time>
      </trkpt>
      <trkpt lat="45.52512" lon="6.00439">
        <ele>392.79998779297</ele>
        <time>2013-08-25T11:31:22.000Z</time>
      </trkpt>
      <trkpt lat="45.52512" lon="6.00439">
        <ele>392.79998779297</ele>
        <time>2013-08-25T11:31:24.000Z</time>
      </trkpt>
      <trkpt lat="45.52512" lon="6.00439">
        <ele>392.79998779297</ele>
        <time>2013-08-25T11:31:27.000Z</time>
      </trkpt>
      <trkpt lat="45.52512" lon="6.00439">
        <ele>392.79998779297</ele>
        <time>2013-08-25T11:31:31.000Z</time>
      </trkpt>
      <trkpt lat="45.52512" lon="6.00439">
        <ele>392.79998779297</ele>
        <time>2013-08-25T11:31:32.000Z</time>
      </trkpt>
      <trkpt lat="45.52512" lon="6.00439">
        <ele>392.79998779297</ele>
        <time>2013-08-25T11:31:33.000Z</time>
      </trkpt>
      <trkpt lat="45.52512" lon="6.00439">
        <ele>392.79998779297</ele>
        <time>2013-08-25T11:31:34.000Z</time>
      </trkpt>
      <trkpt lat="45.52512" lon="6.00439">
        <ele>392.79998779297</ele>
        <time>2013-08-25T11:31:36.000Z</time>
      </trkpt>
      <trkpt lat="45.52512" lon="6.00439">
        <ele>392.79998779297</ele>
        <time>2013-08-25T11:31:37.000Z</time>
      </trkpt>
      <trkpt lat="45.52512" lon="6.00439">
        <ele>392.79998779297</ele>
        <time>2013-08-25T11:31:38.000Z</time>
      </trkpt>
      <trkpt lat="45.52512" lon="6.00439">
        <ele>392.79998779297</ele>
        <time>2013-08-25T11:31:39.000Z</time>
      </trkpt>
      <trkpt lat="45.52512" lon="6.00439">
        <ele>392.79998779297</ele>
        <time>2013-08-25T11:31:40.000Z</time>
      </trkpt>
      <trkpt lat="45.52512" lon="6.00439">
        <ele>392.79998779297</ele>
        <time>2013-08-25T11:31:41.000Z</time>
      </trkpt>
      <trkpt lat="45.52512" lon="6.00439">
        <ele>392.79998779297</ele>
        <time>2013-08-25T11:31:42.000Z</time>
      </trkpt>
      <trkpt lat="45.52512" lon="6.00439">
        <ele>392.79998779297</ele>
        <time>2013-08-25T11:31:43.000Z</time>
      </trkpt>
      <trkpt lat="45.52512" lon="6.00439">
        <ele>392.79998779297</ele>
        <time>2013-08-25T11:31:45.000Z</time>
      </trkpt>
      <trkpt lat="45.52512" lon="6.00439">
        <ele>392.79998779297</ele>
        <time>2013-08-25T11:31:46.000Z</time>
      </trkpt>
      <trkpt lat="45.52512" lon="6.00439">
        <ele>392.79998779297</ele>
        <time>2013-08-25T11:31:47.000Z</time>
      </trkpt>
      <trkpt lat="45.52512" lon="6.00439">
        <ele>392.79998779297</ele>
        <time>2013-08-25T11:31:48.000Z</time>
      </trkpt>
      <trkpt lat="45.52512" lon="6.00439">
        <ele>392.79998779297</ele>
        <time>2013-08-25T11:31:49.000Z</time>
      </trkpt>
      <trkpt lat="45.52512" lon="6.00439">
        <ele>392.79998779297</ele>
        <time>2013-08-25T11:31:50.000Z</time>
      </trkpt>
      <trkpt lat="45.52512" lon="6.00439">
        <ele>392.79998779297</ele>
        <time>2013-08-25T11:31:51.000Z</time>
      </trkpt>
      <trkpt lat="45.52512" lon="6.00439">
        <ele>392.79998779297</ele>
        <time>2013-08-25T11:31:52.000Z</time>
      </trkpt>
      <trkpt lat="45.52512" lon="6.00439">
        <ele>392.79998779297</ele>
        <time>2013-08-25T11:31:53.000Z</time>
      </trkpt>
      <trkpt lat="45.52512" lon="6.00439">
        <ele>392.79998779297</ele>
        <time>2013-08-25T11:31:54.000Z</time>
      </trkpt>
      <trkpt lat="45.52512" lon="6.00439">
        <ele>392.79998779297</ele>
        <time>2013-08-25T11:31:55.000Z</time>
      </trkpt>
      <trkpt lat="45.52512" lon="6.00439">
        <ele>392.79998779297</ele>
        <time>2013-08-25T11:31:56.000Z</time>
      </trkpt>
      <trkpt lat="45.52512" lon="6.00439">
        <ele>392.79998779297</ele>
        <time>2013-08-25T11:31:57.000Z</time>
      </trkpt>
      <trkpt lat="45.52512" lon="6.00439">
        <ele>392.79998779297</ele>
        <time>2013-08-25T11:31:58.000Z</time>
      </trkpt>
      <trkpt lat="45.52512" lon="6.00439">
        <ele>392.79998779297</ele>
        <time>2013-08-25T11:31:59.000Z</time>
      </trkpt>
      <trkpt lat="45.52512" lon="6.00439">
        <ele>392.79998779297</ele>
        <time>2013-08-25T11:32:00.000Z</time>
      </trkpt>
      <trkpt lat="45.52512" lon="6.00439">
        <ele>392.79998779297</ele>
        <time>2013-08-25T11:32:01.000Z</time>
      </trkpt>
      <trkpt lat="45.52512" lon="6.00439">
        <ele>392.79998779297</ele>
        <time>2013-08-25T11:32:02.000Z</time>
      </trkpt>
      <trkpt lat="45.52512" lon="6.00439">
        <ele>392.79998779297</ele>
        <time>2013-08-25T11:32:03.000Z</time>
      </trkpt>
      <trkpt lat="45.52512" lon="6.00439">
        <ele>392.79998779297</ele>
        <time>2013-08-25T11:32:04.000Z</time>
      </trkpt>
      <trkpt lat="45.52512" lon="6.00439">
        <ele>392.79998779297</ele>
        <time>2013-08-25T11:32:05.000Z</time>
      </trkpt>
      <trkpt lat="45.52512" lon="6.00439">
        <ele>392.79998779297</ele>
        <time>2013-08-25T11:32:06.000Z</time>
      </trkpt>
      <trkpt lat="45.52512" lon="6.00439">
        <ele>392.79998779297</ele>
        <time>2013-08-25T11:32:07.000Z</time>
      </trkpt>
      <trkpt lat="45.52512" lon="6.00439">
        <ele>392.79998779297</ele>
        <time>2013-08-25T11:32:08.000Z</time>
      </trkpt>
      <trkpt lat="45.52512" lon="6.00439">
        <ele>392.79998779297</ele>
        <time>2013-08-25T11:32:09.000Z</time>
      </trkpt>
      <trkpt lat="45.52512" lon="6.00439">
        <ele>392.79998779297</ele>
        <time>2013-08-25T11:32:10.000Z</time>
      </trkpt>
      <trkpt lat="45.52512" lon="6.00439">
        <ele>392.79998779297</ele>
        <time>2013-08-25T11:32:11.000Z</time>
      </trkpt>
      <trkpt lat="45.52512" lon="6.00439">
        <ele>392.79998779297</ele>
        <time>2013-08-25T11:32:12.000Z</time>
      </trkpt>
      <trkpt lat="45.52512" lon="6.00439">
        <ele>392.79998779297</ele>
        <time>2013-08-25T11:32:13.000Z</time>
      </trkpt>
      <trkpt lat="45.52512" lon="6.00439">
        <ele>392.79998779297</ele>
        <time>2013-08-25T11:32:14.000Z</time>
      </trkpt>
      <trkpt lat="45.52512" lon="6.00439">
        <ele>392.79998779297</ele>
        <time>2013-08-25T11:32:15.000Z</time>
      </trkpt>
      <trkpt lat="45.52512" lon="6.00439">
        <ele>392.79998779297</ele>
        <time>2013-08-25T11:32:16.000Z</time>
      </trkpt>
      <trkpt lat="45.52512" lon="6.00439">
        <ele>392.79998779297</ele>
        <time>2013-08-25T11:32:17.000Z</time>
      </trkpt>
      <trkpt lat="45.52512" lon="6.00439">
        <ele>392.79998779297</ele>
        <time>2013-08-25T11:32:18.000Z</time>
      </trkpt>
      <trkpt lat="45.52512" lon="6.00439">
        <ele>392.79998779297</ele>
        <time>2013-08-25T11:32:23.000Z</time>
      </trkpt>
      <trkpt lat="45.52512" lon="6.00439">
        <ele>392.79998779297</ele>
        <time>2013-08-25T11:32:24.000Z</time>
      </trkpt>
      <trkpt lat="45.52512" lon="6.00439">
        <ele>392.79998779297</ele>
        <time>2013-08-25T11:32:25.000Z</time>
      </trkpt>
      <trkpt lat="45.52512" lon="6.00439">
        <ele>392.79998779297</ele>
        <time>2013-08-25T11:32:26.000Z</time>
      </trkpt>
      <trkpt lat="45.52512" lon="6.00439">
        <ele>392.79998779297</ele>
        <time>2013-08-25T11:32:27.000Z</time>
      </trkpt>
      <trkpt lat="45.52512" lon="6.00439">
        <ele>392.79998779297</ele>
        <time>2013-08-25T11:32:29.000Z</time>
      </trkpt>
      <trkpt lat="45.52512" lon="6.00439">
        <ele>392.79998779297</ele>
        <time>2013-08-25T11:32:31.000Z</time>
      </trkpt>
      <trkpt lat="45.52512" lon="6.00439">
        <ele>392.79998779297</ele>
        <time>2013-08-25T11:32:32.000Z</time>
      </trkpt>
      <trkpt lat="45.52512" lon="6.00439">
        <ele>392.79998779297</ele>
        <time>2013-08-25T11:32:33.000Z</time>
      </trkpt>
      <trkpt lat="45.52512" lon="6.00439">
        <ele>392.79998779297</ele>
        <time>2013-08-25T11:32:34.000Z</time>
      </trkpt>
      <trkpt lat="45.52512" lon="6.00439">
        <ele>392.79998779297</ele>
        <time>2013-08-25T11:32:35.000Z</time>
      </trkpt>
      <trkpt lat="45.52512" lon="6.00439">
        <ele>392.79998779297</ele>
        <time>2013-08-25T11:32:43.000Z</time>
      </trkpt>
      <trkpt lat="45.52512" lon="6.00439">
        <ele>392.79998779297</ele>
        <time>2013-08-25T11:32:45.000Z</time>
      </trkpt>
      <trkpt lat="45.52512" lon="6.00439">
        <ele>392.79998779297</ele>
        <time>2013-08-25T11:32:47.000Z</time>
      </trkpt>
      <trkpt lat="45.52512" lon="6.00439">
        <ele>392.79998779297</ele>
        <time>2013-08-25T11:32:48.000Z</time>
      </trkpt>
      <trkpt lat="45.52512" lon="6.00439">
        <ele>392.79998779297</ele>
        <time>2013-08-25T11:32:49.000Z</time>
      </trkpt>
      <trkpt lat="45.52512" lon="6.00439">
        <ele>392.79998779297</ele>
        <time>2013-08-25T11:32:50.000Z</time>
      </trkpt>
      <trkpt lat="45.52512" lon="6.00439">
        <ele>392.79998779297</ele>
        <time>2013-08-25T11:32:51.000Z</time>
      </trkpt>
      <trkpt lat="45.52512" lon="6.00439">
        <ele>392.79998779297</ele>
        <time>2013-08-25T11:32:52.000Z</time>
      </trkpt>
      <trkpt lat="45.52512" lon="6.00439">
        <ele>392.79998779297</ele>
        <time>2013-08-25T11:32:53.000Z</time>
      </trkpt>
      <trkpt lat="45.52512" lon="6.00439">
        <ele>392.79998779297</ele>
        <time>2013-08-25T11:32:54.000Z</time>
      </trkpt>
      <trkpt lat="45.52512" lon="6.00439">
        <ele>392.79998779297</ele>
        <time>2013-08-25T11:32:55.000Z</time>
      </trkpt>
      <trkpt lat="45.52512" lon="6.00439">
        <ele>392.79998779297</ele>
        <time>2013-08-25T11:32:56.000Z</time>
      </trkpt>
      <trkpt lat="45.52512" lon="6.00439">
        <ele>392.79998779297</ele>
        <time>2013-08-25T11:32:58.000Z</time>
      </trkpt>
      <trkpt lat="45.52512" lon="6.00439">
        <ele>392.79998779297</ele>
        <time>2013-08-25T11:32:59.000Z</time>
      </trkpt>
      <trkpt lat="45.52512" lon="6.00439">
        <ele>392.79998779297</ele>
        <time>2013-08-25T11:33:00.000Z</time>
      </trkpt>
      <trkpt lat="45.53687" lon="5.99169">
        <ele>328.39999389648</ele>
        <time>2013-08-25T11:33:01.000Z</time>
      </trkpt>
      <trkpt lat="45.53682" lon="5.99173">
        <ele>328.20001220703</ele>
        <time>2013-08-25T11:33:02.000Z</time>
      </trkpt>
      <trkpt lat="45.53677" lon="5.99177">
        <ele>328.20001220703</ele>
        <time>2013-08-25T11:33:03.000Z</time>
      </trkpt>
      <trkpt lat="45.53674" lon="5.99183">
        <ele>328</ele>
        <time>2013-08-25T11:33:04.000Z</time>
      </trkpt>
      <trkpt lat="45.53669" lon="5.99187">
        <ele>328</ele>
        <time>2013-08-25T11:33:05.000Z</time>
      </trkpt>
      <trkpt lat="45.53653" lon="5.99198">
        <ele>328.20001220703</ele>
        <time>2013-08-25T11:33:09.000Z</time>
      </trkpt>
      <trkpt lat="45.5365" lon="5.99199">
        <ele>328.20001220703</ele>
        <time>2013-08-25T11:33:10.000Z</time>
      </trkpt>
      <trkpt lat="45.53644" lon="5.99202">
        <ele>328.20001220703</ele>
        <time>2013-08-25T11:33:11.000Z</time>
      </trkpt>
      <trkpt lat="45.53641" lon="5.99204">
        <ele>328.20001220703</ele>
        <time>2013-08-25T11:33:12.000Z</time>
      </trkpt>
      <trkpt lat="45.53635" lon="5.99208">
        <ele>328.20001220703</ele>
        <time>2013-08-25T11:33:14.000Z</time>
      </trkpt>
      <trkpt lat="45.53633" lon="5.99209">
        <ele>328.20001220703</ele>
        <time>2013-08-25T11:33:15.000Z</time>
      </trkpt>
      <trkpt lat="45.53632" lon="5.9921">
        <ele>328.20001220703</ele>
        <time>2013-08-25T11:33:16.000Z</time>
      </trkpt>
      <trkpt lat="45.5363" lon="5.99212">
        <ele>328.39999389648</ele>
        <time>2013-08-25T11:33:18.000Z</time>
      </trkpt>
      <trkpt lat="45.53626" lon="5.99213">
        <ele>328.39999389648</ele>
        <time>2013-08-25T11:33:20.000Z</time>
      </trkpt>
      <trkpt lat="45.53624" lon="5.99214">
        <ele>328.39999389648</ele>
        <time>2013-08-25T11:33:21.000Z</time>
      </trkpt>
      <trkpt lat="45.53622" lon="5.99215">
        <ele>328.39999389648</ele>
        <time>2013-08-25T11:33:22.000Z</time>
      </trkpt>
      <trkpt lat="45.53621" lon="5.99215">
        <ele>328.39999389648</ele>
        <time>2013-08-25T11:33:23.000Z</time>
      </trkpt>
      <trkpt lat="45.53617" lon="5.99206">
        <ele>328.60000610352</ele>
        <time>2013-08-25T11:33:27.000Z</time>
      </trkpt>
      <trkpt lat="45.53617" lon="5.99203">
        <ele>328.60000610352</ele>
        <time>2013-08-25T11:33:28.000Z</time>
      </trkpt>
      <trkpt lat="45.53614" lon="5.99185">
        <ele>328.79998779297</ele>
        <time>2013-08-25T11:33:32.000Z</time>
      </trkpt>
      <trkpt lat="45.53607" lon="5.99166">
        <ele>329.39999389648</ele>
        <time>2013-08-25T11:33:39.000Z</time>
      </trkpt>
      <trkpt lat="45.53606" lon="5.99166">
        <ele>329.39999389648</ele>
        <time>2013-08-25T11:33:40.000Z</time>
      </trkpt>
      <trkpt lat="45.53605" lon="5.99165">
        <ele>329.60000610352</ele>
        <time>2013-08-25T11:33:41.000Z</time>
      </trkpt>
      <trkpt lat="45.53604" lon="5.99162">
        <ele>329.79998779297</ele>
        <time>2013-08-25T11:33:42.000Z</time>
      </trkpt>
      <trkpt lat="45.53592" lon="5.9914">
        <ele>332.20001220703</ele>
        <time>2013-08-25T11:33:51.000Z</time>
      </trkpt>
      <trkpt lat="45.53579" lon="5.99133">
        <ele>333.39999389648</ele>
        <time>2013-08-25T11:33:57.000Z</time>
      </trkpt>
      <trkpt lat="45.53577" lon="5.99131">
        <ele>333.79998779297</ele>
        <time>2013-08-25T11:33:58.000Z</time>
      </trkpt>
      <trkpt lat="45.53575" lon="5.99131">
        <ele>334</ele>
        <time>2013-08-25T11:33:59.000Z</time>
      </trkpt>
      <trkpt lat="45.53568" lon="5.99128">
        <ele>334.60000610352</ele>
        <time>2013-08-25T11:34:02.000Z</time>
      </trkpt>
      <trkpt lat="45.53566" lon="5.99127">
        <ele>335</ele>
        <time>2013-08-25T11:34:03.000Z</time>
      </trkpt>
      <trkpt lat="45.53563" lon="5.99126">
        <ele>335.20001220703</ele>
        <time>2013-08-25T11:34:04.000Z</time>
      </trkpt>
      <trkpt lat="45.53557" lon="5.99124">
        <ele>335.79998779297</ele>
        <time>2013-08-25T11:34:06.000Z</time>
      </trkpt>
      <trkpt lat="45.53554" lon="5.99123">
        <ele>336.20001220703</ele>
        <time>2013-08-25T11:34:07.000Z</time>
      </trkpt>
      <trkpt lat="45.53551" lon="5.99122">
        <ele>336.39999389648</ele>
        <time>2013-08-25T11:34:08.000Z</time>
      </trkpt>
      <trkpt lat="45.53548" lon="5.99121">
        <ele>336.79998779297</ele>
        <time>2013-08-25T11:34:09.000Z</time>
      </trkpt>
      <trkpt lat="45.53545" lon="5.9912">
        <ele>337</ele>
        <time>2013-08-25T11:34:10.000Z</time>
      </trkpt>
      <trkpt lat="45.53542" lon="5.9912">
        <ele>337.20001220703</ele>
        <time>2013-08-25T11:34:11.000Z</time>
      </trkpt>
      <trkpt lat="45.53508" lon="5.99107">
        <ele>340.39999389648</ele>
        <time>2013-08-25T11:34:25.000Z</time>
      </trkpt>
      <trkpt lat="45.53495" lon="5.99106">
        <ele>341</ele>
        <time>2013-08-25T11:34:31.000Z</time>
      </trkpt>
      <trkpt lat="45.53492" lon="5.99105">
        <ele>341.20001220703</ele>
        <time>2013-08-25T11:34:32.000Z</time>
      </trkpt>
      <trkpt lat="45.5349" lon="5.99105">
        <ele>341.20001220703</ele>
        <time>2013-08-25T11:34:33.000Z</time>
      </trkpt>
      <trkpt lat="45.53485" lon="5.99105">
        <ele>341.60000610352</ele>
        <time>2013-08-25T11:34:35.000Z</time>
      </trkpt>
      <trkpt lat="45.53475" lon="5.99099">
        <ele>342.20001220703</ele>
        <time>2013-08-25T11:34:39.000Z</time>
      </trkpt>
      <trkpt lat="45.53472" lon="5.99098">
        <ele>342.39999389648</ele>
        <time>2013-08-25T11:34:40.000Z</time>
      </trkpt>
      <trkpt lat="45.53463" lon="5.99093">
        <ele>343.20001220703</ele>
        <time>2013-08-25T11:34:44.000Z</time>
      </trkpt>
      <trkpt lat="45.53456" lon="5.99091">
        <ele>343.60000610352</ele>
        <time>2013-08-25T11:34:47.000Z</time>
      </trkpt>
      <trkpt lat="45.53452" lon="5.9909">
        <ele>343.79998779297</ele>
        <time>2013-08-25T11:34:49.000Z</time>
      </trkpt>
      <trkpt lat="45.5345" lon="5.9909">
        <ele>344</ele>
        <time>2013-08-25T11:34:50.000Z</time>
      </trkpt>
      <trkpt lat="45.53435" lon="5.99078">
        <ele>345.39999389648</ele>
        <time>2013-08-25T11:34:58.000Z</time>
      </trkpt>
      <trkpt lat="45.53416" lon="5.99066">
        <ele>346</ele>
        <time>2013-08-25T11:35:06.000Z</time>
      </trkpt>
      <trkpt lat="45.53396" lon="5.99048">
        <ele>344.39999389648</ele>
        <time>2013-08-25T11:35:15.000Z</time>
      </trkpt>
      <trkpt lat="45.53393" lon="5.99044">
        <ele>344.20001220703</ele>
        <time>2013-08-25T11:35:18.000Z</time>
      </trkpt>
      <trkpt lat="45.53388" lon="5.99021">
        <ele>344.39999389648</ele>
        <time>2013-08-25T11:35:29.000Z</time>
      </trkpt>
      <trkpt lat="45.53364" lon="5.98993">
        <ele>343.60000610352</ele>
        <time>2013-08-25T11:35:39.000Z</time>
      </trkpt>
      <trkpt lat="45.53362" lon="5.98987">
        <ele>343.79998779297</ele>
        <time>2013-08-25T11:35:40.000Z</time>
      </trkpt>
      <trkpt lat="45.53361" lon="5.9898">
        <ele>344</ele>
        <time>2013-08-25T11:35:41.000Z</time>
      </trkpt>
      <trkpt lat="45.53361" lon="5.98973">
        <ele>344.39999389648</ele>
        <time>2013-08-25T11:35:42.000Z</time>
      </trkpt>
      <trkpt lat="45.53359" lon="5.98953">
        <ele>345.20001220703</ele>
        <time>2013-08-25T11:35:45.000Z</time>
      </trkpt>
      <trkpt lat="45.53358" lon="5.98946">
        <ele>345.60000610352</ele>
        <time>2013-08-25T11:35:46.000Z</time>
      </trkpt>
      <trkpt lat="45.53356" lon="5.98932">
        <ele>346.20001220703</ele>
        <time>2013-08-25T11:35:48.000Z</time>
      </trkpt>
      <trkpt lat="45.53353" lon="5.9892">
        <ele>346.39999389648</ele>
        <time>2013-08-25T11:35:50.000Z</time>
      </trkpt>
      <trkpt lat="45.53343" lon="5.98899">
        <ele>346.20001220703</ele>
        <time>2013-08-25T11:35:54.000Z</time>
      </trkpt>
      <trkpt lat="45.53341" lon="5.98895">
        <ele>346.20001220703</ele>
        <time>2013-08-25T11:35:55.000Z</time>
      </trkpt>
      <trkpt lat="45.53325" lon="5.98863">
        <ele>347</ele>
        <time>2013-08-25T11:36:03.000Z</time>
      </trkpt>
      <trkpt lat="45.53311" lon="5.98814">
        <ele>349.20001220703</ele>
        <time>2013-08-25T11:36:16.000Z</time>
      </trkpt>
      <trkpt lat="45.53323" lon="5.98769">
        <ele>350.39999389648</ele>
        <time>2013-08-25T11:36:27.000Z</time>
      </trkpt>
      <trkpt lat="45.53332" lon="5.98711">
        <ele>351.79998779297</ele>
        <time>2013-08-25T11:36:41.000Z</time>
      </trkpt>
      <trkpt lat="45.53338" lon="5.98686">
        <ele>352.60000610352</ele>
        <time>2013-08-25T11:36:48.000Z</time>
      </trkpt>
      <trkpt lat="45.53377" lon="5.98658">
        <ele>353.39999389648</ele>
        <time>2013-08-25T11:37:01.000Z</time>
      </trkpt>
      <trkpt lat="45.53388" lon="5.98664">
        <ele>353.60000610352</ele>
        <time>2013-08-25T11:37:05.000Z</time>
      </trkpt>
      <trkpt lat="45.53391" lon="5.98669">
        <ele>353.60000610352</ele>
        <time>2013-08-25T11:37:06.000Z</time>
      </trkpt>
      <trkpt lat="45.53393" lon="5.98673">
        <ele>353.79998779297</ele>
        <time>2013-08-25T11:37:07.000Z</time>
      </trkpt>
      <trkpt lat="45.53399" lon="5.98687">
        <ele>354.20001220703</ele>
        <time>2013-08-25T11:37:10.000Z</time>
      </trkpt>
      <trkpt lat="45.53419" lon="5.98736">
        <ele>356.39999389648</ele>
        <time>2013-08-25T11:37:24.000Z</time>
      </trkpt>
      <trkpt lat="45.53426" lon="5.98791">
        <ele>357.60000610352</ele>
        <time>2013-08-25T11:37:39.000Z</time>
      </trkpt>
      <trkpt lat="45.53439" lon="5.98829">
        <ele>358.79998779297</ele>
        <time>2013-08-25T11:37:49.000Z</time>
      </trkpt>
      <trkpt lat="45.53458" lon="5.98852">
        <ele>359.79998779297</ele>
        <time>2013-08-25T11:37:59.000Z</time>
      </trkpt>
      <trkpt lat="45.53496" lon="5.98832">
        <ele>361.60000610352</ele>
        <time>2013-08-25T11:38:12.000Z</time>
      </trkpt>
      <trkpt lat="45.53501" lon="5.98824">
        <ele>361.60000610352</ele>
        <time>2013-08-25T11:38:14.000Z</time>
      </trkpt>
      <trkpt lat="45.53504" lon="5.9882">
        <ele>361.39999389648</ele>
        <time>2013-08-25T11:38:15.000Z</time>
      </trkpt>
      <trkpt lat="45.53507" lon="5.98816">
        <ele>361.39999389648</ele>
        <time>2013-08-25T11:38:16.000Z</time>
      </trkpt>
      <trkpt lat="45.53541" lon="5.9878">
        <ele>360.79998779297</ele>
        <time>2013-08-25T11:38:25.000Z</time>
      </trkpt>
      <trkpt lat="45.53616" lon="5.98721">
        <ele>361.39999389648</ele>
        <time>2013-08-25T11:38:41.000Z</time>
      </trkpt>
      <trkpt lat="45.53655" lon="5.98664">
        <ele>361.20001220703</ele>
        <time>2013-08-25T11:38:56.000Z</time>
      </trkpt>
      <trkpt lat="45.53693" lon="5.98624">
        <ele>361.20001220703</ele>
        <time>2013-08-25T11:39:09.000Z</time>
      </trkpt>
      <trkpt lat="45.53697" lon="5.98621">
        <ele>361.20001220703</ele>
        <time>2013-08-25T11:39:10.000Z</time>
      </trkpt>
      <trkpt lat="45.53701" lon="5.98618">
        <ele>361.39999389648</ele>
        <time>2013-08-25T11:39:11.000Z</time>
      </trkpt>
      <trkpt lat="45.53746" lon="5.98601">
        <ele>362.79998779297</ele>
        <time>2013-08-25T11:39:22.000Z</time>
      </trkpt>
      <trkpt lat="45.5375" lon="5.98599">
        <ele>362.79998779297</ele>
        <time>2013-08-25T11:39:23.000Z</time>
      </trkpt>
      <trkpt lat="45.53783" lon="5.98574">
        <ele>362.60000610352</ele>
        <time>2013-08-25T11:39:33.000Z</time>
      </trkpt>
      <trkpt lat="45.53784" lon="5.9857">
        <ele>362.60000610352</ele>
        <time>2013-08-25T11:39:34.000Z</time>
      </trkpt>
      <trkpt lat="45.53786" lon="5.98533">
        <ele>362</ele>
        <time>2013-08-25T11:39:40.000Z</time>
      </trkpt>
      <trkpt lat="45.53788" lon="5.98526">
        <ele>362</ele>
        <time>2013-08-25T11:39:41.000Z</time>
      </trkpt>
      <trkpt lat="45.5379" lon="5.9852">
        <ele>362</ele>
        <time>2013-08-25T11:39:42.000Z</time>
      </trkpt>
      <trkpt lat="45.53793" lon="5.98513">
        <ele>362.20001220703</ele>
        <time>2013-08-25T11:39:43.000Z</time>
      </trkpt>
      <trkpt lat="45.53796" lon="5.98507">
        <ele>362.20001220703</ele>
        <time>2013-08-25T11:39:44.000Z</time>
      </trkpt>
      <trkpt lat="45.538" lon="5.98502">
        <ele>362.39999389648</ele>
        <time>2013-08-25T11:39:45.000Z</time>
      </trkpt>
      <trkpt lat="45.53805" lon="5.98497">
        <ele>362.60000610352</ele>
        <time>2013-08-25T11:39:46.000Z</time>
      </trkpt>
      <trkpt lat="45.53821" lon="5.98477">
        <ele>364</ele>
        <time>2013-08-25T11:39:50.000Z</time>
      </trkpt>
      <trkpt lat="45.53824" lon="5.98472">
        <ele>364.20001220703</ele>
        <time>2013-08-25T11:39:51.000Z</time>
      </trkpt>
      <trkpt lat="45.53825" lon="5.98464">
        <ele>364.39999389648</ele>
        <time>2013-08-25T11:39:52.000Z</time>
      </trkpt>
      <trkpt lat="45.53826" lon="5.98456">
        <ele>364.79998779297</ele>
        <time>2013-08-25T11:39:53.000Z</time>
      </trkpt>
      <trkpt lat="45.53825" lon="5.98448">
        <ele>365</ele>
        <time>2013-08-25T11:39:54.000Z</time>
      </trkpt>
      <trkpt lat="45.53825" lon="5.98439">
        <ele>365.20001220703</ele>
        <time>2013-08-25T11:39:55.000Z</time>
      </trkpt>
      <trkpt lat="45.53824" lon="5.98423">
        <ele>365.60000610352</ele>
        <time>2013-08-25T11:39:57.000Z</time>
      </trkpt>
      <trkpt lat="45.53823" lon="5.98416">
        <ele>365.79998779297</ele>
        <time>2013-08-25T11:39:58.000Z</time>
      </trkpt>
      <trkpt lat="45.53816" lon="5.98394">
        <ele>364.79998779297</ele>
        <time>2013-08-25T11:40:05.000Z</time>
      </trkpt>
      <trkpt lat="45.53795" lon="5.98367">
        <ele>363.60000610352</ele>
        <time>2013-08-25T11:40:17.000Z</time>
      </trkpt>
      <trkpt lat="45.5377" lon="5.98354">
        <ele>362.79998779297</ele>
        <time>2013-08-25T11:40:28.000Z</time>
      </trkpt>
      <trkpt lat="45.53765" lon="5.98355">
        <ele>362.79998779297</ele>
        <time>2013-08-25T11:40:30.000Z</time>
      </trkpt>
      <trkpt lat="45.53762" lon="5.98357">
        <ele>362.79998779297</ele>
        <time>2013-08-25T11:40:32.000Z</time>
      </trkpt>
      <trkpt lat="45.53749" lon="5.98356">
        <ele>362.60000610352</ele>
        <time>2013-08-25T11:40:39.000Z</time>
      </trkpt>
      <trkpt lat="45.53743" lon="5.98354">
        <ele>362.39999389648</ele>
        <time>2013-08-25T11:40:43.000Z</time>
      </trkpt>
      <trkpt lat="45.53736" lon="5.98356">
        <ele>362.20001220703</ele>
        <time>2013-08-25T11:40:46.000Z</time>
      </trkpt>
      <trkpt lat="45.53725" lon="5.98365">
        <ele>362.20001220703</ele>
        <time>2013-08-25T11:40:51.000Z</time>
      </trkpt>
      <trkpt lat="45.53703" lon="5.98371">
        <ele>361.60000610352</ele>
        <time>2013-08-25T11:41:00.000Z</time>
      </trkpt>
      <trkpt lat="45.53678" lon="5.98372">
        <ele>360.60000610352</ele>
        <time>2013-08-25T11:41:07.000Z</time>
      </trkpt>
      <trkpt lat="45.53659" lon="5.9837">
        <ele>360</ele>
        <time>2013-08-25T11:41:11.000Z</time>
      </trkpt>
      <trkpt lat="45.53648" lon="5.98372">
        <ele>359.60000610352</ele>
        <time>2013-08-25T11:41:13.000Z</time>
      </trkpt>
      <trkpt lat="45.53644" lon="5.98375">
        <ele>359.60000610352</ele>
        <time>2013-08-25T11:41:14.000Z</time>
      </trkpt>
      <trkpt lat="45.53632" lon="5.98379">
        <ele>359.20001220703</ele>
        <time>2013-08-25T11:41:17.000Z</time>
      </trkpt>
      <trkpt lat="45.53616" lon="5.98374">
        <ele>358.60000610352</ele>
        <time>2013-08-25T11:41:21.000Z</time>
      </trkpt>
      <trkpt lat="45.53581" lon="5.98375">
        <ele>357.39999389648</ele>
        <time>2013-08-25T11:41:31.000Z</time>
      </trkpt>
      <trkpt lat="45.53576" lon="5.9838">
        <ele>357.39999389648</ele>
        <time>2013-08-25T11:41:33.000Z</time>
      </trkpt>
      <trkpt lat="45.53559" lon="5.98387">
        <ele>357.20001220703</ele>
        <time>2013-08-25T11:41:39.000Z</time>
      </trkpt>
      <trkpt lat="45.53527" lon="5.98396">
        <ele>356.79998779297</ele>
        <time>2013-08-25T11:41:49.000Z</time>
      </trkpt>
      <trkpt lat="45.53508" lon="5.98395">
        <ele>356.39999389648</ele>
        <time>2013-08-25T11:41:53.000Z</time>
      </trkpt>
      <trkpt lat="45.53498" lon="5.98392">
        <ele>356</ele>
        <time>2013-08-25T11:41:56.000Z</time>
      </trkpt>
      <trkpt lat="45.5346" lon="5.98389">
        <ele>355.79998779297</ele>
        <time>2013-08-25T11:42:06.000Z</time>
      </trkpt>
      <trkpt lat="45.53443" lon="5.98388">
        <ele>355.79998779297</ele>
        <time>2013-08-25T11:42:11.000Z</time>
      </trkpt>
      <trkpt lat="45.53435" lon="5.98386">
        <ele>355.60000610352</ele>
        <time>2013-08-25T11:42:13.000Z</time>
      </trkpt>
      <trkpt lat="45.53431" lon="5.98385">
        <ele>355.60000610352</ele>
        <time>2013-08-25T11:42:14.000Z</time>
      </trkpt>
      <trkpt lat="45.53429" lon="5.98384">
        <ele>355.39999389648</ele>
        <time>2013-08-25T11:42:15.000Z</time>
      </trkpt>
      <trkpt lat="45.53426" lon="5.98381">
        <ele>355</ele>
        <time>2013-08-25T11:42:18.000Z</time>
      </trkpt>
      <trkpt lat="45.53423" lon="5.98378">
        <ele>354.79998779297</ele>
        <time>2013-08-25T11:42:20.000Z</time>
      </trkpt>
      <trkpt lat="45.53412" lon="5.98378">
        <ele>354.60000610352</ele>
        <time>2013-08-25T11:42:26.000Z</time>
      </trkpt>
      <trkpt lat="45.53408" lon="5.98373">
        <ele>353.79998779297</ele>
        <time>2013-08-25T11:42:28.000Z</time>
      </trkpt>
      <trkpt lat="45.53412" lon="5.98359">
        <ele>352.39999389648</ele>
        <time>2013-08-25T11:42:32.000Z</time>
      </trkpt>
      <trkpt lat="45.53419" lon="5.98354">
        <ele>352.20001220703</ele>
        <time>2013-08-25T11:42:34.000Z</time>
      </trkpt>
      <trkpt lat="45.53433" lon="5.98346">
        <ele>351.79998779297</ele>
        <time>2013-08-25T11:42:38.000Z</time>
      </trkpt>
      <trkpt lat="45.53446" lon="5.98333">
        <ele>351.20001220703</ele>
        <time>2013-08-25T11:42:41.000Z</time>
      </trkpt>
      <trkpt lat="45.53455" lon="5.98321">
        <ele>350.39999389648</ele>
        <time>2013-08-25T11:42:43.000Z</time>
      </trkpt>
      <trkpt lat="45.53458" lon="5.98316">
        <ele>349.79998779297</ele>
        <time>2013-08-25T11:42:44.000Z</time>
      </trkpt>
      <trkpt lat="45.53459" lon="5.98293">
        <ele>347.20001220703</ele>
        <time>2013-08-25T11:42:46.000Z</time>
      </trkpt>
      <trkpt lat="45.53456" lon="5.98279">
        <ele>345.39999389648</ele>
        <time>2013-08-25T11:42:47.000Z</time>
      </trkpt>
      <trkpt lat="45.53454" lon="5.9827">
        <ele>344.20001220703</ele>
        <time>2013-08-25T11:42:48.000Z</time>
      </trkpt>
      <trkpt lat="45.53448" lon="5.98258">
        <ele>342.60000610352</ele>
        <time>2013-08-25T11:42:49.000Z</time>
      </trkpt>
      <trkpt lat="45.53443" lon="5.9825">
        <ele>341.60000610352</ele>
        <time>2013-08-25T11:42:50.000Z</time>
      </trkpt>
      <trkpt lat="45.53439" lon="5.98248">
        <ele>341.39999389648</ele>
        <time>2013-08-25T11:42:51.000Z</time>
      </trkpt>
      <trkpt lat="45.53435" lon="5.98246">
        <ele>341.20001220703</ele>
        <time>2013-08-25T11:42:52.000Z</time>
      </trkpt>
      <trkpt lat="45.5343" lon="5.98245">
        <ele>341.20001220703</ele>
        <time>2013-08-25T11:42:53.000Z</time>
      </trkpt>
      <trkpt lat="45.53425" lon="5.98247">
        <ele>341</ele>
        <time>2013-08-25T11:42:54.000Z</time>
      </trkpt>
      <trkpt lat="45.53399" lon="5.98259">
        <ele>342.20001220703</ele>
        <time>2013-08-25T11:42:59.000Z</time>
      </trkpt>
      <trkpt lat="45.53394" lon="5.98263">
        <ele>342.60000610352</ele>
        <time>2013-08-25T11:43:00.000Z</time>
      </trkpt>
      <trkpt lat="45.53389" lon="5.98265">
        <ele>343</ele>
        <time>2013-08-25T11:43:01.000Z</time>
      </trkpt>
      <trkpt lat="45.53384" lon="5.98267">
        <ele>343.20001220703</ele>
        <time>2013-08-25T11:43:02.000Z</time>
      </trkpt>
      <trkpt lat="45.53379" lon="5.98266">
        <ele>343.20001220703</ele>
        <time>2013-08-25T11:43:03.000Z</time>
      </trkpt>
      <trkpt lat="45.53376" lon="5.98263">
        <ele>343</ele>
        <time>2013-08-25T11:43:04.000Z</time>
      </trkpt>
      <trkpt lat="45.53376" lon="5.98257">
        <ele>342.60000610352</ele>
        <time>2013-08-25T11:43:05.000Z</time>
      </trkpt>
      <trkpt lat="45.53378" lon="5.98244">
        <ele>341.60000610352</ele>
        <time>2013-08-25T11:43:07.000Z</time>
      </trkpt>
      <trkpt lat="45.5338" lon="5.98237">
        <ele>341.39999389648</ele>
        <time>2013-08-25T11:43:08.000Z</time>
      </trkpt>
      <trkpt lat="45.53389" lon="5.98161">
        <ele>339.79998779297</ele>
        <time>2013-08-25T11:43:19.000Z</time>
      </trkpt>
      <trkpt lat="45.53391" lon="5.98155">
        <ele>339.60000610352</ele>
        <time>2013-08-25T11:43:20.000Z</time>
      </trkpt>
      <trkpt lat="45.53398" lon="5.98142">
        <ele>339.20001220703</ele>
        <time>2013-08-25T11:43:22.000Z</time>
      </trkpt>
      <trkpt lat="45.53405" lon="5.98128">
        <ele>339</ele>
        <time>2013-08-25T11:43:24.000Z</time>
      </trkpt>
      <trkpt lat="45.53409" lon="5.9812">
        <ele>338.79998779297</ele>
        <time>2013-08-25T11:43:25.000Z</time>
      </trkpt>
      <trkpt lat="45.53412" lon="5.98112">
        <ele>338.60000610352</ele>
        <time>2013-08-25T11:43:26.000Z</time>
      </trkpt>
      <trkpt lat="45.53414" lon="5.98103">
        <ele>338.39999389648</ele>
        <time>2013-08-25T11:43:27.000Z</time>
      </trkpt>
      <trkpt lat="45.53415" lon="5.98093">
        <ele>338.20001220703</ele>
        <time>2013-08-25T11:43:28.000Z</time>
      </trkpt>
      <trkpt lat="45.53415" lon="5.98083">
        <ele>337.79998779297</ele>
        <time>2013-08-25T11:43:29.000Z</time>
      </trkpt>
      <trkpt lat="45.53415" lon="5.98073">
        <ele>337.39999389648</ele>
        <time>2013-08-25T11:43:30.000Z</time>
      </trkpt>
      <trkpt lat="45.53414" lon="5.98063">
        <ele>337</ele>
        <time>2013-08-25T11:43:31.000Z</time>
      </trkpt>
      <trkpt lat="45.53411" lon="5.98041">
        <ele>336</ele>
        <time>2013-08-25T11:43:33.000Z</time>
      </trkpt>
      <trkpt lat="45.53411" lon="5.98009">
        <ele>334.39999389648</ele>
        <time>2013-08-25T11:43:36.000Z</time>
      </trkpt>
      <trkpt lat="45.5342" lon="5.97942">
        <ele>332.39999389648</ele>
        <time>2013-08-25T11:43:43.000Z</time>
      </trkpt>
      <trkpt lat="45.5342" lon="5.97933">
        <ele>332.20001220703</ele>
        <time>2013-08-25T11:43:44.000Z</time>
      </trkpt>
      <trkpt lat="45.53419" lon="5.97924">
        <ele>332</ele>
        <time>2013-08-25T11:43:45.000Z</time>
      </trkpt>
      <trkpt lat="45.53417" lon="5.97915">
        <ele>331.79998779297</ele>
        <time>2013-08-25T11:43:46.000Z</time>
      </trkpt>
      <trkpt lat="45.53415" lon="5.97906">
        <ele>331.39999389648</ele>
        <time>2013-08-25T11:43:47.000Z</time>
      </trkpt>
      <trkpt lat="45.53412" lon="5.97898">
        <ele>331.20001220703</ele>
        <time>2013-08-25T11:43:48.000Z</time>
      </trkpt>
      <trkpt lat="45.53409" lon="5.97892">
        <ele>331</ele>
        <time>2013-08-25T11:43:49.000Z</time>
      </trkpt>
      <trkpt lat="45.53405" lon="5.97885">
        <ele>330.79998779297</ele>
        <time>2013-08-25T11:43:50.000Z</time>
      </trkpt>
      <trkpt lat="45.53366" lon="5.97845">
        <ele>330.79998779297</ele>
        <time>2013-08-25T11:44:01.000Z</time>
      </trkpt>
      <trkpt lat="45.5333" lon="5.97823">
        <ele>331.39999389648</ele>
        <time>2013-08-25T11:44:08.000Z</time>
      </trkpt>
      <trkpt lat="45.53321" lon="5.97814">
        <ele>331.20001220703</ele>
        <time>2013-08-25T11:44:10.000Z</time>
      </trkpt>
      <trkpt lat="45.53317" lon="5.97809">
        <ele>331</ele>
        <time>2013-08-25T11:44:11.000Z</time>
      </trkpt>
      <trkpt lat="45.53313" lon="5.97802">
        <ele>330.60000610352</ele>
        <time>2013-08-25T11:44:12.000Z</time>
      </trkpt>
      <trkpt lat="45.5331" lon="5.97795">
        <ele>330.39999389648</ele>
        <time>2013-08-25T11:44:13.000Z</time>
      </trkpt>
      <trkpt lat="45.53307" lon="5.97788">
        <ele>330</ele>
        <time>2013-08-25T11:44:14.000Z</time>
      </trkpt>
      <trkpt lat="45.53302" lon="5.97774">
        <ele>329.39999389648</ele>
        <time>2013-08-25T11:44:16.000Z</time>
      </trkpt>
      <trkpt lat="45.53298" lon="5.97759">
        <ele>328.79998779297</ele>
        <time>2013-08-25T11:44:18.000Z</time>
      </trkpt>
      <trkpt lat="45.53296" lon="5.97753">
        <ele>328.60000610352</ele>
        <time>2013-08-25T11:44:19.000Z</time>
      </trkpt>
      <trkpt lat="45.53293" lon="5.97748">
        <ele>328.20001220703</ele>
        <time>2013-08-25T11:44:20.000Z</time>
      </trkpt>
      <trkpt lat="45.53291" lon="5.97744">
        <ele>328</ele>
        <time>2013-08-25T11:44:21.000Z</time>
      </trkpt>
      <trkpt lat="45.53288" lon="5.97741">
        <ele>328</ele>
        <time>2013-08-25T11:44:22.000Z</time>
      </trkpt>
      <trkpt lat="45.53273" lon="5.97738">
        <ele>328</ele>
        <time>2013-08-25T11:44:26.000Z</time>
      </trkpt>
      <trkpt lat="45.53267" lon="5.97736">
        <ele>328</ele>
        <time>2013-08-25T11:44:27.000Z</time>
      </trkpt>
      <trkpt lat="45.5326" lon="5.97731">
        <ele>327.79998779297</ele>
        <time>2013-08-25T11:44:28.000Z</time>
      </trkpt>
      <trkpt lat="45.53255" lon="5.97725">
        <ele>327.60000610352</ele>
        <time>2013-08-25T11:44:29.000Z</time>
      </trkpt>
      <trkpt lat="45.53251" lon="5.97719">
        <ele>327.39999389648</ele>
        <time>2013-08-25T11:44:30.000Z</time>
      </trkpt>
      <trkpt lat="45.53247" lon="5.97713">
        <ele>327</ele>
        <time>2013-08-25T11:44:31.000Z</time>
      </trkpt>
      <trkpt lat="45.53244" lon="5.97706">
        <ele>326.79998779297</ele>
        <time>2013-08-25T11:44:32.000Z</time>
      </trkpt>
      <trkpt lat="45.5324" lon="5.977">
        <ele>326.39999389648</ele>
        <time>2013-08-25T11:44:33.000Z</time>
      </trkpt>
      <trkpt lat="45.53219" lon="5.97617">
        <ele>325.39999389648</ele>
        <time>2013-08-25T11:44:45.000Z</time>
      </trkpt>
      <trkpt lat="45.53212" lon="5.97578">
        <ele>325.79998779297</ele>
        <time>2013-08-25T11:44:51.000Z</time>
      </trkpt>
      <trkpt lat="45.53211" lon="5.97572">
        <ele>326</ele>
        <time>2013-08-25T11:44:52.000Z</time>
      </trkpt>
      <trkpt lat="45.53196" lon="5.97513">
        <ele>328</ele>
        <time>2013-08-25T11:45:04.000Z</time>
      </trkpt>
      <trkpt lat="45.53198" lon="5.9751">
        <ele>328</ele>
        <time>2013-08-25T11:45:05.000Z</time>
      </trkpt>
      <trkpt lat="45.53199" lon="5.97507">
        <ele>328</ele>
        <time>2013-08-25T11:45:06.000Z</time>
      </trkpt>
      <trkpt lat="45.53201" lon="5.97504">
        <ele>328</ele>
        <time>2013-08-25T11:45:07.000Z</time>
      </trkpt>
      <trkpt lat="45.53203" lon="5.97502">
        <ele>328</ele>
        <time>2013-08-25T11:45:08.000Z</time>
      </trkpt>
      <trkpt lat="45.53206" lon="5.97499">
        <ele>327.79998779297</ele>
        <time>2013-08-25T11:45:09.000Z</time>
      </trkpt>
      <trkpt lat="45.53209" lon="5.97496">
        <ele>327.60000610352</ele>
        <time>2013-08-25T11:45:10.000Z</time>
      </trkpt>
      <trkpt lat="45.53212" lon="5.97494">
        <ele>327.39999389648</ele>
        <time>2013-08-25T11:45:11.000Z</time>
      </trkpt>
      <trkpt lat="45.53251" lon="5.97468">
        <ele>326.39999389648</ele>
        <time>2013-08-25T11:45:24.000Z</time>
      </trkpt>
      <trkpt lat="45.53259" lon="5.97463">
        <ele>326.39999389648</ele>
        <time>2013-08-25T11:45:26.000Z</time>
      </trkpt>
      <trkpt lat="45.53299" lon="5.97446">
        <ele>326.20001220703</ele>
        <time>2013-08-25T11:45:35.000Z</time>
      </trkpt>
      <trkpt lat="45.53334" lon="5.97435">
        <ele>326.79998779297</ele>
        <time>2013-08-25T11:45:42.000Z</time>
      </trkpt>
      <trkpt lat="45.53376" lon="5.97419">
        <ele>328.20001220703</ele>
        <time>2013-08-25T11:45:51.000Z</time>
      </trkpt>
      <trkpt lat="45.53417" lon="5.97398">
        <ele>329.39999389648</ele>
        <time>2013-08-25T11:46:03.000Z</time>
      </trkpt>
      <trkpt lat="45.53445" lon="5.97353">
        <ele>329.39999389648</ele>
        <time>2013-08-25T11:46:15.000Z</time>
      </trkpt>
      <trkpt lat="45.53489" lon="5.97302">
        <ele>329.60000610352</ele>
        <time>2013-08-25T11:46:29.000Z</time>
      </trkpt>
      <trkpt lat="45.53559" lon="5.97244">
        <ele>330</ele>
        <time>2013-08-25T11:46:46.000Z</time>
      </trkpt>
      <trkpt lat="45.53582" lon="5.97234">
        <ele>329.39999389648</ele>
        <time>2013-08-25T11:46:51.000Z</time>
      </trkpt>
      <trkpt lat="45.53586" lon="5.97235">
        <ele>329.20001220703</ele>
        <time>2013-08-25T11:46:52.000Z</time>
      </trkpt>
      <trkpt lat="45.53591" lon="5.97235">
        <ele>329.20001220703</ele>
        <time>2013-08-25T11:46:53.000Z</time>
      </trkpt>
      <trkpt lat="45.53596" lon="5.97234">
        <ele>329</ele>
        <time>2013-08-25T11:46:54.000Z</time>
      </trkpt>
      <trkpt lat="45.53601" lon="5.97234">
        <ele>328.79998779297</ele>
        <time>2013-08-25T11:46:55.000Z</time>
      </trkpt>
      <trkpt lat="45.53606" lon="5.97232">
        <ele>328.60000610352</ele>
        <time>2013-08-25T11:46:56.000Z</time>
      </trkpt>
      <trkpt lat="45.53611" lon="5.9723">
        <ele>328.39999389648</ele>
        <time>2013-08-25T11:46:57.000Z</time>
      </trkpt>
      <trkpt lat="45.53656" lon="5.97207">
        <ele>327</ele>
        <time>2013-08-25T11:47:06.000Z</time>
      </trkpt>
      <trkpt lat="45.53687" lon="5.97186">
        <ele>326.39999389648</ele>
        <time>2013-08-25T11:47:12.000Z</time>
      </trkpt>
      <trkpt lat="45.53709" lon="5.97177">
        <ele>326</ele>
        <time>2013-08-25T11:47:16.000Z</time>
      </trkpt>
      <trkpt lat="45.53715" lon="5.97176">
        <ele>326</ele>
        <time>2013-08-25T11:47:17.000Z</time>
      </trkpt>
      <trkpt lat="45.53721" lon="5.97175">
        <ele>325.79998779297</ele>
        <time>2013-08-25T11:47:18.000Z</time>
      </trkpt>
      <trkpt lat="45.53733" lon="5.97172">
        <ele>325.79998779297</ele>
        <time>2013-08-25T11:47:20.000Z</time>
      </trkpt>
      <trkpt lat="45.53752" lon="5.97162">
        <ele>325.60000610352</ele>
        <time>2013-08-25T11:47:23.000Z</time>
      </trkpt>
      <trkpt lat="45.53781" lon="5.97144">
        <ele>323.60000610352</ele>
        <time>2013-08-25T11:47:28.000Z</time>
      </trkpt>
      <trkpt lat="45.53787" lon="5.97143">
        <ele>323.39999389648</ele>
        <time>2013-08-25T11:47:29.000Z</time>
      </trkpt>
      <trkpt lat="45.53794" lon="5.97142">
        <ele>323</ele>
        <time>2013-08-25T11:47:30.000Z</time>
      </trkpt>
      <trkpt lat="45.5382" lon="5.9714">
        <ele>321.79998779297</ele>
        <time>2013-08-25T11:47:34.000Z</time>
      </trkpt>
      <trkpt lat="45.53867" lon="5.9713">
        <ele>320.79998779297</ele>
        <time>2013-08-25T11:47:41.000Z</time>
      </trkpt>
      <trkpt lat="45.53909" lon="5.9712">
        <ele>320.20001220703</ele>
        <time>2013-08-25T11:47:47.000Z</time>
      </trkpt>
      <trkpt lat="45.53994" lon="5.9708">
        <ele>320</ele>
        <time>2013-08-25T11:48:01.000Z</time>
      </trkpt>
      <trkpt lat="45.54011" lon="5.97066">
        <ele>319.39999389648</ele>
        <time>2013-08-25T11:48:04.000Z</time>
      </trkpt>
      <trkpt lat="45.54017" lon="5.97064">
        <ele>319</ele>
        <time>2013-08-25T11:48:05.000Z</time>
      </trkpt>
      <trkpt lat="45.54023" lon="5.97063">
        <ele>318.79998779297</ele>
        <time>2013-08-25T11:48:06.000Z</time>
      </trkpt>
      <trkpt lat="45.5403" lon="5.97063">
        <ele>318.60000610352</ele>
        <time>2013-08-25T11:48:07.000Z</time>
      </trkpt>
      <trkpt lat="45.54036" lon="5.97065">
        <ele>318.39999389648</ele>
        <time>2013-08-25T11:48:08.000Z</time>
      </trkpt>
      <trkpt lat="45.54042" lon="5.97066">
        <ele>318.20001220703</ele>
        <time>2013-08-25T11:48:09.000Z</time>
      </trkpt>
      <trkpt lat="45.54049" lon="5.97069">
        <ele>317.79998779297</ele>
        <time>2013-08-25T11:48:10.000Z</time>
      </trkpt>
      <trkpt lat="45.54055" lon="5.97072">
        <ele>317.60000610352</ele>
        <time>2013-08-25T11:48:11.000Z</time>
      </trkpt>
      <trkpt lat="45.54079" lon="5.97081">
        <ele>316.20001220703</ele>
        <time>2013-08-25T11:48:15.000Z</time>
      </trkpt>
      <trkpt lat="45.54096" lon="5.97084">
        <ele>315.79998779297</ele>
        <time>2013-08-25T11:48:18.000Z</time>
      </trkpt>
      <trkpt lat="45.541" lon="5.97084">
        <ele>315.79998779297</ele>
        <time>2013-08-25T11:48:19.000Z</time>
      </trkpt>
      <trkpt lat="45.54104" lon="5.97084">
        <ele>315.79998779297</ele>
        <time>2013-08-25T11:48:20.000Z</time>
      </trkpt>
      <trkpt lat="45.54106" lon="5.97083">
        <ele>316</ele>
        <time>2013-08-25T11:48:21.000Z</time>
      </trkpt>
      <trkpt lat="45.54109" lon="5.9708">
        <ele>316</ele>
        <time>2013-08-25T11:48:22.000Z</time>
      </trkpt>
      <trkpt lat="45.54111" lon="5.97077">
        <ele>316.20001220703</ele>
        <time>2013-08-25T11:48:23.000Z</time>
      </trkpt>
      <trkpt lat="45.54115" lon="5.97074">
        <ele>316.20001220703</ele>
        <time>2013-08-25T11:48:24.000Z</time>
      </trkpt>
      <trkpt lat="45.54151" lon="5.97043">
        <ele>317</ele>
        <time>2013-08-25T11:48:35.000Z</time>
      </trkpt>
      <trkpt lat="45.54168" lon="5.97031">
        <ele>317.20001220703</ele>
        <time>2013-08-25T11:48:39.000Z</time>
      </trkpt>
      <trkpt lat="45.54172" lon="5.97027">
        <ele>317.20001220703</ele>
        <time>2013-08-25T11:48:40.000Z</time>
      </trkpt>
      <trkpt lat="45.54204" lon="5.96995">
        <ele>317.60000610352</ele>
        <time>2013-08-25T11:48:52.000Z</time>
      </trkpt>
      <trkpt lat="45.54206" lon="5.96996">
        <ele>317.39999389648</ele>
        <time>2013-08-25T11:48:53.000Z</time>
      </trkpt>
      <trkpt lat="45.54242" lon="5.97025">
        <ele>317</ele>
        <time>2013-08-25T11:49:04.000Z</time>
      </trkpt>
      <trkpt lat="45.54274" lon="5.97038">
        <ele>316.39999389648</ele>
        <time>2013-08-25T11:49:12.000Z</time>
      </trkpt>
      <trkpt lat="45.54278" lon="5.97037">
        <ele>316.39999389648</ele>
        <time>2013-08-25T11:49:13.000Z</time>
      </trkpt>
      <trkpt lat="45.54315" lon="5.96993">
        <ele>316</ele>
        <time>2013-08-25T11:49:24.000Z</time>
      </trkpt>
      <trkpt lat="45.54337" lon="5.96974">
        <ele>315.60000610352</ele>
        <time>2013-08-25T11:49:29.000Z</time>
      </trkpt>
      <trkpt lat="45.54342" lon="5.96971">
        <ele>315.60000610352</ele>
        <time>2013-08-25T11:49:30.000Z</time>
      </trkpt>
      <trkpt lat="45.54346" lon="5.96967">
        <ele>315.60000610352</ele>
        <time>2013-08-25T11:49:31.000Z</time>
      </trkpt>
      <trkpt lat="45.54367" lon="5.96951">
        <ele>315.79998779297</ele>
        <time>2013-08-25T11:49:36.000Z</time>
      </trkpt>
      <trkpt lat="45.54416" lon="5.96915">
        <ele>316.79998779297</ele>
        <time>2013-08-25T11:49:48.000Z</time>
      </trkpt>
      <trkpt lat="45.5448" lon="5.96885">
        <ele>315.60000610352</ele>
        <time>2013-08-25T11:50:01.000Z</time>
      </trkpt>
      <trkpt lat="45.54552" lon="5.96861">
        <ele>314.39999389648</ele>
        <time>2013-08-25T11:50:14.000Z</time>
      </trkpt>
      <trkpt lat="45.5458" lon="5.96849">
        <ele>314</ele>
        <time>2013-08-25T11:50:19.000Z</time>
      </trkpt>
      <trkpt lat="45.54618" lon="5.9682">
        <ele>313.39999389648</ele>
        <time>2013-08-25T11:50:27.000Z</time>
      </trkpt>
      <trkpt lat="45.54621" lon="5.96815">
        <ele>313.39999389648</ele>
        <time>2013-08-25T11:50:28.000Z</time>
      </trkpt>
      <trkpt lat="45.54624" lon="5.9681">
        <ele>313.20001220703</ele>
        <time>2013-08-25T11:50:29.000Z</time>
      </trkpt>
      <trkpt lat="45.54653" lon="5.96749">
        <ele>312.79998779297</ele>
        <time>2013-08-25T11:50:39.000Z</time>
      </trkpt>
      <trkpt lat="45.54666" lon="5.96735">
        <ele>312.79998779297</ele>
        <time>2013-08-25T11:50:42.000Z</time>
      </trkpt>
      <trkpt lat="45.54687" lon="5.96719">
        <ele>312.20001220703</ele>
        <time>2013-08-25T11:50:51.000Z</time>
      </trkpt>
      <trkpt lat="45.54688" lon="5.96719">
        <ele>312.20001220703</ele>
        <time>2013-08-25T11:50:52.000Z</time>
      </trkpt>
      <trkpt lat="45.5469" lon="5.96719">
        <ele>312.20001220703</ele>
        <time>2013-08-25T11:50:53.000Z</time>
      </trkpt>
      <trkpt lat="45.54693" lon="5.96718">
        <ele>312.20001220703</ele>
        <time>2013-08-25T11:50:54.000Z</time>
      </trkpt>
      <trkpt lat="45.54696" lon="5.96717">
        <ele>312</ele>
        <time>2013-08-25T11:50:55.000Z</time>
      </trkpt>
      <trkpt lat="45.54714" lon="5.96708">
        <ele>311.79998779297</ele>
        <time>2013-08-25T11:50:59.000Z</time>
      </trkpt>
      <trkpt lat="45.54773" lon="5.96674">
        <ele>311.20001220703</ele>
        <time>2013-08-25T11:51:11.000Z</time>
      </trkpt>
      <trkpt lat="45.54779" lon="5.9667">
        <ele>311.20001220703</ele>
        <time>2013-08-25T11:51:12.000Z</time>
      </trkpt>
      <trkpt lat="45.54794" lon="5.96661">
        <ele>310.79998779297</ele>
        <time>2013-08-25T11:51:15.000Z</time>
      </trkpt>
      <trkpt lat="45.548" lon="5.96657">
        <ele>310.60000610352</ele>
        <time>2013-08-25T11:51:16.000Z</time>
      </trkpt>
      <trkpt lat="45.54888" lon="5.96605">
        <ele>307</ele>
        <time>2013-08-25T11:51:30.000Z</time>
      </trkpt>
      <trkpt lat="45.5495" lon="5.96562">
        <ele>305.20001220703</ele>
        <time>2013-08-25T11:51:39.000Z</time>
      </trkpt>
      <trkpt lat="45.55037" lon="5.96509">
        <ele>303.20001220703</ele>
        <time>2013-08-25T11:51:52.000Z</time>
      </trkpt>
      <trkpt lat="45.55075" lon="5.96489">
        <ele>301.79998779297</ele>
        <time>2013-08-25T11:51:58.000Z</time>
      </trkpt>
      <trkpt lat="45.55121" lon="5.96473">
        <ele>301</ele>
        <time>2013-08-25T11:52:05.000Z</time>
      </trkpt>
      <trkpt lat="45.55231" lon="5.96434">
        <ele>301.20001220703</ele>
        <time>2013-08-25T11:52:20.000Z</time>
      </trkpt>
      <trkpt lat="45.55263" lon="5.96416">
        <ele>301.60000610352</ele>
        <time>2013-08-25T11:52:26.000Z</time>
      </trkpt>
      <trkpt lat="45.55276" lon="5.96393">
        <ele>300.39999389648</ele>
        <time>2013-08-25T11:52:35.000Z</time>
      </trkpt>
      <trkpt lat="45.55305" lon="5.96328">
        <ele>297.60000610352</ele>
        <time>2013-08-25T11:52:44.000Z</time>
      </trkpt>
      <trkpt lat="45.55342" lon="5.96292">
        <ele>294.79998779297</ele>
        <time>2013-08-25T11:52:51.000Z</time>
      </trkpt>
      <trkpt lat="45.55347" lon="5.96288">
        <ele>294.60000610352</ele>
        <time>2013-08-25T11:52:52.000Z</time>
      </trkpt>
      <trkpt lat="45.55353" lon="5.96284">
        <ele>294.39999389648</ele>
        <time>2013-08-25T11:52:53.000Z</time>
      </trkpt>
      <trkpt lat="45.55406" lon="5.96274">
        <ele>293.60000610352</ele>
        <time>2013-08-25T11:53:01.000Z</time>
      </trkpt>
      <trkpt lat="45.55473" lon="5.96265">
        <ele>293.20001220703</ele>
        <time>2013-08-25T11:53:13.000Z</time>
      </trkpt>
      <trkpt lat="45.55479" lon="5.96262">
        <ele>293.20001220703</ele>
        <time>2013-08-25T11:53:14.000Z</time>
      </trkpt>
      <trkpt lat="45.55484" lon="5.9626">
        <ele>293.20001220703</ele>
        <time>2013-08-25T11:53:15.000Z</time>
      </trkpt>
      <trkpt lat="45.55489" lon="5.96256">
        <ele>293</ele>
        <time>2013-08-25T11:53:16.000Z</time>
      </trkpt>
      <trkpt lat="45.55493" lon="5.96252">
        <ele>292.79998779297</ele>
        <time>2013-08-25T11:53:17.000Z</time>
      </trkpt>
      <trkpt lat="45.55498" lon="5.96248">
        <ele>292.79998779297</ele>
        <time>2013-08-25T11:53:18.000Z</time>
      </trkpt>
      <trkpt lat="45.55568" lon="5.96205">
        <ele>291.79998779297</ele>
        <time>2013-08-25T11:53:31.000Z</time>
      </trkpt>
      <trkpt lat="45.55573" lon="5.96204">
        <ele>292</ele>
        <time>2013-08-25T11:53:32.000Z</time>
      </trkpt>
      <trkpt lat="45.55577" lon="5.96203">
        <ele>292</ele>
        <time>2013-08-25T11:53:33.000Z</time>
      </trkpt>
      <trkpt lat="45.5563" lon="5.96196">
        <ele>290.79998779297</ele>
        <time>2013-08-25T11:53:46.000Z</time>
      </trkpt>
      <trkpt lat="45.55635" lon="5.96196">
        <ele>290.60000610352</ele>
        <time>2013-08-25T11:53:47.000Z</time>
      </trkpt>
      <trkpt lat="45.55649" lon="5.96198">
        <ele>290.39999389648</ele>
        <time>2013-08-25T11:53:50.000Z</time>
      </trkpt>
      <trkpt lat="45.55653" lon="5.962">
        <ele>290.39999389648</ele>
        <time>2013-08-25T11:53:51.000Z</time>
      </trkpt>
      <trkpt lat="45.55656" lon="5.96201">
        <ele>290.39999389648</ele>
        <time>2013-08-25T11:53:52.000Z</time>
      </trkpt>
      <trkpt lat="45.55659" lon="5.96203">
        <ele>290.39999389648</ele>
        <time>2013-08-25T11:53:53.000Z</time>
      </trkpt>
      <trkpt lat="45.55661" lon="5.96204">
        <ele>290.39999389648</ele>
        <time>2013-08-25T11:53:54.000Z</time>
      </trkpt>
      <trkpt lat="45.55676" lon="5.96206">
        <ele>290.39999389648</ele>
        <time>2013-08-25T11:54:01.000Z</time>
      </trkpt>
      <trkpt lat="45.55681" lon="5.96203">
        <ele>290.39999389648</ele>
        <time>2013-08-25T11:54:02.000Z</time>
      </trkpt>
      <trkpt lat="45.55685" lon="5.96198">
        <ele>290.20001220703</ele>
        <time>2013-08-25T11:54:03.000Z</time>
      </trkpt>
      <trkpt lat="45.55692" lon="5.96187">
        <ele>289.79998779297</ele>
        <time>2013-08-25T11:54:05.000Z</time>
      </trkpt>
      <trkpt lat="45.55742" lon="5.96088">
        <ele>289.79998779297</ele>
        <time>2013-08-25T11:54:19.000Z</time>
      </trkpt>
      <trkpt lat="45.55782" lon="5.95977">
        <ele>290</ele>
        <time>2013-08-25T11:54:34.000Z</time>
      </trkpt>
      <trkpt lat="45.55811" lon="5.95885">
        <ele>290</ele>
        <time>2013-08-25T11:54:48.000Z</time>
      </trkpt>
      <trkpt lat="45.55822" lon="5.95844">
        <ele>289.79998779297</ele>
        <time>2013-08-25T11:55:02.000Z</time>
      </trkpt>
      <trkpt lat="45.55823" lon="5.9584">
        <ele>289.79998779297</ele>
        <time>2013-08-25T11:55:17.000Z</time>
      </trkpt>
      <trkpt lat="45.55824" lon="5.95838">
        <ele>289.79998779297</ele>
        <time>2013-08-25T11:55:18.000Z</time>
      </trkpt>
      <trkpt lat="45.55826" lon="5.95836">
        <ele>289.79998779297</ele>
        <time>2013-08-25T11:55:19.000Z</time>
      </trkpt>
      <trkpt lat="45.55827" lon="5.95834">
        <ele>289.79998779297</ele>
        <time>2013-08-25T11:55:20.000Z</time>
      </trkpt>
      <trkpt lat="45.5583" lon="5.95832">
        <ele>290</ele>
        <time>2013-08-25T11:55:21.000Z</time>
      </trkpt>
      <trkpt lat="45.55831" lon="5.95828">
        <ele>290.20001220703</ele>
        <time>2013-08-25T11:55:22.000Z</time>
      </trkpt>
      <trkpt lat="45.55832" lon="5.95825">
        <ele>290.39999389648</ele>
        <time>2013-08-25T11:55:23.000Z</time>
      </trkpt>
      <trkpt lat="45.55833" lon="5.95821">
        <ele>290.60000610352</ele>
        <time>2013-08-25T11:55:24.000Z</time>
      </trkpt>
      <trkpt lat="45.55835" lon="5.95821">
        <ele>290.60000610352</ele>
        <time>2013-08-25T11:55:25.000Z</time>
      </trkpt>
      <trkpt lat="45.55837" lon="5.95822">
        <ele>290.60000610352</ele>
        <time>2013-08-25T11:55:26.000Z</time>
      </trkpt>
      <trkpt lat="45.55844" lon="5.95826">
        <ele>290.60000610352</ele>
        <time>2013-08-25T11:55:29.000Z</time>
      </trkpt>
      <trkpt lat="45.55852" lon="5.95832">
        <ele>290.39999389648</ele>
        <time>2013-08-25T11:55:31.000Z</time>
      </trkpt>
      <trkpt lat="45.55905" lon="5.95898">
        <ele>291</ele>
        <time>2013-08-25T11:55:45.000Z</time>
      </trkpt>
      <trkpt lat="45.55918" lon="5.9591">
        <ele>291</ele>
        <time>2013-08-25T11:55:48.000Z</time>
      </trkpt>
      <trkpt lat="45.55988" lon="5.95952">
        <ele>291</ele>
        <time>2013-08-25T11:56:03.000Z</time>
      </trkpt>
      <trkpt lat="45.56038" lon="5.95964">
        <ele>291.60000610352</ele>
        <time>2013-08-25T11:56:15.000Z</time>
      </trkpt>
      <trkpt lat="45.56047" lon="5.9596">
        <ele>292</ele>
        <time>2013-08-25T11:56:18.000Z</time>
      </trkpt>
      <trkpt lat="45.5605" lon="5.95964">
        <ele>291.79998779297</ele>
        <time>2013-08-25T11:56:19.000Z</time>
      </trkpt>
      <trkpt lat="45.5606" lon="5.9598">
        <ele>291</ele>
        <time>2013-08-25T11:56:23.000Z</time>
      </trkpt>
      <trkpt lat="45.56062" lon="5.95986">
        <ele>290.79998779297</ele>
        <time>2013-08-25T11:56:24.000Z</time>
      </trkpt>
      <trkpt lat="45.56064" lon="5.95992">
        <ele>290.39999389648</ele>
        <time>2013-08-25T11:56:25.000Z</time>
      </trkpt>
      <trkpt lat="45.56065" lon="5.95998">
        <ele>290</ele>
        <time>2013-08-25T11:56:26.000Z</time>
      </trkpt>
      <trkpt lat="45.56066" lon="5.96004">
        <ele>290</ele>
        <time>2013-08-25T11:56:27.000Z</time>
      </trkpt>
      <trkpt lat="45.56066" lon="5.96011">
        <ele>290</ele>
        <time>2013-08-25T11:56:28.000Z</time>
      </trkpt>
      <trkpt lat="45.56067" lon="5.96017">
        <ele>290</ele>
        <time>2013-08-25T11:56:29.000Z</time>
      </trkpt>
      <trkpt lat="45.56069" lon="5.96023">
        <ele>290</ele>
        <time>2013-08-25T11:56:30.000Z</time>
      </trkpt>
      <trkpt lat="45.56071" lon="5.96028">
        <ele>290</ele>
        <time>2013-08-25T11:56:31.000Z</time>
      </trkpt>
      <trkpt lat="45.56074" lon="5.96032">
        <ele>290</ele>
        <time>2013-08-25T11:56:32.000Z</time>
      </trkpt>
      <trkpt lat="45.56078" lon="5.96035">
        <ele>290</ele>
        <time>2013-08-25T11:56:33.000Z</time>
      </trkpt>
      <trkpt lat="45.56119" lon="5.96068">
        <ele>291</ele>
        <time>2013-08-25T11:56:42.000Z</time>
      </trkpt>
      <trkpt lat="45.56125" lon="5.9607">
        <ele>291</ele>
        <time>2013-08-25T11:56:43.000Z</time>
      </trkpt>
      <trkpt lat="45.5613" lon="5.96072">
        <ele>291.20001220703</ele>
        <time>2013-08-25T11:56:44.000Z</time>
      </trkpt>
      <trkpt lat="45.56135" lon="5.96073">
        <ele>291.39999389648</ele>
        <time>2013-08-25T11:56:45.000Z</time>
      </trkpt>
      <trkpt lat="45.56141" lon="5.96073">
        <ele>291.39999389648</ele>
        <time>2013-08-25T11:56:46.000Z</time>
      </trkpt>
      <trkpt lat="45.56147" lon="5.96075">
        <ele>291.60000610352</ele>
        <time>2013-08-25T11:56:47.000Z</time>
      </trkpt>
      <trkpt lat="45.56152" lon="5.96079">
        <ele>291.60000610352</ele>
        <time>2013-08-25T11:56:48.000Z</time>
      </trkpt>
      <trkpt lat="45.56157" lon="5.96082">
        <ele>291.60000610352</ele>
        <time>2013-08-25T11:56:49.000Z</time>
      </trkpt>
      <trkpt lat="45.56218" lon="5.96138">
        <ele>294.20001220703</ele>
        <time>2013-08-25T11:57:02.000Z</time>
      </trkpt>
      <trkpt lat="45.56261" lon="5.96215">
        <ele>296.39999389648</ele>
        <time>2013-08-25T11:57:15.000Z</time>
      </trkpt>
      <trkpt lat="45.56264" lon="5.96228">
        <ele>296.79998779297</ele>
        <time>2013-08-25T11:57:20.000Z</time>
      </trkpt>
      <trkpt lat="45.56261" lon="5.9623">
        <ele>296.39999389648</ele>
        <time>2013-08-25T11:57:21.000Z</time>
      </trkpt>
      <trkpt lat="45.56259" lon="5.9623">
        <ele>296</ele>
        <time>2013-08-25T11:57:22.000Z</time>
      </trkpt>
      <trkpt lat="45.56256" lon="5.96228">
        <ele>295.79998779297</ele>
        <time>2013-08-25T11:57:23.000Z</time>
      </trkpt>
      <trkpt lat="45.56254" lon="5.96225">
        <ele>295.39999389648</ele>
        <time>2013-08-25T11:57:24.000Z</time>
      </trkpt>
      <trkpt lat="45.56253" lon="5.96223">
        <ele>295.20001220703</ele>
        <time>2013-08-25T11:57:25.000Z</time>
      </trkpt>
      <trkpt lat="45.56251" lon="5.96221">
        <ele>295</ele>
        <time>2013-08-25T11:57:26.000Z</time>
      </trkpt>
      <trkpt lat="45.5625" lon="5.96219">
        <ele>295</ele>
        <time>2013-08-25T11:57:27.000Z</time>
      </trkpt>
      <trkpt lat="45.56248" lon="5.96219">
        <ele>294.79998779297</ele>
        <time>2013-08-25T11:57:28.000Z</time>
      </trkpt>
      <trkpt lat="45.56247" lon="5.96222">
        <ele>294.79998779297</ele>
        <time>2013-08-25T11:57:29.000Z</time>
      </trkpt>
      <trkpt lat="45.56239" lon="5.96249">
        <ele>294.39999389648</ele>
        <time>2013-08-25T11:57:35.000Z</time>
      </trkpt>
      <trkpt lat="45.56236" lon="5.96254">
        <ele>294.20001220703</ele>
        <time>2013-08-25T11:57:36.000Z</time>
      </trkpt>
      <trkpt lat="45.56232" lon="5.96257">
        <ele>294</ele>
        <time>2013-08-25T11:57:37.000Z</time>
      </trkpt>
      <trkpt lat="45.56207" lon="5.96271">
        <ele>293.20001220703</ele>
        <time>2013-08-25T11:57:42.000Z</time>
      </trkpt>
      <trkpt lat="45.56203" lon="5.96276">
        <ele>293.20001220703</ele>
        <time>2013-08-25T11:57:43.000Z</time>
      </trkpt>
      <trkpt lat="45.562" lon="5.96282">
        <ele>293.20001220703</ele>
        <time>2013-08-25T11:57:44.000Z</time>
      </trkpt>
      <trkpt lat="45.56197" lon="5.96288">
        <ele>293.20001220703</ele>
        <time>2013-08-25T11:57:45.000Z</time>
      </trkpt>
      <trkpt lat="45.56195" lon="5.96295">
        <ele>293.39999389648</ele>
        <time>2013-08-25T11:57:46.000Z</time>
      </trkpt>
      <trkpt lat="45.56193" lon="5.96302">
        <ele>293.39999389648</ele>
        <time>2013-08-25T11:57:47.000Z</time>
      </trkpt>
      <trkpt lat="45.56192" lon="5.9631">
        <ele>293.60000610352</ele>
        <time>2013-08-25T11:57:48.000Z</time>
      </trkpt>
      <trkpt lat="45.56171" lon="5.96432">
        <ele>293.39999389648</ele>
        <time>2013-08-25T11:58:03.000Z</time>
      </trkpt>
      <trkpt lat="45.56159" lon="5.9654">
        <ele>291.60000610352</ele>
        <time>2013-08-25T11:58:18.000Z</time>
      </trkpt>
      <trkpt lat="45.56165" lon="5.96594">
        <ele>291.79998779297</ele>
        <time>2013-08-25T11:58:28.000Z</time>
      </trkpt>
      <trkpt lat="45.56163" lon="5.96597">
        <ele>291.79998779297</ele>
        <time>2013-08-25T11:58:29.000Z</time>
      </trkpt>
      <trkpt lat="45.5616" lon="5.96599">
        <ele>291.60000610352</ele>
        <time>2013-08-25T11:58:30.000Z</time>
      </trkpt>
      <trkpt lat="45.56115" lon="5.96628">
        <ele>290.60000610352</ele>
        <time>2013-08-25T11:58:46.000Z</time>
      </trkpt>
      <trkpt lat="45.56111" lon="5.96632">
        <ele>290.60000610352</ele>
        <time>2013-08-25T11:58:50.000Z</time>
      </trkpt>
      <trkpt lat="45.5611" lon="5.96636">
        <ele>290.79998779297</ele>
        <time>2013-08-25T11:59:07.000Z</time>
      </trkpt>
      <trkpt lat="45.56107" lon="5.96643">
        <ele>290.79998779297</ele>
        <time>2013-08-25T11:59:20.000Z</time>
      </trkpt>
      <trkpt lat="45.56106" lon="5.96644">
        <ele>290.79998779297</ele>
        <time>2013-08-25T11:59:25.000Z</time>
      </trkpt>
      <trkpt lat="45.56103" lon="5.96639">
        <ele>290.60000610352</ele>
        <time>2013-08-25T11:59:28.000Z</time>
      </trkpt>
      <trkpt lat="45.5611" lon="5.96629">
        <ele>290.60000610352</ele>
        <time>2013-08-25T11:59:32.000Z</time>
      </trkpt>
      <trkpt lat="45.56139" lon="5.96611">
        <ele>291.20001220703</ele>
        <time>2013-08-25T11:59:41.000Z</time>
      </trkpt>
      <trkpt lat="45.56163" lon="5.96592">
        <ele>291.79998779297</ele>
        <time>2013-08-25T11:59:48.000Z</time>
      </trkpt>
      <trkpt lat="45.56165" lon="5.9657">
        <ele>291.79998779297</ele>
        <time>2013-08-25T11:59:52.000Z</time>
      </trkpt>
      <trkpt lat="45.56167" lon="5.96563">
        <ele>292</ele>
        <time>2013-08-25T11:59:53.000Z</time>
      </trkpt>
      <trkpt lat="45.5617" lon="5.96559">
        <ele>292</ele>
        <time>2013-08-25T11:59:54.000Z</time>
      </trkpt>
      <trkpt lat="45.56173" lon="5.96555">
        <ele>291.79998779297</ele>
        <time>2013-08-25T11:59:55.000Z</time>
      </trkpt>
      <trkpt lat="45.56176" lon="5.96552">
        <ele>291.79998779297</ele>
        <time>2013-08-25T11:59:56.000Z</time>
      </trkpt>
      <trkpt lat="45.5618" lon="5.96549">
        <ele>291.79998779297</ele>
        <time>2013-08-25T11:59:57.000Z</time>
      </trkpt>
      <trkpt lat="45.56215" lon="5.96534">
        <ele>291.39999389648</ele>
        <time>2013-08-25T12:00:05.000Z</time>
      </trkpt>
      <trkpt lat="45.56224" lon="5.96535">
        <ele>291.39999389648</ele>
        <time>2013-08-25T12:00:07.000Z</time>
      </trkpt>
      <trkpt lat="45.56227" lon="5.96539">
        <ele>291.39999389648</ele>
        <time>2013-08-25T12:00:08.000Z</time>
      </trkpt>
      <trkpt lat="45.56229" lon="5.96542">
        <ele>291.60000610352</ele>
        <time>2013-08-25T12:00:09.000Z</time>
      </trkpt>
      <trkpt lat="45.56233" lon="5.96544">
        <ele>291.60000610352</ele>
        <time>2013-08-25T12:00:17.000Z</time>
      </trkpt>
      <trkpt lat="45.56232" lon="5.96546">
        <ele>291.60000610352</ele>
        <time>2013-08-25T12:00:37.000Z</time>
      </trkpt>
      <trkpt lat="45.56232" lon="5.96544">
        <ele>291.60000610352</ele>
        <time>2013-08-25T12:01:04.000Z</time>
      </trkpt>
      <trkpt lat="45.56232" lon="5.96544">
        <ele>291.60000610352</ele>
        <time>2013-08-25T12:01:20.000Z</time>
      </trkpt>
      <trkpt lat="45.56231" lon="5.96543">
        <ele>291.60000610352</ele>
        <time>2013-08-25T12:01:33.000Z</time>
      </trkpt>
      <trkpt lat="45.5623" lon="5.96541">
        <ele>291.60000610352</ele>
        <time>2013-08-25T12:01:34.000Z</time>
      </trkpt>
      <trkpt lat="45.56227" lon="5.96539">
        <ele>291.39999389648</ele>
        <time>2013-08-25T12:01:35.000Z</time>
      </trkpt>
      <trkpt lat="45.56224" lon="5.96538">
        <ele>291.39999389648</ele>
        <time>2013-08-25T12:01:36.000Z</time>
      </trkpt>
      <trkpt lat="45.56221" lon="5.96536">
        <ele>291.39999389648</ele>
        <time>2013-08-25T12:01:37.000Z</time>
      </trkpt>
      <trkpt lat="45.56217" lon="5.96534">
        <ele>291.39999389648</ele>
        <time>2013-08-25T12:01:38.000Z</time>
      </trkpt>
      <trkpt lat="45.5621" lon="5.96533">
        <ele>291.39999389648</ele>
        <time>2013-08-25T12:01:40.000Z</time>
      </trkpt>
      <trkpt lat="45.56206" lon="5.96533">
        <ele>291.60000610352</ele>
        <time>2013-08-25T12:01:41.000Z</time>
      </trkpt>
      <trkpt lat="45.56201" lon="5.96534">
        <ele>291.60000610352</ele>
        <time>2013-08-25T12:01:42.000Z</time>
      </trkpt>
      <trkpt lat="45.56196" lon="5.96535">
        <ele>291.60000610352</ele>
        <time>2013-08-25T12:01:43.000Z</time>
      </trkpt>
      <trkpt lat="45.56192" lon="5.96538">
        <ele>291.79998779297</ele>
        <time>2013-08-25T12:01:44.000Z</time>
      </trkpt>
      <trkpt lat="45.56188" lon="5.96541">
        <ele>291.79998779297</ele>
        <time>2013-08-25T12:01:45.000Z</time>
      </trkpt>
      <trkpt lat="45.56183" lon="5.96544">
        <ele>291.79998779297</ele>
        <time>2013-08-25T12:01:46.000Z</time>
      </trkpt>
      <trkpt lat="45.56178" lon="5.96547">
        <ele>291.79998779297</ele>
        <time>2013-08-25T12:01:47.000Z</time>
      </trkpt>
      <trkpt lat="45.56168" lon="5.96553">
        <ele>291.79998779297</ele>
        <time>2013-08-25T12:01:49.000Z</time>
      </trkpt>
      <trkpt lat="45.56165" lon="5.96557">
        <ele>291.79998779297</ele>
        <time>2013-08-25T12:01:50.000Z</time>
      </trkpt>
      <trkpt lat="45.56164" lon="5.96561">
        <ele>291.79998779297</ele>
        <time>2013-08-25T12:01:51.000Z</time>
      </trkpt>
      <trkpt lat="45.56165" lon="5.96566">
        <ele>291.79998779297</ele>
        <time>2013-08-25T12:01:52.000Z</time>
      </trkpt>
      <trkpt lat="45.56166" lon="5.96571">
        <ele>291.79998779297</ele>
        <time>2013-08-25T12:01:53.000Z</time>
      </trkpt>
      <trkpt lat="45.56167" lon="5.96577">
        <ele>292</ele>
        <time>2013-08-25T12:01:54.000Z</time>
      </trkpt>
      <trkpt lat="45.56166" lon="5.96584">
        <ele>291.79998779297</ele>
        <time>2013-08-25T12:01:55.000Z</time>
      </trkpt>
      <trkpt lat="45.56163" lon="5.9659">
        <ele>291.79998779297</ele>
        <time>2013-08-25T12:01:56.000Z</time>
      </trkpt>
      <trkpt lat="45.56158" lon="5.96595">
        <ele>291.60000610352</ele>
        <time>2013-08-25T12:01:57.000Z</time>
      </trkpt>
      <trkpt lat="45.56153" lon="5.96598">
        <ele>291.39999389648</ele>
        <time>2013-08-25T12:01:58.000Z</time>
      </trkpt>
      <trkpt lat="45.56148" lon="5.96602">
        <ele>291.39999389648</ele>
        <time>2013-08-25T12:01:59.000Z</time>
      </trkpt>
      <trkpt lat="45.5612" lon="5.9662">
        <ele>290.79998779297</ele>
        <time>2013-08-25T12:02:05.000Z</time>
      </trkpt>
      <trkpt lat="45.56105" lon="5.96634">
        <ele>290.60000610352</ele>
        <time>2013-08-25T12:02:09.000Z</time>
      </trkpt>
      <trkpt lat="45.56104" lon="5.96638">
        <ele>290.60000610352</ele>
        <time>2013-08-25T12:02:10.000Z</time>
      </trkpt>
      <trkpt lat="45.56102" lon="5.9665">
        <ele>290.79998779297</ele>
        <time>2013-08-25T12:02:20.000Z</time>
      </trkpt>
      <trkpt lat="45.56103" lon="5.96652">
        <ele>290.79998779297</ele>
        <time>2013-08-25T12:02:34.000Z</time>
      </trkpt>
      <trkpt lat="45.56103" lon="5.96653">
        <ele>290.79998779297</ele>
        <time>2013-08-25T12:02:36.000Z</time>
      </trkpt>
      <trkpt lat="45.56105" lon="5.96654">
        <ele>291</ele>
        <time>2013-08-25T12:02:39.000Z</time>
      </trkpt>
      <trkpt lat="45.56106" lon="5.96655">
        <ele>291</ele>
        <time>2013-08-25T12:02:40.000Z</time>
      </trkpt>
      <trkpt lat="45.56106" lon="5.96655">
        <ele>291</ele>
        <time>2013-08-25T12:02:42.000Z</time>
      </trkpt>
      <trkpt lat="45.56108" lon="5.96656">
        <ele>291</ele>
        <time>2013-08-25T12:02:46.000Z</time>
      </trkpt>
      <trkpt lat="45.56108" lon="5.96656">
        <ele>291</ele>
        <time>2013-08-25T12:06:50.000Z</time>
      </trkpt>
      <trkpt lat="45.56108" lon="5.96656">
        <ele>291</ele>
        <time>2013-08-25T12:06:52.000Z</time>
      </trkpt>
      <trkpt lat="45.56126" lon="5.96644">
        <ele>291.20001220703</ele>
        <time>2013-08-25T12:07:00.000Z</time>
      </trkpt>
      <trkpt lat="45.56113" lon="5.96647">
        <ele>291</ele>
        <time>2013-08-25T12:07:43.000Z</time>
      </trkpt>
      <trkpt lat="45.56112" lon="5.96646">
        <ele>291</ele>
        <time>2013-08-25T12:07:46.000Z</time>
      </trkpt>
      <trkpt lat="45.56112" lon="5.96646">
        <ele>291</ele>
        <time>2013-08-25T12:45:46.000Z</time>
      </trkpt>
      <trkpt lat="45.56112" lon="5.96646">
        <ele>291</ele>
        <time>2013-08-25T12:45:48.000Z</time>
      </trkpt>
      <trkpt lat="45.5623" lon="5.96548">
        <ele>291.79998779297</ele>
        <time>2013-08-25T12:45:51.000Z</time>
      </trkpt>
      <trkpt lat="45.56231" lon="5.96543">
        <ele>291.60000610352</ele>
        <time>2013-08-25T12:46:07.000Z</time>
      </trkpt>
      <trkpt lat="45.5623" lon="5.96543">
        <ele>291.60000610352</ele>
        <time>2013-08-25T12:46:08.000Z</time>
      </trkpt>
      <trkpt lat="45.5623" lon="5.96544">
        <ele>291.60000610352</ele>
        <time>2013-08-25T12:46:16.000Z</time>
      </trkpt>
      <trkpt lat="45.5623" lon="5.96544">
        <ele>291.60000610352</ele>
        <time>2013-08-25T12:46:17.000Z</time>
      </trkpt>
      <trkpt lat="45.5623" lon="5.96543">
        <ele>291.60000610352</ele>
        <time>2013-08-25T12:46:26.000Z</time>
      </trkpt>
      <trkpt lat="45.56229" lon="5.96543">
        <ele>291.60000610352</ele>
        <time>2013-08-25T12:46:32.000Z</time>
      </trkpt>
      <trkpt lat="45.5623" lon="5.96545">
        <ele>291.60000610352</ele>
        <time>2013-08-25T12:46:47.000Z</time>
      </trkpt>
      <trkpt lat="45.56229" lon="5.96541">
        <ele>291.60000610352</ele>
        <time>2013-08-25T12:47:20.000Z</time>
      </trkpt>
      <trkpt lat="45.56229" lon="5.96541">
        <ele>291.60000610352</ele>
        <time>2013-08-25T15:45:51.000Z</time>
      </trkpt>
      <trkpt lat="45.56229" lon="5.96541">
        <ele>291.60000610352</ele>
        <time>2013-08-25T15:45:52.000Z</time>
      </trkpt>
      <trkpt lat="45.56229" lon="5.96541">
        <ele>291.60000610352</ele>
        <time>2013-08-25T15:45:53.000Z</time>
      </trkpt>
    </trkseg>
  </trk>
</gpx>